<?xml version="1.0" encoding="UTF-8" standalone="no" ?>
<gpx xmlns="http://www.topografix.com/GPX/1/1" xmlns:xsi="http://www.w3.org/2001/XMLSchema-instance" xsi:schemaLocation="http://www.topografix.com/GPX/1/1 http://www.topografix.com/GPX/1/1/gpx.xsd" version="1.1" creator="VisuGPX - https://www.visugpx.com">
  <metadata>
    <name>2015-09-20 Bike ride-Amberieux en Dombes O</name>
    <desc><![CDATA[2015-09-20 Bike ride-Amberieux en Dombes O]]></desc>
  </metadata>
  <wpt lat="45.92468" lon="4.73728">
    <ele>179.5</ele>
    <name><![CDATA[2015-09-20 11:15 (Start)]]></name>
  </wpt>
  <wpt lat="45.92466" lon="4.73715">
    <ele>173.3</ele>
    <name><![CDATA[2015-09-20 11:15 (End)]]></name>
    <desc><![CDATA[Created by Google My Tracks on Android  Name: 2015-09-20 11:15 Activity type: biking Description: - Total distance: 44.53 km (27.7 mi) Total time: 2:01:55 Moving time: 2:00:30 Average speed: 21.92 km/h (13.6 mi/h) Average moving speed: 22.17 km/h (13.8 mi/h) Max speed: 48.63 km/h (30.2 mi/h) Average pace: 2:44 min/km (4:24 min/mi) Average moving pace: 2:42 min/km (4:21 min/mi) Fastest pace: 1:14 min/km (1:59 min/mi) Max elevation: 307 m (1008 ft) Min elevation: 169 m (554 ft) Elevation gain: 537 m (1760 ft) Max grade: 9 % Min grade: -72 % Recorded: 20/09/2015 11:15]]></desc>
  </wpt>
  <trk>
    <name><![CDATA[2015-09-20 11:15]]></name>
    <trkseg>
      <trkpt lat="45.92468" lon="4.73728">
        <ele>179.5</ele>
        <time>2015-09-20T09:15:07.168Z</time>
      </trkpt>
      <trkpt lat="45.92468" lon="4.73728">
        <ele>179.5</ele>
        <time>2015-09-20T09:15:10.653Z</time>
      </trkpt>
      <trkpt lat="45.92458" lon="4.73718">
        <ele>164.199996948</ele>
        <time>2015-09-20T09:15:11.534Z</time>
      </trkpt>
      <trkpt lat="45.92458" lon="4.73718">
        <ele>164.199996948</ele>
        <time>2015-09-20T09:15:11.634Z</time>
      </trkpt>
      <trkpt lat="45.92453" lon="4.73717">
        <ele>164.899993896</ele>
        <time>2015-09-20T09:15:12.517Z</time>
      </trkpt>
      <trkpt lat="45.92458" lon="4.73717">
        <ele>175</ele>
        <time>2015-09-20T09:15:15.904Z</time>
      </trkpt>
      <trkpt lat="45.92458" lon="4.73716">
        <ele>175.5</ele>
        <time>2015-09-20T09:15:16.858Z</time>
      </trkpt>
      <trkpt lat="45.92465" lon="4.7371">
        <ele>174.899993896</ele>
        <time>2015-09-20T09:15:24.884Z</time>
      </trkpt>
      <trkpt lat="45.92466" lon="4.73708">
        <ele>174.5</ele>
        <time>2015-09-20T09:15:25.857Z</time>
      </trkpt>
      <trkpt lat="45.92467" lon="4.73696">
        <ele>173.5</ele>
        <time>2015-09-20T09:15:29.885Z</time>
      </trkpt>
      <trkpt lat="45.92467" lon="4.73693">
        <ele>173.100006104</ele>
        <time>2015-09-20T09:15:30.855Z</time>
      </trkpt>
      <trkpt lat="45.92467" lon="4.73681">
        <ele>173.399993896</ele>
        <time>2015-09-20T09:15:33.882Z</time>
      </trkpt>
      <trkpt lat="45.92467" lon="4.73676">
        <ele>173.5</ele>
        <time>2015-09-20T09:15:34.856Z</time>
      </trkpt>
      <trkpt lat="45.92467" lon="4.73666">
        <ele>173.899993896</ele>
        <time>2015-09-20T09:15:36.882Z</time>
      </trkpt>
      <trkpt lat="45.92467" lon="4.73661">
        <ele>173.899993896</ele>
        <time>2015-09-20T09:15:37.852Z</time>
      </trkpt>
      <trkpt lat="45.92468" lon="4.73651">
        <ele>174.300003052</ele>
        <time>2015-09-20T09:15:39.882Z</time>
      </trkpt>
      <trkpt lat="45.92469" lon="4.73647">
        <ele>174.699996948</ele>
        <time>2015-09-20T09:15:40.857Z</time>
      </trkpt>
      <trkpt lat="45.92474" lon="4.73643">
        <ele>175.300003052</ele>
        <time>2015-09-20T09:15:42.917Z</time>
      </trkpt>
      <trkpt lat="45.92478" lon="4.73643">
        <ele>175.199996948</ele>
        <time>2015-09-20T09:15:43.855Z</time>
      </trkpt>
      <trkpt lat="45.92486" lon="4.73644">
        <ele>174.899993896</ele>
        <time>2015-09-20T09:15:45.88Z</time>
      </trkpt>
      <trkpt lat="45.92491" lon="4.73643">
        <ele>175.800003052</ele>
        <time>2015-09-20T09:15:46.855Z</time>
      </trkpt>
      <trkpt lat="45.925" lon="4.73643">
        <ele>176.5</ele>
        <time>2015-09-20T09:15:48.89Z</time>
      </trkpt>
      <trkpt lat="45.92504" lon="4.73643">
        <ele>176.600006104</ele>
        <time>2015-09-20T09:15:49.859Z</time>
      </trkpt>
      <trkpt lat="45.92509" lon="4.73643">
        <ele>176.699996948</ele>
        <time>2015-09-20T09:15:50.881Z</time>
      </trkpt>
      <trkpt lat="45.92514" lon="4.73642">
        <ele>176.800003052</ele>
        <time>2015-09-20T09:15:51.854Z</time>
      </trkpt>
      <trkpt lat="45.92518" lon="4.73642">
        <ele>176.899993896</ele>
        <time>2015-09-20T09:15:52.878Z</time>
      </trkpt>
      <trkpt lat="45.92523" lon="4.73642">
        <ele>177.100006104</ele>
        <time>2015-09-20T09:15:53.875Z</time>
      </trkpt>
      <trkpt lat="45.92528" lon="4.73641">
        <ele>177.100006104</ele>
        <time>2015-09-20T09:15:54.896Z</time>
      </trkpt>
      <trkpt lat="45.92533" lon="4.7364">
        <ele>178.199996948</ele>
        <time>2015-09-20T09:15:55.858Z</time>
      </trkpt>
      <trkpt lat="45.92539" lon="4.73638">
        <ele>178.5</ele>
        <time>2015-09-20T09:15:56.88Z</time>
      </trkpt>
      <trkpt lat="45.92544" lon="4.73637">
        <ele>179.100006104</ele>
        <time>2015-09-20T09:15:57.857Z</time>
      </trkpt>
      <trkpt lat="45.92549" lon="4.73636">
        <ele>179.800003052</ele>
        <time>2015-09-20T09:15:58.885Z</time>
      </trkpt>
      <trkpt lat="45.92554" lon="4.73634">
        <ele>180.199996948</ele>
        <time>2015-09-20T09:15:59.858Z</time>
      </trkpt>
      <trkpt lat="45.9256" lon="4.73633">
        <ele>180.800003052</ele>
        <time>2015-09-20T09:16:00.903Z</time>
      </trkpt>
      <trkpt lat="45.92566" lon="4.73632">
        <ele>180.899993896</ele>
        <time>2015-09-20T09:16:01.854Z</time>
      </trkpt>
      <trkpt lat="45.92571" lon="4.7363">
        <ele>181</ele>
        <time>2015-09-20T09:16:02.88Z</time>
      </trkpt>
      <trkpt lat="45.92576" lon="4.73629">
        <ele>180.699996948</ele>
        <time>2015-09-20T09:16:03.854Z</time>
      </trkpt>
      <trkpt lat="45.92582" lon="4.73627">
        <ele>180.100006104</ele>
        <time>2015-09-20T09:16:04.881Z</time>
      </trkpt>
      <trkpt lat="45.92588" lon="4.73626">
        <ele>179.899993896</ele>
        <time>2015-09-20T09:16:05.914Z</time>
      </trkpt>
      <trkpt lat="45.92593" lon="4.73625">
        <ele>180.199996948</ele>
        <time>2015-09-20T09:16:06.88Z</time>
      </trkpt>
      <trkpt lat="45.92599" lon="4.73625">
        <ele>179.899993896</ele>
        <time>2015-09-20T09:16:07.858Z</time>
      </trkpt>
      <trkpt lat="45.92605" lon="4.73625">
        <ele>180.100006104</ele>
        <time>2015-09-20T09:16:08.882Z</time>
      </trkpt>
      <trkpt lat="45.9261" lon="4.73628">
        <ele>179.699996948</ele>
        <time>2015-09-20T09:16:09.854Z</time>
      </trkpt>
      <trkpt lat="45.92615" lon="4.73633">
        <ele>179.300003052</ele>
        <time>2015-09-20T09:16:10.881Z</time>
      </trkpt>
      <trkpt lat="45.92619" lon="4.73641">
        <ele>179</ele>
        <time>2015-09-20T09:16:11.858Z</time>
      </trkpt>
      <trkpt lat="45.92623" lon="4.73649">
        <ele>178.5</ele>
        <time>2015-09-20T09:16:12.88Z</time>
      </trkpt>
      <trkpt lat="45.92626" lon="4.73658">
        <ele>178.199996948</ele>
        <time>2015-09-20T09:16:13.854Z</time>
      </trkpt>
      <trkpt lat="45.92629" lon="4.73666">
        <ele>177.899993896</ele>
        <time>2015-09-20T09:16:14.892Z</time>
      </trkpt>
      <trkpt lat="45.92633" lon="4.73673">
        <ele>177.899993896</ele>
        <time>2015-09-20T09:16:15.854Z</time>
      </trkpt>
      <trkpt lat="45.92637" lon="4.7368">
        <ele>177.5</ele>
        <time>2015-09-20T09:16:16.881Z</time>
      </trkpt>
      <trkpt lat="45.92642" lon="4.73687">
        <ele>177.300003052</ele>
        <time>2015-09-20T09:16:17.857Z</time>
      </trkpt>
      <trkpt lat="45.92647" lon="4.73693">
        <ele>177</ele>
        <time>2015-09-20T09:16:18.893Z</time>
      </trkpt>
      <trkpt lat="45.92652" lon="4.73697">
        <ele>176.5</ele>
        <time>2015-09-20T09:16:19.854Z</time>
      </trkpt>
      <trkpt lat="45.92658" lon="4.73701">
        <ele>176.300003052</ele>
        <time>2015-09-20T09:16:20.879Z</time>
      </trkpt>
      <trkpt lat="45.92665" lon="4.73704">
        <ele>176.300003052</ele>
        <time>2015-09-20T09:16:21.853Z</time>
      </trkpt>
      <trkpt lat="45.92671" lon="4.73707">
        <ele>176.399993896</ele>
        <time>2015-09-20T09:16:22.879Z</time>
      </trkpt>
      <trkpt lat="45.92678" lon="4.7371">
        <ele>176.5</ele>
        <time>2015-09-20T09:16:23.859Z</time>
      </trkpt>
      <trkpt lat="45.92684" lon="4.73712">
        <ele>176.800003052</ele>
        <time>2015-09-20T09:16:24.924Z</time>
      </trkpt>
      <trkpt lat="45.92691" lon="4.73713">
        <ele>176.300003052</ele>
        <time>2015-09-20T09:16:25.856Z</time>
      </trkpt>
      <trkpt lat="45.92697" lon="4.73715">
        <ele>176.300003052</ele>
        <time>2015-09-20T09:16:26.88Z</time>
      </trkpt>
      <trkpt lat="45.92703" lon="4.73717">
        <ele>176.699996948</ele>
        <time>2015-09-20T09:16:27.85Z</time>
      </trkpt>
      <trkpt lat="45.9271" lon="4.73718">
        <ele>176.699996948</ele>
        <time>2015-09-20T09:16:28.882Z</time>
      </trkpt>
      <trkpt lat="45.92717" lon="4.73719">
        <ele>176.800003052</ele>
        <time>2015-09-20T09:16:29.858Z</time>
      </trkpt>
      <trkpt lat="45.92723" lon="4.7372">
        <ele>176.899993896</ele>
        <time>2015-09-20T09:16:30.95Z</time>
      </trkpt>
      <trkpt lat="45.92729" lon="4.73721">
        <ele>177</ele>
        <time>2015-09-20T09:16:31.854Z</time>
      </trkpt>
      <trkpt lat="45.92735" lon="4.73721">
        <ele>177</ele>
        <time>2015-09-20T09:16:32.879Z</time>
      </trkpt>
      <trkpt lat="45.92742" lon="4.73722">
        <ele>176.899993896</ele>
        <time>2015-09-20T09:16:33.854Z</time>
      </trkpt>
      <trkpt lat="45.92748" lon="4.73723">
        <ele>177.399993896</ele>
        <time>2015-09-20T09:16:34.964Z</time>
      </trkpt>
      <trkpt lat="45.92753" lon="4.73724">
        <ele>178.100006104</ele>
        <time>2015-09-20T09:16:35.874Z</time>
      </trkpt>
      <trkpt lat="45.92758" lon="4.73726">
        <ele>178.699996948</ele>
        <time>2015-09-20T09:16:36.879Z</time>
      </trkpt>
      <trkpt lat="45.92762" lon="4.73728">
        <ele>178.300003052</ele>
        <time>2015-09-20T09:16:37.855Z</time>
      </trkpt>
      <trkpt lat="45.92769" lon="4.7373">
        <ele>177.600006104</ele>
        <time>2015-09-20T09:16:39.88Z</time>
      </trkpt>
      <trkpt lat="45.92772" lon="4.73731">
        <ele>177.699996948</ele>
        <time>2015-09-20T09:16:41.45Z</time>
      </trkpt>
      <trkpt lat="45.9278" lon="4.73733">
        <ele>179.800003052</ele>
        <time>2015-09-20T09:16:43.881Z</time>
      </trkpt>
      <trkpt lat="45.92784" lon="4.73732">
        <ele>179.899993896</ele>
        <time>2015-09-20T09:16:44.854Z</time>
      </trkpt>
      <trkpt lat="45.92786" lon="4.73723">
        <ele>180.300003052</ele>
        <time>2015-09-20T09:16:46.881Z</time>
      </trkpt>
      <trkpt lat="45.92787" lon="4.73717">
        <ele>180.300003052</ele>
        <time>2015-09-20T09:16:47.856Z</time>
      </trkpt>
      <trkpt lat="45.92787" lon="4.73711">
        <ele>180.399993896</ele>
        <time>2015-09-20T09:16:48.88Z</time>
      </trkpt>
      <trkpt lat="45.92788" lon="4.73704">
        <ele>180.399993896</ele>
        <time>2015-09-20T09:16:49.857Z</time>
      </trkpt>
      <trkpt lat="45.9279" lon="4.73697">
        <ele>180.399993896</ele>
        <time>2015-09-20T09:16:50.897Z</time>
      </trkpt>
      <trkpt lat="45.92792" lon="4.73691">
        <ele>180.699996948</ele>
        <time>2015-09-20T09:16:51.98Z</time>
      </trkpt>
      <trkpt lat="45.92793" lon="4.73684">
        <ele>182.300003052</ele>
        <time>2015-09-20T09:16:53Z</time>
      </trkpt>
      <trkpt lat="45.92795" lon="4.73677">
        <ele>182.100006104</ele>
        <time>2015-09-20T09:16:53.881Z</time>
      </trkpt>
      <trkpt lat="45.92797" lon="4.73671">
        <ele>182.199996948</ele>
        <time>2015-09-20T09:16:54.894Z</time>
      </trkpt>
      <trkpt lat="45.92797" lon="4.73664">
        <ele>182.5</ele>
        <time>2015-09-20T09:16:55.978Z</time>
      </trkpt>
      <trkpt lat="45.92798" lon="4.73656">
        <ele>182</ele>
        <time>2015-09-20T09:16:56.88Z</time>
      </trkpt>
      <trkpt lat="45.92799" lon="4.73649">
        <ele>181.899993896</ele>
        <time>2015-09-20T09:16:57.859Z</time>
      </trkpt>
      <trkpt lat="45.92802" lon="4.73639">
        <ele>181.5</ele>
        <time>2015-09-20T09:16:59.886Z</time>
      </trkpt>
      <trkpt lat="45.92804" lon="4.73636">
        <ele>181</ele>
        <time>2015-09-20T09:17:00.874Z</time>
      </trkpt>
      <trkpt lat="45.92811" lon="4.73637">
        <ele>180.699996948</ele>
        <time>2015-09-20T09:17:09.946Z</time>
      </trkpt>
      <trkpt lat="45.92811" lon="4.73637">
        <ele>180.600006104</ele>
        <time>2015-09-20T09:17:10.855Z</time>
      </trkpt>
      <trkpt lat="45.92813" lon="4.73633">
        <ele>180.399993896</ele>
        <time>2015-09-20T09:17:12.886Z</time>
      </trkpt>
      <trkpt lat="45.92814" lon="4.7363">
        <ele>180.199996948</ele>
        <time>2015-09-20T09:17:13.854Z</time>
      </trkpt>
      <trkpt lat="45.92816" lon="4.73619">
        <ele>179.399993896</ele>
        <time>2015-09-20T09:17:15.883Z</time>
      </trkpt>
      <trkpt lat="45.92817" lon="4.73613">
        <ele>179</ele>
        <time>2015-09-20T09:17:16.853Z</time>
      </trkpt>
      <trkpt lat="45.92818" lon="4.73607">
        <ele>178.699996948</ele>
        <time>2015-09-20T09:17:17.883Z</time>
      </trkpt>
      <trkpt lat="45.92818" lon="4.736">
        <ele>178.399993896</ele>
        <time>2015-09-20T09:17:18.853Z</time>
      </trkpt>
      <trkpt lat="45.92818" lon="4.73593">
        <ele>178.100006104</ele>
        <time>2015-09-20T09:17:19.888Z</time>
      </trkpt>
      <trkpt lat="45.92818" lon="4.73586">
        <ele>178</ele>
        <time>2015-09-20T09:17:20.855Z</time>
      </trkpt>
      <trkpt lat="45.92819" lon="4.73579">
        <ele>177.800003052</ele>
        <time>2015-09-20T09:17:21.88Z</time>
      </trkpt>
      <trkpt lat="45.92819" lon="4.73572">
        <ele>177.699996948</ele>
        <time>2015-09-20T09:17:22.853Z</time>
      </trkpt>
      <trkpt lat="45.9282" lon="4.73564">
        <ele>177.100006104</ele>
        <time>2015-09-20T09:17:23.901Z</time>
      </trkpt>
      <trkpt lat="45.9282" lon="4.73556">
        <ele>176.800003052</ele>
        <time>2015-09-20T09:17:24.854Z</time>
      </trkpt>
      <trkpt lat="45.92821" lon="4.73548">
        <ele>176.899993896</ele>
        <time>2015-09-20T09:17:25.882Z</time>
      </trkpt>
      <trkpt lat="45.92822" lon="4.7354">
        <ele>176.800003052</ele>
        <time>2015-09-20T09:17:26.853Z</time>
      </trkpt>
      <trkpt lat="45.92822" lon="4.73531">
        <ele>176.600006104</ele>
        <time>2015-09-20T09:17:27.88Z</time>
      </trkpt>
      <trkpt lat="45.92823" lon="4.73523">
        <ele>176.5</ele>
        <time>2015-09-20T09:17:28.853Z</time>
      </trkpt>
      <trkpt lat="45.92824" lon="4.73514">
        <ele>176.5</ele>
        <time>2015-09-20T09:17:29.882Z</time>
      </trkpt>
      <trkpt lat="45.92824" lon="4.73506">
        <ele>176.600006104</ele>
        <time>2015-09-20T09:17:30.854Z</time>
      </trkpt>
      <trkpt lat="45.92825" lon="4.73496">
        <ele>176.699996948</ele>
        <time>2015-09-20T09:17:31.88Z</time>
      </trkpt>
      <trkpt lat="45.92826" lon="4.73487">
        <ele>176.399993896</ele>
        <time>2015-09-20T09:17:32.854Z</time>
      </trkpt>
      <trkpt lat="45.92827" lon="4.73477">
        <ele>176.199996948</ele>
        <time>2015-09-20T09:17:33.879Z</time>
      </trkpt>
      <trkpt lat="45.92828" lon="4.73467">
        <ele>176.399993896</ele>
        <time>2015-09-20T09:17:34.877Z</time>
      </trkpt>
      <trkpt lat="45.92829" lon="4.73458">
        <ele>176.399993896</ele>
        <time>2015-09-20T09:17:35.882Z</time>
      </trkpt>
      <trkpt lat="45.92831" lon="4.73449">
        <ele>176.399993896</ele>
        <time>2015-09-20T09:17:36.854Z</time>
      </trkpt>
      <trkpt lat="45.92832" lon="4.73439">
        <ele>176.399993896</ele>
        <time>2015-09-20T09:17:37.88Z</time>
      </trkpt>
      <trkpt lat="45.92833" lon="4.7343">
        <ele>176.199996948</ele>
        <time>2015-09-20T09:17:38.854Z</time>
      </trkpt>
      <trkpt lat="45.92835" lon="4.73421">
        <ele>176</ele>
        <time>2015-09-20T09:17:39.88Z</time>
      </trkpt>
      <trkpt lat="45.92836" lon="4.73413">
        <ele>176</ele>
        <time>2015-09-20T09:17:40.854Z</time>
      </trkpt>
      <trkpt lat="45.92837" lon="4.73404">
        <ele>175.899993896</ele>
        <time>2015-09-20T09:17:41.882Z</time>
      </trkpt>
      <trkpt lat="45.92838" lon="4.73395">
        <ele>175.899993896</ele>
        <time>2015-09-20T09:17:42.854Z</time>
      </trkpt>
      <trkpt lat="45.92839" lon="4.73386">
        <ele>175.699996948</ele>
        <time>2015-09-20T09:17:43.927Z</time>
      </trkpt>
      <trkpt lat="45.9284" lon="4.73377">
        <ele>175.600006104</ele>
        <time>2015-09-20T09:17:44.853Z</time>
      </trkpt>
      <trkpt lat="45.92841" lon="4.73368">
        <ele>175.5</ele>
        <time>2015-09-20T09:17:45.878Z</time>
      </trkpt>
      <trkpt lat="45.92842" lon="4.73359">
        <ele>175.5</ele>
        <time>2015-09-20T09:17:46.854Z</time>
      </trkpt>
      <trkpt lat="45.92844" lon="4.7335">
        <ele>175.300003052</ele>
        <time>2015-09-20T09:17:47.881Z</time>
      </trkpt>
      <trkpt lat="45.92845" lon="4.73341">
        <ele>175.5</ele>
        <time>2015-09-20T09:17:48.853Z</time>
      </trkpt>
      <trkpt lat="45.92846" lon="4.73331">
        <ele>175.199996948</ele>
        <time>2015-09-20T09:17:49.879Z</time>
      </trkpt>
      <trkpt lat="45.92847" lon="4.73321">
        <ele>175.199996948</ele>
        <time>2015-09-20T09:17:50.854Z</time>
      </trkpt>
      <trkpt lat="45.92848" lon="4.73311">
        <ele>175</ele>
        <time>2015-09-20T09:17:51.88Z</time>
      </trkpt>
      <trkpt lat="45.92848" lon="4.73302">
        <ele>174.899993896</ele>
        <time>2015-09-20T09:17:52.849Z</time>
      </trkpt>
      <trkpt lat="45.92849" lon="4.73291">
        <ele>174.699996948</ele>
        <time>2015-09-20T09:17:53.883Z</time>
      </trkpt>
      <trkpt lat="45.9285" lon="4.73281">
        <ele>174.800003052</ele>
        <time>2015-09-20T09:17:54.854Z</time>
      </trkpt>
      <trkpt lat="45.92852" lon="4.73272">
        <ele>175.100006104</ele>
        <time>2015-09-20T09:17:55.896Z</time>
      </trkpt>
      <trkpt lat="45.92853" lon="4.73262">
        <ele>175.100006104</ele>
        <time>2015-09-20T09:17:56.853Z</time>
      </trkpt>
      <trkpt lat="45.92855" lon="4.73252">
        <ele>174.699996948</ele>
        <time>2015-09-20T09:17:57.879Z</time>
      </trkpt>
      <trkpt lat="45.92856" lon="4.73242">
        <ele>174.300003052</ele>
        <time>2015-09-20T09:17:58.863Z</time>
      </trkpt>
      <trkpt lat="45.92858" lon="4.73232">
        <ele>173.899993896</ele>
        <time>2015-09-20T09:17:59.881Z</time>
      </trkpt>
      <trkpt lat="45.92859" lon="4.73222">
        <ele>174</ele>
        <time>2015-09-20T09:18:00.854Z</time>
      </trkpt>
      <trkpt lat="45.9286" lon="4.73212">
        <ele>174</ele>
        <time>2015-09-20T09:18:01.879Z</time>
      </trkpt>
      <trkpt lat="45.92861" lon="4.73202">
        <ele>173.600006104</ele>
        <time>2015-09-20T09:18:02.853Z</time>
      </trkpt>
      <trkpt lat="45.92862" lon="4.73192">
        <ele>173.5</ele>
        <time>2015-09-20T09:18:03.879Z</time>
      </trkpt>
      <trkpt lat="45.92864" lon="4.73182">
        <ele>173.100006104</ele>
        <time>2015-09-20T09:18:04.853Z</time>
      </trkpt>
      <trkpt lat="45.92865" lon="4.73172">
        <ele>172.800003052</ele>
        <time>2015-09-20T09:18:05.88Z</time>
      </trkpt>
      <trkpt lat="45.92866" lon="4.73162">
        <ele>172.399993896</ele>
        <time>2015-09-20T09:18:06.854Z</time>
      </trkpt>
      <trkpt lat="45.92867" lon="4.73152">
        <ele>172.699996948</ele>
        <time>2015-09-20T09:18:07.883Z</time>
      </trkpt>
      <trkpt lat="45.92868" lon="4.73142">
        <ele>172.399993896</ele>
        <time>2015-09-20T09:18:08.904Z</time>
      </trkpt>
      <trkpt lat="45.9287" lon="4.73133">
        <ele>172.199996948</ele>
        <time>2015-09-20T09:18:09.88Z</time>
      </trkpt>
      <trkpt lat="45.92872" lon="4.73123">
        <ele>172.100006104</ele>
        <time>2015-09-20T09:18:10.854Z</time>
      </trkpt>
      <trkpt lat="45.92874" lon="4.73114">
        <ele>172</ele>
        <time>2015-09-20T09:18:11.896Z</time>
      </trkpt>
      <trkpt lat="45.92876" lon="4.73105">
        <ele>172</ele>
        <time>2015-09-20T09:18:12.882Z</time>
      </trkpt>
      <trkpt lat="45.92879" lon="4.73096">
        <ele>172.100006104</ele>
        <time>2015-09-20T09:18:13.882Z</time>
      </trkpt>
      <trkpt lat="45.92882" lon="4.73087">
        <ele>171.899993896</ele>
        <time>2015-09-20T09:18:14.853Z</time>
      </trkpt>
      <trkpt lat="45.92885" lon="4.73079">
        <ele>171.899993896</ele>
        <time>2015-09-20T09:18:15.881Z</time>
      </trkpt>
      <trkpt lat="45.92889" lon="4.73071">
        <ele>171.800003052</ele>
        <time>2015-09-20T09:18:16.855Z</time>
      </trkpt>
      <trkpt lat="45.92894" lon="4.73063">
        <ele>171.600006104</ele>
        <time>2015-09-20T09:18:17.883Z</time>
      </trkpt>
      <trkpt lat="45.92898" lon="4.73055">
        <ele>171.699996948</ele>
        <time>2015-09-20T09:18:18.861Z</time>
      </trkpt>
      <trkpt lat="45.92902" lon="4.73049">
        <ele>171.800003052</ele>
        <time>2015-09-20T09:18:19.882Z</time>
      </trkpt>
      <trkpt lat="45.92907" lon="4.73042">
        <ele>171.699996948</ele>
        <time>2015-09-20T09:18:20.855Z</time>
      </trkpt>
      <trkpt lat="45.92911" lon="4.73035">
        <ele>171.699996948</ele>
        <time>2015-09-20T09:18:21.88Z</time>
      </trkpt>
      <trkpt lat="45.92915" lon="4.7303">
        <ele>171.5</ele>
        <time>2015-09-20T09:18:22.854Z</time>
      </trkpt>
      <trkpt lat="45.9292" lon="4.73024">
        <ele>171.199996948</ele>
        <time>2015-09-20T09:18:23.883Z</time>
      </trkpt>
      <trkpt lat="45.92925" lon="4.73019">
        <ele>170.800003052</ele>
        <time>2015-09-20T09:18:24.853Z</time>
      </trkpt>
      <trkpt lat="45.9293" lon="4.73013">
        <ele>170.699996948</ele>
        <time>2015-09-20T09:18:25.88Z</time>
      </trkpt>
      <trkpt lat="45.92934" lon="4.73007">
        <ele>170.699996948</ele>
        <time>2015-09-20T09:18:26.854Z</time>
      </trkpt>
      <trkpt lat="45.92938" lon="4.73001">
        <ele>170.699996948</ele>
        <time>2015-09-20T09:18:27.944Z</time>
      </trkpt>
      <trkpt lat="45.92943" lon="4.72995">
        <ele>170.800003052</ele>
        <time>2015-09-20T09:18:28.855Z</time>
      </trkpt>
      <trkpt lat="45.92948" lon="4.72989">
        <ele>171.100006104</ele>
        <time>2015-09-20T09:18:29.883Z</time>
      </trkpt>
      <trkpt lat="45.92953" lon="4.72983">
        <ele>171.5</ele>
        <time>2015-09-20T09:18:30.856Z</time>
      </trkpt>
      <trkpt lat="45.92958" lon="4.72977">
        <ele>171.399993896</ele>
        <time>2015-09-20T09:18:31.887Z</time>
      </trkpt>
      <trkpt lat="45.92963" lon="4.72972">
        <ele>171.600006104</ele>
        <time>2015-09-20T09:18:32.853Z</time>
      </trkpt>
      <trkpt lat="45.92968" lon="4.72966">
        <ele>171.699996948</ele>
        <time>2015-09-20T09:18:33.881Z</time>
      </trkpt>
      <trkpt lat="45.92973" lon="4.72959">
        <ele>171.800003052</ele>
        <time>2015-09-20T09:18:34.854Z</time>
      </trkpt>
      <trkpt lat="45.92978" lon="4.72953">
        <ele>172.100006104</ele>
        <time>2015-09-20T09:18:35.883Z</time>
      </trkpt>
      <trkpt lat="45.92984" lon="4.72948">
        <ele>172.300003052</ele>
        <time>2015-09-20T09:18:36.854Z</time>
      </trkpt>
      <trkpt lat="45.92989" lon="4.72941">
        <ele>172.800003052</ele>
        <time>2015-09-20T09:18:37.974Z</time>
      </trkpt>
      <trkpt lat="45.92994" lon="4.72935">
        <ele>172.800003052</ele>
        <time>2015-09-20T09:18:38.854Z</time>
      </trkpt>
      <trkpt lat="45.92999" lon="4.72929">
        <ele>172.699996948</ele>
        <time>2015-09-20T09:18:39.878Z</time>
      </trkpt>
      <trkpt lat="45.93005" lon="4.72922">
        <ele>172.699996948</ele>
        <time>2015-09-20T09:18:40.86Z</time>
      </trkpt>
      <trkpt lat="45.9301" lon="4.72916">
        <ele>172.300003052</ele>
        <time>2015-09-20T09:18:41.881Z</time>
      </trkpt>
      <trkpt lat="45.93016" lon="4.7291">
        <ele>172.5</ele>
        <time>2015-09-20T09:18:42.853Z</time>
      </trkpt>
      <trkpt lat="45.93021" lon="4.72903">
        <ele>172.699996948</ele>
        <time>2015-09-20T09:18:43.879Z</time>
      </trkpt>
      <trkpt lat="45.93026" lon="4.72897">
        <ele>173</ele>
        <time>2015-09-20T09:18:44.853Z</time>
      </trkpt>
      <trkpt lat="45.93032" lon="4.72891">
        <ele>173.100006104</ele>
        <time>2015-09-20T09:18:45.88Z</time>
      </trkpt>
      <trkpt lat="45.93037" lon="4.72885">
        <ele>173.300003052</ele>
        <time>2015-09-20T09:18:46.853Z</time>
      </trkpt>
      <trkpt lat="45.93042" lon="4.72878">
        <ele>173.399993896</ele>
        <time>2015-09-20T09:18:48.007Z</time>
      </trkpt>
      <trkpt lat="45.93047" lon="4.72871">
        <ele>173.399993896</ele>
        <time>2015-09-20T09:18:48.869Z</time>
      </trkpt>
      <trkpt lat="45.93054" lon="4.72865">
        <ele>172.199996948</ele>
        <time>2015-09-20T09:18:49.879Z</time>
      </trkpt>
      <trkpt lat="45.93059" lon="4.7286">
        <ele>171.699996948</ele>
        <time>2015-09-20T09:18:50.853Z</time>
      </trkpt>
      <trkpt lat="45.93064" lon="4.72854">
        <ele>171.800003052</ele>
        <time>2015-09-20T09:18:51.879Z</time>
      </trkpt>
      <trkpt lat="45.93069" lon="4.72848">
        <ele>171.899993896</ele>
        <time>2015-09-20T09:18:52.853Z</time>
      </trkpt>
      <trkpt lat="45.93074" lon="4.72842">
        <ele>171.899993896</ele>
        <time>2015-09-20T09:18:53.929Z</time>
      </trkpt>
      <trkpt lat="45.93079" lon="4.72836">
        <ele>172</ele>
        <time>2015-09-20T09:18:54.854Z</time>
      </trkpt>
      <trkpt lat="45.93084" lon="4.72831">
        <ele>172</ele>
        <time>2015-09-20T09:18:55.878Z</time>
      </trkpt>
      <trkpt lat="45.93089" lon="4.72824">
        <ele>172</ele>
        <time>2015-09-20T09:18:56.852Z</time>
      </trkpt>
      <trkpt lat="45.93094" lon="4.72817">
        <ele>171.800003052</ele>
        <time>2015-09-20T09:18:57.878Z</time>
      </trkpt>
      <trkpt lat="45.931" lon="4.72813">
        <ele>171.600006104</ele>
        <time>2015-09-20T09:18:58.854Z</time>
      </trkpt>
      <trkpt lat="45.93104" lon="4.72805">
        <ele>171.600006104</ele>
        <time>2015-09-20T09:18:59.941Z</time>
      </trkpt>
      <trkpt lat="45.93109" lon="4.72799">
        <ele>171.5</ele>
        <time>2015-09-20T09:19:00.855Z</time>
      </trkpt>
      <trkpt lat="45.93115" lon="4.72793">
        <ele>171.699996948</ele>
        <time>2015-09-20T09:19:01.879Z</time>
      </trkpt>
      <trkpt lat="45.9312" lon="4.72788">
        <ele>171.699996948</ele>
        <time>2015-09-20T09:19:02.853Z</time>
      </trkpt>
      <trkpt lat="45.93125" lon="4.72782">
        <ele>171.600006104</ele>
        <time>2015-09-20T09:19:03.878Z</time>
      </trkpt>
      <trkpt lat="45.9313" lon="4.72776">
        <ele>171.5</ele>
        <time>2015-09-20T09:19:04.852Z</time>
      </trkpt>
      <trkpt lat="45.93135" lon="4.7277">
        <ele>171.5</ele>
        <time>2015-09-20T09:19:05.881Z</time>
      </trkpt>
      <trkpt lat="45.9314" lon="4.72765">
        <ele>171.5</ele>
        <time>2015-09-20T09:19:06.852Z</time>
      </trkpt>
      <trkpt lat="45.93145" lon="4.72759">
        <ele>171.5</ele>
        <time>2015-09-20T09:19:07.883Z</time>
      </trkpt>
      <trkpt lat="45.93151" lon="4.72753">
        <ele>171.5</ele>
        <time>2015-09-20T09:19:08.852Z</time>
      </trkpt>
      <trkpt lat="45.93155" lon="4.72747">
        <ele>171.300003052</ele>
        <time>2015-09-20T09:19:09.882Z</time>
      </trkpt>
      <trkpt lat="45.93161" lon="4.72741">
        <ele>170.899993896</ele>
        <time>2015-09-20T09:19:10.857Z</time>
      </trkpt>
      <trkpt lat="45.93166" lon="4.72735">
        <ele>170.5</ele>
        <time>2015-09-20T09:19:11.882Z</time>
      </trkpt>
      <trkpt lat="45.93171" lon="4.72728">
        <ele>170.699996948</ele>
        <time>2015-09-20T09:19:12.852Z</time>
      </trkpt>
      <trkpt lat="45.93176" lon="4.72723">
        <ele>170.600006104</ele>
        <time>2015-09-20T09:19:13.879Z</time>
      </trkpt>
      <trkpt lat="45.93181" lon="4.72717">
        <ele>170.399993896</ele>
        <time>2015-09-20T09:19:14.854Z</time>
      </trkpt>
      <trkpt lat="45.93185" lon="4.72711">
        <ele>170.600006104</ele>
        <time>2015-09-20T09:19:15.893Z</time>
      </trkpt>
      <trkpt lat="45.9319" lon="4.72705">
        <ele>170.699996948</ele>
        <time>2015-09-20T09:19:16.904Z</time>
      </trkpt>
      <trkpt lat="45.93195" lon="4.72699">
        <ele>170.699996948</ele>
        <time>2015-09-20T09:19:17.881Z</time>
      </trkpt>
      <trkpt lat="45.932" lon="4.72693">
        <ele>170.699996948</ele>
        <time>2015-09-20T09:19:18.853Z</time>
      </trkpt>
      <trkpt lat="45.93205" lon="4.72687">
        <ele>170.5</ele>
        <time>2015-09-20T09:19:19.878Z</time>
      </trkpt>
      <trkpt lat="45.9321" lon="4.72681">
        <ele>170</ele>
        <time>2015-09-20T09:19:20.86Z</time>
      </trkpt>
      <trkpt lat="45.93215" lon="4.72675">
        <ele>169.800003052</ele>
        <time>2015-09-20T09:19:21.877Z</time>
      </trkpt>
      <trkpt lat="45.9322" lon="4.72669">
        <ele>169.399993896</ele>
        <time>2015-09-20T09:19:22.852Z</time>
      </trkpt>
      <trkpt lat="45.93226" lon="4.72663">
        <ele>168.699996948</ele>
        <time>2015-09-20T09:19:23.88Z</time>
      </trkpt>
      <trkpt lat="45.93231" lon="4.72657">
        <ele>168.5</ele>
        <time>2015-09-20T09:19:24.853Z</time>
      </trkpt>
      <trkpt lat="45.93236" lon="4.72651">
        <ele>168.399993896</ele>
        <time>2015-09-20T09:19:25.879Z</time>
      </trkpt>
      <trkpt lat="45.93241" lon="4.72645">
        <ele>168.600006104</ele>
        <time>2015-09-20T09:19:26.854Z</time>
      </trkpt>
      <trkpt lat="45.93247" lon="4.72638">
        <ele>168.5</ele>
        <time>2015-09-20T09:19:27.878Z</time>
      </trkpt>
      <trkpt lat="45.93252" lon="4.72632">
        <ele>168.699996948</ele>
        <time>2015-09-20T09:19:28.852Z</time>
      </trkpt>
      <trkpt lat="45.93257" lon="4.72626">
        <ele>168.800003052</ele>
        <time>2015-09-20T09:19:29.881Z</time>
      </trkpt>
      <trkpt lat="45.93263" lon="4.7262">
        <ele>168.699996948</ele>
        <time>2015-09-20T09:19:30.907Z</time>
      </trkpt>
      <trkpt lat="45.93268" lon="4.72614">
        <ele>168.699996948</ele>
        <time>2015-09-20T09:19:31.976Z</time>
      </trkpt>
      <trkpt lat="45.93273" lon="4.72608">
        <ele>168.899993896</ele>
        <time>2015-09-20T09:19:32.894Z</time>
      </trkpt>
      <trkpt lat="45.93278" lon="4.72602">
        <ele>168.899993896</ele>
        <time>2015-09-20T09:19:33.877Z</time>
      </trkpt>
      <trkpt lat="45.93283" lon="4.72596">
        <ele>169</ele>
        <time>2015-09-20T09:19:34.851Z</time>
      </trkpt>
      <trkpt lat="45.93289" lon="4.72591">
        <ele>169.199996948</ele>
        <time>2015-09-20T09:19:35.924Z</time>
      </trkpt>
      <trkpt lat="45.93293" lon="4.72585">
        <ele>169.399993896</ele>
        <time>2015-09-20T09:19:36.857Z</time>
      </trkpt>
      <trkpt lat="45.93298" lon="4.72579">
        <ele>169.5</ele>
        <time>2015-09-20T09:19:37.882Z</time>
      </trkpt>
      <trkpt lat="45.93303" lon="4.72573">
        <ele>169.399993896</ele>
        <time>2015-09-20T09:19:38.853Z</time>
      </trkpt>
      <trkpt lat="45.93308" lon="4.72568">
        <ele>169.5</ele>
        <time>2015-09-20T09:19:39.879Z</time>
      </trkpt>
      <trkpt lat="45.93313" lon="4.72563">
        <ele>169.600006104</ele>
        <time>2015-09-20T09:19:40.869Z</time>
      </trkpt>
      <trkpt lat="45.93318" lon="4.72557">
        <ele>169.899993896</ele>
        <time>2015-09-20T09:19:41.881Z</time>
      </trkpt>
      <trkpt lat="45.93323" lon="4.72552">
        <ele>170.100006104</ele>
        <time>2015-09-20T09:19:42.868Z</time>
      </trkpt>
      <trkpt lat="45.93327" lon="4.72546">
        <ele>170.300003052</ele>
        <time>2015-09-20T09:19:43.879Z</time>
      </trkpt>
      <trkpt lat="45.93332" lon="4.7254">
        <ele>170.399993896</ele>
        <time>2015-09-20T09:19:44.853Z</time>
      </trkpt>
      <trkpt lat="45.93337" lon="4.72534">
        <ele>170.399993896</ele>
        <time>2015-09-20T09:19:45.979Z</time>
      </trkpt>
      <trkpt lat="45.93341" lon="4.72528">
        <ele>170.600006104</ele>
        <time>2015-09-20T09:19:46.853Z</time>
      </trkpt>
      <trkpt lat="45.93346" lon="4.72523">
        <ele>170.800003052</ele>
        <time>2015-09-20T09:19:47.881Z</time>
      </trkpt>
      <trkpt lat="45.93351" lon="4.72517">
        <ele>170.5</ele>
        <time>2015-09-20T09:19:48.853Z</time>
      </trkpt>
      <trkpt lat="45.93357" lon="4.72511">
        <ele>170.399993896</ele>
        <time>2015-09-20T09:19:49.879Z</time>
      </trkpt>
      <trkpt lat="45.93362" lon="4.72505">
        <ele>170.399993896</ele>
        <time>2015-09-20T09:19:50.854Z</time>
      </trkpt>
      <trkpt lat="45.93367" lon="4.725">
        <ele>170.800003052</ele>
        <time>2015-09-20T09:19:51.877Z</time>
      </trkpt>
      <trkpt lat="45.93371" lon="4.72494">
        <ele>171</ele>
        <time>2015-09-20T09:19:52.852Z</time>
      </trkpt>
      <trkpt lat="45.93376" lon="4.72489">
        <ele>171.300003052</ele>
        <time>2015-09-20T09:19:53.881Z</time>
      </trkpt>
      <trkpt lat="45.93381" lon="4.72483">
        <ele>171.5</ele>
        <time>2015-09-20T09:19:54.852Z</time>
      </trkpt>
      <trkpt lat="45.93385" lon="4.72477">
        <ele>171.800003052</ele>
        <time>2015-09-20T09:19:55.88Z</time>
      </trkpt>
      <trkpt lat="45.9339" lon="4.72472">
        <ele>171.899993896</ele>
        <time>2015-09-20T09:19:56.854Z</time>
      </trkpt>
      <trkpt lat="45.93393" lon="4.72466">
        <ele>172.300003052</ele>
        <time>2015-09-20T09:19:57.878Z</time>
      </trkpt>
      <trkpt lat="45.93396" lon="4.7246">
        <ele>172.600006104</ele>
        <time>2015-09-20T09:19:58.854Z</time>
      </trkpt>
      <trkpt lat="45.93398" lon="4.72449">
        <ele>172.800003052</ele>
        <time>2015-09-20T09:20:00.89Z</time>
      </trkpt>
      <trkpt lat="45.93399" lon="4.72444">
        <ele>172.5</ele>
        <time>2015-09-20T09:20:01.853Z</time>
      </trkpt>
      <trkpt lat="45.93404" lon="4.72433">
        <ele>172.5</ele>
        <time>2015-09-20T09:20:03.896Z</time>
      </trkpt>
      <trkpt lat="45.93407" lon="4.72428">
        <ele>172.100006104</ele>
        <time>2015-09-20T09:20:04.852Z</time>
      </trkpt>
      <trkpt lat="45.9341" lon="4.72424">
        <ele>172.300003052</ele>
        <time>2015-09-20T09:20:05.88Z</time>
      </trkpt>
      <trkpt lat="45.93414" lon="4.72419">
        <ele>172.5</ele>
        <time>2015-09-20T09:20:06.852Z</time>
      </trkpt>
      <trkpt lat="45.93418" lon="4.72416">
        <ele>172.600006104</ele>
        <time>2015-09-20T09:20:07.882Z</time>
      </trkpt>
      <trkpt lat="45.93423" lon="4.72414">
        <ele>172.399993896</ele>
        <time>2015-09-20T09:20:08.853Z</time>
      </trkpt>
      <trkpt lat="45.93428" lon="4.72412">
        <ele>172.600006104</ele>
        <time>2015-09-20T09:20:09.889Z</time>
      </trkpt>
      <trkpt lat="45.93433" lon="4.72409">
        <ele>172.800003052</ele>
        <time>2015-09-20T09:20:10.854Z</time>
      </trkpt>
      <trkpt lat="45.93438" lon="4.72406">
        <ele>173</ele>
        <time>2015-09-20T09:20:11.882Z</time>
      </trkpt>
      <trkpt lat="45.93442" lon="4.72403">
        <ele>173.100006104</ele>
        <time>2015-09-20T09:20:12.853Z</time>
      </trkpt>
      <trkpt lat="45.93447" lon="4.724">
        <ele>173.300003052</ele>
        <time>2015-09-20T09:20:13.878Z</time>
      </trkpt>
      <trkpt lat="45.93452" lon="4.72396">
        <ele>173.300003052</ele>
        <time>2015-09-20T09:20:14.904Z</time>
      </trkpt>
      <trkpt lat="45.93456" lon="4.72391">
        <ele>173.300003052</ele>
        <time>2015-09-20T09:20:15.88Z</time>
      </trkpt>
      <trkpt lat="45.93461" lon="4.72386">
        <ele>173.5</ele>
        <time>2015-09-20T09:20:16.852Z</time>
      </trkpt>
      <trkpt lat="45.93465" lon="4.72381">
        <ele>173.600006104</ele>
        <time>2015-09-20T09:20:17.881Z</time>
      </trkpt>
      <trkpt lat="45.9347" lon="4.72375">
        <ele>173.699996948</ele>
        <time>2015-09-20T09:20:18.854Z</time>
      </trkpt>
      <trkpt lat="45.93474" lon="4.72369">
        <ele>173.699996948</ele>
        <time>2015-09-20T09:20:19.893Z</time>
      </trkpt>
      <trkpt lat="45.93478" lon="4.72363">
        <ele>173.899993896</ele>
        <time>2015-09-20T09:20:20.856Z</time>
      </trkpt>
      <trkpt lat="45.93482" lon="4.72357">
        <ele>174</ele>
        <time>2015-09-20T09:20:21.914Z</time>
      </trkpt>
      <trkpt lat="45.93486" lon="4.72351">
        <ele>174</ele>
        <time>2015-09-20T09:20:22.853Z</time>
      </trkpt>
      <trkpt lat="45.9349" lon="4.72345">
        <ele>174.100006104</ele>
        <time>2015-09-20T09:20:23.883Z</time>
      </trkpt>
      <trkpt lat="45.93495" lon="4.72341">
        <ele>174.399993896</ele>
        <time>2015-09-20T09:20:24.852Z</time>
      </trkpt>
      <trkpt lat="45.93499" lon="4.72335">
        <ele>174.399993896</ele>
        <time>2015-09-20T09:20:25.88Z</time>
      </trkpt>
      <trkpt lat="45.93504" lon="4.7233">
        <ele>174.600006104</ele>
        <time>2015-09-20T09:20:26.853Z</time>
      </trkpt>
      <trkpt lat="45.93508" lon="4.72325">
        <ele>174.899993896</ele>
        <time>2015-09-20T09:20:27.877Z</time>
      </trkpt>
      <trkpt lat="45.93511" lon="4.72319">
        <ele>175.300003052</ele>
        <time>2015-09-20T09:20:28.857Z</time>
      </trkpt>
      <trkpt lat="45.93515" lon="4.72314">
        <ele>175.699996948</ele>
        <time>2015-09-20T09:20:29.884Z</time>
      </trkpt>
      <trkpt lat="45.93519" lon="4.72308">
        <ele>176</ele>
        <time>2015-09-20T09:20:30.855Z</time>
      </trkpt>
      <trkpt lat="45.93521" lon="4.72302">
        <ele>176.600006104</ele>
        <time>2015-09-20T09:20:31.89Z</time>
      </trkpt>
      <trkpt lat="45.93524" lon="4.72295">
        <ele>176.899993896</ele>
        <time>2015-09-20T09:20:32.852Z</time>
      </trkpt>
      <trkpt lat="45.93526" lon="4.72289">
        <ele>177.199996948</ele>
        <time>2015-09-20T09:20:33.878Z</time>
      </trkpt>
      <trkpt lat="45.93529" lon="4.72282">
        <ele>177.300003052</ele>
        <time>2015-09-20T09:20:34.852Z</time>
      </trkpt>
      <trkpt lat="45.93532" lon="4.72275">
        <ele>177.100006104</ele>
        <time>2015-09-20T09:20:35.929Z</time>
      </trkpt>
      <trkpt lat="45.93534" lon="4.72268">
        <ele>176.800003052</ele>
        <time>2015-09-20T09:20:36.852Z</time>
      </trkpt>
      <trkpt lat="45.93537" lon="4.72262">
        <ele>176.600006104</ele>
        <time>2015-09-20T09:20:37.878Z</time>
      </trkpt>
      <trkpt lat="45.9354" lon="4.72255">
        <ele>176</ele>
        <time>2015-09-20T09:20:38.852Z</time>
      </trkpt>
      <trkpt lat="45.93542" lon="4.72248">
        <ele>175.600006104</ele>
        <time>2015-09-20T09:20:39.877Z</time>
      </trkpt>
      <trkpt lat="45.93545" lon="4.72242">
        <ele>175.199996948</ele>
        <time>2015-09-20T09:20:40.852Z</time>
      </trkpt>
      <trkpt lat="45.93547" lon="4.72235">
        <ele>175</ele>
        <time>2015-09-20T09:20:41.88Z</time>
      </trkpt>
      <trkpt lat="45.93551" lon="4.7223">
        <ele>174.899993896</ele>
        <time>2015-09-20T09:20:42.852Z</time>
      </trkpt>
      <trkpt lat="45.93556" lon="4.72227">
        <ele>174.699996948</ele>
        <time>2015-09-20T09:20:43.878Z</time>
      </trkpt>
      <trkpt lat="45.93561" lon="4.72227">
        <ele>174.800003052</ele>
        <time>2015-09-20T09:20:44.851Z</time>
      </trkpt>
      <trkpt lat="45.93566" lon="4.72229">
        <ele>174.699996948</ele>
        <time>2015-09-20T09:20:45.878Z</time>
      </trkpt>
      <trkpt lat="45.93571" lon="4.72234">
        <ele>174.600006104</ele>
        <time>2015-09-20T09:20:46.853Z</time>
      </trkpt>
      <trkpt lat="45.93575" lon="4.72239">
        <ele>174.399993896</ele>
        <time>2015-09-20T09:20:47.888Z</time>
      </trkpt>
      <trkpt lat="45.93579" lon="4.72244">
        <ele>174.300003052</ele>
        <time>2015-09-20T09:20:48.853Z</time>
      </trkpt>
      <trkpt lat="45.93584" lon="4.72248">
        <ele>174.300003052</ele>
        <time>2015-09-20T09:20:49.878Z</time>
      </trkpt>
      <trkpt lat="45.93588" lon="4.72252">
        <ele>174.300003052</ele>
        <time>2015-09-20T09:20:50.868Z</time>
      </trkpt>
      <trkpt lat="45.93593" lon="4.72257">
        <ele>174.199996948</ele>
        <time>2015-09-20T09:20:51.892Z</time>
      </trkpt>
      <trkpt lat="45.93597" lon="4.72262">
        <ele>174.199996948</ele>
        <time>2015-09-20T09:20:52.852Z</time>
      </trkpt>
      <trkpt lat="45.93602" lon="4.72266">
        <ele>174.100006104</ele>
        <time>2015-09-20T09:20:53.881Z</time>
      </trkpt>
      <trkpt lat="45.93606" lon="4.72271">
        <ele>174</ele>
        <time>2015-09-20T09:20:54.856Z</time>
      </trkpt>
      <trkpt lat="45.93611" lon="4.72275">
        <ele>174</ele>
        <time>2015-09-20T09:20:55.88Z</time>
      </trkpt>
      <trkpt lat="45.93615" lon="4.72279">
        <ele>173.899993896</ele>
        <time>2015-09-20T09:20:56.853Z</time>
      </trkpt>
      <trkpt lat="45.9362" lon="4.72284">
        <ele>173.800003052</ele>
        <time>2015-09-20T09:20:57.878Z</time>
      </trkpt>
      <trkpt lat="45.93625" lon="4.72288">
        <ele>173.600006104</ele>
        <time>2015-09-20T09:20:58.853Z</time>
      </trkpt>
      <trkpt lat="45.9363" lon="4.72292">
        <ele>173.699996948</ele>
        <time>2015-09-20T09:20:59.881Z</time>
      </trkpt>
      <trkpt lat="45.93634" lon="4.72296">
        <ele>173.600006104</ele>
        <time>2015-09-20T09:21:00.856Z</time>
      </trkpt>
      <trkpt lat="45.93639" lon="4.723">
        <ele>173.600006104</ele>
        <time>2015-09-20T09:21:01.877Z</time>
      </trkpt>
      <trkpt lat="45.93643" lon="4.72304">
        <ele>173.399993896</ele>
        <time>2015-09-20T09:21:02.853Z</time>
      </trkpt>
      <trkpt lat="45.93648" lon="4.72309">
        <ele>173.5</ele>
        <time>2015-09-20T09:21:03.878Z</time>
      </trkpt>
      <trkpt lat="45.93652" lon="4.72314">
        <ele>173.300003052</ele>
        <time>2015-09-20T09:21:04.852Z</time>
      </trkpt>
      <trkpt lat="45.93657" lon="4.72319">
        <ele>173.5</ele>
        <time>2015-09-20T09:21:05.881Z</time>
      </trkpt>
      <trkpt lat="45.93663" lon="4.72323">
        <ele>173.100006104</ele>
        <time>2015-09-20T09:21:06.854Z</time>
      </trkpt>
      <trkpt lat="45.93668" lon="4.72328">
        <ele>172.899993896</ele>
        <time>2015-09-20T09:21:07.897Z</time>
      </trkpt>
      <trkpt lat="45.93674" lon="4.72333">
        <ele>172.699996948</ele>
        <time>2015-09-20T09:21:08.853Z</time>
      </trkpt>
      <trkpt lat="45.9368" lon="4.72339">
        <ele>172.5</ele>
        <time>2015-09-20T09:21:09.878Z</time>
      </trkpt>
      <trkpt lat="45.93685" lon="4.72344">
        <ele>172.300003052</ele>
        <time>2015-09-20T09:21:10.857Z</time>
      </trkpt>
      <trkpt lat="45.9369" lon="4.72348">
        <ele>172.300003052</ele>
        <time>2015-09-20T09:21:11.881Z</time>
      </trkpt>
      <trkpt lat="45.93695" lon="4.72354">
        <ele>172.100006104</ele>
        <time>2015-09-20T09:21:12.853Z</time>
      </trkpt>
      <trkpt lat="45.93701" lon="4.72358">
        <ele>171.199996948</ele>
        <time>2015-09-20T09:21:13.944Z</time>
      </trkpt>
      <trkpt lat="45.93706" lon="4.72363">
        <ele>170.600006104</ele>
        <time>2015-09-20T09:21:14.853Z</time>
      </trkpt>
      <trkpt lat="45.93711" lon="4.72369">
        <ele>169.800003052</ele>
        <time>2015-09-20T09:21:15.878Z</time>
      </trkpt>
      <trkpt lat="45.93716" lon="4.72374">
        <ele>169.399993896</ele>
        <time>2015-09-20T09:21:16.844Z</time>
      </trkpt>
      <trkpt lat="45.93721" lon="4.72378">
        <ele>169</ele>
        <time>2015-09-20T09:21:17.882Z</time>
      </trkpt>
      <trkpt lat="45.93726" lon="4.72382">
        <ele>168.5</ele>
        <time>2015-09-20T09:21:18.852Z</time>
      </trkpt>
      <trkpt lat="45.93731" lon="4.72387">
        <ele>168.199996948</ele>
        <time>2015-09-20T09:21:19.878Z</time>
      </trkpt>
      <trkpt lat="45.93735" lon="4.7239">
        <ele>168</ele>
        <time>2015-09-20T09:21:20.871Z</time>
      </trkpt>
      <trkpt lat="45.9374" lon="4.72395">
        <ele>167.800003052</ele>
        <time>2015-09-20T09:21:21.878Z</time>
      </trkpt>
      <trkpt lat="45.93744" lon="4.72399">
        <ele>167.600006104</ele>
        <time>2015-09-20T09:21:22.852Z</time>
      </trkpt>
      <trkpt lat="45.93749" lon="4.72404">
        <ele>167.600006104</ele>
        <time>2015-09-20T09:21:23.976Z</time>
      </trkpt>
      <trkpt lat="45.93753" lon="4.7241">
        <ele>167.600006104</ele>
        <time>2015-09-20T09:21:24.852Z</time>
      </trkpt>
      <trkpt lat="45.93759" lon="4.72414">
        <ele>167.399993896</ele>
        <time>2015-09-20T09:21:25.88Z</time>
      </trkpt>
      <trkpt lat="45.93763" lon="4.72419">
        <ele>167.899993896</ele>
        <time>2015-09-20T09:21:26.853Z</time>
      </trkpt>
      <trkpt lat="45.93768" lon="4.72424">
        <ele>168.100006104</ele>
        <time>2015-09-20T09:21:27.878Z</time>
      </trkpt>
      <trkpt lat="45.93773" lon="4.72428">
        <ele>168.199996948</ele>
        <time>2015-09-20T09:21:28.853Z</time>
      </trkpt>
      <trkpt lat="45.93779" lon="4.72433">
        <ele>168.199996948</ele>
        <time>2015-09-20T09:21:29.88Z</time>
      </trkpt>
      <trkpt lat="45.93784" lon="4.72438">
        <ele>168.600006104</ele>
        <time>2015-09-20T09:21:30.857Z</time>
      </trkpt>
      <trkpt lat="45.93789" lon="4.72443">
        <ele>169</ele>
        <time>2015-09-20T09:21:31.877Z</time>
      </trkpt>
      <trkpt lat="45.93794" lon="4.72448">
        <ele>169.300003052</ele>
        <time>2015-09-20T09:21:32.852Z</time>
      </trkpt>
      <trkpt lat="45.93798" lon="4.72452">
        <ele>169.5</ele>
        <time>2015-09-20T09:21:33.879Z</time>
      </trkpt>
      <trkpt lat="45.93803" lon="4.72457">
        <ele>169.699996948</ele>
        <time>2015-09-20T09:21:34.853Z</time>
      </trkpt>
      <trkpt lat="45.93809" lon="4.72463">
        <ele>169.699996948</ele>
        <time>2015-09-20T09:21:35.89Z</time>
      </trkpt>
      <trkpt lat="45.93814" lon="4.72467">
        <ele>169.5</ele>
        <time>2015-09-20T09:21:36.852Z</time>
      </trkpt>
      <trkpt lat="45.93818" lon="4.72472">
        <ele>169.800003052</ele>
        <time>2015-09-20T09:21:37.879Z</time>
      </trkpt>
      <trkpt lat="45.93822" lon="4.72476">
        <ele>170.300003052</ele>
        <time>2015-09-20T09:21:38.851Z</time>
      </trkpt>
      <trkpt lat="45.93827" lon="4.72479">
        <ele>170.399993896</ele>
        <time>2015-09-20T09:21:39.892Z</time>
      </trkpt>
      <trkpt lat="45.93831" lon="4.72483">
        <ele>170.600006104</ele>
        <time>2015-09-20T09:21:40.864Z</time>
      </trkpt>
      <trkpt lat="45.93837" lon="4.72486">
        <ele>170.699996948</ele>
        <time>2015-09-20T09:21:41.881Z</time>
      </trkpt>
      <trkpt lat="45.93842" lon="4.7249">
        <ele>170.899993896</ele>
        <time>2015-09-20T09:21:42.852Z</time>
      </trkpt>
      <trkpt lat="45.93848" lon="4.72492">
        <ele>171</ele>
        <time>2015-09-20T09:21:43.879Z</time>
      </trkpt>
      <trkpt lat="45.93853" lon="4.72495">
        <ele>171.100006104</ele>
        <time>2015-09-20T09:21:44.851Z</time>
      </trkpt>
      <trkpt lat="45.93858" lon="4.72498">
        <ele>171.199996948</ele>
        <time>2015-09-20T09:21:45.878Z</time>
      </trkpt>
      <trkpt lat="45.93862" lon="4.72511">
        <ele>171.300003052</ele>
        <time>2015-09-20T09:21:46.856Z</time>
      </trkpt>
      <trkpt lat="45.93867" lon="4.72516">
        <ele>171.5</ele>
        <time>2015-09-20T09:21:47.882Z</time>
      </trkpt>
      <trkpt lat="45.93872" lon="4.72515">
        <ele>171.699996948</ele>
        <time>2015-09-20T09:21:48.853Z</time>
      </trkpt>
      <trkpt lat="45.93877" lon="4.72513">
        <ele>172.100006104</ele>
        <time>2015-09-20T09:21:49.878Z</time>
      </trkpt>
      <trkpt lat="45.93882" lon="4.72509">
        <ele>172.199996948</ele>
        <time>2015-09-20T09:21:50.852Z</time>
      </trkpt>
      <trkpt lat="45.93886" lon="4.72503">
        <ele>172.399993896</ele>
        <time>2015-09-20T09:21:51.877Z</time>
      </trkpt>
      <trkpt lat="45.9389" lon="4.72498">
        <ele>172.5</ele>
        <time>2015-09-20T09:21:52.878Z</time>
      </trkpt>
      <trkpt lat="45.93894" lon="4.72493">
        <ele>172.699996948</ele>
        <time>2015-09-20T09:21:53.887Z</time>
      </trkpt>
      <trkpt lat="45.939" lon="4.72488">
        <ele>172.600006104</ele>
        <time>2015-09-20T09:21:54.853Z</time>
      </trkpt>
      <trkpt lat="45.93905" lon="4.72483">
        <ele>172.600006104</ele>
        <time>2015-09-20T09:21:55.895Z</time>
      </trkpt>
      <trkpt lat="45.93909" lon="4.72478">
        <ele>172.600006104</ele>
        <time>2015-09-20T09:21:56.852Z</time>
      </trkpt>
      <trkpt lat="45.93914" lon="4.72472">
        <ele>172.300003052</ele>
        <time>2015-09-20T09:21:57.93Z</time>
      </trkpt>
      <trkpt lat="45.93918" lon="4.72466">
        <ele>172.5</ele>
        <time>2015-09-20T09:21:58.873Z</time>
      </trkpt>
      <trkpt lat="45.93923" lon="4.7246">
        <ele>172.300003052</ele>
        <time>2015-09-20T09:21:59.88Z</time>
      </trkpt>
      <trkpt lat="45.93928" lon="4.72454">
        <ele>172</ele>
        <time>2015-09-20T09:22:00.853Z</time>
      </trkpt>
      <trkpt lat="45.93933" lon="4.72448">
        <ele>171.899993896</ele>
        <time>2015-09-20T09:22:01.914Z</time>
      </trkpt>
      <trkpt lat="45.93938" lon="4.72442">
        <ele>171.800003052</ele>
        <time>2015-09-20T09:22:02.853Z</time>
      </trkpt>
      <trkpt lat="45.93943" lon="4.72437">
        <ele>171.899993896</ele>
        <time>2015-09-20T09:22:03.878Z</time>
      </trkpt>
      <trkpt lat="45.93948" lon="4.7243">
        <ele>171.699996948</ele>
        <time>2015-09-20T09:22:04.853Z</time>
      </trkpt>
      <trkpt lat="45.93953" lon="4.72424">
        <ele>171.800003052</ele>
        <time>2015-09-20T09:22:05.881Z</time>
      </trkpt>
      <trkpt lat="45.93958" lon="4.72418">
        <ele>171.699996948</ele>
        <time>2015-09-20T09:22:06.852Z</time>
      </trkpt>
      <trkpt lat="45.93963" lon="4.72412">
        <ele>171.5</ele>
        <time>2015-09-20T09:22:07.882Z</time>
      </trkpt>
      <trkpt lat="45.93969" lon="4.72406">
        <ele>171.199996948</ele>
        <time>2015-09-20T09:22:08.852Z</time>
      </trkpt>
      <trkpt lat="45.93975" lon="4.72399">
        <ele>171.100006104</ele>
        <time>2015-09-20T09:22:09.877Z</time>
      </trkpt>
      <trkpt lat="45.9398" lon="4.72392">
        <ele>171.300003052</ele>
        <time>2015-09-20T09:22:10.865Z</time>
      </trkpt>
      <trkpt lat="45.93986" lon="4.72386">
        <ele>171.399993896</ele>
        <time>2015-09-20T09:22:11.896Z</time>
      </trkpt>
      <trkpt lat="45.93991" lon="4.7238">
        <ele>171.5</ele>
        <time>2015-09-20T09:22:12.852Z</time>
      </trkpt>
      <trkpt lat="45.93997" lon="4.72373">
        <ele>171.100006104</ele>
        <time>2015-09-20T09:22:13.878Z</time>
      </trkpt>
      <trkpt lat="45.94002" lon="4.72366">
        <ele>170.899993896</ele>
        <time>2015-09-20T09:22:14.852Z</time>
      </trkpt>
      <trkpt lat="45.94007" lon="4.7236">
        <ele>170.699996948</ele>
        <time>2015-09-20T09:22:15.878Z</time>
      </trkpt>
      <trkpt lat="45.94012" lon="4.72354">
        <ele>170.600006104</ele>
        <time>2015-09-20T09:22:16.852Z</time>
      </trkpt>
      <trkpt lat="45.94016" lon="4.72348">
        <ele>170.699996948</ele>
        <time>2015-09-20T09:22:17.913Z</time>
      </trkpt>
      <trkpt lat="45.94021" lon="4.72342">
        <ele>170.800003052</ele>
        <time>2015-09-20T09:22:18.852Z</time>
      </trkpt>
      <trkpt lat="45.94025" lon="4.72336">
        <ele>170.600006104</ele>
        <time>2015-09-20T09:22:19.878Z</time>
      </trkpt>
      <trkpt lat="45.9403" lon="4.7233">
        <ele>170.699996948</ele>
        <time>2015-09-20T09:22:20.853Z</time>
      </trkpt>
      <trkpt lat="45.94034" lon="4.72324">
        <ele>170.600006104</ele>
        <time>2015-09-20T09:22:21.877Z</time>
      </trkpt>
      <trkpt lat="45.94039" lon="4.72319">
        <ele>170.699996948</ele>
        <time>2015-09-20T09:22:22.856Z</time>
      </trkpt>
      <trkpt lat="45.94043" lon="4.72313">
        <ele>170.5</ele>
        <time>2015-09-20T09:22:23.883Z</time>
      </trkpt>
      <trkpt lat="45.94048" lon="4.72307">
        <ele>170.300003052</ele>
        <time>2015-09-20T09:22:24.851Z</time>
      </trkpt>
      <trkpt lat="45.94052" lon="4.72302">
        <ele>170.5</ele>
        <time>2015-09-20T09:22:25.878Z</time>
      </trkpt>
      <trkpt lat="45.94056" lon="4.72297">
        <ele>170.699996948</ele>
        <time>2015-09-20T09:22:26.851Z</time>
      </trkpt>
      <trkpt lat="45.94061" lon="4.72292">
        <ele>170.800003052</ele>
        <time>2015-09-20T09:22:27.893Z</time>
      </trkpt>
      <trkpt lat="45.94065" lon="4.72287">
        <ele>171.100006104</ele>
        <time>2015-09-20T09:22:28.852Z</time>
      </trkpt>
      <trkpt lat="45.94069" lon="4.72282">
        <ele>171.100006104</ele>
        <time>2015-09-20T09:22:29.879Z</time>
      </trkpt>
      <trkpt lat="45.94074" lon="4.72278">
        <ele>171.199996948</ele>
        <time>2015-09-20T09:22:30.854Z</time>
      </trkpt>
      <trkpt lat="45.94078" lon="4.72274">
        <ele>171.300003052</ele>
        <time>2015-09-20T09:22:31.877Z</time>
      </trkpt>
      <trkpt lat="45.94083" lon="4.72271">
        <ele>171.5</ele>
        <time>2015-09-20T09:22:32.852Z</time>
      </trkpt>
      <trkpt lat="45.94088" lon="4.72269">
        <ele>171.600006104</ele>
        <time>2015-09-20T09:22:33.877Z</time>
      </trkpt>
      <trkpt lat="45.94093" lon="4.72268">
        <ele>171.899993896</ele>
        <time>2015-09-20T09:22:34.852Z</time>
      </trkpt>
      <trkpt lat="45.94098" lon="4.72268">
        <ele>171.699996948</ele>
        <time>2015-09-20T09:22:35.879Z</time>
      </trkpt>
      <trkpt lat="45.94103" lon="4.72269">
        <ele>171.699996948</ele>
        <time>2015-09-20T09:22:36.852Z</time>
      </trkpt>
      <trkpt lat="45.94109" lon="4.7227">
        <ele>171.600006104</ele>
        <time>2015-09-20T09:22:37.877Z</time>
      </trkpt>
      <trkpt lat="45.94115" lon="4.72273">
        <ele>171.800003052</ele>
        <time>2015-09-20T09:22:38.853Z</time>
      </trkpt>
      <trkpt lat="45.94121" lon="4.72275">
        <ele>171.699996948</ele>
        <time>2015-09-20T09:22:39.877Z</time>
      </trkpt>
      <trkpt lat="45.94126" lon="4.72278">
        <ele>171.699996948</ele>
        <time>2015-09-20T09:22:40.854Z</time>
      </trkpt>
      <trkpt lat="45.94132" lon="4.72281">
        <ele>171.600006104</ele>
        <time>2015-09-20T09:22:41.881Z</time>
      </trkpt>
      <trkpt lat="45.94138" lon="4.72284">
        <ele>171.399993896</ele>
        <time>2015-09-20T09:22:42.852Z</time>
      </trkpt>
      <trkpt lat="45.94144" lon="4.72286">
        <ele>171.300003052</ele>
        <time>2015-09-20T09:22:43.894Z</time>
      </trkpt>
      <trkpt lat="45.9415" lon="4.72288">
        <ele>171.100006104</ele>
        <time>2015-09-20T09:22:44.893Z</time>
      </trkpt>
      <trkpt lat="45.94156" lon="4.7229">
        <ele>170.800003052</ele>
        <time>2015-09-20T09:22:45.877Z</time>
      </trkpt>
      <trkpt lat="45.94162" lon="4.72291">
        <ele>170.800003052</ele>
        <time>2015-09-20T09:22:46.87Z</time>
      </trkpt>
      <trkpt lat="45.94167" lon="4.72292">
        <ele>170.600006104</ele>
        <time>2015-09-20T09:22:47.88Z</time>
      </trkpt>
      <trkpt lat="45.94173" lon="4.72293">
        <ele>170.5</ele>
        <time>2015-09-20T09:22:48.858Z</time>
      </trkpt>
      <trkpt lat="45.94179" lon="4.72293">
        <ele>170.399993896</ele>
        <time>2015-09-20T09:22:49.879Z</time>
      </trkpt>
      <trkpt lat="45.94185" lon="4.72293">
        <ele>170.300003052</ele>
        <time>2015-09-20T09:22:50.854Z</time>
      </trkpt>
      <trkpt lat="45.94191" lon="4.72294">
        <ele>170.100006104</ele>
        <time>2015-09-20T09:22:51.876Z</time>
      </trkpt>
      <trkpt lat="45.94197" lon="4.72294">
        <ele>170.199996948</ele>
        <time>2015-09-20T09:22:52.851Z</time>
      </trkpt>
      <trkpt lat="45.94203" lon="4.72294">
        <ele>170.100006104</ele>
        <time>2015-09-20T09:22:53.879Z</time>
      </trkpt>
      <trkpt lat="45.94209" lon="4.72294">
        <ele>169.899993896</ele>
        <time>2015-09-20T09:22:54.852Z</time>
      </trkpt>
      <trkpt lat="45.94215" lon="4.72293">
        <ele>170</ele>
        <time>2015-09-20T09:22:55.876Z</time>
      </trkpt>
      <trkpt lat="45.9422" lon="4.72293">
        <ele>170.399993896</ele>
        <time>2015-09-20T09:22:56.852Z</time>
      </trkpt>
      <trkpt lat="45.94225" lon="4.72292">
        <ele>170.100006104</ele>
        <time>2015-09-20T09:22:57.876Z</time>
      </trkpt>
      <trkpt lat="45.94231" lon="4.7229">
        <ele>170.199996948</ele>
        <time>2015-09-20T09:22:58.847Z</time>
      </trkpt>
      <trkpt lat="45.94236" lon="4.72288">
        <ele>170.399993896</ele>
        <time>2015-09-20T09:22:59.894Z</time>
      </trkpt>
      <trkpt lat="45.94241" lon="4.72286">
        <ele>170.399993896</ele>
        <time>2015-09-20T09:23:00.853Z</time>
      </trkpt>
      <trkpt lat="45.94246" lon="4.72284">
        <ele>170.600006104</ele>
        <time>2015-09-20T09:23:01.876Z</time>
      </trkpt>
      <trkpt lat="45.94251" lon="4.72282">
        <ele>170.600006104</ele>
        <time>2015-09-20T09:23:02.852Z</time>
      </trkpt>
      <trkpt lat="45.94255" lon="4.7228">
        <ele>170.600006104</ele>
        <time>2015-09-20T09:23:03.877Z</time>
      </trkpt>
      <trkpt lat="45.9426" lon="4.72278">
        <ele>170.899993896</ele>
        <time>2015-09-20T09:23:04.852Z</time>
      </trkpt>
      <trkpt lat="45.94267" lon="4.72275">
        <ele>170.800003052</ele>
        <time>2015-09-20T09:23:06.876Z</time>
      </trkpt>
      <trkpt lat="45.9427" lon="4.72275">
        <ele>170.899993896</ele>
        <time>2015-09-20T09:23:07.856Z</time>
      </trkpt>
      <trkpt lat="45.94276" lon="4.7228">
        <ele>171.300003052</ele>
        <time>2015-09-20T09:23:10.898Z</time>
      </trkpt>
      <trkpt lat="45.94278" lon="4.72284">
        <ele>171.699996948</ele>
        <time>2015-09-20T09:23:11.854Z</time>
      </trkpt>
      <trkpt lat="45.94281" lon="4.72292">
        <ele>172.199996948</ele>
        <time>2015-09-20T09:23:13.878Z</time>
      </trkpt>
      <trkpt lat="45.94284" lon="4.72297">
        <ele>172</ele>
        <time>2015-09-20T09:23:14.851Z</time>
      </trkpt>
      <trkpt lat="45.94289" lon="4.72307">
        <ele>171.899993896</ele>
        <time>2015-09-20T09:23:16.884Z</time>
      </trkpt>
      <trkpt lat="45.94292" lon="4.72313">
        <ele>171.899993896</ele>
        <time>2015-09-20T09:23:17.854Z</time>
      </trkpt>
      <trkpt lat="45.94294" lon="4.72319">
        <ele>172</ele>
        <time>2015-09-20T09:23:18.909Z</time>
      </trkpt>
      <trkpt lat="45.94297" lon="4.72324">
        <ele>171.899993896</ele>
        <time>2015-09-20T09:23:19.852Z</time>
      </trkpt>
      <trkpt lat="45.943" lon="4.7233">
        <ele>171.899993896</ele>
        <time>2015-09-20T09:23:20.912Z</time>
      </trkpt>
      <trkpt lat="45.94303" lon="4.72336">
        <ele>171.699996948</ele>
        <time>2015-09-20T09:23:21.854Z</time>
      </trkpt>
      <trkpt lat="45.94306" lon="4.72343">
        <ele>171.899993896</ele>
        <time>2015-09-20T09:23:22.878Z</time>
      </trkpt>
      <trkpt lat="45.94308" lon="4.72349">
        <ele>171.899993896</ele>
        <time>2015-09-20T09:23:23.856Z</time>
      </trkpt>
      <trkpt lat="45.94312" lon="4.72356">
        <ele>171.800003052</ele>
        <time>2015-09-20T09:23:24.881Z</time>
      </trkpt>
      <trkpt lat="45.94315" lon="4.72362">
        <ele>171.699996948</ele>
        <time>2015-09-20T09:23:25.852Z</time>
      </trkpt>
      <trkpt lat="45.94318" lon="4.72369">
        <ele>171.800003052</ele>
        <time>2015-09-20T09:23:26.876Z</time>
      </trkpt>
      <trkpt lat="45.9432" lon="4.72375">
        <ele>171.800003052</ele>
        <time>2015-09-20T09:23:27.851Z</time>
      </trkpt>
      <trkpt lat="45.94323" lon="4.72383">
        <ele>171.899993896</ele>
        <time>2015-09-20T09:23:28.876Z</time>
      </trkpt>
      <trkpt lat="45.94326" lon="4.7239">
        <ele>172</ele>
        <time>2015-09-20T09:23:29.854Z</time>
      </trkpt>
      <trkpt lat="45.94329" lon="4.72397">
        <ele>172.100006104</ele>
        <time>2015-09-20T09:23:30.924Z</time>
      </trkpt>
      <trkpt lat="45.94333" lon="4.72404">
        <ele>172.199996948</ele>
        <time>2015-09-20T09:23:31.852Z</time>
      </trkpt>
      <trkpt lat="45.94337" lon="4.72411">
        <ele>172.199996948</ele>
        <time>2015-09-20T09:23:32.877Z</time>
      </trkpt>
      <trkpt lat="45.9434" lon="4.72418">
        <ele>172.5</ele>
        <time>2015-09-20T09:23:33.852Z</time>
      </trkpt>
      <trkpt lat="45.94343" lon="4.72426">
        <ele>172.5</ele>
        <time>2015-09-20T09:23:34.878Z</time>
      </trkpt>
      <trkpt lat="45.94346" lon="4.72432">
        <ele>172.399993896</ele>
        <time>2015-09-20T09:23:35.855Z</time>
      </trkpt>
      <trkpt lat="45.94349" lon="4.72439">
        <ele>172.5</ele>
        <time>2015-09-20T09:23:36.878Z</time>
      </trkpt>
      <trkpt lat="45.94352" lon="4.72446">
        <ele>172.399993896</ele>
        <time>2015-09-20T09:23:37.852Z</time>
      </trkpt>
      <trkpt lat="45.94355" lon="4.72453">
        <ele>172.399993896</ele>
        <time>2015-09-20T09:23:38.876Z</time>
      </trkpt>
      <trkpt lat="45.94358" lon="4.7246">
        <ele>172.300003052</ele>
        <time>2015-09-20T09:23:39.851Z</time>
      </trkpt>
      <trkpt lat="45.94361" lon="4.72466">
        <ele>172.600006104</ele>
        <time>2015-09-20T09:23:40.879Z</time>
      </trkpt>
      <trkpt lat="45.94364" lon="4.72473">
        <ele>172.600006104</ele>
        <time>2015-09-20T09:23:41.867Z</time>
      </trkpt>
      <trkpt lat="45.94367" lon="4.7248">
        <ele>172.800003052</ele>
        <time>2015-09-20T09:23:42.877Z</time>
      </trkpt>
      <trkpt lat="45.9437" lon="4.72487">
        <ele>172.800003052</ele>
        <time>2015-09-20T09:23:43.851Z</time>
      </trkpt>
      <trkpt lat="45.94372" lon="4.72494">
        <ele>172.899993896</ele>
        <time>2015-09-20T09:23:44.911Z</time>
      </trkpt>
      <trkpt lat="45.94375" lon="4.72502">
        <ele>173</ele>
        <time>2015-09-20T09:23:45.851Z</time>
      </trkpt>
      <trkpt lat="45.94376" lon="4.72509">
        <ele>173.100006104</ele>
        <time>2015-09-20T09:23:46.877Z</time>
      </trkpt>
      <trkpt lat="45.94379" lon="4.72516">
        <ele>173.199996948</ele>
        <time>2015-09-20T09:23:47.854Z</time>
      </trkpt>
      <trkpt lat="45.94381" lon="4.72524">
        <ele>173.399993896</ele>
        <time>2015-09-20T09:23:48.882Z</time>
      </trkpt>
      <trkpt lat="45.94382" lon="4.72532">
        <ele>173.300003052</ele>
        <time>2015-09-20T09:23:49.851Z</time>
      </trkpt>
      <trkpt lat="45.94384" lon="4.7254">
        <ele>173.5</ele>
        <time>2015-09-20T09:23:50.964Z</time>
      </trkpt>
      <trkpt lat="45.94386" lon="4.72548">
        <ele>173.5</ele>
        <time>2015-09-20T09:23:51.854Z</time>
      </trkpt>
      <trkpt lat="45.94387" lon="4.72556">
        <ele>173.800003052</ele>
        <time>2015-09-20T09:23:52.9Z</time>
      </trkpt>
      <trkpt lat="45.94388" lon="4.72565">
        <ele>173.899993896</ele>
        <time>2015-09-20T09:23:53.855Z</time>
      </trkpt>
      <trkpt lat="45.9439" lon="4.72573">
        <ele>173.899993896</ele>
        <time>2015-09-20T09:23:54.877Z</time>
      </trkpt>
      <trkpt lat="45.94391" lon="4.72581">
        <ele>174.100006104</ele>
        <time>2015-09-20T09:23:55.851Z</time>
      </trkpt>
      <trkpt lat="45.94392" lon="4.7259">
        <ele>174.199996948</ele>
        <time>2015-09-20T09:23:56.878Z</time>
      </trkpt>
      <trkpt lat="45.94393" lon="4.72599">
        <ele>174.100006104</ele>
        <time>2015-09-20T09:23:57.851Z</time>
      </trkpt>
      <trkpt lat="45.94394" lon="4.72608">
        <ele>174.199996948</ele>
        <time>2015-09-20T09:23:58.877Z</time>
      </trkpt>
      <trkpt lat="45.94395" lon="4.72617">
        <ele>174.300003052</ele>
        <time>2015-09-20T09:23:59.849Z</time>
      </trkpt>
      <trkpt lat="45.94397" lon="4.72626">
        <ele>174.100006104</ele>
        <time>2015-09-20T09:24:00.914Z</time>
      </trkpt>
      <trkpt lat="45.94398" lon="4.72635">
        <ele>173.899993896</ele>
        <time>2015-09-20T09:24:01.852Z</time>
      </trkpt>
      <trkpt lat="45.94399" lon="4.72644">
        <ele>173.600006104</ele>
        <time>2015-09-20T09:24:02.88Z</time>
      </trkpt>
      <trkpt lat="45.944" lon="4.72652">
        <ele>173.300003052</ele>
        <time>2015-09-20T09:24:03.851Z</time>
      </trkpt>
      <trkpt lat="45.94401" lon="4.7266">
        <ele>173.100006104</ele>
        <time>2015-09-20T09:24:04.877Z</time>
      </trkpt>
      <trkpt lat="45.94402" lon="4.72668">
        <ele>173.300003052</ele>
        <time>2015-09-20T09:24:05.853Z</time>
      </trkpt>
      <trkpt lat="45.94403" lon="4.72676">
        <ele>173.800003052</ele>
        <time>2015-09-20T09:24:06.876Z</time>
      </trkpt>
      <trkpt lat="45.94404" lon="4.72684">
        <ele>174.100006104</ele>
        <time>2015-09-20T09:24:07.855Z</time>
      </trkpt>
      <trkpt lat="45.94405" lon="4.72692">
        <ele>174</ele>
        <time>2015-09-20T09:24:08.89Z</time>
      </trkpt>
      <trkpt lat="45.94406" lon="4.727">
        <ele>174.199996948</ele>
        <time>2015-09-20T09:24:09.852Z</time>
      </trkpt>
      <trkpt lat="45.94407" lon="4.72707">
        <ele>174.5</ele>
        <time>2015-09-20T09:24:10.88Z</time>
      </trkpt>
      <trkpt lat="45.94408" lon="4.72715">
        <ele>174.899993896</ele>
        <time>2015-09-20T09:24:11.884Z</time>
      </trkpt>
      <trkpt lat="45.9441" lon="4.72723">
        <ele>175.300003052</ele>
        <time>2015-09-20T09:24:12.878Z</time>
      </trkpt>
      <trkpt lat="45.9441" lon="4.72731">
        <ele>175.800003052</ele>
        <time>2015-09-20T09:24:13.852Z</time>
      </trkpt>
      <trkpt lat="45.94411" lon="4.72739">
        <ele>176.300003052</ele>
        <time>2015-09-20T09:24:14.876Z</time>
      </trkpt>
      <trkpt lat="45.94412" lon="4.72747">
        <ele>176.5</ele>
        <time>2015-09-20T09:24:15.851Z</time>
      </trkpt>
      <trkpt lat="45.94413" lon="4.72755">
        <ele>176.800003052</ele>
        <time>2015-09-20T09:24:16.878Z</time>
      </trkpt>
      <trkpt lat="45.94414" lon="4.72763">
        <ele>176.899993896</ele>
        <time>2015-09-20T09:24:17.896Z</time>
      </trkpt>
      <trkpt lat="45.94415" lon="4.72771">
        <ele>177.300003052</ele>
        <time>2015-09-20T09:24:18.877Z</time>
      </trkpt>
      <trkpt lat="45.94416" lon="4.72779">
        <ele>177.5</ele>
        <time>2015-09-20T09:24:19.852Z</time>
      </trkpt>
      <trkpt lat="45.94417" lon="4.72786">
        <ele>177.800003052</ele>
        <time>2015-09-20T09:24:20.879Z</time>
      </trkpt>
      <trkpt lat="45.94419" lon="4.72794">
        <ele>178</ele>
        <time>2015-09-20T09:24:21.851Z</time>
      </trkpt>
      <trkpt lat="45.9442" lon="4.72801">
        <ele>178.300003052</ele>
        <time>2015-09-20T09:24:22.949Z</time>
      </trkpt>
      <trkpt lat="45.9442" lon="4.72809">
        <ele>178.800003052</ele>
        <time>2015-09-20T09:24:23.854Z</time>
      </trkpt>
      <trkpt lat="45.94421" lon="4.72816">
        <ele>179.300003052</ele>
        <time>2015-09-20T09:24:24.89Z</time>
      </trkpt>
      <trkpt lat="45.94422" lon="4.72823">
        <ele>179.5</ele>
        <time>2015-09-20T09:24:25.852Z</time>
      </trkpt>
      <trkpt lat="45.94423" lon="4.7283">
        <ele>179.5</ele>
        <time>2015-09-20T09:24:26.876Z</time>
      </trkpt>
      <trkpt lat="45.94424" lon="4.72837">
        <ele>179.600006104</ele>
        <time>2015-09-20T09:24:27.852Z</time>
      </trkpt>
      <trkpt lat="45.94425" lon="4.72845">
        <ele>179.699996948</ele>
        <time>2015-09-20T09:24:28.876Z</time>
      </trkpt>
      <trkpt lat="45.94426" lon="4.72852">
        <ele>180</ele>
        <time>2015-09-20T09:24:29.853Z</time>
      </trkpt>
      <trkpt lat="45.94427" lon="4.72859">
        <ele>180.199996948</ele>
        <time>2015-09-20T09:24:30.88Z</time>
      </trkpt>
      <trkpt lat="45.94428" lon="4.72865">
        <ele>180.399993896</ele>
        <time>2015-09-20T09:24:31.852Z</time>
      </trkpt>
      <trkpt lat="45.94429" lon="4.72872">
        <ele>180.699996948</ele>
        <time>2015-09-20T09:24:32.876Z</time>
      </trkpt>
      <trkpt lat="45.9443" lon="4.72879">
        <ele>180.800003052</ele>
        <time>2015-09-20T09:24:33.851Z</time>
      </trkpt>
      <trkpt lat="45.94431" lon="4.72885">
        <ele>180.899993896</ele>
        <time>2015-09-20T09:24:34.876Z</time>
      </trkpt>
      <trkpt lat="45.94432" lon="4.72892">
        <ele>181</ele>
        <time>2015-09-20T09:24:35.854Z</time>
      </trkpt>
      <trkpt lat="45.94433" lon="4.72899">
        <ele>181.100006104</ele>
        <time>2015-09-20T09:24:36.876Z</time>
      </trkpt>
      <trkpt lat="45.94434" lon="4.72906">
        <ele>181.199996948</ele>
        <time>2015-09-20T09:24:37.852Z</time>
      </trkpt>
      <trkpt lat="45.94435" lon="4.72913">
        <ele>181.300003052</ele>
        <time>2015-09-20T09:24:38.876Z</time>
      </trkpt>
      <trkpt lat="45.94436" lon="4.72921">
        <ele>181.399993896</ele>
        <time>2015-09-20T09:24:39.851Z</time>
      </trkpt>
      <trkpt lat="45.94437" lon="4.72929">
        <ele>181.699996948</ele>
        <time>2015-09-20T09:24:40.994Z</time>
      </trkpt>
      <trkpt lat="45.94438" lon="4.72937">
        <ele>181.899993896</ele>
        <time>2015-09-20T09:24:41.854Z</time>
      </trkpt>
      <trkpt lat="45.94439" lon="4.72945">
        <ele>182.100006104</ele>
        <time>2015-09-20T09:24:42.878Z</time>
      </trkpt>
      <trkpt lat="45.9444" lon="4.72954">
        <ele>182</ele>
        <time>2015-09-20T09:24:43.853Z</time>
      </trkpt>
      <trkpt lat="45.94441" lon="4.72963">
        <ele>181.800003052</ele>
        <time>2015-09-20T09:24:44.876Z</time>
      </trkpt>
      <trkpt lat="45.94443" lon="4.72972">
        <ele>181.5</ele>
        <time>2015-09-20T09:24:45.851Z</time>
      </trkpt>
      <trkpt lat="45.94444" lon="4.72981">
        <ele>181.199996948</ele>
        <time>2015-09-20T09:24:46.876Z</time>
      </trkpt>
      <trkpt lat="45.94445" lon="4.72991">
        <ele>180.899993896</ele>
        <time>2015-09-20T09:24:47.853Z</time>
      </trkpt>
      <trkpt lat="45.94446" lon="4.73">
        <ele>180.699996948</ele>
        <time>2015-09-20T09:24:48.876Z</time>
      </trkpt>
      <trkpt lat="45.94447" lon="4.7301">
        <ele>180.5</ele>
        <time>2015-09-20T09:24:49.852Z</time>
      </trkpt>
      <trkpt lat="45.94448" lon="4.73019">
        <ele>180.199996948</ele>
        <time>2015-09-20T09:24:50.879Z</time>
      </trkpt>
      <trkpt lat="45.9445" lon="4.73029">
        <ele>180</ele>
        <time>2015-09-20T09:24:51.866Z</time>
      </trkpt>
      <trkpt lat="45.94451" lon="4.73039">
        <ele>179.899993896</ele>
        <time>2015-09-20T09:24:52.897Z</time>
      </trkpt>
      <trkpt lat="45.94452" lon="4.73049">
        <ele>179.300003052</ele>
        <time>2015-09-20T09:24:53.855Z</time>
      </trkpt>
      <trkpt lat="45.94453" lon="4.73059">
        <ele>178.800003052</ele>
        <time>2015-09-20T09:24:54.876Z</time>
      </trkpt>
      <trkpt lat="45.94455" lon="4.7307">
        <ele>179</ele>
        <time>2015-09-20T09:24:55.851Z</time>
      </trkpt>
      <trkpt lat="45.94456" lon="4.7308">
        <ele>178.899993896</ele>
        <time>2015-09-20T09:24:56.876Z</time>
      </trkpt>
      <trkpt lat="45.94457" lon="4.7309">
        <ele>179.100006104</ele>
        <time>2015-09-20T09:24:57.851Z</time>
      </trkpt>
      <trkpt lat="45.94459" lon="4.731">
        <ele>178.899993896</ele>
        <time>2015-09-20T09:24:58.875Z</time>
      </trkpt>
      <trkpt lat="45.9446" lon="4.7311">
        <ele>178.800003052</ele>
        <time>2015-09-20T09:24:59.854Z</time>
      </trkpt>
      <trkpt lat="45.94461" lon="4.7312">
        <ele>178.800003052</ele>
        <time>2015-09-20T09:25:00.879Z</time>
      </trkpt>
      <trkpt lat="45.94463" lon="4.7313">
        <ele>178.800003052</ele>
        <time>2015-09-20T09:25:01.89Z</time>
      </trkpt>
      <trkpt lat="45.94464" lon="4.73139">
        <ele>178.699996948</ele>
        <time>2015-09-20T09:25:02.892Z</time>
      </trkpt>
      <trkpt lat="45.94465" lon="4.73148">
        <ele>178.800003052</ele>
        <time>2015-09-20T09:25:03.851Z</time>
      </trkpt>
      <trkpt lat="45.94467" lon="4.73157">
        <ele>178.800003052</ele>
        <time>2015-09-20T09:25:04.876Z</time>
      </trkpt>
      <trkpt lat="45.94468" lon="4.73166">
        <ele>178.600006104</ele>
        <time>2015-09-20T09:25:05.855Z</time>
      </trkpt>
      <trkpt lat="45.94469" lon="4.73174">
        <ele>178.300003052</ele>
        <time>2015-09-20T09:25:06.877Z</time>
      </trkpt>
      <trkpt lat="45.9447" lon="4.73183">
        <ele>178.199996948</ele>
        <time>2015-09-20T09:25:07.856Z</time>
      </trkpt>
      <trkpt lat="45.94471" lon="4.73191">
        <ele>178</ele>
        <time>2015-09-20T09:25:08.879Z</time>
      </trkpt>
      <trkpt lat="45.94472" lon="4.73199">
        <ele>177.600006104</ele>
        <time>2015-09-20T09:25:09.852Z</time>
      </trkpt>
      <trkpt lat="45.94473" lon="4.73207">
        <ele>177.300003052</ele>
        <time>2015-09-20T09:25:10.88Z</time>
      </trkpt>
      <trkpt lat="45.94474" lon="4.73214">
        <ele>177.399993896</ele>
        <time>2015-09-20T09:25:11.853Z</time>
      </trkpt>
      <trkpt lat="45.94476" lon="4.73226">
        <ele>177.300003052</ele>
        <time>2015-09-20T09:25:13.887Z</time>
      </trkpt>
      <trkpt lat="45.94477" lon="4.73232">
        <ele>177.300003052</ele>
        <time>2015-09-20T09:25:14.852Z</time>
      </trkpt>
      <trkpt lat="45.94478" lon="4.73241">
        <ele>176.800003052</ele>
        <time>2015-09-20T09:25:16.876Z</time>
      </trkpt>
      <trkpt lat="45.94478" lon="4.73246">
        <ele>176.5</ele>
        <time>2015-09-20T09:25:17.854Z</time>
      </trkpt>
      <trkpt lat="45.9448" lon="4.73255">
        <ele>175.899993896</ele>
        <time>2015-09-20T09:25:19.876Z</time>
      </trkpt>
      <trkpt lat="45.94481" lon="4.73259">
        <ele>175.800003052</ele>
        <time>2015-09-20T09:25:20.854Z</time>
      </trkpt>
      <trkpt lat="45.94481" lon="4.7327">
        <ele>176.199996948</ele>
        <time>2015-09-20T09:25:22.876Z</time>
      </trkpt>
      <trkpt lat="45.94482" lon="4.73275">
        <ele>176.899993896</ele>
        <time>2015-09-20T09:25:23.87Z</time>
      </trkpt>
      <trkpt lat="45.94482" lon="4.73287">
        <ele>176.699996948</ele>
        <time>2015-09-20T09:25:25.877Z</time>
      </trkpt>
      <trkpt lat="45.94483" lon="4.73293">
        <ele>176.699996948</ele>
        <time>2015-09-20T09:25:26.851Z</time>
      </trkpt>
      <trkpt lat="45.94484" lon="4.73304">
        <ele>177</ele>
        <time>2015-09-20T09:25:28.877Z</time>
      </trkpt>
      <trkpt lat="45.94484" lon="4.7331">
        <ele>177.300003052</ele>
        <time>2015-09-20T09:25:29.853Z</time>
      </trkpt>
      <trkpt lat="45.94486" lon="4.73321">
        <ele>178</ele>
        <time>2015-09-20T09:25:31.876Z</time>
      </trkpt>
      <trkpt lat="45.94486" lon="4.73327">
        <ele>177.899993896</ele>
        <time>2015-09-20T09:25:32.851Z</time>
      </trkpt>
      <trkpt lat="45.94488" lon="4.73339">
        <ele>178.199996948</ele>
        <time>2015-09-20T09:25:34.878Z</time>
      </trkpt>
      <trkpt lat="45.94489" lon="4.73345">
        <ele>178.5</ele>
        <time>2015-09-20T09:25:35.854Z</time>
      </trkpt>
      <trkpt lat="45.94491" lon="4.73356">
        <ele>178.899993896</ele>
        <time>2015-09-20T09:25:37.877Z</time>
      </trkpt>
      <trkpt lat="45.94492" lon="4.73362">
        <ele>179</ele>
        <time>2015-09-20T09:25:38.851Z</time>
      </trkpt>
      <trkpt lat="45.94493" lon="4.73375">
        <ele>179.399993896</ele>
        <time>2015-09-20T09:25:40.881Z</time>
      </trkpt>
      <trkpt lat="45.94493" lon="4.73381">
        <ele>179.399993896</ele>
        <time>2015-09-20T09:25:41.85Z</time>
      </trkpt>
      <trkpt lat="45.94495" lon="4.73392">
        <ele>179.5</ele>
        <time>2015-09-20T09:25:43.877Z</time>
      </trkpt>
      <trkpt lat="45.94495" lon="4.73399">
        <ele>179.800003052</ele>
        <time>2015-09-20T09:25:44.851Z</time>
      </trkpt>
      <trkpt lat="45.94496" lon="4.7341">
        <ele>180.399993896</ele>
        <time>2015-09-20T09:25:46.909Z</time>
      </trkpt>
      <trkpt lat="45.94496" lon="4.73417">
        <ele>180.699996948</ele>
        <time>2015-09-20T09:25:47.854Z</time>
      </trkpt>
      <trkpt lat="45.94496" lon="4.73429">
        <ele>181.199996948</ele>
        <time>2015-09-20T09:25:49.877Z</time>
      </trkpt>
      <trkpt lat="45.94496" lon="4.73436">
        <ele>181.600006104</ele>
        <time>2015-09-20T09:25:50.855Z</time>
      </trkpt>
      <trkpt lat="45.94497" lon="4.73447">
        <ele>182</ele>
        <time>2015-09-20T09:25:52.876Z</time>
      </trkpt>
      <trkpt lat="45.94497" lon="4.73453">
        <ele>182.100006104</ele>
        <time>2015-09-20T09:25:53.853Z</time>
      </trkpt>
      <trkpt lat="45.94498" lon="4.73464">
        <ele>182.199996948</ele>
        <time>2015-09-20T09:25:55.889Z</time>
      </trkpt>
      <trkpt lat="45.94498" lon="4.73469">
        <ele>182.399993896</ele>
        <time>2015-09-20T09:25:56.851Z</time>
      </trkpt>
      <trkpt lat="45.94499" lon="4.7348">
        <ele>182.899993896</ele>
        <time>2015-09-20T09:25:58.876Z</time>
      </trkpt>
      <trkpt lat="45.94499" lon="4.73486">
        <ele>183.199996948</ele>
        <time>2015-09-20T09:25:59.854Z</time>
      </trkpt>
      <trkpt lat="45.94499" lon="4.73498">
        <ele>183.600006104</ele>
        <time>2015-09-20T09:26:01.936Z</time>
      </trkpt>
      <trkpt lat="45.94499" lon="4.73505">
        <ele>183.600006104</ele>
        <time>2015-09-20T09:26:02.852Z</time>
      </trkpt>
      <trkpt lat="45.94499" lon="4.73512">
        <ele>183.800003052</ele>
        <time>2015-09-20T09:26:03.876Z</time>
      </trkpt>
      <trkpt lat="45.94498" lon="4.73518">
        <ele>184.100006104</ele>
        <time>2015-09-20T09:26:04.851Z</time>
      </trkpt>
      <trkpt lat="45.94497" lon="4.73531">
        <ele>184.5</ele>
        <time>2015-09-20T09:26:06.875Z</time>
      </trkpt>
      <trkpt lat="45.94497" lon="4.73537">
        <ele>184.800003052</ele>
        <time>2015-09-20T09:26:07.855Z</time>
      </trkpt>
      <trkpt lat="45.94497" lon="4.73548">
        <ele>185.5</ele>
        <time>2015-09-20T09:26:09.877Z</time>
      </trkpt>
      <trkpt lat="45.94497" lon="4.73553">
        <ele>185.800003052</ele>
        <time>2015-09-20T09:26:10.854Z</time>
      </trkpt>
      <trkpt lat="45.94497" lon="4.73564">
        <ele>186.300003052</ele>
        <time>2015-09-20T09:26:12.881Z</time>
      </trkpt>
      <trkpt lat="45.94497" lon="4.7357">
        <ele>186.5</ele>
        <time>2015-09-20T09:26:13.852Z</time>
      </trkpt>
      <trkpt lat="45.94496" lon="4.73582">
        <ele>187.100006104</ele>
        <time>2015-09-20T09:26:15.919Z</time>
      </trkpt>
      <trkpt lat="45.94495" lon="4.73588">
        <ele>187.300003052</ele>
        <time>2015-09-20T09:26:16.85Z</time>
      </trkpt>
      <trkpt lat="45.94495" lon="4.73601">
        <ele>187.300003052</ele>
        <time>2015-09-20T09:26:18.884Z</time>
      </trkpt>
      <trkpt lat="45.94494" lon="4.73607">
        <ele>187.300003052</ele>
        <time>2015-09-20T09:26:19.851Z</time>
      </trkpt>
      <trkpt lat="45.94494" lon="4.73614">
        <ele>187.5</ele>
        <time>2015-09-20T09:26:20.88Z</time>
      </trkpt>
      <trkpt lat="45.94493" lon="4.7362">
        <ele>187.699996948</ele>
        <time>2015-09-20T09:26:21.852Z</time>
      </trkpt>
      <trkpt lat="45.94492" lon="4.73627">
        <ele>187.800003052</ele>
        <time>2015-09-20T09:26:22.884Z</time>
      </trkpt>
      <trkpt lat="45.94491" lon="4.73633">
        <ele>188.100006104</ele>
        <time>2015-09-20T09:26:23.854Z</time>
      </trkpt>
      <trkpt lat="45.9449" lon="4.7364">
        <ele>187.899993896</ele>
        <time>2015-09-20T09:26:24.876Z</time>
      </trkpt>
      <trkpt lat="45.94489" lon="4.73647">
        <ele>187.899993896</ele>
        <time>2015-09-20T09:26:25.85Z</time>
      </trkpt>
      <trkpt lat="45.94488" lon="4.73654">
        <ele>188.199996948</ele>
        <time>2015-09-20T09:26:26.893Z</time>
      </trkpt>
      <trkpt lat="45.94487" lon="4.7366">
        <ele>188.600006104</ele>
        <time>2015-09-20T09:26:27.852Z</time>
      </trkpt>
      <trkpt lat="45.94486" lon="4.73667">
        <ele>189.100006104</ele>
        <time>2015-09-20T09:26:28.876Z</time>
      </trkpt>
      <trkpt lat="45.94485" lon="4.73673">
        <ele>189.399993896</ele>
        <time>2015-09-20T09:26:29.854Z</time>
      </trkpt>
      <trkpt lat="45.94484" lon="4.7368">
        <ele>189.699996948</ele>
        <time>2015-09-20T09:26:30.956Z</time>
      </trkpt>
      <trkpt lat="45.94483" lon="4.73687">
        <ele>189.899993896</ele>
        <time>2015-09-20T09:26:31.852Z</time>
      </trkpt>
      <trkpt lat="45.94483" lon="4.73693">
        <ele>190.300003052</ele>
        <time>2015-09-20T09:26:32.876Z</time>
      </trkpt>
      <trkpt lat="45.94482" lon="4.737">
        <ele>190.699996948</ele>
        <time>2015-09-20T09:26:33.851Z</time>
      </trkpt>
      <trkpt lat="45.94481" lon="4.73707">
        <ele>191.300003052</ele>
        <time>2015-09-20T09:26:34.885Z</time>
      </trkpt>
      <trkpt lat="45.9448" lon="4.73715">
        <ele>191.699996948</ele>
        <time>2015-09-20T09:26:35.854Z</time>
      </trkpt>
      <trkpt lat="45.9448" lon="4.73722">
        <ele>191.5</ele>
        <time>2015-09-20T09:26:36.877Z</time>
      </trkpt>
      <trkpt lat="45.94478" lon="4.7373">
        <ele>191.5</ele>
        <time>2015-09-20T09:26:37.851Z</time>
      </trkpt>
      <trkpt lat="45.94477" lon="4.73737">
        <ele>191.300003052</ele>
        <time>2015-09-20T09:26:38.875Z</time>
      </trkpt>
      <trkpt lat="45.94475" lon="4.73744">
        <ele>191.399993896</ele>
        <time>2015-09-20T09:26:39.873Z</time>
      </trkpt>
      <trkpt lat="45.94474" lon="4.73751">
        <ele>191.800003052</ele>
        <time>2015-09-20T09:26:40.993Z</time>
      </trkpt>
      <trkpt lat="45.94473" lon="4.73757">
        <ele>191.300003052</ele>
        <time>2015-09-20T09:26:41.854Z</time>
      </trkpt>
      <trkpt lat="45.94474" lon="4.73764">
        <ele>190.899993896</ele>
        <time>2015-09-20T09:26:42.933Z</time>
      </trkpt>
      <trkpt lat="45.94475" lon="4.7377">
        <ele>190.5</ele>
        <time>2015-09-20T09:26:43.852Z</time>
      </trkpt>
      <trkpt lat="45.94479" lon="4.73775">
        <ele>190.600006104</ele>
        <time>2015-09-20T09:26:44.881Z</time>
      </trkpt>
      <trkpt lat="45.94484" lon="4.73778">
        <ele>190.100006104</ele>
        <time>2015-09-20T09:26:45.85Z</time>
      </trkpt>
      <trkpt lat="45.94488" lon="4.73781">
        <ele>189.899993896</ele>
        <time>2015-09-20T09:26:46.877Z</time>
      </trkpt>
      <trkpt lat="45.94493" lon="4.73785">
        <ele>189.899993896</ele>
        <time>2015-09-20T09:26:47.853Z</time>
      </trkpt>
      <trkpt lat="45.94497" lon="4.73788">
        <ele>189.699996948</ele>
        <time>2015-09-20T09:26:48.876Z</time>
      </trkpt>
      <trkpt lat="45.94501" lon="4.73792">
        <ele>189.800003052</ele>
        <time>2015-09-20T09:26:49.852Z</time>
      </trkpt>
      <trkpt lat="45.94505" lon="4.73796">
        <ele>189.399993896</ele>
        <time>2015-09-20T09:26:50.889Z</time>
      </trkpt>
      <trkpt lat="45.94509" lon="4.73801">
        <ele>189.300003052</ele>
        <time>2015-09-20T09:26:51.894Z</time>
      </trkpt>
      <trkpt lat="45.94513" lon="4.73805">
        <ele>189</ele>
        <time>2015-09-20T09:26:52.879Z</time>
      </trkpt>
      <trkpt lat="45.94517" lon="4.7381">
        <ele>188.600006104</ele>
        <time>2015-09-20T09:26:53.855Z</time>
      </trkpt>
      <trkpt lat="45.94521" lon="4.73813">
        <ele>188.5</ele>
        <time>2015-09-20T09:26:54.876Z</time>
      </trkpt>
      <trkpt lat="45.94525" lon="4.73817">
        <ele>188.300003052</ele>
        <time>2015-09-20T09:26:55.852Z</time>
      </trkpt>
      <trkpt lat="45.9453" lon="4.73821">
        <ele>188.199996948</ele>
        <time>2015-09-20T09:26:56.876Z</time>
      </trkpt>
      <trkpt lat="45.94534" lon="4.73825">
        <ele>187.899993896</ele>
        <time>2015-09-20T09:26:57.85Z</time>
      </trkpt>
      <trkpt lat="45.94539" lon="4.73829">
        <ele>187.600006104</ele>
        <time>2015-09-20T09:26:58.892Z</time>
      </trkpt>
      <trkpt lat="45.94543" lon="4.73833">
        <ele>187.399993896</ele>
        <time>2015-09-20T09:26:59.853Z</time>
      </trkpt>
      <trkpt lat="45.94547" lon="4.73837">
        <ele>187.100006104</ele>
        <time>2015-09-20T09:27:00.886Z</time>
      </trkpt>
      <trkpt lat="45.94551" lon="4.73842">
        <ele>186.899993896</ele>
        <time>2015-09-20T09:27:01.851Z</time>
      </trkpt>
      <trkpt lat="45.94555" lon="4.73846">
        <ele>186.800003052</ele>
        <time>2015-09-20T09:27:02.91Z</time>
      </trkpt>
      <trkpt lat="45.9456" lon="4.7385">
        <ele>186.899993896</ele>
        <time>2015-09-20T09:27:03.851Z</time>
      </trkpt>
      <trkpt lat="45.94565" lon="4.73855">
        <ele>186.600006104</ele>
        <time>2015-09-20T09:27:04.876Z</time>
      </trkpt>
      <trkpt lat="45.94569" lon="4.73858">
        <ele>186.5</ele>
        <time>2015-09-20T09:27:05.853Z</time>
      </trkpt>
      <trkpt lat="45.94573" lon="4.73862">
        <ele>186.199996948</ele>
        <time>2015-09-20T09:27:06.876Z</time>
      </trkpt>
      <trkpt lat="45.94577" lon="4.73866">
        <ele>186</ele>
        <time>2015-09-20T09:27:07.855Z</time>
      </trkpt>
      <trkpt lat="45.94581" lon="4.7387">
        <ele>185.899993896</ele>
        <time>2015-09-20T09:27:08.876Z</time>
      </trkpt>
      <trkpt lat="45.94585" lon="4.73875">
        <ele>185.600006104</ele>
        <time>2015-09-20T09:27:09.851Z</time>
      </trkpt>
      <trkpt lat="45.94589" lon="4.73879">
        <ele>185.5</ele>
        <time>2015-09-20T09:27:10.887Z</time>
      </trkpt>
      <trkpt lat="45.94593" lon="4.73884">
        <ele>185.300003052</ele>
        <time>2015-09-20T09:27:11.853Z</time>
      </trkpt>
      <trkpt lat="45.94596" lon="4.73888">
        <ele>185.300003052</ele>
        <time>2015-09-20T09:27:12.972Z</time>
      </trkpt>
      <trkpt lat="45.946" lon="4.73892">
        <ele>185.399993896</ele>
        <time>2015-09-20T09:27:13.852Z</time>
      </trkpt>
      <trkpt lat="45.94607" lon="4.739">
        <ele>185.300003052</ele>
        <time>2015-09-20T09:27:15.891Z</time>
      </trkpt>
      <trkpt lat="45.9461" lon="4.73904">
        <ele>185.100006104</ele>
        <time>2015-09-20T09:27:16.851Z</time>
      </trkpt>
      <trkpt lat="45.94614" lon="4.73909">
        <ele>185.100006104</ele>
        <time>2015-09-20T09:27:17.878Z</time>
      </trkpt>
      <trkpt lat="45.94617" lon="4.73913">
        <ele>185.100006104</ele>
        <time>2015-09-20T09:27:18.852Z</time>
      </trkpt>
      <trkpt lat="45.94621" lon="4.73918">
        <ele>185.199996948</ele>
        <time>2015-09-20T09:27:19.877Z</time>
      </trkpt>
      <trkpt lat="45.94625" lon="4.73923">
        <ele>185.399993896</ele>
        <time>2015-09-20T09:27:20.861Z</time>
      </trkpt>
      <trkpt lat="45.94629" lon="4.73927">
        <ele>185.300003052</ele>
        <time>2015-09-20T09:27:21.876Z</time>
      </trkpt>
      <trkpt lat="45.94632" lon="4.73932">
        <ele>185.100006104</ele>
        <time>2015-09-20T09:27:22.851Z</time>
      </trkpt>
      <trkpt lat="45.94636" lon="4.73937">
        <ele>185.300003052</ele>
        <time>2015-09-20T09:27:23.879Z</time>
      </trkpt>
      <trkpt lat="45.9464" lon="4.73941">
        <ele>185.5</ele>
        <time>2015-09-20T09:27:24.869Z</time>
      </trkpt>
      <trkpt lat="45.94643" lon="4.73946">
        <ele>185.600006104</ele>
        <time>2015-09-20T09:27:25.877Z</time>
      </trkpt>
      <trkpt lat="45.94647" lon="4.73951">
        <ele>185.699996948</ele>
        <time>2015-09-20T09:27:26.852Z</time>
      </trkpt>
      <trkpt lat="45.94653" lon="4.7396">
        <ele>186.100006104</ele>
        <time>2015-09-20T09:27:28.884Z</time>
      </trkpt>
      <trkpt lat="45.94656" lon="4.73964">
        <ele>186.300003052</ele>
        <time>2015-09-20T09:27:29.857Z</time>
      </trkpt>
      <trkpt lat="45.94659" lon="4.73969">
        <ele>186.600006104</ele>
        <time>2015-09-20T09:27:30.893Z</time>
      </trkpt>
      <trkpt lat="45.94663" lon="4.73973">
        <ele>186.699996948</ele>
        <time>2015-09-20T09:27:31.851Z</time>
      </trkpt>
      <trkpt lat="45.94666" lon="4.73978">
        <ele>187</ele>
        <time>2015-09-20T09:27:32.876Z</time>
      </trkpt>
      <trkpt lat="45.9467" lon="4.73983">
        <ele>186.899993896</ele>
        <time>2015-09-20T09:27:33.851Z</time>
      </trkpt>
      <trkpt lat="45.94673" lon="4.73987">
        <ele>186.899993896</ele>
        <time>2015-09-20T09:27:34.876Z</time>
      </trkpt>
      <trkpt lat="45.94677" lon="4.73993">
        <ele>187</ele>
        <time>2015-09-20T09:27:35.854Z</time>
      </trkpt>
      <trkpt lat="45.94681" lon="4.73998">
        <ele>187.199996948</ele>
        <time>2015-09-20T09:27:36.876Z</time>
      </trkpt>
      <trkpt lat="45.94684" lon="4.74003">
        <ele>187.399993896</ele>
        <time>2015-09-20T09:27:37.851Z</time>
      </trkpt>
      <trkpt lat="45.94688" lon="4.74008">
        <ele>187.5</ele>
        <time>2015-09-20T09:27:38.875Z</time>
      </trkpt>
      <trkpt lat="45.94692" lon="4.74012">
        <ele>187.5</ele>
        <time>2015-09-20T09:27:39.851Z</time>
      </trkpt>
      <trkpt lat="45.94696" lon="4.74017">
        <ele>187.800003052</ele>
        <time>2015-09-20T09:27:40.905Z</time>
      </trkpt>
      <trkpt lat="45.94699" lon="4.74022">
        <ele>188</ele>
        <time>2015-09-20T09:27:41.853Z</time>
      </trkpt>
      <trkpt lat="45.94703" lon="4.74027">
        <ele>187.899993896</ele>
        <time>2015-09-20T09:27:42.876Z</time>
      </trkpt>
      <trkpt lat="45.94706" lon="4.74031">
        <ele>187.800003052</ele>
        <time>2015-09-20T09:27:43.85Z</time>
      </trkpt>
      <trkpt lat="45.9471" lon="4.74035">
        <ele>188</ele>
        <time>2015-09-20T09:27:44.904Z</time>
      </trkpt>
      <trkpt lat="45.94713" lon="4.7404">
        <ele>188.100006104</ele>
        <time>2015-09-20T09:27:45.851Z</time>
      </trkpt>
      <trkpt lat="45.94717" lon="4.74045">
        <ele>187.899993896</ele>
        <time>2015-09-20T09:27:46.876Z</time>
      </trkpt>
      <trkpt lat="45.9472" lon="4.7405">
        <ele>187.899993896</ele>
        <time>2015-09-20T09:27:47.853Z</time>
      </trkpt>
      <trkpt lat="45.94724" lon="4.74054">
        <ele>187.699996948</ele>
        <time>2015-09-20T09:27:48.876Z</time>
      </trkpt>
      <trkpt lat="45.94728" lon="4.74059">
        <ele>187.800003052</ele>
        <time>2015-09-20T09:27:49.851Z</time>
      </trkpt>
      <trkpt lat="45.94732" lon="4.74064">
        <ele>187.600006104</ele>
        <time>2015-09-20T09:27:50.892Z</time>
      </trkpt>
      <trkpt lat="45.94736" lon="4.74069">
        <ele>187.5</ele>
        <time>2015-09-20T09:27:51.851Z</time>
      </trkpt>
      <trkpt lat="45.9474" lon="4.74073">
        <ele>187.300003052</ele>
        <time>2015-09-20T09:27:52.876Z</time>
      </trkpt>
      <trkpt lat="45.94743" lon="4.74078">
        <ele>187.100006104</ele>
        <time>2015-09-20T09:27:53.854Z</time>
      </trkpt>
      <trkpt lat="45.94747" lon="4.74083">
        <ele>187.199996948</ele>
        <time>2015-09-20T09:27:54.875Z</time>
      </trkpt>
      <trkpt lat="45.94751" lon="4.74088">
        <ele>187.600006104</ele>
        <time>2015-09-20T09:27:55.855Z</time>
      </trkpt>
      <trkpt lat="45.94755" lon="4.74093">
        <ele>187.899993896</ele>
        <time>2015-09-20T09:27:56.894Z</time>
      </trkpt>
      <trkpt lat="45.94758" lon="4.74098">
        <ele>188.899993896</ele>
        <time>2015-09-20T09:27:57.852Z</time>
      </trkpt>
      <trkpt lat="45.94762" lon="4.74104">
        <ele>189.5</ele>
        <time>2015-09-20T09:27:58.877Z</time>
      </trkpt>
      <trkpt lat="45.94765" lon="4.74109">
        <ele>189.899993896</ele>
        <time>2015-09-20T09:27:59.853Z</time>
      </trkpt>
      <trkpt lat="45.94769" lon="4.74114">
        <ele>190.199996948</ele>
        <time>2015-09-20T09:28:00.893Z</time>
      </trkpt>
      <trkpt lat="45.94773" lon="4.74119">
        <ele>190.5</ele>
        <time>2015-09-20T09:28:01.851Z</time>
      </trkpt>
      <trkpt lat="45.94776" lon="4.74124">
        <ele>190.800003052</ele>
        <time>2015-09-20T09:28:02.875Z</time>
      </trkpt>
      <trkpt lat="45.9478" lon="4.74129">
        <ele>191</ele>
        <time>2015-09-20T09:28:03.85Z</time>
      </trkpt>
      <trkpt lat="45.94783" lon="4.74135">
        <ele>190.699996948</ele>
        <time>2015-09-20T09:28:04.876Z</time>
      </trkpt>
      <trkpt lat="45.94787" lon="4.7414">
        <ele>190.800003052</ele>
        <time>2015-09-20T09:28:05.854Z</time>
      </trkpt>
      <trkpt lat="45.94791" lon="4.74147">
        <ele>190.800003052</ele>
        <time>2015-09-20T09:28:06.944Z</time>
      </trkpt>
      <trkpt lat="45.94795" lon="4.74152">
        <ele>190.800003052</ele>
        <time>2015-09-20T09:28:07.855Z</time>
      </trkpt>
      <trkpt lat="45.94798" lon="4.74159">
        <ele>190.899993896</ele>
        <time>2015-09-20T09:28:08.876Z</time>
      </trkpt>
      <trkpt lat="45.94801" lon="4.74165">
        <ele>190.899993896</ele>
        <time>2015-09-20T09:28:09.851Z</time>
      </trkpt>
      <trkpt lat="45.94804" lon="4.7417">
        <ele>190.699996948</ele>
        <time>2015-09-20T09:28:10.895Z</time>
      </trkpt>
      <trkpt lat="45.94807" lon="4.74176">
        <ele>190.699996948</ele>
        <time>2015-09-20T09:28:11.854Z</time>
      </trkpt>
      <trkpt lat="45.94811" lon="4.74183">
        <ele>190.5</ele>
        <time>2015-09-20T09:28:12.877Z</time>
      </trkpt>
      <trkpt lat="45.94815" lon="4.74189">
        <ele>190.5</ele>
        <time>2015-09-20T09:28:13.851Z</time>
      </trkpt>
      <trkpt lat="45.94818" lon="4.74195">
        <ele>190.300003052</ele>
        <time>2015-09-20T09:28:14.876Z</time>
      </trkpt>
      <trkpt lat="45.94821" lon="4.74201">
        <ele>190.300003052</ele>
        <time>2015-09-20T09:28:15.85Z</time>
      </trkpt>
      <trkpt lat="45.94825" lon="4.74207">
        <ele>190.300003052</ele>
        <time>2015-09-20T09:28:16.876Z</time>
      </trkpt>
      <trkpt lat="45.94827" lon="4.74214">
        <ele>190.5</ele>
        <time>2015-09-20T09:28:17.855Z</time>
      </trkpt>
      <trkpt lat="45.94831" lon="4.74221">
        <ele>190.5</ele>
        <time>2015-09-20T09:28:18.876Z</time>
      </trkpt>
      <trkpt lat="45.94833" lon="4.74228">
        <ele>190.600006104</ele>
        <time>2015-09-20T09:28:19.852Z</time>
      </trkpt>
      <trkpt lat="45.94836" lon="4.74235">
        <ele>190.699996948</ele>
        <time>2015-09-20T09:28:20.896Z</time>
      </trkpt>
      <trkpt lat="45.9484" lon="4.74242">
        <ele>190.5</ele>
        <time>2015-09-20T09:28:21.855Z</time>
      </trkpt>
      <trkpt lat="45.94844" lon="4.74249">
        <ele>190.300003052</ele>
        <time>2015-09-20T09:28:22.946Z</time>
      </trkpt>
      <trkpt lat="45.94847" lon="4.74255">
        <ele>190.199996948</ele>
        <time>2015-09-20T09:28:23.854Z</time>
      </trkpt>
      <trkpt lat="45.94851" lon="4.74262">
        <ele>189.899993896</ele>
        <time>2015-09-20T09:28:24.876Z</time>
      </trkpt>
      <trkpt lat="45.94855" lon="4.74268">
        <ele>189.800003052</ele>
        <time>2015-09-20T09:28:25.853Z</time>
      </trkpt>
      <trkpt lat="45.94859" lon="4.74274">
        <ele>189.699996948</ele>
        <time>2015-09-20T09:28:26.897Z</time>
      </trkpt>
      <trkpt lat="45.94862" lon="4.74281">
        <ele>189.800003052</ele>
        <time>2015-09-20T09:28:27.852Z</time>
      </trkpt>
      <trkpt lat="45.94866" lon="4.74287">
        <ele>189.899993896</ele>
        <time>2015-09-20T09:28:28.876Z</time>
      </trkpt>
      <trkpt lat="45.94869" lon="4.74294">
        <ele>190</ele>
        <time>2015-09-20T09:28:29.857Z</time>
      </trkpt>
      <trkpt lat="45.94872" lon="4.743">
        <ele>190.100006104</ele>
        <time>2015-09-20T09:28:30.898Z</time>
      </trkpt>
      <trkpt lat="45.94876" lon="4.74306">
        <ele>190.399993896</ele>
        <time>2015-09-20T09:28:31.851Z</time>
      </trkpt>
      <trkpt lat="45.94879" lon="4.74312">
        <ele>190.699996948</ele>
        <time>2015-09-20T09:28:32.876Z</time>
      </trkpt>
      <trkpt lat="45.94881" lon="4.74318">
        <ele>190.899993896</ele>
        <time>2015-09-20T09:28:33.851Z</time>
      </trkpt>
      <trkpt lat="45.94885" lon="4.74323">
        <ele>191.199996948</ele>
        <time>2015-09-20T09:28:34.876Z</time>
      </trkpt>
      <trkpt lat="45.94888" lon="4.74329">
        <ele>191.300003052</ele>
        <time>2015-09-20T09:28:35.853Z</time>
      </trkpt>
      <trkpt lat="45.94891" lon="4.74335">
        <ele>191.199996948</ele>
        <time>2015-09-20T09:28:36.875Z</time>
      </trkpt>
      <trkpt lat="45.94894" lon="4.74341">
        <ele>191.199996948</ele>
        <time>2015-09-20T09:28:37.851Z</time>
      </trkpt>
      <trkpt lat="45.94897" lon="4.74348">
        <ele>191.199996948</ele>
        <time>2015-09-20T09:28:38.891Z</time>
      </trkpt>
      <trkpt lat="45.949" lon="4.74353">
        <ele>191.100006104</ele>
        <time>2015-09-20T09:28:39.851Z</time>
      </trkpt>
      <trkpt lat="45.94903" lon="4.7436">
        <ele>191.199996948</ele>
        <time>2015-09-20T09:28:40.897Z</time>
      </trkpt>
      <trkpt lat="45.94907" lon="4.74366">
        <ele>191.399993896</ele>
        <time>2015-09-20T09:28:41.853Z</time>
      </trkpt>
      <trkpt lat="45.9491" lon="4.74372">
        <ele>191.699996948</ele>
        <time>2015-09-20T09:28:42.876Z</time>
      </trkpt>
      <trkpt lat="45.94913" lon="4.74378">
        <ele>192.100006104</ele>
        <time>2015-09-20T09:28:43.851Z</time>
      </trkpt>
      <trkpt lat="45.94916" lon="4.74384">
        <ele>192.399993896</ele>
        <time>2015-09-20T09:28:44.909Z</time>
      </trkpt>
      <trkpt lat="45.94919" lon="4.74391">
        <ele>192.300003052</ele>
        <time>2015-09-20T09:28:45.85Z</time>
      </trkpt>
      <trkpt lat="45.94922" lon="4.74397">
        <ele>193</ele>
        <time>2015-09-20T09:28:46.875Z</time>
      </trkpt>
      <trkpt lat="45.94925" lon="4.74404">
        <ele>192.899993896</ele>
        <time>2015-09-20T09:28:47.857Z</time>
      </trkpt>
      <trkpt lat="45.94928" lon="4.74409">
        <ele>192.399993896</ele>
        <time>2015-09-20T09:28:48.876Z</time>
      </trkpt>
      <trkpt lat="45.94931" lon="4.74415">
        <ele>192.100006104</ele>
        <time>2015-09-20T09:28:49.851Z</time>
      </trkpt>
      <trkpt lat="45.94934" lon="4.74421">
        <ele>192.300003052</ele>
        <time>2015-09-20T09:28:50.898Z</time>
      </trkpt>
      <trkpt lat="45.94938" lon="4.74427">
        <ele>192.199996948</ele>
        <time>2015-09-20T09:28:51.852Z</time>
      </trkpt>
      <trkpt lat="45.9494" lon="4.74433">
        <ele>192.300003052</ele>
        <time>2015-09-20T09:28:52.876Z</time>
      </trkpt>
      <trkpt lat="45.94944" lon="4.74439">
        <ele>192.300003052</ele>
        <time>2015-09-20T09:28:53.853Z</time>
      </trkpt>
      <trkpt lat="45.94947" lon="4.74445">
        <ele>192.300003052</ele>
        <time>2015-09-20T09:28:54.891Z</time>
      </trkpt>
      <trkpt lat="45.94949" lon="4.74451">
        <ele>192.199996948</ele>
        <time>2015-09-20T09:28:55.852Z</time>
      </trkpt>
      <trkpt lat="45.94952" lon="4.74457">
        <ele>192.199996948</ele>
        <time>2015-09-20T09:28:56.876Z</time>
      </trkpt>
      <trkpt lat="45.94956" lon="4.74463">
        <ele>192.100006104</ele>
        <time>2015-09-20T09:28:57.851Z</time>
      </trkpt>
      <trkpt lat="45.94959" lon="4.74469">
        <ele>192.199996948</ele>
        <time>2015-09-20T09:28:58.875Z</time>
      </trkpt>
      <trkpt lat="45.94962" lon="4.74475">
        <ele>192.199996948</ele>
        <time>2015-09-20T09:28:59.853Z</time>
      </trkpt>
      <trkpt lat="45.94965" lon="4.74481">
        <ele>192.300003052</ele>
        <time>2015-09-20T09:29:00.899Z</time>
      </trkpt>
      <trkpt lat="45.94968" lon="4.74487">
        <ele>192.199996948</ele>
        <time>2015-09-20T09:29:01.851Z</time>
      </trkpt>
      <trkpt lat="45.94971" lon="4.74493">
        <ele>192</ele>
        <time>2015-09-20T09:29:02.876Z</time>
      </trkpt>
      <trkpt lat="45.94974" lon="4.74499">
        <ele>191.899993896</ele>
        <time>2015-09-20T09:29:03.851Z</time>
      </trkpt>
      <trkpt lat="45.94977" lon="4.74505">
        <ele>192.100006104</ele>
        <time>2015-09-20T09:29:04.909Z</time>
      </trkpt>
      <trkpt lat="45.9498" lon="4.7451">
        <ele>192</ele>
        <time>2015-09-20T09:29:05.853Z</time>
      </trkpt>
      <trkpt lat="45.94983" lon="4.74516">
        <ele>192.199996948</ele>
        <time>2015-09-20T09:29:06.919Z</time>
      </trkpt>
      <trkpt lat="45.94986" lon="4.74522">
        <ele>192.399993896</ele>
        <time>2015-09-20T09:29:07.855Z</time>
      </trkpt>
      <trkpt lat="45.94989" lon="4.74529">
        <ele>192.399993896</ele>
        <time>2015-09-20T09:29:08.875Z</time>
      </trkpt>
      <trkpt lat="45.94992" lon="4.74534">
        <ele>192.600006104</ele>
        <time>2015-09-20T09:29:09.851Z</time>
      </trkpt>
      <trkpt lat="45.94996" lon="4.7454">
        <ele>193</ele>
        <time>2015-09-20T09:29:11.023Z</time>
      </trkpt>
      <trkpt lat="45.94999" lon="4.74546">
        <ele>193.199996948</ele>
        <time>2015-09-20T09:29:11.854Z</time>
      </trkpt>
      <trkpt lat="45.95002" lon="4.74553">
        <ele>193.300003052</ele>
        <time>2015-09-20T09:29:12.876Z</time>
      </trkpt>
      <trkpt lat="45.95005" lon="4.74559">
        <ele>193.199996948</ele>
        <time>2015-09-20T09:29:13.855Z</time>
      </trkpt>
      <trkpt lat="45.95009" lon="4.74565">
        <ele>193.199996948</ele>
        <time>2015-09-20T09:29:14.877Z</time>
      </trkpt>
      <trkpt lat="45.95012" lon="4.74571">
        <ele>193.100006104</ele>
        <time>2015-09-20T09:29:15.851Z</time>
      </trkpt>
      <trkpt lat="45.95015" lon="4.74577">
        <ele>193.300003052</ele>
        <time>2015-09-20T09:29:16.875Z</time>
      </trkpt>
      <trkpt lat="45.95019" lon="4.74583">
        <ele>193.300003052</ele>
        <time>2015-09-20T09:29:17.853Z</time>
      </trkpt>
      <trkpt lat="45.95022" lon="4.7459">
        <ele>193.300003052</ele>
        <time>2015-09-20T09:29:18.876Z</time>
      </trkpt>
      <trkpt lat="45.95025" lon="4.74596">
        <ele>193.199996948</ele>
        <time>2015-09-20T09:29:19.874Z</time>
      </trkpt>
      <trkpt lat="45.95028" lon="4.74602">
        <ele>193.199996948</ele>
        <time>2015-09-20T09:29:20.901Z</time>
      </trkpt>
      <trkpt lat="45.95031" lon="4.74608">
        <ele>193.199996948</ele>
        <time>2015-09-20T09:29:21.934Z</time>
      </trkpt>
      <trkpt lat="45.95035" lon="4.74615">
        <ele>193.199996948</ele>
        <time>2015-09-20T09:29:22.876Z</time>
      </trkpt>
      <trkpt lat="45.95038" lon="4.74621">
        <ele>193.199996948</ele>
        <time>2015-09-20T09:29:23.853Z</time>
      </trkpt>
      <trkpt lat="45.95042" lon="4.74628">
        <ele>193.199996948</ele>
        <time>2015-09-20T09:29:24.88Z</time>
      </trkpt>
      <trkpt lat="45.95046" lon="4.74635">
        <ele>193.399993896</ele>
        <time>2015-09-20T09:29:25.851Z</time>
      </trkpt>
      <trkpt lat="45.95049" lon="4.74641">
        <ele>193.5</ele>
        <time>2015-09-20T09:29:26.876Z</time>
      </trkpt>
      <trkpt lat="45.95053" lon="4.74648">
        <ele>193.5</ele>
        <time>2015-09-20T09:29:27.851Z</time>
      </trkpt>
      <trkpt lat="45.95057" lon="4.74655">
        <ele>193.399993896</ele>
        <time>2015-09-20T09:29:28.875Z</time>
      </trkpt>
      <trkpt lat="45.9506" lon="4.74661">
        <ele>193.300003052</ele>
        <time>2015-09-20T09:29:29.852Z</time>
      </trkpt>
      <trkpt lat="45.95064" lon="4.74668">
        <ele>193.199996948</ele>
        <time>2015-09-20T09:29:30.903Z</time>
      </trkpt>
      <trkpt lat="45.95068" lon="4.74674">
        <ele>193.100006104</ele>
        <time>2015-09-20T09:29:31.851Z</time>
      </trkpt>
      <trkpt lat="45.95071" lon="4.74681">
        <ele>193</ele>
        <time>2015-09-20T09:29:32.9Z</time>
      </trkpt>
      <trkpt lat="45.95075" lon="4.74688">
        <ele>193</ele>
        <time>2015-09-20T09:29:33.852Z</time>
      </trkpt>
      <trkpt lat="45.95078" lon="4.74695">
        <ele>193.100006104</ele>
        <time>2015-09-20T09:29:34.875Z</time>
      </trkpt>
      <trkpt lat="45.95082" lon="4.74701">
        <ele>193.300003052</ele>
        <time>2015-09-20T09:29:35.853Z</time>
      </trkpt>
      <trkpt lat="45.95086" lon="4.74708">
        <ele>193.300003052</ele>
        <time>2015-09-20T09:29:36.875Z</time>
      </trkpt>
      <trkpt lat="45.9509" lon="4.74714">
        <ele>193.399993896</ele>
        <time>2015-09-20T09:29:37.851Z</time>
      </trkpt>
      <trkpt lat="45.95093" lon="4.7472">
        <ele>193.399993896</ele>
        <time>2015-09-20T09:29:38.876Z</time>
      </trkpt>
      <trkpt lat="45.95097" lon="4.74727">
        <ele>193.300003052</ele>
        <time>2015-09-20T09:29:39.854Z</time>
      </trkpt>
      <trkpt lat="45.95102" lon="4.74733">
        <ele>193</ele>
        <time>2015-09-20T09:29:40.908Z</time>
      </trkpt>
      <trkpt lat="45.95106" lon="4.74739">
        <ele>192.800003052</ele>
        <time>2015-09-20T09:29:41.853Z</time>
      </trkpt>
      <trkpt lat="45.9511" lon="4.74745">
        <ele>192.899993896</ele>
        <time>2015-09-20T09:29:42.888Z</time>
      </trkpt>
      <trkpt lat="45.95114" lon="4.74751">
        <ele>193</ele>
        <time>2015-09-20T09:29:43.851Z</time>
      </trkpt>
      <trkpt lat="45.95118" lon="4.74756">
        <ele>193.199996948</ele>
        <time>2015-09-20T09:29:44.876Z</time>
      </trkpt>
      <trkpt lat="45.95121" lon="4.74762">
        <ele>193.100006104</ele>
        <time>2015-09-20T09:29:45.847Z</time>
      </trkpt>
      <trkpt lat="45.95125" lon="4.74768">
        <ele>193</ele>
        <time>2015-09-20T09:29:46.875Z</time>
      </trkpt>
      <trkpt lat="45.95129" lon="4.74773">
        <ele>193.300003052</ele>
        <time>2015-09-20T09:29:47.853Z</time>
      </trkpt>
      <trkpt lat="45.95133" lon="4.7478">
        <ele>193.399993896</ele>
        <time>2015-09-20T09:29:48.875Z</time>
      </trkpt>
      <trkpt lat="45.95136" lon="4.74786">
        <ele>193.600006104</ele>
        <time>2015-09-20T09:29:49.85Z</time>
      </trkpt>
      <trkpt lat="45.9514" lon="4.74792">
        <ele>193.800003052</ele>
        <time>2015-09-20T09:29:50.906Z</time>
      </trkpt>
      <trkpt lat="45.95144" lon="4.74798">
        <ele>193.699996948</ele>
        <time>2015-09-20T09:29:51.851Z</time>
      </trkpt>
      <trkpt lat="45.95147" lon="4.74804">
        <ele>193.899993896</ele>
        <time>2015-09-20T09:29:52.875Z</time>
      </trkpt>
      <trkpt lat="45.95151" lon="4.7481">
        <ele>194.100006104</ele>
        <time>2015-09-20T09:29:53.868Z</time>
      </trkpt>
      <trkpt lat="45.95154" lon="4.74816">
        <ele>194</ele>
        <time>2015-09-20T09:29:54.876Z</time>
      </trkpt>
      <trkpt lat="45.95158" lon="4.74822">
        <ele>194.100006104</ele>
        <time>2015-09-20T09:29:55.851Z</time>
      </trkpt>
      <trkpt lat="45.95161" lon="4.74828">
        <ele>194.199996948</ele>
        <time>2015-09-20T09:29:56.875Z</time>
      </trkpt>
      <trkpt lat="45.95165" lon="4.74834">
        <ele>194.199996948</ele>
        <time>2015-09-20T09:29:57.851Z</time>
      </trkpt>
      <trkpt lat="45.95169" lon="4.74841">
        <ele>194.199996948</ele>
        <time>2015-09-20T09:29:58.875Z</time>
      </trkpt>
      <trkpt lat="45.95172" lon="4.74847">
        <ele>194.5</ele>
        <time>2015-09-20T09:29:59.853Z</time>
      </trkpt>
      <trkpt lat="45.95176" lon="4.74853">
        <ele>194.5</ele>
        <time>2015-09-20T09:30:00.907Z</time>
      </trkpt>
      <trkpt lat="45.9518" lon="4.74859">
        <ele>194.5</ele>
        <time>2015-09-20T09:30:01.851Z</time>
      </trkpt>
      <trkpt lat="45.95183" lon="4.74864">
        <ele>194.5</ele>
        <time>2015-09-20T09:30:02.876Z</time>
      </trkpt>
      <trkpt lat="45.95188" lon="4.7487">
        <ele>194.300003052</ele>
        <time>2015-09-20T09:30:03.85Z</time>
      </trkpt>
      <trkpt lat="45.95191" lon="4.74876">
        <ele>194.300003052</ele>
        <time>2015-09-20T09:30:04.876Z</time>
      </trkpt>
      <trkpt lat="45.95195" lon="4.74882">
        <ele>194.399993896</ele>
        <time>2015-09-20T09:30:05.857Z</time>
      </trkpt>
      <trkpt lat="45.95198" lon="4.74888">
        <ele>194.5</ele>
        <time>2015-09-20T09:30:06.877Z</time>
      </trkpt>
      <trkpt lat="45.95202" lon="4.74894">
        <ele>194.699996948</ele>
        <time>2015-09-20T09:30:07.854Z</time>
      </trkpt>
      <trkpt lat="45.95205" lon="4.749">
        <ele>195</ele>
        <time>2015-09-20T09:30:08.876Z</time>
      </trkpt>
      <trkpt lat="45.95209" lon="4.74906">
        <ele>195.199996948</ele>
        <time>2015-09-20T09:30:09.85Z</time>
      </trkpt>
      <trkpt lat="45.95212" lon="4.74912">
        <ele>195.399993896</ele>
        <time>2015-09-20T09:30:10.908Z</time>
      </trkpt>
      <trkpt lat="45.95215" lon="4.74917">
        <ele>195.5</ele>
        <time>2015-09-20T09:30:11.854Z</time>
      </trkpt>
      <trkpt lat="45.95219" lon="4.74923">
        <ele>195.699996948</ele>
        <time>2015-09-20T09:30:12.875Z</time>
      </trkpt>
      <trkpt lat="45.95223" lon="4.74929">
        <ele>195.899993896</ele>
        <time>2015-09-20T09:30:13.851Z</time>
      </trkpt>
      <trkpt lat="45.95227" lon="4.74936">
        <ele>196.199996948</ele>
        <time>2015-09-20T09:30:14.944Z</time>
      </trkpt>
      <trkpt lat="45.95231" lon="4.74943">
        <ele>196.5</ele>
        <time>2015-09-20T09:30:15.851Z</time>
      </trkpt>
      <trkpt lat="45.95235" lon="4.7495">
        <ele>196.600006104</ele>
        <time>2015-09-20T09:30:16.875Z</time>
      </trkpt>
      <trkpt lat="45.95239" lon="4.74956">
        <ele>196.600006104</ele>
        <time>2015-09-20T09:30:17.854Z</time>
      </trkpt>
      <trkpt lat="45.95242" lon="4.74963">
        <ele>196.399993896</ele>
        <time>2015-09-20T09:30:18.875Z</time>
      </trkpt>
      <trkpt lat="45.95247" lon="4.74969">
        <ele>196.300003052</ele>
        <time>2015-09-20T09:30:19.851Z</time>
      </trkpt>
      <trkpt lat="45.95251" lon="4.74975">
        <ele>196.399993896</ele>
        <time>2015-09-20T09:30:20.907Z</time>
      </trkpt>
      <trkpt lat="45.95255" lon="4.74981">
        <ele>196.199996948</ele>
        <time>2015-09-20T09:30:21.851Z</time>
      </trkpt>
      <trkpt lat="45.95259" lon="4.74987">
        <ele>196</ele>
        <time>2015-09-20T09:30:22.875Z</time>
      </trkpt>
      <trkpt lat="45.95263" lon="4.74993">
        <ele>196.100006104</ele>
        <time>2015-09-20T09:30:23.852Z</time>
      </trkpt>
      <trkpt lat="45.95267" lon="4.74999">
        <ele>196.399993896</ele>
        <time>2015-09-20T09:30:24.875Z</time>
      </trkpt>
      <trkpt lat="45.95271" lon="4.75005">
        <ele>196.5</ele>
        <time>2015-09-20T09:30:25.866Z</time>
      </trkpt>
      <trkpt lat="45.95275" lon="4.75012">
        <ele>196.399993896</ele>
        <time>2015-09-20T09:30:26.907Z</time>
      </trkpt>
      <trkpt lat="45.95279" lon="4.75018">
        <ele>196.199996948</ele>
        <time>2015-09-20T09:30:27.851Z</time>
      </trkpt>
      <trkpt lat="45.95283" lon="4.75024">
        <ele>196.100006104</ele>
        <time>2015-09-20T09:30:28.875Z</time>
      </trkpt>
      <trkpt lat="45.95287" lon="4.75031">
        <ele>196.300003052</ele>
        <time>2015-09-20T09:30:29.853Z</time>
      </trkpt>
      <trkpt lat="45.95291" lon="4.75037">
        <ele>196.199996948</ele>
        <time>2015-09-20T09:30:30.954Z</time>
      </trkpt>
      <trkpt lat="45.95295" lon="4.75043">
        <ele>196.199996948</ele>
        <time>2015-09-20T09:30:31.855Z</time>
      </trkpt>
      <trkpt lat="45.95299" lon="4.75049">
        <ele>196.100006104</ele>
        <time>2015-09-20T09:30:32.876Z</time>
      </trkpt>
      <trkpt lat="45.95303" lon="4.75056">
        <ele>196.100006104</ele>
        <time>2015-09-20T09:30:33.851Z</time>
      </trkpt>
      <trkpt lat="45.95308" lon="4.75062">
        <ele>195.699996948</ele>
        <time>2015-09-20T09:30:34.915Z</time>
      </trkpt>
      <trkpt lat="45.95312" lon="4.75069">
        <ele>195.5</ele>
        <time>2015-09-20T09:30:35.853Z</time>
      </trkpt>
      <trkpt lat="45.95316" lon="4.75075">
        <ele>195.899993896</ele>
        <time>2015-09-20T09:30:36.963Z</time>
      </trkpt>
      <trkpt lat="45.9532" lon="4.75082">
        <ele>195.800003052</ele>
        <time>2015-09-20T09:30:37.851Z</time>
      </trkpt>
      <trkpt lat="45.95325" lon="4.75088">
        <ele>195.800003052</ele>
        <time>2015-09-20T09:30:38.875Z</time>
      </trkpt>
      <trkpt lat="45.95329" lon="4.75095">
        <ele>195.699996948</ele>
        <time>2015-09-20T09:30:39.85Z</time>
      </trkpt>
      <trkpt lat="45.95333" lon="4.75101">
        <ele>195.5</ele>
        <time>2015-09-20T09:30:40.906Z</time>
      </trkpt>
      <trkpt lat="45.95337" lon="4.75107">
        <ele>195.800003052</ele>
        <time>2015-09-20T09:30:41.853Z</time>
      </trkpt>
      <trkpt lat="45.95341" lon="4.75114">
        <ele>196</ele>
        <time>2015-09-20T09:30:42.875Z</time>
      </trkpt>
      <trkpt lat="45.95345" lon="4.7512">
        <ele>196</ele>
        <time>2015-09-20T09:30:43.852Z</time>
      </trkpt>
      <trkpt lat="45.95349" lon="4.75127">
        <ele>195.899993896</ele>
        <time>2015-09-20T09:30:44.876Z</time>
      </trkpt>
      <trkpt lat="45.95353" lon="4.75133">
        <ele>195.399993896</ele>
        <time>2015-09-20T09:30:45.851Z</time>
      </trkpt>
      <trkpt lat="45.95358" lon="4.75139">
        <ele>194.800003052</ele>
        <time>2015-09-20T09:30:46.9Z</time>
      </trkpt>
      <trkpt lat="45.95362" lon="4.75145">
        <ele>194.300003052</ele>
        <time>2015-09-20T09:30:47.904Z</time>
      </trkpt>
      <trkpt lat="45.95366" lon="4.75151">
        <ele>193.899993896</ele>
        <time>2015-09-20T09:30:48.876Z</time>
      </trkpt>
      <trkpt lat="45.95371" lon="4.75158">
        <ele>193.399993896</ele>
        <time>2015-09-20T09:30:49.852Z</time>
      </trkpt>
      <trkpt lat="45.95375" lon="4.75165">
        <ele>193.600006104</ele>
        <time>2015-09-20T09:30:50.907Z</time>
      </trkpt>
      <trkpt lat="45.95379" lon="4.75172">
        <ele>192.899993896</ele>
        <time>2015-09-20T09:30:51.851Z</time>
      </trkpt>
      <trkpt lat="45.95383" lon="4.75179">
        <ele>192.5</ele>
        <time>2015-09-20T09:30:52.875Z</time>
      </trkpt>
      <trkpt lat="45.95387" lon="4.75186">
        <ele>192.399993896</ele>
        <time>2015-09-20T09:30:53.853Z</time>
      </trkpt>
      <trkpt lat="45.95392" lon="4.75194">
        <ele>192.300003052</ele>
        <time>2015-09-20T09:30:54.876Z</time>
      </trkpt>
      <trkpt lat="45.95396" lon="4.75201">
        <ele>192</ele>
        <time>2015-09-20T09:30:55.851Z</time>
      </trkpt>
      <trkpt lat="45.954" lon="4.75209">
        <ele>191.800003052</ele>
        <time>2015-09-20T09:30:56.875Z</time>
      </trkpt>
      <trkpt lat="45.95404" lon="4.75217">
        <ele>191.600006104</ele>
        <time>2015-09-20T09:30:57.856Z</time>
      </trkpt>
      <trkpt lat="45.95409" lon="4.75224">
        <ele>191.300003052</ele>
        <time>2015-09-20T09:30:58.944Z</time>
      </trkpt>
      <trkpt lat="45.95413" lon="4.75232">
        <ele>191.199996948</ele>
        <time>2015-09-20T09:30:59.853Z</time>
      </trkpt>
      <trkpt lat="45.95417" lon="4.75239">
        <ele>191.399993896</ele>
        <time>2015-09-20T09:31:00.907Z</time>
      </trkpt>
      <trkpt lat="45.95421" lon="4.75247">
        <ele>191.600006104</ele>
        <time>2015-09-20T09:31:01.851Z</time>
      </trkpt>
      <trkpt lat="45.95425" lon="4.75254">
        <ele>191.600006104</ele>
        <time>2015-09-20T09:31:02.891Z</time>
      </trkpt>
      <trkpt lat="45.95429" lon="4.7526">
        <ele>191.800003052</ele>
        <time>2015-09-20T09:31:03.851Z</time>
      </trkpt>
      <trkpt lat="45.95433" lon="4.75268">
        <ele>191.899993896</ele>
        <time>2015-09-20T09:31:04.905Z</time>
      </trkpt>
      <trkpt lat="45.95437" lon="4.75275">
        <ele>191.800003052</ele>
        <time>2015-09-20T09:31:05.853Z</time>
      </trkpt>
      <trkpt lat="45.95441" lon="4.75282">
        <ele>191.600006104</ele>
        <time>2015-09-20T09:31:06.896Z</time>
      </trkpt>
      <trkpt lat="45.95445" lon="4.75289">
        <ele>191.399993896</ele>
        <time>2015-09-20T09:31:07.889Z</time>
      </trkpt>
      <trkpt lat="45.95449" lon="4.75297">
        <ele>191.5</ele>
        <time>2015-09-20T09:31:08.914Z</time>
      </trkpt>
      <trkpt lat="45.95454" lon="4.75305">
        <ele>191.5</ele>
        <time>2015-09-20T09:31:09.851Z</time>
      </trkpt>
      <trkpt lat="45.95458" lon="4.75313">
        <ele>191.199996948</ele>
        <time>2015-09-20T09:31:10.935Z</time>
      </trkpt>
      <trkpt lat="45.95462" lon="4.75321">
        <ele>191.100006104</ele>
        <time>2015-09-20T09:31:11.853Z</time>
      </trkpt>
      <trkpt lat="45.95467" lon="4.7533">
        <ele>190.899993896</ele>
        <time>2015-09-20T09:31:12.876Z</time>
      </trkpt>
      <trkpt lat="45.95471" lon="4.75338">
        <ele>190.600006104</ele>
        <time>2015-09-20T09:31:13.851Z</time>
      </trkpt>
      <trkpt lat="45.95475" lon="4.75346">
        <ele>190.300003052</ele>
        <time>2015-09-20T09:31:14.875Z</time>
      </trkpt>
      <trkpt lat="45.95479" lon="4.75354">
        <ele>190</ele>
        <time>2015-09-20T09:31:15.85Z</time>
      </trkpt>
      <trkpt lat="45.95483" lon="4.75362">
        <ele>189.800003052</ele>
        <time>2015-09-20T09:31:16.875Z</time>
      </trkpt>
      <trkpt lat="45.95486" lon="4.75371">
        <ele>189.899993896</ele>
        <time>2015-09-20T09:31:17.853Z</time>
      </trkpt>
      <trkpt lat="45.9549" lon="4.75379">
        <ele>189.600006104</ele>
        <time>2015-09-20T09:31:18.929Z</time>
      </trkpt>
      <trkpt lat="45.95493" lon="4.75387">
        <ele>189.300003052</ele>
        <time>2015-09-20T09:31:19.85Z</time>
      </trkpt>
      <trkpt lat="45.95496" lon="4.75395">
        <ele>189.300003052</ele>
        <time>2015-09-20T09:31:20.906Z</time>
      </trkpt>
      <trkpt lat="45.95498" lon="4.75403">
        <ele>189.199996948</ele>
        <time>2015-09-20T09:31:21.851Z</time>
      </trkpt>
      <trkpt lat="45.955" lon="4.75412">
        <ele>189.199996948</ele>
        <time>2015-09-20T09:31:22.875Z</time>
      </trkpt>
      <trkpt lat="45.95502" lon="4.75421">
        <ele>189.300003052</ele>
        <time>2015-09-20T09:31:23.857Z</time>
      </trkpt>
      <trkpt lat="45.95504" lon="4.75429">
        <ele>189.100006104</ele>
        <time>2015-09-20T09:31:24.876Z</time>
      </trkpt>
      <trkpt lat="45.95505" lon="4.75436">
        <ele>189.300003052</ele>
        <time>2015-09-20T09:31:25.851Z</time>
      </trkpt>
      <trkpt lat="45.95506" lon="4.75444">
        <ele>189</ele>
        <time>2015-09-20T09:31:26.876Z</time>
      </trkpt>
      <trkpt lat="45.95506" lon="4.75451">
        <ele>189.100006104</ele>
        <time>2015-09-20T09:31:27.85Z</time>
      </trkpt>
      <trkpt lat="45.95506" lon="4.75459">
        <ele>188.899993896</ele>
        <time>2015-09-20T09:31:28.875Z</time>
      </trkpt>
      <trkpt lat="45.95505" lon="4.75467">
        <ele>188.699996948</ele>
        <time>2015-09-20T09:31:29.852Z</time>
      </trkpt>
      <trkpt lat="45.95506" lon="4.75475">
        <ele>188.600006104</ele>
        <time>2015-09-20T09:31:31.004Z</time>
      </trkpt>
      <trkpt lat="45.95507" lon="4.75483">
        <ele>188.5</ele>
        <time>2015-09-20T09:31:31.852Z</time>
      </trkpt>
      <trkpt lat="45.95511" lon="4.7549">
        <ele>188.300003052</ele>
        <time>2015-09-20T09:31:32.875Z</time>
      </trkpt>
      <trkpt lat="45.95514" lon="4.75495">
        <ele>188.100006104</ele>
        <time>2015-09-20T09:31:33.851Z</time>
      </trkpt>
      <trkpt lat="45.95519" lon="4.75499">
        <ele>187.600006104</ele>
        <time>2015-09-20T09:31:34.889Z</time>
      </trkpt>
      <trkpt lat="45.95524" lon="4.75503">
        <ele>188.199996948</ele>
        <time>2015-09-20T09:31:35.853Z</time>
      </trkpt>
      <trkpt lat="45.95529" lon="4.75506">
        <ele>188</ele>
        <time>2015-09-20T09:31:36.875Z</time>
      </trkpt>
      <trkpt lat="45.95533" lon="4.7551">
        <ele>187.899993896</ele>
        <time>2015-09-20T09:31:37.851Z</time>
      </trkpt>
      <trkpt lat="45.95537" lon="4.75514">
        <ele>187.899993896</ele>
        <time>2015-09-20T09:31:38.875Z</time>
      </trkpt>
      <trkpt lat="45.95542" lon="4.75519">
        <ele>187.699996948</ele>
        <time>2015-09-20T09:31:39.85Z</time>
      </trkpt>
      <trkpt lat="45.95546" lon="4.75523">
        <ele>186.800003052</ele>
        <time>2015-09-20T09:31:40.904Z</time>
      </trkpt>
      <trkpt lat="45.95551" lon="4.75528">
        <ele>187.5</ele>
        <time>2015-09-20T09:31:41.904Z</time>
      </trkpt>
      <trkpt lat="45.95555" lon="4.75532">
        <ele>187.5</ele>
        <time>2015-09-20T09:31:42.875Z</time>
      </trkpt>
      <trkpt lat="45.9556" lon="4.75537">
        <ele>187.399993896</ele>
        <time>2015-09-20T09:31:43.851Z</time>
      </trkpt>
      <trkpt lat="45.95565" lon="4.75541">
        <ele>187.399993896</ele>
        <time>2015-09-20T09:31:44.875Z</time>
      </trkpt>
      <trkpt lat="45.9557" lon="4.75545">
        <ele>187.300003052</ele>
        <time>2015-09-20T09:31:45.85Z</time>
      </trkpt>
      <trkpt lat="45.95574" lon="4.7555">
        <ele>187.399993896</ele>
        <time>2015-09-20T09:31:46.875Z</time>
      </trkpt>
      <trkpt lat="45.95578" lon="4.75555">
        <ele>187.399993896</ele>
        <time>2015-09-20T09:31:47.853Z</time>
      </trkpt>
      <trkpt lat="45.95581" lon="4.7556">
        <ele>187.699996948</ele>
        <time>2015-09-20T09:31:48.902Z</time>
      </trkpt>
      <trkpt lat="45.95585" lon="4.75565">
        <ele>187.899993896</ele>
        <time>2015-09-20T09:31:49.857Z</time>
      </trkpt>
      <trkpt lat="45.95589" lon="4.75571">
        <ele>188.100006104</ele>
        <time>2015-09-20T09:31:50.924Z</time>
      </trkpt>
      <trkpt lat="45.95592" lon="4.75577">
        <ele>188.100006104</ele>
        <time>2015-09-20T09:31:51.851Z</time>
      </trkpt>
      <trkpt lat="45.95594" lon="4.75583">
        <ele>188.5</ele>
        <time>2015-09-20T09:31:52.924Z</time>
      </trkpt>
      <trkpt lat="45.95596" lon="4.7559">
        <ele>189</ele>
        <time>2015-09-20T09:31:53.853Z</time>
      </trkpt>
      <trkpt lat="45.95599" lon="4.75596">
        <ele>188.899993896</ele>
        <time>2015-09-20T09:31:54.876Z</time>
      </trkpt>
      <trkpt lat="45.95602" lon="4.75602">
        <ele>189</ele>
        <time>2015-09-20T09:31:55.851Z</time>
      </trkpt>
      <trkpt lat="45.95604" lon="4.75609">
        <ele>189</ele>
        <time>2015-09-20T09:31:56.875Z</time>
      </trkpt>
      <trkpt lat="45.95606" lon="4.75616">
        <ele>189.100006104</ele>
        <time>2015-09-20T09:31:57.851Z</time>
      </trkpt>
      <trkpt lat="45.95608" lon="4.75623">
        <ele>189.199996948</ele>
        <time>2015-09-20T09:31:58.875Z</time>
      </trkpt>
      <trkpt lat="45.9561" lon="4.7563">
        <ele>189.300003052</ele>
        <time>2015-09-20T09:31:59.852Z</time>
      </trkpt>
      <trkpt lat="45.95612" lon="4.75637">
        <ele>189.399993896</ele>
        <time>2015-09-20T09:32:00.927Z</time>
      </trkpt>
      <trkpt lat="45.95613" lon="4.75645">
        <ele>189.5</ele>
        <time>2015-09-20T09:32:01.851Z</time>
      </trkpt>
      <trkpt lat="45.95615" lon="4.75652">
        <ele>189.600006104</ele>
        <time>2015-09-20T09:32:02.912Z</time>
      </trkpt>
      <trkpt lat="45.95616" lon="4.7566">
        <ele>189.800003052</ele>
        <time>2015-09-20T09:32:03.851Z</time>
      </trkpt>
      <trkpt lat="45.95618" lon="4.75667">
        <ele>189.899993896</ele>
        <time>2015-09-20T09:32:04.883Z</time>
      </trkpt>
      <trkpt lat="45.95619" lon="4.75675">
        <ele>189.899993896</ele>
        <time>2015-09-20T09:32:05.853Z</time>
      </trkpt>
      <trkpt lat="45.9562" lon="4.75683">
        <ele>189.899993896</ele>
        <time>2015-09-20T09:32:06.883Z</time>
      </trkpt>
      <trkpt lat="45.95621" lon="4.75691">
        <ele>189.899993896</ele>
        <time>2015-09-20T09:32:07.854Z</time>
      </trkpt>
      <trkpt lat="45.95622" lon="4.75698">
        <ele>190.199996948</ele>
        <time>2015-09-20T09:32:08.901Z</time>
      </trkpt>
      <trkpt lat="45.95623" lon="4.75705">
        <ele>190.399993896</ele>
        <time>2015-09-20T09:32:09.851Z</time>
      </trkpt>
      <trkpt lat="45.95625" lon="4.75713">
        <ele>190.399993896</ele>
        <time>2015-09-20T09:32:10.901Z</time>
      </trkpt>
      <trkpt lat="45.95625" lon="4.7572">
        <ele>190.5</ele>
        <time>2015-09-20T09:32:11.869Z</time>
      </trkpt>
      <trkpt lat="45.95627" lon="4.75727">
        <ele>190.199996948</ele>
        <time>2015-09-20T09:32:12.92Z</time>
      </trkpt>
      <trkpt lat="45.95627" lon="4.75735">
        <ele>190.5</ele>
        <time>2015-09-20T09:32:13.851Z</time>
      </trkpt>
      <trkpt lat="45.95628" lon="4.75743">
        <ele>190.300003052</ele>
        <time>2015-09-20T09:32:14.875Z</time>
      </trkpt>
      <trkpt lat="45.95629" lon="4.75751">
        <ele>190.300003052</ele>
        <time>2015-09-20T09:32:15.853Z</time>
      </trkpt>
      <trkpt lat="45.95631" lon="4.75758">
        <ele>188.600006104</ele>
        <time>2015-09-20T09:32:16.876Z</time>
      </trkpt>
      <trkpt lat="45.95632" lon="4.75765">
        <ele>188.600006104</ele>
        <time>2015-09-20T09:32:17.852Z</time>
      </trkpt>
      <trkpt lat="45.95634" lon="4.75773">
        <ele>188.300003052</ele>
        <time>2015-09-20T09:32:18.875Z</time>
      </trkpt>
      <trkpt lat="45.95634" lon="4.7578">
        <ele>188.199996948</ele>
        <time>2015-09-20T09:32:19.851Z</time>
      </trkpt>
      <trkpt lat="45.95635" lon="4.75787">
        <ele>188</ele>
        <time>2015-09-20T09:32:20.898Z</time>
      </trkpt>
      <trkpt lat="45.95637" lon="4.75795">
        <ele>187.899993896</ele>
        <time>2015-09-20T09:32:21.85Z</time>
      </trkpt>
      <trkpt lat="45.95638" lon="4.75803">
        <ele>187.899993896</ele>
        <time>2015-09-20T09:32:22.875Z</time>
      </trkpt>
      <trkpt lat="45.9564" lon="4.75811">
        <ele>187.699996948</ele>
        <time>2015-09-20T09:32:23.852Z</time>
      </trkpt>
      <trkpt lat="45.95641" lon="4.75819">
        <ele>187.699996948</ele>
        <time>2015-09-20T09:32:24.875Z</time>
      </trkpt>
      <trkpt lat="45.95643" lon="4.75827">
        <ele>187.600006104</ele>
        <time>2015-09-20T09:32:25.852Z</time>
      </trkpt>
      <trkpt lat="45.95645" lon="4.75836">
        <ele>187.5</ele>
        <time>2015-09-20T09:32:26.875Z</time>
      </trkpt>
      <trkpt lat="45.95647" lon="4.75844">
        <ele>187.5</ele>
        <time>2015-09-20T09:32:27.85Z</time>
      </trkpt>
      <trkpt lat="45.95649" lon="4.75852">
        <ele>187.699996948</ele>
        <time>2015-09-20T09:32:28.874Z</time>
      </trkpt>
      <trkpt lat="45.95651" lon="4.75859">
        <ele>187.600006104</ele>
        <time>2015-09-20T09:32:29.846Z</time>
      </trkpt>
      <trkpt lat="45.95653" lon="4.75867">
        <ele>187.300003052</ele>
        <time>2015-09-20T09:32:30.895Z</time>
      </trkpt>
      <trkpt lat="45.95655" lon="4.75874">
        <ele>186.899993896</ele>
        <time>2015-09-20T09:32:31.851Z</time>
      </trkpt>
      <trkpt lat="45.95658" lon="4.75882">
        <ele>186.5</ele>
        <time>2015-09-20T09:32:32.889Z</time>
      </trkpt>
      <trkpt lat="45.95661" lon="4.75889">
        <ele>186.399993896</ele>
        <time>2015-09-20T09:32:33.85Z</time>
      </trkpt>
      <trkpt lat="45.95664" lon="4.75897">
        <ele>186.5</ele>
        <time>2015-09-20T09:32:34.947Z</time>
      </trkpt>
      <trkpt lat="45.95666" lon="4.75904">
        <ele>186.5</ele>
        <time>2015-09-20T09:32:35.853Z</time>
      </trkpt>
      <trkpt lat="45.95669" lon="4.75911">
        <ele>186.199996948</ele>
        <time>2015-09-20T09:32:36.874Z</time>
      </trkpt>
      <trkpt lat="45.95673" lon="4.75919">
        <ele>185.800003052</ele>
        <time>2015-09-20T09:32:37.853Z</time>
      </trkpt>
      <trkpt lat="45.95676" lon="4.75925">
        <ele>185.699996948</ele>
        <time>2015-09-20T09:32:38.875Z</time>
      </trkpt>
      <trkpt lat="45.95679" lon="4.75932">
        <ele>185.800003052</ele>
        <time>2015-09-20T09:32:39.851Z</time>
      </trkpt>
      <trkpt lat="45.95681" lon="4.75938">
        <ele>185.699996948</ele>
        <time>2015-09-20T09:32:40.891Z</time>
      </trkpt>
      <trkpt lat="45.95684" lon="4.75944">
        <ele>185.600006104</ele>
        <time>2015-09-20T09:32:41.856Z</time>
      </trkpt>
      <trkpt lat="45.95687" lon="4.7595">
        <ele>185.600006104</ele>
        <time>2015-09-20T09:32:42.876Z</time>
      </trkpt>
      <trkpt lat="45.95689" lon="4.75956">
        <ele>185.399993896</ele>
        <time>2015-09-20T09:32:43.851Z</time>
      </trkpt>
      <trkpt lat="45.95692" lon="4.75962">
        <ele>185.300003052</ele>
        <time>2015-09-20T09:32:44.874Z</time>
      </trkpt>
      <trkpt lat="45.95695" lon="4.75969">
        <ele>185.199996948</ele>
        <time>2015-09-20T09:32:45.849Z</time>
      </trkpt>
      <trkpt lat="45.95698" lon="4.75975">
        <ele>185.199996948</ele>
        <time>2015-09-20T09:32:46.875Z</time>
      </trkpt>
      <trkpt lat="45.95701" lon="4.75981">
        <ele>185.199996948</ele>
        <time>2015-09-20T09:32:47.852Z</time>
      </trkpt>
      <trkpt lat="45.95704" lon="4.75988">
        <ele>185.300003052</ele>
        <time>2015-09-20T09:32:48.89Z</time>
      </trkpt>
      <trkpt lat="45.95707" lon="4.75994">
        <ele>185.300003052</ele>
        <time>2015-09-20T09:32:49.852Z</time>
      </trkpt>
      <trkpt lat="45.9571" lon="4.76001">
        <ele>185.100006104</ele>
        <time>2015-09-20T09:32:50.892Z</time>
      </trkpt>
      <trkpt lat="45.95714" lon="4.76007">
        <ele>185.199996948</ele>
        <time>2015-09-20T09:32:51.853Z</time>
      </trkpt>
      <trkpt lat="45.95717" lon="4.76014">
        <ele>185.399993896</ele>
        <time>2015-09-20T09:32:52.878Z</time>
      </trkpt>
      <trkpt lat="45.9572" lon="4.7602">
        <ele>185.600006104</ele>
        <time>2015-09-20T09:32:53.852Z</time>
      </trkpt>
      <trkpt lat="45.95723" lon="4.76026">
        <ele>185.5</ele>
        <time>2015-09-20T09:32:54.902Z</time>
      </trkpt>
      <trkpt lat="45.95725" lon="4.76032">
        <ele>185.5</ele>
        <time>2015-09-20T09:32:55.851Z</time>
      </trkpt>
      <trkpt lat="45.95728" lon="4.76039">
        <ele>185.699996948</ele>
        <time>2015-09-20T09:32:56.944Z</time>
      </trkpt>
      <trkpt lat="45.95731" lon="4.76045">
        <ele>185.699996948</ele>
        <time>2015-09-20T09:32:57.851Z</time>
      </trkpt>
      <trkpt lat="45.95734" lon="4.76052">
        <ele>185.699996948</ele>
        <time>2015-09-20T09:32:58.875Z</time>
      </trkpt>
      <trkpt lat="45.95736" lon="4.76058">
        <ele>186</ele>
        <time>2015-09-20T09:32:59.852Z</time>
      </trkpt>
      <trkpt lat="45.95739" lon="4.76064">
        <ele>186</ele>
        <time>2015-09-20T09:33:00.888Z</time>
      </trkpt>
      <trkpt lat="45.95742" lon="4.7607">
        <ele>186.100006104</ele>
        <time>2015-09-20T09:33:01.851Z</time>
      </trkpt>
      <trkpt lat="45.95745" lon="4.76076">
        <ele>186.199996948</ele>
        <time>2015-09-20T09:33:02.876Z</time>
      </trkpt>
      <trkpt lat="45.95747" lon="4.76082">
        <ele>186.300003052</ele>
        <time>2015-09-20T09:33:03.85Z</time>
      </trkpt>
      <trkpt lat="45.95749" lon="4.76089">
        <ele>186.300003052</ele>
        <time>2015-09-20T09:33:04.89Z</time>
      </trkpt>
      <trkpt lat="45.95751" lon="4.76095">
        <ele>186.399993896</ele>
        <time>2015-09-20T09:33:05.852Z</time>
      </trkpt>
      <trkpt lat="45.95753" lon="4.76102">
        <ele>186.399993896</ele>
        <time>2015-09-20T09:33:06.874Z</time>
      </trkpt>
      <trkpt lat="45.95754" lon="4.76109">
        <ele>186.5</ele>
        <time>2015-09-20T09:33:07.854Z</time>
      </trkpt>
      <trkpt lat="45.95756" lon="4.76116">
        <ele>186.5</ele>
        <time>2015-09-20T09:33:08.875Z</time>
      </trkpt>
      <trkpt lat="45.95757" lon="4.76124">
        <ele>186.399993896</ele>
        <time>2015-09-20T09:33:09.851Z</time>
      </trkpt>
      <trkpt lat="45.95758" lon="4.76132">
        <ele>186.5</ele>
        <time>2015-09-20T09:33:10.945Z</time>
      </trkpt>
      <trkpt lat="45.95759" lon="4.7614">
        <ele>186.399993896</ele>
        <time>2015-09-20T09:33:11.853Z</time>
      </trkpt>
      <trkpt lat="45.9576" lon="4.76148">
        <ele>186.600006104</ele>
        <time>2015-09-20T09:33:12.875Z</time>
      </trkpt>
      <trkpt lat="45.95761" lon="4.76156">
        <ele>186.600006104</ele>
        <time>2015-09-20T09:33:13.851Z</time>
      </trkpt>
      <trkpt lat="45.95761" lon="4.76164">
        <ele>186.800003052</ele>
        <time>2015-09-20T09:33:14.875Z</time>
      </trkpt>
      <trkpt lat="45.95762" lon="4.76172">
        <ele>187</ele>
        <time>2015-09-20T09:33:15.85Z</time>
      </trkpt>
      <trkpt lat="45.95762" lon="4.7618">
        <ele>187.100006104</ele>
        <time>2015-09-20T09:33:16.876Z</time>
      </trkpt>
      <trkpt lat="45.95762" lon="4.76188">
        <ele>187.100006104</ele>
        <time>2015-09-20T09:33:17.855Z</time>
      </trkpt>
      <trkpt lat="45.95763" lon="4.76196">
        <ele>187.199996948</ele>
        <time>2015-09-20T09:33:18.879Z</time>
      </trkpt>
      <trkpt lat="45.95763" lon="4.76204">
        <ele>187.300003052</ele>
        <time>2015-09-20T09:33:19.852Z</time>
      </trkpt>
      <trkpt lat="45.95763" lon="4.76212">
        <ele>187.300003052</ele>
        <time>2015-09-20T09:33:20.913Z</time>
      </trkpt>
      <trkpt lat="45.95763" lon="4.76219">
        <ele>187.300003052</ele>
        <time>2015-09-20T09:33:21.851Z</time>
      </trkpt>
      <trkpt lat="45.95763" lon="4.76227">
        <ele>187.5</ele>
        <time>2015-09-20T09:33:22.875Z</time>
      </trkpt>
      <trkpt lat="45.95764" lon="4.76235">
        <ele>187.600006104</ele>
        <time>2015-09-20T09:33:23.852Z</time>
      </trkpt>
      <trkpt lat="45.95764" lon="4.76243">
        <ele>187.800003052</ele>
        <time>2015-09-20T09:33:24.875Z</time>
      </trkpt>
      <trkpt lat="45.95764" lon="4.7625">
        <ele>187.899993896</ele>
        <time>2015-09-20T09:33:25.851Z</time>
      </trkpt>
      <trkpt lat="45.95764" lon="4.76258">
        <ele>187.899993896</ele>
        <time>2015-09-20T09:33:26.875Z</time>
      </trkpt>
      <trkpt lat="45.95765" lon="4.76266">
        <ele>188.100006104</ele>
        <time>2015-09-20T09:33:27.85Z</time>
      </trkpt>
      <trkpt lat="45.95765" lon="4.76274">
        <ele>188.199996948</ele>
        <time>2015-09-20T09:33:28.904Z</time>
      </trkpt>
      <trkpt lat="45.95765" lon="4.76282">
        <ele>188.399993896</ele>
        <time>2015-09-20T09:33:29.892Z</time>
      </trkpt>
      <trkpt lat="45.95765" lon="4.7629">
        <ele>188.399993896</ele>
        <time>2015-09-20T09:33:30.883Z</time>
      </trkpt>
      <trkpt lat="45.95766" lon="4.76298">
        <ele>188.5</ele>
        <time>2015-09-20T09:33:31.851Z</time>
      </trkpt>
      <trkpt lat="45.95766" lon="4.76305">
        <ele>188.399993896</ele>
        <time>2015-09-20T09:33:32.876Z</time>
      </trkpt>
      <trkpt lat="45.95767" lon="4.76313">
        <ele>188.5</ele>
        <time>2015-09-20T09:33:33.851Z</time>
      </trkpt>
      <trkpt lat="45.95767" lon="4.76321">
        <ele>188.5</ele>
        <time>2015-09-20T09:33:34.875Z</time>
      </trkpt>
      <trkpt lat="45.95768" lon="4.76329">
        <ele>188.5</ele>
        <time>2015-09-20T09:33:35.852Z</time>
      </trkpt>
      <trkpt lat="45.95768" lon="4.76337">
        <ele>188.5</ele>
        <time>2015-09-20T09:33:36.907Z</time>
      </trkpt>
      <trkpt lat="45.95768" lon="4.76345">
        <ele>188.5</ele>
        <time>2015-09-20T09:33:37.852Z</time>
      </trkpt>
      <trkpt lat="45.95769" lon="4.76352">
        <ele>188.300003052</ele>
        <time>2015-09-20T09:33:38.875Z</time>
      </trkpt>
      <trkpt lat="45.95769" lon="4.76358">
        <ele>188.300003052</ele>
        <time>2015-09-20T09:33:39.851Z</time>
      </trkpt>
      <trkpt lat="45.95769" lon="4.76365">
        <ele>188.300003052</ele>
        <time>2015-09-20T09:33:40.881Z</time>
      </trkpt>
      <trkpt lat="45.9577" lon="4.76372">
        <ele>188</ele>
        <time>2015-09-20T09:33:41.854Z</time>
      </trkpt>
      <trkpt lat="45.95771" lon="4.76379">
        <ele>188</ele>
        <time>2015-09-20T09:33:42.875Z</time>
      </trkpt>
      <trkpt lat="45.95771" lon="4.76387">
        <ele>188.100006104</ele>
        <time>2015-09-20T09:33:43.854Z</time>
      </trkpt>
      <trkpt lat="45.95771" lon="4.76394">
        <ele>188.199996948</ele>
        <time>2015-09-20T09:33:44.879Z</time>
      </trkpt>
      <trkpt lat="45.95772" lon="4.76402">
        <ele>188</ele>
        <time>2015-09-20T09:33:45.851Z</time>
      </trkpt>
      <trkpt lat="45.95772" lon="4.76409">
        <ele>188.199996948</ele>
        <time>2015-09-20T09:33:46.875Z</time>
      </trkpt>
      <trkpt lat="45.95773" lon="4.76416">
        <ele>188.100006104</ele>
        <time>2015-09-20T09:33:47.852Z</time>
      </trkpt>
      <trkpt lat="45.95774" lon="4.76424">
        <ele>188.100006104</ele>
        <time>2015-09-20T09:33:48.896Z</time>
      </trkpt>
      <trkpt lat="45.95774" lon="4.76431">
        <ele>188.199996948</ele>
        <time>2015-09-20T09:33:49.852Z</time>
      </trkpt>
      <trkpt lat="45.95775" lon="4.76438">
        <ele>188.100006104</ele>
        <time>2015-09-20T09:33:50.985Z</time>
      </trkpt>
      <trkpt lat="45.95776" lon="4.76445">
        <ele>188.199996948</ele>
        <time>2015-09-20T09:33:51.887Z</time>
      </trkpt>
      <trkpt lat="45.95778" lon="4.76452">
        <ele>188.199996948</ele>
        <time>2015-09-20T09:33:52.89Z</time>
      </trkpt>
      <trkpt lat="45.95778" lon="4.7646">
        <ele>188.399993896</ele>
        <time>2015-09-20T09:33:53.853Z</time>
      </trkpt>
      <trkpt lat="45.9578" lon="4.76468">
        <ele>188.300003052</ele>
        <time>2015-09-20T09:33:54.875Z</time>
      </trkpt>
      <trkpt lat="45.95781" lon="4.76475">
        <ele>188.300003052</ele>
        <time>2015-09-20T09:33:55.852Z</time>
      </trkpt>
      <trkpt lat="45.95782" lon="4.76483">
        <ele>188.5</ele>
        <time>2015-09-20T09:33:56.876Z</time>
      </trkpt>
      <trkpt lat="45.95783" lon="4.76491">
        <ele>188.5</ele>
        <time>2015-09-20T09:33:57.85Z</time>
      </trkpt>
      <trkpt lat="45.95784" lon="4.76498">
        <ele>188.600006104</ele>
        <time>2015-09-20T09:33:58.875Z</time>
      </trkpt>
      <trkpt lat="45.95785" lon="4.76506">
        <ele>188.800003052</ele>
        <time>2015-09-20T09:33:59.852Z</time>
      </trkpt>
      <trkpt lat="45.95786" lon="4.76514">
        <ele>188.899993896</ele>
        <time>2015-09-20T09:34:00.875Z</time>
      </trkpt>
      <trkpt lat="45.95788" lon="4.76521">
        <ele>188.899993896</ele>
        <time>2015-09-20T09:34:01.851Z</time>
      </trkpt>
      <trkpt lat="45.95789" lon="4.76528">
        <ele>188.800003052</ele>
        <time>2015-09-20T09:34:02.883Z</time>
      </trkpt>
      <trkpt lat="45.9579" lon="4.76536">
        <ele>188.899993896</ele>
        <time>2015-09-20T09:34:03.85Z</time>
      </trkpt>
      <trkpt lat="45.95791" lon="4.76543">
        <ele>189</ele>
        <time>2015-09-20T09:34:04.875Z</time>
      </trkpt>
      <trkpt lat="45.95792" lon="4.76551">
        <ele>188.899993896</ele>
        <time>2015-09-20T09:34:05.852Z</time>
      </trkpt>
      <trkpt lat="45.95793" lon="4.76558">
        <ele>188.800003052</ele>
        <time>2015-09-20T09:34:06.875Z</time>
      </trkpt>
      <trkpt lat="45.95794" lon="4.76566">
        <ele>188.600006104</ele>
        <time>2015-09-20T09:34:07.853Z</time>
      </trkpt>
      <trkpt lat="45.95795" lon="4.76573">
        <ele>188.699996948</ele>
        <time>2015-09-20T09:34:08.888Z</time>
      </trkpt>
      <trkpt lat="45.95796" lon="4.76581">
        <ele>188.899993896</ele>
        <time>2015-09-20T09:34:09.853Z</time>
      </trkpt>
      <trkpt lat="45.95797" lon="4.76588">
        <ele>189.100006104</ele>
        <time>2015-09-20T09:34:10.879Z</time>
      </trkpt>
      <trkpt lat="45.95798" lon="4.76596">
        <ele>189</ele>
        <time>2015-09-20T09:34:11.852Z</time>
      </trkpt>
      <trkpt lat="45.95799" lon="4.76604">
        <ele>189.100006104</ele>
        <time>2015-09-20T09:34:12.876Z</time>
      </trkpt>
      <trkpt lat="45.95801" lon="4.76611">
        <ele>189.300003052</ele>
        <time>2015-09-20T09:34:13.852Z</time>
      </trkpt>
      <trkpt lat="45.95802" lon="4.76619">
        <ele>189.300003052</ele>
        <time>2015-09-20T09:34:14.875Z</time>
      </trkpt>
      <trkpt lat="45.95803" lon="4.76626">
        <ele>189.100006104</ele>
        <time>2015-09-20T09:34:15.85Z</time>
      </trkpt>
      <trkpt lat="45.95804" lon="4.76634">
        <ele>189.5</ele>
        <time>2015-09-20T09:34:16.875Z</time>
      </trkpt>
      <trkpt lat="45.95805" lon="4.76641">
        <ele>189.300003052</ele>
        <time>2015-09-20T09:34:17.852Z</time>
      </trkpt>
      <trkpt lat="45.95806" lon="4.76649">
        <ele>189.5</ele>
        <time>2015-09-20T09:34:18.875Z</time>
      </trkpt>
      <trkpt lat="45.95807" lon="4.76656">
        <ele>189.699996948</ele>
        <time>2015-09-20T09:34:19.851Z</time>
      </trkpt>
      <trkpt lat="45.95807" lon="4.76664">
        <ele>189.5</ele>
        <time>2015-09-20T09:34:20.916Z</time>
      </trkpt>
      <trkpt lat="45.95808" lon="4.76671">
        <ele>189.699996948</ele>
        <time>2015-09-20T09:34:21.85Z</time>
      </trkpt>
      <trkpt lat="45.9581" lon="4.76678">
        <ele>189.699996948</ele>
        <time>2015-09-20T09:34:22.876Z</time>
      </trkpt>
      <trkpt lat="45.95811" lon="4.76685">
        <ele>189.899993896</ele>
        <time>2015-09-20T09:34:23.852Z</time>
      </trkpt>
      <trkpt lat="45.95812" lon="4.76692">
        <ele>189.899993896</ele>
        <time>2015-09-20T09:34:24.916Z</time>
      </trkpt>
      <trkpt lat="45.95813" lon="4.767">
        <ele>189.699996948</ele>
        <time>2015-09-20T09:34:25.851Z</time>
      </trkpt>
      <trkpt lat="45.95815" lon="4.76707">
        <ele>189.399993896</ele>
        <time>2015-09-20T09:34:26.875Z</time>
      </trkpt>
      <trkpt lat="45.95816" lon="4.76715">
        <ele>189.300003052</ele>
        <time>2015-09-20T09:34:27.85Z</time>
      </trkpt>
      <trkpt lat="45.95818" lon="4.76722">
        <ele>189.100006104</ele>
        <time>2015-09-20T09:34:28.876Z</time>
      </trkpt>
      <trkpt lat="45.95819" lon="4.76729">
        <ele>189.100006104</ele>
        <time>2015-09-20T09:34:29.852Z</time>
      </trkpt>
      <trkpt lat="45.9582" lon="4.76737">
        <ele>189</ele>
        <time>2015-09-20T09:34:30.876Z</time>
      </trkpt>
      <trkpt lat="45.95821" lon="4.76744">
        <ele>189.199996948</ele>
        <time>2015-09-20T09:34:31.851Z</time>
      </trkpt>
      <trkpt lat="45.95822" lon="4.76751">
        <ele>189.199996948</ele>
        <time>2015-09-20T09:34:32.908Z</time>
      </trkpt>
      <trkpt lat="45.95823" lon="4.76758">
        <ele>189.199996948</ele>
        <time>2015-09-20T09:34:33.85Z</time>
      </trkpt>
      <trkpt lat="45.95825" lon="4.76765">
        <ele>189.300003052</ele>
        <time>2015-09-20T09:34:34.876Z</time>
      </trkpt>
      <trkpt lat="45.95826" lon="4.76772">
        <ele>189.199996948</ele>
        <time>2015-09-20T09:34:35.855Z</time>
      </trkpt>
      <trkpt lat="45.95827" lon="4.76779">
        <ele>189.5</ele>
        <time>2015-09-20T09:34:36.88Z</time>
      </trkpt>
      <trkpt lat="45.95827" lon="4.76786">
        <ele>189.300003052</ele>
        <time>2015-09-20T09:34:37.851Z</time>
      </trkpt>
      <trkpt lat="45.95828" lon="4.76792">
        <ele>189.100006104</ele>
        <time>2015-09-20T09:34:38.883Z</time>
      </trkpt>
      <trkpt lat="45.95829" lon="4.76799">
        <ele>189.100006104</ele>
        <time>2015-09-20T09:34:39.85Z</time>
      </trkpt>
      <trkpt lat="45.9583" lon="4.76807">
        <ele>189.100006104</ele>
        <time>2015-09-20T09:34:40.895Z</time>
      </trkpt>
      <trkpt lat="45.95829" lon="4.76814">
        <ele>189.399993896</ele>
        <time>2015-09-20T09:34:41.852Z</time>
      </trkpt>
      <trkpt lat="45.95829" lon="4.76822">
        <ele>189.5</ele>
        <time>2015-09-20T09:34:42.913Z</time>
      </trkpt>
      <trkpt lat="45.95827" lon="4.76829">
        <ele>190</ele>
        <time>2015-09-20T09:34:43.852Z</time>
      </trkpt>
      <trkpt lat="45.95825" lon="4.76837">
        <ele>190.199996948</ele>
        <time>2015-09-20T09:34:44.875Z</time>
      </trkpt>
      <trkpt lat="45.95824" lon="4.76844">
        <ele>190.399993896</ele>
        <time>2015-09-20T09:34:45.85Z</time>
      </trkpt>
      <trkpt lat="45.95822" lon="4.76852">
        <ele>190.699996948</ele>
        <time>2015-09-20T09:34:46.887Z</time>
      </trkpt>
      <trkpt lat="45.9582" lon="4.7686">
        <ele>191.199996948</ele>
        <time>2015-09-20T09:34:47.852Z</time>
      </trkpt>
      <trkpt lat="45.95819" lon="4.76867">
        <ele>191.5</ele>
        <time>2015-09-20T09:34:48.875Z</time>
      </trkpt>
      <trkpt lat="45.95816" lon="4.76875">
        <ele>191.600006104</ele>
        <time>2015-09-20T09:34:49.85Z</time>
      </trkpt>
      <trkpt lat="45.95814" lon="4.76883">
        <ele>191.5</ele>
        <time>2015-09-20T09:34:50.876Z</time>
      </trkpt>
      <trkpt lat="45.95813" lon="4.7689">
        <ele>191.800003052</ele>
        <time>2015-09-20T09:34:51.851Z</time>
      </trkpt>
      <trkpt lat="45.95811" lon="4.76898">
        <ele>191.899993896</ele>
        <time>2015-09-20T09:34:52.875Z</time>
      </trkpt>
      <trkpt lat="45.9581" lon="4.76905">
        <ele>191.899993896</ele>
        <time>2015-09-20T09:34:53.852Z</time>
      </trkpt>
      <trkpt lat="45.95808" lon="4.76913">
        <ele>191.899993896</ele>
        <time>2015-09-20T09:34:54.875Z</time>
      </trkpt>
      <trkpt lat="45.95807" lon="4.76921">
        <ele>192.100006104</ele>
        <time>2015-09-20T09:34:55.851Z</time>
      </trkpt>
      <trkpt lat="45.95805" lon="4.76929">
        <ele>191.899993896</ele>
        <time>2015-09-20T09:34:56.875Z</time>
      </trkpt>
      <trkpt lat="45.95804" lon="4.76936">
        <ele>191.600006104</ele>
        <time>2015-09-20T09:34:57.85Z</time>
      </trkpt>
      <trkpt lat="45.95802" lon="4.76944">
        <ele>191.300003052</ele>
        <time>2015-09-20T09:34:58.874Z</time>
      </trkpt>
      <trkpt lat="45.95801" lon="4.76952">
        <ele>191.100006104</ele>
        <time>2015-09-20T09:34:59.852Z</time>
      </trkpt>
      <trkpt lat="45.958" lon="4.76959">
        <ele>191.199996948</ele>
        <time>2015-09-20T09:35:00.875Z</time>
      </trkpt>
      <trkpt lat="45.95799" lon="4.76966">
        <ele>191</ele>
        <time>2015-09-20T09:35:01.87Z</time>
      </trkpt>
      <trkpt lat="45.95798" lon="4.76974">
        <ele>190.899993896</ele>
        <time>2015-09-20T09:35:02.88Z</time>
      </trkpt>
      <trkpt lat="45.95798" lon="4.76981">
        <ele>190.699996948</ele>
        <time>2015-09-20T09:35:03.85Z</time>
      </trkpt>
      <trkpt lat="45.95798" lon="4.76988">
        <ele>190.800003052</ele>
        <time>2015-09-20T09:35:04.875Z</time>
      </trkpt>
      <trkpt lat="45.95799" lon="4.76996">
        <ele>190.5</ele>
        <time>2015-09-20T09:35:05.852Z</time>
      </trkpt>
      <trkpt lat="45.958" lon="4.77003">
        <ele>190.399993896</ele>
        <time>2015-09-20T09:35:06.875Z</time>
      </trkpt>
      <trkpt lat="45.95801" lon="4.77011">
        <ele>190.399993896</ele>
        <time>2015-09-20T09:35:07.853Z</time>
      </trkpt>
      <trkpt lat="45.95803" lon="4.77019">
        <ele>190.399993896</ele>
        <time>2015-09-20T09:35:08.874Z</time>
      </trkpt>
      <trkpt lat="45.95806" lon="4.77026">
        <ele>190.5</ele>
        <time>2015-09-20T09:35:09.85Z</time>
      </trkpt>
      <trkpt lat="45.95809" lon="4.77033">
        <ele>190.300003052</ele>
        <time>2015-09-20T09:35:10.875Z</time>
      </trkpt>
      <trkpt lat="45.95812" lon="4.7704">
        <ele>190.199996948</ele>
        <time>2015-09-20T09:35:11.852Z</time>
      </trkpt>
      <trkpt lat="45.95815" lon="4.77047">
        <ele>190.100006104</ele>
        <time>2015-09-20T09:35:12.89Z</time>
      </trkpt>
      <trkpt lat="45.95818" lon="4.77053">
        <ele>190</ele>
        <time>2015-09-20T09:35:13.851Z</time>
      </trkpt>
      <trkpt lat="45.95821" lon="4.7706">
        <ele>189.5</ele>
        <time>2015-09-20T09:35:14.875Z</time>
      </trkpt>
      <trkpt lat="45.95824" lon="4.77067">
        <ele>189.300003052</ele>
        <time>2015-09-20T09:35:15.851Z</time>
      </trkpt>
      <trkpt lat="45.95827" lon="4.77075">
        <ele>189.199996948</ele>
        <time>2015-09-20T09:35:16.875Z</time>
      </trkpt>
      <trkpt lat="45.9583" lon="4.77082">
        <ele>189.399993896</ele>
        <time>2015-09-20T09:35:17.87Z</time>
      </trkpt>
      <trkpt lat="45.95833" lon="4.77089">
        <ele>189.100006104</ele>
        <time>2015-09-20T09:35:18.876Z</time>
      </trkpt>
      <trkpt lat="45.95835" lon="4.77096">
        <ele>189</ele>
        <time>2015-09-20T09:35:19.851Z</time>
      </trkpt>
      <trkpt lat="45.95838" lon="4.77104">
        <ele>188.800003052</ele>
        <time>2015-09-20T09:35:20.876Z</time>
      </trkpt>
      <trkpt lat="45.9584" lon="4.7711">
        <ele>188.800003052</ele>
        <time>2015-09-20T09:35:21.851Z</time>
      </trkpt>
      <trkpt lat="45.95843" lon="4.77116">
        <ele>188.899993896</ele>
        <time>2015-09-20T09:35:22.876Z</time>
      </trkpt>
      <trkpt lat="45.95845" lon="4.77122">
        <ele>188.899993896</ele>
        <time>2015-09-20T09:35:23.852Z</time>
      </trkpt>
      <trkpt lat="45.95846" lon="4.77129">
        <ele>189</ele>
        <time>2015-09-20T09:35:24.875Z</time>
      </trkpt>
      <trkpt lat="45.95848" lon="4.77135">
        <ele>189.300003052</ele>
        <time>2015-09-20T09:35:25.852Z</time>
      </trkpt>
      <trkpt lat="45.9585" lon="4.77142">
        <ele>189.399993896</ele>
        <time>2015-09-20T09:35:26.875Z</time>
      </trkpt>
      <trkpt lat="45.95852" lon="4.77148">
        <ele>189.399993896</ele>
        <time>2015-09-20T09:35:27.852Z</time>
      </trkpt>
      <trkpt lat="45.95854" lon="4.77154">
        <ele>189.5</ele>
        <time>2015-09-20T09:35:28.878Z</time>
      </trkpt>
      <trkpt lat="45.95855" lon="4.77161">
        <ele>189.5</ele>
        <time>2015-09-20T09:35:29.852Z</time>
      </trkpt>
      <trkpt lat="45.95857" lon="4.77168">
        <ele>189.5</ele>
        <time>2015-09-20T09:35:30.905Z</time>
      </trkpt>
      <trkpt lat="45.95858" lon="4.77174">
        <ele>189.399993896</ele>
        <time>2015-09-20T09:35:31.852Z</time>
      </trkpt>
      <trkpt lat="45.9586" lon="4.77181">
        <ele>189.399993896</ele>
        <time>2015-09-20T09:35:32.875Z</time>
      </trkpt>
      <trkpt lat="45.95862" lon="4.77188">
        <ele>189.5</ele>
        <time>2015-09-20T09:35:33.846Z</time>
      </trkpt>
      <trkpt lat="45.95864" lon="4.77194">
        <ele>189.699996948</ele>
        <time>2015-09-20T09:35:34.875Z</time>
      </trkpt>
      <trkpt lat="45.95865" lon="4.772">
        <ele>189.899993896</ele>
        <time>2015-09-20T09:35:35.852Z</time>
      </trkpt>
      <trkpt lat="45.95868" lon="4.77213">
        <ele>190</ele>
        <time>2015-09-20T09:35:37.896Z</time>
      </trkpt>
      <trkpt lat="45.95869" lon="4.77219">
        <ele>190.199996948</ele>
        <time>2015-09-20T09:35:38.868Z</time>
      </trkpt>
      <trkpt lat="45.9587" lon="4.77226">
        <ele>190.300003052</ele>
        <time>2015-09-20T09:35:39.877Z</time>
      </trkpt>
      <trkpt lat="45.95871" lon="4.77232">
        <ele>190.300003052</ele>
        <time>2015-09-20T09:35:40.851Z</time>
      </trkpt>
      <trkpt lat="45.95873" lon="4.77239">
        <ele>190.300003052</ele>
        <time>2015-09-20T09:35:41.954Z</time>
      </trkpt>
      <trkpt lat="45.95874" lon="4.77245">
        <ele>190.399993896</ele>
        <time>2015-09-20T09:35:42.864Z</time>
      </trkpt>
      <trkpt lat="45.95875" lon="4.77252">
        <ele>190.399993896</ele>
        <time>2015-09-20T09:35:43.885Z</time>
      </trkpt>
      <trkpt lat="45.95877" lon="4.77259">
        <ele>190.399993896</ele>
        <time>2015-09-20T09:35:44.859Z</time>
      </trkpt>
      <trkpt lat="45.95878" lon="4.77267">
        <ele>190.699996948</ele>
        <time>2015-09-20T09:35:45.882Z</time>
      </trkpt>
      <trkpt lat="45.9588" lon="4.77274">
        <ele>190.899993896</ele>
        <time>2015-09-20T09:35:46.858Z</time>
      </trkpt>
      <trkpt lat="45.95881" lon="4.77281">
        <ele>191</ele>
        <time>2015-09-20T09:35:47.883Z</time>
      </trkpt>
      <trkpt lat="45.95883" lon="4.77289">
        <ele>190.899993896</ele>
        <time>2015-09-20T09:35:48.856Z</time>
      </trkpt>
      <trkpt lat="45.95885" lon="4.77296">
        <ele>190.699996948</ele>
        <time>2015-09-20T09:35:49.883Z</time>
      </trkpt>
      <trkpt lat="45.95886" lon="4.77304">
        <ele>191</ele>
        <time>2015-09-20T09:35:50.856Z</time>
      </trkpt>
      <trkpt lat="45.95889" lon="4.77311">
        <ele>191.300003052</ele>
        <time>2015-09-20T09:35:51.881Z</time>
      </trkpt>
      <trkpt lat="45.95891" lon="4.77319">
        <ele>191.199996948</ele>
        <time>2015-09-20T09:35:52.904Z</time>
      </trkpt>
      <trkpt lat="45.95893" lon="4.77326">
        <ele>191.199996948</ele>
        <time>2015-09-20T09:35:53.886Z</time>
      </trkpt>
      <trkpt lat="45.95896" lon="4.77333">
        <ele>191.199996948</ele>
        <time>2015-09-20T09:35:54.857Z</time>
      </trkpt>
      <trkpt lat="45.95898" lon="4.77341">
        <ele>191.5</ele>
        <time>2015-09-20T09:35:55.881Z</time>
      </trkpt>
      <trkpt lat="45.959" lon="4.77349">
        <ele>191.699996948</ele>
        <time>2015-09-20T09:35:56.856Z</time>
      </trkpt>
      <trkpt lat="45.95903" lon="4.77355">
        <ele>191.800003052</ele>
        <time>2015-09-20T09:35:57.879Z</time>
      </trkpt>
      <trkpt lat="45.95905" lon="4.77362">
        <ele>192.100006104</ele>
        <time>2015-09-20T09:35:58.852Z</time>
      </trkpt>
      <trkpt lat="45.95908" lon="4.77369">
        <ele>192.199996948</ele>
        <time>2015-09-20T09:35:59.894Z</time>
      </trkpt>
      <trkpt lat="45.9591" lon="4.77376">
        <ele>192.300003052</ele>
        <time>2015-09-20T09:36:00.852Z</time>
      </trkpt>
      <trkpt lat="45.95913" lon="4.77382">
        <ele>192.5</ele>
        <time>2015-09-20T09:36:01.878Z</time>
      </trkpt>
      <trkpt lat="45.95915" lon="4.77389">
        <ele>192.600006104</ele>
        <time>2015-09-20T09:36:02.852Z</time>
      </trkpt>
      <trkpt lat="45.95918" lon="4.77395">
        <ele>192.600006104</ele>
        <time>2015-09-20T09:36:03.882Z</time>
      </trkpt>
      <trkpt lat="45.9592" lon="4.77402">
        <ele>192.600006104</ele>
        <time>2015-09-20T09:36:04.855Z</time>
      </trkpt>
      <trkpt lat="45.95922" lon="4.77408">
        <ele>192.699996948</ele>
        <time>2015-09-20T09:36:05.881Z</time>
      </trkpt>
      <trkpt lat="45.95924" lon="4.77415">
        <ele>192.5</ele>
        <time>2015-09-20T09:36:06.852Z</time>
      </trkpt>
      <trkpt lat="45.95927" lon="4.77421">
        <ele>192.5</ele>
        <time>2015-09-20T09:36:07.883Z</time>
      </trkpt>
      <trkpt lat="45.95929" lon="4.77428">
        <ele>192.699996948</ele>
        <time>2015-09-20T09:36:08.852Z</time>
      </trkpt>
      <trkpt lat="45.9593" lon="4.77434">
        <ele>193</ele>
        <time>2015-09-20T09:36:09.877Z</time>
      </trkpt>
      <trkpt lat="45.95932" lon="4.7744">
        <ele>193.199996948</ele>
        <time>2015-09-20T09:36:10.851Z</time>
      </trkpt>
      <trkpt lat="45.95935" lon="4.77446">
        <ele>193.399993896</ele>
        <time>2015-09-20T09:36:11.879Z</time>
      </trkpt>
      <trkpt lat="45.95937" lon="4.77453">
        <ele>193.5</ele>
        <time>2015-09-20T09:36:12.851Z</time>
      </trkpt>
      <trkpt lat="45.95939" lon="4.77459">
        <ele>193.800003052</ele>
        <time>2015-09-20T09:36:13.881Z</time>
      </trkpt>
      <trkpt lat="45.95941" lon="4.77465">
        <ele>194.199996948</ele>
        <time>2015-09-20T09:36:14.851Z</time>
      </trkpt>
      <trkpt lat="45.95943" lon="4.77471">
        <ele>194.300003052</ele>
        <time>2015-09-20T09:36:15.892Z</time>
      </trkpt>
      <trkpt lat="45.95945" lon="4.77477">
        <ele>194.399993896</ele>
        <time>2015-09-20T09:36:16.85Z</time>
      </trkpt>
      <trkpt lat="45.95949" lon="4.77488">
        <ele>194.800003052</ele>
        <time>2015-09-20T09:36:18.885Z</time>
      </trkpt>
      <trkpt lat="45.95951" lon="4.77494">
        <ele>195.300003052</ele>
        <time>2015-09-20T09:36:19.855Z</time>
      </trkpt>
      <trkpt lat="45.95954" lon="4.775">
        <ele>196</ele>
        <time>2015-09-20T09:36:20.882Z</time>
      </trkpt>
      <trkpt lat="45.95956" lon="4.77505">
        <ele>196.399993896</ele>
        <time>2015-09-20T09:36:21.851Z</time>
      </trkpt>
      <trkpt lat="45.95958" lon="4.77511">
        <ele>197.300003052</ele>
        <time>2015-09-20T09:36:22.875Z</time>
      </trkpt>
      <trkpt lat="45.9596" lon="4.77517">
        <ele>197.5</ele>
        <time>2015-09-20T09:36:23.853Z</time>
      </trkpt>
      <trkpt lat="45.95965" lon="4.77528">
        <ele>198.399993896</ele>
        <time>2015-09-20T09:36:25.877Z</time>
      </trkpt>
      <trkpt lat="45.95967" lon="4.77534">
        <ele>198.399993896</ele>
        <time>2015-09-20T09:36:26.851Z</time>
      </trkpt>
      <trkpt lat="45.95971" lon="4.77542">
        <ele>198.399993896</ele>
        <time>2015-09-20T09:36:28.877Z</time>
      </trkpt>
      <trkpt lat="45.95973" lon="4.77546">
        <ele>198.5</ele>
        <time>2015-09-20T09:36:29.854Z</time>
      </trkpt>
      <trkpt lat="45.95977" lon="4.77554">
        <ele>198.600006104</ele>
        <time>2015-09-20T09:36:31.896Z</time>
      </trkpt>
      <trkpt lat="45.95979" lon="4.77561">
        <ele>198.800003052</ele>
        <time>2015-09-20T09:36:32.974Z</time>
      </trkpt>
      <trkpt lat="45.95981" lon="4.77567">
        <ele>198.899993896</ele>
        <time>2015-09-20T09:36:34.152Z</time>
      </trkpt>
      <trkpt lat="45.95983" lon="4.77573">
        <ele>199.199996948</ele>
        <time>2015-09-20T09:36:34.848Z</time>
      </trkpt>
      <trkpt lat="45.95986" lon="4.77579">
        <ele>199.899993896</ele>
        <time>2015-09-20T09:36:35.911Z</time>
      </trkpt>
      <trkpt lat="45.95988" lon="4.77585">
        <ele>200.5</ele>
        <time>2015-09-20T09:36:36.861Z</time>
      </trkpt>
      <trkpt lat="45.9599" lon="4.77591">
        <ele>200.800003052</ele>
        <time>2015-09-20T09:36:37.879Z</time>
      </trkpt>
      <trkpt lat="45.95993" lon="4.77595">
        <ele>200.899993896</ele>
        <time>2015-09-20T09:36:38.852Z</time>
      </trkpt>
      <trkpt lat="45.95997" lon="4.77599">
        <ele>201</ele>
        <time>2015-09-20T09:36:39.877Z</time>
      </trkpt>
      <trkpt lat="45.96001" lon="4.77603">
        <ele>200.800003052</ele>
        <time>2015-09-20T09:36:40.851Z</time>
      </trkpt>
      <trkpt lat="45.96004" lon="4.77607">
        <ele>201.199996948</ele>
        <time>2015-09-20T09:36:41.879Z</time>
      </trkpt>
      <trkpt lat="45.96008" lon="4.77611">
        <ele>201.399993896</ele>
        <time>2015-09-20T09:36:42.85Z</time>
      </trkpt>
      <trkpt lat="45.96011" lon="4.77616">
        <ele>201.300003052</ele>
        <time>2015-09-20T09:36:43.934Z</time>
      </trkpt>
      <trkpt lat="45.96015" lon="4.7762">
        <ele>201.300003052</ele>
        <time>2015-09-20T09:36:44.851Z</time>
      </trkpt>
      <trkpt lat="45.96022" lon="4.77628">
        <ele>201.300003052</ele>
        <time>2015-09-20T09:36:46.879Z</time>
      </trkpt>
      <trkpt lat="45.96025" lon="4.77631">
        <ele>201</ele>
        <time>2015-09-20T09:36:47.87Z</time>
      </trkpt>
      <trkpt lat="45.96032" lon="4.77639">
        <ele>200.600006104</ele>
        <time>2015-09-20T09:36:49.886Z</time>
      </trkpt>
      <trkpt lat="45.96035" lon="4.77643">
        <ele>200.399993896</ele>
        <time>2015-09-20T09:36:50.851Z</time>
      </trkpt>
      <trkpt lat="45.96039" lon="4.77647">
        <ele>200.300003052</ele>
        <time>2015-09-20T09:36:51.876Z</time>
      </trkpt>
      <trkpt lat="45.96042" lon="4.77651">
        <ele>200</ele>
        <time>2015-09-20T09:36:52.852Z</time>
      </trkpt>
      <trkpt lat="45.96045" lon="4.77656">
        <ele>199.699996948</ele>
        <time>2015-09-20T09:36:53.886Z</time>
      </trkpt>
      <trkpt lat="45.96049" lon="4.77661">
        <ele>199.399993896</ele>
        <time>2015-09-20T09:36:54.852Z</time>
      </trkpt>
      <trkpt lat="45.96053" lon="4.77666">
        <ele>199.399993896</ele>
        <time>2015-09-20T09:36:55.877Z</time>
      </trkpt>
      <trkpt lat="45.96056" lon="4.77671">
        <ele>199.5</ele>
        <time>2015-09-20T09:36:56.851Z</time>
      </trkpt>
      <trkpt lat="45.9606" lon="4.77675">
        <ele>199.100006104</ele>
        <time>2015-09-20T09:36:57.875Z</time>
      </trkpt>
      <trkpt lat="45.96064" lon="4.7768">
        <ele>199</ele>
        <time>2015-09-20T09:36:58.851Z</time>
      </trkpt>
      <trkpt lat="45.96067" lon="4.77684">
        <ele>198.800003052</ele>
        <time>2015-09-20T09:36:59.877Z</time>
      </trkpt>
      <trkpt lat="45.9607" lon="4.77689">
        <ele>198.899993896</ele>
        <time>2015-09-20T09:37:00.851Z</time>
      </trkpt>
      <trkpt lat="45.96073" lon="4.77694">
        <ele>198.899993896</ele>
        <time>2015-09-20T09:37:01.881Z</time>
      </trkpt>
      <trkpt lat="45.96076" lon="4.77699">
        <ele>198.800003052</ele>
        <time>2015-09-20T09:37:02.851Z</time>
      </trkpt>
      <trkpt lat="45.96079" lon="4.77704">
        <ele>198.699996948</ele>
        <time>2015-09-20T09:37:03.898Z</time>
      </trkpt>
      <trkpt lat="45.96082" lon="4.77709">
        <ele>198.699996948</ele>
        <time>2015-09-20T09:37:04.904Z</time>
      </trkpt>
      <trkpt lat="45.96086" lon="4.77714">
        <ele>198.600006104</ele>
        <time>2015-09-20T09:37:05.88Z</time>
      </trkpt>
      <trkpt lat="45.96089" lon="4.77719">
        <ele>198.5</ele>
        <time>2015-09-20T09:37:06.851Z</time>
      </trkpt>
      <trkpt lat="45.96092" lon="4.77724">
        <ele>198.5</ele>
        <time>2015-09-20T09:37:07.88Z</time>
      </trkpt>
      <trkpt lat="45.96095" lon="4.77729">
        <ele>198.5</ele>
        <time>2015-09-20T09:37:08.851Z</time>
      </trkpt>
      <trkpt lat="45.96101" lon="4.77738">
        <ele>198.899993896</ele>
        <time>2015-09-20T09:37:10.877Z</time>
      </trkpt>
      <trkpt lat="45.96104" lon="4.77743">
        <ele>199.300003052</ele>
        <time>2015-09-20T09:37:11.856Z</time>
      </trkpt>
      <trkpt lat="45.96109" lon="4.77752">
        <ele>199.899993896</ele>
        <time>2015-09-20T09:37:13.876Z</time>
      </trkpt>
      <trkpt lat="45.96112" lon="4.77757">
        <ele>200.399993896</ele>
        <time>2015-09-20T09:37:14.85Z</time>
      </trkpt>
      <trkpt lat="45.96117" lon="4.77766">
        <ele>201</ele>
        <time>2015-09-20T09:37:16.878Z</time>
      </trkpt>
      <trkpt lat="45.96119" lon="4.77769">
        <ele>201.699996948</ele>
        <time>2015-09-20T09:37:17.854Z</time>
      </trkpt>
      <trkpt lat="45.96123" lon="4.77777">
        <ele>202.699996948</ele>
        <time>2015-09-20T09:37:19.892Z</time>
      </trkpt>
      <trkpt lat="45.96126" lon="4.77781">
        <ele>202.5</ele>
        <time>2015-09-20T09:37:20.852Z</time>
      </trkpt>
      <trkpt lat="45.96131" lon="4.77791">
        <ele>203.399993896</ele>
        <time>2015-09-20T09:37:22.876Z</time>
      </trkpt>
      <trkpt lat="45.96134" lon="4.77796">
        <ele>203.699996948</ele>
        <time>2015-09-20T09:37:23.854Z</time>
      </trkpt>
      <trkpt lat="45.96136" lon="4.77801">
        <ele>204.199996948</ele>
        <time>2015-09-20T09:37:24.911Z</time>
      </trkpt>
      <trkpt lat="45.96139" lon="4.77806">
        <ele>204.399993896</ele>
        <time>2015-09-20T09:37:25.851Z</time>
      </trkpt>
      <trkpt lat="45.96142" lon="4.7781">
        <ele>204.5</ele>
        <time>2015-09-20T09:37:26.964Z</time>
      </trkpt>
      <trkpt lat="45.96146" lon="4.77815">
        <ele>204.399993896</ele>
        <time>2015-09-20T09:37:27.852Z</time>
      </trkpt>
      <trkpt lat="45.96149" lon="4.77821">
        <ele>204.399993896</ele>
        <time>2015-09-20T09:37:28.876Z</time>
      </trkpt>
      <trkpt lat="45.96152" lon="4.77826">
        <ele>204.600006104</ele>
        <time>2015-09-20T09:37:29.853Z</time>
      </trkpt>
      <trkpt lat="45.96154" lon="4.77832">
        <ele>204.899993896</ele>
        <time>2015-09-20T09:37:30.877Z</time>
      </trkpt>
      <trkpt lat="45.96157" lon="4.77837">
        <ele>205</ele>
        <time>2015-09-20T09:37:31.851Z</time>
      </trkpt>
      <trkpt lat="45.9616" lon="4.77842">
        <ele>205</ele>
        <time>2015-09-20T09:37:32.875Z</time>
      </trkpt>
      <trkpt lat="45.96163" lon="4.77847">
        <ele>205</ele>
        <time>2015-09-20T09:37:33.852Z</time>
      </trkpt>
      <trkpt lat="45.96166" lon="4.77853">
        <ele>205.100006104</ele>
        <time>2015-09-20T09:37:34.875Z</time>
      </trkpt>
      <trkpt lat="45.9617" lon="4.77858">
        <ele>204.899993896</ele>
        <time>2015-09-20T09:37:35.848Z</time>
      </trkpt>
      <trkpt lat="45.96173" lon="4.77863">
        <ele>204.800003052</ele>
        <time>2015-09-20T09:37:36.971Z</time>
      </trkpt>
      <trkpt lat="45.96177" lon="4.77869">
        <ele>204.5</ele>
        <time>2015-09-20T09:37:37.854Z</time>
      </trkpt>
      <trkpt lat="45.9618" lon="4.77875">
        <ele>204.5</ele>
        <time>2015-09-20T09:37:38.879Z</time>
      </trkpt>
      <trkpt lat="45.96184" lon="4.77881">
        <ele>204.100006104</ele>
        <time>2015-09-20T09:37:39.851Z</time>
      </trkpt>
      <trkpt lat="45.96187" lon="4.77887">
        <ele>204</ele>
        <time>2015-09-20T09:37:40.89Z</time>
      </trkpt>
      <trkpt lat="45.9619" lon="4.77892">
        <ele>203.899993896</ele>
        <time>2015-09-20T09:37:41.852Z</time>
      </trkpt>
      <trkpt lat="45.96193" lon="4.77897">
        <ele>204</ele>
        <time>2015-09-20T09:37:42.876Z</time>
      </trkpt>
      <trkpt lat="45.96196" lon="4.77902">
        <ele>203.899993896</ele>
        <time>2015-09-20T09:37:43.853Z</time>
      </trkpt>
      <trkpt lat="45.962" lon="4.77907">
        <ele>203.800003052</ele>
        <time>2015-09-20T09:37:44.876Z</time>
      </trkpt>
      <trkpt lat="45.96203" lon="4.77913">
        <ele>203.800003052</ele>
        <time>2015-09-20T09:37:45.851Z</time>
      </trkpt>
      <trkpt lat="45.96207" lon="4.77918">
        <ele>203.899993896</ele>
        <time>2015-09-20T09:37:46.876Z</time>
      </trkpt>
      <trkpt lat="45.9621" lon="4.77923">
        <ele>203.600006104</ele>
        <time>2015-09-20T09:37:47.853Z</time>
      </trkpt>
      <trkpt lat="45.96213" lon="4.77929">
        <ele>203.699996948</ele>
        <time>2015-09-20T09:37:48.877Z</time>
      </trkpt>
      <trkpt lat="45.96217" lon="4.77934">
        <ele>203.399993896</ele>
        <time>2015-09-20T09:37:49.892Z</time>
      </trkpt>
      <trkpt lat="45.9622" lon="4.77939">
        <ele>203.100006104</ele>
        <time>2015-09-20T09:37:50.877Z</time>
      </trkpt>
      <trkpt lat="45.96224" lon="4.77943">
        <ele>203</ele>
        <time>2015-09-20T09:37:51.851Z</time>
      </trkpt>
      <trkpt lat="45.96228" lon="4.77948">
        <ele>202.800003052</ele>
        <time>2015-09-20T09:37:52.876Z</time>
      </trkpt>
      <trkpt lat="45.96231" lon="4.77952">
        <ele>202.600006104</ele>
        <time>2015-09-20T09:37:53.852Z</time>
      </trkpt>
      <trkpt lat="45.96235" lon="4.77956">
        <ele>202.5</ele>
        <time>2015-09-20T09:37:54.885Z</time>
      </trkpt>
      <trkpt lat="45.9624" lon="4.7796">
        <ele>202.399993896</ele>
        <time>2015-09-20T09:37:55.851Z</time>
      </trkpt>
      <trkpt lat="45.96244" lon="4.77964">
        <ele>202.300003052</ele>
        <time>2015-09-20T09:37:56.891Z</time>
      </trkpt>
      <trkpt lat="45.96248" lon="4.77968">
        <ele>202.199996948</ele>
        <time>2015-09-20T09:37:57.851Z</time>
      </trkpt>
      <trkpt lat="45.96252" lon="4.77972">
        <ele>202.199996948</ele>
        <time>2015-09-20T09:37:58.875Z</time>
      </trkpt>
      <trkpt lat="45.96257" lon="4.77976">
        <ele>202.100006104</ele>
        <time>2015-09-20T09:37:59.853Z</time>
      </trkpt>
      <trkpt lat="45.96262" lon="4.77981">
        <ele>202.199996948</ele>
        <time>2015-09-20T09:38:00.876Z</time>
      </trkpt>
      <trkpt lat="45.96267" lon="4.77985">
        <ele>201.899993896</ele>
        <time>2015-09-20T09:38:01.851Z</time>
      </trkpt>
      <trkpt lat="45.96271" lon="4.77989">
        <ele>201.899993896</ele>
        <time>2015-09-20T09:38:02.876Z</time>
      </trkpt>
      <trkpt lat="45.96277" lon="4.77993">
        <ele>201.800003052</ele>
        <time>2015-09-20T09:38:03.852Z</time>
      </trkpt>
      <trkpt lat="45.96282" lon="4.77997">
        <ele>201.800003052</ele>
        <time>2015-09-20T09:38:04.878Z</time>
      </trkpt>
      <trkpt lat="45.96286" lon="4.78001">
        <ele>201.899993896</ele>
        <time>2015-09-20T09:38:05.852Z</time>
      </trkpt>
      <trkpt lat="45.96291" lon="4.78006">
        <ele>201.5</ele>
        <time>2015-09-20T09:38:06.886Z</time>
      </trkpt>
      <trkpt lat="45.96295" lon="4.7801">
        <ele>201.600006104</ele>
        <time>2015-09-20T09:38:07.855Z</time>
      </trkpt>
      <trkpt lat="45.963" lon="4.78014">
        <ele>202</ele>
        <time>2015-09-20T09:38:08.877Z</time>
      </trkpt>
      <trkpt lat="45.96304" lon="4.78019">
        <ele>201.899993896</ele>
        <time>2015-09-20T09:38:09.85Z</time>
      </trkpt>
      <trkpt lat="45.96308" lon="4.78023">
        <ele>201.699996948</ele>
        <time>2015-09-20T09:38:10.877Z</time>
      </trkpt>
      <trkpt lat="45.96312" lon="4.78028">
        <ele>200.899993896</ele>
        <time>2015-09-20T09:38:11.853Z</time>
      </trkpt>
      <trkpt lat="45.96316" lon="4.78033">
        <ele>200.800003052</ele>
        <time>2015-09-20T09:38:12.876Z</time>
      </trkpt>
      <trkpt lat="45.9632" lon="4.78037">
        <ele>200.699996948</ele>
        <time>2015-09-20T09:38:13.851Z</time>
      </trkpt>
      <trkpt lat="45.96324" lon="4.78041">
        <ele>200.800003052</ele>
        <time>2015-09-20T09:38:14.875Z</time>
      </trkpt>
      <trkpt lat="45.96328" lon="4.78046">
        <ele>201</ele>
        <time>2015-09-20T09:38:15.904Z</time>
      </trkpt>
      <trkpt lat="45.96331" lon="4.7805">
        <ele>201.300003052</ele>
        <time>2015-09-20T09:38:16.878Z</time>
      </trkpt>
      <trkpt lat="45.96335" lon="4.78055">
        <ele>201.300003052</ele>
        <time>2015-09-20T09:38:17.869Z</time>
      </trkpt>
      <trkpt lat="45.96339" lon="4.78059">
        <ele>201</ele>
        <time>2015-09-20T09:38:18.897Z</time>
      </trkpt>
      <trkpt lat="45.96343" lon="4.78064">
        <ele>200.699996948</ele>
        <time>2015-09-20T09:38:19.851Z</time>
      </trkpt>
      <trkpt lat="45.96347" lon="4.78069">
        <ele>200.600006104</ele>
        <time>2015-09-20T09:38:20.875Z</time>
      </trkpt>
      <trkpt lat="45.96351" lon="4.78073">
        <ele>200.399993896</ele>
        <time>2015-09-20T09:38:21.85Z</time>
      </trkpt>
      <trkpt lat="45.96355" lon="4.78077">
        <ele>200.199996948</ele>
        <time>2015-09-20T09:38:22.878Z</time>
      </trkpt>
      <trkpt lat="45.96358" lon="4.78081">
        <ele>200.100006104</ele>
        <time>2015-09-20T09:38:23.853Z</time>
      </trkpt>
      <trkpt lat="45.96362" lon="4.78085">
        <ele>200.5</ele>
        <time>2015-09-20T09:38:24.877Z</time>
      </trkpt>
      <trkpt lat="45.96366" lon="4.78089">
        <ele>200.100006104</ele>
        <time>2015-09-20T09:38:25.851Z</time>
      </trkpt>
      <trkpt lat="45.9637" lon="4.78093">
        <ele>200</ele>
        <time>2015-09-20T09:38:26.884Z</time>
      </trkpt>
      <trkpt lat="45.96374" lon="4.78096">
        <ele>199.800003052</ele>
        <time>2015-09-20T09:38:27.85Z</time>
      </trkpt>
      <trkpt lat="45.96379" lon="4.781">
        <ele>200</ele>
        <time>2015-09-20T09:38:28.875Z</time>
      </trkpt>
      <trkpt lat="45.96383" lon="4.78103">
        <ele>200.300003052</ele>
        <time>2015-09-20T09:38:29.855Z</time>
      </trkpt>
      <trkpt lat="45.96387" lon="4.78107">
        <ele>200.399993896</ele>
        <time>2015-09-20T09:38:30.879Z</time>
      </trkpt>
      <trkpt lat="45.96391" lon="4.78112">
        <ele>200.800003052</ele>
        <time>2015-09-20T09:38:31.851Z</time>
      </trkpt>
      <trkpt lat="45.96396" lon="4.78116">
        <ele>200.899993896</ele>
        <time>2015-09-20T09:38:32.875Z</time>
      </trkpt>
      <trkpt lat="45.964" lon="4.7812">
        <ele>201.100006104</ele>
        <time>2015-09-20T09:38:33.851Z</time>
      </trkpt>
      <trkpt lat="45.96404" lon="4.78124">
        <ele>201.100006104</ele>
        <time>2015-09-20T09:38:34.875Z</time>
      </trkpt>
      <trkpt lat="45.96408" lon="4.78128">
        <ele>201.300003052</ele>
        <time>2015-09-20T09:38:35.854Z</time>
      </trkpt>
      <trkpt lat="45.96412" lon="4.78132">
        <ele>201.300003052</ele>
        <time>2015-09-20T09:38:36.911Z</time>
      </trkpt>
      <trkpt lat="45.96416" lon="4.78137">
        <ele>201</ele>
        <time>2015-09-20T09:38:37.852Z</time>
      </trkpt>
      <trkpt lat="45.9642" lon="4.78141">
        <ele>200.699996948</ele>
        <time>2015-09-20T09:38:38.891Z</time>
      </trkpt>
      <trkpt lat="45.96425" lon="4.78145">
        <ele>200.399993896</ele>
        <time>2015-09-20T09:38:39.852Z</time>
      </trkpt>
      <trkpt lat="45.96429" lon="4.78149">
        <ele>200.300003052</ele>
        <time>2015-09-20T09:38:40.875Z</time>
      </trkpt>
      <trkpt lat="45.96434" lon="4.78154">
        <ele>200</ele>
        <time>2015-09-20T09:38:41.853Z</time>
      </trkpt>
      <trkpt lat="45.96438" lon="4.78158">
        <ele>200</ele>
        <time>2015-09-20T09:38:42.901Z</time>
      </trkpt>
      <trkpt lat="45.96443" lon="4.78162">
        <ele>199.899993896</ele>
        <time>2015-09-20T09:38:43.851Z</time>
      </trkpt>
      <trkpt lat="45.96447" lon="4.78166">
        <ele>199.800003052</ele>
        <time>2015-09-20T09:38:44.876Z</time>
      </trkpt>
      <trkpt lat="45.96452" lon="4.7817">
        <ele>199.699996948</ele>
        <time>2015-09-20T09:38:45.85Z</time>
      </trkpt>
      <trkpt lat="45.96456" lon="4.78174">
        <ele>199.5</ele>
        <time>2015-09-20T09:38:46.875Z</time>
      </trkpt>
      <trkpt lat="45.96461" lon="4.78179">
        <ele>199.5</ele>
        <time>2015-09-20T09:38:47.852Z</time>
      </trkpt>
      <trkpt lat="45.96466" lon="4.78182">
        <ele>199.300003052</ele>
        <time>2015-09-20T09:38:48.881Z</time>
      </trkpt>
      <trkpt lat="45.96471" lon="4.78186">
        <ele>199.100006104</ele>
        <time>2015-09-20T09:38:49.852Z</time>
      </trkpt>
      <trkpt lat="45.96476" lon="4.78188">
        <ele>199.100006104</ele>
        <time>2015-09-20T09:38:50.877Z</time>
      </trkpt>
      <trkpt lat="45.96481" lon="4.78191">
        <ele>199.100006104</ele>
        <time>2015-09-20T09:38:51.85Z</time>
      </trkpt>
      <trkpt lat="45.96486" lon="4.78193">
        <ele>199.199996948</ele>
        <time>2015-09-20T09:38:52.875Z</time>
      </trkpt>
      <trkpt lat="45.96491" lon="4.78196">
        <ele>199</ele>
        <time>2015-09-20T09:38:53.852Z</time>
      </trkpt>
      <trkpt lat="45.96495" lon="4.78198">
        <ele>198.800003052</ele>
        <time>2015-09-20T09:38:54.889Z</time>
      </trkpt>
      <trkpt lat="45.96499" lon="4.78202">
        <ele>198.300003052</ele>
        <time>2015-09-20T09:38:55.853Z</time>
      </trkpt>
      <trkpt lat="45.96504" lon="4.78211">
        <ele>197.899993896</ele>
        <time>2015-09-20T09:38:57.885Z</time>
      </trkpt>
      <trkpt lat="45.96507" lon="4.78215">
        <ele>197.800003052</ele>
        <time>2015-09-20T09:38:58.85Z</time>
      </trkpt>
      <trkpt lat="45.9651" lon="4.78219">
        <ele>197.5</ele>
        <time>2015-09-20T09:38:59.878Z</time>
      </trkpt>
      <trkpt lat="45.96513" lon="4.78225">
        <ele>197.300003052</ele>
        <time>2015-09-20T09:39:00.851Z</time>
      </trkpt>
      <trkpt lat="45.96516" lon="4.78231">
        <ele>197.199996948</ele>
        <time>2015-09-20T09:39:01.88Z</time>
      </trkpt>
      <trkpt lat="45.96519" lon="4.78237">
        <ele>197.199996948</ele>
        <time>2015-09-20T09:39:02.85Z</time>
      </trkpt>
      <trkpt lat="45.96522" lon="4.78243">
        <ele>196.899993896</ele>
        <time>2015-09-20T09:39:03.874Z</time>
      </trkpt>
      <trkpt lat="45.96525" lon="4.78249">
        <ele>196.600006104</ele>
        <time>2015-09-20T09:39:04.85Z</time>
      </trkpt>
      <trkpt lat="45.96529" lon="4.78255">
        <ele>196.5</ele>
        <time>2015-09-20T09:39:05.973Z</time>
      </trkpt>
      <trkpt lat="45.96533" lon="4.7826">
        <ele>196.5</ele>
        <time>2015-09-20T09:39:06.85Z</time>
      </trkpt>
      <trkpt lat="45.96536" lon="4.78265">
        <ele>196.5</ele>
        <time>2015-09-20T09:39:07.878Z</time>
      </trkpt>
      <trkpt lat="45.9654" lon="4.7827">
        <ele>196.300003052</ele>
        <time>2015-09-20T09:39:08.85Z</time>
      </trkpt>
      <trkpt lat="45.96544" lon="4.78276">
        <ele>196</ele>
        <time>2015-09-20T09:39:09.875Z</time>
      </trkpt>
      <trkpt lat="45.96549" lon="4.78281">
        <ele>195.699996948</ele>
        <time>2015-09-20T09:39:10.851Z</time>
      </trkpt>
      <trkpt lat="45.96553" lon="4.78287">
        <ele>195.399993896</ele>
        <time>2015-09-20T09:39:11.878Z</time>
      </trkpt>
      <trkpt lat="45.96557" lon="4.78292">
        <ele>194.899993896</ele>
        <time>2015-09-20T09:39:12.872Z</time>
      </trkpt>
      <trkpt lat="45.96561" lon="4.78297">
        <ele>194.899993896</ele>
        <time>2015-09-20T09:39:13.876Z</time>
      </trkpt>
      <trkpt lat="45.96566" lon="4.78301">
        <ele>195</ele>
        <time>2015-09-20T09:39:14.89Z</time>
      </trkpt>
      <trkpt lat="45.9657" lon="4.78306">
        <ele>195</ele>
        <time>2015-09-20T09:39:15.924Z</time>
      </trkpt>
      <trkpt lat="45.96575" lon="4.7831">
        <ele>195</ele>
        <time>2015-09-20T09:39:16.85Z</time>
      </trkpt>
      <trkpt lat="45.96579" lon="4.78315">
        <ele>194.800003052</ele>
        <time>2015-09-20T09:39:17.882Z</time>
      </trkpt>
      <trkpt lat="45.96584" lon="4.78319">
        <ele>194.800003052</ele>
        <time>2015-09-20T09:39:18.85Z</time>
      </trkpt>
      <trkpt lat="45.96588" lon="4.78323">
        <ele>194.800003052</ele>
        <time>2015-09-20T09:39:19.877Z</time>
      </trkpt>
      <trkpt lat="45.96593" lon="4.78328">
        <ele>194.899993896</ele>
        <time>2015-09-20T09:39:20.85Z</time>
      </trkpt>
      <trkpt lat="45.96597" lon="4.78332">
        <ele>196.399993896</ele>
        <time>2015-09-20T09:39:21.879Z</time>
      </trkpt>
      <trkpt lat="45.96602" lon="4.78336">
        <ele>197</ele>
        <time>2015-09-20T09:39:22.852Z</time>
      </trkpt>
      <trkpt lat="45.96606" lon="4.78341">
        <ele>197.199996948</ele>
        <time>2015-09-20T09:39:23.878Z</time>
      </trkpt>
      <trkpt lat="45.96611" lon="4.78346">
        <ele>197.800003052</ele>
        <time>2015-09-20T09:39:24.85Z</time>
      </trkpt>
      <trkpt lat="45.96615" lon="4.7835">
        <ele>198.699996948</ele>
        <time>2015-09-20T09:39:25.876Z</time>
      </trkpt>
      <trkpt lat="45.9662" lon="4.78354">
        <ele>199.199996948</ele>
        <time>2015-09-20T09:39:26.85Z</time>
      </trkpt>
      <trkpt lat="45.96625" lon="4.78358">
        <ele>199.399993896</ele>
        <time>2015-09-20T09:39:27.875Z</time>
      </trkpt>
      <trkpt lat="45.9663" lon="4.78362">
        <ele>199.800003052</ele>
        <time>2015-09-20T09:39:28.85Z</time>
      </trkpt>
      <trkpt lat="45.96634" lon="4.78367">
        <ele>200.199996948</ele>
        <time>2015-09-20T09:39:29.877Z</time>
      </trkpt>
      <trkpt lat="45.96638" lon="4.7837">
        <ele>200.399993896</ele>
        <time>2015-09-20T09:39:30.849Z</time>
      </trkpt>
      <trkpt lat="45.96642" lon="4.78374">
        <ele>200.600006104</ele>
        <time>2015-09-20T09:39:31.891Z</time>
      </trkpt>
      <trkpt lat="45.96646" lon="4.78379">
        <ele>200.800003052</ele>
        <time>2015-09-20T09:39:32.849Z</time>
      </trkpt>
      <trkpt lat="45.9665" lon="4.78383">
        <ele>201.199996948</ele>
        <time>2015-09-20T09:39:33.875Z</time>
      </trkpt>
      <trkpt lat="45.96654" lon="4.78388">
        <ele>201.300003052</ele>
        <time>2015-09-20T09:39:34.849Z</time>
      </trkpt>
      <trkpt lat="45.96659" lon="4.78392">
        <ele>201.399993896</ele>
        <time>2015-09-20T09:39:35.877Z</time>
      </trkpt>
      <trkpt lat="45.96663" lon="4.78396">
        <ele>201.199996948</ele>
        <time>2015-09-20T09:39:36.85Z</time>
      </trkpt>
      <trkpt lat="45.96667" lon="4.784">
        <ele>201.100006104</ele>
        <time>2015-09-20T09:39:37.909Z</time>
      </trkpt>
      <trkpt lat="45.96671" lon="4.78404">
        <ele>201.100006104</ele>
        <time>2015-09-20T09:39:38.85Z</time>
      </trkpt>
      <trkpt lat="45.96675" lon="4.78408">
        <ele>201.100006104</ele>
        <time>2015-09-20T09:39:39.875Z</time>
      </trkpt>
      <trkpt lat="45.9668" lon="4.78412">
        <ele>201</ele>
        <time>2015-09-20T09:39:40.85Z</time>
      </trkpt>
      <trkpt lat="45.96684" lon="4.78415">
        <ele>200.300003052</ele>
        <time>2015-09-20T09:39:41.885Z</time>
      </trkpt>
      <trkpt lat="45.96687" lon="4.78418">
        <ele>200.300003052</ele>
        <time>2015-09-20T09:39:42.849Z</time>
      </trkpt>
      <trkpt lat="45.96694" lon="4.78425">
        <ele>200.600006104</ele>
        <time>2015-09-20T09:39:44.914Z</time>
      </trkpt>
      <trkpt lat="45.96697" lon="4.78429">
        <ele>200.5</ele>
        <time>2015-09-20T09:39:45.851Z</time>
      </trkpt>
      <trkpt lat="45.96704" lon="4.78438">
        <ele>200.5</ele>
        <time>2015-09-20T09:39:47.903Z</time>
      </trkpt>
      <trkpt lat="45.96707" lon="4.78444">
        <ele>200.399993896</ele>
        <time>2015-09-20T09:39:48.854Z</time>
      </trkpt>
      <trkpt lat="45.96712" lon="4.78448">
        <ele>200.800003052</ele>
        <time>2015-09-20T09:39:49.876Z</time>
      </trkpt>
      <trkpt lat="45.96716" lon="4.78453">
        <ele>201.199996948</ele>
        <time>2015-09-20T09:39:50.85Z</time>
      </trkpt>
      <trkpt lat="45.96721" lon="4.78457">
        <ele>201.100006104</ele>
        <time>2015-09-20T09:39:51.875Z</time>
      </trkpt>
      <trkpt lat="45.96726" lon="4.78461">
        <ele>201.199996948</ele>
        <time>2015-09-20T09:39:52.849Z</time>
      </trkpt>
      <trkpt lat="45.96731" lon="4.78466">
        <ele>201.399993896</ele>
        <time>2015-09-20T09:39:53.877Z</time>
      </trkpt>
      <trkpt lat="45.96736" lon="4.7847">
        <ele>201.600006104</ele>
        <time>2015-09-20T09:39:54.85Z</time>
      </trkpt>
      <trkpt lat="45.96741" lon="4.78473">
        <ele>201.600006104</ele>
        <time>2015-09-20T09:39:55.876Z</time>
      </trkpt>
      <trkpt lat="45.96746" lon="4.78478">
        <ele>202</ele>
        <time>2015-09-20T09:39:56.85Z</time>
      </trkpt>
      <trkpt lat="45.9675" lon="4.78482">
        <ele>201.800003052</ele>
        <time>2015-09-20T09:39:57.913Z</time>
      </trkpt>
      <trkpt lat="45.96754" lon="4.78487">
        <ele>201.800003052</ele>
        <time>2015-09-20T09:39:58.85Z</time>
      </trkpt>
      <trkpt lat="45.96758" lon="4.78492">
        <ele>201.600006104</ele>
        <time>2015-09-20T09:39:59.879Z</time>
      </trkpt>
      <trkpt lat="45.96762" lon="4.78497">
        <ele>201.5</ele>
        <time>2015-09-20T09:40:00.851Z</time>
      </trkpt>
      <trkpt lat="45.96766" lon="4.78502">
        <ele>201.399993896</ele>
        <time>2015-09-20T09:40:01.876Z</time>
      </trkpt>
      <trkpt lat="45.9677" lon="4.78507">
        <ele>201</ele>
        <time>2015-09-20T09:40:02.85Z</time>
      </trkpt>
      <trkpt lat="45.96773" lon="4.78513">
        <ele>200.899993896</ele>
        <time>2015-09-20T09:40:03.89Z</time>
      </trkpt>
      <trkpt lat="45.96777" lon="4.78518">
        <ele>201.100006104</ele>
        <time>2015-09-20T09:40:04.852Z</time>
      </trkpt>
      <trkpt lat="45.9678" lon="4.78523">
        <ele>201.5</ele>
        <time>2015-09-20T09:40:05.88Z</time>
      </trkpt>
      <trkpt lat="45.96783" lon="4.78528">
        <ele>202</ele>
        <time>2015-09-20T09:40:06.874Z</time>
      </trkpt>
      <trkpt lat="45.96787" lon="4.78533">
        <ele>201.899993896</ele>
        <time>2015-09-20T09:40:07.879Z</time>
      </trkpt>
      <trkpt lat="45.9679" lon="4.78538">
        <ele>202</ele>
        <time>2015-09-20T09:40:08.853Z</time>
      </trkpt>
      <trkpt lat="45.96794" lon="4.78543">
        <ele>201.800003052</ele>
        <time>2015-09-20T09:40:09.883Z</time>
      </trkpt>
      <trkpt lat="45.96797" lon="4.78548">
        <ele>201.699996948</ele>
        <time>2015-09-20T09:40:10.852Z</time>
      </trkpt>
      <trkpt lat="45.96801" lon="4.78553">
        <ele>201.399993896</ele>
        <time>2015-09-20T09:40:11.883Z</time>
      </trkpt>
      <trkpt lat="45.96804" lon="4.78558">
        <ele>201.699996948</ele>
        <time>2015-09-20T09:40:12.85Z</time>
      </trkpt>
      <trkpt lat="45.96807" lon="4.78562">
        <ele>201.199996948</ele>
        <time>2015-09-20T09:40:13.878Z</time>
      </trkpt>
      <trkpt lat="45.9681" lon="4.78567">
        <ele>200.800003052</ele>
        <time>2015-09-20T09:40:14.852Z</time>
      </trkpt>
      <trkpt lat="45.96817" lon="4.78575">
        <ele>201.199996948</ele>
        <time>2015-09-20T09:40:16.875Z</time>
      </trkpt>
      <trkpt lat="45.96819" lon="4.7858">
        <ele>201.199996948</ele>
        <time>2015-09-20T09:40:17.853Z</time>
      </trkpt>
      <trkpt lat="45.96823" lon="4.78591">
        <ele>201.5</ele>
        <time>2015-09-20T09:40:19.899Z</time>
      </trkpt>
      <trkpt lat="45.96826" lon="4.78597">
        <ele>201.399993896</ele>
        <time>2015-09-20T09:40:20.849Z</time>
      </trkpt>
      <trkpt lat="45.96828" lon="4.78603">
        <ele>201.600006104</ele>
        <time>2015-09-20T09:40:21.874Z</time>
      </trkpt>
      <trkpt lat="45.96831" lon="4.7861">
        <ele>201.600006104</ele>
        <time>2015-09-20T09:40:22.849Z</time>
      </trkpt>
      <trkpt lat="45.96833" lon="4.78616">
        <ele>201.899993896</ele>
        <time>2015-09-20T09:40:23.876Z</time>
      </trkpt>
      <trkpt lat="45.96836" lon="4.78624">
        <ele>201.899993896</ele>
        <time>2015-09-20T09:40:24.85Z</time>
      </trkpt>
      <trkpt lat="45.96838" lon="4.7863">
        <ele>201.899993896</ele>
        <time>2015-09-20T09:40:25.876Z</time>
      </trkpt>
      <trkpt lat="45.9684" lon="4.78636">
        <ele>201.899993896</ele>
        <time>2015-09-20T09:40:26.849Z</time>
      </trkpt>
      <trkpt lat="45.96843" lon="4.78642">
        <ele>201.699996948</ele>
        <time>2015-09-20T09:40:27.874Z</time>
      </trkpt>
      <trkpt lat="45.96846" lon="4.78649">
        <ele>202</ele>
        <time>2015-09-20T09:40:28.85Z</time>
      </trkpt>
      <trkpt lat="45.96848" lon="4.78656">
        <ele>202.600006104</ele>
        <time>2015-09-20T09:40:29.876Z</time>
      </trkpt>
      <trkpt lat="45.96851" lon="4.78662">
        <ele>202.600006104</ele>
        <time>2015-09-20T09:40:30.85Z</time>
      </trkpt>
      <trkpt lat="45.96855" lon="4.78671">
        <ele>203.199996948</ele>
        <time>2015-09-20T09:40:32.874Z</time>
      </trkpt>
      <trkpt lat="45.96858" lon="4.78677">
        <ele>203.199996948</ele>
        <time>2015-09-20T09:40:33.848Z</time>
      </trkpt>
      <trkpt lat="45.9686" lon="4.78682">
        <ele>203.399993896</ele>
        <time>2015-09-20T09:40:34.881Z</time>
      </trkpt>
      <trkpt lat="45.96863" lon="4.78687">
        <ele>203.600006104</ele>
        <time>2015-09-20T09:40:35.869Z</time>
      </trkpt>
      <trkpt lat="45.96865" lon="4.78693">
        <ele>203.5</ele>
        <time>2015-09-20T09:40:36.874Z</time>
      </trkpt>
      <trkpt lat="45.96868" lon="4.78698">
        <ele>203.5</ele>
        <time>2015-09-20T09:40:37.851Z</time>
      </trkpt>
      <trkpt lat="45.96873" lon="4.78709">
        <ele>203.699996948</ele>
        <time>2015-09-20T09:40:39.878Z</time>
      </trkpt>
      <trkpt lat="45.96875" lon="4.78715">
        <ele>203.699996948</ele>
        <time>2015-09-20T09:40:40.85Z</time>
      </trkpt>
      <trkpt lat="45.9688" lon="4.78725">
        <ele>203.600006104</ele>
        <time>2015-09-20T09:40:42.874Z</time>
      </trkpt>
      <trkpt lat="45.96882" lon="4.78731">
        <ele>203.699996948</ele>
        <time>2015-09-20T09:40:43.85Z</time>
      </trkpt>
      <trkpt lat="45.96884" lon="4.78736">
        <ele>203.699996948</ele>
        <time>2015-09-20T09:40:44.882Z</time>
      </trkpt>
      <trkpt lat="45.96887" lon="4.78743">
        <ele>203.699996948</ele>
        <time>2015-09-20T09:40:45.849Z</time>
      </trkpt>
      <trkpt lat="45.9689" lon="4.78748">
        <ele>203.800003052</ele>
        <time>2015-09-20T09:40:46.876Z</time>
      </trkpt>
      <trkpt lat="45.96893" lon="4.78754">
        <ele>203.699996948</ele>
        <time>2015-09-20T09:40:47.852Z</time>
      </trkpt>
      <trkpt lat="45.96896" lon="4.7876">
        <ele>203.699996948</ele>
        <time>2015-09-20T09:40:48.874Z</time>
      </trkpt>
      <trkpt lat="45.96899" lon="4.78766">
        <ele>203.899993896</ele>
        <time>2015-09-20T09:40:49.85Z</time>
      </trkpt>
      <trkpt lat="45.96902" lon="4.78771">
        <ele>203.699996948</ele>
        <time>2015-09-20T09:40:50.874Z</time>
      </trkpt>
      <trkpt lat="45.96904" lon="4.78777">
        <ele>203.5</ele>
        <time>2015-09-20T09:40:51.866Z</time>
      </trkpt>
      <trkpt lat="45.96907" lon="4.78783">
        <ele>203.399993896</ele>
        <time>2015-09-20T09:40:52.874Z</time>
      </trkpt>
      <trkpt lat="45.9691" lon="4.78789">
        <ele>203.199996948</ele>
        <time>2015-09-20T09:40:53.852Z</time>
      </trkpt>
      <trkpt lat="45.96913" lon="4.78794">
        <ele>203</ele>
        <time>2015-09-20T09:40:54.925Z</time>
      </trkpt>
      <trkpt lat="45.96916" lon="4.788">
        <ele>202.899993896</ele>
        <time>2015-09-20T09:40:55.851Z</time>
      </trkpt>
      <trkpt lat="45.96919" lon="4.78806">
        <ele>202.899993896</ele>
        <time>2015-09-20T09:40:56.874Z</time>
      </trkpt>
      <trkpt lat="45.96923" lon="4.78811">
        <ele>203</ele>
        <time>2015-09-20T09:40:57.849Z</time>
      </trkpt>
      <trkpt lat="45.96926" lon="4.78817">
        <ele>202.899993896</ele>
        <time>2015-09-20T09:40:58.874Z</time>
      </trkpt>
      <trkpt lat="45.9693" lon="4.78822">
        <ele>203</ele>
        <time>2015-09-20T09:40:59.85Z</time>
      </trkpt>
      <trkpt lat="45.96934" lon="4.78827">
        <ele>202.800003052</ele>
        <time>2015-09-20T09:41:00.895Z</time>
      </trkpt>
      <trkpt lat="45.96938" lon="4.78832">
        <ele>202.800003052</ele>
        <time>2015-09-20T09:41:01.851Z</time>
      </trkpt>
      <trkpt lat="45.96942" lon="4.78838">
        <ele>202.899993896</ele>
        <time>2015-09-20T09:41:02.888Z</time>
      </trkpt>
      <trkpt lat="45.96945" lon="4.78843">
        <ele>202.899993896</ele>
        <time>2015-09-20T09:41:03.848Z</time>
      </trkpt>
      <trkpt lat="45.9695" lon="4.78848">
        <ele>203</ele>
        <time>2015-09-20T09:41:04.874Z</time>
      </trkpt>
      <trkpt lat="45.96954" lon="4.78852">
        <ele>202.699996948</ele>
        <time>2015-09-20T09:41:05.854Z</time>
      </trkpt>
      <trkpt lat="45.96958" lon="4.78857">
        <ele>202.100006104</ele>
        <time>2015-09-20T09:41:06.878Z</time>
      </trkpt>
      <trkpt lat="45.96962" lon="4.78862">
        <ele>202.5</ele>
        <time>2015-09-20T09:41:07.852Z</time>
      </trkpt>
      <trkpt lat="45.96966" lon="4.78866">
        <ele>202.300003052</ele>
        <time>2015-09-20T09:41:08.874Z</time>
      </trkpt>
      <trkpt lat="45.9697" lon="4.7887">
        <ele>202.300003052</ele>
        <time>2015-09-20T09:41:09.849Z</time>
      </trkpt>
      <trkpt lat="45.96973" lon="4.78875">
        <ele>202.300003052</ele>
        <time>2015-09-20T09:41:10.879Z</time>
      </trkpt>
      <trkpt lat="45.96977" lon="4.78879">
        <ele>202.399993896</ele>
        <time>2015-09-20T09:41:11.852Z</time>
      </trkpt>
      <trkpt lat="45.9698" lon="4.78883">
        <ele>202.100006104</ele>
        <time>2015-09-20T09:41:12.874Z</time>
      </trkpt>
      <trkpt lat="45.96984" lon="4.78887">
        <ele>201.899993896</ele>
        <time>2015-09-20T09:41:13.85Z</time>
      </trkpt>
      <trkpt lat="45.96988" lon="4.78892">
        <ele>201.899993896</ele>
        <time>2015-09-20T09:41:14.874Z</time>
      </trkpt>
      <trkpt lat="45.96991" lon="4.78896">
        <ele>202.199996948</ele>
        <time>2015-09-20T09:41:15.849Z</time>
      </trkpt>
      <trkpt lat="45.96995" lon="4.78901">
        <ele>202.5</ele>
        <time>2015-09-20T09:41:16.873Z</time>
      </trkpt>
      <trkpt lat="45.96998" lon="4.78905">
        <ele>203.100006104</ele>
        <time>2015-09-20T09:41:17.851Z</time>
      </trkpt>
      <trkpt lat="45.97001" lon="4.7891">
        <ele>203.399993896</ele>
        <time>2015-09-20T09:41:18.888Z</time>
      </trkpt>
      <trkpt lat="45.97005" lon="4.78914">
        <ele>203.699996948</ele>
        <time>2015-09-20T09:41:19.848Z</time>
      </trkpt>
      <trkpt lat="45.97011" lon="4.78923">
        <ele>204.399993896</ele>
        <time>2015-09-20T09:41:21.874Z</time>
      </trkpt>
      <trkpt lat="45.97014" lon="4.78928">
        <ele>204.600006104</ele>
        <time>2015-09-20T09:41:22.849Z</time>
      </trkpt>
      <trkpt lat="45.97018" lon="4.78932">
        <ele>204.800003052</ele>
        <time>2015-09-20T09:41:23.876Z</time>
      </trkpt>
      <trkpt lat="45.97021" lon="4.78937">
        <ele>205</ele>
        <time>2015-09-20T09:41:24.849Z</time>
      </trkpt>
      <trkpt lat="45.97027" lon="4.78946">
        <ele>205.199996948</ele>
        <time>2015-09-20T09:41:26.874Z</time>
      </trkpt>
      <trkpt lat="45.97029" lon="4.7895">
        <ele>205.100006104</ele>
        <time>2015-09-20T09:41:27.848Z</time>
      </trkpt>
      <trkpt lat="45.97034" lon="4.7896">
        <ele>205.100006104</ele>
        <time>2015-09-20T09:41:29.878Z</time>
      </trkpt>
      <trkpt lat="45.97037" lon="4.78965">
        <ele>205.199996948</ele>
        <time>2015-09-20T09:41:30.849Z</time>
      </trkpt>
      <trkpt lat="45.97042" lon="4.78975">
        <ele>205.399993896</ele>
        <time>2015-09-20T09:41:32.878Z</time>
      </trkpt>
      <trkpt lat="45.97044" lon="4.7898">
        <ele>205.399993896</ele>
        <time>2015-09-20T09:41:33.848Z</time>
      </trkpt>
      <trkpt lat="45.97048" lon="4.78992">
        <ele>205.5</ele>
        <time>2015-09-20T09:41:35.876Z</time>
      </trkpt>
      <trkpt lat="45.9705" lon="4.78998">
        <ele>205.600006104</ele>
        <time>2015-09-20T09:41:36.848Z</time>
      </trkpt>
      <trkpt lat="45.97051" lon="4.79004">
        <ele>205.899993896</ele>
        <time>2015-09-20T09:41:37.875Z</time>
      </trkpt>
      <trkpt lat="45.97054" lon="4.7901">
        <ele>206</ele>
        <time>2015-09-20T09:41:38.849Z</time>
      </trkpt>
      <trkpt lat="45.97056" lon="4.79016">
        <ele>205.600006104</ele>
        <time>2015-09-20T09:41:39.875Z</time>
      </trkpt>
      <trkpt lat="45.97058" lon="4.79023">
        <ele>205.600006104</ele>
        <time>2015-09-20T09:41:40.849Z</time>
      </trkpt>
      <trkpt lat="45.9706" lon="4.7903">
        <ele>205.399993896</ele>
        <time>2015-09-20T09:41:41.877Z</time>
      </trkpt>
      <trkpt lat="45.97062" lon="4.79036">
        <ele>205.399993896</ele>
        <time>2015-09-20T09:41:42.849Z</time>
      </trkpt>
      <trkpt lat="45.97064" lon="4.79043">
        <ele>205.899993896</ele>
        <time>2015-09-20T09:41:43.944Z</time>
      </trkpt>
      <trkpt lat="45.97066" lon="4.79049">
        <ele>206.100006104</ele>
        <time>2015-09-20T09:41:44.849Z</time>
      </trkpt>
      <trkpt lat="45.97067" lon="4.79056">
        <ele>206.100006104</ele>
        <time>2015-09-20T09:41:45.874Z</time>
      </trkpt>
      <trkpt lat="45.97069" lon="4.79064">
        <ele>206.100006104</ele>
        <time>2015-09-20T09:41:46.849Z</time>
      </trkpt>
      <trkpt lat="45.97071" lon="4.79071">
        <ele>205.899993896</ele>
        <time>2015-09-20T09:41:47.877Z</time>
      </trkpt>
      <trkpt lat="45.97073" lon="4.79078">
        <ele>205.800003052</ele>
        <time>2015-09-20T09:41:48.848Z</time>
      </trkpt>
      <trkpt lat="45.97074" lon="4.79085">
        <ele>205.600006104</ele>
        <time>2015-09-20T09:41:49.875Z</time>
      </trkpt>
      <trkpt lat="45.97076" lon="4.79092">
        <ele>205.399993896</ele>
        <time>2015-09-20T09:41:50.849Z</time>
      </trkpt>
      <trkpt lat="45.97077" lon="4.79098">
        <ele>205.199996948</ele>
        <time>2015-09-20T09:41:51.873Z</time>
      </trkpt>
      <trkpt lat="45.97079" lon="4.79104">
        <ele>204.899993896</ele>
        <time>2015-09-20T09:41:52.848Z</time>
      </trkpt>
      <trkpt lat="45.97082" lon="4.79109">
        <ele>204.399993896</ele>
        <time>2015-09-20T09:41:53.877Z</time>
      </trkpt>
      <trkpt lat="45.97084" lon="4.79115">
        <ele>204.100006104</ele>
        <time>2015-09-20T09:41:54.871Z</time>
      </trkpt>
      <trkpt lat="45.97087" lon="4.7912">
        <ele>203.800003052</ele>
        <time>2015-09-20T09:41:55.899Z</time>
      </trkpt>
      <trkpt lat="45.9709" lon="4.79125">
        <ele>203.600006104</ele>
        <time>2015-09-20T09:41:56.849Z</time>
      </trkpt>
      <trkpt lat="45.97093" lon="4.7913">
        <ele>203.800003052</ele>
        <time>2015-09-20T09:41:57.875Z</time>
      </trkpt>
      <trkpt lat="45.97096" lon="4.79135">
        <ele>203.800003052</ele>
        <time>2015-09-20T09:41:58.85Z</time>
      </trkpt>
      <trkpt lat="45.97099" lon="4.7914">
        <ele>204.199996948</ele>
        <time>2015-09-20T09:41:59.881Z</time>
      </trkpt>
      <trkpt lat="45.97102" lon="4.79146">
        <ele>204.5</ele>
        <time>2015-09-20T09:42:00.849Z</time>
      </trkpt>
      <trkpt lat="45.97105" lon="4.79151">
        <ele>204.5</ele>
        <time>2015-09-20T09:42:01.875Z</time>
      </trkpt>
      <trkpt lat="45.97108" lon="4.79156">
        <ele>204.399993896</ele>
        <time>2015-09-20T09:42:02.884Z</time>
      </trkpt>
      <trkpt lat="45.97111" lon="4.79163">
        <ele>204.300003052</ele>
        <time>2015-09-20T09:42:03.875Z</time>
      </trkpt>
      <trkpt lat="45.97114" lon="4.79169">
        <ele>204.399993896</ele>
        <time>2015-09-20T09:42:04.849Z</time>
      </trkpt>
      <trkpt lat="45.97117" lon="4.79175">
        <ele>204.399993896</ele>
        <time>2015-09-20T09:42:05.877Z</time>
      </trkpt>
      <trkpt lat="45.97119" lon="4.79182">
        <ele>204.300003052</ele>
        <time>2015-09-20T09:42:06.849Z</time>
      </trkpt>
      <trkpt lat="45.97121" lon="4.79187">
        <ele>204.199996948</ele>
        <time>2015-09-20T09:42:07.878Z</time>
      </trkpt>
      <trkpt lat="45.97124" lon="4.79193">
        <ele>204.199996948</ele>
        <time>2015-09-20T09:42:08.848Z</time>
      </trkpt>
      <trkpt lat="45.97127" lon="4.792">
        <ele>204.600006104</ele>
        <time>2015-09-20T09:42:09.884Z</time>
      </trkpt>
      <trkpt lat="45.9713" lon="4.79206">
        <ele>204.800003052</ele>
        <time>2015-09-20T09:42:10.849Z</time>
      </trkpt>
      <trkpt lat="45.97132" lon="4.79212">
        <ele>205.100006104</ele>
        <time>2015-09-20T09:42:11.892Z</time>
      </trkpt>
      <trkpt lat="45.97135" lon="4.79217">
        <ele>205.300003052</ele>
        <time>2015-09-20T09:42:12.874Z</time>
      </trkpt>
      <trkpt lat="45.97138" lon="4.79227">
        <ele>205.600006104</ele>
        <time>2015-09-20T09:42:14.873Z</time>
      </trkpt>
      <trkpt lat="45.97141" lon="4.79232">
        <ele>205.600006104</ele>
        <time>2015-09-20T09:42:15.849Z</time>
      </trkpt>
      <trkpt lat="45.97144" lon="4.7924">
        <ele>205.399993896</ele>
        <time>2015-09-20T09:42:17.877Z</time>
      </trkpt>
      <trkpt lat="45.97145" lon="4.79244">
        <ele>205.199996948</ele>
        <time>2015-09-20T09:42:18.848Z</time>
      </trkpt>
      <trkpt lat="45.97149" lon="4.79252">
        <ele>205.199996948</ele>
        <time>2015-09-20T09:42:20.908Z</time>
      </trkpt>
      <trkpt lat="45.9715" lon="4.79255">
        <ele>205.399993896</ele>
        <time>2015-09-20T09:42:21.849Z</time>
      </trkpt>
      <trkpt lat="45.97155" lon="4.79263">
        <ele>205</ele>
        <time>2015-09-20T09:42:24.878Z</time>
      </trkpt>
      <trkpt lat="45.97156" lon="4.79266">
        <ele>204.800003052</ele>
        <time>2015-09-20T09:42:25.851Z</time>
      </trkpt>
      <trkpt lat="45.97157" lon="4.79271">
        <ele>204.899993896</ele>
        <time>2015-09-20T09:42:27.873Z</time>
      </trkpt>
      <trkpt lat="45.97157" lon="4.79273">
        <ele>204.899993896</ele>
        <time>2015-09-20T09:42:28.849Z</time>
      </trkpt>
      <trkpt lat="45.97158" lon="4.79276">
        <ele>204.899993896</ele>
        <time>2015-09-20T09:42:37.875Z</time>
      </trkpt>
      <trkpt lat="45.97158" lon="4.79277">
        <ele>204.899993896</ele>
        <time>2015-09-20T09:42:38.849Z</time>
      </trkpt>
      <trkpt lat="45.97163" lon="4.79287">
        <ele>204.699996948</ele>
        <time>2015-09-20T09:42:42.904Z</time>
      </trkpt>
      <trkpt lat="45.97164" lon="4.79289">
        <ele>204.800003052</ele>
        <time>2015-09-20T09:42:43.85Z</time>
      </trkpt>
      <trkpt lat="45.97168" lon="4.79299">
        <ele>204.800003052</ele>
        <time>2015-09-20T09:42:46.874Z</time>
      </trkpt>
      <trkpt lat="45.97169" lon="4.79303">
        <ele>204.899993896</ele>
        <time>2015-09-20T09:42:47.852Z</time>
      </trkpt>
      <trkpt lat="45.97174" lon="4.79313">
        <ele>205</ele>
        <time>2015-09-20T09:42:50.878Z</time>
      </trkpt>
      <trkpt lat="45.97175" lon="4.79317">
        <ele>204.899993896</ele>
        <time>2015-09-20T09:42:51.848Z</time>
      </trkpt>
      <trkpt lat="45.97179" lon="4.79325">
        <ele>204.399993896</ele>
        <time>2015-09-20T09:42:54.874Z</time>
      </trkpt>
      <trkpt lat="45.97181" lon="4.79327">
        <ele>204.199996948</ele>
        <time>2015-09-20T09:42:55.85Z</time>
      </trkpt>
      <trkpt lat="45.97185" lon="4.79335">
        <ele>203.699996948</ele>
        <time>2015-09-20T09:42:59.893Z</time>
      </trkpt>
      <trkpt lat="45.97186" lon="4.79338">
        <ele>203.699996948</ele>
        <time>2015-09-20T09:43:00.849Z</time>
      </trkpt>
      <trkpt lat="45.97192" lon="4.79348">
        <ele>203.5</ele>
        <time>2015-09-20T09:43:04.874Z</time>
      </trkpt>
      <trkpt lat="45.97192" lon="4.79351">
        <ele>203.5</ele>
        <time>2015-09-20T09:43:05.851Z</time>
      </trkpt>
      <trkpt lat="45.97196" lon="4.79361">
        <ele>203.100006104</ele>
        <time>2015-09-20T09:43:09.874Z</time>
      </trkpt>
      <trkpt lat="45.97197" lon="4.79364">
        <ele>202.899993896</ele>
        <time>2015-09-20T09:43:10.848Z</time>
      </trkpt>
      <trkpt lat="45.972" lon="4.79376">
        <ele>202.899993896</ele>
        <time>2015-09-20T09:43:14.873Z</time>
      </trkpt>
      <trkpt lat="45.97201" lon="4.79378">
        <ele>203</ele>
        <time>2015-09-20T09:43:15.852Z</time>
      </trkpt>
      <trkpt lat="45.97204" lon="4.79389">
        <ele>204.600006104</ele>
        <time>2015-09-20T09:43:20.873Z</time>
      </trkpt>
      <trkpt lat="45.97205" lon="4.79392">
        <ele>204.600006104</ele>
        <time>2015-09-20T09:43:21.84Z</time>
      </trkpt>
      <trkpt lat="45.97209" lon="4.794">
        <ele>204.100006104</ele>
        <time>2015-09-20T09:43:24.888Z</time>
      </trkpt>
      <trkpt lat="45.97211" lon="4.79403">
        <ele>203.899993896</ele>
        <time>2015-09-20T09:43:25.849Z</time>
      </trkpt>
      <trkpt lat="45.97214" lon="4.79412">
        <ele>203.300003052</ele>
        <time>2015-09-20T09:43:28.881Z</time>
      </trkpt>
      <trkpt lat="45.97216" lon="4.79415">
        <ele>203.300003052</ele>
        <time>2015-09-20T09:43:29.851Z</time>
      </trkpt>
      <trkpt lat="45.9722" lon="4.79424">
        <ele>203.199996948</ele>
        <time>2015-09-20T09:43:32.874Z</time>
      </trkpt>
      <trkpt lat="45.97222" lon="4.79428">
        <ele>203.5</ele>
        <time>2015-09-20T09:43:33.849Z</time>
      </trkpt>
      <trkpt lat="45.97226" lon="4.79438">
        <ele>203</ele>
        <time>2015-09-20T09:43:36.872Z</time>
      </trkpt>
      <trkpt lat="45.97228" lon="4.79441">
        <ele>202.699996948</ele>
        <time>2015-09-20T09:43:37.85Z</time>
      </trkpt>
      <trkpt lat="45.97231" lon="4.7945">
        <ele>202.399993896</ele>
        <time>2015-09-20T09:43:40.876Z</time>
      </trkpt>
      <trkpt lat="45.97232" lon="4.79452">
        <ele>202.300003052</ele>
        <time>2015-09-20T09:43:41.878Z</time>
      </trkpt>
      <trkpt lat="45.97235" lon="4.79463">
        <ele>202.100006104</ele>
        <time>2015-09-20T09:43:46.873Z</time>
      </trkpt>
      <trkpt lat="45.97236" lon="4.79466">
        <ele>202.199996948</ele>
        <time>2015-09-20T09:43:47.85Z</time>
      </trkpt>
      <trkpt lat="45.9724" lon="4.79475">
        <ele>202.699996948</ele>
        <time>2015-09-20T09:43:50.873Z</time>
      </trkpt>
      <trkpt lat="45.9724" lon="4.79478">
        <ele>203.100006104</ele>
        <time>2015-09-20T09:43:51.848Z</time>
      </trkpt>
      <trkpt lat="45.97242" lon="4.79489">
        <ele>204.899993896</ele>
        <time>2015-09-20T09:43:54.872Z</time>
      </trkpt>
      <trkpt lat="45.97242" lon="4.79492">
        <ele>205.199996948</ele>
        <time>2015-09-20T09:43:55.85Z</time>
      </trkpt>
      <trkpt lat="45.97244" lon="4.79502">
        <ele>205.600006104</ele>
        <time>2015-09-20T09:43:58.874Z</time>
      </trkpt>
      <trkpt lat="45.97245" lon="4.79505">
        <ele>205.600006104</ele>
        <time>2015-09-20T09:43:59.852Z</time>
      </trkpt>
      <trkpt lat="45.97247" lon="4.79517">
        <ele>206.399993896</ele>
        <time>2015-09-20T09:44:04.874Z</time>
      </trkpt>
      <trkpt lat="45.97248" lon="4.79519">
        <ele>206.5</ele>
        <time>2015-09-20T09:44:05.851Z</time>
      </trkpt>
      <trkpt lat="45.97251" lon="4.7953">
        <ele>207.5</ele>
        <time>2015-09-20T09:44:10.873Z</time>
      </trkpt>
      <trkpt lat="45.97251" lon="4.79532">
        <ele>207.699996948</ele>
        <time>2015-09-20T09:44:11.851Z</time>
      </trkpt>
      <trkpt lat="45.97251" lon="4.79532">
        <ele>207.699996948</ele>
        <time>2015-09-20T09:44:11.893Z</time>
      </trkpt>
      <trkpt lat="45.9725" lon="4.79545">
        <ele>209.199996948</ele>
        <time>2015-09-20T09:44:18.874Z</time>
      </trkpt>
      <trkpt lat="45.9725" lon="4.79546">
        <ele>209.100006104</ele>
        <time>2015-09-20T09:44:19.85Z</time>
      </trkpt>
      <trkpt lat="45.9725" lon="4.79546">
        <ele>209.100006104</ele>
        <time>2015-09-20T09:44:19.88Z</time>
      </trkpt>
      <trkpt lat="45.97249" lon="4.79547">
        <ele>209.100006104</ele>
        <time>2015-09-20T09:44:20.874Z</time>
      </trkpt>
      <trkpt lat="45.9725" lon="4.79549">
        <ele>209.100006104</ele>
        <time>2015-09-20T09:44:21.866Z</time>
      </trkpt>
      <trkpt lat="45.97252" lon="4.79561">
        <ele>209.899993896</ele>
        <time>2015-09-20T09:44:30.874Z</time>
      </trkpt>
      <trkpt lat="45.97252" lon="4.79562">
        <ele>210.100006104</ele>
        <time>2015-09-20T09:44:31.85Z</time>
      </trkpt>
      <trkpt lat="45.97253" lon="4.79572">
        <ele>210.600006104</ele>
        <time>2015-09-20T09:44:36.919Z</time>
      </trkpt>
      <trkpt lat="45.97253" lon="4.79575">
        <ele>210.600006104</ele>
        <time>2015-09-20T09:44:37.85Z</time>
      </trkpt>
      <trkpt lat="45.97251" lon="4.79588">
        <ele>210.800003052</ele>
        <time>2015-09-20T09:44:41.877Z</time>
      </trkpt>
      <trkpt lat="45.97251" lon="4.7959">
        <ele>211</ele>
        <time>2015-09-20T09:44:42.849Z</time>
      </trkpt>
      <trkpt lat="45.97251" lon="4.79592">
        <ele>211.199996948</ele>
        <time>2015-09-20T09:44:43.874Z</time>
      </trkpt>
      <trkpt lat="45.97251" lon="4.79594">
        <ele>211.399993896</ele>
        <time>2015-09-20T09:44:44.848Z</time>
      </trkpt>
      <trkpt lat="45.97251" lon="4.79604">
        <ele>212.399993896</ele>
        <time>2015-09-20T09:44:49.876Z</time>
      </trkpt>
      <trkpt lat="45.97251" lon="4.79607">
        <ele>212.600006104</ele>
        <time>2015-09-20T09:44:50.883Z</time>
      </trkpt>
      <trkpt lat="45.97251" lon="4.79607">
        <ele>212.600006104</ele>
        <time>2015-09-20T09:44:50.941Z</time>
      </trkpt>
      <trkpt lat="45.9725" lon="4.79609">
        <ele>212.699996948</ele>
        <time>2015-09-20T09:44:51.874Z</time>
      </trkpt>
      <trkpt lat="45.9725" lon="4.79612">
        <ele>212.800003052</ele>
        <time>2015-09-20T09:44:52.848Z</time>
      </trkpt>
      <trkpt lat="45.97253" lon="4.79623">
        <ele>213.199996948</ele>
        <time>2015-09-20T09:44:57.873Z</time>
      </trkpt>
      <trkpt lat="45.97253" lon="4.79625">
        <ele>213.300003052</ele>
        <time>2015-09-20T09:44:58.853Z</time>
      </trkpt>
      <trkpt lat="45.97255" lon="4.79636">
        <ele>213.699996948</ele>
        <time>2015-09-20T09:45:04.879Z</time>
      </trkpt>
      <trkpt lat="45.97255" lon="4.79638">
        <ele>213.800003052</ele>
        <time>2015-09-20T09:45:05.852Z</time>
      </trkpt>
      <trkpt lat="45.97251" lon="4.79648">
        <ele>213.399993896</ele>
        <time>2015-09-20T09:45:09.872Z</time>
      </trkpt>
      <trkpt lat="45.9725" lon="4.7965">
        <ele>213.300003052</ele>
        <time>2015-09-20T09:45:10.847Z</time>
      </trkpt>
      <trkpt lat="45.9725" lon="4.79661">
        <ele>213.199996948</ele>
        <time>2015-09-20T09:45:14.874Z</time>
      </trkpt>
      <trkpt lat="45.9725" lon="4.79663">
        <ele>213.100006104</ele>
        <time>2015-09-20T09:45:15.849Z</time>
      </trkpt>
      <trkpt lat="45.97246" lon="4.79674">
        <ele>213.100006104</ele>
        <time>2015-09-20T09:45:19.912Z</time>
      </trkpt>
      <trkpt lat="45.97246" lon="4.79677">
        <ele>213.100006104</ele>
        <time>2015-09-20T09:45:20.848Z</time>
      </trkpt>
      <trkpt lat="45.97244" lon="4.79688">
        <ele>213.5</ele>
        <time>2015-09-20T09:45:24.872Z</time>
      </trkpt>
      <trkpt lat="45.97244" lon="4.7969">
        <ele>213.5</ele>
        <time>2015-09-20T09:45:25.852Z</time>
      </trkpt>
      <trkpt lat="45.97242" lon="4.79703">
        <ele>213.600006104</ele>
        <time>2015-09-20T09:45:31.883Z</time>
      </trkpt>
      <trkpt lat="45.97242" lon="4.79705">
        <ele>213.699996948</ele>
        <time>2015-09-20T09:45:32.848Z</time>
      </trkpt>
      <trkpt lat="45.9724" lon="4.79717">
        <ele>215</ele>
        <time>2015-09-20T09:45:38.883Z</time>
      </trkpt>
      <trkpt lat="45.9724" lon="4.79719">
        <ele>215.100006104</ele>
        <time>2015-09-20T09:45:39.849Z</time>
      </trkpt>
      <trkpt lat="45.9724" lon="4.7973">
        <ele>215.100006104</ele>
        <time>2015-09-20T09:45:44.904Z</time>
      </trkpt>
      <trkpt lat="45.9724" lon="4.79733">
        <ele>215.199996948</ele>
        <time>2015-09-20T09:45:45.865Z</time>
      </trkpt>
      <trkpt lat="45.97237" lon="4.79743">
        <ele>215</ele>
        <time>2015-09-20T09:45:49.874Z</time>
      </trkpt>
      <trkpt lat="45.97237" lon="4.79746">
        <ele>214.899993896</ele>
        <time>2015-09-20T09:45:50.848Z</time>
      </trkpt>
      <trkpt lat="45.97236" lon="4.79758">
        <ele>215.100006104</ele>
        <time>2015-09-20T09:45:54.872Z</time>
      </trkpt>
      <trkpt lat="45.97236" lon="4.79761">
        <ele>215.199996948</ele>
        <time>2015-09-20T09:45:55.85Z</time>
      </trkpt>
      <trkpt lat="45.97235" lon="4.79772">
        <ele>214.899993896</ele>
        <time>2015-09-20T09:45:58.872Z</time>
      </trkpt>
      <trkpt lat="45.97235" lon="4.79776">
        <ele>214.699996948</ele>
        <time>2015-09-20T09:45:59.851Z</time>
      </trkpt>
      <trkpt lat="45.97235" lon="4.79786">
        <ele>214.199996948</ele>
        <time>2015-09-20T09:46:02.901Z</time>
      </trkpt>
      <trkpt lat="45.97235" lon="4.79789">
        <ele>214.199996948</ele>
        <time>2015-09-20T09:46:03.879Z</time>
      </trkpt>
      <trkpt lat="45.97235" lon="4.798">
        <ele>213.300003052</ele>
        <time>2015-09-20T09:46:07.876Z</time>
      </trkpt>
      <trkpt lat="45.97235" lon="4.79802">
        <ele>213.300003052</ele>
        <time>2015-09-20T09:46:08.848Z</time>
      </trkpt>
      <trkpt lat="45.97235" lon="4.79815">
        <ele>213.199996948</ele>
        <time>2015-09-20T09:46:15.873Z</time>
      </trkpt>
      <trkpt lat="45.97234" lon="4.79817">
        <ele>212.899993896</ele>
        <time>2015-09-20T09:46:16.881Z</time>
      </trkpt>
      <trkpt lat="45.97235" lon="4.79822">
        <ele>212.699996948</ele>
        <time>2015-09-20T09:46:19.874Z</time>
      </trkpt>
      <trkpt lat="45.97236" lon="4.79823">
        <ele>212.600006104</ele>
        <time>2015-09-20T09:46:20.849Z</time>
      </trkpt>
      <trkpt lat="45.97236" lon="4.79833">
        <ele>211.899993896</ele>
        <time>2015-09-20T09:46:28.877Z</time>
      </trkpt>
      <trkpt lat="45.97236" lon="4.79836">
        <ele>211.699996948</ele>
        <time>2015-09-20T09:46:29.851Z</time>
      </trkpt>
      <trkpt lat="45.97236" lon="4.79836">
        <ele>211.699996948</ele>
        <time>2015-09-20T09:46:29.88Z</time>
      </trkpt>
      <trkpt lat="45.97236" lon="4.79839">
        <ele>211.600006104</ele>
        <time>2015-09-20T09:46:30.848Z</time>
      </trkpt>
      <trkpt lat="45.97237" lon="4.79851">
        <ele>211.199996948</ele>
        <time>2015-09-20T09:46:35.877Z</time>
      </trkpt>
      <trkpt lat="45.97238" lon="4.79853">
        <ele>211.199996948</ele>
        <time>2015-09-20T09:46:36.849Z</time>
      </trkpt>
      <trkpt lat="45.97239" lon="4.79864">
        <ele>210.5</ele>
        <time>2015-09-20T09:46:42.877Z</time>
      </trkpt>
      <trkpt lat="45.9724" lon="4.79867">
        <ele>210.5</ele>
        <time>2015-09-20T09:46:43.85Z</time>
      </trkpt>
      <trkpt lat="45.97243" lon="4.79877">
        <ele>210.800003052</ele>
        <time>2015-09-20T09:46:47.876Z</time>
      </trkpt>
      <trkpt lat="45.97243" lon="4.79879">
        <ele>210.899993896</ele>
        <time>2015-09-20T09:46:48.864Z</time>
      </trkpt>
      <trkpt lat="45.97247" lon="4.79891">
        <ele>210.899993896</ele>
        <time>2015-09-20T09:46:51.876Z</time>
      </trkpt>
      <trkpt lat="45.97247" lon="4.79893">
        <ele>211</ele>
        <time>2015-09-20T09:46:52.849Z</time>
      </trkpt>
      <trkpt lat="45.9725" lon="4.79904">
        <ele>211.699996948</ele>
        <time>2015-09-20T09:46:59.877Z</time>
      </trkpt>
      <trkpt lat="45.9725" lon="4.79905">
        <ele>211.699996948</ele>
        <time>2015-09-20T09:47:00.848Z</time>
      </trkpt>
      <trkpt lat="45.97256" lon="4.79913">
        <ele>210.899993896</ele>
        <time>2015-09-20T09:47:10.872Z</time>
      </trkpt>
      <trkpt lat="45.97258" lon="4.79914">
        <ele>210.800003052</ele>
        <time>2015-09-20T09:47:11.853Z</time>
      </trkpt>
      <trkpt lat="45.97266" lon="4.79914">
        <ele>210.199996948</ele>
        <time>2015-09-20T09:47:17.882Z</time>
      </trkpt>
      <trkpt lat="45.97269" lon="4.79913">
        <ele>210.199996948</ele>
        <time>2015-09-20T09:47:18.849Z</time>
      </trkpt>
      <trkpt lat="45.97275" lon="4.79912">
        <ele>210.100006104</ele>
        <time>2015-09-20T09:47:20.881Z</time>
      </trkpt>
      <trkpt lat="45.97279" lon="4.79913">
        <ele>210</ele>
        <time>2015-09-20T09:47:21.849Z</time>
      </trkpt>
      <trkpt lat="45.97286" lon="4.79913">
        <ele>210</ele>
        <time>2015-09-20T09:47:23.91Z</time>
      </trkpt>
      <trkpt lat="45.9729" lon="4.79912">
        <ele>210</ele>
        <time>2015-09-20T09:47:24.849Z</time>
      </trkpt>
      <trkpt lat="45.97298" lon="4.79911">
        <ele>209.699996948</ele>
        <time>2015-09-20T09:47:26.874Z</time>
      </trkpt>
      <trkpt lat="45.97302" lon="4.7991">
        <ele>210</ele>
        <time>2015-09-20T09:47:27.848Z</time>
      </trkpt>
      <trkpt lat="45.97309" lon="4.79909">
        <ele>210</ele>
        <time>2015-09-20T09:47:29.875Z</time>
      </trkpt>
      <trkpt lat="45.97312" lon="4.79908">
        <ele>209.800003052</ele>
        <time>2015-09-20T09:47:30.862Z</time>
      </trkpt>
      <trkpt lat="45.97321" lon="4.79908">
        <ele>210</ele>
        <time>2015-09-20T09:47:34.909Z</time>
      </trkpt>
      <trkpt lat="45.97323" lon="4.79908">
        <ele>210</ele>
        <time>2015-09-20T09:47:35.852Z</time>
      </trkpt>
      <trkpt lat="45.97331" lon="4.79906">
        <ele>209.600006104</ele>
        <time>2015-09-20T09:47:38.873Z</time>
      </trkpt>
      <trkpt lat="45.97334" lon="4.79906">
        <ele>209.800003052</ele>
        <time>2015-09-20T09:47:39.848Z</time>
      </trkpt>
      <trkpt lat="45.97342" lon="4.79904">
        <ele>209.399993896</ele>
        <time>2015-09-20T09:47:41.879Z</time>
      </trkpt>
      <trkpt lat="45.97345" lon="4.79904">
        <ele>209.199996948</ele>
        <time>2015-09-20T09:47:42.849Z</time>
      </trkpt>
      <trkpt lat="45.97353" lon="4.79902">
        <ele>209.399993896</ele>
        <time>2015-09-20T09:47:45.055Z</time>
      </trkpt>
      <trkpt lat="45.97357" lon="4.79902">
        <ele>210.100006104</ele>
        <time>2015-09-20T09:47:45.852Z</time>
      </trkpt>
      <trkpt lat="45.97364" lon="4.79902">
        <ele>211.399993896</ele>
        <time>2015-09-20T09:47:47.878Z</time>
      </trkpt>
      <trkpt lat="45.97368" lon="4.79901">
        <ele>211.899993896</ele>
        <time>2015-09-20T09:47:48.886Z</time>
      </trkpt>
      <trkpt lat="45.97374" lon="4.79899">
        <ele>211.600006104</ele>
        <time>2015-09-20T09:47:50.912Z</time>
      </trkpt>
      <trkpt lat="45.97379" lon="4.79899">
        <ele>211.899993896</ele>
        <time>2015-09-20T09:47:51.863Z</time>
      </trkpt>
      <trkpt lat="45.97386" lon="4.79898">
        <ele>212.300003052</ele>
        <time>2015-09-20T09:47:53.876Z</time>
      </trkpt>
      <trkpt lat="45.9739" lon="4.79897">
        <ele>212.800003052</ele>
        <time>2015-09-20T09:47:54.847Z</time>
      </trkpt>
      <trkpt lat="45.97397" lon="4.79894">
        <ele>215</ele>
        <time>2015-09-20T09:47:56.883Z</time>
      </trkpt>
      <trkpt lat="45.97401" lon="4.79894">
        <ele>215.899993896</ele>
        <time>2015-09-20T09:47:57.849Z</time>
      </trkpt>
      <trkpt lat="45.97408" lon="4.79893">
        <ele>216.100006104</ele>
        <time>2015-09-20T09:47:59.875Z</time>
      </trkpt>
      <trkpt lat="45.97413" lon="4.79893">
        <ele>214.600006104</ele>
        <time>2015-09-20T09:48:00.848Z</time>
      </trkpt>
      <trkpt lat="45.97418" lon="4.79893">
        <ele>214.5</ele>
        <time>2015-09-20T09:48:01.878Z</time>
      </trkpt>
      <trkpt lat="45.97422" lon="4.79892">
        <ele>214.399993896</ele>
        <time>2015-09-20T09:48:02.848Z</time>
      </trkpt>
      <trkpt lat="45.9743" lon="4.79891">
        <ele>213.699996948</ele>
        <time>2015-09-20T09:48:04.873Z</time>
      </trkpt>
      <trkpt lat="45.97435" lon="4.79891">
        <ele>213.199996948</ele>
        <time>2015-09-20T09:48:05.85Z</time>
      </trkpt>
      <trkpt lat="45.97443" lon="4.79891">
        <ele>213.600006104</ele>
        <time>2015-09-20T09:48:07.897Z</time>
      </trkpt>
      <trkpt lat="45.97448" lon="4.7989">
        <ele>213.699996948</ele>
        <time>2015-09-20T09:48:08.849Z</time>
      </trkpt>
      <trkpt lat="45.97453" lon="4.7989">
        <ele>214</ele>
        <time>2015-09-20T09:48:09.894Z</time>
      </trkpt>
      <trkpt lat="45.97457" lon="4.79889">
        <ele>214</ele>
        <time>2015-09-20T09:48:10.883Z</time>
      </trkpt>
      <trkpt lat="45.97466" lon="4.79887">
        <ele>214.199996948</ele>
        <time>2015-09-20T09:48:12.89Z</time>
      </trkpt>
      <trkpt lat="45.9747" lon="4.79887">
        <ele>214.5</ele>
        <time>2015-09-20T09:48:13.85Z</time>
      </trkpt>
      <trkpt lat="45.97479" lon="4.79887">
        <ele>214</ele>
        <time>2015-09-20T09:48:15.885Z</time>
      </trkpt>
      <trkpt lat="45.97484" lon="4.79886">
        <ele>214.699996948</ele>
        <time>2015-09-20T09:48:16.849Z</time>
      </trkpt>
      <trkpt lat="45.97491" lon="4.79886">
        <ele>215.5</ele>
        <time>2015-09-20T09:48:18.906Z</time>
      </trkpt>
      <trkpt lat="45.97495" lon="4.79885">
        <ele>215.600006104</ele>
        <time>2015-09-20T09:48:19.849Z</time>
      </trkpt>
      <trkpt lat="45.97501" lon="4.79884">
        <ele>216.199996948</ele>
        <time>2015-09-20T09:48:21.875Z</time>
      </trkpt>
      <trkpt lat="45.97505" lon="4.79885">
        <ele>217.100006104</ele>
        <time>2015-09-20T09:48:22.847Z</time>
      </trkpt>
      <trkpt lat="45.97512" lon="4.79885">
        <ele>217.600006104</ele>
        <time>2015-09-20T09:48:25.152Z</time>
      </trkpt>
      <trkpt lat="45.97517" lon="4.79886">
        <ele>217.600006104</ele>
        <time>2015-09-20T09:48:25.85Z</time>
      </trkpt>
      <trkpt lat="45.97524" lon="4.79885">
        <ele>218.800003052</ele>
        <time>2015-09-20T09:48:27.872Z</time>
      </trkpt>
      <trkpt lat="45.97527" lon="4.79884">
        <ele>218.899993896</ele>
        <time>2015-09-20T09:48:28.848Z</time>
      </trkpt>
      <trkpt lat="45.97534" lon="4.79883">
        <ele>219</ele>
        <time>2015-09-20T09:48:30.872Z</time>
      </trkpt>
      <trkpt lat="45.97537" lon="4.79882">
        <ele>219</ele>
        <time>2015-09-20T09:48:31.85Z</time>
      </trkpt>
      <trkpt lat="45.97544" lon="4.7988">
        <ele>219.199996948</ele>
        <time>2015-09-20T09:48:33.872Z</time>
      </trkpt>
      <trkpt lat="45.97548" lon="4.7988">
        <ele>219.199996948</ele>
        <time>2015-09-20T09:48:34.848Z</time>
      </trkpt>
      <trkpt lat="45.97555" lon="4.79879">
        <ele>219.300003052</ele>
        <time>2015-09-20T09:48:36.872Z</time>
      </trkpt>
      <trkpt lat="45.97558" lon="4.79878">
        <ele>219.300003052</ele>
        <time>2015-09-20T09:48:37.849Z</time>
      </trkpt>
      <trkpt lat="45.97565" lon="4.79876">
        <ele>219.899993896</ele>
        <time>2015-09-20T09:48:39.88Z</time>
      </trkpt>
      <trkpt lat="45.97569" lon="4.79875">
        <ele>220.100006104</ele>
        <time>2015-09-20T09:48:40.847Z</time>
      </trkpt>
      <trkpt lat="45.97576" lon="4.79873">
        <ele>220.699996948</ele>
        <time>2015-09-20T09:48:42.873Z</time>
      </trkpt>
      <trkpt lat="45.9758" lon="4.79871">
        <ele>221</ele>
        <time>2015-09-20T09:48:43.85Z</time>
      </trkpt>
      <trkpt lat="45.97588" lon="4.79869">
        <ele>221.899993896</ele>
        <time>2015-09-20T09:48:45.877Z</time>
      </trkpt>
      <trkpt lat="45.97592" lon="4.79868">
        <ele>221.699996948</ele>
        <time>2015-09-20T09:48:46.913Z</time>
      </trkpt>
      <trkpt lat="45.97601" lon="4.79865">
        <ele>221.800003052</ele>
        <time>2015-09-20T09:48:48.874Z</time>
      </trkpt>
      <trkpt lat="45.97605" lon="4.79864">
        <ele>221.5</ele>
        <time>2015-09-20T09:48:49.851Z</time>
      </trkpt>
      <trkpt lat="45.97613" lon="4.79861">
        <ele>221.199996948</ele>
        <time>2015-09-20T09:48:51.875Z</time>
      </trkpt>
      <trkpt lat="45.97617" lon="4.7986">
        <ele>221</ele>
        <time>2015-09-20T09:48:52.847Z</time>
      </trkpt>
      <trkpt lat="45.97625" lon="4.79857">
        <ele>220.800003052</ele>
        <time>2015-09-20T09:48:54.976Z</time>
      </trkpt>
      <trkpt lat="45.97629" lon="4.79855">
        <ele>220.899993896</ele>
        <time>2015-09-20T09:48:55.849Z</time>
      </trkpt>
      <trkpt lat="45.97638" lon="4.79851">
        <ele>221.199996948</ele>
        <time>2015-09-20T09:48:57.872Z</time>
      </trkpt>
      <trkpt lat="45.97642" lon="4.79849">
        <ele>221.600006104</ele>
        <time>2015-09-20T09:48:58.848Z</time>
      </trkpt>
      <trkpt lat="45.97647" lon="4.79848">
        <ele>221.699996948</ele>
        <time>2015-09-20T09:48:59.884Z</time>
      </trkpt>
      <trkpt lat="45.97651" lon="4.79847">
        <ele>221.699996948</ele>
        <time>2015-09-20T09:49:00.893Z</time>
      </trkpt>
      <trkpt lat="45.97655" lon="4.79845">
        <ele>221.899993896</ele>
        <time>2015-09-20T09:49:01.877Z</time>
      </trkpt>
      <trkpt lat="45.9766" lon="4.79843">
        <ele>222</ele>
        <time>2015-09-20T09:49:02.847Z</time>
      </trkpt>
      <trkpt lat="45.97664" lon="4.79842">
        <ele>221.899993896</ele>
        <time>2015-09-20T09:49:03.871Z</time>
      </trkpt>
      <trkpt lat="45.97669" lon="4.79841">
        <ele>222</ele>
        <time>2015-09-20T09:49:04.849Z</time>
      </trkpt>
      <trkpt lat="45.97673" lon="4.7984">
        <ele>222</ele>
        <time>2015-09-20T09:49:05.88Z</time>
      </trkpt>
      <trkpt lat="45.97678" lon="4.79839">
        <ele>222</ele>
        <time>2015-09-20T09:49:06.846Z</time>
      </trkpt>
      <trkpt lat="45.97682" lon="4.79838">
        <ele>222</ele>
        <time>2015-09-20T09:49:07.876Z</time>
      </trkpt>
      <trkpt lat="45.97687" lon="4.79837">
        <ele>222</ele>
        <time>2015-09-20T09:49:08.847Z</time>
      </trkpt>
      <trkpt lat="45.97691" lon="4.79836">
        <ele>222</ele>
        <time>2015-09-20T09:49:09.873Z</time>
      </trkpt>
      <trkpt lat="45.97696" lon="4.79835">
        <ele>222</ele>
        <time>2015-09-20T09:49:10.848Z</time>
      </trkpt>
      <trkpt lat="45.977" lon="4.79834">
        <ele>222.100006104</ele>
        <time>2015-09-20T09:49:11.88Z</time>
      </trkpt>
      <trkpt lat="45.97705" lon="4.79833">
        <ele>222.100006104</ele>
        <time>2015-09-20T09:49:12.847Z</time>
      </trkpt>
      <trkpt lat="45.9771" lon="4.79832">
        <ele>222.199996948</ele>
        <time>2015-09-20T09:49:13.875Z</time>
      </trkpt>
      <trkpt lat="45.97714" lon="4.79831">
        <ele>222</ele>
        <time>2015-09-20T09:49:14.847Z</time>
      </trkpt>
      <trkpt lat="45.97719" lon="4.7983">
        <ele>222</ele>
        <time>2015-09-20T09:49:15.934Z</time>
      </trkpt>
      <trkpt lat="45.97723" lon="4.79829">
        <ele>222</ele>
        <time>2015-09-20T09:49:16.848Z</time>
      </trkpt>
      <trkpt lat="45.97728" lon="4.79829">
        <ele>222</ele>
        <time>2015-09-20T09:49:17.875Z</time>
      </trkpt>
      <trkpt lat="45.97733" lon="4.79828">
        <ele>221.899993896</ele>
        <time>2015-09-20T09:49:18.862Z</time>
      </trkpt>
      <trkpt lat="45.97738" lon="4.79827">
        <ele>221.899993896</ele>
        <time>2015-09-20T09:49:19.874Z</time>
      </trkpt>
      <trkpt lat="45.97743" lon="4.79825">
        <ele>221.899993896</ele>
        <time>2015-09-20T09:49:20.85Z</time>
      </trkpt>
      <trkpt lat="45.97748" lon="4.79825">
        <ele>221.899993896</ele>
        <time>2015-09-20T09:49:21.887Z</time>
      </trkpt>
      <trkpt lat="45.97753" lon="4.79824">
        <ele>221.600006104</ele>
        <time>2015-09-20T09:49:22.847Z</time>
      </trkpt>
      <trkpt lat="45.97758" lon="4.79823">
        <ele>221.600006104</ele>
        <time>2015-09-20T09:49:23.875Z</time>
      </trkpt>
      <trkpt lat="45.97763" lon="4.79822">
        <ele>221.399993896</ele>
        <time>2015-09-20T09:49:24.847Z</time>
      </trkpt>
      <trkpt lat="45.97768" lon="4.79822">
        <ele>221.600006104</ele>
        <time>2015-09-20T09:49:25.873Z</time>
      </trkpt>
      <trkpt lat="45.97773" lon="4.79821">
        <ele>221.199996948</ele>
        <time>2015-09-20T09:49:26.848Z</time>
      </trkpt>
      <trkpt lat="45.97778" lon="4.7982">
        <ele>221</ele>
        <time>2015-09-20T09:49:27.872Z</time>
      </trkpt>
      <trkpt lat="45.97783" lon="4.79819">
        <ele>220.800003052</ele>
        <time>2015-09-20T09:49:28.848Z</time>
      </trkpt>
      <trkpt lat="45.97788" lon="4.79818">
        <ele>220.800003052</ele>
        <time>2015-09-20T09:49:29.875Z</time>
      </trkpt>
      <trkpt lat="45.97793" lon="4.79817">
        <ele>220.899993896</ele>
        <time>2015-09-20T09:49:30.848Z</time>
      </trkpt>
      <trkpt lat="45.97798" lon="4.79816">
        <ele>220.899993896</ele>
        <time>2015-09-20T09:49:31.878Z</time>
      </trkpt>
      <trkpt lat="45.97802" lon="4.79815">
        <ele>221.100006104</ele>
        <time>2015-09-20T09:49:32.848Z</time>
      </trkpt>
      <trkpt lat="45.97807" lon="4.79815">
        <ele>221.199996948</ele>
        <time>2015-09-20T09:49:33.873Z</time>
      </trkpt>
      <trkpt lat="45.97813" lon="4.79814">
        <ele>221.300003052</ele>
        <time>2015-09-20T09:49:34.848Z</time>
      </trkpt>
      <trkpt lat="45.97817" lon="4.79813">
        <ele>221.300003052</ele>
        <time>2015-09-20T09:49:35.915Z</time>
      </trkpt>
      <trkpt lat="45.97822" lon="4.79812">
        <ele>221.699996948</ele>
        <time>2015-09-20T09:49:36.847Z</time>
      </trkpt>
      <trkpt lat="45.97827" lon="4.79811">
        <ele>222.199996948</ele>
        <time>2015-09-20T09:49:37.876Z</time>
      </trkpt>
      <trkpt lat="45.97832" lon="4.7981">
        <ele>222.5</ele>
        <time>2015-09-20T09:49:38.848Z</time>
      </trkpt>
      <trkpt lat="45.97837" lon="4.7981">
        <ele>222.800003052</ele>
        <time>2015-09-20T09:49:39.872Z</time>
      </trkpt>
      <trkpt lat="45.97841" lon="4.79808">
        <ele>223</ele>
        <time>2015-09-20T09:49:40.849Z</time>
      </trkpt>
      <trkpt lat="45.97846" lon="4.79807">
        <ele>223</ele>
        <time>2015-09-20T09:49:41.899Z</time>
      </trkpt>
      <trkpt lat="45.9785" lon="4.79806">
        <ele>222.899993896</ele>
        <time>2015-09-20T09:49:42.848Z</time>
      </trkpt>
      <trkpt lat="45.97855" lon="4.79806">
        <ele>222.800003052</ele>
        <time>2015-09-20T09:49:43.874Z</time>
      </trkpt>
      <trkpt lat="45.9786" lon="4.79805">
        <ele>223</ele>
        <time>2015-09-20T09:49:44.847Z</time>
      </trkpt>
      <trkpt lat="45.97865" lon="4.79804">
        <ele>222.899993896</ele>
        <time>2015-09-20T09:49:45.871Z</time>
      </trkpt>
      <trkpt lat="45.9787" lon="4.79803">
        <ele>223.100006104</ele>
        <time>2015-09-20T09:49:46.847Z</time>
      </trkpt>
      <trkpt lat="45.97875" lon="4.79802">
        <ele>223.300003052</ele>
        <time>2015-09-20T09:49:47.902Z</time>
      </trkpt>
      <trkpt lat="45.9788" lon="4.79801">
        <ele>223.5</ele>
        <time>2015-09-20T09:49:48.847Z</time>
      </trkpt>
      <trkpt lat="45.97885" lon="4.798">
        <ele>223</ele>
        <time>2015-09-20T09:49:49.874Z</time>
      </trkpt>
      <trkpt lat="45.9789" lon="4.79799">
        <ele>223.100006104</ele>
        <time>2015-09-20T09:49:50.847Z</time>
      </trkpt>
      <trkpt lat="45.97896" lon="4.79798">
        <ele>223.399993896</ele>
        <time>2015-09-20T09:49:51.875Z</time>
      </trkpt>
      <trkpt lat="45.97901" lon="4.79797">
        <ele>223.399993896</ele>
        <time>2015-09-20T09:49:52.847Z</time>
      </trkpt>
      <trkpt lat="45.97907" lon="4.79796">
        <ele>223.5</ele>
        <time>2015-09-20T09:49:53.877Z</time>
      </trkpt>
      <trkpt lat="45.97913" lon="4.79795">
        <ele>223.699996948</ele>
        <time>2015-09-20T09:49:54.847Z</time>
      </trkpt>
      <trkpt lat="45.97917" lon="4.79794">
        <ele>223.699996948</ele>
        <time>2015-09-20T09:49:55.874Z</time>
      </trkpt>
      <trkpt lat="45.97923" lon="4.79793">
        <ele>223.800003052</ele>
        <time>2015-09-20T09:49:56.87Z</time>
      </trkpt>
      <trkpt lat="45.97928" lon="4.79792">
        <ele>223.800003052</ele>
        <time>2015-09-20T09:49:57.886Z</time>
      </trkpt>
      <trkpt lat="45.97934" lon="4.79791">
        <ele>224</ele>
        <time>2015-09-20T09:49:58.847Z</time>
      </trkpt>
      <trkpt lat="45.97939" lon="4.79791">
        <ele>224.600006104</ele>
        <time>2015-09-20T09:49:59.876Z</time>
      </trkpt>
      <trkpt lat="45.97945" lon="4.7979">
        <ele>224.399993896</ele>
        <time>2015-09-20T09:50:00.847Z</time>
      </trkpt>
      <trkpt lat="45.9795" lon="4.7979">
        <ele>225.399993896</ele>
        <time>2015-09-20T09:50:01.882Z</time>
      </trkpt>
      <trkpt lat="45.97955" lon="4.79789">
        <ele>225.5</ele>
        <time>2015-09-20T09:50:02.847Z</time>
      </trkpt>
      <trkpt lat="45.9796" lon="4.79789">
        <ele>225.5</ele>
        <time>2015-09-20T09:50:03.871Z</time>
      </trkpt>
      <trkpt lat="45.97965" lon="4.79789">
        <ele>225.800003052</ele>
        <time>2015-09-20T09:50:04.847Z</time>
      </trkpt>
      <trkpt lat="45.9797" lon="4.79788">
        <ele>226.100006104</ele>
        <time>2015-09-20T09:50:05.876Z</time>
      </trkpt>
      <trkpt lat="45.97975" lon="4.79787">
        <ele>226.300003052</ele>
        <time>2015-09-20T09:50:06.849Z</time>
      </trkpt>
      <trkpt lat="45.9798" lon="4.79786">
        <ele>226.199996948</ele>
        <time>2015-09-20T09:50:07.913Z</time>
      </trkpt>
      <trkpt lat="45.97985" lon="4.79786">
        <ele>225.899993896</ele>
        <time>2015-09-20T09:50:08.847Z</time>
      </trkpt>
      <trkpt lat="45.9799" lon="4.79785">
        <ele>225.5</ele>
        <time>2015-09-20T09:50:09.872Z</time>
      </trkpt>
      <trkpt lat="45.97996" lon="4.79784">
        <ele>225.699996948</ele>
        <time>2015-09-20T09:50:10.848Z</time>
      </trkpt>
      <trkpt lat="45.98001" lon="4.79783">
        <ele>225.300003052</ele>
        <time>2015-09-20T09:50:11.879Z</time>
      </trkpt>
      <trkpt lat="45.98007" lon="4.79782">
        <ele>225.199996948</ele>
        <time>2015-09-20T09:50:12.847Z</time>
      </trkpt>
      <trkpt lat="45.98012" lon="4.79781">
        <ele>225.399993896</ele>
        <time>2015-09-20T09:50:13.888Z</time>
      </trkpt>
      <trkpt lat="45.98017" lon="4.7978">
        <ele>225.5</ele>
        <time>2015-09-20T09:50:14.847Z</time>
      </trkpt>
      <trkpt lat="45.98023" lon="4.7978">
        <ele>225.699996948</ele>
        <time>2015-09-20T09:50:15.871Z</time>
      </trkpt>
      <trkpt lat="45.98028" lon="4.79779">
        <ele>226</ele>
        <time>2015-09-20T09:50:16.847Z</time>
      </trkpt>
      <trkpt lat="45.98033" lon="4.79779">
        <ele>226.100006104</ele>
        <time>2015-09-20T09:50:17.875Z</time>
      </trkpt>
      <trkpt lat="45.98038" lon="4.79778">
        <ele>225.699996948</ele>
        <time>2015-09-20T09:50:18.883Z</time>
      </trkpt>
      <trkpt lat="45.98044" lon="4.79778">
        <ele>225.600006104</ele>
        <time>2015-09-20T09:50:19.914Z</time>
      </trkpt>
      <trkpt lat="45.98049" lon="4.79777">
        <ele>225.600006104</ele>
        <time>2015-09-20T09:50:20.847Z</time>
      </trkpt>
      <trkpt lat="45.98054" lon="4.79776">
        <ele>225.600006104</ele>
        <time>2015-09-20T09:50:21.876Z</time>
      </trkpt>
      <trkpt lat="45.98059" lon="4.79775">
        <ele>225.5</ele>
        <time>2015-09-20T09:50:22.847Z</time>
      </trkpt>
      <trkpt lat="45.98064" lon="4.79775">
        <ele>225.800003052</ele>
        <time>2015-09-20T09:50:23.877Z</time>
      </trkpt>
      <trkpt lat="45.98069" lon="4.79775">
        <ele>226.199996948</ele>
        <time>2015-09-20T09:50:24.847Z</time>
      </trkpt>
      <trkpt lat="45.98074" lon="4.79774">
        <ele>226</ele>
        <time>2015-09-20T09:50:25.872Z</time>
      </trkpt>
      <trkpt lat="45.98079" lon="4.79772">
        <ele>225.899993896</ele>
        <time>2015-09-20T09:50:26.847Z</time>
      </trkpt>
      <trkpt lat="45.98083" lon="4.79771">
        <ele>226</ele>
        <time>2015-09-20T09:50:27.871Z</time>
      </trkpt>
      <trkpt lat="45.98088" lon="4.7977">
        <ele>225.800003052</ele>
        <time>2015-09-20T09:50:28.847Z</time>
      </trkpt>
      <trkpt lat="45.98092" lon="4.7977">
        <ele>226</ele>
        <time>2015-09-20T09:50:29.888Z</time>
      </trkpt>
      <trkpt lat="45.98097" lon="4.79769">
        <ele>227.100006104</ele>
        <time>2015-09-20T09:50:30.847Z</time>
      </trkpt>
      <trkpt lat="45.98101" lon="4.79768">
        <ele>227.199996948</ele>
        <time>2015-09-20T09:50:31.89Z</time>
      </trkpt>
      <trkpt lat="45.98106" lon="4.79768">
        <ele>227.199996948</ele>
        <time>2015-09-20T09:50:32.849Z</time>
      </trkpt>
      <trkpt lat="45.98111" lon="4.79767">
        <ele>227.699996948</ele>
        <time>2015-09-20T09:50:33.872Z</time>
      </trkpt>
      <trkpt lat="45.98115" lon="4.79766">
        <ele>227.800003052</ele>
        <time>2015-09-20T09:50:34.847Z</time>
      </trkpt>
      <trkpt lat="45.9812" lon="4.79766">
        <ele>228.100006104</ele>
        <time>2015-09-20T09:50:35.884Z</time>
      </trkpt>
      <trkpt lat="45.98125" lon="4.79765">
        <ele>227.899993896</ele>
        <time>2015-09-20T09:50:36.847Z</time>
      </trkpt>
      <trkpt lat="45.98133" lon="4.79765">
        <ele>228.600006104</ele>
        <time>2015-09-20T09:50:38.871Z</time>
      </trkpt>
      <trkpt lat="45.98137" lon="4.79765">
        <ele>228.5</ele>
        <time>2015-09-20T09:50:39.847Z</time>
      </trkpt>
      <trkpt lat="45.98146" lon="4.79763">
        <ele>228.100006104</ele>
        <time>2015-09-20T09:50:41.884Z</time>
      </trkpt>
      <trkpt lat="45.9815" lon="4.79763">
        <ele>228.199996948</ele>
        <time>2015-09-20T09:50:42.847Z</time>
      </trkpt>
      <trkpt lat="45.98158" lon="4.79764">
        <ele>228.5</ele>
        <time>2015-09-20T09:50:44.871Z</time>
      </trkpt>
      <trkpt lat="45.98161" lon="4.79766">
        <ele>228.5</ele>
        <time>2015-09-20T09:50:45.847Z</time>
      </trkpt>
      <trkpt lat="45.98167" lon="4.79772">
        <ele>228.399993896</ele>
        <time>2015-09-20T09:50:47.876Z</time>
      </trkpt>
      <trkpt lat="45.9817" lon="4.79775">
        <ele>227.899993896</ele>
        <time>2015-09-20T09:50:48.876Z</time>
      </trkpt>
      <trkpt lat="45.98176" lon="4.79784">
        <ele>227.5</ele>
        <time>2015-09-20T09:50:50.886Z</time>
      </trkpt>
      <trkpt lat="45.98177" lon="4.79789">
        <ele>227.300003052</ele>
        <time>2015-09-20T09:50:51.857Z</time>
      </trkpt>
      <trkpt lat="45.98179" lon="4.79796">
        <ele>227.100006104</ele>
        <time>2015-09-20T09:50:52.904Z</time>
      </trkpt>
      <trkpt lat="45.98181" lon="4.79802">
        <ele>227</ele>
        <time>2015-09-20T09:50:53.852Z</time>
      </trkpt>
      <trkpt lat="45.98183" lon="4.79809">
        <ele>226.899993896</ele>
        <time>2015-09-20T09:50:54.871Z</time>
      </trkpt>
      <trkpt lat="45.98185" lon="4.79816">
        <ele>226.899993896</ele>
        <time>2015-09-20T09:50:55.849Z</time>
      </trkpt>
      <trkpt lat="45.98187" lon="4.79822">
        <ele>226.399993896</ele>
        <time>2015-09-20T09:50:56.871Z</time>
      </trkpt>
      <trkpt lat="45.98189" lon="4.79829">
        <ele>225.899993896</ele>
        <time>2015-09-20T09:50:57.847Z</time>
      </trkpt>
      <trkpt lat="45.98191" lon="4.79836">
        <ele>225.5</ele>
        <time>2015-09-20T09:50:58.874Z</time>
      </trkpt>
      <trkpt lat="45.98194" lon="4.79844">
        <ele>225.199996948</ele>
        <time>2015-09-20T09:50:59.851Z</time>
      </trkpt>
      <trkpt lat="45.98197" lon="4.79851">
        <ele>225.100006104</ele>
        <time>2015-09-20T09:51:00.873Z</time>
      </trkpt>
      <trkpt lat="45.98199" lon="4.79859">
        <ele>224.800003052</ele>
        <time>2015-09-20T09:51:01.864Z</time>
      </trkpt>
      <trkpt lat="45.98202" lon="4.79866">
        <ele>224.399993896</ele>
        <time>2015-09-20T09:51:02.871Z</time>
      </trkpt>
      <trkpt lat="45.98205" lon="4.79874">
        <ele>224.399993896</ele>
        <time>2015-09-20T09:51:03.848Z</time>
      </trkpt>
      <trkpt lat="45.98207" lon="4.79881">
        <ele>224.199996948</ele>
        <time>2015-09-20T09:51:04.872Z</time>
      </trkpt>
      <trkpt lat="45.98209" lon="4.79888">
        <ele>224.100006104</ele>
        <time>2015-09-20T09:51:05.851Z</time>
      </trkpt>
      <trkpt lat="45.98212" lon="4.79894">
        <ele>224.199996948</ele>
        <time>2015-09-20T09:51:06.885Z</time>
      </trkpt>
      <trkpt lat="45.98215" lon="4.799">
        <ele>224.199996948</ele>
        <time>2015-09-20T09:51:07.854Z</time>
      </trkpt>
      <trkpt lat="45.98217" lon="4.79907">
        <ele>224.199996948</ele>
        <time>2015-09-20T09:51:08.905Z</time>
      </trkpt>
      <trkpt lat="45.98219" lon="4.79914">
        <ele>224.100006104</ele>
        <time>2015-09-20T09:51:09.848Z</time>
      </trkpt>
      <trkpt lat="45.98222" lon="4.79921">
        <ele>223.899993896</ele>
        <time>2015-09-20T09:51:10.871Z</time>
      </trkpt>
      <trkpt lat="45.98224" lon="4.79928">
        <ele>223.800003052</ele>
        <time>2015-09-20T09:51:11.865Z</time>
      </trkpt>
      <trkpt lat="45.98227" lon="4.79935">
        <ele>223.699996948</ele>
        <time>2015-09-20T09:51:12.871Z</time>
      </trkpt>
      <trkpt lat="45.98229" lon="4.79942">
        <ele>223.699996948</ele>
        <time>2015-09-20T09:51:13.848Z</time>
      </trkpt>
      <trkpt lat="45.98232" lon="4.79949">
        <ele>223.699996948</ele>
        <time>2015-09-20T09:51:14.872Z</time>
      </trkpt>
      <trkpt lat="45.98235" lon="4.79956">
        <ele>223.699996948</ele>
        <time>2015-09-20T09:51:15.847Z</time>
      </trkpt>
      <trkpt lat="45.98238" lon="4.79963">
        <ele>223.699996948</ele>
        <time>2015-09-20T09:51:16.872Z</time>
      </trkpt>
      <trkpt lat="45.98241" lon="4.79971">
        <ele>223.5</ele>
        <time>2015-09-20T09:51:17.852Z</time>
      </trkpt>
      <trkpt lat="45.98244" lon="4.79978">
        <ele>223.300003052</ele>
        <time>2015-09-20T09:51:18.871Z</time>
      </trkpt>
      <trkpt lat="45.98247" lon="4.79986">
        <ele>222.899993896</ele>
        <time>2015-09-20T09:51:19.849Z</time>
      </trkpt>
      <trkpt lat="45.9825" lon="4.79994">
        <ele>223.100006104</ele>
        <time>2015-09-20T09:51:20.871Z</time>
      </trkpt>
      <trkpt lat="45.98252" lon="4.80002">
        <ele>223.300003052</ele>
        <time>2015-09-20T09:51:21.861Z</time>
      </trkpt>
      <trkpt lat="45.98254" lon="4.80009">
        <ele>223.399993896</ele>
        <time>2015-09-20T09:51:22.885Z</time>
      </trkpt>
      <trkpt lat="45.98257" lon="4.80017">
        <ele>222.899993896</ele>
        <time>2015-09-20T09:51:23.852Z</time>
      </trkpt>
      <trkpt lat="45.98259" lon="4.80024">
        <ele>222.899993896</ele>
        <time>2015-09-20T09:51:24.874Z</time>
      </trkpt>
      <trkpt lat="45.98262" lon="4.80031">
        <ele>223.199996948</ele>
        <time>2015-09-20T09:51:25.848Z</time>
      </trkpt>
      <trkpt lat="45.98265" lon="4.80039">
        <ele>223.300003052</ele>
        <time>2015-09-20T09:51:26.873Z</time>
      </trkpt>
      <trkpt lat="45.98267" lon="4.80046">
        <ele>223.100006104</ele>
        <time>2015-09-20T09:51:27.847Z</time>
      </trkpt>
      <trkpt lat="45.9827" lon="4.80054">
        <ele>223.100006104</ele>
        <time>2015-09-20T09:51:28.871Z</time>
      </trkpt>
      <trkpt lat="45.98272" lon="4.80061">
        <ele>222.699996948</ele>
        <time>2015-09-20T09:51:29.886Z</time>
      </trkpt>
      <trkpt lat="45.98275" lon="4.80068">
        <ele>223.100006104</ele>
        <time>2015-09-20T09:51:30.872Z</time>
      </trkpt>
      <trkpt lat="45.98277" lon="4.80075">
        <ele>223.600006104</ele>
        <time>2015-09-20T09:51:31.861Z</time>
      </trkpt>
      <trkpt lat="45.98279" lon="4.80081">
        <ele>223.600006104</ele>
        <time>2015-09-20T09:51:32.872Z</time>
      </trkpt>
      <trkpt lat="45.98281" lon="4.80087">
        <ele>223.600006104</ele>
        <time>2015-09-20T09:51:33.847Z</time>
      </trkpt>
      <trkpt lat="45.98283" lon="4.80093">
        <ele>223.800003052</ele>
        <time>2015-09-20T09:51:34.871Z</time>
      </trkpt>
      <trkpt lat="45.98286" lon="4.80099">
        <ele>224</ele>
        <time>2015-09-20T09:51:35.851Z</time>
      </trkpt>
      <trkpt lat="45.98288" lon="4.80105">
        <ele>224.100006104</ele>
        <time>2015-09-20T09:51:36.872Z</time>
      </trkpt>
      <trkpt lat="45.9829" lon="4.80112">
        <ele>224.399993896</ele>
        <time>2015-09-20T09:51:37.849Z</time>
      </trkpt>
      <trkpt lat="45.98292" lon="4.80118">
        <ele>224.199996948</ele>
        <time>2015-09-20T09:51:38.885Z</time>
      </trkpt>
      <trkpt lat="45.98295" lon="4.80124">
        <ele>223.800003052</ele>
        <time>2015-09-20T09:51:39.847Z</time>
      </trkpt>
      <trkpt lat="45.98298" lon="4.80131">
        <ele>223.199996948</ele>
        <time>2015-09-20T09:51:40.871Z</time>
      </trkpt>
      <trkpt lat="45.983" lon="4.80137">
        <ele>223.100006104</ele>
        <time>2015-09-20T09:51:41.863Z</time>
      </trkpt>
      <trkpt lat="45.98302" lon="4.80143">
        <ele>222.800003052</ele>
        <time>2015-09-20T09:51:42.872Z</time>
      </trkpt>
      <trkpt lat="45.98305" lon="4.8015">
        <ele>222.899993896</ele>
        <time>2015-09-20T09:51:43.922Z</time>
      </trkpt>
      <trkpt lat="45.98307" lon="4.80156">
        <ele>223.199996948</ele>
        <time>2015-09-20T09:51:44.871Z</time>
      </trkpt>
      <trkpt lat="45.9831" lon="4.80163">
        <ele>222.899993896</ele>
        <time>2015-09-20T09:51:45.846Z</time>
      </trkpt>
      <trkpt lat="45.98313" lon="4.80169">
        <ele>222.399993896</ele>
        <time>2015-09-20T09:51:46.914Z</time>
      </trkpt>
      <trkpt lat="45.98315" lon="4.80177">
        <ele>222.399993896</ele>
        <time>2015-09-20T09:51:47.852Z</time>
      </trkpt>
      <trkpt lat="45.98318" lon="4.80184">
        <ele>222.399993896</ele>
        <time>2015-09-20T09:51:48.871Z</time>
      </trkpt>
      <trkpt lat="45.9832" lon="4.80191">
        <ele>222.399993896</ele>
        <time>2015-09-20T09:51:49.849Z</time>
      </trkpt>
      <trkpt lat="45.98323" lon="4.80198">
        <ele>222.5</ele>
        <time>2015-09-20T09:51:50.874Z</time>
      </trkpt>
      <trkpt lat="45.98325" lon="4.80205">
        <ele>222.199996948</ele>
        <time>2015-09-20T09:51:51.868Z</time>
      </trkpt>
      <trkpt lat="45.98327" lon="4.80211">
        <ele>222</ele>
        <time>2015-09-20T09:51:52.871Z</time>
      </trkpt>
      <trkpt lat="45.98328" lon="4.80218">
        <ele>222</ele>
        <time>2015-09-20T09:51:53.852Z</time>
      </trkpt>
      <trkpt lat="45.98329" lon="4.80225">
        <ele>222</ele>
        <time>2015-09-20T09:51:54.886Z</time>
      </trkpt>
      <trkpt lat="45.98328" lon="4.80232">
        <ele>222.100006104</ele>
        <time>2015-09-20T09:51:55.848Z</time>
      </trkpt>
      <trkpt lat="45.98325" lon="4.80239">
        <ele>222</ele>
        <time>2015-09-20T09:51:56.872Z</time>
      </trkpt>
      <trkpt lat="45.98323" lon="4.80246">
        <ele>221.899993896</ele>
        <time>2015-09-20T09:51:57.846Z</time>
      </trkpt>
      <trkpt lat="45.98322" lon="4.80253">
        <ele>221.600006104</ele>
        <time>2015-09-20T09:51:58.871Z</time>
      </trkpt>
      <trkpt lat="45.9832" lon="4.80261">
        <ele>221.600006104</ele>
        <time>2015-09-20T09:51:59.851Z</time>
      </trkpt>
      <trkpt lat="45.98319" lon="4.8027">
        <ele>221.699996948</ele>
        <time>2015-09-20T09:52:00.872Z</time>
      </trkpt>
      <trkpt lat="45.98317" lon="4.80279">
        <ele>221.699996948</ele>
        <time>2015-09-20T09:52:01.868Z</time>
      </trkpt>
      <trkpt lat="45.98315" lon="4.80288">
        <ele>221.5</ele>
        <time>2015-09-20T09:52:02.871Z</time>
      </trkpt>
      <trkpt lat="45.98313" lon="4.80298">
        <ele>221.300003052</ele>
        <time>2015-09-20T09:52:03.847Z</time>
      </trkpt>
      <trkpt lat="45.9831" lon="4.80307">
        <ele>221.199996948</ele>
        <time>2015-09-20T09:52:04.872Z</time>
      </trkpt>
      <trkpt lat="45.98308" lon="4.80317">
        <ele>220.899993896</ele>
        <time>2015-09-20T09:52:05.851Z</time>
      </trkpt>
      <trkpt lat="45.98306" lon="4.80328">
        <ele>220.800003052</ele>
        <time>2015-09-20T09:52:06.894Z</time>
      </trkpt>
      <trkpt lat="45.98304" lon="4.80338">
        <ele>221</ele>
        <time>2015-09-20T09:52:07.851Z</time>
      </trkpt>
      <trkpt lat="45.98302" lon="4.80347">
        <ele>221.100006104</ele>
        <time>2015-09-20T09:52:08.944Z</time>
      </trkpt>
      <trkpt lat="45.98299" lon="4.80358">
        <ele>221.5</ele>
        <time>2015-09-20T09:52:09.848Z</time>
      </trkpt>
      <trkpt lat="45.98298" lon="4.80369">
        <ele>221.300003052</ele>
        <time>2015-09-20T09:52:10.919Z</time>
      </trkpt>
      <trkpt lat="45.98296" lon="4.80381">
        <ele>220.699996948</ele>
        <time>2015-09-20T09:52:11.869Z</time>
      </trkpt>
      <trkpt lat="45.98294" lon="4.80392">
        <ele>220.300003052</ele>
        <time>2015-09-20T09:52:12.872Z</time>
      </trkpt>
      <trkpt lat="45.98291" lon="4.80403">
        <ele>220.5</ele>
        <time>2015-09-20T09:52:13.848Z</time>
      </trkpt>
      <trkpt lat="45.98289" lon="4.80414">
        <ele>220.899993896</ele>
        <time>2015-09-20T09:52:14.871Z</time>
      </trkpt>
      <trkpt lat="45.98286" lon="4.80425">
        <ele>220.699996948</ele>
        <time>2015-09-20T09:52:15.846Z</time>
      </trkpt>
      <trkpt lat="45.98284" lon="4.80436">
        <ele>220.699996948</ele>
        <time>2015-09-20T09:52:16.874Z</time>
      </trkpt>
      <trkpt lat="45.98281" lon="4.80447">
        <ele>220.399993896</ele>
        <time>2015-09-20T09:52:17.851Z</time>
      </trkpt>
      <trkpt lat="45.98279" lon="4.80458">
        <ele>220.5</ele>
        <time>2015-09-20T09:52:18.87Z</time>
      </trkpt>
      <trkpt lat="45.98276" lon="4.80468">
        <ele>220.5</ele>
        <time>2015-09-20T09:52:19.847Z</time>
      </trkpt>
      <trkpt lat="45.98274" lon="4.80477">
        <ele>220.300003052</ele>
        <time>2015-09-20T09:52:20.871Z</time>
      </trkpt>
      <trkpt lat="45.98271" lon="4.80487">
        <ele>220.5</ele>
        <time>2015-09-20T09:52:21.867Z</time>
      </trkpt>
      <trkpt lat="45.98268" lon="4.80497">
        <ele>220.899993896</ele>
        <time>2015-09-20T09:52:22.871Z</time>
      </trkpt>
      <trkpt lat="45.98265" lon="4.80506">
        <ele>221.100006104</ele>
        <time>2015-09-20T09:52:23.852Z</time>
      </trkpt>
      <trkpt lat="45.98263" lon="4.80514">
        <ele>221</ele>
        <time>2015-09-20T09:52:24.871Z</time>
      </trkpt>
      <trkpt lat="45.9826" lon="4.80523">
        <ele>221.300003052</ele>
        <time>2015-09-20T09:52:25.849Z</time>
      </trkpt>
      <trkpt lat="45.98258" lon="4.80531">
        <ele>221.399993896</ele>
        <time>2015-09-20T09:52:26.922Z</time>
      </trkpt>
      <trkpt lat="45.98255" lon="4.80538">
        <ele>221.699996948</ele>
        <time>2015-09-20T09:52:27.846Z</time>
      </trkpt>
      <trkpt lat="45.98253" lon="4.80547">
        <ele>221.899993896</ele>
        <time>2015-09-20T09:52:28.871Z</time>
      </trkpt>
      <trkpt lat="45.9825" lon="4.80555">
        <ele>222.199996948</ele>
        <time>2015-09-20T09:52:29.851Z</time>
      </trkpt>
      <trkpt lat="45.98247" lon="4.80564">
        <ele>222.199996948</ele>
        <time>2015-09-20T09:52:30.871Z</time>
      </trkpt>
      <trkpt lat="45.98244" lon="4.80574">
        <ele>222</ele>
        <time>2015-09-20T09:52:31.875Z</time>
      </trkpt>
      <trkpt lat="45.98242" lon="4.80583">
        <ele>221.800003052</ele>
        <time>2015-09-20T09:52:32.871Z</time>
      </trkpt>
      <trkpt lat="45.98239" lon="4.80592">
        <ele>222</ele>
        <time>2015-09-20T09:52:33.847Z</time>
      </trkpt>
      <trkpt lat="45.98237" lon="4.806">
        <ele>222.199996948</ele>
        <time>2015-09-20T09:52:34.871Z</time>
      </trkpt>
      <trkpt lat="45.98235" lon="4.80609">
        <ele>222</ele>
        <time>2015-09-20T09:52:35.851Z</time>
      </trkpt>
      <trkpt lat="45.98232" lon="4.80617">
        <ele>222.300003052</ele>
        <time>2015-09-20T09:52:36.871Z</time>
      </trkpt>
      <trkpt lat="45.9823" lon="4.80625">
        <ele>222.199996948</ele>
        <time>2015-09-20T09:52:37.871Z</time>
      </trkpt>
      <trkpt lat="45.98227" lon="4.80632">
        <ele>222.300003052</ele>
        <time>2015-09-20T09:52:38.871Z</time>
      </trkpt>
      <trkpt lat="45.98225" lon="4.80638">
        <ele>222.199996948</ele>
        <time>2015-09-20T09:52:39.848Z</time>
      </trkpt>
      <trkpt lat="45.98222" lon="4.80644">
        <ele>222.199996948</ele>
        <time>2015-09-20T09:52:40.871Z</time>
      </trkpt>
      <trkpt lat="45.9822" lon="4.8065">
        <ele>222.100006104</ele>
        <time>2015-09-20T09:52:41.873Z</time>
      </trkpt>
      <trkpt lat="45.98216" lon="4.8066">
        <ele>222.800003052</ele>
        <time>2015-09-20T09:52:43.877Z</time>
      </trkpt>
      <trkpt lat="45.98214" lon="4.80664">
        <ele>223.100006104</ele>
        <time>2015-09-20T09:52:44.847Z</time>
      </trkpt>
      <trkpt lat="45.98208" lon="4.80669">
        <ele>222.899993896</ele>
        <time>2015-09-20T09:52:46.871Z</time>
      </trkpt>
      <trkpt lat="45.98204" lon="4.80671">
        <ele>222.800003052</ele>
        <time>2015-09-20T09:52:47.851Z</time>
      </trkpt>
      <trkpt lat="45.98198" lon="4.80676">
        <ele>222.399993896</ele>
        <time>2015-09-20T09:52:49.873Z</time>
      </trkpt>
      <trkpt lat="45.98194" lon="4.80678">
        <ele>222.5</ele>
        <time>2015-09-20T09:52:50.848Z</time>
      </trkpt>
      <trkpt lat="45.9819" lon="4.80679">
        <ele>222.600006104</ele>
        <time>2015-09-20T09:52:52.004Z</time>
      </trkpt>
      <trkpt lat="45.98185" lon="4.80681">
        <ele>222.5</ele>
        <time>2015-09-20T09:52:52.848Z</time>
      </trkpt>
      <trkpt lat="45.9818" lon="4.80683">
        <ele>222.800003052</ele>
        <time>2015-09-20T09:52:53.885Z</time>
      </trkpt>
      <trkpt lat="45.98176" lon="4.80685">
        <ele>223.300003052</ele>
        <time>2015-09-20T09:52:54.847Z</time>
      </trkpt>
      <trkpt lat="45.98171" lon="4.80686">
        <ele>223.300003052</ele>
        <time>2015-09-20T09:52:55.874Z</time>
      </trkpt>
      <trkpt lat="45.98167" lon="4.80687">
        <ele>223</ele>
        <time>2015-09-20T09:52:56.846Z</time>
      </trkpt>
      <trkpt lat="45.98158" lon="4.80688">
        <ele>222.600006104</ele>
        <time>2015-09-20T09:52:58.871Z</time>
      </trkpt>
      <trkpt lat="45.98154" lon="4.80688">
        <ele>222.600006104</ele>
        <time>2015-09-20T09:52:59.851Z</time>
      </trkpt>
      <trkpt lat="45.98146" lon="4.80689">
        <ele>223.100006104</ele>
        <time>2015-09-20T09:53:01.898Z</time>
      </trkpt>
      <trkpt lat="45.98143" lon="4.8069">
        <ele>223.300003052</ele>
        <time>2015-09-20T09:53:02.847Z</time>
      </trkpt>
      <trkpt lat="45.98134" lon="4.80689">
        <ele>224.100006104</ele>
        <time>2015-09-20T09:53:04.871Z</time>
      </trkpt>
      <trkpt lat="45.9813" lon="4.8069">
        <ele>224.600006104</ele>
        <time>2015-09-20T09:53:05.851Z</time>
      </trkpt>
      <trkpt lat="45.98125" lon="4.80691">
        <ele>224.5</ele>
        <time>2015-09-20T09:53:06.871Z</time>
      </trkpt>
      <trkpt lat="45.9812" lon="4.80691">
        <ele>224.699996948</ele>
        <time>2015-09-20T09:53:07.851Z</time>
      </trkpt>
      <trkpt lat="45.98112" lon="4.80691">
        <ele>224.199996948</ele>
        <time>2015-09-20T09:53:09.873Z</time>
      </trkpt>
      <trkpt lat="45.98108" lon="4.80691">
        <ele>224</ele>
        <time>2015-09-20T09:53:10.846Z</time>
      </trkpt>
      <trkpt lat="45.98101" lon="4.80692">
        <ele>224.100006104</ele>
        <time>2015-09-20T09:53:12.872Z</time>
      </trkpt>
      <trkpt lat="45.98096" lon="4.80692">
        <ele>224</ele>
        <time>2015-09-20T09:53:13.848Z</time>
      </trkpt>
      <trkpt lat="45.98089" lon="4.80693">
        <ele>224</ele>
        <time>2015-09-20T09:53:15.871Z</time>
      </trkpt>
      <trkpt lat="45.98085" lon="4.80693">
        <ele>223.899993896</ele>
        <time>2015-09-20T09:53:16.846Z</time>
      </trkpt>
      <trkpt lat="45.98077" lon="4.80693">
        <ele>224.699996948</ele>
        <time>2015-09-20T09:53:18.872Z</time>
      </trkpt>
      <trkpt lat="45.98073" lon="4.80693">
        <ele>225</ele>
        <time>2015-09-20T09:53:19.848Z</time>
      </trkpt>
      <trkpt lat="45.98064" lon="4.80692">
        <ele>226.100006104</ele>
        <time>2015-09-20T09:53:21.895Z</time>
      </trkpt>
      <trkpt lat="45.98061" lon="4.80693">
        <ele>226.399993896</ele>
        <time>2015-09-20T09:53:22.846Z</time>
      </trkpt>
      <trkpt lat="45.98053" lon="4.80693">
        <ele>227.5</ele>
        <time>2015-09-20T09:53:24.886Z</time>
      </trkpt>
      <trkpt lat="45.98049" lon="4.80694">
        <ele>227.899993896</ele>
        <time>2015-09-20T09:53:25.848Z</time>
      </trkpt>
      <trkpt lat="45.98042" lon="4.80696">
        <ele>228</ele>
        <time>2015-09-20T09:53:27.871Z</time>
      </trkpt>
      <trkpt lat="45.98038" lon="4.80697">
        <ele>227.600006104</ele>
        <time>2015-09-20T09:53:28.847Z</time>
      </trkpt>
      <trkpt lat="45.98032" lon="4.80705">
        <ele>228.300003052</ele>
        <time>2015-09-20T09:53:30.872Z</time>
      </trkpt>
      <trkpt lat="45.98029" lon="4.80709">
        <ele>228.899993896</ele>
        <time>2015-09-20T09:53:31.895Z</time>
      </trkpt>
      <trkpt lat="45.98028" lon="4.80722">
        <ele>230.600006104</ele>
        <time>2015-09-20T09:53:34.873Z</time>
      </trkpt>
      <trkpt lat="45.9803" lon="4.80725">
        <ele>231.100006104</ele>
        <time>2015-09-20T09:53:35.882Z</time>
      </trkpt>
      <trkpt lat="45.98033" lon="4.80734">
        <ele>231.699996948</ele>
        <time>2015-09-20T09:53:38.871Z</time>
      </trkpt>
      <trkpt lat="45.98033" lon="4.80738">
        <ele>232.100006104</ele>
        <time>2015-09-20T09:53:39.847Z</time>
      </trkpt>
      <trkpt lat="45.98035" lon="4.80748">
        <ele>232.100006104</ele>
        <time>2015-09-20T09:53:42.871Z</time>
      </trkpt>
      <trkpt lat="45.98036" lon="4.80751">
        <ele>232</ele>
        <time>2015-09-20T09:53:43.848Z</time>
      </trkpt>
      <trkpt lat="45.98039" lon="4.80758">
        <ele>231.300003052</ele>
        <time>2015-09-20T09:53:45.885Z</time>
      </trkpt>
      <trkpt lat="45.9804" lon="4.80762">
        <ele>231.300003052</ele>
        <time>2015-09-20T09:53:46.846Z</time>
      </trkpt>
      <trkpt lat="45.98042" lon="4.8077">
        <ele>231</ele>
        <time>2015-09-20T09:53:48.872Z</time>
      </trkpt>
      <trkpt lat="45.98043" lon="4.80774">
        <ele>230.800003052</ele>
        <time>2015-09-20T09:53:49.849Z</time>
      </trkpt>
      <trkpt lat="45.98045" lon="4.80783">
        <ele>230.899993896</ele>
        <time>2015-09-20T09:53:51.897Z</time>
      </trkpt>
      <trkpt lat="45.98045" lon="4.80788">
        <ele>230.899993896</ele>
        <time>2015-09-20T09:53:52.849Z</time>
      </trkpt>
      <trkpt lat="45.98047" lon="4.80797">
        <ele>231.300003052</ele>
        <time>2015-09-20T09:53:54.874Z</time>
      </trkpt>
      <trkpt lat="45.98049" lon="4.80802">
        <ele>231.600006104</ele>
        <time>2015-09-20T09:53:55.847Z</time>
      </trkpt>
      <trkpt lat="45.98051" lon="4.8081">
        <ele>231.800003052</ele>
        <time>2015-09-20T09:53:57.988Z</time>
      </trkpt>
      <trkpt lat="45.98053" lon="4.80814">
        <ele>232.199996948</ele>
        <time>2015-09-20T09:53:58.847Z</time>
      </trkpt>
      <trkpt lat="45.98054" lon="4.80822">
        <ele>232.199996948</ele>
        <time>2015-09-20T09:54:00.927Z</time>
      </trkpt>
      <trkpt lat="45.98056" lon="4.80827">
        <ele>232</ele>
        <time>2015-09-20T09:54:01.865Z</time>
      </trkpt>
      <trkpt lat="45.98058" lon="4.80835">
        <ele>231.800003052</ele>
        <time>2015-09-20T09:54:03.87Z</time>
      </trkpt>
      <trkpt lat="45.9806" lon="4.80839">
        <ele>231.699996948</ele>
        <time>2015-09-20T09:54:04.846Z</time>
      </trkpt>
      <trkpt lat="45.98062" lon="4.80847">
        <ele>231.5</ele>
        <time>2015-09-20T09:54:06.87Z</time>
      </trkpt>
      <trkpt lat="45.98063" lon="4.80852">
        <ele>230.699996948</ele>
        <time>2015-09-20T09:54:07.851Z</time>
      </trkpt>
      <trkpt lat="45.98063" lon="4.80861">
        <ele>230.5</ele>
        <time>2015-09-20T09:54:09.87Z</time>
      </trkpt>
      <trkpt lat="45.98064" lon="4.80865">
        <ele>230.800003052</ele>
        <time>2015-09-20T09:54:10.846Z</time>
      </trkpt>
      <trkpt lat="45.98068" lon="4.80875">
        <ele>230.800003052</ele>
        <time>2015-09-20T09:54:13.872Z</time>
      </trkpt>
      <trkpt lat="45.98069" lon="4.80878">
        <ele>230.5</ele>
        <time>2015-09-20T09:54:14.883Z</time>
      </trkpt>
      <trkpt lat="45.98072" lon="4.80888">
        <ele>230.699996948</ele>
        <time>2015-09-20T09:54:17.876Z</time>
      </trkpt>
      <trkpt lat="45.98072" lon="4.80891">
        <ele>230.800003052</ele>
        <time>2015-09-20T09:54:18.846Z</time>
      </trkpt>
      <trkpt lat="45.98075" lon="4.80902">
        <ele>230.800003052</ele>
        <time>2015-09-20T09:54:21.894Z</time>
      </trkpt>
      <trkpt lat="45.98076" lon="4.80906">
        <ele>231</ele>
        <time>2015-09-20T09:54:22.857Z</time>
      </trkpt>
      <trkpt lat="45.98081" lon="4.80917">
        <ele>231.800003052</ele>
        <time>2015-09-20T09:54:25.927Z</time>
      </trkpt>
      <trkpt lat="45.98082" lon="4.8092">
        <ele>231.899993896</ele>
        <time>2015-09-20T09:54:26.848Z</time>
      </trkpt>
      <trkpt lat="45.98082" lon="4.80932">
        <ele>232.5</ele>
        <time>2015-09-20T09:54:29.874Z</time>
      </trkpt>
      <trkpt lat="45.98083" lon="4.80935">
        <ele>232.800003052</ele>
        <time>2015-09-20T09:54:30.853Z</time>
      </trkpt>
      <trkpt lat="45.98087" lon="4.80946">
        <ele>233.300003052</ele>
        <time>2015-09-20T09:54:33.947Z</time>
      </trkpt>
      <trkpt lat="45.98087" lon="4.80949">
        <ele>233.300003052</ele>
        <time>2015-09-20T09:54:34.846Z</time>
      </trkpt>
      <trkpt lat="45.98092" lon="4.80957">
        <ele>232.899993896</ele>
        <time>2015-09-20T09:54:37.924Z</time>
      </trkpt>
      <trkpt lat="45.98092" lon="4.8096">
        <ele>233.699996948</ele>
        <time>2015-09-20T09:54:38.847Z</time>
      </trkpt>
      <trkpt lat="45.98093" lon="4.80973">
        <ele>234.199996948</ele>
        <time>2015-09-20T09:54:42.87Z</time>
      </trkpt>
      <trkpt lat="45.98094" lon="4.80975">
        <ele>234.600006104</ele>
        <time>2015-09-20T09:54:43.849Z</time>
      </trkpt>
      <trkpt lat="45.98097" lon="4.80985">
        <ele>235.899993896</ele>
        <time>2015-09-20T09:54:46.871Z</time>
      </trkpt>
      <trkpt lat="45.98098" lon="4.80988">
        <ele>236.199996948</ele>
        <time>2015-09-20T09:54:47.871Z</time>
      </trkpt>
      <trkpt lat="45.98101" lon="4.80996">
        <ele>237.399993896</ele>
        <time>2015-09-20T09:54:49.871Z</time>
      </trkpt>
      <trkpt lat="45.98103" lon="4.81">
        <ele>237.899993896</ele>
        <time>2015-09-20T09:54:50.846Z</time>
      </trkpt>
      <trkpt lat="45.98106" lon="4.81011">
        <ele>238.199996948</ele>
        <time>2015-09-20T09:54:52.87Z</time>
      </trkpt>
      <trkpt lat="45.98108" lon="4.81016">
        <ele>238.699996948</ele>
        <time>2015-09-20T09:54:53.866Z</time>
      </trkpt>
      <trkpt lat="45.98111" lon="4.81028">
        <ele>239.5</ele>
        <time>2015-09-20T09:54:55.872Z</time>
      </trkpt>
      <trkpt lat="45.98112" lon="4.81034">
        <ele>239.899993896</ele>
        <time>2015-09-20T09:54:56.845Z</time>
      </trkpt>
      <trkpt lat="45.98116" lon="4.81046">
        <ele>240.699996948</ele>
        <time>2015-09-20T09:54:58.92Z</time>
      </trkpt>
      <trkpt lat="45.98118" lon="4.81051">
        <ele>240.800003052</ele>
        <time>2015-09-20T09:54:59.851Z</time>
      </trkpt>
      <trkpt lat="45.98121" lon="4.81061">
        <ele>240.600006104</ele>
        <time>2015-09-20T09:55:01.894Z</time>
      </trkpt>
      <trkpt lat="45.98123" lon="4.81066">
        <ele>240.100006104</ele>
        <time>2015-09-20T09:55:02.847Z</time>
      </trkpt>
      <trkpt lat="45.98128" lon="4.81076">
        <ele>239.300003052</ele>
        <time>2015-09-20T09:55:04.87Z</time>
      </trkpt>
      <trkpt lat="45.9813" lon="4.81082">
        <ele>239.800003052</ele>
        <time>2015-09-20T09:55:05.849Z</time>
      </trkpt>
      <trkpt lat="45.98134" lon="4.81092">
        <ele>239.800003052</ele>
        <time>2015-09-20T09:55:07.875Z</time>
      </trkpt>
      <trkpt lat="45.98136" lon="4.81098">
        <ele>239.899993896</ele>
        <time>2015-09-20T09:55:08.847Z</time>
      </trkpt>
      <trkpt lat="45.9814" lon="4.81107">
        <ele>239.800003052</ele>
        <time>2015-09-20T09:55:10.87Z</time>
      </trkpt>
      <trkpt lat="45.98142" lon="4.81113">
        <ele>239.800003052</ele>
        <time>2015-09-20T09:55:11.85Z</time>
      </trkpt>
      <trkpt lat="45.98144" lon="4.81119">
        <ele>240.300003052</ele>
        <time>2015-09-20T09:55:12.905Z</time>
      </trkpt>
      <trkpt lat="45.98146" lon="4.81124">
        <ele>240.600006104</ele>
        <time>2015-09-20T09:55:13.847Z</time>
      </trkpt>
      <trkpt lat="45.98149" lon="4.8113">
        <ele>240.699996948</ele>
        <time>2015-09-20T09:55:14.878Z</time>
      </trkpt>
      <trkpt lat="45.98151" lon="4.81136">
        <ele>240.699996948</ele>
        <time>2015-09-20T09:55:15.846Z</time>
      </trkpt>
      <trkpt lat="45.98155" lon="4.81147">
        <ele>240.800003052</ele>
        <time>2015-09-20T09:55:17.874Z</time>
      </trkpt>
      <trkpt lat="45.98158" lon="4.81152">
        <ele>240.600006104</ele>
        <time>2015-09-20T09:55:18.846Z</time>
      </trkpt>
      <trkpt lat="45.98163" lon="4.81162">
        <ele>240</ele>
        <time>2015-09-20T09:55:20.87Z</time>
      </trkpt>
      <trkpt lat="45.98165" lon="4.81167">
        <ele>239.800003052</ele>
        <time>2015-09-20T09:55:21.846Z</time>
      </trkpt>
      <trkpt lat="45.98167" lon="4.81177">
        <ele>240.199996948</ele>
        <time>2015-09-20T09:55:23.879Z</time>
      </trkpt>
      <trkpt lat="45.98167" lon="4.81183">
        <ele>240.699996948</ele>
        <time>2015-09-20T09:55:24.846Z</time>
      </trkpt>
      <trkpt lat="45.98168" lon="4.81195">
        <ele>242.199996948</ele>
        <time>2015-09-20T09:55:26.905Z</time>
      </trkpt>
      <trkpt lat="45.98168" lon="4.81202">
        <ele>242.199996948</ele>
        <time>2015-09-20T09:55:27.847Z</time>
      </trkpt>
      <trkpt lat="45.9817" lon="4.81214">
        <ele>242.600006104</ele>
        <time>2015-09-20T09:55:29.878Z</time>
      </trkpt>
      <trkpt lat="45.98171" lon="4.8122">
        <ele>242.899993896</ele>
        <time>2015-09-20T09:55:30.847Z</time>
      </trkpt>
      <trkpt lat="45.98173" lon="4.81233">
        <ele>243.199996948</ele>
        <time>2015-09-20T09:55:32.871Z</time>
      </trkpt>
      <trkpt lat="45.98174" lon="4.81239">
        <ele>243.300003052</ele>
        <time>2015-09-20T09:55:33.846Z</time>
      </trkpt>
      <trkpt lat="45.98176" lon="4.81252">
        <ele>243.899993896</ele>
        <time>2015-09-20T09:55:35.874Z</time>
      </trkpt>
      <trkpt lat="45.98177" lon="4.81259">
        <ele>244.100006104</ele>
        <time>2015-09-20T09:55:36.846Z</time>
      </trkpt>
      <trkpt lat="45.98178" lon="4.81266">
        <ele>244.600006104</ele>
        <time>2015-09-20T09:55:37.871Z</time>
      </trkpt>
      <trkpt lat="45.98178" lon="4.81272">
        <ele>244.399993896</ele>
        <time>2015-09-20T09:55:38.845Z</time>
      </trkpt>
      <trkpt lat="45.98179" lon="4.81278">
        <ele>244.600006104</ele>
        <time>2015-09-20T09:55:39.87Z</time>
      </trkpt>
      <trkpt lat="45.98182" lon="4.81284">
        <ele>245.5</ele>
        <time>2015-09-20T09:55:40.862Z</time>
      </trkpt>
      <trkpt lat="45.98184" lon="4.81289">
        <ele>245.399993896</ele>
        <time>2015-09-20T09:55:41.892Z</time>
      </trkpt>
      <trkpt lat="45.98185" lon="4.81296">
        <ele>245.800003052</ele>
        <time>2015-09-20T09:55:42.846Z</time>
      </trkpt>
      <trkpt lat="45.98187" lon="4.81303">
        <ele>245.699996948</ele>
        <time>2015-09-20T09:55:43.872Z</time>
      </trkpt>
      <trkpt lat="45.98188" lon="4.8131">
        <ele>245.399993896</ele>
        <time>2015-09-20T09:55:44.847Z</time>
      </trkpt>
      <trkpt lat="45.98189" lon="4.81316">
        <ele>245.600006104</ele>
        <time>2015-09-20T09:55:45.871Z</time>
      </trkpt>
      <trkpt lat="45.98191" lon="4.81323">
        <ele>245.399993896</ele>
        <time>2015-09-20T09:55:46.846Z</time>
      </trkpt>
      <trkpt lat="45.98192" lon="4.8133">
        <ele>245.199996948</ele>
        <time>2015-09-20T09:55:47.874Z</time>
      </trkpt>
      <trkpt lat="45.98194" lon="4.81337">
        <ele>245.300003052</ele>
        <time>2015-09-20T09:55:48.846Z</time>
      </trkpt>
      <trkpt lat="45.98195" lon="4.81345">
        <ele>245.5</ele>
        <time>2015-09-20T09:55:49.873Z</time>
      </trkpt>
      <trkpt lat="45.98197" lon="4.81352">
        <ele>245.800003052</ele>
        <time>2015-09-20T09:55:50.845Z</time>
      </trkpt>
      <trkpt lat="45.98198" lon="4.81359">
        <ele>245.699996948</ele>
        <time>2015-09-20T09:55:51.884Z</time>
      </trkpt>
      <trkpt lat="45.982" lon="4.81366">
        <ele>245.699996948</ele>
        <time>2015-09-20T09:55:52.846Z</time>
      </trkpt>
      <trkpt lat="45.98202" lon="4.81373">
        <ele>245.800003052</ele>
        <time>2015-09-20T09:55:53.876Z</time>
      </trkpt>
      <trkpt lat="45.98203" lon="4.81379">
        <ele>246</ele>
        <time>2015-09-20T09:55:54.847Z</time>
      </trkpt>
      <trkpt lat="45.98207" lon="4.81391">
        <ele>245.699996948</ele>
        <time>2015-09-20T09:55:56.88Z</time>
      </trkpt>
      <trkpt lat="45.98209" lon="4.81396">
        <ele>245.899993896</ele>
        <time>2015-09-20T09:55:57.846Z</time>
      </trkpt>
      <trkpt lat="45.98213" lon="4.81407">
        <ele>245.800003052</ele>
        <time>2015-09-20T09:55:59.874Z</time>
      </trkpt>
      <trkpt lat="45.98215" lon="4.81413">
        <ele>245.100006104</ele>
        <time>2015-09-20T09:56:00.846Z</time>
      </trkpt>
      <trkpt lat="45.98218" lon="4.81425">
        <ele>245.699996948</ele>
        <time>2015-09-20T09:56:02.87Z</time>
      </trkpt>
      <trkpt lat="45.98219" lon="4.8143">
        <ele>245.5</ele>
        <time>2015-09-20T09:56:03.845Z</time>
      </trkpt>
      <trkpt lat="45.98221" lon="4.81436">
        <ele>245.5</ele>
        <time>2015-09-20T09:56:04.879Z</time>
      </trkpt>
      <trkpt lat="45.98223" lon="4.81442">
        <ele>245.399993896</ele>
        <time>2015-09-20T09:56:05.849Z</time>
      </trkpt>
      <trkpt lat="45.98225" lon="4.81449">
        <ele>245.5</ele>
        <time>2015-09-20T09:56:06.87Z</time>
      </trkpt>
      <trkpt lat="45.98227" lon="4.81455">
        <ele>245.699996948</ele>
        <time>2015-09-20T09:56:07.851Z</time>
      </trkpt>
      <trkpt lat="45.98228" lon="4.81462">
        <ele>245.699996948</ele>
        <time>2015-09-20T09:56:08.87Z</time>
      </trkpt>
      <trkpt lat="45.9823" lon="4.81469">
        <ele>245.5</ele>
        <time>2015-09-20T09:56:09.846Z</time>
      </trkpt>
      <trkpt lat="45.98233" lon="4.81476">
        <ele>245.199996948</ele>
        <time>2015-09-20T09:56:10.87Z</time>
      </trkpt>
      <trkpt lat="45.98235" lon="4.81481">
        <ele>244.699996948</ele>
        <time>2015-09-20T09:56:11.849Z</time>
      </trkpt>
      <trkpt lat="45.98238" lon="4.81488">
        <ele>245.199996948</ele>
        <time>2015-09-20T09:56:12.87Z</time>
      </trkpt>
      <trkpt lat="45.9824" lon="4.81495">
        <ele>245.300003052</ele>
        <time>2015-09-20T09:56:13.87Z</time>
      </trkpt>
      <trkpt lat="45.98242" lon="4.81502">
        <ele>245.899993896</ele>
        <time>2015-09-20T09:56:14.934Z</time>
      </trkpt>
      <trkpt lat="45.98244" lon="4.81509">
        <ele>245.5</ele>
        <time>2015-09-20T09:56:15.846Z</time>
      </trkpt>
      <trkpt lat="45.98246" lon="4.81517">
        <ele>245.600006104</ele>
        <time>2015-09-20T09:56:16.87Z</time>
      </trkpt>
      <trkpt lat="45.98248" lon="4.81524">
        <ele>245.600006104</ele>
        <time>2015-09-20T09:56:17.864Z</time>
      </trkpt>
      <trkpt lat="45.98251" lon="4.81531">
        <ele>245.399993896</ele>
        <time>2015-09-20T09:56:18.876Z</time>
      </trkpt>
      <trkpt lat="45.98253" lon="4.81539">
        <ele>245.100006104</ele>
        <time>2015-09-20T09:56:19.847Z</time>
      </trkpt>
      <trkpt lat="45.98256" lon="4.81546">
        <ele>244.600006104</ele>
        <time>2015-09-20T09:56:20.871Z</time>
      </trkpt>
      <trkpt lat="45.98259" lon="4.81554">
        <ele>244.600006104</ele>
        <time>2015-09-20T09:56:21.847Z</time>
      </trkpt>
      <trkpt lat="45.98261" lon="4.81561">
        <ele>244.5</ele>
        <time>2015-09-20T09:56:22.87Z</time>
      </trkpt>
      <trkpt lat="45.98264" lon="4.81569">
        <ele>244.399993896</ele>
        <time>2015-09-20T09:56:23.85Z</time>
      </trkpt>
      <trkpt lat="45.98266" lon="4.81577">
        <ele>244.199996948</ele>
        <time>2015-09-20T09:56:24.87Z</time>
      </trkpt>
      <trkpt lat="45.98269" lon="4.81584">
        <ele>244.100006104</ele>
        <time>2015-09-20T09:56:25.846Z</time>
      </trkpt>
      <trkpt lat="45.98272" lon="4.81592">
        <ele>244</ele>
        <time>2015-09-20T09:56:26.87Z</time>
      </trkpt>
      <trkpt lat="45.98275" lon="4.81599">
        <ele>243.899993896</ele>
        <time>2015-09-20T09:56:27.846Z</time>
      </trkpt>
      <trkpt lat="45.98278" lon="4.81607">
        <ele>243.800003052</ele>
        <time>2015-09-20T09:56:28.87Z</time>
      </trkpt>
      <trkpt lat="45.98281" lon="4.81614">
        <ele>243.5</ele>
        <time>2015-09-20T09:56:29.85Z</time>
      </trkpt>
      <trkpt lat="45.98285" lon="4.81621">
        <ele>243.199996948</ele>
        <time>2015-09-20T09:56:30.87Z</time>
      </trkpt>
      <trkpt lat="45.98289" lon="4.81627">
        <ele>243.100006104</ele>
        <time>2015-09-20T09:56:31.847Z</time>
      </trkpt>
      <trkpt lat="45.98293" lon="4.81632">
        <ele>243.199996948</ele>
        <time>2015-09-20T09:56:32.87Z</time>
      </trkpt>
      <trkpt lat="45.98297" lon="4.81637">
        <ele>243.600006104</ele>
        <time>2015-09-20T09:56:33.845Z</time>
      </trkpt>
      <trkpt lat="45.98301" lon="4.81642">
        <ele>243.800003052</ele>
        <time>2015-09-20T09:56:34.889Z</time>
      </trkpt>
      <trkpt lat="45.98306" lon="4.81646">
        <ele>243.800003052</ele>
        <time>2015-09-20T09:56:35.846Z</time>
      </trkpt>
      <trkpt lat="45.9831" lon="4.81651">
        <ele>243.699996948</ele>
        <time>2015-09-20T09:56:36.871Z</time>
      </trkpt>
      <trkpt lat="45.98315" lon="4.81655">
        <ele>243.5</ele>
        <time>2015-09-20T09:56:37.847Z</time>
      </trkpt>
      <trkpt lat="45.98319" lon="4.8166">
        <ele>243.699996948</ele>
        <time>2015-09-20T09:56:38.884Z</time>
      </trkpt>
      <trkpt lat="45.98324" lon="4.81664">
        <ele>243.699996948</ele>
        <time>2015-09-20T09:56:39.846Z</time>
      </trkpt>
      <trkpt lat="45.9833" lon="4.81667">
        <ele>243.800003052</ele>
        <time>2015-09-20T09:56:40.869Z</time>
      </trkpt>
      <trkpt lat="45.98335" lon="4.8167">
        <ele>243.899993896</ele>
        <time>2015-09-20T09:56:41.849Z</time>
      </trkpt>
      <trkpt lat="45.9834" lon="4.81673">
        <ele>243.899993896</ele>
        <time>2015-09-20T09:56:42.87Z</time>
      </trkpt>
      <trkpt lat="45.98346" lon="4.81675">
        <ele>243.800003052</ele>
        <time>2015-09-20T09:56:43.846Z</time>
      </trkpt>
      <trkpt lat="45.98352" lon="4.81677">
        <ele>243.699996948</ele>
        <time>2015-09-20T09:56:44.87Z</time>
      </trkpt>
      <trkpt lat="45.98358" lon="4.81678">
        <ele>243.600006104</ele>
        <time>2015-09-20T09:56:45.845Z</time>
      </trkpt>
      <trkpt lat="45.98363" lon="4.81677">
        <ele>243.399993896</ele>
        <time>2015-09-20T09:56:46.87Z</time>
      </trkpt>
      <trkpt lat="45.98369" lon="4.81676">
        <ele>243.100006104</ele>
        <time>2015-09-20T09:56:47.85Z</time>
      </trkpt>
      <trkpt lat="45.98375" lon="4.81675">
        <ele>243.100006104</ele>
        <time>2015-09-20T09:56:48.87Z</time>
      </trkpt>
      <trkpt lat="45.9838" lon="4.81673">
        <ele>243.399993896</ele>
        <time>2015-09-20T09:56:49.847Z</time>
      </trkpt>
      <trkpt lat="45.98387" lon="4.81672">
        <ele>242.899993896</ele>
        <time>2015-09-20T09:56:50.87Z</time>
      </trkpt>
      <trkpt lat="45.98393" lon="4.8167">
        <ele>243</ele>
        <time>2015-09-20T09:56:51.845Z</time>
      </trkpt>
      <trkpt lat="45.98399" lon="4.81669">
        <ele>243.100006104</ele>
        <time>2015-09-20T09:56:52.87Z</time>
      </trkpt>
      <trkpt lat="45.98404" lon="4.81668">
        <ele>243.300003052</ele>
        <time>2015-09-20T09:56:53.849Z</time>
      </trkpt>
      <trkpt lat="45.9841" lon="4.81667">
        <ele>243.5</ele>
        <time>2015-09-20T09:56:54.883Z</time>
      </trkpt>
      <trkpt lat="45.98415" lon="4.81667">
        <ele>243.899993896</ele>
        <time>2015-09-20T09:56:55.847Z</time>
      </trkpt>
      <trkpt lat="45.98421" lon="4.81667">
        <ele>244.100006104</ele>
        <time>2015-09-20T09:56:56.87Z</time>
      </trkpt>
      <trkpt lat="45.98427" lon="4.81669">
        <ele>244.300003052</ele>
        <time>2015-09-20T09:56:57.845Z</time>
      </trkpt>
      <trkpt lat="45.98432" lon="4.81672">
        <ele>244.600006104</ele>
        <time>2015-09-20T09:56:58.869Z</time>
      </trkpt>
      <trkpt lat="45.98436" lon="4.81676">
        <ele>244.5</ele>
        <time>2015-09-20T09:56:59.85Z</time>
      </trkpt>
      <trkpt lat="45.98441" lon="4.81681">
        <ele>244.300003052</ele>
        <time>2015-09-20T09:57:00.871Z</time>
      </trkpt>
      <trkpt lat="45.98445" lon="4.81686">
        <ele>244</ele>
        <time>2015-09-20T09:57:01.848Z</time>
      </trkpt>
      <trkpt lat="45.98449" lon="4.81693">
        <ele>243.899993896</ele>
        <time>2015-09-20T09:57:02.87Z</time>
      </trkpt>
      <trkpt lat="45.98453" lon="4.817">
        <ele>243.300003052</ele>
        <time>2015-09-20T09:57:03.845Z</time>
      </trkpt>
      <trkpt lat="45.98457" lon="4.81707">
        <ele>242.899993896</ele>
        <time>2015-09-20T09:57:04.87Z</time>
      </trkpt>
      <trkpt lat="45.98462" lon="4.81714">
        <ele>242.699996948</ele>
        <time>2015-09-20T09:57:05.849Z</time>
      </trkpt>
      <trkpt lat="45.98466" lon="4.81721">
        <ele>242.399993896</ele>
        <time>2015-09-20T09:57:06.87Z</time>
      </trkpt>
      <trkpt lat="45.98472" lon="4.81727">
        <ele>241.800003052</ele>
        <time>2015-09-20T09:57:07.873Z</time>
      </trkpt>
      <trkpt lat="45.98478" lon="4.81733">
        <ele>241.399993896</ele>
        <time>2015-09-20T09:57:08.869Z</time>
      </trkpt>
      <trkpt lat="45.98485" lon="4.8174">
        <ele>241.300003052</ele>
        <time>2015-09-20T09:57:09.904Z</time>
      </trkpt>
      <trkpt lat="45.98492" lon="4.81747">
        <ele>241.100006104</ele>
        <time>2015-09-20T09:57:10.884Z</time>
      </trkpt>
      <trkpt lat="45.98498" lon="4.81754">
        <ele>241.199996948</ele>
        <time>2015-09-20T09:57:11.85Z</time>
      </trkpt>
      <trkpt lat="45.98504" lon="4.81762">
        <ele>240.800003052</ele>
        <time>2015-09-20T09:57:12.871Z</time>
      </trkpt>
      <trkpt lat="45.9851" lon="4.8177">
        <ele>240.300003052</ele>
        <time>2015-09-20T09:57:13.847Z</time>
      </trkpt>
      <trkpt lat="45.98516" lon="4.81778">
        <ele>239.899993896</ele>
        <time>2015-09-20T09:57:14.87Z</time>
      </trkpt>
      <trkpt lat="45.98522" lon="4.81787">
        <ele>239.600006104</ele>
        <time>2015-09-20T09:57:15.845Z</time>
      </trkpt>
      <trkpt lat="45.98529" lon="4.81795">
        <ele>239.300003052</ele>
        <time>2015-09-20T09:57:16.905Z</time>
      </trkpt>
      <trkpt lat="45.98535" lon="4.81801">
        <ele>238.699996948</ele>
        <time>2015-09-20T09:57:17.849Z</time>
      </trkpt>
      <trkpt lat="45.98541" lon="4.81806">
        <ele>238.399993896</ele>
        <time>2015-09-20T09:57:18.87Z</time>
      </trkpt>
      <trkpt lat="45.98547" lon="4.81808">
        <ele>238.399993896</ele>
        <time>2015-09-20T09:57:19.847Z</time>
      </trkpt>
      <trkpt lat="45.98553" lon="4.81807">
        <ele>238</ele>
        <time>2015-09-20T09:57:20.904Z</time>
      </trkpt>
      <trkpt lat="45.98559" lon="4.81804">
        <ele>237.600006104</ele>
        <time>2015-09-20T09:57:21.846Z</time>
      </trkpt>
      <trkpt lat="45.98564" lon="4.81798">
        <ele>237.5</ele>
        <time>2015-09-20T09:57:22.871Z</time>
      </trkpt>
      <trkpt lat="45.98568" lon="4.81791">
        <ele>237.5</ele>
        <time>2015-09-20T09:57:23.85Z</time>
      </trkpt>
      <trkpt lat="45.98572" lon="4.81785">
        <ele>237.100006104</ele>
        <time>2015-09-20T09:57:24.87Z</time>
      </trkpt>
      <trkpt lat="45.98577" lon="4.81778">
        <ele>236.899993896</ele>
        <time>2015-09-20T09:57:25.846Z</time>
      </trkpt>
      <trkpt lat="45.98581" lon="4.81772">
        <ele>237.100006104</ele>
        <time>2015-09-20T09:57:26.87Z</time>
      </trkpt>
      <trkpt lat="45.98586" lon="4.81767">
        <ele>237.199996948</ele>
        <time>2015-09-20T09:57:27.845Z</time>
      </trkpt>
      <trkpt lat="45.98592" lon="4.81765">
        <ele>237.5</ele>
        <time>2015-09-20T09:57:28.869Z</time>
      </trkpt>
      <trkpt lat="45.98598" lon="4.81763">
        <ele>237.399993896</ele>
        <time>2015-09-20T09:57:29.849Z</time>
      </trkpt>
      <trkpt lat="45.98603" lon="4.81762">
        <ele>237.300003052</ele>
        <time>2015-09-20T09:57:30.869Z</time>
      </trkpt>
      <trkpt lat="45.98608" lon="4.8176">
        <ele>237.5</ele>
        <time>2015-09-20T09:57:31.862Z</time>
      </trkpt>
      <trkpt lat="45.98614" lon="4.81758">
        <ele>237.399993896</ele>
        <time>2015-09-20T09:57:32.871Z</time>
      </trkpt>
      <trkpt lat="45.98619" lon="4.81756">
        <ele>237.199996948</ele>
        <time>2015-09-20T09:57:33.847Z</time>
      </trkpt>
      <trkpt lat="45.98624" lon="4.81755">
        <ele>237.5</ele>
        <time>2015-09-20T09:57:34.869Z</time>
      </trkpt>
      <trkpt lat="45.9863" lon="4.81753">
        <ele>237.300003052</ele>
        <time>2015-09-20T09:57:35.849Z</time>
      </trkpt>
      <trkpt lat="45.98635" lon="4.81751">
        <ele>236.800003052</ele>
        <time>2015-09-20T09:57:36.904Z</time>
      </trkpt>
      <trkpt lat="45.98641" lon="4.81748">
        <ele>236.699996948</ele>
        <time>2015-09-20T09:57:37.847Z</time>
      </trkpt>
      <trkpt lat="45.98645" lon="4.81746">
        <ele>236.399993896</ele>
        <time>2015-09-20T09:57:38.871Z</time>
      </trkpt>
      <trkpt lat="45.98651" lon="4.81744">
        <ele>236.300003052</ele>
        <time>2015-09-20T09:57:39.847Z</time>
      </trkpt>
      <trkpt lat="45.98655" lon="4.81741">
        <ele>236.100006104</ele>
        <time>2015-09-20T09:57:40.87Z</time>
      </trkpt>
      <trkpt lat="45.9866" lon="4.8174">
        <ele>236.5</ele>
        <time>2015-09-20T09:57:41.849Z</time>
      </trkpt>
      <trkpt lat="45.98666" lon="4.8174">
        <ele>236.300003052</ele>
        <time>2015-09-20T09:57:42.869Z</time>
      </trkpt>
      <trkpt lat="45.98672" lon="4.81739">
        <ele>236.300003052</ele>
        <time>2015-09-20T09:57:43.848Z</time>
      </trkpt>
      <trkpt lat="45.98677" lon="4.81738">
        <ele>236.399993896</ele>
        <time>2015-09-20T09:57:44.871Z</time>
      </trkpt>
      <trkpt lat="45.98682" lon="4.81737">
        <ele>236.399993896</ele>
        <time>2015-09-20T09:57:45.846Z</time>
      </trkpt>
      <trkpt lat="45.98687" lon="4.81735">
        <ele>236.399993896</ele>
        <time>2015-09-20T09:57:46.87Z</time>
      </trkpt>
      <trkpt lat="45.98692" lon="4.81734">
        <ele>236.699996948</ele>
        <time>2015-09-20T09:57:47.849Z</time>
      </trkpt>
      <trkpt lat="45.98697" lon="4.81732">
        <ele>236.399993896</ele>
        <time>2015-09-20T09:57:48.877Z</time>
      </trkpt>
      <trkpt lat="45.98702" lon="4.81731">
        <ele>236.800003052</ele>
        <time>2015-09-20T09:57:49.846Z</time>
      </trkpt>
      <trkpt lat="45.98707" lon="4.8173">
        <ele>237.199996948</ele>
        <time>2015-09-20T09:57:50.869Z</time>
      </trkpt>
      <trkpt lat="45.98712" lon="4.8173">
        <ele>238.100006104</ele>
        <time>2015-09-20T09:57:51.845Z</time>
      </trkpt>
      <trkpt lat="45.98717" lon="4.8173">
        <ele>237.899993896</ele>
        <time>2015-09-20T09:57:52.883Z</time>
      </trkpt>
      <trkpt lat="45.98723" lon="4.81732">
        <ele>237.600006104</ele>
        <time>2015-09-20T09:57:53.849Z</time>
      </trkpt>
      <trkpt lat="45.98727" lon="4.81735">
        <ele>238.199996948</ele>
        <time>2015-09-20T09:57:54.869Z</time>
      </trkpt>
      <trkpt lat="45.98731" lon="4.8174">
        <ele>238.199996948</ele>
        <time>2015-09-20T09:57:55.847Z</time>
      </trkpt>
      <trkpt lat="45.98735" lon="4.81745">
        <ele>238.300003052</ele>
        <time>2015-09-20T09:57:56.87Z</time>
      </trkpt>
      <trkpt lat="45.98738" lon="4.81751">
        <ele>237.699996948</ele>
        <time>2015-09-20T09:57:57.882Z</time>
      </trkpt>
      <trkpt lat="45.98742" lon="4.81758">
        <ele>238</ele>
        <time>2015-09-20T09:57:58.87Z</time>
      </trkpt>
      <trkpt lat="45.98745" lon="4.81764">
        <ele>237.199996948</ele>
        <time>2015-09-20T09:57:59.849Z</time>
      </trkpt>
      <trkpt lat="45.98749" lon="4.8177">
        <ele>237</ele>
        <time>2015-09-20T09:58:00.87Z</time>
      </trkpt>
      <trkpt lat="45.98753" lon="4.81777">
        <ele>237.199996948</ele>
        <time>2015-09-20T09:58:01.883Z</time>
      </trkpt>
      <trkpt lat="45.98756" lon="4.81784">
        <ele>237</ele>
        <time>2015-09-20T09:58:02.87Z</time>
      </trkpt>
      <trkpt lat="45.98759" lon="4.81791">
        <ele>237.100006104</ele>
        <time>2015-09-20T09:58:03.846Z</time>
      </trkpt>
      <trkpt lat="45.98763" lon="4.81798">
        <ele>237</ele>
        <time>2015-09-20T09:58:04.904Z</time>
      </trkpt>
      <trkpt lat="45.98766" lon="4.81806">
        <ele>237</ele>
        <time>2015-09-20T09:58:05.851Z</time>
      </trkpt>
      <trkpt lat="45.9877" lon="4.81813">
        <ele>236.600006104</ele>
        <time>2015-09-20T09:58:06.87Z</time>
      </trkpt>
      <trkpt lat="45.98773" lon="4.81821">
        <ele>236.5</ele>
        <time>2015-09-20T09:58:07.85Z</time>
      </trkpt>
      <trkpt lat="45.98777" lon="4.81829">
        <ele>236.300003052</ele>
        <time>2015-09-20T09:58:08.885Z</time>
      </trkpt>
      <trkpt lat="45.9878" lon="4.81837">
        <ele>236</ele>
        <time>2015-09-20T09:58:09.846Z</time>
      </trkpt>
      <trkpt lat="45.98784" lon="4.81846">
        <ele>235.600006104</ele>
        <time>2015-09-20T09:58:10.87Z</time>
      </trkpt>
      <trkpt lat="45.98788" lon="4.81855">
        <ele>235.300003052</ele>
        <time>2015-09-20T09:58:11.85Z</time>
      </trkpt>
      <trkpt lat="45.98792" lon="4.81864">
        <ele>235.300003052</ele>
        <time>2015-09-20T09:58:12.869Z</time>
      </trkpt>
      <trkpt lat="45.98795" lon="4.81873">
        <ele>235</ele>
        <time>2015-09-20T09:58:13.846Z</time>
      </trkpt>
      <trkpt lat="45.98798" lon="4.81883">
        <ele>234.699996948</ele>
        <time>2015-09-20T09:58:14.869Z</time>
      </trkpt>
      <trkpt lat="45.98801" lon="4.81892">
        <ele>234.300003052</ele>
        <time>2015-09-20T09:58:15.845Z</time>
      </trkpt>
      <trkpt lat="45.98804" lon="4.81902">
        <ele>234.300003052</ele>
        <time>2015-09-20T09:58:16.87Z</time>
      </trkpt>
      <trkpt lat="45.98806" lon="4.81912">
        <ele>234.199996948</ele>
        <time>2015-09-20T09:58:17.849Z</time>
      </trkpt>
      <trkpt lat="45.98808" lon="4.81922">
        <ele>234</ele>
        <time>2015-09-20T09:58:18.87Z</time>
      </trkpt>
      <trkpt lat="45.98809" lon="4.81932">
        <ele>233.699996948</ele>
        <time>2015-09-20T09:58:19.846Z</time>
      </trkpt>
      <trkpt lat="45.98811" lon="4.81942">
        <ele>233.600006104</ele>
        <time>2015-09-20T09:58:20.869Z</time>
      </trkpt>
      <trkpt lat="45.98812" lon="4.81951">
        <ele>233.800003052</ele>
        <time>2015-09-20T09:58:21.845Z</time>
      </trkpt>
      <trkpt lat="45.98814" lon="4.81961">
        <ele>233.800003052</ele>
        <time>2015-09-20T09:58:22.869Z</time>
      </trkpt>
      <trkpt lat="45.98815" lon="4.81969">
        <ele>233.5</ele>
        <time>2015-09-20T09:58:23.849Z</time>
      </trkpt>
      <trkpt lat="45.98817" lon="4.81978">
        <ele>233.300003052</ele>
        <time>2015-09-20T09:58:24.887Z</time>
      </trkpt>
      <trkpt lat="45.98818" lon="4.81987">
        <ele>233.399993896</ele>
        <time>2015-09-20T09:58:25.846Z</time>
      </trkpt>
      <trkpt lat="45.98819" lon="4.81996">
        <ele>233.399993896</ele>
        <time>2015-09-20T09:58:26.869Z</time>
      </trkpt>
      <trkpt lat="45.98821" lon="4.82005">
        <ele>233.399993896</ele>
        <time>2015-09-20T09:58:27.845Z</time>
      </trkpt>
      <trkpt lat="45.98822" lon="4.82013">
        <ele>233.300003052</ele>
        <time>2015-09-20T09:58:28.87Z</time>
      </trkpt>
      <trkpt lat="45.98824" lon="4.82022">
        <ele>233.300003052</ele>
        <time>2015-09-20T09:58:29.849Z</time>
      </trkpt>
      <trkpt lat="45.98825" lon="4.8203">
        <ele>233.5</ele>
        <time>2015-09-20T09:58:30.87Z</time>
      </trkpt>
      <trkpt lat="45.98826" lon="4.82039">
        <ele>234.100006104</ele>
        <time>2015-09-20T09:58:31.847Z</time>
      </trkpt>
      <trkpt lat="45.98827" lon="4.82047">
        <ele>234.100006104</ele>
        <time>2015-09-20T09:58:32.87Z</time>
      </trkpt>
      <trkpt lat="45.98828" lon="4.82056">
        <ele>234.100006104</ele>
        <time>2015-09-20T09:58:33.845Z</time>
      </trkpt>
      <trkpt lat="45.9883" lon="4.82065">
        <ele>234.199996948</ele>
        <time>2015-09-20T09:58:34.869Z</time>
      </trkpt>
      <trkpt lat="45.98831" lon="4.82073">
        <ele>234.5</ele>
        <time>2015-09-20T09:58:35.85Z</time>
      </trkpt>
      <trkpt lat="45.98832" lon="4.82082">
        <ele>234.600006104</ele>
        <time>2015-09-20T09:58:36.869Z</time>
      </trkpt>
      <trkpt lat="45.98834" lon="4.82091">
        <ele>234.699996948</ele>
        <time>2015-09-20T09:58:37.846Z</time>
      </trkpt>
      <trkpt lat="45.98836" lon="4.821">
        <ele>234.699996948</ele>
        <time>2015-09-20T09:58:38.87Z</time>
      </trkpt>
      <trkpt lat="45.98837" lon="4.82109">
        <ele>234.5</ele>
        <time>2015-09-20T09:58:39.846Z</time>
      </trkpt>
      <trkpt lat="45.98839" lon="4.82118">
        <ele>234.199996948</ele>
        <time>2015-09-20T09:58:40.883Z</time>
      </trkpt>
      <trkpt lat="45.9884" lon="4.82127">
        <ele>233.899993896</ele>
        <time>2015-09-20T09:58:41.849Z</time>
      </trkpt>
      <trkpt lat="45.98842" lon="4.82136">
        <ele>233.800003052</ele>
        <time>2015-09-20T09:58:42.869Z</time>
      </trkpt>
      <trkpt lat="45.98844" lon="4.82144">
        <ele>233.800003052</ele>
        <time>2015-09-20T09:58:43.846Z</time>
      </trkpt>
      <trkpt lat="45.98846" lon="4.82153">
        <ele>233.300003052</ele>
        <time>2015-09-20T09:58:44.908Z</time>
      </trkpt>
      <trkpt lat="45.98849" lon="4.82162">
        <ele>233.300003052</ele>
        <time>2015-09-20T09:58:45.845Z</time>
      </trkpt>
      <trkpt lat="45.98851" lon="4.8217">
        <ele>233.300003052</ele>
        <time>2015-09-20T09:58:46.869Z</time>
      </trkpt>
      <trkpt lat="45.98854" lon="4.82179">
        <ele>233.199996948</ele>
        <time>2015-09-20T09:58:47.849Z</time>
      </trkpt>
      <trkpt lat="45.98856" lon="4.82187">
        <ele>233.100006104</ele>
        <time>2015-09-20T09:58:48.869Z</time>
      </trkpt>
      <trkpt lat="45.98859" lon="4.82195">
        <ele>233.100006104</ele>
        <time>2015-09-20T09:58:49.846Z</time>
      </trkpt>
      <trkpt lat="45.98862" lon="4.82202">
        <ele>233.300003052</ele>
        <time>2015-09-20T09:58:50.87Z</time>
      </trkpt>
      <trkpt lat="45.98865" lon="4.8221">
        <ele>233.600006104</ele>
        <time>2015-09-20T09:58:51.845Z</time>
      </trkpt>
      <trkpt lat="45.98868" lon="4.82217">
        <ele>233.899993896</ele>
        <time>2015-09-20T09:58:52.869Z</time>
      </trkpt>
      <trkpt lat="45.98871" lon="4.82225">
        <ele>234.199996948</ele>
        <time>2015-09-20T09:58:53.849Z</time>
      </trkpt>
      <trkpt lat="45.98874" lon="4.82232">
        <ele>234.199996948</ele>
        <time>2015-09-20T09:58:54.891Z</time>
      </trkpt>
      <trkpt lat="45.98877" lon="4.82239">
        <ele>234.5</ele>
        <time>2015-09-20T09:58:55.848Z</time>
      </trkpt>
      <trkpt lat="45.9888" lon="4.82246">
        <ele>234.5</ele>
        <time>2015-09-20T09:58:56.884Z</time>
      </trkpt>
      <trkpt lat="45.98883" lon="4.82253">
        <ele>235</ele>
        <time>2015-09-20T09:58:57.847Z</time>
      </trkpt>
      <trkpt lat="45.98887" lon="4.8226">
        <ele>235.600006104</ele>
        <time>2015-09-20T09:58:58.871Z</time>
      </trkpt>
      <trkpt lat="45.9889" lon="4.82267">
        <ele>235.899993896</ele>
        <time>2015-09-20T09:58:59.851Z</time>
      </trkpt>
      <trkpt lat="45.98894" lon="4.82273">
        <ele>235.800003052</ele>
        <time>2015-09-20T09:59:00.87Z</time>
      </trkpt>
      <trkpt lat="45.98898" lon="4.82278">
        <ele>236</ele>
        <time>2015-09-20T09:59:01.846Z</time>
      </trkpt>
      <trkpt lat="45.98903" lon="4.82284">
        <ele>235.699996948</ele>
        <time>2015-09-20T09:59:02.869Z</time>
      </trkpt>
      <trkpt lat="45.98907" lon="4.82289">
        <ele>235.399993896</ele>
        <time>2015-09-20T09:59:03.845Z</time>
      </trkpt>
      <trkpt lat="45.98912" lon="4.82294">
        <ele>235.399993896</ele>
        <time>2015-09-20T09:59:04.869Z</time>
      </trkpt>
      <trkpt lat="45.98917" lon="4.82299">
        <ele>234.699996948</ele>
        <time>2015-09-20T09:59:05.848Z</time>
      </trkpt>
      <trkpt lat="45.98921" lon="4.82304">
        <ele>234.800003052</ele>
        <time>2015-09-20T09:59:06.869Z</time>
      </trkpt>
      <trkpt lat="45.98926" lon="4.82309">
        <ele>235</ele>
        <time>2015-09-20T09:59:07.849Z</time>
      </trkpt>
      <trkpt lat="45.9893" lon="4.82314">
        <ele>234.800003052</ele>
        <time>2015-09-20T09:59:08.87Z</time>
      </trkpt>
      <trkpt lat="45.98935" lon="4.8232">
        <ele>235</ele>
        <time>2015-09-20T09:59:09.844Z</time>
      </trkpt>
      <trkpt lat="45.9894" lon="4.82326">
        <ele>235.100006104</ele>
        <time>2015-09-20T09:59:10.934Z</time>
      </trkpt>
      <trkpt lat="45.98944" lon="4.82333">
        <ele>235.199996948</ele>
        <time>2015-09-20T09:59:11.849Z</time>
      </trkpt>
      <trkpt lat="45.98948" lon="4.82339">
        <ele>234.699996948</ele>
        <time>2015-09-20T09:59:12.87Z</time>
      </trkpt>
      <trkpt lat="45.98951" lon="4.82346">
        <ele>234.600006104</ele>
        <time>2015-09-20T09:59:13.846Z</time>
      </trkpt>
      <trkpt lat="45.98955" lon="4.82354">
        <ele>234.399993896</ele>
        <time>2015-09-20T09:59:14.869Z</time>
      </trkpt>
      <trkpt lat="45.98957" lon="4.82361">
        <ele>233.899993896</ele>
        <time>2015-09-20T09:59:15.845Z</time>
      </trkpt>
      <trkpt lat="45.9896" lon="4.82369">
        <ele>233.600006104</ele>
        <time>2015-09-20T09:59:16.869Z</time>
      </trkpt>
      <trkpt lat="45.98962" lon="4.82376">
        <ele>233.600006104</ele>
        <time>2015-09-20T09:59:17.864Z</time>
      </trkpt>
      <trkpt lat="45.98965" lon="4.82384">
        <ele>233.699996948</ele>
        <time>2015-09-20T09:59:18.869Z</time>
      </trkpt>
      <trkpt lat="45.98967" lon="4.82392">
        <ele>233.5</ele>
        <time>2015-09-20T09:59:19.846Z</time>
      </trkpt>
      <trkpt lat="45.98969" lon="4.82401">
        <ele>234</ele>
        <time>2015-09-20T09:59:20.905Z</time>
      </trkpt>
      <trkpt lat="45.98971" lon="4.82409">
        <ele>234</ele>
        <time>2015-09-20T09:59:21.874Z</time>
      </trkpt>
      <trkpt lat="45.98973" lon="4.82417">
        <ele>233.899993896</ele>
        <time>2015-09-20T09:59:22.872Z</time>
      </trkpt>
      <trkpt lat="45.98975" lon="4.82426">
        <ele>234.199996948</ele>
        <time>2015-09-20T09:59:23.85Z</time>
      </trkpt>
      <trkpt lat="45.98977" lon="4.82434">
        <ele>234</ele>
        <time>2015-09-20T09:59:24.87Z</time>
      </trkpt>
      <trkpt lat="45.98979" lon="4.82442">
        <ele>234</ele>
        <time>2015-09-20T09:59:25.846Z</time>
      </trkpt>
      <trkpt lat="45.98982" lon="4.82451">
        <ele>233.600006104</ele>
        <time>2015-09-20T09:59:26.87Z</time>
      </trkpt>
      <trkpt lat="45.98984" lon="4.82459">
        <ele>233.199996948</ele>
        <time>2015-09-20T09:59:27.846Z</time>
      </trkpt>
      <trkpt lat="45.98987" lon="4.82466">
        <ele>232.899993896</ele>
        <time>2015-09-20T09:59:28.87Z</time>
      </trkpt>
      <trkpt lat="45.9899" lon="4.82473">
        <ele>232.800003052</ele>
        <time>2015-09-20T09:59:29.849Z</time>
      </trkpt>
      <trkpt lat="45.98992" lon="4.8248">
        <ele>232.800003052</ele>
        <time>2015-09-20T09:59:30.87Z</time>
      </trkpt>
      <trkpt lat="45.98994" lon="4.82487">
        <ele>232.699996948</ele>
        <time>2015-09-20T09:59:31.846Z</time>
      </trkpt>
      <trkpt lat="45.98996" lon="4.82494">
        <ele>232.600006104</ele>
        <time>2015-09-20T09:59:32.934Z</time>
      </trkpt>
      <trkpt lat="45.98998" lon="4.825">
        <ele>232.399993896</ele>
        <time>2015-09-20T09:59:33.845Z</time>
      </trkpt>
      <trkpt lat="45.99001" lon="4.82507">
        <ele>232.399993896</ele>
        <time>2015-09-20T09:59:34.87Z</time>
      </trkpt>
      <trkpt lat="45.99004" lon="4.82513">
        <ele>232.5</ele>
        <time>2015-09-20T09:59:35.849Z</time>
      </trkpt>
      <trkpt lat="45.99007" lon="4.8252">
        <ele>232.600006104</ele>
        <time>2015-09-20T09:59:36.869Z</time>
      </trkpt>
      <trkpt lat="45.99011" lon="4.82526">
        <ele>232.899993896</ele>
        <time>2015-09-20T09:59:37.845Z</time>
      </trkpt>
      <trkpt lat="45.99015" lon="4.82532">
        <ele>233.100006104</ele>
        <time>2015-09-20T09:59:38.883Z</time>
      </trkpt>
      <trkpt lat="45.99019" lon="4.82538">
        <ele>232.899993896</ele>
        <time>2015-09-20T09:59:39.845Z</time>
      </trkpt>
      <trkpt lat="45.99024" lon="4.82543">
        <ele>233</ele>
        <time>2015-09-20T09:59:40.902Z</time>
      </trkpt>
      <trkpt lat="45.99028" lon="4.82548">
        <ele>232.899993896</ele>
        <time>2015-09-20T09:59:41.848Z</time>
      </trkpt>
      <trkpt lat="45.99033" lon="4.82553">
        <ele>233</ele>
        <time>2015-09-20T09:59:42.869Z</time>
      </trkpt>
      <trkpt lat="45.99038" lon="4.82557">
        <ele>233.100006104</ele>
        <time>2015-09-20T09:59:43.845Z</time>
      </trkpt>
      <trkpt lat="45.99043" lon="4.8256">
        <ele>233</ele>
        <time>2015-09-20T09:59:44.87Z</time>
      </trkpt>
      <trkpt lat="45.99048" lon="4.82563">
        <ele>232.800003052</ele>
        <time>2015-09-20T09:59:45.845Z</time>
      </trkpt>
      <trkpt lat="45.99054" lon="4.82565">
        <ele>233.199996948</ele>
        <time>2015-09-20T09:59:46.87Z</time>
      </trkpt>
      <trkpt lat="45.99058" lon="4.82567">
        <ele>233.5</ele>
        <time>2015-09-20T09:59:47.848Z</time>
      </trkpt>
      <trkpt lat="45.99063" lon="4.82568">
        <ele>233.699996948</ele>
        <time>2015-09-20T09:59:48.871Z</time>
      </trkpt>
      <trkpt lat="45.99068" lon="4.8257">
        <ele>233.800003052</ele>
        <time>2015-09-20T09:59:49.846Z</time>
      </trkpt>
      <trkpt lat="45.99074" lon="4.82576">
        <ele>234.100006104</ele>
        <time>2015-09-20T09:59:51.87Z</time>
      </trkpt>
      <trkpt lat="45.99076" lon="4.8258">
        <ele>234.300003052</ele>
        <time>2015-09-20T09:59:52.846Z</time>
      </trkpt>
      <trkpt lat="45.99075" lon="4.82589">
        <ele>234.100006104</ele>
        <time>2015-09-20T09:59:54.884Z</time>
      </trkpt>
      <trkpt lat="45.99073" lon="4.82593">
        <ele>234.100006104</ele>
        <time>2015-09-20T09:59:55.847Z</time>
      </trkpt>
      <trkpt lat="45.99069" lon="4.82602">
        <ele>234.100006104</ele>
        <time>2015-09-20T09:59:57.869Z</time>
      </trkpt>
      <trkpt lat="45.99067" lon="4.82607">
        <ele>234.300003052</ele>
        <time>2015-09-20T09:59:58.846Z</time>
      </trkpt>
      <trkpt lat="45.99062" lon="4.82617">
        <ele>235.100006104</ele>
        <time>2015-09-20T10:00:00.911Z</time>
      </trkpt>
      <trkpt lat="45.9906" lon="4.82622">
        <ele>235.199996948</ele>
        <time>2015-09-20T10:00:01.846Z</time>
      </trkpt>
      <trkpt lat="45.99056" lon="4.82632">
        <ele>236.100006104</ele>
        <time>2015-09-20T10:00:03.869Z</time>
      </trkpt>
      <trkpt lat="45.99054" lon="4.82637">
        <ele>236.399993896</ele>
        <time>2015-09-20T10:00:04.844Z</time>
      </trkpt>
      <trkpt lat="45.99049" lon="4.82646">
        <ele>236.800003052</ele>
        <time>2015-09-20T10:00:06.87Z</time>
      </trkpt>
      <trkpt lat="45.99047" lon="4.82651">
        <ele>236.800003052</ele>
        <time>2015-09-20T10:00:07.848Z</time>
      </trkpt>
      <trkpt lat="45.99042" lon="4.8266">
        <ele>237.300003052</ele>
        <time>2015-09-20T10:00:09.869Z</time>
      </trkpt>
      <trkpt lat="45.9904" lon="4.82665">
        <ele>237.199996948</ele>
        <time>2015-09-20T10:00:10.882Z</time>
      </trkpt>
      <trkpt lat="45.99036" lon="4.82674">
        <ele>237.199996948</ele>
        <time>2015-09-20T10:00:12.869Z</time>
      </trkpt>
      <trkpt lat="45.99034" lon="4.82679">
        <ele>237.5</ele>
        <time>2015-09-20T10:00:13.845Z</time>
      </trkpt>
      <trkpt lat="45.99029" lon="4.82688">
        <ele>238.300003052</ele>
        <time>2015-09-20T10:00:15.895Z</time>
      </trkpt>
      <trkpt lat="45.99027" lon="4.82692">
        <ele>238.699996948</ele>
        <time>2015-09-20T10:00:16.844Z</time>
      </trkpt>
      <trkpt lat="45.99024" lon="4.82702">
        <ele>238.399993896</ele>
        <time>2015-09-20T10:00:18.87Z</time>
      </trkpt>
      <trkpt lat="45.99022" lon="4.82706">
        <ele>238.5</ele>
        <time>2015-09-20T10:00:19.846Z</time>
      </trkpt>
      <trkpt lat="45.99018" lon="4.82715">
        <ele>238.800003052</ele>
        <time>2015-09-20T10:00:21.87Z</time>
      </trkpt>
      <trkpt lat="45.99016" lon="4.82719">
        <ele>238.800003052</ele>
        <time>2015-09-20T10:00:22.845Z</time>
      </trkpt>
      <trkpt lat="45.99013" lon="4.82726">
        <ele>239.699996948</ele>
        <time>2015-09-20T10:00:24.894Z</time>
      </trkpt>
      <trkpt lat="45.99011" lon="4.82731">
        <ele>239.800003052</ele>
        <time>2015-09-20T10:00:25.846Z</time>
      </trkpt>
      <trkpt lat="45.99007" lon="4.82739">
        <ele>240.600006104</ele>
        <time>2015-09-20T10:00:27.869Z</time>
      </trkpt>
      <trkpt lat="45.99006" lon="4.82743">
        <ele>241.100006104</ele>
        <time>2015-09-20T10:00:28.884Z</time>
      </trkpt>
      <trkpt lat="45.99002" lon="4.82752">
        <ele>240.800003052</ele>
        <time>2015-09-20T10:00:30.881Z</time>
      </trkpt>
      <trkpt lat="45.99001" lon="4.82756">
        <ele>240.600006104</ele>
        <time>2015-09-20T10:00:31.86Z</time>
      </trkpt>
      <trkpt lat="45.98998" lon="4.82764">
        <ele>240.600006104</ele>
        <time>2015-09-20T10:00:33.869Z</time>
      </trkpt>
      <trkpt lat="45.98997" lon="4.82768">
        <ele>240.5</ele>
        <time>2015-09-20T10:00:34.845Z</time>
      </trkpt>
      <trkpt lat="45.98992" lon="4.82779">
        <ele>240.899993896</ele>
        <time>2015-09-20T10:00:37.869Z</time>
      </trkpt>
      <trkpt lat="45.9899" lon="4.82782">
        <ele>241.100006104</ele>
        <time>2015-09-20T10:00:38.846Z</time>
      </trkpt>
      <trkpt lat="45.98986" lon="4.82793">
        <ele>241.300003052</ele>
        <time>2015-09-20T10:00:41.97Z</time>
      </trkpt>
      <trkpt lat="45.98985" lon="4.82796">
        <ele>241.300003052</ele>
        <time>2015-09-20T10:00:42.845Z</time>
      </trkpt>
      <trkpt lat="45.98979" lon="4.82806">
        <ele>243.399993896</ele>
        <time>2015-09-20T10:00:45.877Z</time>
      </trkpt>
      <trkpt lat="45.98978" lon="4.82809">
        <ele>243.899993896</ele>
        <time>2015-09-20T10:00:46.845Z</time>
      </trkpt>
      <trkpt lat="45.98974" lon="4.82819">
        <ele>245.100006104</ele>
        <time>2015-09-20T10:00:49.869Z</time>
      </trkpt>
      <trkpt lat="45.98972" lon="4.82822">
        <ele>245.600006104</ele>
        <time>2015-09-20T10:00:50.845Z</time>
      </trkpt>
      <trkpt lat="45.98968" lon="4.8283">
        <ele>246.300003052</ele>
        <time>2015-09-20T10:00:53.874Z</time>
      </trkpt>
      <trkpt lat="45.98966" lon="4.82833">
        <ele>246.5</ele>
        <time>2015-09-20T10:00:54.894Z</time>
      </trkpt>
      <trkpt lat="45.98963" lon="4.82842">
        <ele>247.699996948</ele>
        <time>2015-09-20T10:00:57.887Z</time>
      </trkpt>
      <trkpt lat="45.98962" lon="4.82846">
        <ele>248.199996948</ele>
        <time>2015-09-20T10:00:58.845Z</time>
      </trkpt>
      <trkpt lat="45.98957" lon="4.82854">
        <ele>249.199996948</ele>
        <time>2015-09-20T10:01:02.05Z</time>
      </trkpt>
      <trkpt lat="45.98956" lon="4.82857">
        <ele>249.600006104</ele>
        <time>2015-09-20T10:01:02.879Z</time>
      </trkpt>
      <trkpt lat="45.98953" lon="4.82865">
        <ele>249.800003052</ele>
        <time>2015-09-20T10:01:06.013Z</time>
      </trkpt>
      <trkpt lat="45.98952" lon="4.82869">
        <ele>250.100006104</ele>
        <time>2015-09-20T10:01:06.875Z</time>
      </trkpt>
      <trkpt lat="45.98948" lon="4.82878">
        <ele>250.699996948</ele>
        <time>2015-09-20T10:01:09.93Z</time>
      </trkpt>
      <trkpt lat="45.98946" lon="4.8288">
        <ele>250.800003052</ele>
        <time>2015-09-20T10:01:10.926Z</time>
      </trkpt>
      <trkpt lat="45.98942" lon="4.82889">
        <ele>251.399993896</ele>
        <time>2015-09-20T10:01:13.883Z</time>
      </trkpt>
      <trkpt lat="45.98941" lon="4.82892">
        <ele>251.199996948</ele>
        <time>2015-09-20T10:01:14.844Z</time>
      </trkpt>
      <trkpt lat="45.98938" lon="4.82901">
        <ele>251.699996948</ele>
        <time>2015-09-20T10:01:17.872Z</time>
      </trkpt>
      <trkpt lat="45.98936" lon="4.82904">
        <ele>251.5</ele>
        <time>2015-09-20T10:01:18.845Z</time>
      </trkpt>
      <trkpt lat="45.98931" lon="4.82911">
        <ele>252</ele>
        <time>2015-09-20T10:01:21.869Z</time>
      </trkpt>
      <trkpt lat="45.9893" lon="4.82914">
        <ele>252.100006104</ele>
        <time>2015-09-20T10:01:22.845Z</time>
      </trkpt>
      <trkpt lat="45.98928" lon="4.82924">
        <ele>252.5</ele>
        <time>2015-09-20T10:01:25.872Z</time>
      </trkpt>
      <trkpt lat="45.98927" lon="4.82927">
        <ele>252.600006104</ele>
        <time>2015-09-20T10:01:26.845Z</time>
      </trkpt>
      <trkpt lat="45.98923" lon="4.82935">
        <ele>253.699996948</ele>
        <time>2015-09-20T10:01:29.872Z</time>
      </trkpt>
      <trkpt lat="45.98921" lon="4.82937">
        <ele>253.300003052</ele>
        <time>2015-09-20T10:01:30.845Z</time>
      </trkpt>
      <trkpt lat="45.98917" lon="4.82946">
        <ele>253.699996948</ele>
        <time>2015-09-20T10:01:33.872Z</time>
      </trkpt>
      <trkpt lat="45.98916" lon="4.82949">
        <ele>254.300003052</ele>
        <time>2015-09-20T10:01:34.862Z</time>
      </trkpt>
      <trkpt lat="45.98912" lon="4.82958">
        <ele>254.800003052</ele>
        <time>2015-09-20T10:01:37.87Z</time>
      </trkpt>
      <trkpt lat="45.98911" lon="4.8296">
        <ele>254.800003052</ele>
        <time>2015-09-20T10:01:38.881Z</time>
      </trkpt>
      <trkpt lat="45.98905" lon="4.82967">
        <ele>255.199996948</ele>
        <time>2015-09-20T10:01:41.873Z</time>
      </trkpt>
      <trkpt lat="45.98903" lon="4.8297">
        <ele>255.600006104</ele>
        <time>2015-09-20T10:01:42.84Z</time>
      </trkpt>
      <trkpt lat="45.98898" lon="4.82976">
        <ele>256.899993896</ele>
        <time>2015-09-20T10:01:45.869Z</time>
      </trkpt>
      <trkpt lat="45.98896" lon="4.82977">
        <ele>257</ele>
        <time>2015-09-20T10:01:46.844Z</time>
      </trkpt>
      <trkpt lat="45.98889" lon="4.8298">
        <ele>257.600006104</ele>
        <time>2015-09-20T10:01:49.869Z</time>
      </trkpt>
      <trkpt lat="45.98887" lon="4.82982">
        <ele>257.700012207</ele>
        <time>2015-09-20T10:01:50.844Z</time>
      </trkpt>
      <trkpt lat="45.98881" lon="4.82988">
        <ele>258.5</ele>
        <time>2015-09-20T10:01:53.904Z</time>
      </trkpt>
      <trkpt lat="45.98879" lon="4.82989">
        <ele>258.600006104</ele>
        <time>2015-09-20T10:01:54.845Z</time>
      </trkpt>
      <trkpt lat="45.98873" lon="4.82994">
        <ele>259</ele>
        <time>2015-09-20T10:01:57.868Z</time>
      </trkpt>
      <trkpt lat="45.98871" lon="4.82996">
        <ele>259.399993896</ele>
        <time>2015-09-20T10:01:58.846Z</time>
      </trkpt>
      <trkpt lat="45.98864" lon="4.83001">
        <ele>259.899993896</ele>
        <time>2015-09-20T10:02:01.869Z</time>
      </trkpt>
      <trkpt lat="45.98862" lon="4.83002">
        <ele>260.100006104</ele>
        <time>2015-09-20T10:02:02.873Z</time>
      </trkpt>
      <trkpt lat="45.98855" lon="4.83007">
        <ele>260.399993896</ele>
        <time>2015-09-20T10:02:05.874Z</time>
      </trkpt>
      <trkpt lat="45.98853" lon="4.83009">
        <ele>260.299987793</ele>
        <time>2015-09-20T10:02:06.86Z</time>
      </trkpt>
      <trkpt lat="45.98846" lon="4.83016">
        <ele>260.899993896</ele>
        <time>2015-09-20T10:02:09.868Z</time>
      </trkpt>
      <trkpt lat="45.98844" lon="4.83017">
        <ele>261.100006104</ele>
        <time>2015-09-20T10:02:10.844Z</time>
      </trkpt>
      <trkpt lat="45.98837" lon="4.83023">
        <ele>262</ele>
        <time>2015-09-20T10:02:13.869Z</time>
      </trkpt>
      <trkpt lat="45.98834" lon="4.83025">
        <ele>262.399993896</ele>
        <time>2015-09-20T10:02:14.844Z</time>
      </trkpt>
      <trkpt lat="45.98827" lon="4.83029">
        <ele>261.899993896</ele>
        <time>2015-09-20T10:02:17.917Z</time>
      </trkpt>
      <trkpt lat="45.98824" lon="4.83031">
        <ele>261.399993896</ele>
        <time>2015-09-20T10:02:18.844Z</time>
      </trkpt>
      <trkpt lat="45.98817" lon="4.83035">
        <ele>262.100006104</ele>
        <time>2015-09-20T10:02:20.868Z</time>
      </trkpt>
      <trkpt lat="45.98814" lon="4.83038">
        <ele>262.200012207</ele>
        <time>2015-09-20T10:02:21.845Z</time>
      </trkpt>
      <trkpt lat="45.98809" lon="4.83043">
        <ele>262.299987793</ele>
        <time>2015-09-20T10:02:23.872Z</time>
      </trkpt>
      <trkpt lat="45.98806" lon="4.83046">
        <ele>262.399993896</ele>
        <time>2015-09-20T10:02:24.846Z</time>
      </trkpt>
      <trkpt lat="45.98798" lon="4.83052">
        <ele>262.100006104</ele>
        <time>2015-09-20T10:02:27.868Z</time>
      </trkpt>
      <trkpt lat="45.98795" lon="4.83055">
        <ele>262.299987793</ele>
        <time>2015-09-20T10:02:28.867Z</time>
      </trkpt>
      <trkpt lat="45.9879" lon="4.8306">
        <ele>262.5</ele>
        <time>2015-09-20T10:02:30.884Z</time>
      </trkpt>
      <trkpt lat="45.98787" lon="4.83062">
        <ele>262.399993896</ele>
        <time>2015-09-20T10:02:31.888Z</time>
      </trkpt>
      <trkpt lat="45.98781" lon="4.83066">
        <ele>262.600006104</ele>
        <time>2015-09-20T10:02:33.874Z</time>
      </trkpt>
      <trkpt lat="45.98777" lon="4.83068">
        <ele>262.700012207</ele>
        <time>2015-09-20T10:02:34.844Z</time>
      </trkpt>
      <trkpt lat="45.98771" lon="4.83074">
        <ele>262.799987793</ele>
        <time>2015-09-20T10:02:36.868Z</time>
      </trkpt>
      <trkpt lat="45.98768" lon="4.83076">
        <ele>262.700012207</ele>
        <time>2015-09-20T10:02:37.86Z</time>
      </trkpt>
      <trkpt lat="45.98763" lon="4.83081">
        <ele>263.200012207</ele>
        <time>2015-09-20T10:02:39.876Z</time>
      </trkpt>
      <trkpt lat="45.9876" lon="4.83084">
        <ele>263.100006104</ele>
        <time>2015-09-20T10:02:40.845Z</time>
      </trkpt>
      <trkpt lat="45.98754" lon="4.83089">
        <ele>263.100006104</ele>
        <time>2015-09-20T10:02:42.917Z</time>
      </trkpt>
      <trkpt lat="45.98751" lon="4.83092">
        <ele>263.200012207</ele>
        <time>2015-09-20T10:02:43.841Z</time>
      </trkpt>
      <trkpt lat="45.98744" lon="4.83097">
        <ele>264</ele>
        <time>2015-09-20T10:02:45.868Z</time>
      </trkpt>
      <trkpt lat="45.98741" lon="4.831">
        <ele>264</ele>
        <time>2015-09-20T10:02:46.844Z</time>
      </trkpt>
      <trkpt lat="45.98735" lon="4.83104">
        <ele>264.600006104</ele>
        <time>2015-09-20T10:02:48.934Z</time>
      </trkpt>
      <trkpt lat="45.98732" lon="4.83107">
        <ele>265</ele>
        <time>2015-09-20T10:02:49.845Z</time>
      </trkpt>
      <trkpt lat="45.98727" lon="4.83112">
        <ele>265.299987793</ele>
        <time>2015-09-20T10:02:51.872Z</time>
      </trkpt>
      <trkpt lat="45.98723" lon="4.83115">
        <ele>265.299987793</ele>
        <time>2015-09-20T10:02:52.844Z</time>
      </trkpt>
      <trkpt lat="45.98716" lon="4.8312">
        <ele>265.5</ele>
        <time>2015-09-20T10:02:54.868Z</time>
      </trkpt>
      <trkpt lat="45.98712" lon="4.83123">
        <ele>265.600006104</ele>
        <time>2015-09-20T10:02:55.845Z</time>
      </trkpt>
      <trkpt lat="45.98708" lon="4.83126">
        <ele>265.899993896</ele>
        <time>2015-09-20T10:02:56.929Z</time>
      </trkpt>
      <trkpt lat="45.98704" lon="4.83129">
        <ele>266.200012207</ele>
        <time>2015-09-20T10:02:57.843Z</time>
      </trkpt>
      <trkpt lat="45.987" lon="4.83132">
        <ele>266.200012207</ele>
        <time>2015-09-20T10:02:58.869Z</time>
      </trkpt>
      <trkpt lat="45.98696" lon="4.83135">
        <ele>266.399993896</ele>
        <time>2015-09-20T10:02:59.848Z</time>
      </trkpt>
      <trkpt lat="45.98692" lon="4.83139">
        <ele>266.5</ele>
        <time>2015-09-20T10:03:00.868Z</time>
      </trkpt>
      <trkpt lat="45.98688" lon="4.83142">
        <ele>266.700012207</ele>
        <time>2015-09-20T10:03:01.845Z</time>
      </trkpt>
      <trkpt lat="45.9868" lon="4.83148">
        <ele>266.399993896</ele>
        <time>2015-09-20T10:03:03.868Z</time>
      </trkpt>
      <trkpt lat="45.98676" lon="4.83151">
        <ele>266.200012207</ele>
        <time>2015-09-20T10:03:04.845Z</time>
      </trkpt>
      <trkpt lat="45.98672" lon="4.83155">
        <ele>266.5</ele>
        <time>2015-09-20T10:03:05.871Z</time>
      </trkpt>
      <trkpt lat="45.98667" lon="4.83158">
        <ele>267</ele>
        <time>2015-09-20T10:03:06.844Z</time>
      </trkpt>
      <trkpt lat="45.98663" lon="4.83161">
        <ele>267.200012207</ele>
        <time>2015-09-20T10:03:07.944Z</time>
      </trkpt>
      <trkpt lat="45.98659" lon="4.83165">
        <ele>267.299987793</ele>
        <time>2015-09-20T10:03:08.844Z</time>
      </trkpt>
      <trkpt lat="45.98655" lon="4.83168">
        <ele>266.899993896</ele>
        <time>2015-09-20T10:03:09.868Z</time>
      </trkpt>
      <trkpt lat="45.98651" lon="4.83171">
        <ele>266.899993896</ele>
        <time>2015-09-20T10:03:10.844Z</time>
      </trkpt>
      <trkpt lat="45.98647" lon="4.83175">
        <ele>267.200012207</ele>
        <time>2015-09-20T10:03:11.871Z</time>
      </trkpt>
      <trkpt lat="45.98643" lon="4.83179">
        <ele>266.899993896</ele>
        <time>2015-09-20T10:03:12.844Z</time>
      </trkpt>
      <trkpt lat="45.98639" lon="4.83182">
        <ele>266.799987793</ele>
        <time>2015-09-20T10:03:13.869Z</time>
      </trkpt>
      <trkpt lat="45.98635" lon="4.83187">
        <ele>266.5</ele>
        <time>2015-09-20T10:03:14.844Z</time>
      </trkpt>
      <trkpt lat="45.98631" lon="4.83191">
        <ele>266.100006104</ele>
        <time>2015-09-20T10:03:15.868Z</time>
      </trkpt>
      <trkpt lat="45.98627" lon="4.83195">
        <ele>266.299987793</ele>
        <time>2015-09-20T10:03:16.844Z</time>
      </trkpt>
      <trkpt lat="45.98623" lon="4.832">
        <ele>266.399993896</ele>
        <time>2015-09-20T10:03:17.924Z</time>
      </trkpt>
      <trkpt lat="45.98619" lon="4.83205">
        <ele>266.200012207</ele>
        <time>2015-09-20T10:03:18.844Z</time>
      </trkpt>
      <trkpt lat="45.98616" lon="4.8321">
        <ele>266.200012207</ele>
        <time>2015-09-20T10:03:19.883Z</time>
      </trkpt>
      <trkpt lat="45.98612" lon="4.83215">
        <ele>266.200012207</ele>
        <time>2015-09-20T10:03:20.844Z</time>
      </trkpt>
      <trkpt lat="45.98608" lon="4.83219">
        <ele>266</ele>
        <time>2015-09-20T10:03:21.868Z</time>
      </trkpt>
      <trkpt lat="45.98604" lon="4.83224">
        <ele>266</ele>
        <time>2015-09-20T10:03:22.867Z</time>
      </trkpt>
      <trkpt lat="45.986" lon="4.8323">
        <ele>265.899993896</ele>
        <time>2015-09-20T10:03:23.871Z</time>
      </trkpt>
      <trkpt lat="45.98596" lon="4.83235">
        <ele>266.100006104</ele>
        <time>2015-09-20T10:03:24.844Z</time>
      </trkpt>
      <trkpt lat="45.98592" lon="4.8324">
        <ele>266.200012207</ele>
        <time>2015-09-20T10:03:25.87Z</time>
      </trkpt>
      <trkpt lat="45.98589" lon="4.83246">
        <ele>266.100006104</ele>
        <time>2015-09-20T10:03:26.844Z</time>
      </trkpt>
      <trkpt lat="45.98585" lon="4.83252">
        <ele>266.100006104</ele>
        <time>2015-09-20T10:03:27.918Z</time>
      </trkpt>
      <trkpt lat="45.98581" lon="4.83258">
        <ele>266.399993896</ele>
        <time>2015-09-20T10:03:28.844Z</time>
      </trkpt>
      <trkpt lat="45.98577" lon="4.83263">
        <ele>266.399993896</ele>
        <time>2015-09-20T10:03:29.871Z</time>
      </trkpt>
      <trkpt lat="45.98573" lon="4.83268">
        <ele>266.399993896</ele>
        <time>2015-09-20T10:03:30.844Z</time>
      </trkpt>
      <trkpt lat="45.98569" lon="4.83273">
        <ele>266.299987793</ele>
        <time>2015-09-20T10:03:31.905Z</time>
      </trkpt>
      <trkpt lat="45.98565" lon="4.83278">
        <ele>266.5</ele>
        <time>2015-09-20T10:03:32.844Z</time>
      </trkpt>
      <trkpt lat="45.98561" lon="4.83283">
        <ele>266.399993896</ele>
        <time>2015-09-20T10:03:33.868Z</time>
      </trkpt>
      <trkpt lat="45.98558" lon="4.83289">
        <ele>266.399993896</ele>
        <time>2015-09-20T10:03:34.843Z</time>
      </trkpt>
      <trkpt lat="45.98555" lon="4.83294">
        <ele>266.299987793</ele>
        <time>2015-09-20T10:03:35.885Z</time>
      </trkpt>
      <trkpt lat="45.98551" lon="4.83299">
        <ele>265.799987793</ele>
        <time>2015-09-20T10:03:36.843Z</time>
      </trkpt>
      <trkpt lat="45.98547" lon="4.83304">
        <ele>265.700012207</ele>
        <time>2015-09-20T10:03:37.914Z</time>
      </trkpt>
      <trkpt lat="45.98543" lon="4.83309">
        <ele>266.100006104</ele>
        <time>2015-09-20T10:03:38.844Z</time>
      </trkpt>
      <trkpt lat="45.9854" lon="4.83315">
        <ele>265.5</ele>
        <time>2015-09-20T10:03:39.869Z</time>
      </trkpt>
      <trkpt lat="45.98536" lon="4.8332">
        <ele>265.299987793</ele>
        <time>2015-09-20T10:03:40.844Z</time>
      </trkpt>
      <trkpt lat="45.98532" lon="4.83325">
        <ele>265.399993896</ele>
        <time>2015-09-20T10:03:41.871Z</time>
      </trkpt>
      <trkpt lat="45.98528" lon="4.83331">
        <ele>265.100006104</ele>
        <time>2015-09-20T10:03:42.843Z</time>
      </trkpt>
      <trkpt lat="45.98524" lon="4.83336">
        <ele>264.899993896</ele>
        <time>2015-09-20T10:03:43.869Z</time>
      </trkpt>
      <trkpt lat="45.9852" lon="4.83342">
        <ele>265.299987793</ele>
        <time>2015-09-20T10:03:44.843Z</time>
      </trkpt>
      <trkpt lat="45.98516" lon="4.83348">
        <ele>265.399993896</ele>
        <time>2015-09-20T10:03:45.895Z</time>
      </trkpt>
      <trkpt lat="45.98511" lon="4.83353">
        <ele>265.299987793</ele>
        <time>2015-09-20T10:03:46.845Z</time>
      </trkpt>
      <trkpt lat="45.98507" lon="4.83359">
        <ele>265.299987793</ele>
        <time>2015-09-20T10:03:47.904Z</time>
      </trkpt>
      <trkpt lat="45.98503" lon="4.83365">
        <ele>265.100006104</ele>
        <time>2015-09-20T10:03:48.845Z</time>
      </trkpt>
      <trkpt lat="45.98498" lon="4.83372">
        <ele>264.700012207</ele>
        <time>2015-09-20T10:03:49.87Z</time>
      </trkpt>
      <trkpt lat="45.98494" lon="4.83379">
        <ele>264.200012207</ele>
        <time>2015-09-20T10:03:50.844Z</time>
      </trkpt>
      <trkpt lat="45.98489" lon="4.83386">
        <ele>264.600006104</ele>
        <time>2015-09-20T10:03:51.868Z</time>
      </trkpt>
      <trkpt lat="45.98484" lon="4.83393">
        <ele>264.399993896</ele>
        <time>2015-09-20T10:03:52.844Z</time>
      </trkpt>
      <trkpt lat="45.98479" lon="4.83399">
        <ele>264.200012207</ele>
        <time>2015-09-20T10:03:53.883Z</time>
      </trkpt>
      <trkpt lat="45.98474" lon="4.83406">
        <ele>264.399993896</ele>
        <time>2015-09-20T10:03:54.844Z</time>
      </trkpt>
      <trkpt lat="45.98469" lon="4.83413">
        <ele>264.299987793</ele>
        <time>2015-09-20T10:03:55.869Z</time>
      </trkpt>
      <trkpt lat="45.98464" lon="4.8342">
        <ele>264.200012207</ele>
        <time>2015-09-20T10:03:56.859Z</time>
      </trkpt>
      <trkpt lat="45.98459" lon="4.83427">
        <ele>264</ele>
        <time>2015-09-20T10:03:57.904Z</time>
      </trkpt>
      <trkpt lat="45.98454" lon="4.83434">
        <ele>264.100006104</ele>
        <time>2015-09-20T10:03:58.844Z</time>
      </trkpt>
      <trkpt lat="45.98449" lon="4.83441">
        <ele>263.899993896</ele>
        <time>2015-09-20T10:03:59.871Z</time>
      </trkpt>
      <trkpt lat="45.98445" lon="4.83447">
        <ele>263.600006104</ele>
        <time>2015-09-20T10:04:00.859Z</time>
      </trkpt>
      <trkpt lat="45.98439" lon="4.83453">
        <ele>264.100006104</ele>
        <time>2015-09-20T10:04:01.871Z</time>
      </trkpt>
      <trkpt lat="45.98435" lon="4.83459">
        <ele>264.399993896</ele>
        <time>2015-09-20T10:04:02.845Z</time>
      </trkpt>
      <trkpt lat="45.9843" lon="4.83465">
        <ele>264.399993896</ele>
        <time>2015-09-20T10:04:03.87Z</time>
      </trkpt>
      <trkpt lat="45.98425" lon="4.83471">
        <ele>264.100006104</ele>
        <time>2015-09-20T10:04:04.845Z</time>
      </trkpt>
      <trkpt lat="45.9842" lon="4.83478">
        <ele>264</ele>
        <time>2015-09-20T10:04:05.871Z</time>
      </trkpt>
      <trkpt lat="45.98415" lon="4.83484">
        <ele>264.399993896</ele>
        <time>2015-09-20T10:04:06.844Z</time>
      </trkpt>
      <trkpt lat="45.98411" lon="4.8349">
        <ele>264.299987793</ele>
        <time>2015-09-20T10:04:07.944Z</time>
      </trkpt>
      <trkpt lat="45.98406" lon="4.83497">
        <ele>264.399993896</ele>
        <time>2015-09-20T10:04:08.844Z</time>
      </trkpt>
      <trkpt lat="45.98401" lon="4.83504">
        <ele>264.399993896</ele>
        <time>2015-09-20T10:04:09.869Z</time>
      </trkpt>
      <trkpt lat="45.98396" lon="4.8351">
        <ele>264.600006104</ele>
        <time>2015-09-20T10:04:10.843Z</time>
      </trkpt>
      <trkpt lat="45.98392" lon="4.83517">
        <ele>264.399993896</ele>
        <time>2015-09-20T10:04:11.871Z</time>
      </trkpt>
      <trkpt lat="45.98387" lon="4.83523">
        <ele>264.600006104</ele>
        <time>2015-09-20T10:04:12.844Z</time>
      </trkpt>
      <trkpt lat="45.98383" lon="4.8353">
        <ele>264.799987793</ele>
        <time>2015-09-20T10:04:13.869Z</time>
      </trkpt>
      <trkpt lat="45.98378" lon="4.83535">
        <ele>264.799987793</ele>
        <time>2015-09-20T10:04:14.843Z</time>
      </trkpt>
      <trkpt lat="45.98374" lon="4.8354">
        <ele>264.799987793</ele>
        <time>2015-09-20T10:04:15.869Z</time>
      </trkpt>
      <trkpt lat="45.9837" lon="4.83546">
        <ele>264.700012207</ele>
        <time>2015-09-20T10:04:16.827Z</time>
      </trkpt>
      <trkpt lat="45.98366" lon="4.83552">
        <ele>264.899993896</ele>
        <time>2015-09-20T10:04:17.954Z</time>
      </trkpt>
      <trkpt lat="45.98361" lon="4.83558">
        <ele>265</ele>
        <time>2015-09-20T10:04:18.844Z</time>
      </trkpt>
      <trkpt lat="45.98357" lon="4.83563">
        <ele>265.200012207</ele>
        <time>2015-09-20T10:04:19.873Z</time>
      </trkpt>
      <trkpt lat="45.98353" lon="4.83569">
        <ele>265.299987793</ele>
        <time>2015-09-20T10:04:20.844Z</time>
      </trkpt>
      <trkpt lat="45.98348" lon="4.83575">
        <ele>265.399993896</ele>
        <time>2015-09-20T10:04:21.868Z</time>
      </trkpt>
      <trkpt lat="45.98344" lon="4.83581">
        <ele>265.5</ele>
        <time>2015-09-20T10:04:22.844Z</time>
      </trkpt>
      <trkpt lat="45.9834" lon="4.83587">
        <ele>265.5</ele>
        <time>2015-09-20T10:04:23.872Z</time>
      </trkpt>
      <trkpt lat="45.98336" lon="4.83593">
        <ele>266.100006104</ele>
        <time>2015-09-20T10:04:24.844Z</time>
      </trkpt>
      <trkpt lat="45.98332" lon="4.83598">
        <ele>266.600006104</ele>
        <time>2015-09-20T10:04:25.87Z</time>
      </trkpt>
      <trkpt lat="45.98328" lon="4.83604">
        <ele>266.799987793</ele>
        <time>2015-09-20T10:04:26.84Z</time>
      </trkpt>
      <trkpt lat="45.98324" lon="4.8361">
        <ele>266.600006104</ele>
        <time>2015-09-20T10:04:27.869Z</time>
      </trkpt>
      <trkpt lat="45.9832" lon="4.83616">
        <ele>266.5</ele>
        <time>2015-09-20T10:04:28.844Z</time>
      </trkpt>
      <trkpt lat="45.98316" lon="4.83622">
        <ele>266.899993896</ele>
        <time>2015-09-20T10:04:29.872Z</time>
      </trkpt>
      <trkpt lat="45.98313" lon="4.83628">
        <ele>266.700012207</ele>
        <time>2015-09-20T10:04:30.843Z</time>
      </trkpt>
      <trkpt lat="45.9831" lon="4.83634">
        <ele>266.5</ele>
        <time>2015-09-20T10:04:31.876Z</time>
      </trkpt>
      <trkpt lat="45.98307" lon="4.83641">
        <ele>266.200012207</ele>
        <time>2015-09-20T10:04:32.843Z</time>
      </trkpt>
      <trkpt lat="45.98304" lon="4.83648">
        <ele>265.899993896</ele>
        <time>2015-09-20T10:04:33.881Z</time>
      </trkpt>
      <trkpt lat="45.98301" lon="4.83655">
        <ele>265.799987793</ele>
        <time>2015-09-20T10:04:34.844Z</time>
      </trkpt>
      <trkpt lat="45.98298" lon="4.83663">
        <ele>265.700012207</ele>
        <time>2015-09-20T10:04:35.871Z</time>
      </trkpt>
      <trkpt lat="45.98295" lon="4.8367">
        <ele>265.200012207</ele>
        <time>2015-09-20T10:04:36.844Z</time>
      </trkpt>
      <trkpt lat="45.98292" lon="4.83678">
        <ele>264.799987793</ele>
        <time>2015-09-20T10:04:37.869Z</time>
      </trkpt>
      <trkpt lat="45.9829" lon="4.83685">
        <ele>264.600006104</ele>
        <time>2015-09-20T10:04:38.844Z</time>
      </trkpt>
      <trkpt lat="45.98287" lon="4.83692">
        <ele>264.600006104</ele>
        <time>2015-09-20T10:04:39.904Z</time>
      </trkpt>
      <trkpt lat="45.98284" lon="4.83699">
        <ele>264.899993896</ele>
        <time>2015-09-20T10:04:40.843Z</time>
      </trkpt>
      <trkpt lat="45.98281" lon="4.83707">
        <ele>264.799987793</ele>
        <time>2015-09-20T10:04:41.871Z</time>
      </trkpt>
      <trkpt lat="45.98279" lon="4.83714">
        <ele>264.600006104</ele>
        <time>2015-09-20T10:04:42.843Z</time>
      </trkpt>
      <trkpt lat="45.98277" lon="4.83722">
        <ele>264.5</ele>
        <time>2015-09-20T10:04:43.87Z</time>
      </trkpt>
      <trkpt lat="45.98274" lon="4.8373">
        <ele>264.399993896</ele>
        <time>2015-09-20T10:04:44.844Z</time>
      </trkpt>
      <trkpt lat="45.98271" lon="4.83737">
        <ele>264.600006104</ele>
        <time>2015-09-20T10:04:45.873Z</time>
      </trkpt>
      <trkpt lat="45.98269" lon="4.83745">
        <ele>264.799987793</ele>
        <time>2015-09-20T10:04:46.844Z</time>
      </trkpt>
      <trkpt lat="45.98266" lon="4.83753">
        <ele>264.799987793</ele>
        <time>2015-09-20T10:04:47.871Z</time>
      </trkpt>
      <trkpt lat="45.98264" lon="4.83761">
        <ele>264.799987793</ele>
        <time>2015-09-20T10:04:48.844Z</time>
      </trkpt>
      <trkpt lat="45.98261" lon="4.83769">
        <ele>264.5</ele>
        <time>2015-09-20T10:04:49.883Z</time>
      </trkpt>
      <trkpt lat="45.98258" lon="4.83776">
        <ele>264.299987793</ele>
        <time>2015-09-20T10:04:50.844Z</time>
      </trkpt>
      <trkpt lat="45.98256" lon="4.83783">
        <ele>264.600006104</ele>
        <time>2015-09-20T10:04:51.868Z</time>
      </trkpt>
      <trkpt lat="45.98253" lon="4.8379">
        <ele>265</ele>
        <time>2015-09-20T10:04:52.884Z</time>
      </trkpt>
      <trkpt lat="45.9825" lon="4.83797">
        <ele>265.299987793</ele>
        <time>2015-09-20T10:04:53.872Z</time>
      </trkpt>
      <trkpt lat="45.98247" lon="4.83803">
        <ele>265.399993896</ele>
        <time>2015-09-20T10:04:54.858Z</time>
      </trkpt>
      <trkpt lat="45.98245" lon="4.8381">
        <ele>265.200012207</ele>
        <time>2015-09-20T10:04:55.869Z</time>
      </trkpt>
      <trkpt lat="45.98243" lon="4.83817">
        <ele>265.100006104</ele>
        <time>2015-09-20T10:04:56.844Z</time>
      </trkpt>
      <trkpt lat="45.9824" lon="4.83824">
        <ele>265.399993896</ele>
        <time>2015-09-20T10:04:57.875Z</time>
      </trkpt>
      <trkpt lat="45.98238" lon="4.83831">
        <ele>265.5</ele>
        <time>2015-09-20T10:04:58.882Z</time>
      </trkpt>
      <trkpt lat="45.98236" lon="4.83839">
        <ele>265.700012207</ele>
        <time>2015-09-20T10:04:59.871Z</time>
      </trkpt>
      <trkpt lat="45.98233" lon="4.83846">
        <ele>265.600006104</ele>
        <time>2015-09-20T10:05:00.857Z</time>
      </trkpt>
      <trkpt lat="45.9823" lon="4.83853">
        <ele>265.600006104</ele>
        <time>2015-09-20T10:05:01.87Z</time>
      </trkpt>
      <trkpt lat="45.98227" lon="4.83861">
        <ele>265.5</ele>
        <time>2015-09-20T10:05:02.894Z</time>
      </trkpt>
      <trkpt lat="45.98225" lon="4.83869">
        <ele>265.299987793</ele>
        <time>2015-09-20T10:05:03.877Z</time>
      </trkpt>
      <trkpt lat="45.98222" lon="4.83876">
        <ele>265.399993896</ele>
        <time>2015-09-20T10:05:04.844Z</time>
      </trkpt>
      <trkpt lat="45.9822" lon="4.83884">
        <ele>265.5</ele>
        <time>2015-09-20T10:05:05.872Z</time>
      </trkpt>
      <trkpt lat="45.98217" lon="4.83891">
        <ele>265.600006104</ele>
        <time>2015-09-20T10:05:06.844Z</time>
      </trkpt>
      <trkpt lat="45.98215" lon="4.83898">
        <ele>265.5</ele>
        <time>2015-09-20T10:05:07.905Z</time>
      </trkpt>
      <trkpt lat="45.98212" lon="4.83904">
        <ele>265.5</ele>
        <time>2015-09-20T10:05:08.843Z</time>
      </trkpt>
      <trkpt lat="45.98209" lon="4.83911">
        <ele>265.299987793</ele>
        <time>2015-09-20T10:05:09.868Z</time>
      </trkpt>
      <trkpt lat="45.98207" lon="4.83919">
        <ele>265.200012207</ele>
        <time>2015-09-20T10:05:10.86Z</time>
      </trkpt>
      <trkpt lat="45.98205" lon="4.83926">
        <ele>265.399993896</ele>
        <time>2015-09-20T10:05:11.874Z</time>
      </trkpt>
      <trkpt lat="45.98202" lon="4.83933">
        <ele>265.700012207</ele>
        <time>2015-09-20T10:05:12.904Z</time>
      </trkpt>
      <trkpt lat="45.98199" lon="4.83941">
        <ele>266.100006104</ele>
        <time>2015-09-20T10:05:13.869Z</time>
      </trkpt>
      <trkpt lat="45.98197" lon="4.83948">
        <ele>266.200012207</ele>
        <time>2015-09-20T10:05:14.844Z</time>
      </trkpt>
      <trkpt lat="45.98194" lon="4.83956">
        <ele>266.200012207</ele>
        <time>2015-09-20T10:05:15.868Z</time>
      </trkpt>
      <trkpt lat="45.98191" lon="4.83964">
        <ele>265.799987793</ele>
        <time>2015-09-20T10:05:16.843Z</time>
      </trkpt>
      <trkpt lat="45.98188" lon="4.83972">
        <ele>265.5</ele>
        <time>2015-09-20T10:05:17.871Z</time>
      </trkpt>
      <trkpt lat="45.98185" lon="4.8398">
        <ele>265.700012207</ele>
        <time>2015-09-20T10:05:18.843Z</time>
      </trkpt>
      <trkpt lat="45.98182" lon="4.83988">
        <ele>265.799987793</ele>
        <time>2015-09-20T10:05:19.894Z</time>
      </trkpt>
      <trkpt lat="45.98179" lon="4.83996">
        <ele>266.100006104</ele>
        <time>2015-09-20T10:05:20.843Z</time>
      </trkpt>
      <trkpt lat="45.98175" lon="4.84004">
        <ele>266.600006104</ele>
        <time>2015-09-20T10:05:21.868Z</time>
      </trkpt>
      <trkpt lat="45.98171" lon="4.84011">
        <ele>267</ele>
        <time>2015-09-20T10:05:22.894Z</time>
      </trkpt>
      <trkpt lat="45.98167" lon="4.84019">
        <ele>267.700012207</ele>
        <time>2015-09-20T10:05:23.872Z</time>
      </trkpt>
      <trkpt lat="45.98163" lon="4.84026">
        <ele>267.799987793</ele>
        <time>2015-09-20T10:05:24.844Z</time>
      </trkpt>
      <trkpt lat="45.98159" lon="4.84034">
        <ele>268</ele>
        <time>2015-09-20T10:05:25.869Z</time>
      </trkpt>
      <trkpt lat="45.98155" lon="4.84041">
        <ele>268.399993896</ele>
        <time>2015-09-20T10:05:26.843Z</time>
      </trkpt>
      <trkpt lat="45.98151" lon="4.84047">
        <ele>268.5</ele>
        <time>2015-09-20T10:05:27.868Z</time>
      </trkpt>
      <trkpt lat="45.98147" lon="4.84052">
        <ele>268.600006104</ele>
        <time>2015-09-20T10:05:28.844Z</time>
      </trkpt>
      <trkpt lat="45.98142" lon="4.84058">
        <ele>268.700012207</ele>
        <time>2015-09-20T10:05:29.871Z</time>
      </trkpt>
      <trkpt lat="45.98138" lon="4.84064">
        <ele>268.600006104</ele>
        <time>2015-09-20T10:05:30.843Z</time>
      </trkpt>
      <trkpt lat="45.98134" lon="4.84069">
        <ele>268.5</ele>
        <time>2015-09-20T10:05:31.884Z</time>
      </trkpt>
      <trkpt lat="45.9813" lon="4.84074">
        <ele>268.700012207</ele>
        <time>2015-09-20T10:05:32.843Z</time>
      </trkpt>
      <trkpt lat="45.98125" lon="4.84079">
        <ele>268.799987793</ele>
        <time>2015-09-20T10:05:33.868Z</time>
      </trkpt>
      <trkpt lat="45.9812" lon="4.84084">
        <ele>268.899993896</ele>
        <time>2015-09-20T10:05:34.843Z</time>
      </trkpt>
      <trkpt lat="45.98115" lon="4.84089">
        <ele>269.100006104</ele>
        <time>2015-09-20T10:05:35.871Z</time>
      </trkpt>
      <trkpt lat="45.9811" lon="4.84093">
        <ele>269.5</ele>
        <time>2015-09-20T10:05:36.844Z</time>
      </trkpt>
      <trkpt lat="45.98105" lon="4.84098">
        <ele>270.100006104</ele>
        <time>2015-09-20T10:05:37.872Z</time>
      </trkpt>
      <trkpt lat="45.981" lon="4.84103">
        <ele>270.399993896</ele>
        <time>2015-09-20T10:05:38.844Z</time>
      </trkpt>
      <trkpt lat="45.98095" lon="4.84109">
        <ele>270.399993896</ele>
        <time>2015-09-20T10:05:39.869Z</time>
      </trkpt>
      <trkpt lat="45.9809" lon="4.84113">
        <ele>270.5</ele>
        <time>2015-09-20T10:05:40.844Z</time>
      </trkpt>
      <trkpt lat="45.98085" lon="4.84117">
        <ele>270.399993896</ele>
        <time>2015-09-20T10:05:41.886Z</time>
      </trkpt>
      <trkpt lat="45.98079" lon="4.84121">
        <ele>270.299987793</ele>
        <time>2015-09-20T10:05:42.844Z</time>
      </trkpt>
      <trkpt lat="45.98075" lon="4.84126">
        <ele>270.200012207</ele>
        <time>2015-09-20T10:05:43.87Z</time>
      </trkpt>
      <trkpt lat="45.9807" lon="4.8413">
        <ele>270.299987793</ele>
        <time>2015-09-20T10:05:44.85Z</time>
      </trkpt>
      <trkpt lat="45.98065" lon="4.84135">
        <ele>270.100006104</ele>
        <time>2015-09-20T10:05:45.868Z</time>
      </trkpt>
      <trkpt lat="45.98061" lon="4.84139">
        <ele>270.399993896</ele>
        <time>2015-09-20T10:05:46.844Z</time>
      </trkpt>
      <trkpt lat="45.98057" lon="4.84143">
        <ele>270.299987793</ele>
        <time>2015-09-20T10:05:47.885Z</time>
      </trkpt>
      <trkpt lat="45.98053" lon="4.84148">
        <ele>270.299987793</ele>
        <time>2015-09-20T10:05:48.882Z</time>
      </trkpt>
      <trkpt lat="45.98049" lon="4.84151">
        <ele>269.899993896</ele>
        <time>2015-09-20T10:05:49.87Z</time>
      </trkpt>
      <trkpt lat="45.98044" lon="4.84155">
        <ele>269.600006104</ele>
        <time>2015-09-20T10:05:50.844Z</time>
      </trkpt>
      <trkpt lat="45.9804" lon="4.84159">
        <ele>269.5</ele>
        <time>2015-09-20T10:05:51.868Z</time>
      </trkpt>
      <trkpt lat="45.98036" lon="4.84164">
        <ele>269.299987793</ele>
        <time>2015-09-20T10:05:52.843Z</time>
      </trkpt>
      <trkpt lat="45.98032" lon="4.84169">
        <ele>269</ele>
        <time>2015-09-20T10:05:53.871Z</time>
      </trkpt>
      <trkpt lat="45.98027" lon="4.84173">
        <ele>269.100006104</ele>
        <time>2015-09-20T10:05:54.844Z</time>
      </trkpt>
      <trkpt lat="45.98022" lon="4.84178">
        <ele>269.399993896</ele>
        <time>2015-09-20T10:05:55.87Z</time>
      </trkpt>
      <trkpt lat="45.98017" lon="4.84182">
        <ele>269.799987793</ele>
        <time>2015-09-20T10:05:56.844Z</time>
      </trkpt>
      <trkpt lat="45.98011" lon="4.84187">
        <ele>270.100006104</ele>
        <time>2015-09-20T10:05:57.868Z</time>
      </trkpt>
      <trkpt lat="45.98006" lon="4.84191">
        <ele>270.200012207</ele>
        <time>2015-09-20T10:05:58.844Z</time>
      </trkpt>
      <trkpt lat="45.98001" lon="4.84196">
        <ele>270</ele>
        <time>2015-09-20T10:05:59.871Z</time>
      </trkpt>
      <trkpt lat="45.97996" lon="4.84201">
        <ele>269.399993896</ele>
        <time>2015-09-20T10:06:00.843Z</time>
      </trkpt>
      <trkpt lat="45.97992" lon="4.84206">
        <ele>269.200012207</ele>
        <time>2015-09-20T10:06:01.869Z</time>
      </trkpt>
      <trkpt lat="45.97987" lon="4.8421">
        <ele>268.799987793</ele>
        <time>2015-09-20T10:06:02.874Z</time>
      </trkpt>
      <trkpt lat="45.97982" lon="4.84214">
        <ele>268.200012207</ele>
        <time>2015-09-20T10:06:03.918Z</time>
      </trkpt>
      <trkpt lat="45.97978" lon="4.84218">
        <ele>268.399993896</ele>
        <time>2015-09-20T10:06:04.843Z</time>
      </trkpt>
      <trkpt lat="45.97973" lon="4.84222">
        <ele>268.899993896</ele>
        <time>2015-09-20T10:06:05.871Z</time>
      </trkpt>
      <trkpt lat="45.97968" lon="4.84226">
        <ele>269.200012207</ele>
        <time>2015-09-20T10:06:06.844Z</time>
      </trkpt>
      <trkpt lat="45.97964" lon="4.84229">
        <ele>269.799987793</ele>
        <time>2015-09-20T10:06:07.872Z</time>
      </trkpt>
      <trkpt lat="45.97959" lon="4.84233">
        <ele>270.600006104</ele>
        <time>2015-09-20T10:06:08.843Z</time>
      </trkpt>
      <trkpt lat="45.97954" lon="4.84238">
        <ele>271.200012207</ele>
        <time>2015-09-20T10:06:09.868Z</time>
      </trkpt>
      <trkpt lat="45.9795" lon="4.84243">
        <ele>271.200012207</ele>
        <time>2015-09-20T10:06:10.843Z</time>
      </trkpt>
      <trkpt lat="45.97946" lon="4.84248">
        <ele>271.200012207</ele>
        <time>2015-09-20T10:06:11.872Z</time>
      </trkpt>
      <trkpt lat="45.97941" lon="4.84253">
        <ele>271.100006104</ele>
        <time>2015-09-20T10:06:12.843Z</time>
      </trkpt>
      <trkpt lat="45.97937" lon="4.84257">
        <ele>270.700012207</ele>
        <time>2015-09-20T10:06:13.869Z</time>
      </trkpt>
      <trkpt lat="45.97933" lon="4.84262">
        <ele>270.399993896</ele>
        <time>2015-09-20T10:06:14.843Z</time>
      </trkpt>
      <trkpt lat="45.97929" lon="4.84268">
        <ele>270</ele>
        <time>2015-09-20T10:06:15.868Z</time>
      </trkpt>
      <trkpt lat="45.97926" lon="4.84274">
        <ele>269.600006104</ele>
        <time>2015-09-20T10:06:16.843Z</time>
      </trkpt>
      <trkpt lat="45.97924" lon="4.84281">
        <ele>269.200012207</ele>
        <time>2015-09-20T10:06:17.87Z</time>
      </trkpt>
      <trkpt lat="45.97923" lon="4.84288">
        <ele>268.700012207</ele>
        <time>2015-09-20T10:06:18.842Z</time>
      </trkpt>
      <trkpt lat="45.97924" lon="4.84296">
        <ele>268.700012207</ele>
        <time>2015-09-20T10:06:19.882Z</time>
      </trkpt>
      <trkpt lat="45.97925" lon="4.84303">
        <ele>269.100006104</ele>
        <time>2015-09-20T10:06:20.842Z</time>
      </trkpt>
      <trkpt lat="45.97927" lon="4.84311">
        <ele>268.399993896</ele>
        <time>2015-09-20T10:06:21.867Z</time>
      </trkpt>
      <trkpt lat="45.97929" lon="4.84318">
        <ele>268.200012207</ele>
        <time>2015-09-20T10:06:22.842Z</time>
      </trkpt>
      <trkpt lat="45.97931" lon="4.84326">
        <ele>268</ele>
        <time>2015-09-20T10:06:23.87Z</time>
      </trkpt>
      <trkpt lat="45.97932" lon="4.84334">
        <ele>267.899993896</ele>
        <time>2015-09-20T10:06:24.856Z</time>
      </trkpt>
      <trkpt lat="45.97934" lon="4.84342">
        <ele>267.700012207</ele>
        <time>2015-09-20T10:06:25.869Z</time>
      </trkpt>
      <trkpt lat="45.97935" lon="4.84351">
        <ele>267.899993896</ele>
        <time>2015-09-20T10:06:26.842Z</time>
      </trkpt>
      <trkpt lat="45.97936" lon="4.84359">
        <ele>267.600006104</ele>
        <time>2015-09-20T10:06:27.867Z</time>
      </trkpt>
      <trkpt lat="45.97937" lon="4.84367">
        <ele>267.200012207</ele>
        <time>2015-09-20T10:06:28.842Z</time>
      </trkpt>
      <trkpt lat="45.97939" lon="4.84375">
        <ele>267</ele>
        <time>2015-09-20T10:06:29.905Z</time>
      </trkpt>
      <trkpt lat="45.9794" lon="4.84384">
        <ele>267.100006104</ele>
        <time>2015-09-20T10:06:30.842Z</time>
      </trkpt>
      <trkpt lat="45.97941" lon="4.84392">
        <ele>266.700012207</ele>
        <time>2015-09-20T10:06:31.868Z</time>
      </trkpt>
      <trkpt lat="45.97943" lon="4.84401">
        <ele>266.700012207</ele>
        <time>2015-09-20T10:06:32.842Z</time>
      </trkpt>
      <trkpt lat="45.97944" lon="4.8441">
        <ele>266.700012207</ele>
        <time>2015-09-20T10:06:33.904Z</time>
      </trkpt>
      <trkpt lat="45.97945" lon="4.84418">
        <ele>266.299987793</ele>
        <time>2015-09-20T10:06:34.842Z</time>
      </trkpt>
      <trkpt lat="45.97947" lon="4.84427">
        <ele>266.100006104</ele>
        <time>2015-09-20T10:06:35.888Z</time>
      </trkpt>
      <trkpt lat="45.97948" lon="4.84435">
        <ele>266.299987793</ele>
        <time>2015-09-20T10:06:36.85Z</time>
      </trkpt>
      <trkpt lat="45.9795" lon="4.84444">
        <ele>266</ele>
        <time>2015-09-20T10:06:37.867Z</time>
      </trkpt>
      <trkpt lat="45.97951" lon="4.84453">
        <ele>265.899993896</ele>
        <time>2015-09-20T10:06:38.842Z</time>
      </trkpt>
      <trkpt lat="45.97952" lon="4.84461">
        <ele>265.600006104</ele>
        <time>2015-09-20T10:06:39.866Z</time>
      </trkpt>
      <trkpt lat="45.97954" lon="4.8447">
        <ele>265.399993896</ele>
        <time>2015-09-20T10:06:40.842Z</time>
      </trkpt>
      <trkpt lat="45.97955" lon="4.84478">
        <ele>265.700012207</ele>
        <time>2015-09-20T10:06:41.87Z</time>
      </trkpt>
      <trkpt lat="45.97956" lon="4.84486">
        <ele>265.899993896</ele>
        <time>2015-09-20T10:06:42.842Z</time>
      </trkpt>
      <trkpt lat="45.97957" lon="4.84494">
        <ele>266.100006104</ele>
        <time>2015-09-20T10:06:43.868Z</time>
      </trkpt>
      <trkpt lat="45.97959" lon="4.84502">
        <ele>266.299987793</ele>
        <time>2015-09-20T10:06:44.842Z</time>
      </trkpt>
      <trkpt lat="45.9796" lon="4.84511">
        <ele>267.299987793</ele>
        <time>2015-09-20T10:06:45.867Z</time>
      </trkpt>
      <trkpt lat="45.97961" lon="4.84519">
        <ele>268.5</ele>
        <time>2015-09-20T10:06:46.842Z</time>
      </trkpt>
      <trkpt lat="45.97962" lon="4.84528">
        <ele>268.700012207</ele>
        <time>2015-09-20T10:06:47.87Z</time>
      </trkpt>
      <trkpt lat="45.97963" lon="4.84537">
        <ele>269.200012207</ele>
        <time>2015-09-20T10:06:48.843Z</time>
      </trkpt>
      <trkpt lat="45.97964" lon="4.84545">
        <ele>269.700012207</ele>
        <time>2015-09-20T10:06:49.867Z</time>
      </trkpt>
      <trkpt lat="45.97966" lon="4.84553">
        <ele>269.899993896</ele>
        <time>2015-09-20T10:06:50.842Z</time>
      </trkpt>
      <trkpt lat="45.97967" lon="4.84561">
        <ele>270.200012207</ele>
        <time>2015-09-20T10:06:51.867Z</time>
      </trkpt>
      <trkpt lat="45.97968" lon="4.84569">
        <ele>270.799987793</ele>
        <time>2015-09-20T10:06:52.842Z</time>
      </trkpt>
      <trkpt lat="45.97969" lon="4.84577">
        <ele>271.200012207</ele>
        <time>2015-09-20T10:06:53.907Z</time>
      </trkpt>
      <trkpt lat="45.97971" lon="4.84586">
        <ele>271.299987793</ele>
        <time>2015-09-20T10:06:54.842Z</time>
      </trkpt>
      <trkpt lat="45.97972" lon="4.84594">
        <ele>271.600006104</ele>
        <time>2015-09-20T10:06:55.871Z</time>
      </trkpt>
      <trkpt lat="45.97974" lon="4.84602">
        <ele>271.799987793</ele>
        <time>2015-09-20T10:06:56.859Z</time>
      </trkpt>
      <trkpt lat="45.97975" lon="4.84611">
        <ele>271.600006104</ele>
        <time>2015-09-20T10:06:57.887Z</time>
      </trkpt>
      <trkpt lat="45.97976" lon="4.84619">
        <ele>271.5</ele>
        <time>2015-09-20T10:06:58.842Z</time>
      </trkpt>
      <trkpt lat="45.97978" lon="4.84628">
        <ele>271.299987793</ele>
        <time>2015-09-20T10:06:59.87Z</time>
      </trkpt>
      <trkpt lat="45.97979" lon="4.84636">
        <ele>271</ele>
        <time>2015-09-20T10:07:00.842Z</time>
      </trkpt>
      <trkpt lat="45.97981" lon="4.84645">
        <ele>270.5</ele>
        <time>2015-09-20T10:07:01.867Z</time>
      </trkpt>
      <trkpt lat="45.97982" lon="4.84654">
        <ele>270.100006104</ele>
        <time>2015-09-20T10:07:02.841Z</time>
      </trkpt>
      <trkpt lat="45.97983" lon="4.84663">
        <ele>271.200012207</ele>
        <time>2015-09-20T10:07:03.867Z</time>
      </trkpt>
      <trkpt lat="45.97984" lon="4.84671">
        <ele>271.5</ele>
        <time>2015-09-20T10:07:04.842Z</time>
      </trkpt>
      <trkpt lat="45.97985" lon="4.84679">
        <ele>272</ele>
        <time>2015-09-20T10:07:05.869Z</time>
      </trkpt>
      <trkpt lat="45.97986" lon="4.84687">
        <ele>272.5</ele>
        <time>2015-09-20T10:07:06.842Z</time>
      </trkpt>
      <trkpt lat="45.97986" lon="4.84695">
        <ele>273.5</ele>
        <time>2015-09-20T10:07:07.871Z</time>
      </trkpt>
      <trkpt lat="45.97987" lon="4.84703">
        <ele>274.5</ele>
        <time>2015-09-20T10:07:08.888Z</time>
      </trkpt>
      <trkpt lat="45.97988" lon="4.84711">
        <ele>275</ele>
        <time>2015-09-20T10:07:09.871Z</time>
      </trkpt>
      <trkpt lat="45.97989" lon="4.84718">
        <ele>275.200012207</ele>
        <time>2015-09-20T10:07:10.844Z</time>
      </trkpt>
      <trkpt lat="45.9799" lon="4.84726">
        <ele>275.5</ele>
        <time>2015-09-20T10:07:11.872Z</time>
      </trkpt>
      <trkpt lat="45.9799" lon="4.84733">
        <ele>275.700012207</ele>
        <time>2015-09-20T10:07:12.844Z</time>
      </trkpt>
      <trkpt lat="45.97991" lon="4.8474">
        <ele>276</ele>
        <time>2015-09-20T10:07:13.869Z</time>
      </trkpt>
      <trkpt lat="45.97992" lon="4.84749">
        <ele>276</ele>
        <time>2015-09-20T10:07:14.843Z</time>
      </trkpt>
      <trkpt lat="45.97992" lon="4.84757">
        <ele>275.899993896</ele>
        <time>2015-09-20T10:07:15.868Z</time>
      </trkpt>
      <trkpt lat="45.97993" lon="4.84764">
        <ele>276.200012207</ele>
        <time>2015-09-20T10:07:16.843Z</time>
      </trkpt>
      <trkpt lat="45.97994" lon="4.84772">
        <ele>275.399993896</ele>
        <time>2015-09-20T10:07:17.885Z</time>
      </trkpt>
      <trkpt lat="45.97995" lon="4.84781">
        <ele>274.700012207</ele>
        <time>2015-09-20T10:07:18.842Z</time>
      </trkpt>
      <trkpt lat="45.97996" lon="4.84789">
        <ele>274.5</ele>
        <time>2015-09-20T10:07:19.868Z</time>
      </trkpt>
      <trkpt lat="45.97996" lon="4.84797">
        <ele>274.200012207</ele>
        <time>2015-09-20T10:07:20.842Z</time>
      </trkpt>
      <trkpt lat="45.97997" lon="4.84805">
        <ele>274.200012207</ele>
        <time>2015-09-20T10:07:21.872Z</time>
      </trkpt>
      <trkpt lat="45.97997" lon="4.84813">
        <ele>274.299987793</ele>
        <time>2015-09-20T10:07:22.843Z</time>
      </trkpt>
      <trkpt lat="45.97999" lon="4.84821">
        <ele>274.100006104</ele>
        <time>2015-09-20T10:07:23.87Z</time>
      </trkpt>
      <trkpt lat="45.97999" lon="4.84829">
        <ele>274.399993896</ele>
        <time>2015-09-20T10:07:24.843Z</time>
      </trkpt>
      <trkpt lat="45.98" lon="4.84837">
        <ele>274.5</ele>
        <time>2015-09-20T10:07:25.869Z</time>
      </trkpt>
      <trkpt lat="45.98001" lon="4.84844">
        <ele>274.799987793</ele>
        <time>2015-09-20T10:07:26.843Z</time>
      </trkpt>
      <trkpt lat="45.98001" lon="4.84852">
        <ele>275.200012207</ele>
        <time>2015-09-20T10:07:27.868Z</time>
      </trkpt>
      <trkpt lat="45.98002" lon="4.8486">
        <ele>275.200012207</ele>
        <time>2015-09-20T10:07:28.843Z</time>
      </trkpt>
      <trkpt lat="45.98004" lon="4.8487">
        <ele>275.200012207</ele>
        <time>2015-09-20T10:07:29.87Z</time>
      </trkpt>
      <trkpt lat="45.98004" lon="4.84879">
        <ele>275.299987793</ele>
        <time>2015-09-20T10:07:30.839Z</time>
      </trkpt>
      <trkpt lat="45.98005" lon="4.84887">
        <ele>275.200012207</ele>
        <time>2015-09-20T10:07:31.869Z</time>
      </trkpt>
      <trkpt lat="45.98006" lon="4.84896">
        <ele>275.399993896</ele>
        <time>2015-09-20T10:07:32.842Z</time>
      </trkpt>
      <trkpt lat="45.98008" lon="4.84906">
        <ele>275</ele>
        <time>2015-09-20T10:07:33.887Z</time>
      </trkpt>
      <trkpt lat="45.98008" lon="4.84914">
        <ele>275.100006104</ele>
        <time>2015-09-20T10:07:34.842Z</time>
      </trkpt>
      <trkpt lat="45.98009" lon="4.84923">
        <ele>275.299987793</ele>
        <time>2015-09-20T10:07:35.869Z</time>
      </trkpt>
      <trkpt lat="45.98009" lon="4.84932">
        <ele>275.600006104</ele>
        <time>2015-09-20T10:07:36.842Z</time>
      </trkpt>
      <trkpt lat="45.9801" lon="4.8494">
        <ele>275.700012207</ele>
        <time>2015-09-20T10:07:37.872Z</time>
      </trkpt>
      <trkpt lat="45.98011" lon="4.84948">
        <ele>276.100006104</ele>
        <time>2015-09-20T10:07:38.842Z</time>
      </trkpt>
      <trkpt lat="45.98011" lon="4.84956">
        <ele>276.299987793</ele>
        <time>2015-09-20T10:07:39.866Z</time>
      </trkpt>
      <trkpt lat="45.98012" lon="4.84965">
        <ele>276.600006104</ele>
        <time>2015-09-20T10:07:40.842Z</time>
      </trkpt>
      <trkpt lat="45.98013" lon="4.84974">
        <ele>276.399993896</ele>
        <time>2015-09-20T10:07:41.87Z</time>
      </trkpt>
      <trkpt lat="45.98014" lon="4.84982">
        <ele>275.799987793</ele>
        <time>2015-09-20T10:07:42.842Z</time>
      </trkpt>
      <trkpt lat="45.98015" lon="4.84991">
        <ele>275.200012207</ele>
        <time>2015-09-20T10:07:43.869Z</time>
      </trkpt>
      <trkpt lat="45.98016" lon="4.85">
        <ele>274.600006104</ele>
        <time>2015-09-20T10:07:44.842Z</time>
      </trkpt>
      <trkpt lat="45.98017" lon="4.85009">
        <ele>274.299987793</ele>
        <time>2015-09-20T10:07:45.867Z</time>
      </trkpt>
      <trkpt lat="45.98018" lon="4.85018">
        <ele>274.399993896</ele>
        <time>2015-09-20T10:07:46.842Z</time>
      </trkpt>
      <trkpt lat="45.98018" lon="4.85027">
        <ele>274.899993896</ele>
        <time>2015-09-20T10:07:47.872Z</time>
      </trkpt>
      <trkpt lat="45.98019" lon="4.85035">
        <ele>274.899993896</ele>
        <time>2015-09-20T10:07:48.842Z</time>
      </trkpt>
      <trkpt lat="45.98019" lon="4.85043">
        <ele>275.299987793</ele>
        <time>2015-09-20T10:07:49.882Z</time>
      </trkpt>
      <trkpt lat="45.98019" lon="4.85051">
        <ele>275.5</ele>
        <time>2015-09-20T10:07:50.842Z</time>
      </trkpt>
      <trkpt lat="45.98019" lon="4.85058">
        <ele>275.5</ele>
        <time>2015-09-20T10:07:51.887Z</time>
      </trkpt>
      <trkpt lat="45.98019" lon="4.85066">
        <ele>275.5</ele>
        <time>2015-09-20T10:07:52.842Z</time>
      </trkpt>
      <trkpt lat="45.98019" lon="4.85073">
        <ele>275.200012207</ele>
        <time>2015-09-20T10:07:53.87Z</time>
      </trkpt>
      <trkpt lat="45.98019" lon="4.85081">
        <ele>275</ele>
        <time>2015-09-20T10:07:54.842Z</time>
      </trkpt>
      <trkpt lat="45.9802" lon="4.85089">
        <ele>274.600006104</ele>
        <time>2015-09-20T10:07:55.868Z</time>
      </trkpt>
      <trkpt lat="45.98021" lon="4.85097">
        <ele>274.399993896</ele>
        <time>2015-09-20T10:07:56.842Z</time>
      </trkpt>
      <trkpt lat="45.98022" lon="4.85104">
        <ele>274.399993896</ele>
        <time>2015-09-20T10:07:57.867Z</time>
      </trkpt>
      <trkpt lat="45.98023" lon="4.85112">
        <ele>274.5</ele>
        <time>2015-09-20T10:07:58.842Z</time>
      </trkpt>
      <trkpt lat="45.98025" lon="4.85119">
        <ele>274.700012207</ele>
        <time>2015-09-20T10:07:59.87Z</time>
      </trkpt>
      <trkpt lat="45.98026" lon="4.85126">
        <ele>274.5</ele>
        <time>2015-09-20T10:08:00.843Z</time>
      </trkpt>
      <trkpt lat="45.98028" lon="4.85132">
        <ele>274.600006104</ele>
        <time>2015-09-20T10:08:01.868Z</time>
      </trkpt>
      <trkpt lat="45.98031" lon="4.85139">
        <ele>274.200012207</ele>
        <time>2015-09-20T10:08:02.841Z</time>
      </trkpt>
      <trkpt lat="45.98033" lon="4.85146">
        <ele>273.799987793</ele>
        <time>2015-09-20T10:08:03.868Z</time>
      </trkpt>
      <trkpt lat="45.98035" lon="4.85152">
        <ele>273.5</ele>
        <time>2015-09-20T10:08:04.842Z</time>
      </trkpt>
      <trkpt lat="45.98037" lon="4.85158">
        <ele>273.399993896</ele>
        <time>2015-09-20T10:08:05.87Z</time>
      </trkpt>
      <trkpt lat="45.98039" lon="4.85164">
        <ele>273.200012207</ele>
        <time>2015-09-20T10:08:06.842Z</time>
      </trkpt>
      <trkpt lat="45.98043" lon="4.85175">
        <ele>273.200012207</ele>
        <time>2015-09-20T10:08:08.876Z</time>
      </trkpt>
      <trkpt lat="45.98044" lon="4.85181">
        <ele>273.5</ele>
        <time>2015-09-20T10:08:09.841Z</time>
      </trkpt>
      <trkpt lat="45.98047" lon="4.85192">
        <ele>273.299987793</ele>
        <time>2015-09-20T10:08:11.871Z</time>
      </trkpt>
      <trkpt lat="45.98049" lon="4.85197">
        <ele>273.299987793</ele>
        <time>2015-09-20T10:08:12.842Z</time>
      </trkpt>
      <trkpt lat="45.98051" lon="4.85206">
        <ele>273.899993896</ele>
        <time>2015-09-20T10:08:14.868Z</time>
      </trkpt>
      <trkpt lat="45.98052" lon="4.8521">
        <ele>274.399993896</ele>
        <time>2015-09-20T10:08:15.842Z</time>
      </trkpt>
      <trkpt lat="45.98055" lon="4.8522">
        <ele>275.399993896</ele>
        <time>2015-09-20T10:08:18.867Z</time>
      </trkpt>
      <trkpt lat="45.98057" lon="4.85225">
        <ele>275.399993896</ele>
        <time>2015-09-20T10:08:19.842Z</time>
      </trkpt>
      <trkpt lat="45.9806" lon="4.85235">
        <ele>275.5</ele>
        <time>2015-09-20T10:08:21.867Z</time>
      </trkpt>
      <trkpt lat="45.98062" lon="4.85239">
        <ele>275.5</ele>
        <time>2015-09-20T10:08:22.843Z</time>
      </trkpt>
      <trkpt lat="45.98068" lon="4.85249">
        <ele>275.799987793</ele>
        <time>2015-09-20T10:08:24.875Z</time>
      </trkpt>
      <trkpt lat="45.9807" lon="4.85254">
        <ele>275.899993896</ele>
        <time>2015-09-20T10:08:25.842Z</time>
      </trkpt>
      <trkpt lat="45.98073" lon="4.85259">
        <ele>275.700012207</ele>
        <time>2015-09-20T10:08:26.879Z</time>
      </trkpt>
      <trkpt lat="45.98076" lon="4.85264">
        <ele>275.600006104</ele>
        <time>2015-09-20T10:08:27.842Z</time>
      </trkpt>
      <trkpt lat="45.98079" lon="4.8527">
        <ele>275.600006104</ele>
        <time>2015-09-20T10:08:28.868Z</time>
      </trkpt>
      <trkpt lat="45.98082" lon="4.85275">
        <ele>275.700012207</ele>
        <time>2015-09-20T10:08:29.845Z</time>
      </trkpt>
      <trkpt lat="45.98085" lon="4.8528">
        <ele>275.600006104</ele>
        <time>2015-09-20T10:08:30.906Z</time>
      </trkpt>
      <trkpt lat="45.98088" lon="4.85286">
        <ele>275.700012207</ele>
        <time>2015-09-20T10:08:31.839Z</time>
      </trkpt>
      <trkpt lat="45.98091" lon="4.85292">
        <ele>275.5</ele>
        <time>2015-09-20T10:08:32.867Z</time>
      </trkpt>
      <trkpt lat="45.98094" lon="4.85298">
        <ele>275.200012207</ele>
        <time>2015-09-20T10:08:33.842Z</time>
      </trkpt>
      <trkpt lat="45.98097" lon="4.85304">
        <ele>274.399993896</ele>
        <time>2015-09-20T10:08:34.867Z</time>
      </trkpt>
      <trkpt lat="45.981" lon="4.8531">
        <ele>274.299987793</ele>
        <time>2015-09-20T10:08:35.846Z</time>
      </trkpt>
      <trkpt lat="45.98103" lon="4.85316">
        <ele>274.299987793</ele>
        <time>2015-09-20T10:08:36.867Z</time>
      </trkpt>
      <trkpt lat="45.98105" lon="4.85322">
        <ele>274.399993896</ele>
        <time>2015-09-20T10:08:37.844Z</time>
      </trkpt>
      <trkpt lat="45.98108" lon="4.85328">
        <ele>274.399993896</ele>
        <time>2015-09-20T10:08:38.867Z</time>
      </trkpt>
      <trkpt lat="45.98111" lon="4.85335">
        <ele>274.399993896</ele>
        <time>2015-09-20T10:08:39.846Z</time>
      </trkpt>
      <trkpt lat="45.98113" lon="4.85341">
        <ele>274.399993896</ele>
        <time>2015-09-20T10:08:40.868Z</time>
      </trkpt>
      <trkpt lat="45.98115" lon="4.85348">
        <ele>274.299987793</ele>
        <time>2015-09-20T10:08:41.845Z</time>
      </trkpt>
      <trkpt lat="45.98117" lon="4.85354">
        <ele>274.600006104</ele>
        <time>2015-09-20T10:08:42.88Z</time>
      </trkpt>
      <trkpt lat="45.98121" lon="4.85361">
        <ele>274.600006104</ele>
        <time>2015-09-20T10:08:43.843Z</time>
      </trkpt>
      <trkpt lat="45.98124" lon="4.85368">
        <ele>274.399993896</ele>
        <time>2015-09-20T10:08:44.868Z</time>
      </trkpt>
      <trkpt lat="45.98127" lon="4.85375">
        <ele>274.100006104</ele>
        <time>2015-09-20T10:08:45.866Z</time>
      </trkpt>
      <trkpt lat="45.98129" lon="4.85381">
        <ele>274</ele>
        <time>2015-09-20T10:08:46.866Z</time>
      </trkpt>
      <trkpt lat="45.98132" lon="4.85388">
        <ele>274</ele>
        <time>2015-09-20T10:08:47.845Z</time>
      </trkpt>
      <trkpt lat="45.98135" lon="4.85394">
        <ele>273.899993896</ele>
        <time>2015-09-20T10:08:48.866Z</time>
      </trkpt>
      <trkpt lat="45.98137" lon="4.85401">
        <ele>273.399993896</ele>
        <time>2015-09-20T10:08:49.843Z</time>
      </trkpt>
      <trkpt lat="45.9814" lon="4.85408">
        <ele>273.200012207</ele>
        <time>2015-09-20T10:08:50.91Z</time>
      </trkpt>
      <trkpt lat="45.98143" lon="4.85415">
        <ele>273.299987793</ele>
        <time>2015-09-20T10:08:51.843Z</time>
      </trkpt>
      <trkpt lat="45.98145" lon="4.85421">
        <ele>273.299987793</ele>
        <time>2015-09-20T10:08:52.866Z</time>
      </trkpt>
      <trkpt lat="45.98147" lon="4.85428">
        <ele>273.200012207</ele>
        <time>2015-09-20T10:08:53.845Z</time>
      </trkpt>
      <trkpt lat="45.9815" lon="4.85435">
        <ele>272.899993896</ele>
        <time>2015-09-20T10:08:54.866Z</time>
      </trkpt>
      <trkpt lat="45.98153" lon="4.85442">
        <ele>272.799987793</ele>
        <time>2015-09-20T10:08:55.843Z</time>
      </trkpt>
      <trkpt lat="45.98156" lon="4.85449">
        <ele>272.600006104</ele>
        <time>2015-09-20T10:08:56.866Z</time>
      </trkpt>
      <trkpt lat="45.98159" lon="4.85455">
        <ele>272.799987793</ele>
        <time>2015-09-20T10:08:57.842Z</time>
      </trkpt>
      <trkpt lat="45.98162" lon="4.85462">
        <ele>272.799987793</ele>
        <time>2015-09-20T10:08:58.88Z</time>
      </trkpt>
      <trkpt lat="45.98165" lon="4.85468">
        <ele>272.700012207</ele>
        <time>2015-09-20T10:08:59.844Z</time>
      </trkpt>
      <trkpt lat="45.98167" lon="4.85474">
        <ele>273</ele>
        <time>2015-09-20T10:09:00.867Z</time>
      </trkpt>
      <trkpt lat="45.9817" lon="4.85481">
        <ele>273.100006104</ele>
        <time>2015-09-20T10:09:01.843Z</time>
      </trkpt>
      <trkpt lat="45.98173" lon="4.85486">
        <ele>273.100006104</ele>
        <time>2015-09-20T10:09:02.866Z</time>
      </trkpt>
      <trkpt lat="45.98176" lon="4.85493">
        <ele>273.600006104</ele>
        <time>2015-09-20T10:09:03.842Z</time>
      </trkpt>
      <trkpt lat="45.98179" lon="4.855">
        <ele>273.799987793</ele>
        <time>2015-09-20T10:09:04.866Z</time>
      </trkpt>
      <trkpt lat="45.98181" lon="4.85507">
        <ele>273.899993896</ele>
        <time>2015-09-20T10:09:05.849Z</time>
      </trkpt>
      <trkpt lat="45.98184" lon="4.85514">
        <ele>273.700012207</ele>
        <time>2015-09-20T10:09:06.87Z</time>
      </trkpt>
      <trkpt lat="45.98187" lon="4.8552">
        <ele>273.899993896</ele>
        <time>2015-09-20T10:09:07.848Z</time>
      </trkpt>
      <trkpt lat="45.98189" lon="4.85526">
        <ele>274.200012207</ele>
        <time>2015-09-20T10:09:08.867Z</time>
      </trkpt>
      <trkpt lat="45.98191" lon="4.85533">
        <ele>274.200012207</ele>
        <time>2015-09-20T10:09:09.843Z</time>
      </trkpt>
      <trkpt lat="45.98194" lon="4.85539">
        <ele>274</ele>
        <time>2015-09-20T10:09:10.866Z</time>
      </trkpt>
      <trkpt lat="45.98197" lon="4.85545">
        <ele>274.299987793</ele>
        <time>2015-09-20T10:09:11.844Z</time>
      </trkpt>
      <trkpt lat="45.98199" lon="4.85552">
        <ele>274.5</ele>
        <time>2015-09-20T10:09:12.866Z</time>
      </trkpt>
      <trkpt lat="45.98202" lon="4.85558">
        <ele>274.200012207</ele>
        <time>2015-09-20T10:09:13.842Z</time>
      </trkpt>
      <trkpt lat="45.98205" lon="4.85565">
        <ele>273.799987793</ele>
        <time>2015-09-20T10:09:14.879Z</time>
      </trkpt>
      <trkpt lat="45.98207" lon="4.85571">
        <ele>273.700012207</ele>
        <time>2015-09-20T10:09:15.841Z</time>
      </trkpt>
      <trkpt lat="45.98209" lon="4.85577">
        <ele>274.100006104</ele>
        <time>2015-09-20T10:09:16.934Z</time>
      </trkpt>
      <trkpt lat="45.98211" lon="4.85584">
        <ele>274.200012207</ele>
        <time>2015-09-20T10:09:17.844Z</time>
      </trkpt>
      <trkpt lat="45.98214" lon="4.8559">
        <ele>274</ele>
        <time>2015-09-20T10:09:18.866Z</time>
      </trkpt>
      <trkpt lat="45.98217" lon="4.85596">
        <ele>274.200012207</ele>
        <time>2015-09-20T10:09:19.843Z</time>
      </trkpt>
      <trkpt lat="45.9822" lon="4.85602">
        <ele>273.799987793</ele>
        <time>2015-09-20T10:09:20.866Z</time>
      </trkpt>
      <trkpt lat="45.98223" lon="4.85608">
        <ele>274</ele>
        <time>2015-09-20T10:09:21.842Z</time>
      </trkpt>
      <trkpt lat="45.98226" lon="4.85615">
        <ele>274.200012207</ele>
        <time>2015-09-20T10:09:22.866Z</time>
      </trkpt>
      <trkpt lat="45.98228" lon="4.85621">
        <ele>274.200012207</ele>
        <time>2015-09-20T10:09:23.844Z</time>
      </trkpt>
      <trkpt lat="45.9823" lon="4.85627">
        <ele>274.299987793</ele>
        <time>2015-09-20T10:09:24.866Z</time>
      </trkpt>
      <trkpt lat="45.98233" lon="4.85633">
        <ele>274.299987793</ele>
        <time>2015-09-20T10:09:25.843Z</time>
      </trkpt>
      <trkpt lat="45.98235" lon="4.85639">
        <ele>274.399993896</ele>
        <time>2015-09-20T10:09:26.866Z</time>
      </trkpt>
      <trkpt lat="45.98238" lon="4.85645">
        <ele>274.100006104</ele>
        <time>2015-09-20T10:09:27.841Z</time>
      </trkpt>
      <trkpt lat="45.9824" lon="4.85651">
        <ele>274.100006104</ele>
        <time>2015-09-20T10:09:28.866Z</time>
      </trkpt>
      <trkpt lat="45.98243" lon="4.85658">
        <ele>274</ele>
        <time>2015-09-20T10:09:29.845Z</time>
      </trkpt>
      <trkpt lat="45.98245" lon="4.85665">
        <ele>274</ele>
        <time>2015-09-20T10:09:30.88Z</time>
      </trkpt>
      <trkpt lat="45.98247" lon="4.85672">
        <ele>274.100006104</ele>
        <time>2015-09-20T10:09:31.847Z</time>
      </trkpt>
      <trkpt lat="45.98249" lon="4.85679">
        <ele>274.200012207</ele>
        <time>2015-09-20T10:09:32.902Z</time>
      </trkpt>
      <trkpt lat="45.98252" lon="4.85686">
        <ele>274.5</ele>
        <time>2015-09-20T10:09:33.841Z</time>
      </trkpt>
      <trkpt lat="45.98254" lon="4.85692">
        <ele>274.600006104</ele>
        <time>2015-09-20T10:09:34.866Z</time>
      </trkpt>
      <trkpt lat="45.98257" lon="4.85698">
        <ele>274.600006104</ele>
        <time>2015-09-20T10:09:35.844Z</time>
      </trkpt>
      <trkpt lat="45.98259" lon="4.85704">
        <ele>274.799987793</ele>
        <time>2015-09-20T10:09:36.866Z</time>
      </trkpt>
      <trkpt lat="45.98262" lon="4.8571">
        <ele>274.700012207</ele>
        <time>2015-09-20T10:09:37.842Z</time>
      </trkpt>
      <trkpt lat="45.98265" lon="4.85717">
        <ele>274.399993896</ele>
        <time>2015-09-20T10:09:38.865Z</time>
      </trkpt>
      <trkpt lat="45.98268" lon="4.85724">
        <ele>274.600006104</ele>
        <time>2015-09-20T10:09:39.865Z</time>
      </trkpt>
      <trkpt lat="45.9827" lon="4.85731">
        <ele>274.700012207</ele>
        <time>2015-09-20T10:09:40.867Z</time>
      </trkpt>
      <trkpt lat="45.98273" lon="4.85737">
        <ele>274.600006104</ele>
        <time>2015-09-20T10:09:41.844Z</time>
      </trkpt>
      <trkpt lat="45.98276" lon="4.85744">
        <ele>274.5</ele>
        <time>2015-09-20T10:09:42.865Z</time>
      </trkpt>
      <trkpt lat="45.98278" lon="4.85751">
        <ele>274.899993896</ele>
        <time>2015-09-20T10:09:43.842Z</time>
      </trkpt>
      <trkpt lat="45.98281" lon="4.85758">
        <ele>275</ele>
        <time>2015-09-20T10:09:44.87Z</time>
      </trkpt>
      <trkpt lat="45.98284" lon="4.85764">
        <ele>275.100006104</ele>
        <time>2015-09-20T10:09:45.841Z</time>
      </trkpt>
      <trkpt lat="45.98286" lon="4.85771">
        <ele>275.100006104</ele>
        <time>2015-09-20T10:09:46.879Z</time>
      </trkpt>
      <trkpt lat="45.98289" lon="4.85778">
        <ele>275.200012207</ele>
        <time>2015-09-20T10:09:47.844Z</time>
      </trkpt>
      <trkpt lat="45.98291" lon="4.85785">
        <ele>275.100006104</ele>
        <time>2015-09-20T10:09:48.865Z</time>
      </trkpt>
      <trkpt lat="45.98294" lon="4.85791">
        <ele>275.100006104</ele>
        <time>2015-09-20T10:09:49.842Z</time>
      </trkpt>
      <trkpt lat="45.98296" lon="4.85798">
        <ele>275.100006104</ele>
        <time>2015-09-20T10:09:50.867Z</time>
      </trkpt>
      <trkpt lat="45.98299" lon="4.85805">
        <ele>275.299987793</ele>
        <time>2015-09-20T10:09:51.842Z</time>
      </trkpt>
      <trkpt lat="45.98302" lon="4.85812">
        <ele>275.399993896</ele>
        <time>2015-09-20T10:09:52.887Z</time>
      </trkpt>
      <trkpt lat="45.98305" lon="4.85819">
        <ele>275.399993896</ele>
        <time>2015-09-20T10:09:53.846Z</time>
      </trkpt>
      <trkpt lat="45.98308" lon="4.85825">
        <ele>275.299987793</ele>
        <time>2015-09-20T10:09:54.865Z</time>
      </trkpt>
      <trkpt lat="45.98311" lon="4.85832">
        <ele>275.200012207</ele>
        <time>2015-09-20T10:09:55.842Z</time>
      </trkpt>
      <trkpt lat="45.98313" lon="4.85839">
        <ele>275.200012207</ele>
        <time>2015-09-20T10:09:56.866Z</time>
      </trkpt>
      <trkpt lat="45.98316" lon="4.85845">
        <ele>275</ele>
        <time>2015-09-20T10:09:57.845Z</time>
      </trkpt>
      <trkpt lat="45.98319" lon="4.85852">
        <ele>274.899993896</ele>
        <time>2015-09-20T10:09:58.867Z</time>
      </trkpt>
      <trkpt lat="45.98322" lon="4.85858">
        <ele>274.799987793</ele>
        <time>2015-09-20T10:09:59.844Z</time>
      </trkpt>
      <trkpt lat="45.98324" lon="4.85864">
        <ele>274.600006104</ele>
        <time>2015-09-20T10:10:00.904Z</time>
      </trkpt>
      <trkpt lat="45.98327" lon="4.8587">
        <ele>274.5</ele>
        <time>2015-09-20T10:10:01.843Z</time>
      </trkpt>
      <trkpt lat="45.98329" lon="4.85876">
        <ele>274.700012207</ele>
        <time>2015-09-20T10:10:02.944Z</time>
      </trkpt>
      <trkpt lat="45.98332" lon="4.85882">
        <ele>274.799987793</ele>
        <time>2015-09-20T10:10:03.841Z</time>
      </trkpt>
      <trkpt lat="45.98335" lon="4.85888">
        <ele>274.799987793</ele>
        <time>2015-09-20T10:10:04.866Z</time>
      </trkpt>
      <trkpt lat="45.98338" lon="4.85895">
        <ele>274.799987793</ele>
        <time>2015-09-20T10:10:05.845Z</time>
      </trkpt>
      <trkpt lat="45.9834" lon="4.85901">
        <ele>274.700012207</ele>
        <time>2015-09-20T10:10:06.865Z</time>
      </trkpt>
      <trkpt lat="45.98342" lon="4.85907">
        <ele>274.399993896</ele>
        <time>2015-09-20T10:10:07.846Z</time>
      </trkpt>
      <trkpt lat="45.98345" lon="4.85913">
        <ele>274.299987793</ele>
        <time>2015-09-20T10:10:08.865Z</time>
      </trkpt>
      <trkpt lat="45.98348" lon="4.8592">
        <ele>274.100006104</ele>
        <time>2015-09-20T10:10:09.842Z</time>
      </trkpt>
      <trkpt lat="45.98351" lon="4.85926">
        <ele>274.200012207</ele>
        <time>2015-09-20T10:10:10.865Z</time>
      </trkpt>
      <trkpt lat="45.98353" lon="4.85933">
        <ele>274.200012207</ele>
        <time>2015-09-20T10:10:11.844Z</time>
      </trkpt>
      <trkpt lat="45.98357" lon="4.85939">
        <ele>274.100006104</ele>
        <time>2015-09-20T10:10:12.867Z</time>
      </trkpt>
      <trkpt lat="45.98359" lon="4.85946">
        <ele>274.100006104</ele>
        <time>2015-09-20T10:10:13.877Z</time>
      </trkpt>
      <trkpt lat="45.98362" lon="4.85952">
        <ele>274</ele>
        <time>2015-09-20T10:10:14.866Z</time>
      </trkpt>
      <trkpt lat="45.98365" lon="4.85959">
        <ele>274.100006104</ele>
        <time>2015-09-20T10:10:15.842Z</time>
      </trkpt>
      <trkpt lat="45.98368" lon="4.85965">
        <ele>274.200012207</ele>
        <time>2015-09-20T10:10:16.904Z</time>
      </trkpt>
      <trkpt lat="45.9837" lon="4.85971">
        <ele>274.299987793</ele>
        <time>2015-09-20T10:10:17.845Z</time>
      </trkpt>
      <trkpt lat="45.98373" lon="4.85977">
        <ele>274.200012207</ele>
        <time>2015-09-20T10:10:18.89Z</time>
      </trkpt>
      <trkpt lat="45.98376" lon="4.85983">
        <ele>274.299987793</ele>
        <time>2015-09-20T10:10:19.843Z</time>
      </trkpt>
      <trkpt lat="45.98378" lon="4.85989">
        <ele>274.399993896</ele>
        <time>2015-09-20T10:10:20.866Z</time>
      </trkpt>
      <trkpt lat="45.98381" lon="4.85995">
        <ele>274.200012207</ele>
        <time>2015-09-20T10:10:21.841Z</time>
      </trkpt>
      <trkpt lat="45.98383" lon="4.86002">
        <ele>274</ele>
        <time>2015-09-20T10:10:22.866Z</time>
      </trkpt>
      <trkpt lat="45.98386" lon="4.86009">
        <ele>273.899993896</ele>
        <time>2015-09-20T10:10:23.847Z</time>
      </trkpt>
      <trkpt lat="45.98388" lon="4.86015">
        <ele>273.799987793</ele>
        <time>2015-09-20T10:10:24.867Z</time>
      </trkpt>
      <trkpt lat="45.98391" lon="4.86022">
        <ele>273.799987793</ele>
        <time>2015-09-20T10:10:25.843Z</time>
      </trkpt>
      <trkpt lat="45.98395" lon="4.86028">
        <ele>274.399993896</ele>
        <time>2015-09-20T10:10:26.867Z</time>
      </trkpt>
      <trkpt lat="45.98396" lon="4.86034">
        <ele>273.899993896</ele>
        <time>2015-09-20T10:10:27.841Z</time>
      </trkpt>
      <trkpt lat="45.98399" lon="4.86041">
        <ele>274.799987793</ele>
        <time>2015-09-20T10:10:28.865Z</time>
      </trkpt>
      <trkpt lat="45.98401" lon="4.86048">
        <ele>274.799987793</ele>
        <time>2015-09-20T10:10:29.844Z</time>
      </trkpt>
      <trkpt lat="45.98402" lon="4.86055">
        <ele>274.600006104</ele>
        <time>2015-09-20T10:10:30.866Z</time>
      </trkpt>
      <trkpt lat="45.98403" lon="4.86061">
        <ele>274.899993896</ele>
        <time>2015-09-20T10:10:31.843Z</time>
      </trkpt>
      <trkpt lat="45.98405" lon="4.86073">
        <ele>275.100006104</ele>
        <time>2015-09-20T10:10:33.916Z</time>
      </trkpt>
      <trkpt lat="45.98406" lon="4.86078">
        <ele>275.5</ele>
        <time>2015-09-20T10:10:34.89Z</time>
      </trkpt>
      <trkpt lat="45.98408" lon="4.86089">
        <ele>276.700012207</ele>
        <time>2015-09-20T10:10:36.867Z</time>
      </trkpt>
      <trkpt lat="45.98409" lon="4.86093">
        <ele>277.299987793</ele>
        <time>2015-09-20T10:10:37.843Z</time>
      </trkpt>
      <trkpt lat="45.98409" lon="4.86103">
        <ele>278.100006104</ele>
        <time>2015-09-20T10:10:39.866Z</time>
      </trkpt>
      <trkpt lat="45.98409" lon="4.86107">
        <ele>278.700012207</ele>
        <time>2015-09-20T10:10:40.842Z</time>
      </trkpt>
      <trkpt lat="45.98409" lon="4.86116">
        <ele>279.200012207</ele>
        <time>2015-09-20T10:10:42.867Z</time>
      </trkpt>
      <trkpt lat="45.98409" lon="4.8612">
        <ele>279.200012207</ele>
        <time>2015-09-20T10:10:43.842Z</time>
      </trkpt>
      <trkpt lat="45.98412" lon="4.8613">
        <ele>279.799987793</ele>
        <time>2015-09-20T10:10:46.866Z</time>
      </trkpt>
      <trkpt lat="45.98414" lon="4.86134">
        <ele>280.200012207</ele>
        <time>2015-09-20T10:10:47.845Z</time>
      </trkpt>
      <trkpt lat="45.98415" lon="4.86143">
        <ele>280.899993896</ele>
        <time>2015-09-20T10:10:49.87Z</time>
      </trkpt>
      <trkpt lat="45.98416" lon="4.86147">
        <ele>281.299987793</ele>
        <time>2015-09-20T10:10:50.857Z</time>
      </trkpt>
      <trkpt lat="45.98417" lon="4.86156">
        <ele>281.399993896</ele>
        <time>2015-09-20T10:10:52.866Z</time>
      </trkpt>
      <trkpt lat="45.98417" lon="4.86161">
        <ele>281.700012207</ele>
        <time>2015-09-20T10:10:53.844Z</time>
      </trkpt>
      <trkpt lat="45.98418" lon="4.8617">
        <ele>281.600006104</ele>
        <time>2015-09-20T10:10:55.867Z</time>
      </trkpt>
      <trkpt lat="45.98419" lon="4.86175">
        <ele>282</ele>
        <time>2015-09-20T10:10:56.872Z</time>
      </trkpt>
      <trkpt lat="45.9842" lon="4.86186">
        <ele>282.899993896</ele>
        <time>2015-09-20T10:10:58.866Z</time>
      </trkpt>
      <trkpt lat="45.98421" lon="4.86191">
        <ele>283.299987793</ele>
        <time>2015-09-20T10:10:59.844Z</time>
      </trkpt>
      <trkpt lat="45.98422" lon="4.86202">
        <ele>283.100006104</ele>
        <time>2015-09-20T10:11:01.867Z</time>
      </trkpt>
      <trkpt lat="45.98423" lon="4.86208">
        <ele>283.299987793</ele>
        <time>2015-09-20T10:11:02.841Z</time>
      </trkpt>
      <trkpt lat="45.98425" lon="4.8622">
        <ele>283.200012207</ele>
        <time>2015-09-20T10:11:04.875Z</time>
      </trkpt>
      <trkpt lat="45.98426" lon="4.86226">
        <ele>282.5</ele>
        <time>2015-09-20T10:11:05.845Z</time>
      </trkpt>
      <trkpt lat="45.98427" lon="4.86233">
        <ele>282.299987793</ele>
        <time>2015-09-20T10:11:06.866Z</time>
      </trkpt>
      <trkpt lat="45.98428" lon="4.8624">
        <ele>282.399993896</ele>
        <time>2015-09-20T10:11:07.847Z</time>
      </trkpt>
      <trkpt lat="45.98429" lon="4.86248">
        <ele>282.399993896</ele>
        <time>2015-09-20T10:11:08.866Z</time>
      </trkpt>
      <trkpt lat="45.9843" lon="4.86256">
        <ele>282.100006104</ele>
        <time>2015-09-20T10:11:09.841Z</time>
      </trkpt>
      <trkpt lat="45.98432" lon="4.86265">
        <ele>281.700012207</ele>
        <time>2015-09-20T10:11:10.865Z</time>
      </trkpt>
      <trkpt lat="45.98433" lon="4.86275">
        <ele>281.200012207</ele>
        <time>2015-09-20T10:11:11.86Z</time>
      </trkpt>
      <trkpt lat="45.98435" lon="4.86284">
        <ele>281</ele>
        <time>2015-09-20T10:11:12.865Z</time>
      </trkpt>
      <trkpt lat="45.98436" lon="4.86294">
        <ele>280.600006104</ele>
        <time>2015-09-20T10:11:13.842Z</time>
      </trkpt>
      <trkpt lat="45.98438" lon="4.86304">
        <ele>279.899993896</ele>
        <time>2015-09-20T10:11:14.974Z</time>
      </trkpt>
      <trkpt lat="45.9844" lon="4.86315">
        <ele>279.100006104</ele>
        <time>2015-09-20T10:11:15.846Z</time>
      </trkpt>
      <trkpt lat="45.98443" lon="4.86324">
        <ele>278.799987793</ele>
        <time>2015-09-20T10:11:16.988Z</time>
      </trkpt>
      <trkpt lat="45.98445" lon="4.86334">
        <ele>278.600006104</ele>
        <time>2015-09-20T10:11:17.845Z</time>
      </trkpt>
      <trkpt lat="45.98448" lon="4.86344">
        <ele>278.700012207</ele>
        <time>2015-09-20T10:11:18.866Z</time>
      </trkpt>
      <trkpt lat="45.9845" lon="4.86354">
        <ele>278.799987793</ele>
        <time>2015-09-20T10:11:19.842Z</time>
      </trkpt>
      <trkpt lat="45.98453" lon="4.86363">
        <ele>278.700012207</ele>
        <time>2015-09-20T10:11:20.874Z</time>
      </trkpt>
      <trkpt lat="45.98456" lon="4.86371">
        <ele>278.600006104</ele>
        <time>2015-09-20T10:11:21.841Z</time>
      </trkpt>
      <trkpt lat="45.98459" lon="4.8638">
        <ele>278.5</ele>
        <time>2015-09-20T10:11:22.866Z</time>
      </trkpt>
      <trkpt lat="45.98462" lon="4.86388">
        <ele>278.299987793</ele>
        <time>2015-09-20T10:11:23.844Z</time>
      </trkpt>
      <trkpt lat="45.98465" lon="4.86396">
        <ele>278.200012207</ele>
        <time>2015-09-20T10:11:24.865Z</time>
      </trkpt>
      <trkpt lat="45.98469" lon="4.86404">
        <ele>277.799987793</ele>
        <time>2015-09-20T10:11:25.842Z</time>
      </trkpt>
      <trkpt lat="45.98473" lon="4.86412">
        <ele>277.899993896</ele>
        <time>2015-09-20T10:11:26.865Z</time>
      </trkpt>
      <trkpt lat="45.98476" lon="4.8642">
        <ele>278</ele>
        <time>2015-09-20T10:11:27.857Z</time>
      </trkpt>
      <trkpt lat="45.9848" lon="4.86427">
        <ele>277.799987793</ele>
        <time>2015-09-20T10:11:28.924Z</time>
      </trkpt>
      <trkpt lat="45.98484" lon="4.86435">
        <ele>277.600006104</ele>
        <time>2015-09-20T10:11:29.844Z</time>
      </trkpt>
      <trkpt lat="45.98487" lon="4.86443">
        <ele>277.200012207</ele>
        <time>2015-09-20T10:11:30.866Z</time>
      </trkpt>
      <trkpt lat="45.98491" lon="4.86451">
        <ele>277.5</ele>
        <time>2015-09-20T10:11:31.843Z</time>
      </trkpt>
      <trkpt lat="45.98495" lon="4.86458">
        <ele>277.399993896</ele>
        <time>2015-09-20T10:11:32.867Z</time>
      </trkpt>
      <trkpt lat="45.98499" lon="4.86465">
        <ele>277.299987793</ele>
        <time>2015-09-20T10:11:33.841Z</time>
      </trkpt>
      <trkpt lat="45.98502" lon="4.86472">
        <ele>277.200012207</ele>
        <time>2015-09-20T10:11:34.866Z</time>
      </trkpt>
      <trkpt lat="45.98505" lon="4.86478">
        <ele>277.100006104</ele>
        <time>2015-09-20T10:11:35.845Z</time>
      </trkpt>
      <trkpt lat="45.98508" lon="4.86485">
        <ele>276.799987793</ele>
        <time>2015-09-20T10:11:36.866Z</time>
      </trkpt>
      <trkpt lat="45.98511" lon="4.86492">
        <ele>276.5</ele>
        <time>2015-09-20T10:11:37.843Z</time>
      </trkpt>
      <trkpt lat="45.98515" lon="4.86499">
        <ele>276.5</ele>
        <time>2015-09-20T10:11:38.924Z</time>
      </trkpt>
      <trkpt lat="45.98518" lon="4.86505">
        <ele>276.299987793</ele>
        <time>2015-09-20T10:11:39.85Z</time>
      </trkpt>
      <trkpt lat="45.98522" lon="4.86513">
        <ele>276.100006104</ele>
        <time>2015-09-20T10:11:40.866Z</time>
      </trkpt>
      <trkpt lat="45.98525" lon="4.8652">
        <ele>276.100006104</ele>
        <time>2015-09-20T10:11:41.847Z</time>
      </trkpt>
      <trkpt lat="45.98529" lon="4.86527">
        <ele>276.100006104</ele>
        <time>2015-09-20T10:11:42.867Z</time>
      </trkpt>
      <trkpt lat="45.98532" lon="4.86533">
        <ele>276.200012207</ele>
        <time>2015-09-20T10:11:43.843Z</time>
      </trkpt>
      <trkpt lat="45.98535" lon="4.8654">
        <ele>276.100006104</ele>
        <time>2015-09-20T10:11:44.865Z</time>
      </trkpt>
      <trkpt lat="45.98538" lon="4.86546">
        <ele>276.299987793</ele>
        <time>2015-09-20T10:11:45.841Z</time>
      </trkpt>
      <trkpt lat="45.98541" lon="4.86553">
        <ele>276.600006104</ele>
        <time>2015-09-20T10:11:46.865Z</time>
      </trkpt>
      <trkpt lat="45.98544" lon="4.86562">
        <ele>277.200012207</ele>
        <time>2015-09-20T10:11:47.844Z</time>
      </trkpt>
      <trkpt lat="45.98546" lon="4.86569">
        <ele>277.600006104</ele>
        <time>2015-09-20T10:11:48.865Z</time>
      </trkpt>
      <trkpt lat="45.98548" lon="4.86576">
        <ele>277.799987793</ele>
        <time>2015-09-20T10:11:49.842Z</time>
      </trkpt>
      <trkpt lat="45.9855" lon="4.86583">
        <ele>278.100006104</ele>
        <time>2015-09-20T10:11:50.866Z</time>
      </trkpt>
      <trkpt lat="45.98551" lon="4.8659">
        <ele>278.299987793</ele>
        <time>2015-09-20T10:11:51.841Z</time>
      </trkpt>
      <trkpt lat="45.98553" lon="4.86596">
        <ele>278.700012207</ele>
        <time>2015-09-20T10:11:52.875Z</time>
      </trkpt>
      <trkpt lat="45.98554" lon="4.86604">
        <ele>279.200012207</ele>
        <time>2015-09-20T10:11:53.844Z</time>
      </trkpt>
      <trkpt lat="45.98556" lon="4.86611">
        <ele>279</ele>
        <time>2015-09-20T10:11:54.879Z</time>
      </trkpt>
      <trkpt lat="45.98558" lon="4.86618">
        <ele>279.100006104</ele>
        <time>2015-09-20T10:11:55.838Z</time>
      </trkpt>
      <trkpt lat="45.98558" lon="4.86627">
        <ele>279</ele>
        <time>2015-09-20T10:11:56.866Z</time>
      </trkpt>
      <trkpt lat="45.98559" lon="4.86635">
        <ele>279.399993896</ele>
        <time>2015-09-20T10:11:57.843Z</time>
      </trkpt>
      <trkpt lat="45.98562" lon="4.86643">
        <ele>279.5</ele>
        <time>2015-09-20T10:11:58.866Z</time>
      </trkpt>
      <trkpt lat="45.98562" lon="4.86651">
        <ele>279.600006104</ele>
        <time>2015-09-20T10:11:59.845Z</time>
      </trkpt>
      <trkpt lat="45.98564" lon="4.8666">
        <ele>279.899993896</ele>
        <time>2015-09-20T10:12:00.908Z</time>
      </trkpt>
      <trkpt lat="45.98565" lon="4.86669">
        <ele>279.5</ele>
        <time>2015-09-20T10:12:01.843Z</time>
      </trkpt>
      <trkpt lat="45.98567" lon="4.86678">
        <ele>279.399993896</ele>
        <time>2015-09-20T10:12:02.866Z</time>
      </trkpt>
      <trkpt lat="45.98568" lon="4.86687">
        <ele>279.5</ele>
        <time>2015-09-20T10:12:03.842Z</time>
      </trkpt>
      <trkpt lat="45.9857" lon="4.86695">
        <ele>279.700012207</ele>
        <time>2015-09-20T10:12:04.866Z</time>
      </trkpt>
      <trkpt lat="45.98571" lon="4.86704">
        <ele>280</ele>
        <time>2015-09-20T10:12:05.844Z</time>
      </trkpt>
      <trkpt lat="45.98572" lon="4.86713">
        <ele>279.700012207</ele>
        <time>2015-09-20T10:12:06.866Z</time>
      </trkpt>
      <trkpt lat="45.98573" lon="4.86722">
        <ele>279.899993896</ele>
        <time>2015-09-20T10:12:07.849Z</time>
      </trkpt>
      <trkpt lat="45.98575" lon="4.86732">
        <ele>279.899993896</ele>
        <time>2015-09-20T10:12:08.867Z</time>
      </trkpt>
      <trkpt lat="45.98575" lon="4.86742">
        <ele>280.100006104</ele>
        <time>2015-09-20T10:12:09.841Z</time>
      </trkpt>
      <trkpt lat="45.98576" lon="4.8675">
        <ele>280.600006104</ele>
        <time>2015-09-20T10:12:10.879Z</time>
      </trkpt>
      <trkpt lat="45.98577" lon="4.86758">
        <ele>280.799987793</ele>
        <time>2015-09-20T10:12:11.914Z</time>
      </trkpt>
      <trkpt lat="45.98578" lon="4.86765">
        <ele>281.100006104</ele>
        <time>2015-09-20T10:12:12.866Z</time>
      </trkpt>
      <trkpt lat="45.98579" lon="4.86773">
        <ele>281.100006104</ele>
        <time>2015-09-20T10:12:13.843Z</time>
      </trkpt>
      <trkpt lat="45.98581" lon="4.86781">
        <ele>281.299987793</ele>
        <time>2015-09-20T10:12:14.866Z</time>
      </trkpt>
      <trkpt lat="45.98581" lon="4.8679">
        <ele>280.700012207</ele>
        <time>2015-09-20T10:12:15.841Z</time>
      </trkpt>
      <trkpt lat="45.98582" lon="4.86798">
        <ele>280.299987793</ele>
        <time>2015-09-20T10:12:16.866Z</time>
      </trkpt>
      <trkpt lat="45.98582" lon="4.86806">
        <ele>279.799987793</ele>
        <time>2015-09-20T10:12:17.844Z</time>
      </trkpt>
      <trkpt lat="45.98583" lon="4.86814">
        <ele>279.299987793</ele>
        <time>2015-09-20T10:12:18.866Z</time>
      </trkpt>
      <trkpt lat="45.98583" lon="4.86821">
        <ele>278.200012207</ele>
        <time>2015-09-20T10:12:19.842Z</time>
      </trkpt>
      <trkpt lat="45.98584" lon="4.8683">
        <ele>278.200012207</ele>
        <time>2015-09-20T10:12:20.887Z</time>
      </trkpt>
      <trkpt lat="45.98584" lon="4.86839">
        <ele>278.100006104</ele>
        <time>2015-09-20T10:12:21.842Z</time>
      </trkpt>
      <trkpt lat="45.98584" lon="4.86848">
        <ele>278.200012207</ele>
        <time>2015-09-20T10:12:22.904Z</time>
      </trkpt>
      <trkpt lat="45.98584" lon="4.86857">
        <ele>278</ele>
        <time>2015-09-20T10:12:23.844Z</time>
      </trkpt>
      <trkpt lat="45.98584" lon="4.86867">
        <ele>277.700012207</ele>
        <time>2015-09-20T10:12:24.866Z</time>
      </trkpt>
      <trkpt lat="45.98584" lon="4.86876">
        <ele>277.399993896</ele>
        <time>2015-09-20T10:12:25.842Z</time>
      </trkpt>
      <trkpt lat="45.98583" lon="4.86886">
        <ele>277.200012207</ele>
        <time>2015-09-20T10:12:26.879Z</time>
      </trkpt>
      <trkpt lat="45.98583" lon="4.86896">
        <ele>276.899993896</ele>
        <time>2015-09-20T10:12:27.842Z</time>
      </trkpt>
      <trkpt lat="45.98583" lon="4.86907">
        <ele>276.600006104</ele>
        <time>2015-09-20T10:12:28.866Z</time>
      </trkpt>
      <trkpt lat="45.98582" lon="4.86917">
        <ele>276.5</ele>
        <time>2015-09-20T10:12:29.844Z</time>
      </trkpt>
      <trkpt lat="45.98583" lon="4.86927">
        <ele>276.600006104</ele>
        <time>2015-09-20T10:12:30.866Z</time>
      </trkpt>
      <trkpt lat="45.98583" lon="4.86938">
        <ele>276.700012207</ele>
        <time>2015-09-20T10:12:31.842Z</time>
      </trkpt>
      <trkpt lat="45.98583" lon="4.86948">
        <ele>276.5</ele>
        <time>2015-09-20T10:12:32.866Z</time>
      </trkpt>
      <trkpt lat="45.98583" lon="4.86958">
        <ele>276.600006104</ele>
        <time>2015-09-20T10:12:33.845Z</time>
      </trkpt>
      <trkpt lat="45.98583" lon="4.86968">
        <ele>276.799987793</ele>
        <time>2015-09-20T10:12:34.868Z</time>
      </trkpt>
      <trkpt lat="45.98583" lon="4.86978">
        <ele>277</ele>
        <time>2015-09-20T10:12:35.844Z</time>
      </trkpt>
      <trkpt lat="45.98584" lon="4.86988">
        <ele>276.700012207</ele>
        <time>2015-09-20T10:12:36.866Z</time>
      </trkpt>
      <trkpt lat="45.98585" lon="4.86998">
        <ele>276.700012207</ele>
        <time>2015-09-20T10:12:37.843Z</time>
      </trkpt>
      <trkpt lat="45.98587" lon="4.87007">
        <ele>276.700012207</ele>
        <time>2015-09-20T10:12:38.866Z</time>
      </trkpt>
      <trkpt lat="45.98589" lon="4.87017">
        <ele>276.799987793</ele>
        <time>2015-09-20T10:12:39.841Z</time>
      </trkpt>
      <trkpt lat="45.98591" lon="4.87027">
        <ele>276.899993896</ele>
        <time>2015-09-20T10:12:40.866Z</time>
      </trkpt>
      <trkpt lat="45.98592" lon="4.87036">
        <ele>277.200012207</ele>
        <time>2015-09-20T10:12:41.844Z</time>
      </trkpt>
      <trkpt lat="45.98594" lon="4.87046">
        <ele>277.299987793</ele>
        <time>2015-09-20T10:12:42.879Z</time>
      </trkpt>
      <trkpt lat="45.98596" lon="4.87055">
        <ele>277.700012207</ele>
        <time>2015-09-20T10:12:43.842Z</time>
      </trkpt>
      <trkpt lat="45.98598" lon="4.87064">
        <ele>277.899993896</ele>
        <time>2015-09-20T10:12:44.865Z</time>
      </trkpt>
      <trkpt lat="45.986" lon="4.87071">
        <ele>278.100006104</ele>
        <time>2015-09-20T10:12:45.841Z</time>
      </trkpt>
      <trkpt lat="45.98602" lon="4.87078">
        <ele>278.100006104</ele>
        <time>2015-09-20T10:12:46.866Z</time>
      </trkpt>
      <trkpt lat="45.98603" lon="4.87086">
        <ele>278.200012207</ele>
        <time>2015-09-20T10:12:47.844Z</time>
      </trkpt>
      <trkpt lat="45.98604" lon="4.87094">
        <ele>278.399993896</ele>
        <time>2015-09-20T10:12:48.865Z</time>
      </trkpt>
      <trkpt lat="45.98606" lon="4.87104">
        <ele>278.600006104</ele>
        <time>2015-09-20T10:12:49.842Z</time>
      </trkpt>
      <trkpt lat="45.98605" lon="4.87114">
        <ele>278.200012207</ele>
        <time>2015-09-20T10:12:50.865Z</time>
      </trkpt>
      <trkpt lat="45.98606" lon="4.87123">
        <ele>278.100006104</ele>
        <time>2015-09-20T10:12:51.841Z</time>
      </trkpt>
      <trkpt lat="45.98606" lon="4.87133">
        <ele>277.700012207</ele>
        <time>2015-09-20T10:12:52.865Z</time>
      </trkpt>
      <trkpt lat="45.98605" lon="4.87144">
        <ele>277.799987793</ele>
        <time>2015-09-20T10:12:53.843Z</time>
      </trkpt>
      <trkpt lat="45.98603" lon="4.87154">
        <ele>277.799987793</ele>
        <time>2015-09-20T10:12:54.874Z</time>
      </trkpt>
      <trkpt lat="45.98602" lon="4.87164">
        <ele>278.200012207</ele>
        <time>2015-09-20T10:12:55.881Z</time>
      </trkpt>
      <trkpt lat="45.98601" lon="4.87174">
        <ele>278.200012207</ele>
        <time>2015-09-20T10:12:56.899Z</time>
      </trkpt>
      <trkpt lat="45.98601" lon="4.87183">
        <ele>278.100006104</ele>
        <time>2015-09-20T10:12:57.841Z</time>
      </trkpt>
      <trkpt lat="45.98601" lon="4.87192">
        <ele>278</ele>
        <time>2015-09-20T10:12:58.879Z</time>
      </trkpt>
      <trkpt lat="45.986" lon="4.87202">
        <ele>278.200012207</ele>
        <time>2015-09-20T10:12:59.847Z</time>
      </trkpt>
      <trkpt lat="45.98599" lon="4.87212">
        <ele>278.100006104</ele>
        <time>2015-09-20T10:13:00.867Z</time>
      </trkpt>
      <trkpt lat="45.98598" lon="4.87222">
        <ele>277.899993896</ele>
        <time>2015-09-20T10:13:01.842Z</time>
      </trkpt>
      <trkpt lat="45.98597" lon="4.87232">
        <ele>277.799987793</ele>
        <time>2015-09-20T10:13:02.865Z</time>
      </trkpt>
      <trkpt lat="45.98597" lon="4.87243">
        <ele>277.899993896</ele>
        <time>2015-09-20T10:13:03.841Z</time>
      </trkpt>
      <trkpt lat="45.98596" lon="4.87254">
        <ele>278</ele>
        <time>2015-09-20T10:13:04.867Z</time>
      </trkpt>
      <trkpt lat="45.98595" lon="4.87264">
        <ele>278</ele>
        <time>2015-09-20T10:13:05.844Z</time>
      </trkpt>
      <trkpt lat="45.98594" lon="4.87274">
        <ele>278.200012207</ele>
        <time>2015-09-20T10:13:06.934Z</time>
      </trkpt>
      <trkpt lat="45.98594" lon="4.87284">
        <ele>278.200012207</ele>
        <time>2015-09-20T10:13:07.845Z</time>
      </trkpt>
      <trkpt lat="45.98594" lon="4.87294">
        <ele>278.399993896</ele>
        <time>2015-09-20T10:13:08.866Z</time>
      </trkpt>
      <trkpt lat="45.98595" lon="4.87305">
        <ele>278.600006104</ele>
        <time>2015-09-20T10:13:09.841Z</time>
      </trkpt>
      <trkpt lat="45.98595" lon="4.87316">
        <ele>278.799987793</ele>
        <time>2015-09-20T10:13:10.866Z</time>
      </trkpt>
      <trkpt lat="45.98597" lon="4.87327">
        <ele>278.700012207</ele>
        <time>2015-09-20T10:13:11.845Z</time>
      </trkpt>
      <trkpt lat="45.98598" lon="4.87337">
        <ele>278.600006104</ele>
        <time>2015-09-20T10:13:12.865Z</time>
      </trkpt>
      <trkpt lat="45.986" lon="4.87348">
        <ele>278.399993896</ele>
        <time>2015-09-20T10:13:13.842Z</time>
      </trkpt>
      <trkpt lat="45.98602" lon="4.87358">
        <ele>278.200012207</ele>
        <time>2015-09-20T10:13:14.9Z</time>
      </trkpt>
      <trkpt lat="45.98605" lon="4.87368">
        <ele>277.799987793</ele>
        <time>2015-09-20T10:13:15.841Z</time>
      </trkpt>
      <trkpt lat="45.98607" lon="4.87378">
        <ele>277.399993896</ele>
        <time>2015-09-20T10:13:16.898Z</time>
      </trkpt>
      <trkpt lat="45.98609" lon="4.87388">
        <ele>276.799987793</ele>
        <time>2015-09-20T10:13:17.904Z</time>
      </trkpt>
      <trkpt lat="45.98612" lon="4.87399">
        <ele>276.399993896</ele>
        <time>2015-09-20T10:13:18.866Z</time>
      </trkpt>
      <trkpt lat="45.98614" lon="4.87409">
        <ele>275.799987793</ele>
        <time>2015-09-20T10:13:19.842Z</time>
      </trkpt>
      <trkpt lat="45.98616" lon="4.8742">
        <ele>275.399993896</ele>
        <time>2015-09-20T10:13:20.865Z</time>
      </trkpt>
      <trkpt lat="45.98618" lon="4.87432">
        <ele>274.899993896</ele>
        <time>2015-09-20T10:13:21.841Z</time>
      </trkpt>
      <trkpt lat="45.9862" lon="4.87443">
        <ele>274.700012207</ele>
        <time>2015-09-20T10:13:22.866Z</time>
      </trkpt>
      <trkpt lat="45.98622" lon="4.87453">
        <ele>274.200012207</ele>
        <time>2015-09-20T10:13:23.844Z</time>
      </trkpt>
      <trkpt lat="45.98624" lon="4.87464">
        <ele>273.899993896</ele>
        <time>2015-09-20T10:13:24.865Z</time>
      </trkpt>
      <trkpt lat="45.98627" lon="4.87475">
        <ele>273.5</ele>
        <time>2015-09-20T10:13:25.845Z</time>
      </trkpt>
      <trkpt lat="45.98629" lon="4.87486">
        <ele>273.299987793</ele>
        <time>2015-09-20T10:13:26.866Z</time>
      </trkpt>
      <trkpt lat="45.98631" lon="4.87497">
        <ele>272.700012207</ele>
        <time>2015-09-20T10:13:27.841Z</time>
      </trkpt>
      <trkpt lat="45.98633" lon="4.87507">
        <ele>271.600006104</ele>
        <time>2015-09-20T10:13:28.894Z</time>
      </trkpt>
      <trkpt lat="45.98634" lon="4.87517">
        <ele>271.299987793</ele>
        <time>2015-09-20T10:13:29.844Z</time>
      </trkpt>
      <trkpt lat="45.98635" lon="4.87528">
        <ele>271.100006104</ele>
        <time>2015-09-20T10:13:30.88Z</time>
      </trkpt>
      <trkpt lat="45.98636" lon="4.87538">
        <ele>271</ele>
        <time>2015-09-20T10:13:31.842Z</time>
      </trkpt>
      <trkpt lat="45.98638" lon="4.87547">
        <ele>270.899993896</ele>
        <time>2015-09-20T10:13:32.866Z</time>
      </trkpt>
      <trkpt lat="45.98642" lon="4.87556">
        <ele>270.299987793</ele>
        <time>2015-09-20T10:13:33.842Z</time>
      </trkpt>
      <trkpt lat="45.98648" lon="4.87564">
        <ele>270.100006104</ele>
        <time>2015-09-20T10:13:34.866Z</time>
      </trkpt>
      <trkpt lat="45.98654" lon="4.87569">
        <ele>269.899993896</ele>
        <time>2015-09-20T10:13:35.844Z</time>
      </trkpt>
      <trkpt lat="45.98661" lon="4.87571">
        <ele>269.200012207</ele>
        <time>2015-09-20T10:13:36.865Z</time>
      </trkpt>
      <trkpt lat="45.98667" lon="4.87571">
        <ele>269</ele>
        <time>2015-09-20T10:13:37.877Z</time>
      </trkpt>
      <trkpt lat="45.98673" lon="4.87571">
        <ele>269</ele>
        <time>2015-09-20T10:13:38.903Z</time>
      </trkpt>
      <trkpt lat="45.98678" lon="4.8757">
        <ele>268.899993896</ele>
        <time>2015-09-20T10:13:39.841Z</time>
      </trkpt>
      <trkpt lat="45.98684" lon="4.87568">
        <ele>268.899993896</ele>
        <time>2015-09-20T10:13:40.866Z</time>
      </trkpt>
      <trkpt lat="45.9869" lon="4.87566">
        <ele>269</ele>
        <time>2015-09-20T10:13:41.844Z</time>
      </trkpt>
      <trkpt lat="45.98696" lon="4.87564">
        <ele>269</ele>
        <time>2015-09-20T10:13:42.866Z</time>
      </trkpt>
      <trkpt lat="45.98702" lon="4.87563">
        <ele>269.100006104</ele>
        <time>2015-09-20T10:13:43.843Z</time>
      </trkpt>
      <trkpt lat="45.98708" lon="4.87561">
        <ele>269.100006104</ele>
        <time>2015-09-20T10:13:44.865Z</time>
      </trkpt>
      <trkpt lat="45.98714" lon="4.87559">
        <ele>269.200012207</ele>
        <time>2015-09-20T10:13:45.841Z</time>
      </trkpt>
      <trkpt lat="45.9872" lon="4.87557">
        <ele>268.799987793</ele>
        <time>2015-09-20T10:13:46.879Z</time>
      </trkpt>
      <trkpt lat="45.98726" lon="4.87556">
        <ele>268.799987793</ele>
        <time>2015-09-20T10:13:47.844Z</time>
      </trkpt>
      <trkpt lat="45.98732" lon="4.87555">
        <ele>268.700012207</ele>
        <time>2015-09-20T10:13:48.866Z</time>
      </trkpt>
      <trkpt lat="45.98738" lon="4.87556">
        <ele>268.600006104</ele>
        <time>2015-09-20T10:13:49.842Z</time>
      </trkpt>
      <trkpt lat="45.98744" lon="4.87558">
        <ele>268.399993896</ele>
        <time>2015-09-20T10:13:50.865Z</time>
      </trkpt>
      <trkpt lat="45.98749" lon="4.8756">
        <ele>268.299987793</ele>
        <time>2015-09-20T10:13:51.844Z</time>
      </trkpt>
      <trkpt lat="45.98755" lon="4.87562">
        <ele>268.100006104</ele>
        <time>2015-09-20T10:13:52.867Z</time>
      </trkpt>
      <trkpt lat="45.9876" lon="4.87565">
        <ele>268.5</ele>
        <time>2015-09-20T10:13:53.845Z</time>
      </trkpt>
      <trkpt lat="45.98765" lon="4.87569">
        <ele>268.5</ele>
        <time>2015-09-20T10:13:54.875Z</time>
      </trkpt>
      <trkpt lat="45.9877" lon="4.87572">
        <ele>268.600006104</ele>
        <time>2015-09-20T10:13:55.842Z</time>
      </trkpt>
      <trkpt lat="45.98774" lon="4.87576">
        <ele>268.799987793</ele>
        <time>2015-09-20T10:13:56.866Z</time>
      </trkpt>
      <trkpt lat="45.98778" lon="4.8758">
        <ele>269.299987793</ele>
        <time>2015-09-20T10:13:57.842Z</time>
      </trkpt>
      <trkpt lat="45.98782" lon="4.87584">
        <ele>269.399993896</ele>
        <time>2015-09-20T10:13:58.865Z</time>
      </trkpt>
      <trkpt lat="45.98786" lon="4.87588">
        <ele>269.799987793</ele>
        <time>2015-09-20T10:13:59.844Z</time>
      </trkpt>
      <trkpt lat="45.9879" lon="4.87594">
        <ele>270.700012207</ele>
        <time>2015-09-20T10:14:00.866Z</time>
      </trkpt>
      <trkpt lat="45.98794" lon="4.87599">
        <ele>271.299987793</ele>
        <time>2015-09-20T10:14:01.884Z</time>
      </trkpt>
      <trkpt lat="45.98798" lon="4.87604">
        <ele>271.100006104</ele>
        <time>2015-09-20T10:14:02.888Z</time>
      </trkpt>
      <trkpt lat="45.98801" lon="4.87609">
        <ele>271.399993896</ele>
        <time>2015-09-20T10:14:03.841Z</time>
      </trkpt>
      <trkpt lat="45.98804" lon="4.87614">
        <ele>271.600006104</ele>
        <time>2015-09-20T10:14:04.866Z</time>
      </trkpt>
      <trkpt lat="45.98807" lon="4.87619">
        <ele>271.799987793</ele>
        <time>2015-09-20T10:14:05.845Z</time>
      </trkpt>
      <trkpt lat="45.9881" lon="4.87631">
        <ele>272</ele>
        <time>2015-09-20T10:14:07.882Z</time>
      </trkpt>
      <trkpt lat="45.98812" lon="4.87636">
        <ele>272.100006104</ele>
        <time>2015-09-20T10:14:08.865Z</time>
      </trkpt>
      <trkpt lat="45.98816" lon="4.87647">
        <ele>272.100006104</ele>
        <time>2015-09-20T10:14:10.866Z</time>
      </trkpt>
      <trkpt lat="45.98817" lon="4.87653">
        <ele>272.200012207</ele>
        <time>2015-09-20T10:14:11.845Z</time>
      </trkpt>
      <trkpt lat="45.9882" lon="4.87662">
        <ele>272.200012207</ele>
        <time>2015-09-20T10:14:12.944Z</time>
      </trkpt>
      <trkpt lat="45.98821" lon="4.87672">
        <ele>272.299987793</ele>
        <time>2015-09-20T10:14:13.844Z</time>
      </trkpt>
      <trkpt lat="45.98822" lon="4.8768">
        <ele>272.100006104</ele>
        <time>2015-09-20T10:14:14.867Z</time>
      </trkpt>
      <trkpt lat="45.98824" lon="4.87688">
        <ele>271.899993896</ele>
        <time>2015-09-20T10:14:15.842Z</time>
      </trkpt>
      <trkpt lat="45.98825" lon="4.87696">
        <ele>271.600006104</ele>
        <time>2015-09-20T10:14:16.865Z</time>
      </trkpt>
      <trkpt lat="45.98827" lon="4.87704">
        <ele>271.399993896</ele>
        <time>2015-09-20T10:14:17.847Z</time>
      </trkpt>
      <trkpt lat="45.98828" lon="4.87711">
        <ele>271.399993896</ele>
        <time>2015-09-20T10:14:18.903Z</time>
      </trkpt>
      <trkpt lat="45.9883" lon="4.87718">
        <ele>271</ele>
        <time>2015-09-20T10:14:19.842Z</time>
      </trkpt>
      <trkpt lat="45.98832" lon="4.87725">
        <ele>271.100006104</ele>
        <time>2015-09-20T10:14:20.901Z</time>
      </trkpt>
      <trkpt lat="45.98834" lon="4.87732">
        <ele>270.899993896</ele>
        <time>2015-09-20T10:14:21.841Z</time>
      </trkpt>
      <trkpt lat="45.98835" lon="4.87739">
        <ele>270.799987793</ele>
        <time>2015-09-20T10:14:22.865Z</time>
      </trkpt>
      <trkpt lat="45.98837" lon="4.87746">
        <ele>270.5</ele>
        <time>2015-09-20T10:14:23.859Z</time>
      </trkpt>
      <trkpt lat="45.98839" lon="4.87752">
        <ele>270.799987793</ele>
        <time>2015-09-20T10:14:24.866Z</time>
      </trkpt>
      <trkpt lat="45.9884" lon="4.87759">
        <ele>271.100006104</ele>
        <time>2015-09-20T10:14:25.842Z</time>
      </trkpt>
      <trkpt lat="45.98842" lon="4.87765">
        <ele>271</ele>
        <time>2015-09-20T10:14:26.874Z</time>
      </trkpt>
      <trkpt lat="45.98843" lon="4.87771">
        <ele>271.100006104</ele>
        <time>2015-09-20T10:14:27.841Z</time>
      </trkpt>
      <trkpt lat="45.98847" lon="4.87783">
        <ele>271.5</ele>
        <time>2015-09-20T10:14:29.868Z</time>
      </trkpt>
      <trkpt lat="45.98848" lon="4.87789">
        <ele>271.799987793</ele>
        <time>2015-09-20T10:14:30.842Z</time>
      </trkpt>
      <trkpt lat="45.98852" lon="4.878">
        <ele>272.299987793</ele>
        <time>2015-09-20T10:14:32.865Z</time>
      </trkpt>
      <trkpt lat="45.98855" lon="4.87806">
        <ele>272.799987793</ele>
        <time>2015-09-20T10:14:33.84Z</time>
      </trkpt>
      <trkpt lat="45.98858" lon="4.87817">
        <ele>273.600006104</ele>
        <time>2015-09-20T10:14:35.944Z</time>
      </trkpt>
      <trkpt lat="45.9886" lon="4.87823">
        <ele>273.799987793</ele>
        <time>2015-09-20T10:14:36.841Z</time>
      </trkpt>
      <trkpt lat="45.98863" lon="4.87829">
        <ele>274</ele>
        <time>2015-09-20T10:14:37.874Z</time>
      </trkpt>
      <trkpt lat="45.98866" lon="4.87835">
        <ele>274.200012207</ele>
        <time>2015-09-20T10:14:38.841Z</time>
      </trkpt>
      <trkpt lat="45.98869" lon="4.87841">
        <ele>274.100006104</ele>
        <time>2015-09-20T10:14:39.865Z</time>
      </trkpt>
      <trkpt lat="45.98872" lon="4.87847">
        <ele>274.5</ele>
        <time>2015-09-20T10:14:40.841Z</time>
      </trkpt>
      <trkpt lat="45.98875" lon="4.87852">
        <ele>274.600006104</ele>
        <time>2015-09-20T10:14:41.875Z</time>
      </trkpt>
      <trkpt lat="45.98879" lon="4.87857">
        <ele>274.899993896</ele>
        <time>2015-09-20T10:14:42.841Z</time>
      </trkpt>
      <trkpt lat="45.98882" lon="4.87864">
        <ele>275.200012207</ele>
        <time>2015-09-20T10:14:43.876Z</time>
      </trkpt>
      <trkpt lat="45.98885" lon="4.87869">
        <ele>275.5</ele>
        <time>2015-09-20T10:14:44.841Z</time>
      </trkpt>
      <trkpt lat="45.98889" lon="4.87874">
        <ele>275.700012207</ele>
        <time>2015-09-20T10:14:45.865Z</time>
      </trkpt>
      <trkpt lat="45.98893" lon="4.87879">
        <ele>275.600006104</ele>
        <time>2015-09-20T10:14:46.841Z</time>
      </trkpt>
      <trkpt lat="45.98897" lon="4.87884">
        <ele>275.600006104</ele>
        <time>2015-09-20T10:14:47.868Z</time>
      </trkpt>
      <trkpt lat="45.989" lon="4.87888">
        <ele>275.600006104</ele>
        <time>2015-09-20T10:14:48.842Z</time>
      </trkpt>
      <trkpt lat="45.98906" lon="4.87897">
        <ele>275.799987793</ele>
        <time>2015-09-20T10:14:50.865Z</time>
      </trkpt>
      <trkpt lat="45.98909" lon="4.87901">
        <ele>276</ele>
        <time>2015-09-20T10:14:51.841Z</time>
      </trkpt>
      <trkpt lat="45.98915" lon="4.87907">
        <ele>275.600006104</ele>
        <time>2015-09-20T10:14:53.867Z</time>
      </trkpt>
      <trkpt lat="45.98918" lon="4.87911">
        <ele>275.700012207</ele>
        <time>2015-09-20T10:14:54.841Z</time>
      </trkpt>
      <trkpt lat="45.98923" lon="4.87915">
        <ele>275.200012207</ele>
        <time>2015-09-20T10:14:56.865Z</time>
      </trkpt>
      <trkpt lat="45.98926" lon="4.87917">
        <ele>275.100006104</ele>
        <time>2015-09-20T10:14:57.841Z</time>
      </trkpt>
      <trkpt lat="45.98933" lon="4.87924">
        <ele>274.799987793</ele>
        <time>2015-09-20T10:15:00.938Z</time>
      </trkpt>
      <trkpt lat="45.98935" lon="4.87927">
        <ele>274.799987793</ele>
        <time>2015-09-20T10:15:01.843Z</time>
      </trkpt>
      <trkpt lat="45.98941" lon="4.8793">
        <ele>274.700012207</ele>
        <time>2015-09-20T10:15:03.865Z</time>
      </trkpt>
      <trkpt lat="45.98944" lon="4.87931">
        <ele>274.5</ele>
        <time>2015-09-20T10:15:04.842Z</time>
      </trkpt>
      <trkpt lat="45.9895" lon="4.87934">
        <ele>274.799987793</ele>
        <time>2015-09-20T10:15:06.872Z</time>
      </trkpt>
      <trkpt lat="45.98954" lon="4.87936">
        <ele>274.899993896</ele>
        <time>2015-09-20T10:15:07.852Z</time>
      </trkpt>
      <trkpt lat="45.98961" lon="4.87939">
        <ele>274.700012207</ele>
        <time>2015-09-20T10:15:09.876Z</time>
      </trkpt>
      <trkpt lat="45.98964" lon="4.87941">
        <ele>274.600006104</ele>
        <time>2015-09-20T10:15:10.841Z</time>
      </trkpt>
      <trkpt lat="45.9897" lon="4.87944">
        <ele>275</ele>
        <time>2015-09-20T10:15:12.866Z</time>
      </trkpt>
      <trkpt lat="45.98973" lon="4.87946">
        <ele>275</ele>
        <time>2015-09-20T10:15:13.877Z</time>
      </trkpt>
      <trkpt lat="45.98979" lon="4.8795">
        <ele>275.600006104</ele>
        <time>2015-09-20T10:15:15.865Z</time>
      </trkpt>
      <trkpt lat="45.98983" lon="4.87952">
        <ele>275.600006104</ele>
        <time>2015-09-20T10:15:16.856Z</time>
      </trkpt>
      <trkpt lat="45.98989" lon="4.87955">
        <ele>275.600006104</ele>
        <time>2015-09-20T10:15:18.865Z</time>
      </trkpt>
      <trkpt lat="45.98992" lon="4.87957">
        <ele>275.600006104</ele>
        <time>2015-09-20T10:15:19.841Z</time>
      </trkpt>
      <trkpt lat="45.98999" lon="4.87961">
        <ele>275.399993896</ele>
        <time>2015-09-20T10:15:21.9Z</time>
      </trkpt>
      <trkpt lat="45.99002" lon="4.87963">
        <ele>275.5</ele>
        <time>2015-09-20T10:15:22.84Z</time>
      </trkpt>
      <trkpt lat="45.99009" lon="4.87966">
        <ele>275.5</ele>
        <time>2015-09-20T10:15:24.865Z</time>
      </trkpt>
      <trkpt lat="45.99012" lon="4.87968">
        <ele>275.799987793</ele>
        <time>2015-09-20T10:15:25.842Z</time>
      </trkpt>
      <trkpt lat="45.99019" lon="4.87972">
        <ele>276.100006104</ele>
        <time>2015-09-20T10:15:27.98Z</time>
      </trkpt>
      <trkpt lat="45.99022" lon="4.87973">
        <ele>276.299987793</ele>
        <time>2015-09-20T10:15:28.841Z</time>
      </trkpt>
      <trkpt lat="45.99029" lon="4.87977">
        <ele>276.799987793</ele>
        <time>2015-09-20T10:15:30.894Z</time>
      </trkpt>
      <trkpt lat="45.99032" lon="4.8798">
        <ele>277.200012207</ele>
        <time>2015-09-20T10:15:31.841Z</time>
      </trkpt>
      <trkpt lat="45.99038" lon="4.87984">
        <ele>277.799987793</ele>
        <time>2015-09-20T10:15:33.865Z</time>
      </trkpt>
      <trkpt lat="45.99042" lon="4.87986">
        <ele>277.799987793</ele>
        <time>2015-09-20T10:15:34.841Z</time>
      </trkpt>
      <trkpt lat="45.99049" lon="4.8799">
        <ele>278.100006104</ele>
        <time>2015-09-20T10:15:36.866Z</time>
      </trkpt>
      <trkpt lat="45.99052" lon="4.87992">
        <ele>278.299987793</ele>
        <time>2015-09-20T10:15:37.967Z</time>
      </trkpt>
      <trkpt lat="45.99059" lon="4.87996">
        <ele>278.299987793</ele>
        <time>2015-09-20T10:15:39.866Z</time>
      </trkpt>
      <trkpt lat="45.99063" lon="4.87999">
        <ele>278.200012207</ele>
        <time>2015-09-20T10:15:40.837Z</time>
      </trkpt>
      <trkpt lat="45.99071" lon="4.88003">
        <ele>277.799987793</ele>
        <time>2015-09-20T10:15:42.865Z</time>
      </trkpt>
      <trkpt lat="45.99075" lon="4.88005">
        <ele>277.600006104</ele>
        <time>2015-09-20T10:15:43.842Z</time>
      </trkpt>
      <trkpt lat="45.99083" lon="4.88008">
        <ele>277.399993896</ele>
        <time>2015-09-20T10:15:45.864Z</time>
      </trkpt>
      <trkpt lat="45.99087" lon="4.8801">
        <ele>277.5</ele>
        <time>2015-09-20T10:15:46.841Z</time>
      </trkpt>
      <trkpt lat="45.99094" lon="4.88014">
        <ele>277.899993896</ele>
        <time>2015-09-20T10:15:48.866Z</time>
      </trkpt>
      <trkpt lat="45.99097" lon="4.88016">
        <ele>278</ele>
        <time>2015-09-20T10:15:49.875Z</time>
      </trkpt>
      <trkpt lat="45.99104" lon="4.8802">
        <ele>278</ele>
        <time>2015-09-20T10:15:51.871Z</time>
      </trkpt>
      <trkpt lat="45.99108" lon="4.88022">
        <ele>278.100006104</ele>
        <time>2015-09-20T10:15:52.841Z</time>
      </trkpt>
      <trkpt lat="45.99116" lon="4.88026">
        <ele>278.200012207</ele>
        <time>2015-09-20T10:15:54.865Z</time>
      </trkpt>
      <trkpt lat="45.99119" lon="4.88028">
        <ele>278.100006104</ele>
        <time>2015-09-20T10:15:55.841Z</time>
      </trkpt>
      <trkpt lat="45.99127" lon="4.88032">
        <ele>278</ele>
        <time>2015-09-20T10:15:57.865Z</time>
      </trkpt>
      <trkpt lat="45.9913" lon="4.88034">
        <ele>278.100006104</ele>
        <time>2015-09-20T10:15:58.841Z</time>
      </trkpt>
      <trkpt lat="45.99138" lon="4.88039">
        <ele>278.200012207</ele>
        <time>2015-09-20T10:16:00.9Z</time>
      </trkpt>
      <trkpt lat="45.99142" lon="4.88041">
        <ele>278.299987793</ele>
        <time>2015-09-20T10:16:01.846Z</time>
      </trkpt>
      <trkpt lat="45.9915" lon="4.88046">
        <ele>278.600006104</ele>
        <time>2015-09-20T10:16:03.865Z</time>
      </trkpt>
      <trkpt lat="45.99154" lon="4.88049">
        <ele>278.5</ele>
        <time>2015-09-20T10:16:04.841Z</time>
      </trkpt>
      <trkpt lat="45.99162" lon="4.88054">
        <ele>278.299987793</ele>
        <time>2015-09-20T10:16:06.865Z</time>
      </trkpt>
      <trkpt lat="45.99166" lon="4.88057">
        <ele>278.299987793</ele>
        <time>2015-09-20T10:16:07.845Z</time>
      </trkpt>
      <trkpt lat="45.99173" lon="4.88062">
        <ele>278.399993896</ele>
        <time>2015-09-20T10:16:09.865Z</time>
      </trkpt>
      <trkpt lat="45.99177" lon="4.88066">
        <ele>278.5</ele>
        <time>2015-09-20T10:16:10.841Z</time>
      </trkpt>
      <trkpt lat="45.99184" lon="4.88073">
        <ele>278.600006104</ele>
        <time>2015-09-20T10:16:12.865Z</time>
      </trkpt>
      <trkpt lat="45.99188" lon="4.88076">
        <ele>278.600006104</ele>
        <time>2015-09-20T10:16:13.842Z</time>
      </trkpt>
      <trkpt lat="45.99196" lon="4.88082">
        <ele>278.700012207</ele>
        <time>2015-09-20T10:16:15.865Z</time>
      </trkpt>
      <trkpt lat="45.99199" lon="4.88086">
        <ele>278.600006104</ele>
        <time>2015-09-20T10:16:16.841Z</time>
      </trkpt>
      <trkpt lat="45.99207" lon="4.88093">
        <ele>278.700012207</ele>
        <time>2015-09-20T10:16:18.866Z</time>
      </trkpt>
      <trkpt lat="45.99211" lon="4.88097">
        <ele>278.700012207</ele>
        <time>2015-09-20T10:16:19.842Z</time>
      </trkpt>
      <trkpt lat="45.99215" lon="4.881">
        <ele>278.899993896</ele>
        <time>2015-09-20T10:16:20.865Z</time>
      </trkpt>
      <trkpt lat="45.99219" lon="4.88104">
        <ele>278.799987793</ele>
        <time>2015-09-20T10:16:21.837Z</time>
      </trkpt>
      <trkpt lat="45.99222" lon="4.88108">
        <ele>278.899993896</ele>
        <time>2015-09-20T10:16:22.865Z</time>
      </trkpt>
      <trkpt lat="45.99226" lon="4.88112">
        <ele>279</ele>
        <time>2015-09-20T10:16:23.844Z</time>
      </trkpt>
      <trkpt lat="45.99231" lon="4.88115">
        <ele>279.100006104</ele>
        <time>2015-09-20T10:16:24.865Z</time>
      </trkpt>
      <trkpt lat="45.99235" lon="4.88119">
        <ele>279</ele>
        <time>2015-09-20T10:16:25.841Z</time>
      </trkpt>
      <trkpt lat="45.99239" lon="4.88122">
        <ele>279</ele>
        <time>2015-09-20T10:16:26.864Z</time>
      </trkpt>
      <trkpt lat="45.99243" lon="4.88126">
        <ele>279.100006104</ele>
        <time>2015-09-20T10:16:27.844Z</time>
      </trkpt>
      <trkpt lat="45.99247" lon="4.88129">
        <ele>279.100006104</ele>
        <time>2015-09-20T10:16:28.866Z</time>
      </trkpt>
      <trkpt lat="45.99251" lon="4.88133">
        <ele>279.200012207</ele>
        <time>2015-09-20T10:16:29.844Z</time>
      </trkpt>
      <trkpt lat="45.99255" lon="4.88136">
        <ele>279.299987793</ele>
        <time>2015-09-20T10:16:30.892Z</time>
      </trkpt>
      <trkpt lat="45.99258" lon="4.88139">
        <ele>279.5</ele>
        <time>2015-09-20T10:16:31.842Z</time>
      </trkpt>
      <trkpt lat="45.99266" lon="4.88146">
        <ele>279.799987793</ele>
        <time>2015-09-20T10:16:33.865Z</time>
      </trkpt>
      <trkpt lat="45.9927" lon="4.8815">
        <ele>279.899993896</ele>
        <time>2015-09-20T10:16:34.841Z</time>
      </trkpt>
      <trkpt lat="45.99274" lon="4.88153">
        <ele>280</ele>
        <time>2015-09-20T10:16:35.868Z</time>
      </trkpt>
      <trkpt lat="45.99278" lon="4.88156">
        <ele>280</ele>
        <time>2015-09-20T10:16:36.841Z</time>
      </trkpt>
      <trkpt lat="45.99282" lon="4.8816">
        <ele>280.100006104</ele>
        <time>2015-09-20T10:16:37.867Z</time>
      </trkpt>
      <trkpt lat="45.99286" lon="4.88163">
        <ele>280.200012207</ele>
        <time>2015-09-20T10:16:38.841Z</time>
      </trkpt>
      <trkpt lat="45.9929" lon="4.88166">
        <ele>280.299987793</ele>
        <time>2015-09-20T10:16:39.865Z</time>
      </trkpt>
      <trkpt lat="45.99294" lon="4.8817">
        <ele>280.299987793</ele>
        <time>2015-09-20T10:16:40.844Z</time>
      </trkpt>
      <trkpt lat="45.99298" lon="4.88174">
        <ele>280.200012207</ele>
        <time>2015-09-20T10:16:41.869Z</time>
      </trkpt>
      <trkpt lat="45.99302" lon="4.88178">
        <ele>280.100006104</ele>
        <time>2015-09-20T10:16:42.841Z</time>
      </trkpt>
      <trkpt lat="45.99306" lon="4.88181">
        <ele>280.100006104</ele>
        <time>2015-09-20T10:16:43.865Z</time>
      </trkpt>
      <trkpt lat="45.9931" lon="4.88185">
        <ele>280.100006104</ele>
        <time>2015-09-20T10:16:44.841Z</time>
      </trkpt>
      <trkpt lat="45.99314" lon="4.88189">
        <ele>280.100006104</ele>
        <time>2015-09-20T10:16:45.866Z</time>
      </trkpt>
      <trkpt lat="45.99318" lon="4.88193">
        <ele>280.200012207</ele>
        <time>2015-09-20T10:16:46.841Z</time>
      </trkpt>
      <trkpt lat="45.99322" lon="4.88196">
        <ele>280.299987793</ele>
        <time>2015-09-20T10:16:47.914Z</time>
      </trkpt>
      <trkpt lat="45.99327" lon="4.882">
        <ele>280.399993896</ele>
        <time>2015-09-20T10:16:48.841Z</time>
      </trkpt>
      <trkpt lat="45.99331" lon="4.88203">
        <ele>280.5</ele>
        <time>2015-09-20T10:16:49.887Z</time>
      </trkpt>
      <trkpt lat="45.99335" lon="4.88207">
        <ele>280.100006104</ele>
        <time>2015-09-20T10:16:50.841Z</time>
      </trkpt>
      <trkpt lat="45.99339" lon="4.88211">
        <ele>280.100006104</ele>
        <time>2015-09-20T10:16:51.879Z</time>
      </trkpt>
      <trkpt lat="45.99343" lon="4.88214">
        <ele>280.899993896</ele>
        <time>2015-09-20T10:16:52.841Z</time>
      </trkpt>
      <trkpt lat="45.99347" lon="4.88218">
        <ele>281</ele>
        <time>2015-09-20T10:16:53.871Z</time>
      </trkpt>
      <trkpt lat="45.99351" lon="4.88222">
        <ele>281.100006104</ele>
        <time>2015-09-20T10:16:54.841Z</time>
      </trkpt>
      <trkpt lat="45.99356" lon="4.88226">
        <ele>281.299987793</ele>
        <time>2015-09-20T10:16:55.866Z</time>
      </trkpt>
      <trkpt lat="45.9936" lon="4.8823">
        <ele>281.399993896</ele>
        <time>2015-09-20T10:16:56.841Z</time>
      </trkpt>
      <trkpt lat="45.99365" lon="4.88234">
        <ele>281.399993896</ele>
        <time>2015-09-20T10:16:57.865Z</time>
      </trkpt>
      <trkpt lat="45.99369" lon="4.88239">
        <ele>281.5</ele>
        <time>2015-09-20T10:16:58.841Z</time>
      </trkpt>
      <trkpt lat="45.99373" lon="4.88244">
        <ele>281.600006104</ele>
        <time>2015-09-20T10:16:59.868Z</time>
      </trkpt>
      <trkpt lat="45.99377" lon="4.8825">
        <ele>281.600006104</ele>
        <time>2015-09-20T10:17:00.842Z</time>
      </trkpt>
      <trkpt lat="45.9938" lon="4.88256">
        <ele>281.700012207</ele>
        <time>2015-09-20T10:17:01.867Z</time>
      </trkpt>
      <trkpt lat="45.99383" lon="4.88263">
        <ele>281.700012207</ele>
        <time>2015-09-20T10:17:02.841Z</time>
      </trkpt>
      <trkpt lat="45.99386" lon="4.88269">
        <ele>281.700012207</ele>
        <time>2015-09-20T10:17:03.866Z</time>
      </trkpt>
      <trkpt lat="45.99389" lon="4.88275">
        <ele>281.700012207</ele>
        <time>2015-09-20T10:17:04.841Z</time>
      </trkpt>
      <trkpt lat="45.99392" lon="4.88282">
        <ele>281.700012207</ele>
        <time>2015-09-20T10:17:05.904Z</time>
      </trkpt>
      <trkpt lat="45.99394" lon="4.88288">
        <ele>281.799987793</ele>
        <time>2015-09-20T10:17:06.841Z</time>
      </trkpt>
      <trkpt lat="45.99396" lon="4.88295">
        <ele>281.799987793</ele>
        <time>2015-09-20T10:17:07.883Z</time>
      </trkpt>
      <trkpt lat="45.99399" lon="4.88301">
        <ele>281.899993896</ele>
        <time>2015-09-20T10:17:08.841Z</time>
      </trkpt>
      <trkpt lat="45.99402" lon="4.88307">
        <ele>282</ele>
        <time>2015-09-20T10:17:09.875Z</time>
      </trkpt>
      <trkpt lat="45.99404" lon="4.88313">
        <ele>282</ele>
        <time>2015-09-20T10:17:10.842Z</time>
      </trkpt>
      <trkpt lat="45.99407" lon="4.88319">
        <ele>282</ele>
        <time>2015-09-20T10:17:11.869Z</time>
      </trkpt>
      <trkpt lat="45.99409" lon="4.88325">
        <ele>282</ele>
        <time>2015-09-20T10:17:12.841Z</time>
      </trkpt>
      <trkpt lat="45.99413" lon="4.88336">
        <ele>281.799987793</ele>
        <time>2015-09-20T10:17:14.9Z</time>
      </trkpt>
      <trkpt lat="45.99415" lon="4.88341">
        <ele>281.899993896</ele>
        <time>2015-09-20T10:17:15.842Z</time>
      </trkpt>
      <trkpt lat="45.99418" lon="4.88347">
        <ele>281.799987793</ele>
        <time>2015-09-20T10:17:16.874Z</time>
      </trkpt>
      <trkpt lat="45.9942" lon="4.88353">
        <ele>281.600006104</ele>
        <time>2015-09-20T10:17:17.844Z</time>
      </trkpt>
      <trkpt lat="45.99423" lon="4.88359">
        <ele>281.5</ele>
        <time>2015-09-20T10:17:18.865Z</time>
      </trkpt>
      <trkpt lat="45.99425" lon="4.88365">
        <ele>281.600006104</ele>
        <time>2015-09-20T10:17:19.845Z</time>
      </trkpt>
      <trkpt lat="45.99427" lon="4.88371">
        <ele>281.700012207</ele>
        <time>2015-09-20T10:17:20.867Z</time>
      </trkpt>
      <trkpt lat="45.99429" lon="4.88377">
        <ele>282</ele>
        <time>2015-09-20T10:17:21.842Z</time>
      </trkpt>
      <trkpt lat="45.99432" lon="4.88382">
        <ele>281.899993896</ele>
        <time>2015-09-20T10:17:22.898Z</time>
      </trkpt>
      <trkpt lat="45.99435" lon="4.88388">
        <ele>282.200012207</ele>
        <time>2015-09-20T10:17:23.844Z</time>
      </trkpt>
      <trkpt lat="45.99438" lon="4.88393">
        <ele>282.399993896</ele>
        <time>2015-09-20T10:17:24.865Z</time>
      </trkpt>
      <trkpt lat="45.99441" lon="4.88398">
        <ele>282.5</ele>
        <time>2015-09-20T10:17:25.843Z</time>
      </trkpt>
      <trkpt lat="45.99444" lon="4.88403">
        <ele>282.600006104</ele>
        <time>2015-09-20T10:17:26.865Z</time>
      </trkpt>
      <trkpt lat="45.99447" lon="4.88408">
        <ele>283</ele>
        <time>2015-09-20T10:17:27.841Z</time>
      </trkpt>
      <trkpt lat="45.99451" lon="4.88412">
        <ele>283.200012207</ele>
        <time>2015-09-20T10:17:28.885Z</time>
      </trkpt>
      <trkpt lat="45.99456" lon="4.88416">
        <ele>283</ele>
        <time>2015-09-20T10:17:29.844Z</time>
      </trkpt>
      <trkpt lat="45.9946" lon="4.8842">
        <ele>283</ele>
        <time>2015-09-20T10:17:30.934Z</time>
      </trkpt>
      <trkpt lat="45.99464" lon="4.88425">
        <ele>283</ele>
        <time>2015-09-20T10:17:31.842Z</time>
      </trkpt>
      <trkpt lat="45.99468" lon="4.88429">
        <ele>283</ele>
        <time>2015-09-20T10:17:32.865Z</time>
      </trkpt>
      <trkpt lat="45.99472" lon="4.88433">
        <ele>283.200012207</ele>
        <time>2015-09-20T10:17:33.841Z</time>
      </trkpt>
      <trkpt lat="45.99476" lon="4.88438">
        <ele>283</ele>
        <time>2015-09-20T10:17:34.904Z</time>
      </trkpt>
      <trkpt lat="45.9948" lon="4.88443">
        <ele>283.100006104</ele>
        <time>2015-09-20T10:17:35.843Z</time>
      </trkpt>
      <trkpt lat="45.99483" lon="4.88448">
        <ele>283.299987793</ele>
        <time>2015-09-20T10:17:36.865Z</time>
      </trkpt>
      <trkpt lat="45.99486" lon="4.88453">
        <ele>283.5</ele>
        <time>2015-09-20T10:17:37.841Z</time>
      </trkpt>
      <trkpt lat="45.9949" lon="4.88459">
        <ele>283.899993896</ele>
        <time>2015-09-20T10:17:38.865Z</time>
      </trkpt>
      <trkpt lat="45.99493" lon="4.88465">
        <ele>284.299987793</ele>
        <time>2015-09-20T10:17:39.841Z</time>
      </trkpt>
      <trkpt lat="45.99496" lon="4.88471">
        <ele>284.399993896</ele>
        <time>2015-09-20T10:17:40.865Z</time>
      </trkpt>
      <trkpt lat="45.99499" lon="4.88477">
        <ele>284.600006104</ele>
        <time>2015-09-20T10:17:41.843Z</time>
      </trkpt>
      <trkpt lat="45.99502" lon="4.88482">
        <ele>284.399993896</ele>
        <time>2015-09-20T10:17:42.865Z</time>
      </trkpt>
      <trkpt lat="45.99505" lon="4.88488">
        <ele>284.399993896</ele>
        <time>2015-09-20T10:17:43.865Z</time>
      </trkpt>
      <trkpt lat="45.99508" lon="4.88494">
        <ele>284.399993896</ele>
        <time>2015-09-20T10:17:44.878Z</time>
      </trkpt>
      <trkpt lat="45.9951" lon="4.885">
        <ele>284.399993896</ele>
        <time>2015-09-20T10:17:45.844Z</time>
      </trkpt>
      <trkpt lat="45.99514" lon="4.88506">
        <ele>284.299987793</ele>
        <time>2015-09-20T10:17:46.866Z</time>
      </trkpt>
      <trkpt lat="45.99517" lon="4.88512">
        <ele>283.799987793</ele>
        <time>2015-09-20T10:17:47.884Z</time>
      </trkpt>
      <trkpt lat="45.9952" lon="4.88518">
        <ele>283.399993896</ele>
        <time>2015-09-20T10:17:48.87Z</time>
      </trkpt>
      <trkpt lat="45.99523" lon="4.88524">
        <ele>283.200012207</ele>
        <time>2015-09-20T10:17:49.841Z</time>
      </trkpt>
      <trkpt lat="45.99527" lon="4.88531">
        <ele>283.299987793</ele>
        <time>2015-09-20T10:17:50.866Z</time>
      </trkpt>
      <trkpt lat="45.9953" lon="4.88537">
        <ele>283.100006104</ele>
        <time>2015-09-20T10:17:51.841Z</time>
      </trkpt>
      <trkpt lat="45.99532" lon="4.88543">
        <ele>283.399993896</ele>
        <time>2015-09-20T10:17:52.904Z</time>
      </trkpt>
      <trkpt lat="45.99535" lon="4.8855">
        <ele>283.5</ele>
        <time>2015-09-20T10:17:53.844Z</time>
      </trkpt>
      <trkpt lat="45.99538" lon="4.88556">
        <ele>283.600006104</ele>
        <time>2015-09-20T10:17:54.866Z</time>
      </trkpt>
      <trkpt lat="45.9954" lon="4.88563">
        <ele>283.700012207</ele>
        <time>2015-09-20T10:17:55.842Z</time>
      </trkpt>
      <trkpt lat="45.99542" lon="4.88571">
        <ele>283.700012207</ele>
        <time>2015-09-20T10:17:56.865Z</time>
      </trkpt>
      <trkpt lat="45.99544" lon="4.88578">
        <ele>284.299987793</ele>
        <time>2015-09-20T10:17:57.841Z</time>
      </trkpt>
      <trkpt lat="45.99545" lon="4.88586">
        <ele>284.600006104</ele>
        <time>2015-09-20T10:17:58.865Z</time>
      </trkpt>
      <trkpt lat="45.99547" lon="4.88593">
        <ele>284.700012207</ele>
        <time>2015-09-20T10:17:59.844Z</time>
      </trkpt>
      <trkpt lat="45.99548" lon="4.88601">
        <ele>284.5</ele>
        <time>2015-09-20T10:18:00.879Z</time>
      </trkpt>
      <trkpt lat="45.9955" lon="4.88608">
        <ele>284.600006104</ele>
        <time>2015-09-20T10:18:01.842Z</time>
      </trkpt>
      <trkpt lat="45.99551" lon="4.88614">
        <ele>284.600006104</ele>
        <time>2015-09-20T10:18:02.865Z</time>
      </trkpt>
      <trkpt lat="45.99551" lon="4.88621">
        <ele>284.5</ele>
        <time>2015-09-20T10:18:03.841Z</time>
      </trkpt>
      <trkpt lat="45.99552" lon="4.88629">
        <ele>284.299987793</ele>
        <time>2015-09-20T10:18:04.866Z</time>
      </trkpt>
      <trkpt lat="45.99553" lon="4.88636">
        <ele>284</ele>
        <time>2015-09-20T10:18:05.844Z</time>
      </trkpt>
      <trkpt lat="45.99554" lon="4.88643">
        <ele>283.399993896</ele>
        <time>2015-09-20T10:18:06.865Z</time>
      </trkpt>
      <trkpt lat="45.99554" lon="4.8865">
        <ele>283.600006104</ele>
        <time>2015-09-20T10:18:07.844Z</time>
      </trkpt>
      <trkpt lat="45.99555" lon="4.88657">
        <ele>283.600006104</ele>
        <time>2015-09-20T10:18:08.865Z</time>
      </trkpt>
      <trkpt lat="45.99556" lon="4.88664">
        <ele>283.799987793</ele>
        <time>2015-09-20T10:18:09.841Z</time>
      </trkpt>
      <trkpt lat="45.99557" lon="4.88672">
        <ele>284</ele>
        <time>2015-09-20T10:18:10.864Z</time>
      </trkpt>
      <trkpt lat="45.99557" lon="4.88679">
        <ele>284.299987793</ele>
        <time>2015-09-20T10:18:11.847Z</time>
      </trkpt>
      <trkpt lat="45.99558" lon="4.88686">
        <ele>284</ele>
        <time>2015-09-20T10:18:12.867Z</time>
      </trkpt>
      <trkpt lat="45.99559" lon="4.88694">
        <ele>284</ele>
        <time>2015-09-20T10:18:13.842Z</time>
      </trkpt>
      <trkpt lat="45.9956" lon="4.88701">
        <ele>283.600006104</ele>
        <time>2015-09-20T10:18:14.974Z</time>
      </trkpt>
      <trkpt lat="45.99561" lon="4.88709">
        <ele>283.899993896</ele>
        <time>2015-09-20T10:18:15.843Z</time>
      </trkpt>
      <trkpt lat="45.99562" lon="4.88716">
        <ele>283.600006104</ele>
        <time>2015-09-20T10:18:16.88Z</time>
      </trkpt>
      <trkpt lat="45.99562" lon="4.88723">
        <ele>283.899993896</ele>
        <time>2015-09-20T10:18:17.844Z</time>
      </trkpt>
      <trkpt lat="45.99563" lon="4.88729">
        <ele>283.600006104</ele>
        <time>2015-09-20T10:18:18.865Z</time>
      </trkpt>
      <trkpt lat="45.99564" lon="4.88736">
        <ele>283.700012207</ele>
        <time>2015-09-20T10:18:19.841Z</time>
      </trkpt>
      <trkpt lat="45.99564" lon="4.88743">
        <ele>283.700012207</ele>
        <time>2015-09-20T10:18:20.866Z</time>
      </trkpt>
      <trkpt lat="45.99565" lon="4.88751">
        <ele>284.100006104</ele>
        <time>2015-09-20T10:18:21.842Z</time>
      </trkpt>
      <trkpt lat="45.99566" lon="4.88759">
        <ele>284.399993896</ele>
        <time>2015-09-20T10:18:22.866Z</time>
      </trkpt>
      <trkpt lat="45.99566" lon="4.88766">
        <ele>284.600006104</ele>
        <time>2015-09-20T10:18:23.843Z</time>
      </trkpt>
      <trkpt lat="45.99567" lon="4.88773">
        <ele>284.299987793</ele>
        <time>2015-09-20T10:18:24.866Z</time>
      </trkpt>
      <trkpt lat="45.99568" lon="4.88781">
        <ele>284.100006104</ele>
        <time>2015-09-20T10:18:25.843Z</time>
      </trkpt>
      <trkpt lat="45.99569" lon="4.88789">
        <ele>284</ele>
        <time>2015-09-20T10:18:26.866Z</time>
      </trkpt>
      <trkpt lat="45.99569" lon="4.88796">
        <ele>284.100006104</ele>
        <time>2015-09-20T10:18:27.841Z</time>
      </trkpt>
      <trkpt lat="45.9957" lon="4.88803">
        <ele>284</ele>
        <time>2015-09-20T10:18:28.866Z</time>
      </trkpt>
      <trkpt lat="45.99571" lon="4.8881">
        <ele>284.100006104</ele>
        <time>2015-09-20T10:18:29.844Z</time>
      </trkpt>
      <trkpt lat="45.99572" lon="4.88818">
        <ele>283.899993896</ele>
        <time>2015-09-20T10:18:30.903Z</time>
      </trkpt>
      <trkpt lat="45.99572" lon="4.88826">
        <ele>284</ele>
        <time>2015-09-20T10:18:31.842Z</time>
      </trkpt>
      <trkpt lat="45.99573" lon="4.88834">
        <ele>284</ele>
        <time>2015-09-20T10:18:32.878Z</time>
      </trkpt>
      <trkpt lat="45.99574" lon="4.88841">
        <ele>283.5</ele>
        <time>2015-09-20T10:18:33.841Z</time>
      </trkpt>
      <trkpt lat="45.99575" lon="4.88849">
        <ele>283.299987793</ele>
        <time>2015-09-20T10:18:34.865Z</time>
      </trkpt>
      <trkpt lat="45.99575" lon="4.88857">
        <ele>283.299987793</ele>
        <time>2015-09-20T10:18:35.844Z</time>
      </trkpt>
      <trkpt lat="45.99576" lon="4.88864">
        <ele>283.399993896</ele>
        <time>2015-09-20T10:18:36.894Z</time>
      </trkpt>
      <trkpt lat="45.99577" lon="4.88873">
        <ele>283.399993896</ele>
        <time>2015-09-20T10:18:37.869Z</time>
      </trkpt>
      <trkpt lat="45.99578" lon="4.88881">
        <ele>283.200012207</ele>
        <time>2015-09-20T10:18:38.867Z</time>
      </trkpt>
      <trkpt lat="45.99579" lon="4.88888">
        <ele>283</ele>
        <time>2015-09-20T10:18:39.841Z</time>
      </trkpt>
      <trkpt lat="45.99579" lon="4.88896">
        <ele>283.100006104</ele>
        <time>2015-09-20T10:18:40.865Z</time>
      </trkpt>
      <trkpt lat="45.9958" lon="4.88904">
        <ele>283.200012207</ele>
        <time>2015-09-20T10:18:41.845Z</time>
      </trkpt>
      <trkpt lat="45.99581" lon="4.88912">
        <ele>283.299987793</ele>
        <time>2015-09-20T10:18:42.866Z</time>
      </trkpt>
      <trkpt lat="45.99581" lon="4.88921">
        <ele>283.299987793</ele>
        <time>2015-09-20T10:18:43.841Z</time>
      </trkpt>
      <trkpt lat="45.99582" lon="4.88929">
        <ele>283.399993896</ele>
        <time>2015-09-20T10:18:44.866Z</time>
      </trkpt>
      <trkpt lat="45.99582" lon="4.88937">
        <ele>283.5</ele>
        <time>2015-09-20T10:18:45.842Z</time>
      </trkpt>
      <trkpt lat="45.99583" lon="4.88946">
        <ele>283.5</ele>
        <time>2015-09-20T10:18:46.865Z</time>
      </trkpt>
      <trkpt lat="45.99584" lon="4.88953">
        <ele>283.299987793</ele>
        <time>2015-09-20T10:18:47.844Z</time>
      </trkpt>
      <trkpt lat="45.99585" lon="4.88961">
        <ele>283.200012207</ele>
        <time>2015-09-20T10:18:48.866Z</time>
      </trkpt>
      <trkpt lat="45.99586" lon="4.8897">
        <ele>283.299987793</ele>
        <time>2015-09-20T10:18:49.842Z</time>
      </trkpt>
      <trkpt lat="45.99586" lon="4.88978">
        <ele>283.299987793</ele>
        <time>2015-09-20T10:18:50.866Z</time>
      </trkpt>
      <trkpt lat="45.99587" lon="4.88985">
        <ele>283</ele>
        <time>2015-09-20T10:18:51.841Z</time>
      </trkpt>
      <trkpt lat="45.99587" lon="4.88992">
        <ele>282.899993896</ele>
        <time>2015-09-20T10:18:52.867Z</time>
      </trkpt>
      <trkpt lat="45.99587" lon="4.88999">
        <ele>283</ele>
        <time>2015-09-20T10:18:53.844Z</time>
      </trkpt>
      <trkpt lat="45.99587" lon="4.89005">
        <ele>283</ele>
        <time>2015-09-20T10:18:54.865Z</time>
      </trkpt>
      <trkpt lat="45.99587" lon="4.89012">
        <ele>283.100006104</ele>
        <time>2015-09-20T10:18:55.842Z</time>
      </trkpt>
      <trkpt lat="45.99588" lon="4.89019">
        <ele>283.100006104</ele>
        <time>2015-09-20T10:18:56.866Z</time>
      </trkpt>
      <trkpt lat="45.99588" lon="4.89026">
        <ele>283.100006104</ele>
        <time>2015-09-20T10:18:57.84Z</time>
      </trkpt>
      <trkpt lat="45.99587" lon="4.89033">
        <ele>282.899993896</ele>
        <time>2015-09-20T10:18:58.878Z</time>
      </trkpt>
      <trkpt lat="45.99587" lon="4.89041">
        <ele>282.799987793</ele>
        <time>2015-09-20T10:18:59.845Z</time>
      </trkpt>
      <trkpt lat="45.99586" lon="4.8905">
        <ele>282.700012207</ele>
        <time>2015-09-20T10:19:00.866Z</time>
      </trkpt>
      <trkpt lat="45.99586" lon="4.89058">
        <ele>282.399993896</ele>
        <time>2015-09-20T10:19:01.841Z</time>
      </trkpt>
      <trkpt lat="45.99584" lon="4.89066">
        <ele>282.600006104</ele>
        <time>2015-09-20T10:19:02.865Z</time>
      </trkpt>
      <trkpt lat="45.99584" lon="4.89074">
        <ele>282.5</ele>
        <time>2015-09-20T10:19:03.845Z</time>
      </trkpt>
      <trkpt lat="45.99583" lon="4.89081">
        <ele>282.700012207</ele>
        <time>2015-09-20T10:19:04.904Z</time>
      </trkpt>
      <trkpt lat="45.99583" lon="4.89089">
        <ele>282.600006104</ele>
        <time>2015-09-20T10:19:05.844Z</time>
      </trkpt>
      <trkpt lat="45.99582" lon="4.89097">
        <ele>282.799987793</ele>
        <time>2015-09-20T10:19:06.866Z</time>
      </trkpt>
      <trkpt lat="45.99581" lon="4.89105">
        <ele>283</ele>
        <time>2015-09-20T10:19:07.845Z</time>
      </trkpt>
      <trkpt lat="45.99581" lon="4.89113">
        <ele>283.100006104</ele>
        <time>2015-09-20T10:19:08.865Z</time>
      </trkpt>
      <trkpt lat="45.9958" lon="4.89121">
        <ele>283.299987793</ele>
        <time>2015-09-20T10:19:09.904Z</time>
      </trkpt>
      <trkpt lat="45.99581" lon="4.89128">
        <ele>283.5</ele>
        <time>2015-09-20T10:19:10.866Z</time>
      </trkpt>
      <trkpt lat="45.9958" lon="4.89135">
        <ele>284.299987793</ele>
        <time>2015-09-20T10:19:11.844Z</time>
      </trkpt>
      <trkpt lat="45.9958" lon="4.89143">
        <ele>284.899993896</ele>
        <time>2015-09-20T10:19:12.865Z</time>
      </trkpt>
      <trkpt lat="45.9958" lon="4.8915">
        <ele>285.200012207</ele>
        <time>2015-09-20T10:19:13.883Z</time>
      </trkpt>
      <trkpt lat="45.99581" lon="4.89158">
        <ele>285.399993896</ele>
        <time>2015-09-20T10:19:14.878Z</time>
      </trkpt>
      <trkpt lat="45.99581" lon="4.89165">
        <ele>285.700012207</ele>
        <time>2015-09-20T10:19:15.843Z</time>
      </trkpt>
      <trkpt lat="45.99581" lon="4.89173">
        <ele>286.200012207</ele>
        <time>2015-09-20T10:19:16.867Z</time>
      </trkpt>
      <trkpt lat="45.99581" lon="4.89181">
        <ele>286</ele>
        <time>2015-09-20T10:19:17.845Z</time>
      </trkpt>
      <trkpt lat="45.99582" lon="4.89189">
        <ele>286.299987793</ele>
        <time>2015-09-20T10:19:18.866Z</time>
      </trkpt>
      <trkpt lat="45.99582" lon="4.89197">
        <ele>287</ele>
        <time>2015-09-20T10:19:19.843Z</time>
      </trkpt>
      <trkpt lat="45.99582" lon="4.89205">
        <ele>287.200012207</ele>
        <time>2015-09-20T10:19:20.934Z</time>
      </trkpt>
      <trkpt lat="45.99583" lon="4.89214">
        <ele>287.299987793</ele>
        <time>2015-09-20T10:19:21.841Z</time>
      </trkpt>
      <trkpt lat="45.99582" lon="4.89221">
        <ele>287.399993896</ele>
        <time>2015-09-20T10:19:22.866Z</time>
      </trkpt>
      <trkpt lat="45.99582" lon="4.8923">
        <ele>287.399993896</ele>
        <time>2015-09-20T10:19:23.845Z</time>
      </trkpt>
      <trkpt lat="45.99583" lon="4.89238">
        <ele>287.799987793</ele>
        <time>2015-09-20T10:19:24.866Z</time>
      </trkpt>
      <trkpt lat="45.99583" lon="4.89245">
        <ele>288</ele>
        <time>2015-09-20T10:19:25.877Z</time>
      </trkpt>
      <trkpt lat="45.99583" lon="4.89252">
        <ele>288.200012207</ele>
        <time>2015-09-20T10:19:26.866Z</time>
      </trkpt>
      <trkpt lat="45.99584" lon="4.89259">
        <ele>287.899993896</ele>
        <time>2015-09-20T10:19:27.841Z</time>
      </trkpt>
      <trkpt lat="45.99584" lon="4.89267">
        <ele>287.799987793</ele>
        <time>2015-09-20T10:19:28.865Z</time>
      </trkpt>
      <trkpt lat="45.99585" lon="4.89274">
        <ele>287.899993896</ele>
        <time>2015-09-20T10:19:29.847Z</time>
      </trkpt>
      <trkpt lat="45.99586" lon="4.89281">
        <ele>287.899993896</ele>
        <time>2015-09-20T10:19:30.889Z</time>
      </trkpt>
      <trkpt lat="45.99586" lon="4.89289">
        <ele>287.899993896</ele>
        <time>2015-09-20T10:19:31.841Z</time>
      </trkpt>
      <trkpt lat="45.99586" lon="4.89296">
        <ele>288</ele>
        <time>2015-09-20T10:19:32.865Z</time>
      </trkpt>
      <trkpt lat="45.99586" lon="4.89304">
        <ele>288.700012207</ele>
        <time>2015-09-20T10:19:33.841Z</time>
      </trkpt>
      <trkpt lat="45.99587" lon="4.89312">
        <ele>288.700012207</ele>
        <time>2015-09-20T10:19:34.865Z</time>
      </trkpt>
      <trkpt lat="45.99587" lon="4.89319">
        <ele>289</ele>
        <time>2015-09-20T10:19:35.844Z</time>
      </trkpt>
      <trkpt lat="45.99588" lon="4.89327">
        <ele>289</ele>
        <time>2015-09-20T10:19:36.865Z</time>
      </trkpt>
      <trkpt lat="45.99588" lon="4.89334">
        <ele>289.5</ele>
        <time>2015-09-20T10:19:37.841Z</time>
      </trkpt>
      <trkpt lat="45.99589" lon="4.89342">
        <ele>289.799987793</ele>
        <time>2015-09-20T10:19:38.865Z</time>
      </trkpt>
      <trkpt lat="45.99589" lon="4.8935">
        <ele>290</ele>
        <time>2015-09-20T10:19:39.841Z</time>
      </trkpt>
      <trkpt lat="45.99589" lon="4.89357">
        <ele>290.399993896</ele>
        <time>2015-09-20T10:19:40.865Z</time>
      </trkpt>
      <trkpt lat="45.9959" lon="4.89364">
        <ele>290.299987793</ele>
        <time>2015-09-20T10:19:41.844Z</time>
      </trkpt>
      <trkpt lat="45.9959" lon="4.89371">
        <ele>290.600006104</ele>
        <time>2015-09-20T10:19:42.894Z</time>
      </trkpt>
      <trkpt lat="45.9959" lon="4.89378">
        <ele>290.899993896</ele>
        <time>2015-09-20T10:19:43.842Z</time>
      </trkpt>
      <trkpt lat="45.99591" lon="4.89386">
        <ele>291.200012207</ele>
        <time>2015-09-20T10:19:44.865Z</time>
      </trkpt>
      <trkpt lat="45.99592" lon="4.89393">
        <ele>291.200012207</ele>
        <time>2015-09-20T10:19:45.841Z</time>
      </trkpt>
      <trkpt lat="45.99592" lon="4.894">
        <ele>291.100006104</ele>
        <time>2015-09-20T10:19:46.913Z</time>
      </trkpt>
      <trkpt lat="45.99593" lon="4.89408">
        <ele>291.100006104</ele>
        <time>2015-09-20T10:19:47.844Z</time>
      </trkpt>
      <trkpt lat="45.99593" lon="4.89416">
        <ele>290.899993896</ele>
        <time>2015-09-20T10:19:48.866Z</time>
      </trkpt>
      <trkpt lat="45.99594" lon="4.89423">
        <ele>290.700012207</ele>
        <time>2015-09-20T10:19:49.841Z</time>
      </trkpt>
      <trkpt lat="45.99594" lon="4.89431">
        <ele>290.600006104</ele>
        <time>2015-09-20T10:19:50.865Z</time>
      </trkpt>
      <trkpt lat="45.99595" lon="4.89438">
        <ele>290.5</ele>
        <time>2015-09-20T10:19:51.84Z</time>
      </trkpt>
      <trkpt lat="45.99595" lon="4.89445">
        <ele>290.299987793</ele>
        <time>2015-09-20T10:19:52.864Z</time>
      </trkpt>
      <trkpt lat="45.99595" lon="4.89453">
        <ele>290.100006104</ele>
        <time>2015-09-20T10:19:53.843Z</time>
      </trkpt>
      <trkpt lat="45.99596" lon="4.89461">
        <ele>290.200012207</ele>
        <time>2015-09-20T10:19:54.865Z</time>
      </trkpt>
      <trkpt lat="45.99596" lon="4.89469">
        <ele>289.899993896</ele>
        <time>2015-09-20T10:19:55.846Z</time>
      </trkpt>
      <trkpt lat="45.99597" lon="4.89476">
        <ele>289.899993896</ele>
        <time>2015-09-20T10:19:56.867Z</time>
      </trkpt>
      <trkpt lat="45.99597" lon="4.89484">
        <ele>290.200012207</ele>
        <time>2015-09-20T10:19:57.88Z</time>
      </trkpt>
      <trkpt lat="45.99597" lon="4.89492">
        <ele>290.100006104</ele>
        <time>2015-09-20T10:19:58.865Z</time>
      </trkpt>
      <trkpt lat="45.99597" lon="4.89501">
        <ele>290.100006104</ele>
        <time>2015-09-20T10:19:59.844Z</time>
      </trkpt>
      <trkpt lat="45.99598" lon="4.89509">
        <ele>290.100006104</ele>
        <time>2015-09-20T10:20:00.865Z</time>
      </trkpt>
      <trkpt lat="45.99598" lon="4.89517">
        <ele>290.299987793</ele>
        <time>2015-09-20T10:20:01.841Z</time>
      </trkpt>
      <trkpt lat="45.99598" lon="4.89524">
        <ele>290.299987793</ele>
        <time>2015-09-20T10:20:02.887Z</time>
      </trkpt>
      <trkpt lat="45.99599" lon="4.89532">
        <ele>290.600006104</ele>
        <time>2015-09-20T10:20:03.841Z</time>
      </trkpt>
      <trkpt lat="45.996" lon="4.89539">
        <ele>290.700012207</ele>
        <time>2015-09-20T10:20:04.894Z</time>
      </trkpt>
      <trkpt lat="45.996" lon="4.89546">
        <ele>290.600006104</ele>
        <time>2015-09-20T10:20:05.844Z</time>
      </trkpt>
      <trkpt lat="45.99601" lon="4.89553">
        <ele>290.5</ele>
        <time>2015-09-20T10:20:06.865Z</time>
      </trkpt>
      <trkpt lat="45.99601" lon="4.8956">
        <ele>290.5</ele>
        <time>2015-09-20T10:20:07.845Z</time>
      </trkpt>
      <trkpt lat="45.99601" lon="4.89568">
        <ele>290.5</ele>
        <time>2015-09-20T10:20:08.865Z</time>
      </trkpt>
      <trkpt lat="45.99601" lon="4.89574">
        <ele>290.799987793</ele>
        <time>2015-09-20T10:20:09.841Z</time>
      </trkpt>
      <trkpt lat="45.99601" lon="4.89581">
        <ele>290.799987793</ele>
        <time>2015-09-20T10:20:10.874Z</time>
      </trkpt>
      <trkpt lat="45.99602" lon="4.89588">
        <ele>290.899993896</ele>
        <time>2015-09-20T10:20:11.845Z</time>
      </trkpt>
      <trkpt lat="45.99602" lon="4.89595">
        <ele>291.399993896</ele>
        <time>2015-09-20T10:20:12.869Z</time>
      </trkpt>
      <trkpt lat="45.99602" lon="4.89601">
        <ele>291.100006104</ele>
        <time>2015-09-20T10:20:13.841Z</time>
      </trkpt>
      <trkpt lat="45.99602" lon="4.89609">
        <ele>291.100006104</ele>
        <time>2015-09-20T10:20:14.865Z</time>
      </trkpt>
      <trkpt lat="45.99603" lon="4.89616">
        <ele>291.100006104</ele>
        <time>2015-09-20T10:20:15.841Z</time>
      </trkpt>
      <trkpt lat="45.99603" lon="4.89623">
        <ele>291</ele>
        <time>2015-09-20T10:20:16.865Z</time>
      </trkpt>
      <trkpt lat="45.99604" lon="4.8963">
        <ele>290.799987793</ele>
        <time>2015-09-20T10:20:17.844Z</time>
      </trkpt>
      <trkpt lat="45.99604" lon="4.89638">
        <ele>290.700012207</ele>
        <time>2015-09-20T10:20:18.879Z</time>
      </trkpt>
      <trkpt lat="45.99604" lon="4.89645">
        <ele>290.700012207</ele>
        <time>2015-09-20T10:20:19.842Z</time>
      </trkpt>
      <trkpt lat="45.99605" lon="4.89653">
        <ele>290.700012207</ele>
        <time>2015-09-20T10:20:20.865Z</time>
      </trkpt>
      <trkpt lat="45.99605" lon="4.8966">
        <ele>290.799987793</ele>
        <time>2015-09-20T10:20:21.845Z</time>
      </trkpt>
      <trkpt lat="45.99604" lon="4.89667">
        <ele>291.100006104</ele>
        <time>2015-09-20T10:20:22.866Z</time>
      </trkpt>
      <trkpt lat="45.99604" lon="4.89674">
        <ele>291.200012207</ele>
        <time>2015-09-20T10:20:23.844Z</time>
      </trkpt>
      <trkpt lat="45.99604" lon="4.89682">
        <ele>291.399993896</ele>
        <time>2015-09-20T10:20:24.887Z</time>
      </trkpt>
      <trkpt lat="45.99604" lon="4.89691">
        <ele>291.600006104</ele>
        <time>2015-09-20T10:20:25.842Z</time>
      </trkpt>
      <trkpt lat="45.99604" lon="4.89699">
        <ele>291.899993896</ele>
        <time>2015-09-20T10:20:26.914Z</time>
      </trkpt>
      <trkpt lat="45.99604" lon="4.89706">
        <ele>292.100006104</ele>
        <time>2015-09-20T10:20:27.841Z</time>
      </trkpt>
      <trkpt lat="45.99604" lon="4.89713">
        <ele>292.399993896</ele>
        <time>2015-09-20T10:20:28.865Z</time>
      </trkpt>
      <trkpt lat="45.99604" lon="4.89721">
        <ele>292.700012207</ele>
        <time>2015-09-20T10:20:29.844Z</time>
      </trkpt>
      <trkpt lat="45.99603" lon="4.89728">
        <ele>293.200012207</ele>
        <time>2015-09-20T10:20:30.865Z</time>
      </trkpt>
      <trkpt lat="45.99603" lon="4.89735">
        <ele>293.700012207</ele>
        <time>2015-09-20T10:20:31.841Z</time>
      </trkpt>
      <trkpt lat="45.99602" lon="4.89742">
        <ele>293.799987793</ele>
        <time>2015-09-20T10:20:32.865Z</time>
      </trkpt>
      <trkpt lat="45.99602" lon="4.89751">
        <ele>294.200012207</ele>
        <time>2015-09-20T10:20:33.841Z</time>
      </trkpt>
      <trkpt lat="45.99602" lon="4.89758">
        <ele>294.399993896</ele>
        <time>2015-09-20T10:20:34.882Z</time>
      </trkpt>
      <trkpt lat="45.99602" lon="4.89766">
        <ele>295</ele>
        <time>2015-09-20T10:20:35.844Z</time>
      </trkpt>
      <trkpt lat="45.99602" lon="4.89773">
        <ele>295.399993896</ele>
        <time>2015-09-20T10:20:36.865Z</time>
      </trkpt>
      <trkpt lat="45.99602" lon="4.8978">
        <ele>295.399993896</ele>
        <time>2015-09-20T10:20:37.841Z</time>
      </trkpt>
      <trkpt lat="45.99601" lon="4.89787">
        <ele>295.5</ele>
        <time>2015-09-20T10:20:38.865Z</time>
      </trkpt>
      <trkpt lat="45.996" lon="4.89794">
        <ele>296</ele>
        <time>2015-09-20T10:20:39.841Z</time>
      </trkpt>
      <trkpt lat="45.996" lon="4.89801">
        <ele>296</ele>
        <time>2015-09-20T10:20:40.866Z</time>
      </trkpt>
      <trkpt lat="45.996" lon="4.89808">
        <ele>296.100006104</ele>
        <time>2015-09-20T10:20:41.844Z</time>
      </trkpt>
      <trkpt lat="45.99599" lon="4.89815">
        <ele>296.5</ele>
        <time>2015-09-20T10:20:42.866Z</time>
      </trkpt>
      <trkpt lat="45.99599" lon="4.89823">
        <ele>297.100006104</ele>
        <time>2015-09-20T10:20:43.841Z</time>
      </trkpt>
      <trkpt lat="45.99598" lon="4.8983">
        <ele>297.700012207</ele>
        <time>2015-09-20T10:20:44.865Z</time>
      </trkpt>
      <trkpt lat="45.99598" lon="4.89837">
        <ele>298.100006104</ele>
        <time>2015-09-20T10:20:45.841Z</time>
      </trkpt>
      <trkpt lat="45.99597" lon="4.89849">
        <ele>299.100006104</ele>
        <time>2015-09-20T10:20:47.879Z</time>
      </trkpt>
      <trkpt lat="45.99597" lon="4.89857">
        <ele>299</ele>
        <time>2015-09-20T10:20:48.841Z</time>
      </trkpt>
      <trkpt lat="45.99597" lon="4.89865">
        <ele>299.399993896</ele>
        <time>2015-09-20T10:20:49.866Z</time>
      </trkpt>
      <trkpt lat="45.99597" lon="4.89872">
        <ele>299.700012207</ele>
        <time>2015-09-20T10:20:50.854Z</time>
      </trkpt>
      <trkpt lat="45.99596" lon="4.8988">
        <ele>300</ele>
        <time>2015-09-20T10:20:51.865Z</time>
      </trkpt>
      <trkpt lat="45.99596" lon="4.89888">
        <ele>300.299987793</ele>
        <time>2015-09-20T10:20:52.841Z</time>
      </trkpt>
      <trkpt lat="45.99596" lon="4.89895">
        <ele>300.5</ele>
        <time>2015-09-20T10:20:53.867Z</time>
      </trkpt>
      <trkpt lat="45.99596" lon="4.89903">
        <ele>300.600006104</ele>
        <time>2015-09-20T10:20:54.841Z</time>
      </trkpt>
      <trkpt lat="45.99597" lon="4.8991">
        <ele>300.200012207</ele>
        <time>2015-09-20T10:20:55.866Z</time>
      </trkpt>
      <trkpt lat="45.99598" lon="4.89917">
        <ele>300.299987793</ele>
        <time>2015-09-20T10:20:56.841Z</time>
      </trkpt>
      <trkpt lat="45.99598" lon="4.89924">
        <ele>300.5</ele>
        <time>2015-09-20T10:20:57.865Z</time>
      </trkpt>
      <trkpt lat="45.99598" lon="4.89931">
        <ele>300.700012207</ele>
        <time>2015-09-20T10:20:58.84Z</time>
      </trkpt>
      <trkpt lat="45.99598" lon="4.89938">
        <ele>300.5</ele>
        <time>2015-09-20T10:20:59.867Z</time>
      </trkpt>
      <trkpt lat="45.99598" lon="4.89946">
        <ele>300.5</ele>
        <time>2015-09-20T10:21:00.841Z</time>
      </trkpt>
      <trkpt lat="45.99599" lon="4.89954">
        <ele>300.5</ele>
        <time>2015-09-20T10:21:01.868Z</time>
      </trkpt>
      <trkpt lat="45.99599" lon="4.89961">
        <ele>300.5</ele>
        <time>2015-09-20T10:21:02.841Z</time>
      </trkpt>
      <trkpt lat="45.996" lon="4.89968">
        <ele>300.600006104</ele>
        <time>2015-09-20T10:21:03.865Z</time>
      </trkpt>
      <trkpt lat="45.99601" lon="4.89975">
        <ele>300.600006104</ele>
        <time>2015-09-20T10:21:04.841Z</time>
      </trkpt>
      <trkpt lat="45.99602" lon="4.89982">
        <ele>300.600006104</ele>
        <time>2015-09-20T10:21:05.868Z</time>
      </trkpt>
      <trkpt lat="45.99603" lon="4.89989">
        <ele>300.399993896</ele>
        <time>2015-09-20T10:21:06.841Z</time>
      </trkpt>
      <trkpt lat="45.99604" lon="4.89995">
        <ele>300.200012207</ele>
        <time>2015-09-20T10:21:07.876Z</time>
      </trkpt>
      <trkpt lat="45.99605" lon="4.90002">
        <ele>300.299987793</ele>
        <time>2015-09-20T10:21:08.841Z</time>
      </trkpt>
      <trkpt lat="45.99607" lon="4.90009">
        <ele>300.399993896</ele>
        <time>2015-09-20T10:21:09.874Z</time>
      </trkpt>
      <trkpt lat="45.99608" lon="4.90016">
        <ele>300.100006104</ele>
        <time>2015-09-20T10:21:10.841Z</time>
      </trkpt>
      <trkpt lat="45.9961" lon="4.90023">
        <ele>300.100006104</ele>
        <time>2015-09-20T10:21:11.881Z</time>
      </trkpt>
      <trkpt lat="45.99612" lon="4.90029">
        <ele>300.200012207</ele>
        <time>2015-09-20T10:21:12.841Z</time>
      </trkpt>
      <trkpt lat="45.99614" lon="4.90036">
        <ele>300.100006104</ele>
        <time>2015-09-20T10:21:13.869Z</time>
      </trkpt>
      <trkpt lat="45.99617" lon="4.90042">
        <ele>300.100006104</ele>
        <time>2015-09-20T10:21:14.841Z</time>
      </trkpt>
      <trkpt lat="45.99619" lon="4.90048">
        <ele>300.100006104</ele>
        <time>2015-09-20T10:21:15.865Z</time>
      </trkpt>
      <trkpt lat="45.99622" lon="4.90054">
        <ele>300.200012207</ele>
        <time>2015-09-20T10:21:16.841Z</time>
      </trkpt>
      <trkpt lat="45.99624" lon="4.90059">
        <ele>300.299987793</ele>
        <time>2015-09-20T10:21:17.868Z</time>
      </trkpt>
      <trkpt lat="45.99626" lon="4.90065">
        <ele>300.5</ele>
        <time>2015-09-20T10:21:18.84Z</time>
      </trkpt>
      <trkpt lat="45.99628" lon="4.90071">
        <ele>300.600006104</ele>
        <time>2015-09-20T10:21:19.867Z</time>
      </trkpt>
      <trkpt lat="45.99631" lon="4.90076">
        <ele>300.799987793</ele>
        <time>2015-09-20T10:21:20.879Z</time>
      </trkpt>
      <trkpt lat="45.99633" lon="4.90082">
        <ele>300.799987793</ele>
        <time>2015-09-20T10:21:21.866Z</time>
      </trkpt>
      <trkpt lat="45.99636" lon="4.90087">
        <ele>300.799987793</ele>
        <time>2015-09-20T10:21:22.841Z</time>
      </trkpt>
      <trkpt lat="45.99638" lon="4.90098">
        <ele>301</ele>
        <time>2015-09-20T10:21:24.865Z</time>
      </trkpt>
      <trkpt lat="45.99639" lon="4.90103">
        <ele>301.299987793</ele>
        <time>2015-09-20T10:21:25.841Z</time>
      </trkpt>
      <trkpt lat="45.99643" lon="4.90115">
        <ele>301.700012207</ele>
        <time>2015-09-20T10:21:27.878Z</time>
      </trkpt>
      <trkpt lat="45.99644" lon="4.9012">
        <ele>301.899993896</ele>
        <time>2015-09-20T10:21:28.84Z</time>
      </trkpt>
      <trkpt lat="45.99647" lon="4.9013">
        <ele>302.5</ele>
        <time>2015-09-20T10:21:30.865Z</time>
      </trkpt>
      <trkpt lat="45.99649" lon="4.90134">
        <ele>302.600006104</ele>
        <time>2015-09-20T10:21:31.842Z</time>
      </trkpt>
      <trkpt lat="45.99652" lon="4.90145">
        <ele>303.799987793</ele>
        <time>2015-09-20T10:21:33.866Z</time>
      </trkpt>
      <trkpt lat="45.99653" lon="4.9015">
        <ele>304.200012207</ele>
        <time>2015-09-20T10:21:34.841Z</time>
      </trkpt>
      <trkpt lat="45.99655" lon="4.9016">
        <ele>304.600006104</ele>
        <time>2015-09-20T10:21:36.864Z</time>
      </trkpt>
      <trkpt lat="45.99657" lon="4.90164">
        <ele>305</ele>
        <time>2015-09-20T10:21:37.841Z</time>
      </trkpt>
      <trkpt lat="45.99659" lon="4.90172">
        <ele>305.299987793</ele>
        <time>2015-09-20T10:21:39.868Z</time>
      </trkpt>
      <trkpt lat="45.99661" lon="4.90176">
        <ele>305.799987793</ele>
        <time>2015-09-20T10:21:40.84Z</time>
      </trkpt>
      <trkpt lat="45.99662" lon="4.90185">
        <ele>306.399993896</ele>
        <time>2015-09-20T10:21:42.864Z</time>
      </trkpt>
      <trkpt lat="45.99664" lon="4.90189">
        <ele>306.600006104</ele>
        <time>2015-09-20T10:21:43.857Z</time>
      </trkpt>
      <trkpt lat="45.99666" lon="4.90201">
        <ele>307.100006104</ele>
        <time>2015-09-20T10:21:46.866Z</time>
      </trkpt>
      <trkpt lat="45.99667" lon="4.90205">
        <ele>306.799987793</ele>
        <time>2015-09-20T10:21:47.844Z</time>
      </trkpt>
      <trkpt lat="45.99668" lon="4.90214">
        <ele>307.299987793</ele>
        <time>2015-09-20T10:21:49.866Z</time>
      </trkpt>
      <trkpt lat="45.9967" lon="4.90218">
        <ele>307.700012207</ele>
        <time>2015-09-20T10:21:50.875Z</time>
      </trkpt>
      <trkpt lat="45.99672" lon="4.90226">
        <ele>307.899993896</ele>
        <time>2015-09-20T10:21:52.865Z</time>
      </trkpt>
      <trkpt lat="45.99673" lon="4.90231">
        <ele>307.700012207</ele>
        <time>2015-09-20T10:21:53.843Z</time>
      </trkpt>
      <trkpt lat="45.99676" lon="4.9024">
        <ele>307.399993896</ele>
        <time>2015-09-20T10:21:55.865Z</time>
      </trkpt>
      <trkpt lat="45.99677" lon="4.90245">
        <ele>307.100006104</ele>
        <time>2015-09-20T10:21:56.841Z</time>
      </trkpt>
      <trkpt lat="45.9968" lon="4.90256">
        <ele>307.100006104</ele>
        <time>2015-09-20T10:21:58.865Z</time>
      </trkpt>
      <trkpt lat="45.99679" lon="4.90261">
        <ele>307.100006104</ele>
        <time>2015-09-20T10:21:59.843Z</time>
      </trkpt>
      <trkpt lat="45.99678" lon="4.9027">
        <ele>307.200012207</ele>
        <time>2015-09-20T10:22:01.865Z</time>
      </trkpt>
      <trkpt lat="45.99677" lon="4.90276">
        <ele>307.200012207</ele>
        <time>2015-09-20T10:22:02.841Z</time>
      </trkpt>
      <trkpt lat="45.99675" lon="4.90287">
        <ele>307</ele>
        <time>2015-09-20T10:22:04.878Z</time>
      </trkpt>
      <trkpt lat="45.99674" lon="4.90293">
        <ele>307.100006104</ele>
        <time>2015-09-20T10:22:05.847Z</time>
      </trkpt>
      <trkpt lat="45.99673" lon="4.90306">
        <ele>307.299987793</ele>
        <time>2015-09-20T10:22:07.878Z</time>
      </trkpt>
      <trkpt lat="45.99673" lon="4.90311">
        <ele>307.600006104</ele>
        <time>2015-09-20T10:22:08.842Z</time>
      </trkpt>
      <trkpt lat="45.99674" lon="4.90323">
        <ele>308</ele>
        <time>2015-09-20T10:22:12.865Z</time>
      </trkpt>
      <trkpt lat="45.99674" lon="4.90325">
        <ele>308.200012207</ele>
        <time>2015-09-20T10:22:13.842Z</time>
      </trkpt>
      <trkpt lat="45.99673" lon="4.90327">
        <ele>307.5</ele>
        <time>2015-09-20T10:22:17.909Z</time>
      </trkpt>
      <trkpt lat="45.99672" lon="4.9033">
        <ele>307.299987793</ele>
        <time>2015-09-20T10:22:18.842Z</time>
      </trkpt>
      <trkpt lat="45.99676" lon="4.90332">
        <ele>307.5</ele>
        <time>2015-09-20T10:22:22.865Z</time>
      </trkpt>
      <trkpt lat="45.99679" lon="4.90333">
        <ele>307.399993896</ele>
        <time>2015-09-20T10:22:23.843Z</time>
      </trkpt>
      <trkpt lat="45.99686" lon="4.90336">
        <ele>306.700012207</ele>
        <time>2015-09-20T10:22:25.88Z</time>
      </trkpt>
      <trkpt lat="45.99688" lon="4.90337">
        <ele>306.600006104</ele>
        <time>2015-09-20T10:22:26.841Z</time>
      </trkpt>
      <trkpt lat="45.99691" lon="4.90346">
        <ele>306.799987793</ele>
        <time>2015-09-20T10:22:28.864Z</time>
      </trkpt>
      <trkpt lat="45.99689" lon="4.90355">
        <ele>307.5</ele>
        <time>2015-09-20T10:22:29.843Z</time>
      </trkpt>
      <trkpt lat="45.99688" lon="4.90362">
        <ele>307.700012207</ele>
        <time>2015-09-20T10:22:30.874Z</time>
      </trkpt>
      <trkpt lat="45.99684" lon="4.9037">
        <ele>307.600006104</ele>
        <time>2015-09-20T10:22:31.845Z</time>
      </trkpt>
      <trkpt lat="45.99683" lon="4.90378">
        <ele>307.700012207</ele>
        <time>2015-09-20T10:22:32.866Z</time>
      </trkpt>
      <trkpt lat="45.99682" lon="4.90387">
        <ele>307.799987793</ele>
        <time>2015-09-20T10:22:33.842Z</time>
      </trkpt>
      <trkpt lat="45.9968" lon="4.90397">
        <ele>307.899993896</ele>
        <time>2015-09-20T10:22:34.877Z</time>
      </trkpt>
      <trkpt lat="45.99676" lon="4.90407">
        <ele>307.399993896</ele>
        <time>2015-09-20T10:22:35.843Z</time>
      </trkpt>
      <trkpt lat="45.99673" lon="4.90416">
        <ele>307</ele>
        <time>2015-09-20T10:22:36.864Z</time>
      </trkpt>
      <trkpt lat="45.99671" lon="4.90423">
        <ele>306.5</ele>
        <time>2015-09-20T10:22:37.841Z</time>
      </trkpt>
      <trkpt lat="45.99668" lon="4.9043">
        <ele>306</ele>
        <time>2015-09-20T10:22:38.864Z</time>
      </trkpt>
      <trkpt lat="45.99666" lon="4.90435">
        <ele>305.600006104</ele>
        <time>2015-09-20T10:22:39.842Z</time>
      </trkpt>
      <trkpt lat="45.99659" lon="4.90442">
        <ele>305.299987793</ele>
        <time>2015-09-20T10:22:41.868Z</time>
      </trkpt>
      <trkpt lat="45.99656" lon="4.90446">
        <ele>304.799987793</ele>
        <time>2015-09-20T10:22:42.841Z</time>
      </trkpt>
      <trkpt lat="45.99652" lon="4.90448">
        <ele>304.299987793</ele>
        <time>2015-09-20T10:22:43.865Z</time>
      </trkpt>
      <trkpt lat="45.99647" lon="4.90451">
        <ele>304.200012207</ele>
        <time>2015-09-20T10:22:44.881Z</time>
      </trkpt>
      <trkpt lat="45.99643" lon="4.90453">
        <ele>304.100006104</ele>
        <time>2015-09-20T10:22:45.865Z</time>
      </trkpt>
      <trkpt lat="45.99638" lon="4.90454">
        <ele>304.299987793</ele>
        <time>2015-09-20T10:22:46.84Z</time>
      </trkpt>
      <trkpt lat="45.99633" lon="4.90455">
        <ele>304.399993896</ele>
        <time>2015-09-20T10:22:47.868Z</time>
      </trkpt>
      <trkpt lat="45.99628" lon="4.90456">
        <ele>304.5</ele>
        <time>2015-09-20T10:22:48.841Z</time>
      </trkpt>
      <trkpt lat="45.99623" lon="4.90457">
        <ele>304.200012207</ele>
        <time>2015-09-20T10:22:49.866Z</time>
      </trkpt>
      <trkpt lat="45.99618" lon="4.90457">
        <ele>304.100006104</ele>
        <time>2015-09-20T10:22:50.841Z</time>
      </trkpt>
      <trkpt lat="45.99612" lon="4.90457">
        <ele>304.299987793</ele>
        <time>2015-09-20T10:22:51.878Z</time>
      </trkpt>
      <trkpt lat="45.99607" lon="4.90457">
        <ele>303.899993896</ele>
        <time>2015-09-20T10:22:52.842Z</time>
      </trkpt>
      <trkpt lat="45.996" lon="4.90459">
        <ele>303.399993896</ele>
        <time>2015-09-20T10:22:53.868Z</time>
      </trkpt>
      <trkpt lat="45.99595" lon="4.90461">
        <ele>303.100006104</ele>
        <time>2015-09-20T10:22:54.842Z</time>
      </trkpt>
      <trkpt lat="45.99589" lon="4.90464">
        <ele>302.899993896</ele>
        <time>2015-09-20T10:22:55.866Z</time>
      </trkpt>
      <trkpt lat="45.99583" lon="4.90468">
        <ele>302.5</ele>
        <time>2015-09-20T10:22:56.84Z</time>
      </trkpt>
      <trkpt lat="45.99577" lon="4.90473">
        <ele>302.5</ele>
        <time>2015-09-20T10:22:57.868Z</time>
      </trkpt>
      <trkpt lat="45.99572" lon="4.90478">
        <ele>302.5</ele>
        <time>2015-09-20T10:22:58.841Z</time>
      </trkpt>
      <trkpt lat="45.99566" lon="4.90483">
        <ele>302.600006104</ele>
        <time>2015-09-20T10:22:59.866Z</time>
      </trkpt>
      <trkpt lat="45.9956" lon="4.90488">
        <ele>302.600006104</ele>
        <time>2015-09-20T10:23:00.842Z</time>
      </trkpt>
      <trkpt lat="45.99554" lon="4.90493">
        <ele>302.200012207</ele>
        <time>2015-09-20T10:23:01.866Z</time>
      </trkpt>
      <trkpt lat="45.99548" lon="4.90499">
        <ele>301.700012207</ele>
        <time>2015-09-20T10:23:02.904Z</time>
      </trkpt>
      <trkpt lat="45.99544" lon="4.90504">
        <ele>301.899993896</ele>
        <time>2015-09-20T10:23:03.895Z</time>
      </trkpt>
      <trkpt lat="45.99539" lon="4.9051">
        <ele>301.899993896</ele>
        <time>2015-09-20T10:23:04.841Z</time>
      </trkpt>
      <trkpt lat="45.99535" lon="4.90514">
        <ele>301.700012207</ele>
        <time>2015-09-20T10:23:05.867Z</time>
      </trkpt>
      <trkpt lat="45.99531" lon="4.90519">
        <ele>301.799987793</ele>
        <time>2015-09-20T10:23:06.842Z</time>
      </trkpt>
      <trkpt lat="45.99526" lon="4.90525">
        <ele>302</ele>
        <time>2015-09-20T10:23:07.867Z</time>
      </trkpt>
      <trkpt lat="45.99522" lon="4.9053">
        <ele>301.899993896</ele>
        <time>2015-09-20T10:23:08.84Z</time>
      </trkpt>
      <trkpt lat="45.99517" lon="4.90536">
        <ele>301.700012207</ele>
        <time>2015-09-20T10:23:09.865Z</time>
      </trkpt>
      <trkpt lat="45.99512" lon="4.90541">
        <ele>301.399993896</ele>
        <time>2015-09-20T10:23:10.841Z</time>
      </trkpt>
      <trkpt lat="45.99508" lon="4.90547">
        <ele>301.399993896</ele>
        <time>2015-09-20T10:23:11.867Z</time>
      </trkpt>
      <trkpt lat="45.99503" lon="4.90553">
        <ele>301.700012207</ele>
        <time>2015-09-20T10:23:12.833Z</time>
      </trkpt>
      <trkpt lat="45.99498" lon="4.90559">
        <ele>301.700012207</ele>
        <time>2015-09-20T10:23:13.954Z</time>
      </trkpt>
      <trkpt lat="45.99493" lon="4.90565">
        <ele>301.799987793</ele>
        <time>2015-09-20T10:23:14.841Z</time>
      </trkpt>
      <trkpt lat="45.99488" lon="4.90571">
        <ele>301.5</ele>
        <time>2015-09-20T10:23:15.865Z</time>
      </trkpt>
      <trkpt lat="45.99483" lon="4.90576">
        <ele>301.700012207</ele>
        <time>2015-09-20T10:23:16.842Z</time>
      </trkpt>
      <trkpt lat="45.99477" lon="4.90582">
        <ele>301.299987793</ele>
        <time>2015-09-20T10:23:17.88Z</time>
      </trkpt>
      <trkpt lat="45.99473" lon="4.90587">
        <ele>301.600006104</ele>
        <time>2015-09-20T10:23:18.841Z</time>
      </trkpt>
      <trkpt lat="45.99468" lon="4.90592">
        <ele>301.5</ele>
        <time>2015-09-20T10:23:19.865Z</time>
      </trkpt>
      <trkpt lat="45.99464" lon="4.90598">
        <ele>301.5</ele>
        <time>2015-09-20T10:23:20.841Z</time>
      </trkpt>
      <trkpt lat="45.9946" lon="4.90603">
        <ele>301.600006104</ele>
        <time>2015-09-20T10:23:21.865Z</time>
      </trkpt>
      <trkpt lat="45.99456" lon="4.90609">
        <ele>301.799987793</ele>
        <time>2015-09-20T10:23:22.84Z</time>
      </trkpt>
      <trkpt lat="45.99452" lon="4.90614">
        <ele>301.899993896</ele>
        <time>2015-09-20T10:23:23.87Z</time>
      </trkpt>
      <trkpt lat="45.99447" lon="4.9062">
        <ele>302</ele>
        <time>2015-09-20T10:23:24.84Z</time>
      </trkpt>
      <trkpt lat="45.99443" lon="4.90625">
        <ele>302</ele>
        <time>2015-09-20T10:23:25.865Z</time>
      </trkpt>
      <trkpt lat="45.99439" lon="4.9063">
        <ele>302</ele>
        <time>2015-09-20T10:23:26.841Z</time>
      </trkpt>
      <trkpt lat="45.99435" lon="4.90636">
        <ele>302.299987793</ele>
        <time>2015-09-20T10:23:27.904Z</time>
      </trkpt>
      <trkpt lat="45.99431" lon="4.90641">
        <ele>302.200012207</ele>
        <time>2015-09-20T10:23:28.841Z</time>
      </trkpt>
      <trkpt lat="45.99426" lon="4.90646">
        <ele>302.299987793</ele>
        <time>2015-09-20T10:23:29.867Z</time>
      </trkpt>
      <trkpt lat="45.99422" lon="4.90651">
        <ele>302.299987793</ele>
        <time>2015-09-20T10:23:30.841Z</time>
      </trkpt>
      <trkpt lat="45.99417" lon="4.90657">
        <ele>302.200012207</ele>
        <time>2015-09-20T10:23:31.865Z</time>
      </trkpt>
      <trkpt lat="45.99413" lon="4.90662">
        <ele>302.200012207</ele>
        <time>2015-09-20T10:23:32.841Z</time>
      </trkpt>
      <trkpt lat="45.99408" lon="4.90668">
        <ele>302.399993896</ele>
        <time>2015-09-20T10:23:33.865Z</time>
      </trkpt>
      <trkpt lat="45.99404" lon="4.90673">
        <ele>302.700012207</ele>
        <time>2015-09-20T10:23:34.841Z</time>
      </trkpt>
      <trkpt lat="45.994" lon="4.90678">
        <ele>302.399993896</ele>
        <time>2015-09-20T10:23:35.914Z</time>
      </trkpt>
      <trkpt lat="45.99396" lon="4.90683">
        <ele>302.399993896</ele>
        <time>2015-09-20T10:23:36.841Z</time>
      </trkpt>
      <trkpt lat="45.99393" lon="4.90688">
        <ele>302.5</ele>
        <time>2015-09-20T10:23:37.866Z</time>
      </trkpt>
      <trkpt lat="45.99389" lon="4.90693">
        <ele>302.5</ele>
        <time>2015-09-20T10:23:38.841Z</time>
      </trkpt>
      <trkpt lat="45.99384" lon="4.90698">
        <ele>302.399993896</ele>
        <time>2015-09-20T10:23:39.865Z</time>
      </trkpt>
      <trkpt lat="45.99379" lon="4.90703">
        <ele>302.100006104</ele>
        <time>2015-09-20T10:23:40.841Z</time>
      </trkpt>
      <trkpt lat="45.99375" lon="4.90708">
        <ele>301.799987793</ele>
        <time>2015-09-20T10:23:41.867Z</time>
      </trkpt>
      <trkpt lat="45.9937" lon="4.90713">
        <ele>301.899993896</ele>
        <time>2015-09-20T10:23:42.841Z</time>
      </trkpt>
      <trkpt lat="45.99366" lon="4.90719">
        <ele>301.899993896</ele>
        <time>2015-09-20T10:23:43.878Z</time>
      </trkpt>
      <trkpt lat="45.99361" lon="4.90724">
        <ele>302</ele>
        <time>2015-09-20T10:23:44.84Z</time>
      </trkpt>
      <trkpt lat="45.99356" lon="4.90729">
        <ele>302.100006104</ele>
        <time>2015-09-20T10:23:45.865Z</time>
      </trkpt>
      <trkpt lat="45.99352" lon="4.90735">
        <ele>302.100006104</ele>
        <time>2015-09-20T10:23:46.841Z</time>
      </trkpt>
      <trkpt lat="45.99347" lon="4.90741">
        <ele>302.200012207</ele>
        <time>2015-09-20T10:23:47.868Z</time>
      </trkpt>
      <trkpt lat="45.99343" lon="4.90748">
        <ele>301.799987793</ele>
        <time>2015-09-20T10:23:48.84Z</time>
      </trkpt>
      <trkpt lat="45.99339" lon="4.90754">
        <ele>301.899993896</ele>
        <time>2015-09-20T10:23:49.87Z</time>
      </trkpt>
      <trkpt lat="45.99333" lon="4.9076">
        <ele>301.899993896</ele>
        <time>2015-09-20T10:23:50.841Z</time>
      </trkpt>
      <trkpt lat="45.99328" lon="4.90766">
        <ele>301.5</ele>
        <time>2015-09-20T10:23:51.865Z</time>
      </trkpt>
      <trkpt lat="45.99323" lon="4.90772">
        <ele>301.5</ele>
        <time>2015-09-20T10:23:52.841Z</time>
      </trkpt>
      <trkpt lat="45.99318" lon="4.90778">
        <ele>301.700012207</ele>
        <time>2015-09-20T10:23:53.867Z</time>
      </trkpt>
      <trkpt lat="45.99313" lon="4.90783">
        <ele>301.5</ele>
        <time>2015-09-20T10:23:54.842Z</time>
      </trkpt>
      <trkpt lat="45.99309" lon="4.90789">
        <ele>301.799987793</ele>
        <time>2015-09-20T10:23:55.865Z</time>
      </trkpt>
      <trkpt lat="45.99305" lon="4.90794">
        <ele>302</ele>
        <time>2015-09-20T10:23:56.841Z</time>
      </trkpt>
      <trkpt lat="45.993" lon="4.90799">
        <ele>302.100006104</ele>
        <time>2015-09-20T10:23:57.866Z</time>
      </trkpt>
      <trkpt lat="45.99295" lon="4.90804">
        <ele>302.100006104</ele>
        <time>2015-09-20T10:23:58.864Z</time>
      </trkpt>
      <trkpt lat="45.9929" lon="4.90809">
        <ele>302</ele>
        <time>2015-09-20T10:23:59.881Z</time>
      </trkpt>
      <trkpt lat="45.99285" lon="4.90815">
        <ele>301.5</ele>
        <time>2015-09-20T10:24:00.842Z</time>
      </trkpt>
      <trkpt lat="45.9928" lon="4.9082">
        <ele>301.5</ele>
        <time>2015-09-20T10:24:01.865Z</time>
      </trkpt>
      <trkpt lat="45.99275" lon="4.90826">
        <ele>301.600006104</ele>
        <time>2015-09-20T10:24:02.84Z</time>
      </trkpt>
      <trkpt lat="45.9927" lon="4.90832">
        <ele>301.299987793</ele>
        <time>2015-09-20T10:24:03.87Z</time>
      </trkpt>
      <trkpt lat="45.99265" lon="4.90838">
        <ele>301.299987793</ele>
        <time>2015-09-20T10:24:04.84Z</time>
      </trkpt>
      <trkpt lat="45.9926" lon="4.90844">
        <ele>301.399993896</ele>
        <time>2015-09-20T10:24:05.934Z</time>
      </trkpt>
      <trkpt lat="45.99255" lon="4.90851">
        <ele>301.700012207</ele>
        <time>2015-09-20T10:24:06.841Z</time>
      </trkpt>
      <trkpt lat="45.9925" lon="4.90857">
        <ele>302</ele>
        <time>2015-09-20T10:24:07.869Z</time>
      </trkpt>
      <trkpt lat="45.99245" lon="4.90864">
        <ele>302.200012207</ele>
        <time>2015-09-20T10:24:08.84Z</time>
      </trkpt>
      <trkpt lat="45.99239" lon="4.9087">
        <ele>302.299987793</ele>
        <time>2015-09-20T10:24:09.871Z</time>
      </trkpt>
      <trkpt lat="45.99234" lon="4.90876">
        <ele>302.399993896</ele>
        <time>2015-09-20T10:24:10.878Z</time>
      </trkpt>
      <trkpt lat="45.99228" lon="4.90883">
        <ele>302.299987793</ele>
        <time>2015-09-20T10:24:11.867Z</time>
      </trkpt>
      <trkpt lat="45.99223" lon="4.90889">
        <ele>302.399993896</ele>
        <time>2015-09-20T10:24:12.841Z</time>
      </trkpt>
      <trkpt lat="45.99218" lon="4.90896">
        <ele>302.700012207</ele>
        <time>2015-09-20T10:24:13.865Z</time>
      </trkpt>
      <trkpt lat="45.99213" lon="4.90902">
        <ele>302.899993896</ele>
        <time>2015-09-20T10:24:14.876Z</time>
      </trkpt>
      <trkpt lat="45.99208" lon="4.90908">
        <ele>302.799987793</ele>
        <time>2015-09-20T10:24:15.944Z</time>
      </trkpt>
      <trkpt lat="45.99204" lon="4.90914">
        <ele>302.899993896</ele>
        <time>2015-09-20T10:24:16.841Z</time>
      </trkpt>
      <trkpt lat="45.99199" lon="4.90921">
        <ele>302.799987793</ele>
        <time>2015-09-20T10:24:17.867Z</time>
      </trkpt>
      <trkpt lat="45.99195" lon="4.90927">
        <ele>302.799987793</ele>
        <time>2015-09-20T10:24:18.84Z</time>
      </trkpt>
      <trkpt lat="45.99191" lon="4.90933">
        <ele>302.799987793</ele>
        <time>2015-09-20T10:24:19.865Z</time>
      </trkpt>
      <trkpt lat="45.99187" lon="4.90939">
        <ele>302.700012207</ele>
        <time>2015-09-20T10:24:20.841Z</time>
      </trkpt>
      <trkpt lat="45.99183" lon="4.90944">
        <ele>302.700012207</ele>
        <time>2015-09-20T10:24:21.866Z</time>
      </trkpt>
      <trkpt lat="45.99178" lon="4.90949">
        <ele>302.600006104</ele>
        <time>2015-09-20T10:24:22.841Z</time>
      </trkpt>
      <trkpt lat="45.99174" lon="4.90954">
        <ele>302.799987793</ele>
        <time>2015-09-20T10:24:23.869Z</time>
      </trkpt>
      <trkpt lat="45.9917" lon="4.9096">
        <ele>303.100006104</ele>
        <time>2015-09-20T10:24:24.841Z</time>
      </trkpt>
      <trkpt lat="45.99166" lon="4.90966">
        <ele>302.899993896</ele>
        <time>2015-09-20T10:24:25.914Z</time>
      </trkpt>
      <trkpt lat="45.99162" lon="4.90971">
        <ele>302.899993896</ele>
        <time>2015-09-20T10:24:26.841Z</time>
      </trkpt>
      <trkpt lat="45.99157" lon="4.90977">
        <ele>303.100006104</ele>
        <time>2015-09-20T10:24:27.866Z</time>
      </trkpt>
      <trkpt lat="45.99152" lon="4.90983">
        <ele>303</ele>
        <time>2015-09-20T10:24:28.841Z</time>
      </trkpt>
      <trkpt lat="45.99147" lon="4.90988">
        <ele>303.100006104</ele>
        <time>2015-09-20T10:24:29.867Z</time>
      </trkpt>
      <trkpt lat="45.99143" lon="4.90994">
        <ele>303.299987793</ele>
        <time>2015-09-20T10:24:30.84Z</time>
      </trkpt>
      <trkpt lat="45.99138" lon="4.90999">
        <ele>303.200012207</ele>
        <time>2015-09-20T10:24:31.866Z</time>
      </trkpt>
      <trkpt lat="45.99133" lon="4.91005">
        <ele>303.299987793</ele>
        <time>2015-09-20T10:24:32.84Z</time>
      </trkpt>
      <trkpt lat="45.99128" lon="4.9101">
        <ele>303.200012207</ele>
        <time>2015-09-20T10:24:33.866Z</time>
      </trkpt>
      <trkpt lat="45.99124" lon="4.91016">
        <ele>302.899993896</ele>
        <time>2015-09-20T10:24:34.84Z</time>
      </trkpt>
      <trkpt lat="45.9912" lon="4.91022">
        <ele>302.5</ele>
        <time>2015-09-20T10:24:35.867Z</time>
      </trkpt>
      <trkpt lat="45.99116" lon="4.91027">
        <ele>302.299987793</ele>
        <time>2015-09-20T10:24:36.841Z</time>
      </trkpt>
      <trkpt lat="45.99112" lon="4.91032">
        <ele>302.100006104</ele>
        <time>2015-09-20T10:24:37.866Z</time>
      </trkpt>
      <trkpt lat="45.99108" lon="4.91037">
        <ele>301.799987793</ele>
        <time>2015-09-20T10:24:38.84Z</time>
      </trkpt>
      <trkpt lat="45.99103" lon="4.91042">
        <ele>301.799987793</ele>
        <time>2015-09-20T10:24:39.865Z</time>
      </trkpt>
      <trkpt lat="45.99099" lon="4.91047">
        <ele>302.200012207</ele>
        <time>2015-09-20T10:24:40.839Z</time>
      </trkpt>
      <trkpt lat="45.99094" lon="4.91052">
        <ele>302.399993896</ele>
        <time>2015-09-20T10:24:41.888Z</time>
      </trkpt>
      <trkpt lat="45.9909" lon="4.91058">
        <ele>302.399993896</ele>
        <time>2015-09-20T10:24:42.839Z</time>
      </trkpt>
      <trkpt lat="45.99085" lon="4.91063">
        <ele>302.399993896</ele>
        <time>2015-09-20T10:24:43.865Z</time>
      </trkpt>
      <trkpt lat="45.9908" lon="4.91069">
        <ele>302.5</ele>
        <time>2015-09-20T10:24:44.841Z</time>
      </trkpt>
      <trkpt lat="45.99076" lon="4.91076">
        <ele>302.399993896</ele>
        <time>2015-09-20T10:24:45.865Z</time>
      </trkpt>
      <trkpt lat="45.99071" lon="4.91082">
        <ele>301.899993896</ele>
        <time>2015-09-20T10:24:46.841Z</time>
      </trkpt>
      <trkpt lat="45.99066" lon="4.91088">
        <ele>301.700012207</ele>
        <time>2015-09-20T10:24:47.868Z</time>
      </trkpt>
      <trkpt lat="45.99061" lon="4.91093">
        <ele>301.899993896</ele>
        <time>2015-09-20T10:24:48.841Z</time>
      </trkpt>
      <trkpt lat="45.99056" lon="4.91099">
        <ele>301.5</ele>
        <time>2015-09-20T10:24:49.866Z</time>
      </trkpt>
      <trkpt lat="45.99051" lon="4.91105">
        <ele>301.5</ele>
        <time>2015-09-20T10:24:50.841Z</time>
      </trkpt>
      <trkpt lat="45.99045" lon="4.91111">
        <ele>301.399993896</ele>
        <time>2015-09-20T10:24:51.866Z</time>
      </trkpt>
      <trkpt lat="45.9904" lon="4.91117">
        <ele>301.600006104</ele>
        <time>2015-09-20T10:24:52.841Z</time>
      </trkpt>
      <trkpt lat="45.99035" lon="4.91124">
        <ele>301.5</ele>
        <time>2015-09-20T10:24:53.867Z</time>
      </trkpt>
      <trkpt lat="45.9903" lon="4.9113">
        <ele>301.200012207</ele>
        <time>2015-09-20T10:24:54.841Z</time>
      </trkpt>
      <trkpt lat="45.99025" lon="4.91136">
        <ele>301.200012207</ele>
        <time>2015-09-20T10:24:55.957Z</time>
      </trkpt>
      <trkpt lat="45.9902" lon="4.91142">
        <ele>301.100006104</ele>
        <time>2015-09-20T10:24:56.842Z</time>
      </trkpt>
      <trkpt lat="45.99015" lon="4.91148">
        <ele>301</ele>
        <time>2015-09-20T10:24:57.895Z</time>
      </trkpt>
      <trkpt lat="45.9901" lon="4.91155">
        <ele>300.700012207</ele>
        <time>2015-09-20T10:24:58.841Z</time>
      </trkpt>
      <trkpt lat="45.99004" lon="4.91161">
        <ele>300.200012207</ele>
        <time>2015-09-20T10:24:59.867Z</time>
      </trkpt>
      <trkpt lat="45.98999" lon="4.91168">
        <ele>300</ele>
        <time>2015-09-20T10:25:00.841Z</time>
      </trkpt>
      <trkpt lat="45.98994" lon="4.91175">
        <ele>299.899993896</ele>
        <time>2015-09-20T10:25:01.865Z</time>
      </trkpt>
      <trkpt lat="45.9899" lon="4.91181">
        <ele>299.5</ele>
        <time>2015-09-20T10:25:02.841Z</time>
      </trkpt>
      <trkpt lat="45.98984" lon="4.91188">
        <ele>299.200012207</ele>
        <time>2015-09-20T10:25:03.865Z</time>
      </trkpt>
      <trkpt lat="45.98979" lon="4.91194">
        <ele>299.399993896</ele>
        <time>2015-09-20T10:25:04.841Z</time>
      </trkpt>
      <trkpt lat="45.98974" lon="4.912">
        <ele>299.700012207</ele>
        <time>2015-09-20T10:25:05.867Z</time>
      </trkpt>
      <trkpt lat="45.98968" lon="4.91206">
        <ele>299.399993896</ele>
        <time>2015-09-20T10:25:06.84Z</time>
      </trkpt>
      <trkpt lat="45.98963" lon="4.91212">
        <ele>299.200012207</ele>
        <time>2015-09-20T10:25:07.872Z</time>
      </trkpt>
      <trkpt lat="45.98959" lon="4.91218">
        <ele>299.200012207</ele>
        <time>2015-09-20T10:25:08.841Z</time>
      </trkpt>
      <trkpt lat="45.98954" lon="4.91223">
        <ele>299.100006104</ele>
        <time>2015-09-20T10:25:09.866Z</time>
      </trkpt>
      <trkpt lat="45.98949" lon="4.91229">
        <ele>299.100006104</ele>
        <time>2015-09-20T10:25:10.841Z</time>
      </trkpt>
      <trkpt lat="45.98944" lon="4.91235">
        <ele>298.899993896</ele>
        <time>2015-09-20T10:25:11.867Z</time>
      </trkpt>
      <trkpt lat="45.9894" lon="4.91241">
        <ele>298.700012207</ele>
        <time>2015-09-20T10:25:12.839Z</time>
      </trkpt>
      <trkpt lat="45.98935" lon="4.91247">
        <ele>298.600006104</ele>
        <time>2015-09-20T10:25:13.88Z</time>
      </trkpt>
      <trkpt lat="45.98931" lon="4.91253">
        <ele>298.600006104</ele>
        <time>2015-09-20T10:25:14.84Z</time>
      </trkpt>
      <trkpt lat="45.98926" lon="4.91259">
        <ele>298.5</ele>
        <time>2015-09-20T10:25:15.897Z</time>
      </trkpt>
      <trkpt lat="45.98921" lon="4.91265">
        <ele>298.5</ele>
        <time>2015-09-20T10:25:16.84Z</time>
      </trkpt>
      <trkpt lat="45.98915" lon="4.91271">
        <ele>298.600006104</ele>
        <time>2015-09-20T10:25:17.867Z</time>
      </trkpt>
      <trkpt lat="45.9891" lon="4.91277">
        <ele>298.700012207</ele>
        <time>2015-09-20T10:25:18.84Z</time>
      </trkpt>
      <trkpt lat="45.98905" lon="4.91284">
        <ele>298.799987793</ele>
        <time>2015-09-20T10:25:19.865Z</time>
      </trkpt>
      <trkpt lat="45.98899" lon="4.9129">
        <ele>298.700012207</ele>
        <time>2015-09-20T10:25:20.84Z</time>
      </trkpt>
      <trkpt lat="45.98894" lon="4.91296">
        <ele>298.5</ele>
        <time>2015-09-20T10:25:21.865Z</time>
      </trkpt>
      <trkpt lat="45.98888" lon="4.91303">
        <ele>298.399993896</ele>
        <time>2015-09-20T10:25:22.84Z</time>
      </trkpt>
      <trkpt lat="45.98884" lon="4.91309">
        <ele>298.299987793</ele>
        <time>2015-09-20T10:25:23.868Z</time>
      </trkpt>
      <trkpt lat="45.98879" lon="4.91316">
        <ele>298.200012207</ele>
        <time>2015-09-20T10:25:24.84Z</time>
      </trkpt>
      <trkpt lat="45.98873" lon="4.91322">
        <ele>298.200012207</ele>
        <time>2015-09-20T10:25:25.866Z</time>
      </trkpt>
      <trkpt lat="45.98869" lon="4.91329">
        <ele>297.899993896</ele>
        <time>2015-09-20T10:25:26.84Z</time>
      </trkpt>
      <trkpt lat="45.98864" lon="4.91335">
        <ele>298.299987793</ele>
        <time>2015-09-20T10:25:27.865Z</time>
      </trkpt>
      <trkpt lat="45.98859" lon="4.91341">
        <ele>298.600006104</ele>
        <time>2015-09-20T10:25:28.84Z</time>
      </trkpt>
      <trkpt lat="45.98855" lon="4.91347">
        <ele>298.799987793</ele>
        <time>2015-09-20T10:25:29.881Z</time>
      </trkpt>
      <trkpt lat="45.98849" lon="4.91352">
        <ele>298.899993896</ele>
        <time>2015-09-20T10:25:30.84Z</time>
      </trkpt>
      <trkpt lat="45.98845" lon="4.91358">
        <ele>298.899993896</ele>
        <time>2015-09-20T10:25:31.865Z</time>
      </trkpt>
      <trkpt lat="45.98839" lon="4.91364">
        <ele>299</ele>
        <time>2015-09-20T10:25:32.84Z</time>
      </trkpt>
      <trkpt lat="45.98834" lon="4.9137">
        <ele>299.200012207</ele>
        <time>2015-09-20T10:25:33.868Z</time>
      </trkpt>
      <trkpt lat="45.98829" lon="4.91376">
        <ele>299.600006104</ele>
        <time>2015-09-20T10:25:34.841Z</time>
      </trkpt>
      <trkpt lat="45.98824" lon="4.91383">
        <ele>299.799987793</ele>
        <time>2015-09-20T10:25:35.867Z</time>
      </trkpt>
      <trkpt lat="45.98819" lon="4.9139">
        <ele>299.700012207</ele>
        <time>2015-09-20T10:25:36.841Z</time>
      </trkpt>
      <trkpt lat="45.98813" lon="4.91396">
        <ele>300</ele>
        <time>2015-09-20T10:25:37.865Z</time>
      </trkpt>
      <trkpt lat="45.98808" lon="4.91403">
        <ele>300.299987793</ele>
        <time>2015-09-20T10:25:38.84Z</time>
      </trkpt>
      <trkpt lat="45.98803" lon="4.91409">
        <ele>300.200012207</ele>
        <time>2015-09-20T10:25:39.872Z</time>
      </trkpt>
      <trkpt lat="45.98798" lon="4.91416">
        <ele>300.299987793</ele>
        <time>2015-09-20T10:25:40.84Z</time>
      </trkpt>
      <trkpt lat="45.98793" lon="4.91422">
        <ele>300.100006104</ele>
        <time>2015-09-20T10:25:41.867Z</time>
      </trkpt>
      <trkpt lat="45.98788" lon="4.91428">
        <ele>300.200012207</ele>
        <time>2015-09-20T10:25:42.84Z</time>
      </trkpt>
      <trkpt lat="45.98783" lon="4.91435">
        <ele>299.799987793</ele>
        <time>2015-09-20T10:25:43.867Z</time>
      </trkpt>
      <trkpt lat="45.98777" lon="4.91441">
        <ele>299.299987793</ele>
        <time>2015-09-20T10:25:44.841Z</time>
      </trkpt>
      <trkpt lat="45.98772" lon="4.91447">
        <ele>299.299987793</ele>
        <time>2015-09-20T10:25:45.9Z</time>
      </trkpt>
      <trkpt lat="45.98767" lon="4.91454">
        <ele>299.299987793</ele>
        <time>2015-09-20T10:25:46.84Z</time>
      </trkpt>
      <trkpt lat="45.98761" lon="4.91461">
        <ele>299.100006104</ele>
        <time>2015-09-20T10:25:47.867Z</time>
      </trkpt>
      <trkpt lat="45.98755" lon="4.91468">
        <ele>298.899993896</ele>
        <time>2015-09-20T10:25:48.841Z</time>
      </trkpt>
      <trkpt lat="45.9875" lon="4.91475">
        <ele>298.700012207</ele>
        <time>2015-09-20T10:25:49.865Z</time>
      </trkpt>
      <trkpt lat="45.98744" lon="4.91482">
        <ele>298.399993896</ele>
        <time>2015-09-20T10:25:50.841Z</time>
      </trkpt>
      <trkpt lat="45.98739" lon="4.91489">
        <ele>298.200012207</ele>
        <time>2015-09-20T10:25:51.865Z</time>
      </trkpt>
      <trkpt lat="45.98734" lon="4.91496">
        <ele>298.100006104</ele>
        <time>2015-09-20T10:25:52.848Z</time>
      </trkpt>
      <trkpt lat="45.98728" lon="4.91502">
        <ele>298.200012207</ele>
        <time>2015-09-20T10:25:53.868Z</time>
      </trkpt>
      <trkpt lat="45.98723" lon="4.91509">
        <ele>298.299987793</ele>
        <time>2015-09-20T10:25:54.841Z</time>
      </trkpt>
      <trkpt lat="45.98717" lon="4.91516">
        <ele>298.5</ele>
        <time>2015-09-20T10:25:55.866Z</time>
      </trkpt>
      <trkpt lat="45.98711" lon="4.91523">
        <ele>298.399993896</ele>
        <time>2015-09-20T10:25:56.876Z</time>
      </trkpt>
      <trkpt lat="45.98706" lon="4.9153">
        <ele>298.5</ele>
        <time>2015-09-20T10:25:57.866Z</time>
      </trkpt>
      <trkpt lat="45.987" lon="4.91536">
        <ele>298.799987793</ele>
        <time>2015-09-20T10:25:58.839Z</time>
      </trkpt>
      <trkpt lat="45.98695" lon="4.91542">
        <ele>298.700012207</ele>
        <time>2015-09-20T10:25:59.87Z</time>
      </trkpt>
      <trkpt lat="45.9869" lon="4.91549">
        <ele>298.700012207</ele>
        <time>2015-09-20T10:26:00.841Z</time>
      </trkpt>
      <trkpt lat="45.98684" lon="4.91555">
        <ele>298.700012207</ele>
        <time>2015-09-20T10:26:01.891Z</time>
      </trkpt>
      <trkpt lat="45.98679" lon="4.91562">
        <ele>298.399993896</ele>
        <time>2015-09-20T10:26:02.84Z</time>
      </trkpt>
      <trkpt lat="45.98673" lon="4.91569">
        <ele>298.299987793</ele>
        <time>2015-09-20T10:26:03.865Z</time>
      </trkpt>
      <trkpt lat="45.98668" lon="4.91575">
        <ele>298.399993896</ele>
        <time>2015-09-20T10:26:04.841Z</time>
      </trkpt>
      <trkpt lat="45.98663" lon="4.91581">
        <ele>298.5</ele>
        <time>2015-09-20T10:26:05.867Z</time>
      </trkpt>
      <trkpt lat="45.98657" lon="4.91589">
        <ele>298.5</ele>
        <time>2015-09-20T10:26:06.841Z</time>
      </trkpt>
      <trkpt lat="45.98652" lon="4.91595">
        <ele>298.600006104</ele>
        <time>2015-09-20T10:26:07.868Z</time>
      </trkpt>
      <trkpt lat="45.98647" lon="4.91602">
        <ele>299</ele>
        <time>2015-09-20T10:26:08.84Z</time>
      </trkpt>
      <trkpt lat="45.98642" lon="4.91609">
        <ele>298.899993896</ele>
        <time>2015-09-20T10:26:09.864Z</time>
      </trkpt>
      <trkpt lat="45.98636" lon="4.91616">
        <ele>299</ele>
        <time>2015-09-20T10:26:10.84Z</time>
      </trkpt>
      <trkpt lat="45.98631" lon="4.91623">
        <ele>298.700012207</ele>
        <time>2015-09-20T10:26:11.879Z</time>
      </trkpt>
      <trkpt lat="45.98625" lon="4.91629">
        <ele>298.700012207</ele>
        <time>2015-09-20T10:26:12.84Z</time>
      </trkpt>
      <trkpt lat="45.98619" lon="4.91636">
        <ele>298.399993896</ele>
        <time>2015-09-20T10:26:13.866Z</time>
      </trkpt>
      <trkpt lat="45.98614" lon="4.91643">
        <ele>298.299987793</ele>
        <time>2015-09-20T10:26:14.84Z</time>
      </trkpt>
      <trkpt lat="45.98609" lon="4.91649">
        <ele>298.100006104</ele>
        <time>2015-09-20T10:26:15.865Z</time>
      </trkpt>
      <trkpt lat="45.98604" lon="4.91656">
        <ele>297.700012207</ele>
        <time>2015-09-20T10:26:16.84Z</time>
      </trkpt>
      <trkpt lat="45.98598" lon="4.91662">
        <ele>297.799987793</ele>
        <time>2015-09-20T10:26:17.88Z</time>
      </trkpt>
      <trkpt lat="45.98592" lon="4.91669">
        <ele>297.899993896</ele>
        <time>2015-09-20T10:26:18.841Z</time>
      </trkpt>
      <trkpt lat="45.98586" lon="4.91675">
        <ele>298</ele>
        <time>2015-09-20T10:26:19.865Z</time>
      </trkpt>
      <trkpt lat="45.9858" lon="4.91682">
        <ele>297.799987793</ele>
        <time>2015-09-20T10:26:20.84Z</time>
      </trkpt>
      <trkpt lat="45.98574" lon="4.91689">
        <ele>297.600006104</ele>
        <time>2015-09-20T10:26:21.865Z</time>
      </trkpt>
      <trkpt lat="45.98568" lon="4.91696">
        <ele>297.200012207</ele>
        <time>2015-09-20T10:26:22.84Z</time>
      </trkpt>
      <trkpt lat="45.98563" lon="4.91702">
        <ele>297.100006104</ele>
        <time>2015-09-20T10:26:23.867Z</time>
      </trkpt>
      <trkpt lat="45.98556" lon="4.91709">
        <ele>296.700012207</ele>
        <time>2015-09-20T10:26:24.84Z</time>
      </trkpt>
      <trkpt lat="45.9855" lon="4.91716">
        <ele>296.5</ele>
        <time>2015-09-20T10:26:25.869Z</time>
      </trkpt>
      <trkpt lat="45.98545" lon="4.91723">
        <ele>296.200012207</ele>
        <time>2015-09-20T10:26:26.84Z</time>
      </trkpt>
      <trkpt lat="45.98539" lon="4.91731">
        <ele>296</ele>
        <time>2015-09-20T10:26:27.87Z</time>
      </trkpt>
      <trkpt lat="45.98533" lon="4.91738">
        <ele>296.100006104</ele>
        <time>2015-09-20T10:26:28.84Z</time>
      </trkpt>
      <trkpt lat="45.98527" lon="4.91745">
        <ele>296.200012207</ele>
        <time>2015-09-20T10:26:29.867Z</time>
      </trkpt>
      <trkpt lat="45.98521" lon="4.91751">
        <ele>296.299987793</ele>
        <time>2015-09-20T10:26:30.84Z</time>
      </trkpt>
      <trkpt lat="45.98516" lon="4.91758">
        <ele>296.299987793</ele>
        <time>2015-09-20T10:26:31.865Z</time>
      </trkpt>
      <trkpt lat="45.9851" lon="4.91765">
        <ele>296.200012207</ele>
        <time>2015-09-20T10:26:32.84Z</time>
      </trkpt>
      <trkpt lat="45.98505" lon="4.91772">
        <ele>295.799987793</ele>
        <time>2015-09-20T10:26:33.878Z</time>
      </trkpt>
      <trkpt lat="45.98499" lon="4.91779">
        <ele>295.700012207</ele>
        <time>2015-09-20T10:26:34.841Z</time>
      </trkpt>
      <trkpt lat="45.98493" lon="4.91786">
        <ele>295.700012207</ele>
        <time>2015-09-20T10:26:35.867Z</time>
      </trkpt>
      <trkpt lat="45.98487" lon="4.91793">
        <ele>295.700012207</ele>
        <time>2015-09-20T10:26:36.84Z</time>
      </trkpt>
      <trkpt lat="45.98482" lon="4.91801">
        <ele>295.799987793</ele>
        <time>2015-09-20T10:26:37.897Z</time>
      </trkpt>
      <trkpt lat="45.98476" lon="4.91808">
        <ele>296.200012207</ele>
        <time>2015-09-20T10:26:38.841Z</time>
      </trkpt>
      <trkpt lat="45.9847" lon="4.91815">
        <ele>296.100006104</ele>
        <time>2015-09-20T10:26:39.864Z</time>
      </trkpt>
      <trkpt lat="45.98465" lon="4.91822">
        <ele>296</ele>
        <time>2015-09-20T10:26:40.84Z</time>
      </trkpt>
      <trkpt lat="45.98459" lon="4.91829">
        <ele>295.899993896</ele>
        <time>2015-09-20T10:26:41.868Z</time>
      </trkpt>
      <trkpt lat="45.98454" lon="4.91835">
        <ele>296</ele>
        <time>2015-09-20T10:26:42.841Z</time>
      </trkpt>
      <trkpt lat="45.98448" lon="4.91843">
        <ele>296</ele>
        <time>2015-09-20T10:26:43.866Z</time>
      </trkpt>
      <trkpt lat="45.98442" lon="4.9185">
        <ele>296.100006104</ele>
        <time>2015-09-20T10:26:44.84Z</time>
      </trkpt>
      <trkpt lat="45.98436" lon="4.91856">
        <ele>296.100006104</ele>
        <time>2015-09-20T10:26:45.865Z</time>
      </trkpt>
      <trkpt lat="45.9843" lon="4.91863">
        <ele>296.200012207</ele>
        <time>2015-09-20T10:26:46.84Z</time>
      </trkpt>
      <trkpt lat="45.98424" lon="4.9187">
        <ele>296.399993896</ele>
        <time>2015-09-20T10:26:47.866Z</time>
      </trkpt>
      <trkpt lat="45.98419" lon="4.91877">
        <ele>296.299987793</ele>
        <time>2015-09-20T10:26:48.84Z</time>
      </trkpt>
      <trkpt lat="45.98413" lon="4.91884">
        <ele>296.399993896</ele>
        <time>2015-09-20T10:26:49.882Z</time>
      </trkpt>
      <trkpt lat="45.98408" lon="4.91891">
        <ele>296.399993896</ele>
        <time>2015-09-20T10:26:50.84Z</time>
      </trkpt>
      <trkpt lat="45.98402" lon="4.91898">
        <ele>296.399993896</ele>
        <time>2015-09-20T10:26:51.868Z</time>
      </trkpt>
      <trkpt lat="45.98397" lon="4.91905">
        <ele>296.600006104</ele>
        <time>2015-09-20T10:26:52.84Z</time>
      </trkpt>
      <trkpt lat="45.98391" lon="4.91912">
        <ele>296.600006104</ele>
        <time>2015-09-20T10:26:53.867Z</time>
      </trkpt>
      <trkpt lat="45.98386" lon="4.91918">
        <ele>296.700012207</ele>
        <time>2015-09-20T10:26:54.84Z</time>
      </trkpt>
      <trkpt lat="45.98381" lon="4.91924">
        <ele>296.700012207</ele>
        <time>2015-09-20T10:26:55.865Z</time>
      </trkpt>
      <trkpt lat="45.98376" lon="4.9193">
        <ele>297</ele>
        <time>2015-09-20T10:26:56.84Z</time>
      </trkpt>
      <trkpt lat="45.9837" lon="4.91936">
        <ele>297.100006104</ele>
        <time>2015-09-20T10:26:57.865Z</time>
      </trkpt>
      <trkpt lat="45.98366" lon="4.91943">
        <ele>297.600006104</ele>
        <time>2015-09-20T10:26:58.84Z</time>
      </trkpt>
      <trkpt lat="45.9836" lon="4.91948">
        <ele>297.799987793</ele>
        <time>2015-09-20T10:26:59.866Z</time>
      </trkpt>
      <trkpt lat="45.98355" lon="4.91954">
        <ele>298</ele>
        <time>2015-09-20T10:27:00.84Z</time>
      </trkpt>
      <trkpt lat="45.98351" lon="4.9196">
        <ele>298.100006104</ele>
        <time>2015-09-20T10:27:01.865Z</time>
      </trkpt>
      <trkpt lat="45.98346" lon="4.91967">
        <ele>297.899993896</ele>
        <time>2015-09-20T10:27:02.84Z</time>
      </trkpt>
      <trkpt lat="45.9834" lon="4.91973">
        <ele>298.100006104</ele>
        <time>2015-09-20T10:27:03.864Z</time>
      </trkpt>
      <trkpt lat="45.98335" lon="4.9198">
        <ele>298.299987793</ele>
        <time>2015-09-20T10:27:04.84Z</time>
      </trkpt>
      <trkpt lat="45.9833" lon="4.91986">
        <ele>298.5</ele>
        <time>2015-09-20T10:27:05.867Z</time>
      </trkpt>
      <trkpt lat="45.98324" lon="4.91992">
        <ele>298.899993896</ele>
        <time>2015-09-20T10:27:06.84Z</time>
      </trkpt>
      <trkpt lat="45.98319" lon="4.91999">
        <ele>299.200012207</ele>
        <time>2015-09-20T10:27:07.869Z</time>
      </trkpt>
      <trkpt lat="45.98314" lon="4.92005">
        <ele>299.399993896</ele>
        <time>2015-09-20T10:27:08.84Z</time>
      </trkpt>
      <trkpt lat="45.98308" lon="4.92013">
        <ele>299.399993896</ele>
        <time>2015-09-20T10:27:09.864Z</time>
      </trkpt>
      <trkpt lat="45.98303" lon="4.92019">
        <ele>299</ele>
        <time>2015-09-20T10:27:10.855Z</time>
      </trkpt>
      <trkpt lat="45.98298" lon="4.92026">
        <ele>298.899993896</ele>
        <time>2015-09-20T10:27:11.918Z</time>
      </trkpt>
      <trkpt lat="45.98292" lon="4.92032">
        <ele>299.100006104</ele>
        <time>2015-09-20T10:27:12.841Z</time>
      </trkpt>
      <trkpt lat="45.98287" lon="4.92038">
        <ele>299</ele>
        <time>2015-09-20T10:27:13.866Z</time>
      </trkpt>
      <trkpt lat="45.98282" lon="4.92044">
        <ele>299</ele>
        <time>2015-09-20T10:27:14.985Z</time>
      </trkpt>
      <trkpt lat="45.98277" lon="4.92051">
        <ele>299.299987793</ele>
        <time>2015-09-20T10:27:15.905Z</time>
      </trkpt>
      <trkpt lat="45.98272" lon="4.92057">
        <ele>299.299987793</ele>
        <time>2015-09-20T10:27:16.842Z</time>
      </trkpt>
      <trkpt lat="45.98267" lon="4.92063">
        <ele>299.200012207</ele>
        <time>2015-09-20T10:27:17.885Z</time>
      </trkpt>
      <trkpt lat="45.98262" lon="4.92069">
        <ele>298.899993896</ele>
        <time>2015-09-20T10:27:18.886Z</time>
      </trkpt>
      <trkpt lat="45.98256" lon="4.92075">
        <ele>298.600006104</ele>
        <time>2015-09-20T10:27:19.881Z</time>
      </trkpt>
      <trkpt lat="45.98251" lon="4.92081">
        <ele>298.799987793</ele>
        <time>2015-09-20T10:27:20.845Z</time>
      </trkpt>
      <trkpt lat="45.98246" lon="4.92087">
        <ele>299.200012207</ele>
        <time>2015-09-20T10:27:21.886Z</time>
      </trkpt>
      <trkpt lat="45.9824" lon="4.92094">
        <ele>299</ele>
        <time>2015-09-20T10:27:22.847Z</time>
      </trkpt>
      <trkpt lat="45.98235" lon="4.921">
        <ele>298.899993896</ele>
        <time>2015-09-20T10:27:23.873Z</time>
      </trkpt>
      <trkpt lat="45.98229" lon="4.92107">
        <ele>298.600006104</ele>
        <time>2015-09-20T10:27:24.848Z</time>
      </trkpt>
      <trkpt lat="45.98224" lon="4.92113">
        <ele>298.399993896</ele>
        <time>2015-09-20T10:27:25.87Z</time>
      </trkpt>
      <trkpt lat="45.98218" lon="4.9212">
        <ele>297.899993896</ele>
        <time>2015-09-20T10:27:26.924Z</time>
      </trkpt>
      <trkpt lat="45.98213" lon="4.92126">
        <ele>297.600006104</ele>
        <time>2015-09-20T10:27:27.874Z</time>
      </trkpt>
      <trkpt lat="45.98208" lon="4.92132">
        <ele>297.899993896</ele>
        <time>2015-09-20T10:27:28.844Z</time>
      </trkpt>
      <trkpt lat="45.98202" lon="4.92139">
        <ele>298.100006104</ele>
        <time>2015-09-20T10:27:29.872Z</time>
      </trkpt>
      <trkpt lat="45.98197" lon="4.92146">
        <ele>297.899993896</ele>
        <time>2015-09-20T10:27:30.844Z</time>
      </trkpt>
      <trkpt lat="45.98191" lon="4.92152">
        <ele>298</ele>
        <time>2015-09-20T10:27:31.886Z</time>
      </trkpt>
      <trkpt lat="45.98186" lon="4.92159">
        <ele>298</ele>
        <time>2015-09-20T10:27:32.867Z</time>
      </trkpt>
      <trkpt lat="45.98181" lon="4.92166">
        <ele>298.299987793</ele>
        <time>2015-09-20T10:27:33.869Z</time>
      </trkpt>
      <trkpt lat="45.98176" lon="4.92172">
        <ele>297.799987793</ele>
        <time>2015-09-20T10:27:34.843Z</time>
      </trkpt>
      <trkpt lat="45.98171" lon="4.92179">
        <ele>297.899993896</ele>
        <time>2015-09-20T10:27:35.869Z</time>
      </trkpt>
      <trkpt lat="45.98166" lon="4.92185">
        <ele>297.600006104</ele>
        <time>2015-09-20T10:27:36.864Z</time>
      </trkpt>
      <trkpt lat="45.98161" lon="4.92191">
        <ele>297.600006104</ele>
        <time>2015-09-20T10:27:37.89Z</time>
      </trkpt>
      <trkpt lat="45.98156" lon="4.92198">
        <ele>297.600006104</ele>
        <time>2015-09-20T10:27:38.842Z</time>
      </trkpt>
      <trkpt lat="45.98151" lon="4.92205">
        <ele>297.200012207</ele>
        <time>2015-09-20T10:27:39.869Z</time>
      </trkpt>
      <trkpt lat="45.98146" lon="4.92212">
        <ele>297.299987793</ele>
        <time>2015-09-20T10:27:40.843Z</time>
      </trkpt>
      <trkpt lat="45.98141" lon="4.92219">
        <ele>297</ele>
        <time>2015-09-20T10:27:41.884Z</time>
      </trkpt>
      <trkpt lat="45.98137" lon="4.92226">
        <ele>296.799987793</ele>
        <time>2015-09-20T10:27:42.882Z</time>
      </trkpt>
      <trkpt lat="45.98132" lon="4.92233">
        <ele>296.799987793</ele>
        <time>2015-09-20T10:27:43.904Z</time>
      </trkpt>
      <trkpt lat="45.98127" lon="4.92239">
        <ele>296.799987793</ele>
        <time>2015-09-20T10:27:44.842Z</time>
      </trkpt>
      <trkpt lat="45.98122" lon="4.92246">
        <ele>296.700012207</ele>
        <time>2015-09-20T10:27:45.868Z</time>
      </trkpt>
      <trkpt lat="45.98117" lon="4.92252">
        <ele>296.799987793</ele>
        <time>2015-09-20T10:27:46.842Z</time>
      </trkpt>
      <trkpt lat="45.98112" lon="4.92258">
        <ele>296.600006104</ele>
        <time>2015-09-20T10:27:47.869Z</time>
      </trkpt>
      <trkpt lat="45.98107" lon="4.92264">
        <ele>296.799987793</ele>
        <time>2015-09-20T10:27:48.842Z</time>
      </trkpt>
      <trkpt lat="45.98103" lon="4.9227">
        <ele>296.700012207</ele>
        <time>2015-09-20T10:27:49.868Z</time>
      </trkpt>
      <trkpt lat="45.98097" lon="4.92275">
        <ele>296.399993896</ele>
        <time>2015-09-20T10:27:50.841Z</time>
      </trkpt>
      <trkpt lat="45.98092" lon="4.9228">
        <ele>295.899993896</ele>
        <time>2015-09-20T10:27:51.871Z</time>
      </trkpt>
      <trkpt lat="45.98088" lon="4.92287">
        <ele>295.799987793</ele>
        <time>2015-09-20T10:27:52.841Z</time>
      </trkpt>
      <trkpt lat="45.98083" lon="4.92293">
        <ele>295.799987793</ele>
        <time>2015-09-20T10:27:53.87Z</time>
      </trkpt>
      <trkpt lat="45.98077" lon="4.92299">
        <ele>295.399993896</ele>
        <time>2015-09-20T10:27:54.843Z</time>
      </trkpt>
      <trkpt lat="45.98072" lon="4.92305">
        <ele>295.100006104</ele>
        <time>2015-09-20T10:27:55.867Z</time>
      </trkpt>
      <trkpt lat="45.98066" lon="4.92311">
        <ele>295.700012207</ele>
        <time>2015-09-20T10:27:56.841Z</time>
      </trkpt>
      <trkpt lat="45.98061" lon="4.92317">
        <ele>295.700012207</ele>
        <time>2015-09-20T10:27:57.866Z</time>
      </trkpt>
      <trkpt lat="45.98056" lon="4.92323">
        <ele>296.100006104</ele>
        <time>2015-09-20T10:27:58.859Z</time>
      </trkpt>
      <trkpt lat="45.98051" lon="4.92329">
        <ele>296.399993896</ele>
        <time>2015-09-20T10:27:59.911Z</time>
      </trkpt>
      <trkpt lat="45.98045" lon="4.92334">
        <ele>296.399993896</ele>
        <time>2015-09-20T10:28:00.885Z</time>
      </trkpt>
      <trkpt lat="45.9804" lon="4.9234">
        <ele>296.399993896</ele>
        <time>2015-09-20T10:28:01.882Z</time>
      </trkpt>
      <trkpt lat="45.98036" lon="4.92346">
        <ele>296.200012207</ele>
        <time>2015-09-20T10:28:02.842Z</time>
      </trkpt>
      <trkpt lat="45.98031" lon="4.92351">
        <ele>296.299987793</ele>
        <time>2015-09-20T10:28:03.867Z</time>
      </trkpt>
      <trkpt lat="45.98026" lon="4.92357">
        <ele>296.399993896</ele>
        <time>2015-09-20T10:28:04.841Z</time>
      </trkpt>
      <trkpt lat="45.98022" lon="4.92363">
        <ele>296.600006104</ele>
        <time>2015-09-20T10:28:05.868Z</time>
      </trkpt>
      <trkpt lat="45.98018" lon="4.92369">
        <ele>296.799987793</ele>
        <time>2015-09-20T10:28:06.842Z</time>
      </trkpt>
      <trkpt lat="45.98014" lon="4.92375">
        <ele>297</ele>
        <time>2015-09-20T10:28:07.872Z</time>
      </trkpt>
      <trkpt lat="45.98009" lon="4.92381">
        <ele>296.899993896</ele>
        <time>2015-09-20T10:28:08.842Z</time>
      </trkpt>
      <trkpt lat="45.98003" lon="4.92386">
        <ele>297.200012207</ele>
        <time>2015-09-20T10:28:09.867Z</time>
      </trkpt>
      <trkpt lat="45.97999" lon="4.92391">
        <ele>297.100006104</ele>
        <time>2015-09-20T10:28:10.841Z</time>
      </trkpt>
      <trkpt lat="45.97993" lon="4.92397">
        <ele>296.899993896</ele>
        <time>2015-09-20T10:28:11.884Z</time>
      </trkpt>
      <trkpt lat="45.97988" lon="4.92403">
        <ele>296.799987793</ele>
        <time>2015-09-20T10:28:12.841Z</time>
      </trkpt>
      <trkpt lat="45.97984" lon="4.9241">
        <ele>296.200012207</ele>
        <time>2015-09-20T10:28:13.867Z</time>
      </trkpt>
      <trkpt lat="45.97979" lon="4.92416">
        <ele>296.100006104</ele>
        <time>2015-09-20T10:28:14.841Z</time>
      </trkpt>
      <trkpt lat="45.97974" lon="4.92422">
        <ele>295.899993896</ele>
        <time>2015-09-20T10:28:15.866Z</time>
      </trkpt>
      <trkpt lat="45.97969" lon="4.92429">
        <ele>296.100006104</ele>
        <time>2015-09-20T10:28:16.842Z</time>
      </trkpt>
      <trkpt lat="45.97964" lon="4.92435">
        <ele>296</ele>
        <time>2015-09-20T10:28:17.87Z</time>
      </trkpt>
      <trkpt lat="45.97959" lon="4.9244">
        <ele>296.5</ele>
        <time>2015-09-20T10:28:18.841Z</time>
      </trkpt>
      <trkpt lat="45.97953" lon="4.92446">
        <ele>296.600006104</ele>
        <time>2015-09-20T10:28:19.917Z</time>
      </trkpt>
      <trkpt lat="45.97948" lon="4.92452">
        <ele>296.399993896</ele>
        <time>2015-09-20T10:28:20.843Z</time>
      </trkpt>
      <trkpt lat="45.97943" lon="4.92458">
        <ele>296.399993896</ele>
        <time>2015-09-20T10:28:21.882Z</time>
      </trkpt>
      <trkpt lat="45.97938" lon="4.92464">
        <ele>296.5</ele>
        <time>2015-09-20T10:28:22.841Z</time>
      </trkpt>
      <trkpt lat="45.97933" lon="4.9247">
        <ele>296.5</ele>
        <time>2015-09-20T10:28:23.904Z</time>
      </trkpt>
      <trkpt lat="45.97929" lon="4.92476">
        <ele>296.399993896</ele>
        <time>2015-09-20T10:28:24.84Z</time>
      </trkpt>
      <trkpt lat="45.97924" lon="4.92482">
        <ele>296.600006104</ele>
        <time>2015-09-20T10:28:25.904Z</time>
      </trkpt>
      <trkpt lat="45.9792" lon="4.92488">
        <ele>296.600006104</ele>
        <time>2015-09-20T10:28:26.865Z</time>
      </trkpt>
      <trkpt lat="45.97915" lon="4.92494">
        <ele>296.700012207</ele>
        <time>2015-09-20T10:28:27.866Z</time>
      </trkpt>
      <trkpt lat="45.9791" lon="4.925">
        <ele>296.600006104</ele>
        <time>2015-09-20T10:28:28.842Z</time>
      </trkpt>
      <trkpt lat="45.97905" lon="4.92505">
        <ele>296.399993896</ele>
        <time>2015-09-20T10:28:29.869Z</time>
      </trkpt>
      <trkpt lat="45.97901" lon="4.92511">
        <ele>296.399993896</ele>
        <time>2015-09-20T10:28:30.841Z</time>
      </trkpt>
      <trkpt lat="45.97896" lon="4.92517">
        <ele>296</ele>
        <time>2015-09-20T10:28:31.876Z</time>
      </trkpt>
      <trkpt lat="45.97891" lon="4.92523">
        <ele>296.100006104</ele>
        <time>2015-09-20T10:28:32.841Z</time>
      </trkpt>
      <trkpt lat="45.97887" lon="4.92528">
        <ele>295.799987793</ele>
        <time>2015-09-20T10:28:33.866Z</time>
      </trkpt>
      <trkpt lat="45.97882" lon="4.92534">
        <ele>295.799987793</ele>
        <time>2015-09-20T10:28:34.841Z</time>
      </trkpt>
      <trkpt lat="45.97877" lon="4.9254">
        <ele>296</ele>
        <time>2015-09-20T10:28:35.882Z</time>
      </trkpt>
      <trkpt lat="45.97873" lon="4.92546">
        <ele>296.100006104</ele>
        <time>2015-09-20T10:28:36.841Z</time>
      </trkpt>
      <trkpt lat="45.97868" lon="4.92551">
        <ele>296</ele>
        <time>2015-09-20T10:28:37.867Z</time>
      </trkpt>
      <trkpt lat="45.97863" lon="4.92557">
        <ele>296.100006104</ele>
        <time>2015-09-20T10:28:38.841Z</time>
      </trkpt>
      <trkpt lat="45.97858" lon="4.92563">
        <ele>296.200012207</ele>
        <time>2015-09-20T10:28:39.866Z</time>
      </trkpt>
      <trkpt lat="45.97853" lon="4.92568">
        <ele>296.399993896</ele>
        <time>2015-09-20T10:28:40.841Z</time>
      </trkpt>
      <trkpt lat="45.97848" lon="4.92574">
        <ele>296.5</ele>
        <time>2015-09-20T10:28:41.884Z</time>
      </trkpt>
      <trkpt lat="45.97843" lon="4.92581">
        <ele>296.799987793</ele>
        <time>2015-09-20T10:28:42.842Z</time>
      </trkpt>
      <trkpt lat="45.97838" lon="4.92587">
        <ele>296.899993896</ele>
        <time>2015-09-20T10:28:43.868Z</time>
      </trkpt>
      <trkpt lat="45.97833" lon="4.92593">
        <ele>297.299987793</ele>
        <time>2015-09-20T10:28:44.841Z</time>
      </trkpt>
      <trkpt lat="45.97828" lon="4.92599">
        <ele>296.899993896</ele>
        <time>2015-09-20T10:28:45.87Z</time>
      </trkpt>
      <trkpt lat="45.97823" lon="4.92605">
        <ele>297</ele>
        <time>2015-09-20T10:28:46.842Z</time>
      </trkpt>
      <trkpt lat="45.97818" lon="4.92611">
        <ele>296.700012207</ele>
        <time>2015-09-20T10:28:47.87Z</time>
      </trkpt>
      <trkpt lat="45.97814" lon="4.92617">
        <ele>296.700012207</ele>
        <time>2015-09-20T10:28:48.841Z</time>
      </trkpt>
      <trkpt lat="45.97809" lon="4.92623">
        <ele>296.700012207</ele>
        <time>2015-09-20T10:28:49.867Z</time>
      </trkpt>
      <trkpt lat="45.97804" lon="4.92629">
        <ele>296.700012207</ele>
        <time>2015-09-20T10:28:50.842Z</time>
      </trkpt>
      <trkpt lat="45.97799" lon="4.92635">
        <ele>296.600006104</ele>
        <time>2015-09-20T10:28:51.9Z</time>
      </trkpt>
      <trkpt lat="45.97795" lon="4.92641">
        <ele>296.700012207</ele>
        <time>2015-09-20T10:28:52.841Z</time>
      </trkpt>
      <trkpt lat="45.9779" lon="4.92647">
        <ele>296.700012207</ele>
        <time>2015-09-20T10:28:53.869Z</time>
      </trkpt>
      <trkpt lat="45.97784" lon="4.92653">
        <ele>296.700012207</ele>
        <time>2015-09-20T10:28:54.841Z</time>
      </trkpt>
      <trkpt lat="45.9778" lon="4.9266">
        <ele>296.700012207</ele>
        <time>2015-09-20T10:28:55.867Z</time>
      </trkpt>
      <trkpt lat="45.97774" lon="4.92666">
        <ele>296.700012207</ele>
        <time>2015-09-20T10:28:56.842Z</time>
      </trkpt>
      <trkpt lat="45.97769" lon="4.92672">
        <ele>296.5</ele>
        <time>2015-09-20T10:28:57.867Z</time>
      </trkpt>
      <trkpt lat="45.97764" lon="4.92679">
        <ele>296.399993896</ele>
        <time>2015-09-20T10:28:58.843Z</time>
      </trkpt>
      <trkpt lat="45.97759" lon="4.92685">
        <ele>296.299987793</ele>
        <time>2015-09-20T10:28:59.869Z</time>
      </trkpt>
      <trkpt lat="45.97753" lon="4.92691">
        <ele>296.299987793</ele>
        <time>2015-09-20T10:29:00.842Z</time>
      </trkpt>
      <trkpt lat="45.97748" lon="4.92697">
        <ele>296.5</ele>
        <time>2015-09-20T10:29:01.884Z</time>
      </trkpt>
      <trkpt lat="45.97743" lon="4.92703">
        <ele>296.600006104</ele>
        <time>2015-09-20T10:29:02.843Z</time>
      </trkpt>
      <trkpt lat="45.97739" lon="4.92709">
        <ele>296.600006104</ele>
        <time>2015-09-20T10:29:03.866Z</time>
      </trkpt>
      <trkpt lat="45.97734" lon="4.92715">
        <ele>296.600006104</ele>
        <time>2015-09-20T10:29:04.841Z</time>
      </trkpt>
      <trkpt lat="45.97729" lon="4.9272">
        <ele>296.5</ele>
        <time>2015-09-20T10:29:05.87Z</time>
      </trkpt>
      <trkpt lat="45.97724" lon="4.92726">
        <ele>296.600006104</ele>
        <time>2015-09-20T10:29:06.884Z</time>
      </trkpt>
      <trkpt lat="45.9772" lon="4.92732">
        <ele>296.600006104</ele>
        <time>2015-09-20T10:29:07.885Z</time>
      </trkpt>
      <trkpt lat="45.97715" lon="4.92737">
        <ele>296.600006104</ele>
        <time>2015-09-20T10:29:08.883Z</time>
      </trkpt>
      <trkpt lat="45.97711" lon="4.92743">
        <ele>296.700012207</ele>
        <time>2015-09-20T10:29:09.868Z</time>
      </trkpt>
      <trkpt lat="45.97706" lon="4.92749">
        <ele>296.799987793</ele>
        <time>2015-09-20T10:29:10.841Z</time>
      </trkpt>
      <trkpt lat="45.97702" lon="4.92754">
        <ele>296.799987793</ele>
        <time>2015-09-20T10:29:11.888Z</time>
      </trkpt>
      <trkpt lat="45.97697" lon="4.9276">
        <ele>296.700012207</ele>
        <time>2015-09-20T10:29:12.86Z</time>
      </trkpt>
      <trkpt lat="45.97692" lon="4.92765">
        <ele>296.700012207</ele>
        <time>2015-09-20T10:29:13.867Z</time>
      </trkpt>
      <trkpt lat="45.97687" lon="4.92771">
        <ele>296.600006104</ele>
        <time>2015-09-20T10:29:14.841Z</time>
      </trkpt>
      <trkpt lat="45.97682" lon="4.92777">
        <ele>296.700012207</ele>
        <time>2015-09-20T10:29:15.866Z</time>
      </trkpt>
      <trkpt lat="45.97677" lon="4.92784">
        <ele>296.799987793</ele>
        <time>2015-09-20T10:29:16.841Z</time>
      </trkpt>
      <trkpt lat="45.97672" lon="4.92791">
        <ele>296.799987793</ele>
        <time>2015-09-20T10:29:17.87Z</time>
      </trkpt>
      <trkpt lat="45.97666" lon="4.92797">
        <ele>296.899993896</ele>
        <time>2015-09-20T10:29:18.841Z</time>
      </trkpt>
      <trkpt lat="45.97661" lon="4.92804">
        <ele>296.799987793</ele>
        <time>2015-09-20T10:29:19.868Z</time>
      </trkpt>
      <trkpt lat="45.97655" lon="4.9281">
        <ele>297</ele>
        <time>2015-09-20T10:29:20.836Z</time>
      </trkpt>
      <trkpt lat="45.9765" lon="4.92817">
        <ele>297.299987793</ele>
        <time>2015-09-20T10:29:21.881Z</time>
      </trkpt>
      <trkpt lat="45.97645" lon="4.92823">
        <ele>297.899993896</ele>
        <time>2015-09-20T10:29:22.842Z</time>
      </trkpt>
      <trkpt lat="45.97639" lon="4.9283">
        <ele>298</ele>
        <time>2015-09-20T10:29:23.868Z</time>
      </trkpt>
      <trkpt lat="45.97634" lon="4.92836">
        <ele>298.700012207</ele>
        <time>2015-09-20T10:29:24.841Z</time>
      </trkpt>
      <trkpt lat="45.97629" lon="4.92843">
        <ele>298.600006104</ele>
        <time>2015-09-20T10:29:25.873Z</time>
      </trkpt>
      <trkpt lat="45.97624" lon="4.92849">
        <ele>298.799987793</ele>
        <time>2015-09-20T10:29:26.843Z</time>
      </trkpt>
      <trkpt lat="45.97619" lon="4.92855">
        <ele>299.100006104</ele>
        <time>2015-09-20T10:29:27.868Z</time>
      </trkpt>
      <trkpt lat="45.97614" lon="4.92861">
        <ele>299.5</ele>
        <time>2015-09-20T10:29:28.842Z</time>
      </trkpt>
      <trkpt lat="45.97608" lon="4.92867">
        <ele>299.799987793</ele>
        <time>2015-09-20T10:29:29.87Z</time>
      </trkpt>
      <trkpt lat="45.97603" lon="4.92873">
        <ele>300.399993896</ele>
        <time>2015-09-20T10:29:30.842Z</time>
      </trkpt>
      <trkpt lat="45.97598" lon="4.92879">
        <ele>300.200012207</ele>
        <time>2015-09-20T10:29:31.882Z</time>
      </trkpt>
      <trkpt lat="45.97592" lon="4.92886">
        <ele>300.700012207</ele>
        <time>2015-09-20T10:29:32.848Z</time>
      </trkpt>
      <trkpt lat="45.97587" lon="4.92892">
        <ele>300.799987793</ele>
        <time>2015-09-20T10:29:33.88Z</time>
      </trkpt>
      <trkpt lat="45.97582" lon="4.92899">
        <ele>301.100006104</ele>
        <time>2015-09-20T10:29:34.841Z</time>
      </trkpt>
      <trkpt lat="45.97576" lon="4.92906">
        <ele>301.100006104</ele>
        <time>2015-09-20T10:29:35.868Z</time>
      </trkpt>
      <trkpt lat="45.9757" lon="4.92912">
        <ele>300.799987793</ele>
        <time>2015-09-20T10:29:36.84Z</time>
      </trkpt>
      <trkpt lat="45.97565" lon="4.92919">
        <ele>300.899993896</ele>
        <time>2015-09-20T10:29:37.867Z</time>
      </trkpt>
      <trkpt lat="45.9756" lon="4.92925">
        <ele>300.399993896</ele>
        <time>2015-09-20T10:29:38.842Z</time>
      </trkpt>
      <trkpt lat="45.97555" lon="4.92931">
        <ele>300.299987793</ele>
        <time>2015-09-20T10:29:39.866Z</time>
      </trkpt>
      <trkpt lat="45.9755" lon="4.92937">
        <ele>300.100006104</ele>
        <time>2015-09-20T10:29:40.842Z</time>
      </trkpt>
      <trkpt lat="45.97545" lon="4.92944">
        <ele>300.100006104</ele>
        <time>2015-09-20T10:29:41.884Z</time>
      </trkpt>
      <trkpt lat="45.97539" lon="4.9295">
        <ele>300.100006104</ele>
        <time>2015-09-20T10:29:42.842Z</time>
      </trkpt>
      <trkpt lat="45.97534" lon="4.92957">
        <ele>300.100006104</ele>
        <time>2015-09-20T10:29:43.867Z</time>
      </trkpt>
      <trkpt lat="45.97528" lon="4.92963">
        <ele>300</ele>
        <time>2015-09-20T10:29:44.841Z</time>
      </trkpt>
      <trkpt lat="45.97523" lon="4.9297">
        <ele>299.700012207</ele>
        <time>2015-09-20T10:29:45.867Z</time>
      </trkpt>
      <trkpt lat="45.97518" lon="4.92976">
        <ele>299.899993896</ele>
        <time>2015-09-20T10:29:46.841Z</time>
      </trkpt>
      <trkpt lat="45.97513" lon="4.92983">
        <ele>299.700012207</ele>
        <time>2015-09-20T10:29:47.869Z</time>
      </trkpt>
      <trkpt lat="45.97508" lon="4.9299">
        <ele>299.799987793</ele>
        <time>2015-09-20T10:29:48.848Z</time>
      </trkpt>
      <trkpt lat="45.97502" lon="4.92997">
        <ele>300</ele>
        <time>2015-09-20T10:29:49.885Z</time>
      </trkpt>
      <trkpt lat="45.97497" lon="4.93004">
        <ele>299.899993896</ele>
        <time>2015-09-20T10:29:50.841Z</time>
      </trkpt>
      <trkpt lat="45.97492" lon="4.9301">
        <ele>299.700012207</ele>
        <time>2015-09-20T10:29:51.882Z</time>
      </trkpt>
      <trkpt lat="45.97487" lon="4.93016">
        <ele>299.600006104</ele>
        <time>2015-09-20T10:29:52.841Z</time>
      </trkpt>
      <trkpt lat="45.97482" lon="4.93022">
        <ele>299.600006104</ele>
        <time>2015-09-20T10:29:53.868Z</time>
      </trkpt>
      <trkpt lat="45.97477" lon="4.93028">
        <ele>299.399993896</ele>
        <time>2015-09-20T10:29:54.842Z</time>
      </trkpt>
      <trkpt lat="45.97472" lon="4.93034">
        <ele>299.200012207</ele>
        <time>2015-09-20T10:29:55.866Z</time>
      </trkpt>
      <trkpt lat="45.97467" lon="4.9304">
        <ele>299.399993896</ele>
        <time>2015-09-20T10:29:56.841Z</time>
      </trkpt>
      <trkpt lat="45.97463" lon="4.93045">
        <ele>299.5</ele>
        <time>2015-09-20T10:29:57.866Z</time>
      </trkpt>
      <trkpt lat="45.97458" lon="4.93051">
        <ele>299.100006104</ele>
        <time>2015-09-20T10:29:58.841Z</time>
      </trkpt>
      <trkpt lat="45.97454" lon="4.93057">
        <ele>299</ele>
        <time>2015-09-20T10:29:59.869Z</time>
      </trkpt>
      <trkpt lat="45.97449" lon="4.93062">
        <ele>298.799987793</ele>
        <time>2015-09-20T10:30:00.842Z</time>
      </trkpt>
      <trkpt lat="45.97444" lon="4.93068">
        <ele>298.600006104</ele>
        <time>2015-09-20T10:30:01.883Z</time>
      </trkpt>
      <trkpt lat="45.9744" lon="4.93074">
        <ele>298.700012207</ele>
        <time>2015-09-20T10:30:02.842Z</time>
      </trkpt>
      <trkpt lat="45.97435" lon="4.9308">
        <ele>298.799987793</ele>
        <time>2015-09-20T10:30:03.866Z</time>
      </trkpt>
      <trkpt lat="45.9743" lon="4.93086">
        <ele>299</ele>
        <time>2015-09-20T10:30:04.841Z</time>
      </trkpt>
      <trkpt lat="45.97426" lon="4.93092">
        <ele>299</ele>
        <time>2015-09-20T10:30:05.868Z</time>
      </trkpt>
      <trkpt lat="45.97421" lon="4.93098">
        <ele>298.799987793</ele>
        <time>2015-09-20T10:30:06.841Z</time>
      </trkpt>
      <trkpt lat="45.97416" lon="4.93104">
        <ele>298.600006104</ele>
        <time>2015-09-20T10:30:07.871Z</time>
      </trkpt>
      <trkpt lat="45.97412" lon="4.93111">
        <ele>298.5</ele>
        <time>2015-09-20T10:30:08.841Z</time>
      </trkpt>
      <trkpt lat="45.97407" lon="4.93117">
        <ele>298.299987793</ele>
        <time>2015-09-20T10:30:09.866Z</time>
      </trkpt>
      <trkpt lat="45.97401" lon="4.93123">
        <ele>298.399993896</ele>
        <time>2015-09-20T10:30:10.858Z</time>
      </trkpt>
      <trkpt lat="45.97397" lon="4.93129">
        <ele>298.299987793</ele>
        <time>2015-09-20T10:30:11.882Z</time>
      </trkpt>
      <trkpt lat="45.97393" lon="4.93135">
        <ele>298.399993896</ele>
        <time>2015-09-20T10:30:12.841Z</time>
      </trkpt>
      <trkpt lat="45.97388" lon="4.9314">
        <ele>298.600006104</ele>
        <time>2015-09-20T10:30:13.897Z</time>
      </trkpt>
      <trkpt lat="45.97384" lon="4.93146">
        <ele>298.799987793</ele>
        <time>2015-09-20T10:30:14.846Z</time>
      </trkpt>
      <trkpt lat="45.9738" lon="4.93151">
        <ele>298.799987793</ele>
        <time>2015-09-20T10:30:15.884Z</time>
      </trkpt>
      <trkpt lat="45.97376" lon="4.93157">
        <ele>299</ele>
        <time>2015-09-20T10:30:16.842Z</time>
      </trkpt>
      <trkpt lat="45.97371" lon="4.93162">
        <ele>299.200012207</ele>
        <time>2015-09-20T10:30:17.869Z</time>
      </trkpt>
      <trkpt lat="45.97367" lon="4.93168">
        <ele>299.200012207</ele>
        <time>2015-09-20T10:30:18.841Z</time>
      </trkpt>
      <trkpt lat="45.97361" lon="4.93173">
        <ele>299.299987793</ele>
        <time>2015-09-20T10:30:19.868Z</time>
      </trkpt>
      <trkpt lat="45.97356" lon="4.93178">
        <ele>299.600006104</ele>
        <time>2015-09-20T10:30:20.841Z</time>
      </trkpt>
      <trkpt lat="45.97352" lon="4.93184">
        <ele>299.899993896</ele>
        <time>2015-09-20T10:30:21.905Z</time>
      </trkpt>
      <trkpt lat="45.97347" lon="4.9319">
        <ele>300.200012207</ele>
        <time>2015-09-20T10:30:22.841Z</time>
      </trkpt>
      <trkpt lat="45.97342" lon="4.93196">
        <ele>300.399993896</ele>
        <time>2015-09-20T10:30:23.869Z</time>
      </trkpt>
      <trkpt lat="45.97337" lon="4.93203">
        <ele>300.399993896</ele>
        <time>2015-09-20T10:30:24.841Z</time>
      </trkpt>
      <trkpt lat="45.97332" lon="4.93209">
        <ele>300.399993896</ele>
        <time>2015-09-20T10:30:25.866Z</time>
      </trkpt>
      <trkpt lat="45.97327" lon="4.93216">
        <ele>300.299987793</ele>
        <time>2015-09-20T10:30:26.842Z</time>
      </trkpt>
      <trkpt lat="45.97322" lon="4.93222">
        <ele>300.399993896</ele>
        <time>2015-09-20T10:30:27.866Z</time>
      </trkpt>
      <trkpt lat="45.97317" lon="4.93228">
        <ele>300.399993896</ele>
        <time>2015-09-20T10:30:28.842Z</time>
      </trkpt>
      <trkpt lat="45.97312" lon="4.93234">
        <ele>300.700012207</ele>
        <time>2015-09-20T10:30:29.868Z</time>
      </trkpt>
      <trkpt lat="45.97307" lon="4.9324">
        <ele>300.799987793</ele>
        <time>2015-09-20T10:30:30.841Z</time>
      </trkpt>
      <trkpt lat="45.97303" lon="4.93246">
        <ele>300.899993896</ele>
        <time>2015-09-20T10:30:31.9Z</time>
      </trkpt>
      <trkpt lat="45.97299" lon="4.93251">
        <ele>300.899993896</ele>
        <time>2015-09-20T10:30:32.841Z</time>
      </trkpt>
      <trkpt lat="45.97294" lon="4.93256">
        <ele>301</ele>
        <time>2015-09-20T10:30:33.866Z</time>
      </trkpt>
      <trkpt lat="45.9729" lon="4.93262">
        <ele>300.899993896</ele>
        <time>2015-09-20T10:30:34.84Z</time>
      </trkpt>
      <trkpt lat="45.97285" lon="4.93268">
        <ele>300.899993896</ele>
        <time>2015-09-20T10:30:35.906Z</time>
      </trkpt>
      <trkpt lat="45.9728" lon="4.93273">
        <ele>300.899993896</ele>
        <time>2015-09-20T10:30:36.84Z</time>
      </trkpt>
      <trkpt lat="45.97275" lon="4.93279">
        <ele>300.5</ele>
        <time>2015-09-20T10:30:37.867Z</time>
      </trkpt>
      <trkpt lat="45.9727" lon="4.93284">
        <ele>300.299987793</ele>
        <time>2015-09-20T10:30:38.846Z</time>
      </trkpt>
      <trkpt lat="45.97265" lon="4.9329">
        <ele>300.5</ele>
        <time>2015-09-20T10:30:39.866Z</time>
      </trkpt>
      <trkpt lat="45.97261" lon="4.93296">
        <ele>300.299987793</ele>
        <time>2015-09-20T10:30:40.844Z</time>
      </trkpt>
      <trkpt lat="45.97256" lon="4.93302">
        <ele>299.899993896</ele>
        <time>2015-09-20T10:30:41.887Z</time>
      </trkpt>
      <trkpt lat="45.97251" lon="4.93308">
        <ele>300.200012207</ele>
        <time>2015-09-20T10:30:42.842Z</time>
      </trkpt>
      <trkpt lat="45.97246" lon="4.93313">
        <ele>300.100006104</ele>
        <time>2015-09-20T10:30:43.867Z</time>
      </trkpt>
      <trkpt lat="45.9724" lon="4.93318">
        <ele>300.100006104</ele>
        <time>2015-09-20T10:30:44.841Z</time>
      </trkpt>
      <trkpt lat="45.97236" lon="4.93324">
        <ele>299.899993896</ele>
        <time>2015-09-20T10:30:45.866Z</time>
      </trkpt>
      <trkpt lat="45.97232" lon="4.9333">
        <ele>299.899993896</ele>
        <time>2015-09-20T10:30:46.84Z</time>
      </trkpt>
      <trkpt lat="45.97228" lon="4.93335">
        <ele>299.799987793</ele>
        <time>2015-09-20T10:30:47.883Z</time>
      </trkpt>
      <trkpt lat="45.97224" lon="4.9334">
        <ele>300</ele>
        <time>2015-09-20T10:30:48.841Z</time>
      </trkpt>
      <trkpt lat="45.9722" lon="4.93344">
        <ele>299.899993896</ele>
        <time>2015-09-20T10:30:49.866Z</time>
      </trkpt>
      <trkpt lat="45.97216" lon="4.9335">
        <ele>299.700012207</ele>
        <time>2015-09-20T10:30:50.843Z</time>
      </trkpt>
      <trkpt lat="45.97212" lon="4.93354">
        <ele>299.899993896</ele>
        <time>2015-09-20T10:30:51.886Z</time>
      </trkpt>
      <trkpt lat="45.97208" lon="4.93359">
        <ele>300.299987793</ele>
        <time>2015-09-20T10:30:52.841Z</time>
      </trkpt>
      <trkpt lat="45.97204" lon="4.93364">
        <ele>300.700012207</ele>
        <time>2015-09-20T10:30:53.868Z</time>
      </trkpt>
      <trkpt lat="45.97199" lon="4.93369">
        <ele>300.700012207</ele>
        <time>2015-09-20T10:30:54.84Z</time>
      </trkpt>
      <trkpt lat="45.97194" lon="4.93373">
        <ele>300.899993896</ele>
        <time>2015-09-20T10:30:55.866Z</time>
      </trkpt>
      <trkpt lat="45.9719" lon="4.93378">
        <ele>301.399993896</ele>
        <time>2015-09-20T10:30:56.841Z</time>
      </trkpt>
      <trkpt lat="45.97186" lon="4.93383">
        <ele>301.700012207</ele>
        <time>2015-09-20T10:30:57.866Z</time>
      </trkpt>
      <trkpt lat="45.97182" lon="4.93389">
        <ele>301.799987793</ele>
        <time>2015-09-20T10:30:58.841Z</time>
      </trkpt>
      <trkpt lat="45.97177" lon="4.93395">
        <ele>301.799987793</ele>
        <time>2015-09-20T10:30:59.867Z</time>
      </trkpt>
      <trkpt lat="45.97173" lon="4.934">
        <ele>301.899993896</ele>
        <time>2015-09-20T10:31:00.841Z</time>
      </trkpt>
      <trkpt lat="45.97168" lon="4.93406">
        <ele>301.899993896</ele>
        <time>2015-09-20T10:31:01.873Z</time>
      </trkpt>
      <trkpt lat="45.97164" lon="4.93411">
        <ele>302</ele>
        <time>2015-09-20T10:31:02.876Z</time>
      </trkpt>
      <trkpt lat="45.9716" lon="4.93417">
        <ele>302</ele>
        <time>2015-09-20T10:31:03.879Z</time>
      </trkpt>
      <trkpt lat="45.97155" lon="4.93422">
        <ele>302</ele>
        <time>2015-09-20T10:31:04.842Z</time>
      </trkpt>
      <trkpt lat="45.97151" lon="4.93428">
        <ele>302</ele>
        <time>2015-09-20T10:31:05.868Z</time>
      </trkpt>
      <trkpt lat="45.97146" lon="4.93434">
        <ele>302.100006104</ele>
        <time>2015-09-20T10:31:06.841Z</time>
      </trkpt>
      <trkpt lat="45.97141" lon="4.9344">
        <ele>302.200012207</ele>
        <time>2015-09-20T10:31:07.87Z</time>
      </trkpt>
      <trkpt lat="45.97136" lon="4.93446">
        <ele>302.399993896</ele>
        <time>2015-09-20T10:31:08.842Z</time>
      </trkpt>
      <trkpt lat="45.97131" lon="4.93452">
        <ele>302.5</ele>
        <time>2015-09-20T10:31:09.866Z</time>
      </trkpt>
      <trkpt lat="45.97126" lon="4.93458">
        <ele>302.700012207</ele>
        <time>2015-09-20T10:31:10.841Z</time>
      </trkpt>
      <trkpt lat="45.9712" lon="4.93463">
        <ele>302.899993896</ele>
        <time>2015-09-20T10:31:11.885Z</time>
      </trkpt>
      <trkpt lat="45.97115" lon="4.93469">
        <ele>302.799987793</ele>
        <time>2015-09-20T10:31:12.841Z</time>
      </trkpt>
      <trkpt lat="45.9711" lon="4.93475">
        <ele>303.100006104</ele>
        <time>2015-09-20T10:31:13.868Z</time>
      </trkpt>
      <trkpt lat="45.97105" lon="4.9348">
        <ele>303.100006104</ele>
        <time>2015-09-20T10:31:14.842Z</time>
      </trkpt>
      <trkpt lat="45.971" lon="4.93486">
        <ele>303.200012207</ele>
        <time>2015-09-20T10:31:15.865Z</time>
      </trkpt>
      <trkpt lat="45.97095" lon="4.93493">
        <ele>303.299987793</ele>
        <time>2015-09-20T10:31:16.843Z</time>
      </trkpt>
      <trkpt lat="45.9709" lon="4.93499">
        <ele>303.399993896</ele>
        <time>2015-09-20T10:31:17.87Z</time>
      </trkpt>
      <trkpt lat="45.97086" lon="4.93504">
        <ele>303.5</ele>
        <time>2015-09-20T10:31:18.846Z</time>
      </trkpt>
      <trkpt lat="45.97081" lon="4.9351">
        <ele>303.5</ele>
        <time>2015-09-20T10:31:19.881Z</time>
      </trkpt>
      <trkpt lat="45.97076" lon="4.93515">
        <ele>303.700012207</ele>
        <time>2015-09-20T10:31:20.84Z</time>
      </trkpt>
      <trkpt lat="45.97071" lon="4.93521">
        <ele>304.100006104</ele>
        <time>2015-09-20T10:31:21.881Z</time>
      </trkpt>
      <trkpt lat="45.97066" lon="4.93528">
        <ele>304.399993896</ele>
        <time>2015-09-20T10:31:22.841Z</time>
      </trkpt>
      <trkpt lat="45.97061" lon="4.93534">
        <ele>304.600006104</ele>
        <time>2015-09-20T10:31:23.868Z</time>
      </trkpt>
      <trkpt lat="45.97056" lon="4.93541">
        <ele>304.5</ele>
        <time>2015-09-20T10:31:24.841Z</time>
      </trkpt>
      <trkpt lat="45.97051" lon="4.93547">
        <ele>304.600006104</ele>
        <time>2015-09-20T10:31:25.867Z</time>
      </trkpt>
      <trkpt lat="45.97047" lon="4.93553">
        <ele>304.5</ele>
        <time>2015-09-20T10:31:26.841Z</time>
      </trkpt>
      <trkpt lat="45.97042" lon="4.93559">
        <ele>304.399993896</ele>
        <time>2015-09-20T10:31:27.867Z</time>
      </trkpt>
      <trkpt lat="45.97036" lon="4.93566">
        <ele>304.600006104</ele>
        <time>2015-09-20T10:31:28.84Z</time>
      </trkpt>
      <trkpt lat="45.97031" lon="4.93572">
        <ele>304.899993896</ele>
        <time>2015-09-20T10:31:29.868Z</time>
      </trkpt>
      <trkpt lat="45.97026" lon="4.93578">
        <ele>305.200012207</ele>
        <time>2015-09-20T10:31:30.841Z</time>
      </trkpt>
      <trkpt lat="45.9702" lon="4.93584">
        <ele>305.100006104</ele>
        <time>2015-09-20T10:31:31.881Z</time>
      </trkpt>
      <trkpt lat="45.97015" lon="4.93591">
        <ele>305.200012207</ele>
        <time>2015-09-20T10:31:32.843Z</time>
      </trkpt>
      <trkpt lat="45.97009" lon="4.93598">
        <ele>305.100006104</ele>
        <time>2015-09-20T10:31:33.866Z</time>
      </trkpt>
      <trkpt lat="45.97004" lon="4.93605">
        <ele>305</ele>
        <time>2015-09-20T10:31:34.842Z</time>
      </trkpt>
      <trkpt lat="45.96999" lon="4.93611">
        <ele>304.899993896</ele>
        <time>2015-09-20T10:31:35.88Z</time>
      </trkpt>
      <trkpt lat="45.96994" lon="4.93618">
        <ele>305</ele>
        <time>2015-09-20T10:31:36.84Z</time>
      </trkpt>
      <trkpt lat="45.96989" lon="4.93624">
        <ele>304.799987793</ele>
        <time>2015-09-20T10:31:37.867Z</time>
      </trkpt>
      <trkpt lat="45.96983" lon="4.9363">
        <ele>304.799987793</ele>
        <time>2015-09-20T10:31:38.841Z</time>
      </trkpt>
      <trkpt lat="45.96978" lon="4.93636">
        <ele>304.799987793</ele>
        <time>2015-09-20T10:31:39.866Z</time>
      </trkpt>
      <trkpt lat="45.96973" lon="4.93643">
        <ele>304.299987793</ele>
        <time>2015-09-20T10:31:40.841Z</time>
      </trkpt>
      <trkpt lat="45.96968" lon="4.93648">
        <ele>304.100006104</ele>
        <time>2015-09-20T10:31:41.871Z</time>
      </trkpt>
      <trkpt lat="45.96963" lon="4.93655">
        <ele>304.100006104</ele>
        <time>2015-09-20T10:31:42.843Z</time>
      </trkpt>
      <trkpt lat="45.96957" lon="4.93661">
        <ele>303.899993896</ele>
        <time>2015-09-20T10:31:43.905Z</time>
      </trkpt>
      <trkpt lat="45.96952" lon="4.93667">
        <ele>303.5</ele>
        <time>2015-09-20T10:31:44.84Z</time>
      </trkpt>
      <trkpt lat="45.96947" lon="4.93674">
        <ele>303.299987793</ele>
        <time>2015-09-20T10:31:45.866Z</time>
      </trkpt>
      <trkpt lat="45.96942" lon="4.9368">
        <ele>302.899993896</ele>
        <time>2015-09-20T10:31:46.84Z</time>
      </trkpt>
      <trkpt lat="45.96936" lon="4.93687">
        <ele>302.399993896</ele>
        <time>2015-09-20T10:31:47.866Z</time>
      </trkpt>
      <trkpt lat="45.96929" lon="4.93693">
        <ele>302.200012207</ele>
        <time>2015-09-20T10:31:48.84Z</time>
      </trkpt>
      <trkpt lat="45.96924" lon="4.93699">
        <ele>302</ele>
        <time>2015-09-20T10:31:49.866Z</time>
      </trkpt>
      <trkpt lat="45.96919" lon="4.93705">
        <ele>301.399993896</ele>
        <time>2015-09-20T10:31:50.84Z</time>
      </trkpt>
      <trkpt lat="45.96913" lon="4.9371">
        <ele>301.399993896</ele>
        <time>2015-09-20T10:31:51.895Z</time>
      </trkpt>
      <trkpt lat="45.96906" lon="4.93716">
        <ele>301.299987793</ele>
        <time>2015-09-20T10:31:52.84Z</time>
      </trkpt>
      <trkpt lat="45.969" lon="4.93721">
        <ele>301.100006104</ele>
        <time>2015-09-20T10:31:53.867Z</time>
      </trkpt>
      <trkpt lat="45.96893" lon="4.93725">
        <ele>300.899993896</ele>
        <time>2015-09-20T10:31:54.841Z</time>
      </trkpt>
      <trkpt lat="45.96887" lon="4.9373">
        <ele>300.5</ele>
        <time>2015-09-20T10:31:55.865Z</time>
      </trkpt>
      <trkpt lat="45.9688" lon="4.93734">
        <ele>300.299987793</ele>
        <time>2015-09-20T10:31:56.84Z</time>
      </trkpt>
      <trkpt lat="45.96872" lon="4.93737">
        <ele>299.600006104</ele>
        <time>2015-09-20T10:31:57.864Z</time>
      </trkpt>
      <trkpt lat="45.96866" lon="4.9374">
        <ele>299.200012207</ele>
        <time>2015-09-20T10:31:58.84Z</time>
      </trkpt>
      <trkpt lat="45.96858" lon="4.93743">
        <ele>298.899993896</ele>
        <time>2015-09-20T10:31:59.867Z</time>
      </trkpt>
      <trkpt lat="45.96851" lon="4.93745">
        <ele>298.299987793</ele>
        <time>2015-09-20T10:32:00.864Z</time>
      </trkpt>
      <trkpt lat="45.96844" lon="4.93748">
        <ele>297.899993896</ele>
        <time>2015-09-20T10:32:01.869Z</time>
      </trkpt>
      <trkpt lat="45.96836" lon="4.93751">
        <ele>298</ele>
        <time>2015-09-20T10:32:02.841Z</time>
      </trkpt>
      <trkpt lat="45.96829" lon="4.93754">
        <ele>297.799987793</ele>
        <time>2015-09-20T10:32:03.899Z</time>
      </trkpt>
      <trkpt lat="45.96821" lon="4.93756">
        <ele>297.700012207</ele>
        <time>2015-09-20T10:32:04.841Z</time>
      </trkpt>
      <trkpt lat="45.96814" lon="4.93759">
        <ele>297.700012207</ele>
        <time>2015-09-20T10:32:05.872Z</time>
      </trkpt>
      <trkpt lat="45.96807" lon="4.93761">
        <ele>297.899993896</ele>
        <time>2015-09-20T10:32:06.84Z</time>
      </trkpt>
      <trkpt lat="45.968" lon="4.93764">
        <ele>298</ele>
        <time>2015-09-20T10:32:07.882Z</time>
      </trkpt>
      <trkpt lat="45.96793" lon="4.93766">
        <ele>297.899993896</ele>
        <time>2015-09-20T10:32:08.843Z</time>
      </trkpt>
      <trkpt lat="45.96785" lon="4.93769">
        <ele>297.700012207</ele>
        <time>2015-09-20T10:32:09.868Z</time>
      </trkpt>
      <trkpt lat="45.96778" lon="4.93771">
        <ele>297.600006104</ele>
        <time>2015-09-20T10:32:10.84Z</time>
      </trkpt>
      <trkpt lat="45.96771" lon="4.93774">
        <ele>297.299987793</ele>
        <time>2015-09-20T10:32:11.87Z</time>
      </trkpt>
      <trkpt lat="45.96764" lon="4.93776">
        <ele>297.100006104</ele>
        <time>2015-09-20T10:32:12.841Z</time>
      </trkpt>
      <trkpt lat="45.96757" lon="4.93779">
        <ele>296.600006104</ele>
        <time>2015-09-20T10:32:13.867Z</time>
      </trkpt>
      <trkpt lat="45.9675" lon="4.93781">
        <ele>296.5</ele>
        <time>2015-09-20T10:32:14.84Z</time>
      </trkpt>
      <trkpt lat="45.96743" lon="4.93784">
        <ele>296.200012207</ele>
        <time>2015-09-20T10:32:15.878Z</time>
      </trkpt>
      <trkpt lat="45.96736" lon="4.93786">
        <ele>296</ele>
        <time>2015-09-20T10:32:16.84Z</time>
      </trkpt>
      <trkpt lat="45.96729" lon="4.93788">
        <ele>296</ele>
        <time>2015-09-20T10:32:17.867Z</time>
      </trkpt>
      <trkpt lat="45.96722" lon="4.9379">
        <ele>295.799987793</ele>
        <time>2015-09-20T10:32:18.84Z</time>
      </trkpt>
      <trkpt lat="45.96716" lon="4.93792">
        <ele>295.899993896</ele>
        <time>2015-09-20T10:32:19.894Z</time>
      </trkpt>
      <trkpt lat="45.9671" lon="4.93794">
        <ele>295.799987793</ele>
        <time>2015-09-20T10:32:20.84Z</time>
      </trkpt>
      <trkpt lat="45.96704" lon="4.93796">
        <ele>296</ele>
        <time>2015-09-20T10:32:21.868Z</time>
      </trkpt>
      <trkpt lat="45.96698" lon="4.93799">
        <ele>296.200012207</ele>
        <time>2015-09-20T10:32:22.84Z</time>
      </trkpt>
      <trkpt lat="45.96692" lon="4.93801">
        <ele>296.100006104</ele>
        <time>2015-09-20T10:32:23.88Z</time>
      </trkpt>
      <trkpt lat="45.96686" lon="4.93801">
        <ele>296.399993896</ele>
        <time>2015-09-20T10:32:24.84Z</time>
      </trkpt>
      <trkpt lat="45.96681" lon="4.938">
        <ele>296.5</ele>
        <time>2015-09-20T10:32:25.866Z</time>
      </trkpt>
      <trkpt lat="45.96676" lon="4.93797">
        <ele>296.700012207</ele>
        <time>2015-09-20T10:32:26.84Z</time>
      </trkpt>
      <trkpt lat="45.96673" lon="4.93791">
        <ele>296.700012207</ele>
        <time>2015-09-20T10:32:27.865Z</time>
      </trkpt>
      <trkpt lat="45.96669" lon="4.93785">
        <ele>297.100006104</ele>
        <time>2015-09-20T10:32:28.84Z</time>
      </trkpt>
      <trkpt lat="45.96666" lon="4.93779">
        <ele>297.200012207</ele>
        <time>2015-09-20T10:32:29.866Z</time>
      </trkpt>
      <trkpt lat="45.96662" lon="4.93774">
        <ele>297.299987793</ele>
        <time>2015-09-20T10:32:30.84Z</time>
      </trkpt>
      <trkpt lat="45.96658" lon="4.93769">
        <ele>297.200012207</ele>
        <time>2015-09-20T10:32:31.869Z</time>
      </trkpt>
      <trkpt lat="45.96655" lon="4.93763">
        <ele>297.299987793</ele>
        <time>2015-09-20T10:32:32.84Z</time>
      </trkpt>
      <trkpt lat="45.96651" lon="4.93757">
        <ele>297.299987793</ele>
        <time>2015-09-20T10:32:33.864Z</time>
      </trkpt>
      <trkpt lat="45.96647" lon="4.93752">
        <ele>297.5</ele>
        <time>2015-09-20T10:32:34.843Z</time>
      </trkpt>
      <trkpt lat="45.96643" lon="4.93747">
        <ele>297.600006104</ele>
        <time>2015-09-20T10:32:35.87Z</time>
      </trkpt>
      <trkpt lat="45.96638" lon="4.93743">
        <ele>297.600006104</ele>
        <time>2015-09-20T10:32:36.841Z</time>
      </trkpt>
      <trkpt lat="45.96633" lon="4.93739">
        <ele>297.600006104</ele>
        <time>2015-09-20T10:32:37.865Z</time>
      </trkpt>
      <trkpt lat="45.96628" lon="4.93735">
        <ele>297.799987793</ele>
        <time>2015-09-20T10:32:38.841Z</time>
      </trkpt>
      <trkpt lat="45.96624" lon="4.9373">
        <ele>298.299987793</ele>
        <time>2015-09-20T10:32:39.879Z</time>
      </trkpt>
      <trkpt lat="45.96619" lon="4.93725">
        <ele>298.600006104</ele>
        <time>2015-09-20T10:32:40.84Z</time>
      </trkpt>
      <trkpt lat="45.96614" lon="4.9372">
        <ele>298.700012207</ele>
        <time>2015-09-20T10:32:41.923Z</time>
      </trkpt>
      <trkpt lat="45.96608" lon="4.93715">
        <ele>298.899993896</ele>
        <time>2015-09-20T10:32:42.84Z</time>
      </trkpt>
      <trkpt lat="45.96603" lon="4.93709">
        <ele>299</ele>
        <time>2015-09-20T10:32:43.866Z</time>
      </trkpt>
      <trkpt lat="45.96598" lon="4.93704">
        <ele>298.299987793</ele>
        <time>2015-09-20T10:32:44.835Z</time>
      </trkpt>
      <trkpt lat="45.96593" lon="4.93698">
        <ele>298.200012207</ele>
        <time>2015-09-20T10:32:45.865Z</time>
      </trkpt>
      <trkpt lat="45.96589" lon="4.93693">
        <ele>298</ele>
        <time>2015-09-20T10:32:46.84Z</time>
      </trkpt>
      <trkpt lat="45.96585" lon="4.93687">
        <ele>298</ele>
        <time>2015-09-20T10:32:47.866Z</time>
      </trkpt>
      <trkpt lat="45.96581" lon="4.93682">
        <ele>298</ele>
        <time>2015-09-20T10:32:48.84Z</time>
      </trkpt>
      <trkpt lat="45.96577" lon="4.93676">
        <ele>297.799987793</ele>
        <time>2015-09-20T10:32:49.865Z</time>
      </trkpt>
      <trkpt lat="45.96573" lon="4.9367">
        <ele>297.799987793</ele>
        <time>2015-09-20T10:32:50.84Z</time>
      </trkpt>
      <trkpt lat="45.96569" lon="4.93664">
        <ele>297.899993896</ele>
        <time>2015-09-20T10:32:51.868Z</time>
      </trkpt>
      <trkpt lat="45.96564" lon="4.93658">
        <ele>298</ele>
        <time>2015-09-20T10:32:52.839Z</time>
      </trkpt>
      <trkpt lat="45.96561" lon="4.93652">
        <ele>298.200012207</ele>
        <time>2015-09-20T10:32:53.868Z</time>
      </trkpt>
      <trkpt lat="45.96556" lon="4.93646">
        <ele>298.100006104</ele>
        <time>2015-09-20T10:32:54.84Z</time>
      </trkpt>
      <trkpt lat="45.96551" lon="4.9364">
        <ele>298.399993896</ele>
        <time>2015-09-20T10:32:55.88Z</time>
      </trkpt>
      <trkpt lat="45.96547" lon="4.93634">
        <ele>298.5</ele>
        <time>2015-09-20T10:32:56.84Z</time>
      </trkpt>
      <trkpt lat="45.96542" lon="4.93627">
        <ele>298.399993896</ele>
        <time>2015-09-20T10:32:57.865Z</time>
      </trkpt>
      <trkpt lat="45.96537" lon="4.93621">
        <ele>298.200012207</ele>
        <time>2015-09-20T10:32:58.841Z</time>
      </trkpt>
      <trkpt lat="45.96533" lon="4.93615">
        <ele>298.200012207</ele>
        <time>2015-09-20T10:32:59.866Z</time>
      </trkpt>
      <trkpt lat="45.96528" lon="4.93609">
        <ele>298.200012207</ele>
        <time>2015-09-20T10:33:00.842Z</time>
      </trkpt>
      <trkpt lat="45.96524" lon="4.93603">
        <ele>298.200012207</ele>
        <time>2015-09-20T10:33:01.872Z</time>
      </trkpt>
      <trkpt lat="45.9652" lon="4.93597">
        <ele>298.299987793</ele>
        <time>2015-09-20T10:33:02.84Z</time>
      </trkpt>
      <trkpt lat="45.96516" lon="4.93591">
        <ele>298.399993896</ele>
        <time>2015-09-20T10:33:03.924Z</time>
      </trkpt>
      <trkpt lat="45.96511" lon="4.93584">
        <ele>297.899993896</ele>
        <time>2015-09-20T10:33:04.84Z</time>
      </trkpt>
      <trkpt lat="45.96506" lon="4.93577">
        <ele>297.700012207</ele>
        <time>2015-09-20T10:33:05.867Z</time>
      </trkpt>
      <trkpt lat="45.96502" lon="4.93571">
        <ele>297.100006104</ele>
        <time>2015-09-20T10:33:06.84Z</time>
      </trkpt>
      <trkpt lat="45.96497" lon="4.93564">
        <ele>297</ele>
        <time>2015-09-20T10:33:07.868Z</time>
      </trkpt>
      <trkpt lat="45.96492" lon="4.93557">
        <ele>296.600006104</ele>
        <time>2015-09-20T10:33:08.84Z</time>
      </trkpt>
      <trkpt lat="45.96488" lon="4.9355">
        <ele>296.600006104</ele>
        <time>2015-09-20T10:33:09.864Z</time>
      </trkpt>
      <trkpt lat="45.96483" lon="4.93543">
        <ele>296.600006104</ele>
        <time>2015-09-20T10:33:10.84Z</time>
      </trkpt>
      <trkpt lat="45.96478" lon="4.93536">
        <ele>296.5</ele>
        <time>2015-09-20T10:33:11.892Z</time>
      </trkpt>
      <trkpt lat="45.96474" lon="4.93529">
        <ele>296.5</ele>
        <time>2015-09-20T10:33:12.84Z</time>
      </trkpt>
      <trkpt lat="45.96469" lon="4.93523">
        <ele>296.399993896</ele>
        <time>2015-09-20T10:33:13.866Z</time>
      </trkpt>
      <trkpt lat="45.96464" lon="4.93516">
        <ele>296.399993896</ele>
        <time>2015-09-20T10:33:14.84Z</time>
      </trkpt>
      <trkpt lat="45.96459" lon="4.93509">
        <ele>296.399993896</ele>
        <time>2015-09-20T10:33:15.873Z</time>
      </trkpt>
      <trkpt lat="45.96455" lon="4.93502">
        <ele>296.5</ele>
        <time>2015-09-20T10:33:16.841Z</time>
      </trkpt>
      <trkpt lat="45.9645" lon="4.93496">
        <ele>296.299987793</ele>
        <time>2015-09-20T10:33:17.867Z</time>
      </trkpt>
      <trkpt lat="45.96446" lon="4.9349">
        <ele>296.299987793</ele>
        <time>2015-09-20T10:33:18.84Z</time>
      </trkpt>
      <trkpt lat="45.96441" lon="4.93483">
        <ele>296.600006104</ele>
        <time>2015-09-20T10:33:19.865Z</time>
      </trkpt>
      <trkpt lat="45.96436" lon="4.93476">
        <ele>296.700012207</ele>
        <time>2015-09-20T10:33:20.84Z</time>
      </trkpt>
      <trkpt lat="45.96432" lon="4.9347">
        <ele>296.5</ele>
        <time>2015-09-20T10:33:21.867Z</time>
      </trkpt>
      <trkpt lat="45.96427" lon="4.93463">
        <ele>296.600006104</ele>
        <time>2015-09-20T10:33:22.84Z</time>
      </trkpt>
      <trkpt lat="45.96421" lon="4.93456">
        <ele>297</ele>
        <time>2015-09-20T10:33:23.867Z</time>
      </trkpt>
      <trkpt lat="45.96416" lon="4.93451">
        <ele>297.399993896</ele>
        <time>2015-09-20T10:33:24.84Z</time>
      </trkpt>
      <trkpt lat="45.96411" lon="4.93446">
        <ele>297.5</ele>
        <time>2015-09-20T10:33:25.945Z</time>
      </trkpt>
      <trkpt lat="45.96405" lon="4.93441">
        <ele>297.600006104</ele>
        <time>2015-09-20T10:33:26.844Z</time>
      </trkpt>
      <trkpt lat="45.964" lon="4.93438">
        <ele>297.899993896</ele>
        <time>2015-09-20T10:33:27.881Z</time>
      </trkpt>
      <trkpt lat="45.96394" lon="4.93434">
        <ele>298</ele>
        <time>2015-09-20T10:33:28.84Z</time>
      </trkpt>
      <trkpt lat="45.96388" lon="4.9343">
        <ele>298.100006104</ele>
        <time>2015-09-20T10:33:29.866Z</time>
      </trkpt>
      <trkpt lat="45.96383" lon="4.93427">
        <ele>298.299987793</ele>
        <time>2015-09-20T10:33:30.84Z</time>
      </trkpt>
      <trkpt lat="45.96377" lon="4.93424">
        <ele>298.100006104</ele>
        <time>2015-09-20T10:33:31.869Z</time>
      </trkpt>
      <trkpt lat="45.96372" lon="4.9342">
        <ele>298.299987793</ele>
        <time>2015-09-20T10:33:32.84Z</time>
      </trkpt>
      <trkpt lat="45.96367" lon="4.93417">
        <ele>298.700012207</ele>
        <time>2015-09-20T10:33:33.864Z</time>
      </trkpt>
      <trkpt lat="45.96362" lon="4.93414">
        <ele>299.100006104</ele>
        <time>2015-09-20T10:33:34.841Z</time>
      </trkpt>
      <trkpt lat="45.96356" lon="4.9341">
        <ele>299.399993896</ele>
        <time>2015-09-20T10:33:35.866Z</time>
      </trkpt>
      <trkpt lat="45.9635" lon="4.93407">
        <ele>299.700012207</ele>
        <time>2015-09-20T10:33:36.84Z</time>
      </trkpt>
      <trkpt lat="45.96344" lon="4.93403">
        <ele>300</ele>
        <time>2015-09-20T10:33:37.865Z</time>
      </trkpt>
      <trkpt lat="45.96338" lon="4.93399">
        <ele>300.100006104</ele>
        <time>2015-09-20T10:33:38.84Z</time>
      </trkpt>
      <trkpt lat="45.96332" lon="4.93394">
        <ele>300.200012207</ele>
        <time>2015-09-20T10:33:39.864Z</time>
      </trkpt>
      <trkpt lat="45.96325" lon="4.93391">
        <ele>300</ele>
        <time>2015-09-20T10:33:40.839Z</time>
      </trkpt>
      <trkpt lat="45.96319" lon="4.93388">
        <ele>300.299987793</ele>
        <time>2015-09-20T10:33:41.869Z</time>
      </trkpt>
      <trkpt lat="45.96314" lon="4.93384">
        <ele>300.299987793</ele>
        <time>2015-09-20T10:33:42.84Z</time>
      </trkpt>
      <trkpt lat="45.96309" lon="4.93381">
        <ele>300.100006104</ele>
        <time>2015-09-20T10:33:43.904Z</time>
      </trkpt>
      <trkpt lat="45.96304" lon="4.93378">
        <ele>300.100006104</ele>
        <time>2015-09-20T10:33:44.84Z</time>
      </trkpt>
      <trkpt lat="45.96298" lon="4.93374">
        <ele>300</ele>
        <time>2015-09-20T10:33:45.865Z</time>
      </trkpt>
      <trkpt lat="45.96293" lon="4.93371">
        <ele>300</ele>
        <time>2015-09-20T10:33:46.84Z</time>
      </trkpt>
      <trkpt lat="45.96288" lon="4.93368">
        <ele>300.100006104</ele>
        <time>2015-09-20T10:33:47.887Z</time>
      </trkpt>
      <trkpt lat="45.96282" lon="4.93365">
        <ele>300.100006104</ele>
        <time>2015-09-20T10:33:48.841Z</time>
      </trkpt>
      <trkpt lat="45.96277" lon="4.93361">
        <ele>300.200012207</ele>
        <time>2015-09-20T10:33:49.865Z</time>
      </trkpt>
      <trkpt lat="45.96271" lon="4.93358">
        <ele>300.299987793</ele>
        <time>2015-09-20T10:33:50.84Z</time>
      </trkpt>
      <trkpt lat="45.96266" lon="4.93355">
        <ele>300.5</ele>
        <time>2015-09-20T10:33:51.867Z</time>
      </trkpt>
      <trkpt lat="45.9626" lon="4.9335">
        <ele>300.799987793</ele>
        <time>2015-09-20T10:33:52.84Z</time>
      </trkpt>
      <trkpt lat="45.96256" lon="4.93346">
        <ele>301</ele>
        <time>2015-09-20T10:33:53.866Z</time>
      </trkpt>
      <trkpt lat="45.96251" lon="4.93342">
        <ele>301.299987793</ele>
        <time>2015-09-20T10:33:54.84Z</time>
      </trkpt>
      <trkpt lat="45.96246" lon="4.93337">
        <ele>301.5</ele>
        <time>2015-09-20T10:33:55.865Z</time>
      </trkpt>
      <trkpt lat="45.96241" lon="4.93332">
        <ele>301.799987793</ele>
        <time>2015-09-20T10:33:56.84Z</time>
      </trkpt>
      <trkpt lat="45.96236" lon="4.93327">
        <ele>301.600006104</ele>
        <time>2015-09-20T10:33:57.864Z</time>
      </trkpt>
      <trkpt lat="45.96231" lon="4.93322">
        <ele>302</ele>
        <time>2015-09-20T10:33:58.839Z</time>
      </trkpt>
      <trkpt lat="45.96227" lon="4.93315">
        <ele>301.5</ele>
        <time>2015-09-20T10:33:59.88Z</time>
      </trkpt>
      <trkpt lat="45.96223" lon="4.93308">
        <ele>301.299987793</ele>
        <time>2015-09-20T10:34:00.84Z</time>
      </trkpt>
      <trkpt lat="45.96219" lon="4.93301">
        <ele>301.100006104</ele>
        <time>2015-09-20T10:34:01.869Z</time>
      </trkpt>
      <trkpt lat="45.96215" lon="4.93293">
        <ele>301</ele>
        <time>2015-09-20T10:34:02.84Z</time>
      </trkpt>
      <trkpt lat="45.96212" lon="4.93286">
        <ele>301</ele>
        <time>2015-09-20T10:34:03.867Z</time>
      </trkpt>
      <trkpt lat="45.96208" lon="4.93279">
        <ele>300.799987793</ele>
        <time>2015-09-20T10:34:04.84Z</time>
      </trkpt>
      <trkpt lat="45.96205" lon="4.93272">
        <ele>300.799987793</ele>
        <time>2015-09-20T10:34:05.866Z</time>
      </trkpt>
      <trkpt lat="45.96202" lon="4.93264">
        <ele>300.899993896</ele>
        <time>2015-09-20T10:34:06.876Z</time>
      </trkpt>
      <trkpt lat="45.96199" lon="4.93256">
        <ele>301.200012207</ele>
        <time>2015-09-20T10:34:07.867Z</time>
      </trkpt>
      <trkpt lat="45.96196" lon="4.93247">
        <ele>300.799987793</ele>
        <time>2015-09-20T10:34:08.878Z</time>
      </trkpt>
      <trkpt lat="45.96194" lon="4.93238">
        <ele>300.5</ele>
        <time>2015-09-20T10:34:09.914Z</time>
      </trkpt>
      <trkpt lat="45.96191" lon="4.93229">
        <ele>299.5</ele>
        <time>2015-09-20T10:34:10.839Z</time>
      </trkpt>
      <trkpt lat="45.96188" lon="4.9322">
        <ele>299.299987793</ele>
        <time>2015-09-20T10:34:11.869Z</time>
      </trkpt>
      <trkpt lat="45.96185" lon="4.9321">
        <ele>299.100006104</ele>
        <time>2015-09-20T10:34:12.84Z</time>
      </trkpt>
      <trkpt lat="45.96183" lon="4.93201">
        <ele>299.100006104</ele>
        <time>2015-09-20T10:34:13.866Z</time>
      </trkpt>
      <trkpt lat="45.9618" lon="4.93192">
        <ele>299</ele>
        <time>2015-09-20T10:34:14.841Z</time>
      </trkpt>
      <trkpt lat="45.96177" lon="4.93182">
        <ele>298.899993896</ele>
        <time>2015-09-20T10:34:15.865Z</time>
      </trkpt>
      <trkpt lat="45.96175" lon="4.93172">
        <ele>298.700012207</ele>
        <time>2015-09-20T10:34:16.841Z</time>
      </trkpt>
      <trkpt lat="45.96172" lon="4.93162">
        <ele>298.799987793</ele>
        <time>2015-09-20T10:34:17.866Z</time>
      </trkpt>
      <trkpt lat="45.96169" lon="4.93153">
        <ele>299.100006104</ele>
        <time>2015-09-20T10:34:18.839Z</time>
      </trkpt>
      <trkpt lat="45.96166" lon="4.93143">
        <ele>299.200012207</ele>
        <time>2015-09-20T10:34:19.864Z</time>
      </trkpt>
      <trkpt lat="45.96163" lon="4.93133">
        <ele>299.200012207</ele>
        <time>2015-09-20T10:34:20.857Z</time>
      </trkpt>
      <trkpt lat="45.96159" lon="4.93124">
        <ele>299.200012207</ele>
        <time>2015-09-20T10:34:21.87Z</time>
      </trkpt>
      <trkpt lat="45.96156" lon="4.93115">
        <ele>299.299987793</ele>
        <time>2015-09-20T10:34:22.84Z</time>
      </trkpt>
      <trkpt lat="45.96154" lon="4.93106">
        <ele>299.299987793</ele>
        <time>2015-09-20T10:34:23.867Z</time>
      </trkpt>
      <trkpt lat="45.96151" lon="4.93097">
        <ele>298.899993896</ele>
        <time>2015-09-20T10:34:24.841Z</time>
      </trkpt>
      <trkpt lat="45.96148" lon="4.93088">
        <ele>298.600006104</ele>
        <time>2015-09-20T10:34:25.865Z</time>
      </trkpt>
      <trkpt lat="45.96145" lon="4.93079">
        <ele>298.5</ele>
        <time>2015-09-20T10:34:26.841Z</time>
      </trkpt>
      <trkpt lat="45.96142" lon="4.93071">
        <ele>298.200012207</ele>
        <time>2015-09-20T10:34:27.865Z</time>
      </trkpt>
      <trkpt lat="45.9614" lon="4.93062">
        <ele>298.200012207</ele>
        <time>2015-09-20T10:34:28.842Z</time>
      </trkpt>
      <trkpt lat="45.96137" lon="4.93054">
        <ele>298.100006104</ele>
        <time>2015-09-20T10:34:29.871Z</time>
      </trkpt>
      <trkpt lat="45.96135" lon="4.93045">
        <ele>297.700012207</ele>
        <time>2015-09-20T10:34:30.842Z</time>
      </trkpt>
      <trkpt lat="45.96133" lon="4.93038">
        <ele>297.299987793</ele>
        <time>2015-09-20T10:34:31.873Z</time>
      </trkpt>
      <trkpt lat="45.9613" lon="4.93029">
        <ele>297.200012207</ele>
        <time>2015-09-20T10:34:32.841Z</time>
      </trkpt>
      <trkpt lat="45.96128" lon="4.93021">
        <ele>296.799987793</ele>
        <time>2015-09-20T10:34:33.865Z</time>
      </trkpt>
      <trkpt lat="45.96125" lon="4.93013">
        <ele>296.399993896</ele>
        <time>2015-09-20T10:34:34.84Z</time>
      </trkpt>
      <trkpt lat="45.96123" lon="4.93005">
        <ele>296.100006104</ele>
        <time>2015-09-20T10:34:35.896Z</time>
      </trkpt>
      <trkpt lat="45.96121" lon="4.92997">
        <ele>295.600006104</ele>
        <time>2015-09-20T10:34:36.84Z</time>
      </trkpt>
      <trkpt lat="45.96119" lon="4.9299">
        <ele>295.100006104</ele>
        <time>2015-09-20T10:34:37.904Z</time>
      </trkpt>
      <trkpt lat="45.96117" lon="4.92982">
        <ele>295</ele>
        <time>2015-09-20T10:34:38.84Z</time>
      </trkpt>
      <trkpt lat="45.96115" lon="4.92975">
        <ele>294.799987793</ele>
        <time>2015-09-20T10:34:39.864Z</time>
      </trkpt>
      <trkpt lat="45.96112" lon="4.92967">
        <ele>295</ele>
        <time>2015-09-20T10:34:40.84Z</time>
      </trkpt>
      <trkpt lat="45.96109" lon="4.9296">
        <ele>294.799987793</ele>
        <time>2015-09-20T10:34:41.889Z</time>
      </trkpt>
      <trkpt lat="45.96107" lon="4.92952">
        <ele>294.799987793</ele>
        <time>2015-09-20T10:34:42.84Z</time>
      </trkpt>
      <trkpt lat="45.96105" lon="4.92945">
        <ele>294.799987793</ele>
        <time>2015-09-20T10:34:43.865Z</time>
      </trkpt>
      <trkpt lat="45.96103" lon="4.92937">
        <ele>294.5</ele>
        <time>2015-09-20T10:34:44.839Z</time>
      </trkpt>
      <trkpt lat="45.96101" lon="4.9293">
        <ele>294.600006104</ele>
        <time>2015-09-20T10:34:45.863Z</time>
      </trkpt>
      <trkpt lat="45.96099" lon="4.92922">
        <ele>294.799987793</ele>
        <time>2015-09-20T10:34:46.839Z</time>
      </trkpt>
      <trkpt lat="45.96097" lon="4.92915">
        <ele>294.5</ele>
        <time>2015-09-20T10:34:47.894Z</time>
      </trkpt>
      <trkpt lat="45.96095" lon="4.92907">
        <ele>294.399993896</ele>
        <time>2015-09-20T10:34:48.894Z</time>
      </trkpt>
      <trkpt lat="45.96093" lon="4.92899">
        <ele>294.5</ele>
        <time>2015-09-20T10:34:49.866Z</time>
      </trkpt>
      <trkpt lat="45.9609" lon="4.92891">
        <ele>294</ele>
        <time>2015-09-20T10:34:50.84Z</time>
      </trkpt>
      <trkpt lat="45.96088" lon="4.92883">
        <ele>294</ele>
        <time>2015-09-20T10:34:51.873Z</time>
      </trkpt>
      <trkpt lat="45.96084" lon="4.92874">
        <ele>293.799987793</ele>
        <time>2015-09-20T10:34:52.84Z</time>
      </trkpt>
      <trkpt lat="45.96082" lon="4.92864">
        <ele>293.600006104</ele>
        <time>2015-09-20T10:34:53.866Z</time>
      </trkpt>
      <trkpt lat="45.96079" lon="4.92855">
        <ele>293.5</ele>
        <time>2015-09-20T10:34:54.842Z</time>
      </trkpt>
      <trkpt lat="45.96076" lon="4.92846">
        <ele>293.299987793</ele>
        <time>2015-09-20T10:34:55.869Z</time>
      </trkpt>
      <trkpt lat="45.96073" lon="4.92837">
        <ele>293.100006104</ele>
        <time>2015-09-20T10:34:56.839Z</time>
      </trkpt>
      <trkpt lat="45.96071" lon="4.92828">
        <ele>293.100006104</ele>
        <time>2015-09-20T10:34:57.864Z</time>
      </trkpt>
      <trkpt lat="45.96068" lon="4.9282">
        <ele>293</ele>
        <time>2015-09-20T10:34:58.839Z</time>
      </trkpt>
      <trkpt lat="45.96066" lon="4.92811">
        <ele>293.100006104</ele>
        <time>2015-09-20T10:34:59.944Z</time>
      </trkpt>
      <trkpt lat="45.96064" lon="4.92803">
        <ele>293.200012207</ele>
        <time>2015-09-20T10:35:00.84Z</time>
      </trkpt>
      <trkpt lat="45.96062" lon="4.92795">
        <ele>293.299987793</ele>
        <time>2015-09-20T10:35:01.875Z</time>
      </trkpt>
      <trkpt lat="45.96059" lon="4.92787">
        <ele>293</ele>
        <time>2015-09-20T10:35:02.856Z</time>
      </trkpt>
      <trkpt lat="45.96057" lon="4.92779">
        <ele>293</ele>
        <time>2015-09-20T10:35:03.864Z</time>
      </trkpt>
      <trkpt lat="45.96055" lon="4.92771">
        <ele>293.100006104</ele>
        <time>2015-09-20T10:35:04.839Z</time>
      </trkpt>
      <trkpt lat="45.96052" lon="4.92763">
        <ele>293.200012207</ele>
        <time>2015-09-20T10:35:05.866Z</time>
      </trkpt>
      <trkpt lat="45.9605" lon="4.92755">
        <ele>292.899993896</ele>
        <time>2015-09-20T10:35:06.839Z</time>
      </trkpt>
      <trkpt lat="45.96047" lon="4.92746">
        <ele>292.899993896</ele>
        <time>2015-09-20T10:35:07.912Z</time>
      </trkpt>
      <trkpt lat="45.96045" lon="4.92737">
        <ele>293</ele>
        <time>2015-09-20T10:35:08.839Z</time>
      </trkpt>
      <trkpt lat="45.96043" lon="4.92729">
        <ele>293</ele>
        <time>2015-09-20T10:35:09.864Z</time>
      </trkpt>
      <trkpt lat="45.9604" lon="4.92721">
        <ele>293</ele>
        <time>2015-09-20T10:35:10.84Z</time>
      </trkpt>
      <trkpt lat="45.96038" lon="4.92712">
        <ele>293.100006104</ele>
        <time>2015-09-20T10:35:11.877Z</time>
      </trkpt>
      <trkpt lat="45.96035" lon="4.92704">
        <ele>293.299987793</ele>
        <time>2015-09-20T10:35:12.839Z</time>
      </trkpt>
      <trkpt lat="45.96032" lon="4.92695">
        <ele>293</ele>
        <time>2015-09-20T10:35:13.865Z</time>
      </trkpt>
      <trkpt lat="45.9603" lon="4.92687">
        <ele>293.299987793</ele>
        <time>2015-09-20T10:35:14.839Z</time>
      </trkpt>
      <trkpt lat="45.96027" lon="4.92679">
        <ele>293.200012207</ele>
        <time>2015-09-20T10:35:15.863Z</time>
      </trkpt>
      <trkpt lat="45.96025" lon="4.9267">
        <ele>293.100006104</ele>
        <time>2015-09-20T10:35:16.839Z</time>
      </trkpt>
      <trkpt lat="45.96023" lon="4.92662">
        <ele>293.299987793</ele>
        <time>2015-09-20T10:35:17.866Z</time>
      </trkpt>
      <trkpt lat="45.9602" lon="4.92654">
        <ele>293.200012207</ele>
        <time>2015-09-20T10:35:18.839Z</time>
      </trkpt>
      <trkpt lat="45.96018" lon="4.92646">
        <ele>293.200012207</ele>
        <time>2015-09-20T10:35:19.864Z</time>
      </trkpt>
      <trkpt lat="45.96016" lon="4.92638">
        <ele>293.799987793</ele>
        <time>2015-09-20T10:35:20.838Z</time>
      </trkpt>
      <trkpt lat="45.96014" lon="4.9263">
        <ele>293.799987793</ele>
        <time>2015-09-20T10:35:21.881Z</time>
      </trkpt>
      <trkpt lat="45.96011" lon="4.92621">
        <ele>293.600006104</ele>
        <time>2015-09-20T10:35:22.839Z</time>
      </trkpt>
      <trkpt lat="45.96009" lon="4.92611">
        <ele>293.299987793</ele>
        <time>2015-09-20T10:35:23.881Z</time>
      </trkpt>
      <trkpt lat="45.96007" lon="4.92603">
        <ele>293.200012207</ele>
        <time>2015-09-20T10:35:24.839Z</time>
      </trkpt>
      <trkpt lat="45.96004" lon="4.92595">
        <ele>293</ele>
        <time>2015-09-20T10:35:25.864Z</time>
      </trkpt>
      <trkpt lat="45.96002" lon="4.92587">
        <ele>293</ele>
        <time>2015-09-20T10:35:26.838Z</time>
      </trkpt>
      <trkpt lat="45.96" lon="4.92578">
        <ele>293.100006104</ele>
        <time>2015-09-20T10:35:27.87Z</time>
      </trkpt>
      <trkpt lat="45.95998" lon="4.9257">
        <ele>293.200012207</ele>
        <time>2015-09-20T10:35:28.838Z</time>
      </trkpt>
      <trkpt lat="45.95996" lon="4.92562">
        <ele>293.200012207</ele>
        <time>2015-09-20T10:35:29.866Z</time>
      </trkpt>
      <trkpt lat="45.95993" lon="4.92554">
        <ele>293.100006104</ele>
        <time>2015-09-20T10:35:30.839Z</time>
      </trkpt>
      <trkpt lat="45.95991" lon="4.92545">
        <ele>293.100006104</ele>
        <time>2015-09-20T10:35:31.915Z</time>
      </trkpt>
      <trkpt lat="45.95989" lon="4.92536">
        <ele>293</ele>
        <time>2015-09-20T10:35:32.839Z</time>
      </trkpt>
      <trkpt lat="45.95987" lon="4.92527">
        <ele>293.100006104</ele>
        <time>2015-09-20T10:35:33.863Z</time>
      </trkpt>
      <trkpt lat="45.95985" lon="4.92518">
        <ele>293</ele>
        <time>2015-09-20T10:35:34.862Z</time>
      </trkpt>
      <trkpt lat="45.95983" lon="4.92509">
        <ele>293</ele>
        <time>2015-09-20T10:35:35.866Z</time>
      </trkpt>
      <trkpt lat="45.95981" lon="4.925">
        <ele>293.299987793</ele>
        <time>2015-09-20T10:35:36.839Z</time>
      </trkpt>
      <trkpt lat="45.9598" lon="4.92491">
        <ele>293.600006104</ele>
        <time>2015-09-20T10:35:37.864Z</time>
      </trkpt>
      <trkpt lat="45.95978" lon="4.92483">
        <ele>293.799987793</ele>
        <time>2015-09-20T10:35:38.839Z</time>
      </trkpt>
      <trkpt lat="45.95976" lon="4.92475">
        <ele>294.100006104</ele>
        <time>2015-09-20T10:35:39.881Z</time>
      </trkpt>
      <trkpt lat="45.95974" lon="4.92467">
        <ele>294.200012207</ele>
        <time>2015-09-20T10:35:40.839Z</time>
      </trkpt>
      <trkpt lat="45.95973" lon="4.92459">
        <ele>294.299987793</ele>
        <time>2015-09-20T10:35:41.879Z</time>
      </trkpt>
      <trkpt lat="45.95972" lon="4.9245">
        <ele>294.200012207</ele>
        <time>2015-09-20T10:35:42.838Z</time>
      </trkpt>
      <trkpt lat="45.95971" lon="4.92442">
        <ele>294.399993896</ele>
        <time>2015-09-20T10:35:43.864Z</time>
      </trkpt>
      <trkpt lat="45.95969" lon="4.92434">
        <ele>294.299987793</ele>
        <time>2015-09-20T10:35:44.839Z</time>
      </trkpt>
      <trkpt lat="45.95968" lon="4.92426">
        <ele>294.799987793</ele>
        <time>2015-09-20T10:35:45.863Z</time>
      </trkpt>
      <trkpt lat="45.95967" lon="4.92418">
        <ele>295</ele>
        <time>2015-09-20T10:35:46.838Z</time>
      </trkpt>
      <trkpt lat="45.95965" lon="4.9241">
        <ele>295.100006104</ele>
        <time>2015-09-20T10:35:47.87Z</time>
      </trkpt>
      <trkpt lat="45.95964" lon="4.92402">
        <ele>295</ele>
        <time>2015-09-20T10:35:48.876Z</time>
      </trkpt>
      <trkpt lat="45.95962" lon="4.92395">
        <ele>295.399993896</ele>
        <time>2015-09-20T10:35:49.865Z</time>
      </trkpt>
      <trkpt lat="45.95961" lon="4.92388">
        <ele>295.600006104</ele>
        <time>2015-09-20T10:35:50.839Z</time>
      </trkpt>
      <trkpt lat="45.9596" lon="4.92381">
        <ele>295.899993896</ele>
        <time>2015-09-20T10:35:51.879Z</time>
      </trkpt>
      <trkpt lat="45.95959" lon="4.92374">
        <ele>296.100006104</ele>
        <time>2015-09-20T10:35:52.839Z</time>
      </trkpt>
      <trkpt lat="45.95958" lon="4.92366">
        <ele>296.399993896</ele>
        <time>2015-09-20T10:35:53.866Z</time>
      </trkpt>
      <trkpt lat="45.95957" lon="4.92359">
        <ele>296.799987793</ele>
        <time>2015-09-20T10:35:54.839Z</time>
      </trkpt>
      <trkpt lat="45.95956" lon="4.92351">
        <ele>296.700012207</ele>
        <time>2015-09-20T10:35:55.878Z</time>
      </trkpt>
      <trkpt lat="45.95955" lon="4.92343">
        <ele>296.5</ele>
        <time>2015-09-20T10:35:56.838Z</time>
      </trkpt>
      <trkpt lat="45.95954" lon="4.92336">
        <ele>296.299987793</ele>
        <time>2015-09-20T10:35:57.863Z</time>
      </trkpt>
      <trkpt lat="45.95952" lon="4.92329">
        <ele>296.100006104</ele>
        <time>2015-09-20T10:35:58.84Z</time>
      </trkpt>
      <trkpt lat="45.95951" lon="4.92321">
        <ele>296.5</ele>
        <time>2015-09-20T10:35:59.867Z</time>
      </trkpt>
      <trkpt lat="45.95949" lon="4.92314">
        <ele>296.700012207</ele>
        <time>2015-09-20T10:36:00.915Z</time>
      </trkpt>
      <trkpt lat="45.95947" lon="4.92306">
        <ele>296.799987793</ele>
        <time>2015-09-20T10:36:01.881Z</time>
      </trkpt>
      <trkpt lat="45.95945" lon="4.92298">
        <ele>296.700012207</ele>
        <time>2015-09-20T10:36:02.838Z</time>
      </trkpt>
      <trkpt lat="45.95943" lon="4.9229">
        <ele>296.700012207</ele>
        <time>2015-09-20T10:36:03.862Z</time>
      </trkpt>
      <trkpt lat="45.95942" lon="4.92282">
        <ele>296.600006104</ele>
        <time>2015-09-20T10:36:04.838Z</time>
      </trkpt>
      <trkpt lat="45.95941" lon="4.92275">
        <ele>296.899993896</ele>
        <time>2015-09-20T10:36:05.87Z</time>
      </trkpt>
      <trkpt lat="45.95939" lon="4.92267">
        <ele>297.600006104</ele>
        <time>2015-09-20T10:36:06.839Z</time>
      </trkpt>
      <trkpt lat="45.95938" lon="4.92259">
        <ele>297.899993896</ele>
        <time>2015-09-20T10:36:07.866Z</time>
      </trkpt>
      <trkpt lat="45.95937" lon="4.92251">
        <ele>298.200012207</ele>
        <time>2015-09-20T10:36:08.839Z</time>
      </trkpt>
      <trkpt lat="45.95936" lon="4.92242">
        <ele>298.5</ele>
        <time>2015-09-20T10:36:09.863Z</time>
      </trkpt>
      <trkpt lat="45.95935" lon="4.92234">
        <ele>298.799987793</ele>
        <time>2015-09-20T10:36:10.839Z</time>
      </trkpt>
      <trkpt lat="45.95934" lon="4.92226">
        <ele>299</ele>
        <time>2015-09-20T10:36:11.899Z</time>
      </trkpt>
      <trkpt lat="45.95933" lon="4.92217">
        <ele>299</ele>
        <time>2015-09-20T10:36:12.838Z</time>
      </trkpt>
      <trkpt lat="45.95932" lon="4.9221">
        <ele>298.899993896</ele>
        <time>2015-09-20T10:36:13.868Z</time>
      </trkpt>
      <trkpt lat="45.9593" lon="4.92203">
        <ele>299</ele>
        <time>2015-09-20T10:36:14.881Z</time>
      </trkpt>
      <trkpt lat="45.95929" lon="4.92195">
        <ele>298.5</ele>
        <time>2015-09-20T10:36:15.863Z</time>
      </trkpt>
      <trkpt lat="45.95928" lon="4.92188">
        <ele>297.700012207</ele>
        <time>2015-09-20T10:36:16.839Z</time>
      </trkpt>
      <trkpt lat="45.95926" lon="4.92181">
        <ele>296.799987793</ele>
        <time>2015-09-20T10:36:17.868Z</time>
      </trkpt>
      <trkpt lat="45.95924" lon="4.92173">
        <ele>296.399993896</ele>
        <time>2015-09-20T10:36:18.84Z</time>
      </trkpt>
      <trkpt lat="45.95924" lon="4.92165">
        <ele>296.299987793</ele>
        <time>2015-09-20T10:36:19.864Z</time>
      </trkpt>
      <trkpt lat="45.95923" lon="4.92158">
        <ele>296.299987793</ele>
        <time>2015-09-20T10:36:20.839Z</time>
      </trkpt>
      <trkpt lat="45.95921" lon="4.9215">
        <ele>295.899993896</ele>
        <time>2015-09-20T10:36:21.885Z</time>
      </trkpt>
      <trkpt lat="45.9592" lon="4.92142">
        <ele>295.799987793</ele>
        <time>2015-09-20T10:36:22.838Z</time>
      </trkpt>
      <trkpt lat="45.95919" lon="4.92134">
        <ele>296.200012207</ele>
        <time>2015-09-20T10:36:23.866Z</time>
      </trkpt>
      <trkpt lat="45.95918" lon="4.92126">
        <ele>296.200012207</ele>
        <time>2015-09-20T10:36:24.839Z</time>
      </trkpt>
      <trkpt lat="45.95916" lon="4.92117">
        <ele>296.200012207</ele>
        <time>2015-09-20T10:36:25.865Z</time>
      </trkpt>
      <trkpt lat="45.95915" lon="4.92108">
        <ele>296.5</ele>
        <time>2015-09-20T10:36:26.838Z</time>
      </trkpt>
      <trkpt lat="45.95914" lon="4.921">
        <ele>296.5</ele>
        <time>2015-09-20T10:36:27.878Z</time>
      </trkpt>
      <trkpt lat="45.95912" lon="4.92092">
        <ele>296.5</ele>
        <time>2015-09-20T10:36:28.839Z</time>
      </trkpt>
      <trkpt lat="45.95911" lon="4.92084">
        <ele>296.399993896</ele>
        <time>2015-09-20T10:36:29.867Z</time>
      </trkpt>
      <trkpt lat="45.95909" lon="4.92077">
        <ele>296.600006104</ele>
        <time>2015-09-20T10:36:30.838Z</time>
      </trkpt>
      <trkpt lat="45.95908" lon="4.92071">
        <ele>296.700012207</ele>
        <time>2015-09-20T10:36:31.884Z</time>
      </trkpt>
      <trkpt lat="45.95907" lon="4.92064">
        <ele>296.700012207</ele>
        <time>2015-09-20T10:36:32.838Z</time>
      </trkpt>
      <trkpt lat="45.95906" lon="4.92057">
        <ele>296.600006104</ele>
        <time>2015-09-20T10:36:33.863Z</time>
      </trkpt>
      <trkpt lat="45.95905" lon="4.9205">
        <ele>296.700012207</ele>
        <time>2015-09-20T10:36:34.838Z</time>
      </trkpt>
      <trkpt lat="45.95904" lon="4.92044">
        <ele>296.799987793</ele>
        <time>2015-09-20T10:36:35.874Z</time>
      </trkpt>
      <trkpt lat="45.95903" lon="4.92037">
        <ele>296.899993896</ele>
        <time>2015-09-20T10:36:36.839Z</time>
      </trkpt>
      <trkpt lat="45.95902" lon="4.92031">
        <ele>296.799987793</ele>
        <time>2015-09-20T10:36:37.864Z</time>
      </trkpt>
      <trkpt lat="45.959" lon="4.92024">
        <ele>296.600006104</ele>
        <time>2015-09-20T10:36:38.838Z</time>
      </trkpt>
      <trkpt lat="45.95899" lon="4.92017">
        <ele>296.399993896</ele>
        <time>2015-09-20T10:36:39.867Z</time>
      </trkpt>
      <trkpt lat="45.95898" lon="4.9201">
        <ele>296.299987793</ele>
        <time>2015-09-20T10:36:40.839Z</time>
      </trkpt>
      <trkpt lat="45.95896" lon="4.92002">
        <ele>296.5</ele>
        <time>2015-09-20T10:36:41.888Z</time>
      </trkpt>
      <trkpt lat="45.95895" lon="4.91995">
        <ele>296.600006104</ele>
        <time>2015-09-20T10:36:42.838Z</time>
      </trkpt>
      <trkpt lat="45.95894" lon="4.91988">
        <ele>296.600006104</ele>
        <time>2015-09-20T10:36:43.877Z</time>
      </trkpt>
      <trkpt lat="45.95893" lon="4.91981">
        <ele>296.700012207</ele>
        <time>2015-09-20T10:36:44.838Z</time>
      </trkpt>
      <trkpt lat="45.95891" lon="4.91974">
        <ele>296.399993896</ele>
        <time>2015-09-20T10:36:45.862Z</time>
      </trkpt>
      <trkpt lat="45.9589" lon="4.91967">
        <ele>296.299987793</ele>
        <time>2015-09-20T10:36:46.839Z</time>
      </trkpt>
      <trkpt lat="45.95889" lon="4.91961">
        <ele>296.200012207</ele>
        <time>2015-09-20T10:36:47.865Z</time>
      </trkpt>
      <trkpt lat="45.95887" lon="4.91954">
        <ele>295.600006104</ele>
        <time>2015-09-20T10:36:48.838Z</time>
      </trkpt>
      <trkpt lat="45.95886" lon="4.91947">
        <ele>295.399993896</ele>
        <time>2015-09-20T10:36:49.896Z</time>
      </trkpt>
      <trkpt lat="45.95885" lon="4.91941">
        <ele>295.100006104</ele>
        <time>2015-09-20T10:36:50.838Z</time>
      </trkpt>
      <trkpt lat="45.95884" lon="4.91934">
        <ele>295.100006104</ele>
        <time>2015-09-20T10:36:51.886Z</time>
      </trkpt>
      <trkpt lat="45.95882" lon="4.91927">
        <ele>295.200012207</ele>
        <time>2015-09-20T10:36:52.839Z</time>
      </trkpt>
      <trkpt lat="45.95881" lon="4.9192">
        <ele>295.399993896</ele>
        <time>2015-09-20T10:36:53.866Z</time>
      </trkpt>
      <trkpt lat="45.9588" lon="4.91913">
        <ele>295.399993896</ele>
        <time>2015-09-20T10:36:54.838Z</time>
      </trkpt>
      <trkpt lat="45.95878" lon="4.91905">
        <ele>295.399993896</ele>
        <time>2015-09-20T10:36:55.864Z</time>
      </trkpt>
      <trkpt lat="45.95876" lon="4.91898">
        <ele>295.299987793</ele>
        <time>2015-09-20T10:36:56.839Z</time>
      </trkpt>
      <trkpt lat="45.95875" lon="4.91891">
        <ele>295.399993896</ele>
        <time>2015-09-20T10:36:57.864Z</time>
      </trkpt>
      <trkpt lat="45.95874" lon="4.91883">
        <ele>295.399993896</ele>
        <time>2015-09-20T10:36:58.878Z</time>
      </trkpt>
      <trkpt lat="45.95873" lon="4.91875">
        <ele>295.5</ele>
        <time>2015-09-20T10:36:59.88Z</time>
      </trkpt>
      <trkpt lat="45.95872" lon="4.91868">
        <ele>295.799987793</ele>
        <time>2015-09-20T10:37:00.84Z</time>
      </trkpt>
      <trkpt lat="45.9587" lon="4.9186">
        <ele>296.100006104</ele>
        <time>2015-09-20T10:37:01.889Z</time>
      </trkpt>
      <trkpt lat="45.95868" lon="4.91852">
        <ele>296.100006104</ele>
        <time>2015-09-20T10:37:02.838Z</time>
      </trkpt>
      <trkpt lat="45.95867" lon="4.91845">
        <ele>296.399993896</ele>
        <time>2015-09-20T10:37:03.863Z</time>
      </trkpt>
      <trkpt lat="45.95865" lon="4.91837">
        <ele>296.5</ele>
        <time>2015-09-20T10:37:04.838Z</time>
      </trkpt>
      <trkpt lat="45.95864" lon="4.9183">
        <ele>296.799987793</ele>
        <time>2015-09-20T10:37:05.87Z</time>
      </trkpt>
      <trkpt lat="45.95862" lon="4.91822">
        <ele>296.5</ele>
        <time>2015-09-20T10:37:06.838Z</time>
      </trkpt>
      <trkpt lat="45.95861" lon="4.91815">
        <ele>296.5</ele>
        <time>2015-09-20T10:37:07.867Z</time>
      </trkpt>
      <trkpt lat="45.95859" lon="4.91809">
        <ele>296.799987793</ele>
        <time>2015-09-20T10:37:08.838Z</time>
      </trkpt>
      <trkpt lat="45.95858" lon="4.91802">
        <ele>296.799987793</ele>
        <time>2015-09-20T10:37:09.89Z</time>
      </trkpt>
      <trkpt lat="45.95857" lon="4.91795">
        <ele>297.100006104</ele>
        <time>2015-09-20T10:37:10.838Z</time>
      </trkpt>
      <trkpt lat="45.95855" lon="4.91789">
        <ele>297.5</ele>
        <time>2015-09-20T10:37:11.89Z</time>
      </trkpt>
      <trkpt lat="45.95855" lon="4.91782">
        <ele>297.600006104</ele>
        <time>2015-09-20T10:37:12.838Z</time>
      </trkpt>
      <trkpt lat="45.95853" lon="4.91776">
        <ele>297.799987793</ele>
        <time>2015-09-20T10:37:13.866Z</time>
      </trkpt>
      <trkpt lat="45.95852" lon="4.91769">
        <ele>297.700012207</ele>
        <time>2015-09-20T10:37:14.838Z</time>
      </trkpt>
      <trkpt lat="45.95851" lon="4.91762">
        <ele>297.799987793</ele>
        <time>2015-09-20T10:37:15.876Z</time>
      </trkpt>
      <trkpt lat="45.9585" lon="4.91755">
        <ele>298</ele>
        <time>2015-09-20T10:37:16.863Z</time>
      </trkpt>
      <trkpt lat="45.95849" lon="4.91748">
        <ele>298.100006104</ele>
        <time>2015-09-20T10:37:17.866Z</time>
      </trkpt>
      <trkpt lat="45.95849" lon="4.91741">
        <ele>297.899993896</ele>
        <time>2015-09-20T10:37:18.838Z</time>
      </trkpt>
      <trkpt lat="45.95849" lon="4.91734">
        <ele>298.399993896</ele>
        <time>2015-09-20T10:37:19.864Z</time>
      </trkpt>
      <trkpt lat="45.95848" lon="4.91725">
        <ele>298.899993896</ele>
        <time>2015-09-20T10:37:20.838Z</time>
      </trkpt>
      <trkpt lat="45.95847" lon="4.91717">
        <ele>299.100006104</ele>
        <time>2015-09-20T10:37:21.908Z</time>
      </trkpt>
      <trkpt lat="45.95847" lon="4.91708">
        <ele>299.100006104</ele>
        <time>2015-09-20T10:37:22.839Z</time>
      </trkpt>
      <trkpt lat="45.95848" lon="4.917">
        <ele>298.700012207</ele>
        <time>2015-09-20T10:37:23.866Z</time>
      </trkpt>
      <trkpt lat="45.95848" lon="4.91691">
        <ele>298.5</ele>
        <time>2015-09-20T10:37:24.839Z</time>
      </trkpt>
      <trkpt lat="45.95848" lon="4.91682">
        <ele>298.600006104</ele>
        <time>2015-09-20T10:37:25.864Z</time>
      </trkpt>
      <trkpt lat="45.95848" lon="4.91673">
        <ele>298.799987793</ele>
        <time>2015-09-20T10:37:26.838Z</time>
      </trkpt>
      <trkpt lat="45.95849" lon="4.91663">
        <ele>298.5</ele>
        <time>2015-09-20T10:37:27.862Z</time>
      </trkpt>
      <trkpt lat="45.9585" lon="4.91654">
        <ele>298.399993896</ele>
        <time>2015-09-20T10:37:28.838Z</time>
      </trkpt>
      <trkpt lat="45.9585" lon="4.91645">
        <ele>298.600006104</ele>
        <time>2015-09-20T10:37:29.866Z</time>
      </trkpt>
      <trkpt lat="45.95851" lon="4.91636">
        <ele>298.399993896</ele>
        <time>2015-09-20T10:37:30.838Z</time>
      </trkpt>
      <trkpt lat="45.95851" lon="4.91627">
        <ele>298.200012207</ele>
        <time>2015-09-20T10:37:31.912Z</time>
      </trkpt>
      <trkpt lat="45.95851" lon="4.91617">
        <ele>298.100006104</ele>
        <time>2015-09-20T10:37:32.838Z</time>
      </trkpt>
      <trkpt lat="45.95852" lon="4.91608">
        <ele>298</ele>
        <time>2015-09-20T10:37:33.864Z</time>
      </trkpt>
      <trkpt lat="45.95852" lon="4.91599">
        <ele>297.899993896</ele>
        <time>2015-09-20T10:37:34.839Z</time>
      </trkpt>
      <trkpt lat="45.95852" lon="4.9159">
        <ele>297.5</ele>
        <time>2015-09-20T10:37:35.867Z</time>
      </trkpt>
      <trkpt lat="45.95852" lon="4.9158">
        <ele>297.100006104</ele>
        <time>2015-09-20T10:37:36.838Z</time>
      </trkpt>
      <trkpt lat="45.95852" lon="4.9157">
        <ele>297.200012207</ele>
        <time>2015-09-20T10:37:37.864Z</time>
      </trkpt>
      <trkpt lat="45.95852" lon="4.9156">
        <ele>297</ele>
        <time>2015-09-20T10:37:38.838Z</time>
      </trkpt>
      <trkpt lat="45.95852" lon="4.91551">
        <ele>297.100006104</ele>
        <time>2015-09-20T10:37:39.863Z</time>
      </trkpt>
      <trkpt lat="45.95853" lon="4.91542">
        <ele>297</ele>
        <time>2015-09-20T10:37:40.839Z</time>
      </trkpt>
      <trkpt lat="45.95853" lon="4.91532">
        <ele>296.799987793</ele>
        <time>2015-09-20T10:37:41.935Z</time>
      </trkpt>
      <trkpt lat="45.95853" lon="4.91523">
        <ele>296.600006104</ele>
        <time>2015-09-20T10:37:42.838Z</time>
      </trkpt>
      <trkpt lat="45.95853" lon="4.91514">
        <ele>296.5</ele>
        <time>2015-09-20T10:37:43.864Z</time>
      </trkpt>
      <trkpt lat="45.95853" lon="4.91504">
        <ele>296.200012207</ele>
        <time>2015-09-20T10:37:44.839Z</time>
      </trkpt>
      <trkpt lat="45.95852" lon="4.91495">
        <ele>295.799987793</ele>
        <time>2015-09-20T10:37:45.864Z</time>
      </trkpt>
      <trkpt lat="45.95852" lon="4.91485">
        <ele>295.600006104</ele>
        <time>2015-09-20T10:37:46.838Z</time>
      </trkpt>
      <trkpt lat="45.95852" lon="4.91476">
        <ele>295.700012207</ele>
        <time>2015-09-20T10:37:47.878Z</time>
      </trkpt>
      <trkpt lat="45.95852" lon="4.91466">
        <ele>295.799987793</ele>
        <time>2015-09-20T10:37:48.838Z</time>
      </trkpt>
      <trkpt lat="45.95853" lon="4.91457">
        <ele>295.399993896</ele>
        <time>2015-09-20T10:37:49.864Z</time>
      </trkpt>
      <trkpt lat="45.95852" lon="4.91448">
        <ele>295.100006104</ele>
        <time>2015-09-20T10:37:50.834Z</time>
      </trkpt>
      <trkpt lat="45.95852" lon="4.91439">
        <ele>294.600006104</ele>
        <time>2015-09-20T10:37:51.895Z</time>
      </trkpt>
      <trkpt lat="45.95853" lon="4.9143">
        <ele>294.299987793</ele>
        <time>2015-09-20T10:37:52.853Z</time>
      </trkpt>
      <trkpt lat="45.95853" lon="4.91421">
        <ele>294.200012207</ele>
        <time>2015-09-20T10:37:53.868Z</time>
      </trkpt>
      <trkpt lat="45.95853" lon="4.91412">
        <ele>294.200012207</ele>
        <time>2015-09-20T10:37:54.838Z</time>
      </trkpt>
      <trkpt lat="45.95853" lon="4.91404">
        <ele>294.100006104</ele>
        <time>2015-09-20T10:37:55.865Z</time>
      </trkpt>
      <trkpt lat="45.95853" lon="4.91395">
        <ele>294</ele>
        <time>2015-09-20T10:37:56.838Z</time>
      </trkpt>
      <trkpt lat="45.95853" lon="4.91386">
        <ele>293.799987793</ele>
        <time>2015-09-20T10:37:57.866Z</time>
      </trkpt>
      <trkpt lat="45.95853" lon="4.91377">
        <ele>293.600006104</ele>
        <time>2015-09-20T10:37:58.838Z</time>
      </trkpt>
      <trkpt lat="45.95854" lon="4.91368">
        <ele>293.399993896</ele>
        <time>2015-09-20T10:37:59.866Z</time>
      </trkpt>
      <trkpt lat="45.95853" lon="4.9136">
        <ele>293.200012207</ele>
        <time>2015-09-20T10:38:00.839Z</time>
      </trkpt>
      <trkpt lat="45.95853" lon="4.91351">
        <ele>292.899993896</ele>
        <time>2015-09-20T10:38:01.897Z</time>
      </trkpt>
      <trkpt lat="45.95854" lon="4.91342">
        <ele>292.700012207</ele>
        <time>2015-09-20T10:38:02.838Z</time>
      </trkpt>
      <trkpt lat="45.95855" lon="4.91333">
        <ele>292.600006104</ele>
        <time>2015-09-20T10:38:03.867Z</time>
      </trkpt>
      <trkpt lat="45.95855" lon="4.91324">
        <ele>292.200012207</ele>
        <time>2015-09-20T10:38:04.839Z</time>
      </trkpt>
      <trkpt lat="45.95855" lon="4.91315">
        <ele>291.799987793</ele>
        <time>2015-09-20T10:38:05.865Z</time>
      </trkpt>
      <trkpt lat="45.95855" lon="4.91306">
        <ele>291.399993896</ele>
        <time>2015-09-20T10:38:06.838Z</time>
      </trkpt>
      <trkpt lat="45.95856" lon="4.91296">
        <ele>291.100006104</ele>
        <time>2015-09-20T10:38:07.866Z</time>
      </trkpt>
      <trkpt lat="45.95857" lon="4.91286">
        <ele>290.5</ele>
        <time>2015-09-20T10:38:08.839Z</time>
      </trkpt>
      <trkpt lat="45.95857" lon="4.91276">
        <ele>290.200012207</ele>
        <time>2015-09-20T10:38:09.863Z</time>
      </trkpt>
      <trkpt lat="45.95857" lon="4.91267">
        <ele>289.700012207</ele>
        <time>2015-09-20T10:38:10.837Z</time>
      </trkpt>
      <trkpt lat="45.95858" lon="4.91257">
        <ele>289.399993896</ele>
        <time>2015-09-20T10:38:11.898Z</time>
      </trkpt>
      <trkpt lat="45.95858" lon="4.91248">
        <ele>289.299987793</ele>
        <time>2015-09-20T10:38:12.838Z</time>
      </trkpt>
      <trkpt lat="45.95858" lon="4.9124">
        <ele>289.200012207</ele>
        <time>2015-09-20T10:38:13.954Z</time>
      </trkpt>
      <trkpt lat="45.95858" lon="4.91232">
        <ele>289.100006104</ele>
        <time>2015-09-20T10:38:14.839Z</time>
      </trkpt>
      <trkpt lat="45.95858" lon="4.91224">
        <ele>289.100006104</ele>
        <time>2015-09-20T10:38:15.863Z</time>
      </trkpt>
      <trkpt lat="45.95858" lon="4.91216">
        <ele>289.200012207</ele>
        <time>2015-09-20T10:38:16.839Z</time>
      </trkpt>
      <trkpt lat="45.95859" lon="4.91208">
        <ele>289</ele>
        <time>2015-09-20T10:38:17.866Z</time>
      </trkpt>
      <trkpt lat="45.95859" lon="4.91199">
        <ele>289.200012207</ele>
        <time>2015-09-20T10:38:18.839Z</time>
      </trkpt>
      <trkpt lat="45.9586" lon="4.9119">
        <ele>289.100006104</ele>
        <time>2015-09-20T10:38:19.865Z</time>
      </trkpt>
      <trkpt lat="45.9586" lon="4.91181">
        <ele>288.799987793</ele>
        <time>2015-09-20T10:38:20.838Z</time>
      </trkpt>
      <trkpt lat="45.95861" lon="4.91172">
        <ele>288.5</ele>
        <time>2015-09-20T10:38:21.894Z</time>
      </trkpt>
      <trkpt lat="45.95861" lon="4.91163">
        <ele>288</ele>
        <time>2015-09-20T10:38:22.838Z</time>
      </trkpt>
      <trkpt lat="45.95861" lon="4.91154">
        <ele>287.700012207</ele>
        <time>2015-09-20T10:38:23.869Z</time>
      </trkpt>
      <trkpt lat="45.95862" lon="4.91145">
        <ele>287.299987793</ele>
        <time>2015-09-20T10:38:24.838Z</time>
      </trkpt>
      <trkpt lat="45.95863" lon="4.91136">
        <ele>287</ele>
        <time>2015-09-20T10:38:25.864Z</time>
      </trkpt>
      <trkpt lat="45.95863" lon="4.91127">
        <ele>286.899993896</ele>
        <time>2015-09-20T10:38:26.838Z</time>
      </trkpt>
      <trkpt lat="45.95864" lon="4.91118">
        <ele>286.799987793</ele>
        <time>2015-09-20T10:38:27.862Z</time>
      </trkpt>
      <trkpt lat="45.95865" lon="4.9111">
        <ele>286.700012207</ele>
        <time>2015-09-20T10:38:28.839Z</time>
      </trkpt>
      <trkpt lat="45.95865" lon="4.91102">
        <ele>286.700012207</ele>
        <time>2015-09-20T10:38:29.89Z</time>
      </trkpt>
      <trkpt lat="45.95865" lon="4.91095">
        <ele>286.600006104</ele>
        <time>2015-09-20T10:38:30.838Z</time>
      </trkpt>
      <trkpt lat="45.95865" lon="4.91087">
        <ele>286.600006104</ele>
        <time>2015-09-20T10:38:31.896Z</time>
      </trkpt>
      <trkpt lat="45.95865" lon="4.91079">
        <ele>286.799987793</ele>
        <time>2015-09-20T10:38:32.839Z</time>
      </trkpt>
      <trkpt lat="45.95865" lon="4.9107">
        <ele>287</ele>
        <time>2015-09-20T10:38:33.863Z</time>
      </trkpt>
      <trkpt lat="45.95865" lon="4.91061">
        <ele>286.899993896</ele>
        <time>2015-09-20T10:38:34.839Z</time>
      </trkpt>
      <trkpt lat="45.95865" lon="4.91052">
        <ele>287</ele>
        <time>2015-09-20T10:38:35.867Z</time>
      </trkpt>
      <trkpt lat="45.95865" lon="4.91044">
        <ele>287.200012207</ele>
        <time>2015-09-20T10:38:36.839Z</time>
      </trkpt>
      <trkpt lat="45.95865" lon="4.91035">
        <ele>287.299987793</ele>
        <time>2015-09-20T10:38:37.865Z</time>
      </trkpt>
      <trkpt lat="45.95865" lon="4.91026">
        <ele>287.399993896</ele>
        <time>2015-09-20T10:38:38.838Z</time>
      </trkpt>
      <trkpt lat="45.95866" lon="4.91017">
        <ele>287.200012207</ele>
        <time>2015-09-20T10:38:39.864Z</time>
      </trkpt>
      <trkpt lat="45.95866" lon="4.91008">
        <ele>287.100006104</ele>
        <time>2015-09-20T10:38:40.838Z</time>
      </trkpt>
      <trkpt lat="45.95866" lon="4.91">
        <ele>287.100006104</ele>
        <time>2015-09-20T10:38:41.898Z</time>
      </trkpt>
      <trkpt lat="45.95867" lon="4.90991">
        <ele>287.100006104</ele>
        <time>2015-09-20T10:38:42.839Z</time>
      </trkpt>
      <trkpt lat="45.95867" lon="4.90982">
        <ele>287</ele>
        <time>2015-09-20T10:38:43.864Z</time>
      </trkpt>
      <trkpt lat="45.95867" lon="4.90973">
        <ele>287</ele>
        <time>2015-09-20T10:38:44.838Z</time>
      </trkpt>
      <trkpt lat="45.95868" lon="4.90964">
        <ele>287.299987793</ele>
        <time>2015-09-20T10:38:45.877Z</time>
      </trkpt>
      <trkpt lat="45.95868" lon="4.90956">
        <ele>287.299987793</ele>
        <time>2015-09-20T10:38:46.838Z</time>
      </trkpt>
      <trkpt lat="45.95868" lon="4.90947">
        <ele>287.299987793</ele>
        <time>2015-09-20T10:38:47.866Z</time>
      </trkpt>
      <trkpt lat="45.95869" lon="4.90938">
        <ele>287.299987793</ele>
        <time>2015-09-20T10:38:48.839Z</time>
      </trkpt>
      <trkpt lat="45.9587" lon="4.90929">
        <ele>287.700012207</ele>
        <time>2015-09-20T10:38:49.867Z</time>
      </trkpt>
      <trkpt lat="45.9587" lon="4.90919">
        <ele>288.100006104</ele>
        <time>2015-09-20T10:38:50.839Z</time>
      </trkpt>
      <trkpt lat="45.9587" lon="4.9091">
        <ele>288.200012207</ele>
        <time>2015-09-20T10:38:51.933Z</time>
      </trkpt>
      <trkpt lat="45.95871" lon="4.90901">
        <ele>288.5</ele>
        <time>2015-09-20T10:38:52.838Z</time>
      </trkpt>
      <trkpt lat="45.95871" lon="4.90892">
        <ele>288.899993896</ele>
        <time>2015-09-20T10:38:53.866Z</time>
      </trkpt>
      <trkpt lat="45.95871" lon="4.90883">
        <ele>288.600006104</ele>
        <time>2015-09-20T10:38:54.838Z</time>
      </trkpt>
      <trkpt lat="45.95872" lon="4.90874">
        <ele>289</ele>
        <time>2015-09-20T10:38:55.863Z</time>
      </trkpt>
      <trkpt lat="45.95873" lon="4.90864">
        <ele>289.299987793</ele>
        <time>2015-09-20T10:38:56.838Z</time>
      </trkpt>
      <trkpt lat="45.95873" lon="4.90855">
        <ele>289.5</ele>
        <time>2015-09-20T10:38:57.9Z</time>
      </trkpt>
      <trkpt lat="45.95874" lon="4.90847">
        <ele>289.600006104</ele>
        <time>2015-09-20T10:38:58.839Z</time>
      </trkpt>
      <trkpt lat="45.95874" lon="4.90838">
        <ele>289.399993896</ele>
        <time>2015-09-20T10:38:59.866Z</time>
      </trkpt>
      <trkpt lat="45.95875" lon="4.90829">
        <ele>289.5</ele>
        <time>2015-09-20T10:39:00.839Z</time>
      </trkpt>
      <trkpt lat="45.95875" lon="4.90821">
        <ele>289.600006104</ele>
        <time>2015-09-20T10:39:01.915Z</time>
      </trkpt>
      <trkpt lat="45.95876" lon="4.90813">
        <ele>289.799987793</ele>
        <time>2015-09-20T10:39:02.838Z</time>
      </trkpt>
      <trkpt lat="45.95876" lon="4.90805">
        <ele>289.899993896</ele>
        <time>2015-09-20T10:39:03.863Z</time>
      </trkpt>
      <trkpt lat="45.95876" lon="4.90797">
        <ele>290.100006104</ele>
        <time>2015-09-20T10:39:04.839Z</time>
      </trkpt>
      <trkpt lat="45.95876" lon="4.90789">
        <ele>290.200012207</ele>
        <time>2015-09-20T10:39:05.865Z</time>
      </trkpt>
      <trkpt lat="45.95877" lon="4.90781">
        <ele>290.200012207</ele>
        <time>2015-09-20T10:39:06.837Z</time>
      </trkpt>
      <trkpt lat="45.95877" lon="4.90772">
        <ele>290.200012207</ele>
        <time>2015-09-20T10:39:07.866Z</time>
      </trkpt>
      <trkpt lat="45.95877" lon="4.90763">
        <ele>290.399993896</ele>
        <time>2015-09-20T10:39:08.904Z</time>
      </trkpt>
      <trkpt lat="45.95878" lon="4.90755">
        <ele>290.5</ele>
        <time>2015-09-20T10:39:09.863Z</time>
      </trkpt>
      <trkpt lat="45.95878" lon="4.90746">
        <ele>290.5</ele>
        <time>2015-09-20T10:39:10.838Z</time>
      </trkpt>
      <trkpt lat="45.95879" lon="4.90738">
        <ele>290.600006104</ele>
        <time>2015-09-20T10:39:11.932Z</time>
      </trkpt>
      <trkpt lat="45.95879" lon="4.9073">
        <ele>290.700012207</ele>
        <time>2015-09-20T10:39:12.838Z</time>
      </trkpt>
      <trkpt lat="45.95879" lon="4.90721">
        <ele>290.600006104</ele>
        <time>2015-09-20T10:39:13.869Z</time>
      </trkpt>
      <trkpt lat="45.95879" lon="4.90713">
        <ele>290.700012207</ele>
        <time>2015-09-20T10:39:14.838Z</time>
      </trkpt>
      <trkpt lat="45.95879" lon="4.90705">
        <ele>290.899993896</ele>
        <time>2015-09-20T10:39:15.866Z</time>
      </trkpt>
      <trkpt lat="45.9588" lon="4.90697">
        <ele>291.100006104</ele>
        <time>2015-09-20T10:39:16.838Z</time>
      </trkpt>
      <trkpt lat="45.9588" lon="4.9069">
        <ele>291.399993896</ele>
        <time>2015-09-20T10:39:17.879Z</time>
      </trkpt>
      <trkpt lat="45.95881" lon="4.90682">
        <ele>291.399993896</ele>
        <time>2015-09-20T10:39:18.838Z</time>
      </trkpt>
      <trkpt lat="45.95881" lon="4.90674">
        <ele>291.600006104</ele>
        <time>2015-09-20T10:39:19.958Z</time>
      </trkpt>
      <trkpt lat="45.95881" lon="4.90666">
        <ele>291.700012207</ele>
        <time>2015-09-20T10:39:20.838Z</time>
      </trkpt>
      <trkpt lat="45.95881" lon="4.90658">
        <ele>291.399993896</ele>
        <time>2015-09-20T10:39:21.892Z</time>
      </trkpt>
      <trkpt lat="45.95881" lon="4.9065">
        <ele>291.399993896</ele>
        <time>2015-09-20T10:39:22.838Z</time>
      </trkpt>
      <trkpt lat="45.95882" lon="4.90642">
        <ele>291.600006104</ele>
        <time>2015-09-20T10:39:23.865Z</time>
      </trkpt>
      <trkpt lat="45.95882" lon="4.90633">
        <ele>291.600006104</ele>
        <time>2015-09-20T10:39:24.837Z</time>
      </trkpt>
      <trkpt lat="45.95882" lon="4.90625">
        <ele>291.600006104</ele>
        <time>2015-09-20T10:39:25.865Z</time>
      </trkpt>
      <trkpt lat="45.95883" lon="4.90616">
        <ele>291.5</ele>
        <time>2015-09-20T10:39:26.838Z</time>
      </trkpt>
      <trkpt lat="45.95883" lon="4.90607">
        <ele>291.600006104</ele>
        <time>2015-09-20T10:39:27.862Z</time>
      </trkpt>
      <trkpt lat="45.95883" lon="4.90599">
        <ele>291.600006104</ele>
        <time>2015-09-20T10:39:28.838Z</time>
      </trkpt>
      <trkpt lat="45.95883" lon="4.90591">
        <ele>291.600006104</ele>
        <time>2015-09-20T10:39:29.865Z</time>
      </trkpt>
      <trkpt lat="45.95884" lon="4.90583">
        <ele>291.700012207</ele>
        <time>2015-09-20T10:39:30.837Z</time>
      </trkpt>
      <trkpt lat="45.95883" lon="4.90574">
        <ele>291.299987793</ele>
        <time>2015-09-20T10:39:31.895Z</time>
      </trkpt>
      <trkpt lat="45.95884" lon="4.90565">
        <ele>291.100006104</ele>
        <time>2015-09-20T10:39:32.838Z</time>
      </trkpt>
      <trkpt lat="45.95884" lon="4.90557">
        <ele>290.700012207</ele>
        <time>2015-09-20T10:39:33.875Z</time>
      </trkpt>
      <trkpt lat="45.95884" lon="4.90548">
        <ele>290.600006104</ele>
        <time>2015-09-20T10:39:34.838Z</time>
      </trkpt>
      <trkpt lat="45.95884" lon="4.90539">
        <ele>290.5</ele>
        <time>2015-09-20T10:39:35.868Z</time>
      </trkpt>
      <trkpt lat="45.95884" lon="4.90531">
        <ele>290.5</ele>
        <time>2015-09-20T10:39:36.84Z</time>
      </trkpt>
      <trkpt lat="45.95885" lon="4.90522">
        <ele>290.5</ele>
        <time>2015-09-20T10:39:37.865Z</time>
      </trkpt>
      <trkpt lat="45.95885" lon="4.90513">
        <ele>290.399993896</ele>
        <time>2015-09-20T10:39:38.84Z</time>
      </trkpt>
      <trkpt lat="45.95885" lon="4.90505">
        <ele>290</ele>
        <time>2015-09-20T10:39:39.864Z</time>
      </trkpt>
      <trkpt lat="45.95885" lon="4.90497">
        <ele>289.700012207</ele>
        <time>2015-09-20T10:39:40.878Z</time>
      </trkpt>
      <trkpt lat="45.95885" lon="4.9049">
        <ele>289.700012207</ele>
        <time>2015-09-20T10:39:41.935Z</time>
      </trkpt>
      <trkpt lat="45.95885" lon="4.90482">
        <ele>289.600006104</ele>
        <time>2015-09-20T10:39:42.838Z</time>
      </trkpt>
      <trkpt lat="45.95886" lon="4.90474">
        <ele>289.399993896</ele>
        <time>2015-09-20T10:39:43.864Z</time>
      </trkpt>
      <trkpt lat="45.95886" lon="4.90466">
        <ele>289.5</ele>
        <time>2015-09-20T10:39:44.839Z</time>
      </trkpt>
      <trkpt lat="45.95887" lon="4.90458">
        <ele>289.200012207</ele>
        <time>2015-09-20T10:39:45.896Z</time>
      </trkpt>
      <trkpt lat="45.95886" lon="4.9045">
        <ele>289</ele>
        <time>2015-09-20T10:39:46.839Z</time>
      </trkpt>
      <trkpt lat="45.95886" lon="4.90442">
        <ele>289.100006104</ele>
        <time>2015-09-20T10:39:47.865Z</time>
      </trkpt>
      <trkpt lat="45.95886" lon="4.90434">
        <ele>289.200012207</ele>
        <time>2015-09-20T10:39:48.839Z</time>
      </trkpt>
      <trkpt lat="45.95886" lon="4.90427">
        <ele>289.100006104</ele>
        <time>2015-09-20T10:39:49.877Z</time>
      </trkpt>
      <trkpt lat="45.95886" lon="4.90419">
        <ele>288.799987793</ele>
        <time>2015-09-20T10:39:50.837Z</time>
      </trkpt>
      <trkpt lat="45.95886" lon="4.9041">
        <ele>288.600006104</ele>
        <time>2015-09-20T10:39:51.889Z</time>
      </trkpt>
      <trkpt lat="45.95886" lon="4.90402">
        <ele>288.399993896</ele>
        <time>2015-09-20T10:39:52.829Z</time>
      </trkpt>
      <trkpt lat="45.95887" lon="4.90393">
        <ele>288.299987793</ele>
        <time>2015-09-20T10:39:53.866Z</time>
      </trkpt>
      <trkpt lat="45.95887" lon="4.90384">
        <ele>288.299987793</ele>
        <time>2015-09-20T10:39:54.838Z</time>
      </trkpt>
      <trkpt lat="45.95888" lon="4.90375">
        <ele>288.299987793</ele>
        <time>2015-09-20T10:39:55.863Z</time>
      </trkpt>
      <trkpt lat="45.95888" lon="4.90367">
        <ele>288.299987793</ele>
        <time>2015-09-20T10:39:56.838Z</time>
      </trkpt>
      <trkpt lat="45.95888" lon="4.90358">
        <ele>288.200012207</ele>
        <time>2015-09-20T10:39:57.863Z</time>
      </trkpt>
      <trkpt lat="45.95888" lon="4.90349">
        <ele>288.100006104</ele>
        <time>2015-09-20T10:39:58.839Z</time>
      </trkpt>
      <trkpt lat="45.95888" lon="4.9034">
        <ele>288.100006104</ele>
        <time>2015-09-20T10:39:59.865Z</time>
      </trkpt>
      <trkpt lat="45.95888" lon="4.90332">
        <ele>288.299987793</ele>
        <time>2015-09-20T10:40:00.838Z</time>
      </trkpt>
      <trkpt lat="45.95889" lon="4.90323">
        <ele>288.600006104</ele>
        <time>2015-09-20T10:40:01.9Z</time>
      </trkpt>
      <trkpt lat="45.95891" lon="4.90315">
        <ele>288.799987793</ele>
        <time>2015-09-20T10:40:02.837Z</time>
      </trkpt>
      <trkpt lat="45.95892" lon="4.90306">
        <ele>289</ele>
        <time>2015-09-20T10:40:03.904Z</time>
      </trkpt>
      <trkpt lat="45.95893" lon="4.90297">
        <ele>289.299987793</ele>
        <time>2015-09-20T10:40:04.838Z</time>
      </trkpt>
      <trkpt lat="45.95894" lon="4.90287">
        <ele>289.600006104</ele>
        <time>2015-09-20T10:40:05.865Z</time>
      </trkpt>
      <trkpt lat="45.95894" lon="4.90278">
        <ele>289.799987793</ele>
        <time>2015-09-20T10:40:06.838Z</time>
      </trkpt>
      <trkpt lat="45.95894" lon="4.90269">
        <ele>290.200012207</ele>
        <time>2015-09-20T10:40:07.869Z</time>
      </trkpt>
      <trkpt lat="45.95894" lon="4.9026">
        <ele>290.200012207</ele>
        <time>2015-09-20T10:40:08.838Z</time>
      </trkpt>
      <trkpt lat="45.95895" lon="4.90252">
        <ele>290.600006104</ele>
        <time>2015-09-20T10:40:09.862Z</time>
      </trkpt>
      <trkpt lat="45.95895" lon="4.90243">
        <ele>290.100006104</ele>
        <time>2015-09-20T10:40:10.852Z</time>
      </trkpt>
      <trkpt lat="45.95895" lon="4.90234">
        <ele>289.899993896</ele>
        <time>2015-09-20T10:40:11.892Z</time>
      </trkpt>
      <trkpt lat="45.95895" lon="4.90226">
        <ele>289.899993896</ele>
        <time>2015-09-20T10:40:12.838Z</time>
      </trkpt>
      <trkpt lat="45.95895" lon="4.90217">
        <ele>290</ele>
        <time>2015-09-20T10:40:13.864Z</time>
      </trkpt>
      <trkpt lat="45.95897" lon="4.90208">
        <ele>290.399993896</ele>
        <time>2015-09-20T10:40:14.837Z</time>
      </trkpt>
      <trkpt lat="45.95897" lon="4.90199">
        <ele>290.700012207</ele>
        <time>2015-09-20T10:40:15.862Z</time>
      </trkpt>
      <trkpt lat="45.95897" lon="4.9019">
        <ele>290.700012207</ele>
        <time>2015-09-20T10:40:16.838Z</time>
      </trkpt>
      <trkpt lat="45.95897" lon="4.90181">
        <ele>290.5</ele>
        <time>2015-09-20T10:40:17.866Z</time>
      </trkpt>
      <trkpt lat="45.95898" lon="4.90171">
        <ele>291</ele>
        <time>2015-09-20T10:40:18.839Z</time>
      </trkpt>
      <trkpt lat="45.95898" lon="4.90161">
        <ele>291.200012207</ele>
        <time>2015-09-20T10:40:19.864Z</time>
      </trkpt>
      <trkpt lat="45.95897" lon="4.90152">
        <ele>291.299987793</ele>
        <time>2015-09-20T10:40:20.838Z</time>
      </trkpt>
      <trkpt lat="45.95897" lon="4.90141">
        <ele>291.100006104</ele>
        <time>2015-09-20T10:40:21.882Z</time>
      </trkpt>
      <trkpt lat="45.95897" lon="4.90131">
        <ele>291.100006104</ele>
        <time>2015-09-20T10:40:22.837Z</time>
      </trkpt>
      <trkpt lat="45.95898" lon="4.9012">
        <ele>291.100006104</ele>
        <time>2015-09-20T10:40:23.904Z</time>
      </trkpt>
      <trkpt lat="45.95898" lon="4.9011">
        <ele>291.100006104</ele>
        <time>2015-09-20T10:40:24.837Z</time>
      </trkpt>
      <trkpt lat="45.95897" lon="4.901">
        <ele>291.100006104</ele>
        <time>2015-09-20T10:40:25.919Z</time>
      </trkpt>
      <trkpt lat="45.95897" lon="4.9009">
        <ele>290.799987793</ele>
        <time>2015-09-20T10:40:26.839Z</time>
      </trkpt>
      <trkpt lat="45.95897" lon="4.90079">
        <ele>290.700012207</ele>
        <time>2015-09-20T10:40:27.863Z</time>
      </trkpt>
      <trkpt lat="45.95897" lon="4.90069">
        <ele>290.600006104</ele>
        <time>2015-09-20T10:40:28.838Z</time>
      </trkpt>
      <trkpt lat="45.95898" lon="4.90058">
        <ele>290.799987793</ele>
        <time>2015-09-20T10:40:29.866Z</time>
      </trkpt>
      <trkpt lat="45.95898" lon="4.90048">
        <ele>290.899993896</ele>
        <time>2015-09-20T10:40:30.838Z</time>
      </trkpt>
      <trkpt lat="45.95897" lon="4.90037">
        <ele>290.600006104</ele>
        <time>2015-09-20T10:40:31.884Z</time>
      </trkpt>
      <trkpt lat="45.95897" lon="4.90027">
        <ele>290.299987793</ele>
        <time>2015-09-20T10:40:32.837Z</time>
      </trkpt>
      <trkpt lat="45.95897" lon="4.90016">
        <ele>290.299987793</ele>
        <time>2015-09-20T10:40:33.903Z</time>
      </trkpt>
      <trkpt lat="45.95897" lon="4.90006">
        <ele>290.200012207</ele>
        <time>2015-09-20T10:40:34.837Z</time>
      </trkpt>
      <trkpt lat="45.95897" lon="4.89997">
        <ele>290.299987793</ele>
        <time>2015-09-20T10:40:35.865Z</time>
      </trkpt>
      <trkpt lat="45.95897" lon="4.89987">
        <ele>290</ele>
        <time>2015-09-20T10:40:36.85Z</time>
      </trkpt>
      <trkpt lat="45.95897" lon="4.89978">
        <ele>289.899993896</ele>
        <time>2015-09-20T10:40:37.864Z</time>
      </trkpt>
      <trkpt lat="45.95897" lon="4.89968">
        <ele>289.899993896</ele>
        <time>2015-09-20T10:40:38.838Z</time>
      </trkpt>
      <trkpt lat="45.95897" lon="4.89959">
        <ele>289.899993896</ele>
        <time>2015-09-20T10:40:39.862Z</time>
      </trkpt>
      <trkpt lat="45.95897" lon="4.89949">
        <ele>289.600006104</ele>
        <time>2015-09-20T10:40:40.837Z</time>
      </trkpt>
      <trkpt lat="45.95896" lon="4.89939">
        <ele>289.5</ele>
        <time>2015-09-20T10:40:41.912Z</time>
      </trkpt>
      <trkpt lat="45.95895" lon="4.8993">
        <ele>289.100006104</ele>
        <time>2015-09-20T10:40:42.837Z</time>
      </trkpt>
      <trkpt lat="45.95895" lon="4.8992">
        <ele>288.799987793</ele>
        <time>2015-09-20T10:40:43.863Z</time>
      </trkpt>
      <trkpt lat="45.95894" lon="4.89911">
        <ele>288.700012207</ele>
        <time>2015-09-20T10:40:44.837Z</time>
      </trkpt>
      <trkpt lat="45.95894" lon="4.89901">
        <ele>288.5</ele>
        <time>2015-09-20T10:40:45.861Z</time>
      </trkpt>
      <trkpt lat="45.95894" lon="4.89892">
        <ele>288.299987793</ele>
        <time>2015-09-20T10:40:46.837Z</time>
      </trkpt>
      <trkpt lat="45.95893" lon="4.89884">
        <ele>288.100006104</ele>
        <time>2015-09-20T10:40:47.865Z</time>
      </trkpt>
      <trkpt lat="45.95893" lon="4.89875">
        <ele>288</ele>
        <time>2015-09-20T10:40:48.837Z</time>
      </trkpt>
      <trkpt lat="45.95893" lon="4.89867">
        <ele>288</ele>
        <time>2015-09-20T10:40:49.871Z</time>
      </trkpt>
      <trkpt lat="45.95893" lon="4.89859">
        <ele>288</ele>
        <time>2015-09-20T10:40:50.837Z</time>
      </trkpt>
      <trkpt lat="45.95893" lon="4.8985">
        <ele>288.100006104</ele>
        <time>2015-09-20T10:40:51.873Z</time>
      </trkpt>
      <trkpt lat="45.95892" lon="4.89842">
        <ele>288.200012207</ele>
        <time>2015-09-20T10:40:52.851Z</time>
      </trkpt>
      <trkpt lat="45.95892" lon="4.89834">
        <ele>288</ele>
        <time>2015-09-20T10:40:53.865Z</time>
      </trkpt>
      <trkpt lat="45.95892" lon="4.89825">
        <ele>288</ele>
        <time>2015-09-20T10:40:54.838Z</time>
      </trkpt>
      <trkpt lat="45.95892" lon="4.89817">
        <ele>288</ele>
        <time>2015-09-20T10:40:55.884Z</time>
      </trkpt>
      <trkpt lat="45.95893" lon="4.89808">
        <ele>288</ele>
        <time>2015-09-20T10:40:56.837Z</time>
      </trkpt>
      <trkpt lat="45.95893" lon="4.89799">
        <ele>287.899993896</ele>
        <time>2015-09-20T10:40:57.861Z</time>
      </trkpt>
      <trkpt lat="45.95892" lon="4.8979">
        <ele>287.799987793</ele>
        <time>2015-09-20T10:40:58.837Z</time>
      </trkpt>
      <trkpt lat="45.95892" lon="4.89781">
        <ele>287.5</ele>
        <time>2015-09-20T10:40:59.869Z</time>
      </trkpt>
      <trkpt lat="45.95892" lon="4.89772">
        <ele>287.5</ele>
        <time>2015-09-20T10:41:00.838Z</time>
      </trkpt>
      <trkpt lat="45.95892" lon="4.89763">
        <ele>287.399993896</ele>
        <time>2015-09-20T10:41:01.875Z</time>
      </trkpt>
      <trkpt lat="45.95892" lon="4.89755">
        <ele>287.299987793</ele>
        <time>2015-09-20T10:41:02.845Z</time>
      </trkpt>
      <trkpt lat="45.95892" lon="4.89746">
        <ele>287.100006104</ele>
        <time>2015-09-20T10:41:03.862Z</time>
      </trkpt>
      <trkpt lat="45.95892" lon="4.89739">
        <ele>287.5</ele>
        <time>2015-09-20T10:41:04.837Z</time>
      </trkpt>
      <trkpt lat="45.95892" lon="4.89732">
        <ele>287.799987793</ele>
        <time>2015-09-20T10:41:05.864Z</time>
      </trkpt>
      <trkpt lat="45.95892" lon="4.89724">
        <ele>288.299987793</ele>
        <time>2015-09-20T10:41:06.837Z</time>
      </trkpt>
      <trkpt lat="45.95892" lon="4.89716">
        <ele>288.299987793</ele>
        <time>2015-09-20T10:41:07.867Z</time>
      </trkpt>
      <trkpt lat="45.95892" lon="4.89707">
        <ele>288.200012207</ele>
        <time>2015-09-20T10:41:08.837Z</time>
      </trkpt>
      <trkpt lat="45.95892" lon="4.89698">
        <ele>288.100006104</ele>
        <time>2015-09-20T10:41:09.862Z</time>
      </trkpt>
      <trkpt lat="45.95892" lon="4.89689">
        <ele>288</ele>
        <time>2015-09-20T10:41:10.838Z</time>
      </trkpt>
      <trkpt lat="45.95892" lon="4.89681">
        <ele>287.899993896</ele>
        <time>2015-09-20T10:41:11.878Z</time>
      </trkpt>
      <trkpt lat="45.95892" lon="4.89672">
        <ele>287.799987793</ele>
        <time>2015-09-20T10:41:12.837Z</time>
      </trkpt>
      <trkpt lat="45.95893" lon="4.89662">
        <ele>287.899993896</ele>
        <time>2015-09-20T10:41:13.914Z</time>
      </trkpt>
      <trkpt lat="45.95893" lon="4.89653">
        <ele>287.799987793</ele>
        <time>2015-09-20T10:41:14.838Z</time>
      </trkpt>
      <trkpt lat="45.95893" lon="4.89645">
        <ele>287.700012207</ele>
        <time>2015-09-20T10:41:15.861Z</time>
      </trkpt>
      <trkpt lat="45.95893" lon="4.89636">
        <ele>287.5</ele>
        <time>2015-09-20T10:41:16.838Z</time>
      </trkpt>
      <trkpt lat="45.95893" lon="4.89628">
        <ele>287.600006104</ele>
        <time>2015-09-20T10:41:17.865Z</time>
      </trkpt>
      <trkpt lat="45.95893" lon="4.89619">
        <ele>287.899993896</ele>
        <time>2015-09-20T10:41:18.837Z</time>
      </trkpt>
      <trkpt lat="45.95892" lon="4.89611">
        <ele>287.799987793</ele>
        <time>2015-09-20T10:41:19.904Z</time>
      </trkpt>
      <trkpt lat="45.95892" lon="4.89603">
        <ele>287.799987793</ele>
        <time>2015-09-20T10:41:20.837Z</time>
      </trkpt>
      <trkpt lat="45.95892" lon="4.89594">
        <ele>287.399993896</ele>
        <time>2015-09-20T10:41:21.867Z</time>
      </trkpt>
      <trkpt lat="45.95891" lon="4.89585">
        <ele>286.799987793</ele>
        <time>2015-09-20T10:41:22.838Z</time>
      </trkpt>
      <trkpt lat="45.95891" lon="4.89576">
        <ele>286.600006104</ele>
        <time>2015-09-20T10:41:23.865Z</time>
      </trkpt>
      <trkpt lat="45.95891" lon="4.89567">
        <ele>286.299987793</ele>
        <time>2015-09-20T10:41:24.837Z</time>
      </trkpt>
      <trkpt lat="45.95891" lon="4.89558">
        <ele>286.299987793</ele>
        <time>2015-09-20T10:41:25.866Z</time>
      </trkpt>
      <trkpt lat="45.95891" lon="4.89549">
        <ele>286.200012207</ele>
        <time>2015-09-20T10:41:26.837Z</time>
      </trkpt>
      <trkpt lat="45.9589" lon="4.8954">
        <ele>285.899993896</ele>
        <time>2015-09-20T10:41:27.861Z</time>
      </trkpt>
      <trkpt lat="45.9589" lon="4.8953">
        <ele>285.899993896</ele>
        <time>2015-09-20T10:41:28.837Z</time>
      </trkpt>
      <trkpt lat="45.9589" lon="4.8952">
        <ele>285.700012207</ele>
        <time>2015-09-20T10:41:29.879Z</time>
      </trkpt>
      <trkpt lat="45.95889" lon="4.89511">
        <ele>285.5</ele>
        <time>2015-09-20T10:41:30.837Z</time>
      </trkpt>
      <trkpt lat="45.95889" lon="4.89501">
        <ele>285.200012207</ele>
        <time>2015-09-20T10:41:31.868Z</time>
      </trkpt>
      <trkpt lat="45.95889" lon="4.89491">
        <ele>285</ele>
        <time>2015-09-20T10:41:32.837Z</time>
      </trkpt>
      <trkpt lat="45.95888" lon="4.89481">
        <ele>284.5</ele>
        <time>2015-09-20T10:41:33.861Z</time>
      </trkpt>
      <trkpt lat="45.95888" lon="4.89471">
        <ele>284.399993896</ele>
        <time>2015-09-20T10:41:34.837Z</time>
      </trkpt>
      <trkpt lat="45.95888" lon="4.89461">
        <ele>284.399993896</ele>
        <time>2015-09-20T10:41:35.865Z</time>
      </trkpt>
      <trkpt lat="45.95888" lon="4.89451">
        <ele>284.200012207</ele>
        <time>2015-09-20T10:41:36.837Z</time>
      </trkpt>
      <trkpt lat="45.95888" lon="4.89442">
        <ele>284.100006104</ele>
        <time>2015-09-20T10:41:37.863Z</time>
      </trkpt>
      <trkpt lat="45.95887" lon="4.89433">
        <ele>283.700012207</ele>
        <time>2015-09-20T10:41:38.837Z</time>
      </trkpt>
      <trkpt lat="45.95887" lon="4.89425">
        <ele>283.100006104</ele>
        <time>2015-09-20T10:41:39.861Z</time>
      </trkpt>
      <trkpt lat="45.95887" lon="4.89417">
        <ele>283.200012207</ele>
        <time>2015-09-20T10:41:40.837Z</time>
      </trkpt>
      <trkpt lat="45.95886" lon="4.89409">
        <ele>282.899993896</ele>
        <time>2015-09-20T10:41:41.87Z</time>
      </trkpt>
      <trkpt lat="45.95886" lon="4.89401">
        <ele>283</ele>
        <time>2015-09-20T10:41:42.837Z</time>
      </trkpt>
      <trkpt lat="45.95886" lon="4.89393">
        <ele>282.799987793</ele>
        <time>2015-09-20T10:41:43.863Z</time>
      </trkpt>
      <trkpt lat="45.95886" lon="4.89385">
        <ele>282.600006104</ele>
        <time>2015-09-20T10:41:44.837Z</time>
      </trkpt>
      <trkpt lat="45.95886" lon="4.89377">
        <ele>282.299987793</ele>
        <time>2015-09-20T10:41:45.874Z</time>
      </trkpt>
      <trkpt lat="45.95886" lon="4.89369">
        <ele>281.899993896</ele>
        <time>2015-09-20T10:41:46.837Z</time>
      </trkpt>
      <trkpt lat="45.95886" lon="4.8936">
        <ele>281.799987793</ele>
        <time>2015-09-20T10:41:47.866Z</time>
      </trkpt>
      <trkpt lat="45.95886" lon="4.89352">
        <ele>281.899993896</ele>
        <time>2015-09-20T10:41:48.837Z</time>
      </trkpt>
      <trkpt lat="45.95886" lon="4.89344">
        <ele>281.899993896</ele>
        <time>2015-09-20T10:41:49.864Z</time>
      </trkpt>
      <trkpt lat="45.95886" lon="4.89335">
        <ele>281.799987793</ele>
        <time>2015-09-20T10:41:50.875Z</time>
      </trkpt>
      <trkpt lat="45.95886" lon="4.89327">
        <ele>281.5</ele>
        <time>2015-09-20T10:41:51.867Z</time>
      </trkpt>
      <trkpt lat="45.95887" lon="4.89318">
        <ele>281.799987793</ele>
        <time>2015-09-20T10:41:52.837Z</time>
      </trkpt>
      <trkpt lat="45.95887" lon="4.8931">
        <ele>281.799987793</ele>
        <time>2015-09-20T10:41:53.865Z</time>
      </trkpt>
      <trkpt lat="45.95887" lon="4.89302">
        <ele>281.899993896</ele>
        <time>2015-09-20T10:41:54.835Z</time>
      </trkpt>
      <trkpt lat="45.95887" lon="4.89293">
        <ele>282</ele>
        <time>2015-09-20T10:41:55.863Z</time>
      </trkpt>
      <trkpt lat="45.95887" lon="4.89285">
        <ele>282.200012207</ele>
        <time>2015-09-20T10:41:56.837Z</time>
      </trkpt>
      <trkpt lat="45.95886" lon="4.89276">
        <ele>282.100006104</ele>
        <time>2015-09-20T10:41:57.861Z</time>
      </trkpt>
      <trkpt lat="45.95886" lon="4.89267">
        <ele>281.899993896</ele>
        <time>2015-09-20T10:41:58.837Z</time>
      </trkpt>
      <trkpt lat="45.95886" lon="4.89259">
        <ele>281.899993896</ele>
        <time>2015-09-20T10:41:59.878Z</time>
      </trkpt>
      <trkpt lat="45.95886" lon="4.8925">
        <ele>281.899993896</ele>
        <time>2015-09-20T10:42:00.837Z</time>
      </trkpt>
      <trkpt lat="45.95886" lon="4.89242">
        <ele>282</ele>
        <time>2015-09-20T10:42:01.889Z</time>
      </trkpt>
      <trkpt lat="45.95886" lon="4.89233">
        <ele>282.200012207</ele>
        <time>2015-09-20T10:42:02.837Z</time>
      </trkpt>
      <trkpt lat="45.95886" lon="4.89225">
        <ele>282.399993896</ele>
        <time>2015-09-20T10:42:03.914Z</time>
      </trkpt>
      <trkpt lat="45.95886" lon="4.89216">
        <ele>282.600006104</ele>
        <time>2015-09-20T10:42:04.837Z</time>
      </trkpt>
      <trkpt lat="45.95886" lon="4.89208">
        <ele>282.700012207</ele>
        <time>2015-09-20T10:42:05.866Z</time>
      </trkpt>
      <trkpt lat="45.95885" lon="4.892">
        <ele>282.899993896</ele>
        <time>2015-09-20T10:42:06.837Z</time>
      </trkpt>
      <trkpt lat="45.95885" lon="4.89192">
        <ele>283</ele>
        <time>2015-09-20T10:42:07.866Z</time>
      </trkpt>
      <trkpt lat="45.95885" lon="4.89185">
        <ele>283.200012207</ele>
        <time>2015-09-20T10:42:08.837Z</time>
      </trkpt>
      <trkpt lat="45.95885" lon="4.89177">
        <ele>283.5</ele>
        <time>2015-09-20T10:42:09.861Z</time>
      </trkpt>
      <trkpt lat="45.95884" lon="4.89169">
        <ele>283.399993896</ele>
        <time>2015-09-20T10:42:10.837Z</time>
      </trkpt>
      <trkpt lat="45.95884" lon="4.89162">
        <ele>283.5</ele>
        <time>2015-09-20T10:42:11.866Z</time>
      </trkpt>
      <trkpt lat="45.95883" lon="4.89154">
        <ele>283.700012207</ele>
        <time>2015-09-20T10:42:12.837Z</time>
      </trkpt>
      <trkpt lat="45.95883" lon="4.89146">
        <ele>283.700012207</ele>
        <time>2015-09-20T10:42:13.865Z</time>
      </trkpt>
      <trkpt lat="45.95883" lon="4.89139">
        <ele>283.600006104</ele>
        <time>2015-09-20T10:42:14.835Z</time>
      </trkpt>
      <trkpt lat="45.95885" lon="4.89126">
        <ele>283.700012207</ele>
        <time>2015-09-20T10:42:16.878Z</time>
      </trkpt>
      <trkpt lat="45.95887" lon="4.89122">
        <ele>283.899993896</ele>
        <time>2015-09-20T10:42:17.861Z</time>
      </trkpt>
      <trkpt lat="45.95894" lon="4.89114">
        <ele>284.200012207</ele>
        <time>2015-09-20T10:42:20.861Z</time>
      </trkpt>
      <trkpt lat="45.95895" lon="4.89112">
        <ele>284.899993896</ele>
        <time>2015-09-20T10:42:21.837Z</time>
      </trkpt>
      <trkpt lat="45.959" lon="4.89105">
        <ele>285.399993896</ele>
        <time>2015-09-20T10:42:24.861Z</time>
      </trkpt>
      <trkpt lat="45.95901" lon="4.89102">
        <ele>285.600006104</ele>
        <time>2015-09-20T10:42:25.838Z</time>
      </trkpt>
      <trkpt lat="45.95903" lon="4.89093">
        <ele>285.700012207</ele>
        <time>2015-09-20T10:42:27.894Z</time>
      </trkpt>
      <trkpt lat="45.95903" lon="4.89088">
        <ele>286</ele>
        <time>2015-09-20T10:42:28.837Z</time>
      </trkpt>
      <trkpt lat="45.95903" lon="4.89077">
        <ele>287.100006104</ele>
        <time>2015-09-20T10:42:30.861Z</time>
      </trkpt>
      <trkpt lat="45.95903" lon="4.89071">
        <ele>287.700012207</ele>
        <time>2015-09-20T10:42:31.839Z</time>
      </trkpt>
      <trkpt lat="45.95903" lon="4.89065">
        <ele>288.600006104</ele>
        <time>2015-09-20T10:42:32.904Z</time>
      </trkpt>
      <trkpt lat="45.95903" lon="4.89058">
        <ele>288.899993896</ele>
        <time>2015-09-20T10:42:33.837Z</time>
      </trkpt>
      <trkpt lat="45.95902" lon="4.89051">
        <ele>288.600006104</ele>
        <time>2015-09-20T10:42:34.861Z</time>
      </trkpt>
      <trkpt lat="45.95901" lon="4.89044">
        <ele>288.5</ele>
        <time>2015-09-20T10:42:35.842Z</time>
      </trkpt>
      <trkpt lat="45.959" lon="4.89037">
        <ele>288.399993896</ele>
        <time>2015-09-20T10:42:36.861Z</time>
      </trkpt>
      <trkpt lat="45.95899" lon="4.89031">
        <ele>288.200012207</ele>
        <time>2015-09-20T10:42:37.839Z</time>
      </trkpt>
      <trkpt lat="45.95897" lon="4.89024">
        <ele>289.100006104</ele>
        <time>2015-09-20T10:42:38.875Z</time>
      </trkpt>
      <trkpt lat="45.95896" lon="4.89018">
        <ele>289.200012207</ele>
        <time>2015-09-20T10:42:39.837Z</time>
      </trkpt>
      <trkpt lat="45.95894" lon="4.8901">
        <ele>288.799987793</ele>
        <time>2015-09-20T10:42:40.861Z</time>
      </trkpt>
      <trkpt lat="45.95893" lon="4.89003">
        <ele>288.700012207</ele>
        <time>2015-09-20T10:42:41.841Z</time>
      </trkpt>
      <trkpt lat="45.95891" lon="4.88995">
        <ele>288.100006104</ele>
        <time>2015-09-20T10:42:42.882Z</time>
      </trkpt>
      <trkpt lat="45.95889" lon="4.88987">
        <ele>288.200012207</ele>
        <time>2015-09-20T10:42:43.844Z</time>
      </trkpt>
      <trkpt lat="45.95888" lon="4.88979">
        <ele>287.799987793</ele>
        <time>2015-09-20T10:42:44.863Z</time>
      </trkpt>
      <trkpt lat="45.95886" lon="4.88971">
        <ele>287.399993896</ele>
        <time>2015-09-20T10:42:45.838Z</time>
      </trkpt>
      <trkpt lat="45.95885" lon="4.88963">
        <ele>287.399993896</ele>
        <time>2015-09-20T10:42:46.861Z</time>
      </trkpt>
      <trkpt lat="45.95885" lon="4.88955">
        <ele>287.399993896</ele>
        <time>2015-09-20T10:42:47.841Z</time>
      </trkpt>
      <trkpt lat="45.95884" lon="4.88947">
        <ele>287.700012207</ele>
        <time>2015-09-20T10:42:48.861Z</time>
      </trkpt>
      <trkpt lat="45.95884" lon="4.8894">
        <ele>287.700012207</ele>
        <time>2015-09-20T10:42:49.839Z</time>
      </trkpt>
      <trkpt lat="45.95884" lon="4.88932">
        <ele>287.700012207</ele>
        <time>2015-09-20T10:42:50.861Z</time>
      </trkpt>
      <trkpt lat="45.95884" lon="4.88923">
        <ele>287.600006104</ele>
        <time>2015-09-20T10:42:51.837Z</time>
      </trkpt>
      <trkpt lat="45.95884" lon="4.88915">
        <ele>287.799987793</ele>
        <time>2015-09-20T10:42:52.861Z</time>
      </trkpt>
      <trkpt lat="45.95884" lon="4.88907">
        <ele>287.899993896</ele>
        <time>2015-09-20T10:42:53.841Z</time>
      </trkpt>
      <trkpt lat="45.95884" lon="4.88899">
        <ele>288.200012207</ele>
        <time>2015-09-20T10:42:54.875Z</time>
      </trkpt>
      <trkpt lat="45.95884" lon="4.8889">
        <ele>288.299987793</ele>
        <time>2015-09-20T10:42:55.837Z</time>
      </trkpt>
      <trkpt lat="45.95885" lon="4.88882">
        <ele>288.399993896</ele>
        <time>2015-09-20T10:42:56.861Z</time>
      </trkpt>
      <trkpt lat="45.95885" lon="4.88874">
        <ele>288.399993896</ele>
        <time>2015-09-20T10:42:57.837Z</time>
      </trkpt>
      <trkpt lat="45.95885" lon="4.88866">
        <ele>288</ele>
        <time>2015-09-20T10:42:58.861Z</time>
      </trkpt>
      <trkpt lat="45.95884" lon="4.88857">
        <ele>287.700012207</ele>
        <time>2015-09-20T10:42:59.84Z</time>
      </trkpt>
      <trkpt lat="45.95884" lon="4.88849">
        <ele>288</ele>
        <time>2015-09-20T10:43:00.861Z</time>
      </trkpt>
      <trkpt lat="45.95884" lon="4.88841">
        <ele>288.200012207</ele>
        <time>2015-09-20T10:43:01.839Z</time>
      </trkpt>
      <trkpt lat="45.95884" lon="4.88832">
        <ele>288.200012207</ele>
        <time>2015-09-20T10:43:02.861Z</time>
      </trkpt>
      <trkpt lat="45.95884" lon="4.88823">
        <ele>288.299987793</ele>
        <time>2015-09-20T10:43:03.837Z</time>
      </trkpt>
      <trkpt lat="45.95884" lon="4.88815">
        <ele>288.200012207</ele>
        <time>2015-09-20T10:43:04.861Z</time>
      </trkpt>
      <trkpt lat="45.95883" lon="4.88806">
        <ele>288.299987793</ele>
        <time>2015-09-20T10:43:05.841Z</time>
      </trkpt>
      <trkpt lat="45.95883" lon="4.88798">
        <ele>288.200012207</ele>
        <time>2015-09-20T10:43:06.861Z</time>
      </trkpt>
      <trkpt lat="45.95883" lon="4.88789">
        <ele>288.100006104</ele>
        <time>2015-09-20T10:43:07.841Z</time>
      </trkpt>
      <trkpt lat="45.95882" lon="4.88781">
        <ele>288</ele>
        <time>2015-09-20T10:43:08.861Z</time>
      </trkpt>
      <trkpt lat="45.95882" lon="4.88773">
        <ele>288</ele>
        <time>2015-09-20T10:43:09.84Z</time>
      </trkpt>
      <trkpt lat="45.95881" lon="4.88764">
        <ele>287.399993896</ele>
        <time>2015-09-20T10:43:10.904Z</time>
      </trkpt>
      <trkpt lat="45.9588" lon="4.88755">
        <ele>287.200012207</ele>
        <time>2015-09-20T10:43:11.841Z</time>
      </trkpt>
      <trkpt lat="45.95879" lon="4.88746">
        <ele>287.200012207</ele>
        <time>2015-09-20T10:43:12.862Z</time>
      </trkpt>
      <trkpt lat="45.95879" lon="4.88738">
        <ele>287.100006104</ele>
        <time>2015-09-20T10:43:13.838Z</time>
      </trkpt>
      <trkpt lat="45.95879" lon="4.88729">
        <ele>286.899993896</ele>
        <time>2015-09-20T10:43:14.861Z</time>
      </trkpt>
      <trkpt lat="45.95878" lon="4.8872">
        <ele>286.899993896</ele>
        <time>2015-09-20T10:43:15.835Z</time>
      </trkpt>
      <trkpt lat="45.95878" lon="4.88711">
        <ele>286.799987793</ele>
        <time>2015-09-20T10:43:16.861Z</time>
      </trkpt>
      <trkpt lat="45.95878" lon="4.88701">
        <ele>286.600006104</ele>
        <time>2015-09-20T10:43:17.84Z</time>
      </trkpt>
      <trkpt lat="45.95877" lon="4.88692">
        <ele>286.399993896</ele>
        <time>2015-09-20T10:43:18.861Z</time>
      </trkpt>
      <trkpt lat="45.95877" lon="4.88683">
        <ele>286.200012207</ele>
        <time>2015-09-20T10:43:19.838Z</time>
      </trkpt>
      <trkpt lat="45.95876" lon="4.88674">
        <ele>285.899993896</ele>
        <time>2015-09-20T10:43:20.861Z</time>
      </trkpt>
      <trkpt lat="45.95876" lon="4.88665">
        <ele>285.700012207</ele>
        <time>2015-09-20T10:43:21.837Z</time>
      </trkpt>
      <trkpt lat="45.95876" lon="4.88657">
        <ele>285.399993896</ele>
        <time>2015-09-20T10:43:22.862Z</time>
      </trkpt>
      <trkpt lat="45.95876" lon="4.88648">
        <ele>285.200012207</ele>
        <time>2015-09-20T10:43:23.841Z</time>
      </trkpt>
      <trkpt lat="45.95876" lon="4.8864">
        <ele>285.200012207</ele>
        <time>2015-09-20T10:43:24.861Z</time>
      </trkpt>
      <trkpt lat="45.95875" lon="4.88632">
        <ele>285</ele>
        <time>2015-09-20T10:43:25.838Z</time>
      </trkpt>
      <trkpt lat="45.95875" lon="4.88624">
        <ele>284.899993896</ele>
        <time>2015-09-20T10:43:26.878Z</time>
      </trkpt>
      <trkpt lat="45.95874" lon="4.88616">
        <ele>284.899993896</ele>
        <time>2015-09-20T10:43:27.837Z</time>
      </trkpt>
      <trkpt lat="45.95874" lon="4.88608">
        <ele>284.899993896</ele>
        <time>2015-09-20T10:43:28.861Z</time>
      </trkpt>
      <trkpt lat="45.95874" lon="4.88599">
        <ele>284.899993896</ele>
        <time>2015-09-20T10:43:29.84Z</time>
      </trkpt>
      <trkpt lat="45.95873" lon="4.88591">
        <ele>284.399993896</ele>
        <time>2015-09-20T10:43:30.861Z</time>
      </trkpt>
      <trkpt lat="45.95873" lon="4.88583">
        <ele>284.299987793</ele>
        <time>2015-09-20T10:43:31.838Z</time>
      </trkpt>
      <trkpt lat="45.95873" lon="4.88574">
        <ele>284.200012207</ele>
        <time>2015-09-20T10:43:32.86Z</time>
      </trkpt>
      <trkpt lat="45.95872" lon="4.88565">
        <ele>284</ele>
        <time>2015-09-20T10:43:33.837Z</time>
      </trkpt>
      <trkpt lat="45.95872" lon="4.88556">
        <ele>283.899993896</ele>
        <time>2015-09-20T10:43:34.862Z</time>
      </trkpt>
      <trkpt lat="45.95871" lon="4.88547">
        <ele>283.899993896</ele>
        <time>2015-09-20T10:43:35.844Z</time>
      </trkpt>
      <trkpt lat="45.95871" lon="4.88538">
        <ele>283.799987793</ele>
        <time>2015-09-20T10:43:36.862Z</time>
      </trkpt>
      <trkpt lat="45.9587" lon="4.8853">
        <ele>283.799987793</ele>
        <time>2015-09-20T10:43:37.838Z</time>
      </trkpt>
      <trkpt lat="45.9587" lon="4.88521">
        <ele>283.799987793</ele>
        <time>2015-09-20T10:43:38.861Z</time>
      </trkpt>
      <trkpt lat="45.9587" lon="4.88513">
        <ele>283.700012207</ele>
        <time>2015-09-20T10:43:39.836Z</time>
      </trkpt>
      <trkpt lat="45.9587" lon="4.88505">
        <ele>283.700012207</ele>
        <time>2015-09-20T10:43:40.861Z</time>
      </trkpt>
      <trkpt lat="45.9587" lon="4.88496">
        <ele>283.600006104</ele>
        <time>2015-09-20T10:43:41.841Z</time>
      </trkpt>
      <trkpt lat="45.95869" lon="4.88488">
        <ele>283.899993896</ele>
        <time>2015-09-20T10:43:42.874Z</time>
      </trkpt>
      <trkpt lat="45.95868" lon="4.8848">
        <ele>283.899993896</ele>
        <time>2015-09-20T10:43:43.838Z</time>
      </trkpt>
      <trkpt lat="45.95868" lon="4.88472">
        <ele>283.700012207</ele>
        <time>2015-09-20T10:43:44.861Z</time>
      </trkpt>
      <trkpt lat="45.95868" lon="4.88464">
        <ele>283.700012207</ele>
        <time>2015-09-20T10:43:45.837Z</time>
      </trkpt>
      <trkpt lat="45.95867" lon="4.88455">
        <ele>283.700012207</ele>
        <time>2015-09-20T10:43:46.861Z</time>
      </trkpt>
      <trkpt lat="45.95867" lon="4.88447">
        <ele>283.700012207</ele>
        <time>2015-09-20T10:43:47.841Z</time>
      </trkpt>
      <trkpt lat="45.95867" lon="4.88438">
        <ele>283.700012207</ele>
        <time>2015-09-20T10:43:48.861Z</time>
      </trkpt>
      <trkpt lat="45.95866" lon="4.88429">
        <ele>283.799987793</ele>
        <time>2015-09-20T10:43:49.838Z</time>
      </trkpt>
      <trkpt lat="45.95866" lon="4.88421">
        <ele>283.899993896</ele>
        <time>2015-09-20T10:43:50.862Z</time>
      </trkpt>
      <trkpt lat="45.95866" lon="4.88412">
        <ele>283.899993896</ele>
        <time>2015-09-20T10:43:51.837Z</time>
      </trkpt>
      <trkpt lat="45.95865" lon="4.88403">
        <ele>284.100006104</ele>
        <time>2015-09-20T10:43:52.861Z</time>
      </trkpt>
      <trkpt lat="45.95865" lon="4.88394">
        <ele>284.200012207</ele>
        <time>2015-09-20T10:43:53.841Z</time>
      </trkpt>
      <trkpt lat="45.95864" lon="4.88385">
        <ele>284</ele>
        <time>2015-09-20T10:43:54.861Z</time>
      </trkpt>
      <trkpt lat="45.95864" lon="4.88376">
        <ele>284.200012207</ele>
        <time>2015-09-20T10:43:55.839Z</time>
      </trkpt>
      <trkpt lat="45.95863" lon="4.88367">
        <ele>284.200012207</ele>
        <time>2015-09-20T10:43:56.894Z</time>
      </trkpt>
      <trkpt lat="45.95863" lon="4.88359">
        <ele>284</ele>
        <time>2015-09-20T10:43:57.837Z</time>
      </trkpt>
      <trkpt lat="45.95863" lon="4.8835">
        <ele>284.100006104</ele>
        <time>2015-09-20T10:43:58.861Z</time>
      </trkpt>
      <trkpt lat="45.95863" lon="4.88341">
        <ele>284.200012207</ele>
        <time>2015-09-20T10:43:59.874Z</time>
      </trkpt>
      <trkpt lat="45.95862" lon="4.88333">
        <ele>284</ele>
        <time>2015-09-20T10:44:00.861Z</time>
      </trkpt>
      <trkpt lat="45.95862" lon="4.88324">
        <ele>284.200012207</ele>
        <time>2015-09-20T10:44:01.842Z</time>
      </trkpt>
      <trkpt lat="45.95861" lon="4.88315">
        <ele>284.200012207</ele>
        <time>2015-09-20T10:44:02.862Z</time>
      </trkpt>
      <trkpt lat="45.95861" lon="4.88306">
        <ele>284.200012207</ele>
        <time>2015-09-20T10:44:03.85Z</time>
      </trkpt>
      <trkpt lat="45.9586" lon="4.88297">
        <ele>283.899993896</ele>
        <time>2015-09-20T10:44:04.861Z</time>
      </trkpt>
      <trkpt lat="45.95859" lon="4.88288">
        <ele>283.700012207</ele>
        <time>2015-09-20T10:44:05.842Z</time>
      </trkpt>
      <trkpt lat="45.95859" lon="4.88279">
        <ele>283.600006104</ele>
        <time>2015-09-20T10:44:06.862Z</time>
      </trkpt>
      <trkpt lat="45.95858" lon="4.8827">
        <ele>283.700012207</ele>
        <time>2015-09-20T10:44:07.843Z</time>
      </trkpt>
      <trkpt lat="45.95858" lon="4.88262">
        <ele>283.600006104</ele>
        <time>2015-09-20T10:44:08.861Z</time>
      </trkpt>
      <trkpt lat="45.95858" lon="4.88254">
        <ele>283.399993896</ele>
        <time>2015-09-20T10:44:09.837Z</time>
      </trkpt>
      <trkpt lat="45.95858" lon="4.88247">
        <ele>283.5</ele>
        <time>2015-09-20T10:44:10.861Z</time>
      </trkpt>
      <trkpt lat="45.95858" lon="4.88239">
        <ele>283.5</ele>
        <time>2015-09-20T10:44:11.841Z</time>
      </trkpt>
      <trkpt lat="45.95857" lon="4.88231">
        <ele>283.700012207</ele>
        <time>2015-09-20T10:44:12.861Z</time>
      </trkpt>
      <trkpt lat="45.95856" lon="4.88223">
        <ele>283.600006104</ele>
        <time>2015-09-20T10:44:13.838Z</time>
      </trkpt>
      <trkpt lat="45.95855" lon="4.88216">
        <ele>283.700012207</ele>
        <time>2015-09-20T10:44:14.861Z</time>
      </trkpt>
      <trkpt lat="45.95855" lon="4.88208">
        <ele>283.700012207</ele>
        <time>2015-09-20T10:44:15.836Z</time>
      </trkpt>
      <trkpt lat="45.95855" lon="4.88201">
        <ele>283.600006104</ele>
        <time>2015-09-20T10:44:16.904Z</time>
      </trkpt>
      <trkpt lat="45.95855" lon="4.88193">
        <ele>283.399993896</ele>
        <time>2015-09-20T10:44:17.841Z</time>
      </trkpt>
      <trkpt lat="45.95854" lon="4.88185">
        <ele>283</ele>
        <time>2015-09-20T10:44:18.861Z</time>
      </trkpt>
      <trkpt lat="45.95854" lon="4.88177">
        <ele>283</ele>
        <time>2015-09-20T10:44:19.838Z</time>
      </trkpt>
      <trkpt lat="45.95854" lon="4.88169">
        <ele>283.200012207</ele>
        <time>2015-09-20T10:44:20.861Z</time>
      </trkpt>
      <trkpt lat="45.95854" lon="4.88161">
        <ele>283.200012207</ele>
        <time>2015-09-20T10:44:21.836Z</time>
      </trkpt>
      <trkpt lat="45.95854" lon="4.88152">
        <ele>283.399993896</ele>
        <time>2015-09-20T10:44:22.861Z</time>
      </trkpt>
      <trkpt lat="45.95854" lon="4.88144">
        <ele>283.600006104</ele>
        <time>2015-09-20T10:44:23.84Z</time>
      </trkpt>
      <trkpt lat="45.95854" lon="4.88136">
        <ele>283.700012207</ele>
        <time>2015-09-20T10:44:24.875Z</time>
      </trkpt>
      <trkpt lat="45.95853" lon="4.88128">
        <ele>283.799987793</ele>
        <time>2015-09-20T10:44:25.838Z</time>
      </trkpt>
      <trkpt lat="45.95853" lon="4.8812">
        <ele>284.100006104</ele>
        <time>2015-09-20T10:44:26.861Z</time>
      </trkpt>
      <trkpt lat="45.95853" lon="4.88112">
        <ele>284.700012207</ele>
        <time>2015-09-20T10:44:27.84Z</time>
      </trkpt>
      <trkpt lat="45.95853" lon="4.88104">
        <ele>284.600006104</ele>
        <time>2015-09-20T10:44:28.863Z</time>
      </trkpt>
      <trkpt lat="45.95852" lon="4.88096">
        <ele>284.799987793</ele>
        <time>2015-09-20T10:44:29.841Z</time>
      </trkpt>
      <trkpt lat="45.95852" lon="4.88088">
        <ele>285.100006104</ele>
        <time>2015-09-20T10:44:30.861Z</time>
      </trkpt>
      <trkpt lat="45.95851" lon="4.88079">
        <ele>285.299987793</ele>
        <time>2015-09-20T10:44:31.838Z</time>
      </trkpt>
      <trkpt lat="45.95851" lon="4.88071">
        <ele>285.299987793</ele>
        <time>2015-09-20T10:44:32.86Z</time>
      </trkpt>
      <trkpt lat="45.95851" lon="4.88064">
        <ele>285.299987793</ele>
        <time>2015-09-20T10:44:33.836Z</time>
      </trkpt>
      <trkpt lat="45.95851" lon="4.88055">
        <ele>285.399993896</ele>
        <time>2015-09-20T10:44:34.869Z</time>
      </trkpt>
      <trkpt lat="45.9585" lon="4.88047">
        <ele>285.399993896</ele>
        <time>2015-09-20T10:44:35.84Z</time>
      </trkpt>
      <trkpt lat="45.9585" lon="4.88039">
        <ele>285.299987793</ele>
        <time>2015-09-20T10:44:36.86Z</time>
      </trkpt>
      <trkpt lat="45.95849" lon="4.88031">
        <ele>285.399993896</ele>
        <time>2015-09-20T10:44:37.836Z</time>
      </trkpt>
      <trkpt lat="45.95849" lon="4.88022">
        <ele>285.399993896</ele>
        <time>2015-09-20T10:44:38.86Z</time>
      </trkpt>
      <trkpt lat="45.95848" lon="4.88014">
        <ele>285.299987793</ele>
        <time>2015-09-20T10:44:39.837Z</time>
      </trkpt>
      <trkpt lat="45.95848" lon="4.88005">
        <ele>285.399993896</ele>
        <time>2015-09-20T10:44:40.878Z</time>
      </trkpt>
      <trkpt lat="45.95847" lon="4.87997">
        <ele>285.200012207</ele>
        <time>2015-09-20T10:44:41.842Z</time>
      </trkpt>
      <trkpt lat="45.95846" lon="4.87989">
        <ele>285.200012207</ele>
        <time>2015-09-20T10:44:42.863Z</time>
      </trkpt>
      <trkpt lat="45.95846" lon="4.87981">
        <ele>285.399993896</ele>
        <time>2015-09-20T10:44:43.84Z</time>
      </trkpt>
      <trkpt lat="45.95846" lon="4.87972">
        <ele>285.600006104</ele>
        <time>2015-09-20T10:44:44.863Z</time>
      </trkpt>
      <trkpt lat="45.95846" lon="4.87964">
        <ele>286</ele>
        <time>2015-09-20T10:44:45.836Z</time>
      </trkpt>
      <trkpt lat="45.95846" lon="4.87955">
        <ele>286</ele>
        <time>2015-09-20T10:44:46.86Z</time>
      </trkpt>
      <trkpt lat="45.95846" lon="4.87947">
        <ele>286</ele>
        <time>2015-09-20T10:44:47.841Z</time>
      </trkpt>
      <trkpt lat="45.95845" lon="4.87939">
        <ele>285.899993896</ele>
        <time>2015-09-20T10:44:48.861Z</time>
      </trkpt>
      <trkpt lat="45.95845" lon="4.87931">
        <ele>285.600006104</ele>
        <time>2015-09-20T10:44:49.838Z</time>
      </trkpt>
      <trkpt lat="45.95845" lon="4.87924">
        <ele>285.600006104</ele>
        <time>2015-09-20T10:44:50.862Z</time>
      </trkpt>
      <trkpt lat="45.95844" lon="4.87916">
        <ele>285.299987793</ele>
        <time>2015-09-20T10:44:51.869Z</time>
      </trkpt>
      <trkpt lat="45.95843" lon="4.87908">
        <ele>285.399993896</ele>
        <time>2015-09-20T10:44:52.861Z</time>
      </trkpt>
      <trkpt lat="45.95843" lon="4.87899">
        <ele>285.5</ele>
        <time>2015-09-20T10:44:53.844Z</time>
      </trkpt>
      <trkpt lat="45.95842" lon="4.8789">
        <ele>285.200012207</ele>
        <time>2015-09-20T10:44:54.862Z</time>
      </trkpt>
      <trkpt lat="45.95841" lon="4.87881">
        <ele>285.299987793</ele>
        <time>2015-09-20T10:44:55.839Z</time>
      </trkpt>
      <trkpt lat="45.95841" lon="4.87872">
        <ele>285.600006104</ele>
        <time>2015-09-20T10:44:56.875Z</time>
      </trkpt>
      <trkpt lat="45.95841" lon="4.87863">
        <ele>285.700012207</ele>
        <time>2015-09-20T10:44:57.836Z</time>
      </trkpt>
      <trkpt lat="45.9584" lon="4.87854">
        <ele>285.799987793</ele>
        <time>2015-09-20T10:44:58.861Z</time>
      </trkpt>
      <trkpt lat="45.9584" lon="4.87844">
        <ele>285.799987793</ele>
        <time>2015-09-20T10:44:59.841Z</time>
      </trkpt>
      <trkpt lat="45.95839" lon="4.87835">
        <ele>285.899993896</ele>
        <time>2015-09-20T10:45:00.894Z</time>
      </trkpt>
      <trkpt lat="45.95839" lon="4.87825">
        <ele>286</ele>
        <time>2015-09-20T10:45:01.839Z</time>
      </trkpt>
      <trkpt lat="45.95838" lon="4.87816">
        <ele>285.5</ele>
        <time>2015-09-20T10:45:02.862Z</time>
      </trkpt>
      <trkpt lat="45.95836" lon="4.87806">
        <ele>285.399993896</ele>
        <time>2015-09-20T10:45:03.838Z</time>
      </trkpt>
      <trkpt lat="45.95835" lon="4.87796">
        <ele>285</ele>
        <time>2015-09-20T10:45:04.861Z</time>
      </trkpt>
      <trkpt lat="45.95833" lon="4.87786">
        <ele>284.700012207</ele>
        <time>2015-09-20T10:45:05.841Z</time>
      </trkpt>
      <trkpt lat="45.95832" lon="4.87776">
        <ele>284.399993896</ele>
        <time>2015-09-20T10:45:06.862Z</time>
      </trkpt>
      <trkpt lat="45.9583" lon="4.87765">
        <ele>284.200012207</ele>
        <time>2015-09-20T10:45:07.84Z</time>
      </trkpt>
      <trkpt lat="45.9583" lon="4.87755">
        <ele>285.100006104</ele>
        <time>2015-09-20T10:45:08.884Z</time>
      </trkpt>
      <trkpt lat="45.95828" lon="4.87745">
        <ele>284.5</ele>
        <time>2015-09-20T10:45:09.836Z</time>
      </trkpt>
      <trkpt lat="45.95827" lon="4.87734">
        <ele>284.200012207</ele>
        <time>2015-09-20T10:45:10.86Z</time>
      </trkpt>
      <trkpt lat="45.95824" lon="4.87724">
        <ele>283.899993896</ele>
        <time>2015-09-20T10:45:11.84Z</time>
      </trkpt>
      <trkpt lat="45.95821" lon="4.87714">
        <ele>283.5</ele>
        <time>2015-09-20T10:45:12.861Z</time>
      </trkpt>
      <trkpt lat="45.95819" lon="4.87703">
        <ele>283.200012207</ele>
        <time>2015-09-20T10:45:13.838Z</time>
      </trkpt>
      <trkpt lat="45.95816" lon="4.87692">
        <ele>283</ele>
        <time>2015-09-20T10:45:14.862Z</time>
      </trkpt>
      <trkpt lat="45.95813" lon="4.87682">
        <ele>282.5</ele>
        <time>2015-09-20T10:45:15.836Z</time>
      </trkpt>
      <trkpt lat="45.95811" lon="4.87671">
        <ele>282.399993896</ele>
        <time>2015-09-20T10:45:16.86Z</time>
      </trkpt>
      <trkpt lat="45.95808" lon="4.87661">
        <ele>282.399993896</ele>
        <time>2015-09-20T10:45:17.855Z</time>
      </trkpt>
      <trkpt lat="45.95804" lon="4.8765">
        <ele>282.100006104</ele>
        <time>2015-09-20T10:45:18.894Z</time>
      </trkpt>
      <trkpt lat="45.958" lon="4.8764">
        <ele>281.799987793</ele>
        <time>2015-09-20T10:45:19.841Z</time>
      </trkpt>
      <trkpt lat="45.95796" lon="4.8763">
        <ele>281.600006104</ele>
        <time>2015-09-20T10:45:20.861Z</time>
      </trkpt>
      <trkpt lat="45.95791" lon="4.8762">
        <ele>281.100006104</ele>
        <time>2015-09-20T10:45:21.836Z</time>
      </trkpt>
      <trkpt lat="45.95786" lon="4.87609">
        <ele>280.799987793</ele>
        <time>2015-09-20T10:45:22.895Z</time>
      </trkpt>
      <trkpt lat="45.9578" lon="4.87599">
        <ele>280.100006104</ele>
        <time>2015-09-20T10:45:23.842Z</time>
      </trkpt>
      <trkpt lat="45.9578" lon="4.87599">
        <ele>280.100006104</ele>
        <time>2015-09-20T10:45:23.867Z</time>
      </trkpt>
      <trkpt lat="45.95775" lon="4.87588">
        <ele>279.600006104</ele>
        <time>2015-09-20T10:45:24.838Z</time>
      </trkpt>
      <trkpt lat="45.95775" lon="4.87588">
        <ele>279.600006104</ele>
        <time>2015-09-20T10:45:24.863Z</time>
      </trkpt>
      <trkpt lat="45.95769" lon="4.87577">
        <ele>279.200012207</ele>
        <time>2015-09-20T10:45:25.838Z</time>
      </trkpt>
      <trkpt lat="45.95769" lon="4.87577">
        <ele>279.200012207</ele>
        <time>2015-09-20T10:45:25.881Z</time>
      </trkpt>
      <trkpt lat="45.95764" lon="4.87566">
        <ele>278.899993896</ele>
        <time>2015-09-20T10:45:26.837Z</time>
      </trkpt>
      <trkpt lat="45.95764" lon="4.87566">
        <ele>278.899993896</ele>
        <time>2015-09-20T10:45:26.862Z</time>
      </trkpt>
      <trkpt lat="45.95759" lon="4.87554">
        <ele>278.5</ele>
        <time>2015-09-20T10:45:27.836Z</time>
      </trkpt>
      <trkpt lat="45.95759" lon="4.87554">
        <ele>278.5</ele>
        <time>2015-09-20T10:45:27.867Z</time>
      </trkpt>
      <trkpt lat="45.95753" lon="4.87543">
        <ele>278.100006104</ele>
        <time>2015-09-20T10:45:28.837Z</time>
      </trkpt>
      <trkpt lat="45.95753" lon="4.87543">
        <ele>278.100006104</ele>
        <time>2015-09-20T10:45:28.864Z</time>
      </trkpt>
      <trkpt lat="45.95748" lon="4.87531">
        <ele>277.700012207</ele>
        <time>2015-09-20T10:45:29.841Z</time>
      </trkpt>
      <trkpt lat="45.95748" lon="4.87531">
        <ele>277.700012207</ele>
        <time>2015-09-20T10:45:29.868Z</time>
      </trkpt>
      <trkpt lat="45.95743" lon="4.8752">
        <ele>277.200012207</ele>
        <time>2015-09-20T10:45:30.838Z</time>
      </trkpt>
      <trkpt lat="45.95743" lon="4.8752">
        <ele>277.200012207</ele>
        <time>2015-09-20T10:45:30.865Z</time>
      </trkpt>
      <trkpt lat="45.95737" lon="4.87509">
        <ele>276.799987793</ele>
        <time>2015-09-20T10:45:31.839Z</time>
      </trkpt>
      <trkpt lat="45.95737" lon="4.87509">
        <ele>276.799987793</ele>
        <time>2015-09-20T10:45:31.87Z</time>
      </trkpt>
      <trkpt lat="45.95732" lon="4.87498">
        <ele>276.399993896</ele>
        <time>2015-09-20T10:45:32.837Z</time>
      </trkpt>
      <trkpt lat="45.95732" lon="4.87498">
        <ele>276.399993896</ele>
        <time>2015-09-20T10:45:32.863Z</time>
      </trkpt>
      <trkpt lat="45.95726" lon="4.87487">
        <ele>276.100006104</ele>
        <time>2015-09-20T10:45:33.837Z</time>
      </trkpt>
      <trkpt lat="45.95726" lon="4.87487">
        <ele>276.100006104</ele>
        <time>2015-09-20T10:45:33.864Z</time>
      </trkpt>
      <trkpt lat="45.95721" lon="4.87476">
        <ele>276</ele>
        <time>2015-09-20T10:45:34.836Z</time>
      </trkpt>
      <trkpt lat="45.95721" lon="4.87476">
        <ele>276</ele>
        <time>2015-09-20T10:45:34.862Z</time>
      </trkpt>
      <trkpt lat="45.95715" lon="4.87465">
        <ele>275.799987793</ele>
        <time>2015-09-20T10:45:35.842Z</time>
      </trkpt>
      <trkpt lat="45.95715" lon="4.87465">
        <ele>275.799987793</ele>
        <time>2015-09-20T10:45:35.869Z</time>
      </trkpt>
      <trkpt lat="45.9571" lon="4.87454">
        <ele>275.700012207</ele>
        <time>2015-09-20T10:45:36.836Z</time>
      </trkpt>
      <trkpt lat="45.9571" lon="4.87454">
        <ele>275.700012207</ele>
        <time>2015-09-20T10:45:36.863Z</time>
      </trkpt>
      <trkpt lat="45.95705" lon="4.87443">
        <ele>275.299987793</ele>
        <time>2015-09-20T10:45:37.839Z</time>
      </trkpt>
      <trkpt lat="45.957" lon="4.87432">
        <ele>275.200012207</ele>
        <time>2015-09-20T10:45:38.893Z</time>
      </trkpt>
      <trkpt lat="45.95695" lon="4.87422">
        <ele>275.200012207</ele>
        <time>2015-09-20T10:45:39.836Z</time>
      </trkpt>
      <trkpt lat="45.9569" lon="4.87412">
        <ele>275.100006104</ele>
        <time>2015-09-20T10:45:40.861Z</time>
      </trkpt>
      <trkpt lat="45.95685" lon="4.87402">
        <ele>275.299987793</ele>
        <time>2015-09-20T10:45:41.841Z</time>
      </trkpt>
      <trkpt lat="45.9568" lon="4.87392">
        <ele>275.299987793</ele>
        <time>2015-09-20T10:45:42.86Z</time>
      </trkpt>
      <trkpt lat="45.95676" lon="4.87383">
        <ele>275</ele>
        <time>2015-09-20T10:45:43.914Z</time>
      </trkpt>
      <trkpt lat="45.95671" lon="4.87373">
        <ele>274.899993896</ele>
        <time>2015-09-20T10:45:44.861Z</time>
      </trkpt>
      <trkpt lat="45.95666" lon="4.87363">
        <ele>275.100006104</ele>
        <time>2015-09-20T10:45:45.84Z</time>
      </trkpt>
      <trkpt lat="45.95662" lon="4.87354">
        <ele>274.899993896</ele>
        <time>2015-09-20T10:45:46.863Z</time>
      </trkpt>
      <trkpt lat="45.95658" lon="4.87345">
        <ele>274.799987793</ele>
        <time>2015-09-20T10:45:47.841Z</time>
      </trkpt>
      <trkpt lat="45.95653" lon="4.87336">
        <ele>274.799987793</ele>
        <time>2015-09-20T10:45:48.86Z</time>
      </trkpt>
      <trkpt lat="45.95648" lon="4.87326">
        <ele>274.600006104</ele>
        <time>2015-09-20T10:45:49.838Z</time>
      </trkpt>
      <trkpt lat="45.95643" lon="4.87316">
        <ele>274.799987793</ele>
        <time>2015-09-20T10:45:50.861Z</time>
      </trkpt>
      <trkpt lat="45.95638" lon="4.87306">
        <ele>274.399993896</ele>
        <time>2015-09-20T10:45:51.836Z</time>
      </trkpt>
      <trkpt lat="45.95634" lon="4.87296">
        <ele>274</ele>
        <time>2015-09-20T10:45:52.86Z</time>
      </trkpt>
      <trkpt lat="45.95629" lon="4.87286">
        <ele>273.600006104</ele>
        <time>2015-09-20T10:45:53.84Z</time>
      </trkpt>
      <trkpt lat="45.95624" lon="4.87276">
        <ele>273.399993896</ele>
        <time>2015-09-20T10:45:54.944Z</time>
      </trkpt>
      <trkpt lat="45.95619" lon="4.87266">
        <ele>273.299987793</ele>
        <time>2015-09-20T10:45:55.837Z</time>
      </trkpt>
      <trkpt lat="45.95615" lon="4.87257">
        <ele>273.100006104</ele>
        <time>2015-09-20T10:45:56.86Z</time>
      </trkpt>
      <trkpt lat="45.9561" lon="4.87247">
        <ele>272.600006104</ele>
        <time>2015-09-20T10:45:57.836Z</time>
      </trkpt>
      <trkpt lat="45.95604" lon="4.87237">
        <ele>272.299987793</ele>
        <time>2015-09-20T10:45:58.86Z</time>
      </trkpt>
      <trkpt lat="45.95599" lon="4.87226">
        <ele>272.100006104</ele>
        <time>2015-09-20T10:45:59.841Z</time>
      </trkpt>
      <trkpt lat="45.95594" lon="4.87216">
        <ele>271.700012207</ele>
        <time>2015-09-20T10:46:00.86Z</time>
      </trkpt>
      <trkpt lat="45.95589" lon="4.87205">
        <ele>271.600006104</ele>
        <time>2015-09-20T10:46:01.837Z</time>
      </trkpt>
      <trkpt lat="45.95584" lon="4.87195">
        <ele>271.100006104</ele>
        <time>2015-09-20T10:46:02.859Z</time>
      </trkpt>
      <trkpt lat="45.95579" lon="4.87185">
        <ele>270.600006104</ele>
        <time>2015-09-20T10:46:03.836Z</time>
      </trkpt>
      <trkpt lat="45.95574" lon="4.87174">
        <ele>270.399993896</ele>
        <time>2015-09-20T10:46:04.86Z</time>
      </trkpt>
      <trkpt lat="45.95569" lon="4.87164">
        <ele>270.5</ele>
        <time>2015-09-20T10:46:05.884Z</time>
      </trkpt>
      <trkpt lat="45.95564" lon="4.87154">
        <ele>270.600006104</ele>
        <time>2015-09-20T10:46:06.867Z</time>
      </trkpt>
      <trkpt lat="45.95559" lon="4.87144">
        <ele>270.5</ele>
        <time>2015-09-20T10:46:07.841Z</time>
      </trkpt>
      <trkpt lat="45.95554" lon="4.87135">
        <ele>270.399993896</ele>
        <time>2015-09-20T10:46:08.86Z</time>
      </trkpt>
      <trkpt lat="45.9555" lon="4.87126">
        <ele>270.100006104</ele>
        <time>2015-09-20T10:46:09.836Z</time>
      </trkpt>
      <trkpt lat="45.95545" lon="4.87116">
        <ele>270.100006104</ele>
        <time>2015-09-20T10:46:10.873Z</time>
      </trkpt>
      <trkpt lat="45.95541" lon="4.87107">
        <ele>269.799987793</ele>
        <time>2015-09-20T10:46:11.844Z</time>
      </trkpt>
      <trkpt lat="45.95536" lon="4.87098">
        <ele>269.600006104</ele>
        <time>2015-09-20T10:46:12.861Z</time>
      </trkpt>
      <trkpt lat="45.95532" lon="4.8709">
        <ele>269</ele>
        <time>2015-09-20T10:46:13.838Z</time>
      </trkpt>
      <trkpt lat="45.95527" lon="4.87082">
        <ele>268.600006104</ele>
        <time>2015-09-20T10:46:14.859Z</time>
      </trkpt>
      <trkpt lat="45.95523" lon="4.87074">
        <ele>268.5</ele>
        <time>2015-09-20T10:46:15.835Z</time>
      </trkpt>
      <trkpt lat="45.9552" lon="4.87067">
        <ele>269.200012207</ele>
        <time>2015-09-20T10:46:16.924Z</time>
      </trkpt>
      <trkpt lat="45.95516" lon="4.87059">
        <ele>269.200012207</ele>
        <time>2015-09-20T10:46:17.841Z</time>
      </trkpt>
      <trkpt lat="45.95513" lon="4.87052">
        <ele>269.200012207</ele>
        <time>2015-09-20T10:46:18.86Z</time>
      </trkpt>
      <trkpt lat="45.9551" lon="4.87044">
        <ele>269.200012207</ele>
        <time>2015-09-20T10:46:19.827Z</time>
      </trkpt>
      <trkpt lat="45.95506" lon="4.87036">
        <ele>269.299987793</ele>
        <time>2015-09-20T10:46:20.86Z</time>
      </trkpt>
      <trkpt lat="45.95502" lon="4.87028">
        <ele>269.399993896</ele>
        <time>2015-09-20T10:46:21.836Z</time>
      </trkpt>
      <trkpt lat="45.95498" lon="4.87021">
        <ele>269.299987793</ele>
        <time>2015-09-20T10:46:22.861Z</time>
      </trkpt>
      <trkpt lat="45.95494" lon="4.87013">
        <ele>269.399993896</ele>
        <time>2015-09-20T10:46:23.841Z</time>
      </trkpt>
      <trkpt lat="45.95491" lon="4.87005">
        <ele>269.5</ele>
        <time>2015-09-20T10:46:24.86Z</time>
      </trkpt>
      <trkpt lat="45.95487" lon="4.86997">
        <ele>269.600006104</ele>
        <time>2015-09-20T10:46:25.837Z</time>
      </trkpt>
      <trkpt lat="45.95483" lon="4.86989">
        <ele>269.700012207</ele>
        <time>2015-09-20T10:46:26.882Z</time>
      </trkpt>
      <trkpt lat="45.95479" lon="4.86981">
        <ele>269.799987793</ele>
        <time>2015-09-20T10:46:27.835Z</time>
      </trkpt>
      <trkpt lat="45.95475" lon="4.86973">
        <ele>269.799987793</ele>
        <time>2015-09-20T10:46:28.861Z</time>
      </trkpt>
      <trkpt lat="45.95471" lon="4.86964">
        <ele>269.299987793</ele>
        <time>2015-09-20T10:46:29.841Z</time>
      </trkpt>
      <trkpt lat="45.95466" lon="4.86955">
        <ele>269.5</ele>
        <time>2015-09-20T10:46:30.86Z</time>
      </trkpt>
      <trkpt lat="45.95462" lon="4.86946">
        <ele>269.700012207</ele>
        <time>2015-09-20T10:46:31.837Z</time>
      </trkpt>
      <trkpt lat="45.95458" lon="4.86937">
        <ele>269.399993896</ele>
        <time>2015-09-20T10:46:32.86Z</time>
      </trkpt>
      <trkpt lat="45.95453" lon="4.86928">
        <ele>269.299987793</ele>
        <time>2015-09-20T10:46:33.836Z</time>
      </trkpt>
      <trkpt lat="45.95449" lon="4.8692">
        <ele>269.299987793</ele>
        <time>2015-09-20T10:46:34.86Z</time>
      </trkpt>
      <trkpt lat="45.95445" lon="4.86911">
        <ele>269.200012207</ele>
        <time>2015-09-20T10:46:35.84Z</time>
      </trkpt>
      <trkpt lat="45.9544" lon="4.86902">
        <ele>269.5</ele>
        <time>2015-09-20T10:46:36.86Z</time>
      </trkpt>
      <trkpt lat="45.95436" lon="4.86894">
        <ele>269.700012207</ele>
        <time>2015-09-20T10:46:37.842Z</time>
      </trkpt>
      <trkpt lat="45.95432" lon="4.86886">
        <ele>269.600006104</ele>
        <time>2015-09-20T10:46:38.934Z</time>
      </trkpt>
      <trkpt lat="45.95428" lon="4.86878">
        <ele>269.799987793</ele>
        <time>2015-09-20T10:46:39.836Z</time>
      </trkpt>
      <trkpt lat="45.95424" lon="4.86871">
        <ele>269.799987793</ele>
        <time>2015-09-20T10:46:40.86Z</time>
      </trkpt>
      <trkpt lat="45.9542" lon="4.86863">
        <ele>269.600006104</ele>
        <time>2015-09-20T10:46:41.84Z</time>
      </trkpt>
      <trkpt lat="45.95416" lon="4.86855">
        <ele>269.5</ele>
        <time>2015-09-20T10:46:42.874Z</time>
      </trkpt>
      <trkpt lat="45.95412" lon="4.86847">
        <ele>269.600006104</ele>
        <time>2015-09-20T10:46:43.837Z</time>
      </trkpt>
      <trkpt lat="45.95408" lon="4.86839">
        <ele>269.399993896</ele>
        <time>2015-09-20T10:46:44.861Z</time>
      </trkpt>
      <trkpt lat="45.95404" lon="4.86831">
        <ele>269.700012207</ele>
        <time>2015-09-20T10:46:45.836Z</time>
      </trkpt>
      <trkpt lat="45.95401" lon="4.86824">
        <ele>269.899993896</ele>
        <time>2015-09-20T10:46:46.86Z</time>
      </trkpt>
      <trkpt lat="45.95396" lon="4.86816">
        <ele>269.600006104</ele>
        <time>2015-09-20T10:46:47.84Z</time>
      </trkpt>
      <trkpt lat="45.95391" lon="4.86808">
        <ele>269.399993896</ele>
        <time>2015-09-20T10:46:48.934Z</time>
      </trkpt>
      <trkpt lat="45.95387" lon="4.868">
        <ele>269.5</ele>
        <time>2015-09-20T10:46:49.837Z</time>
      </trkpt>
      <trkpt lat="45.95383" lon="4.86792">
        <ele>269.700012207</ele>
        <time>2015-09-20T10:46:50.86Z</time>
      </trkpt>
      <trkpt lat="45.95379" lon="4.86785">
        <ele>269.600006104</ele>
        <time>2015-09-20T10:46:51.836Z</time>
      </trkpt>
      <trkpt lat="45.95376" lon="4.86777">
        <ele>269.899993896</ele>
        <time>2015-09-20T10:46:52.894Z</time>
      </trkpt>
      <trkpt lat="45.95373" lon="4.86768">
        <ele>269.899993896</ele>
        <time>2015-09-20T10:46:53.84Z</time>
      </trkpt>
      <trkpt lat="45.95369" lon="4.8676">
        <ele>269.799987793</ele>
        <time>2015-09-20T10:46:54.86Z</time>
      </trkpt>
      <trkpt lat="45.95365" lon="4.86752">
        <ele>269.799987793</ele>
        <time>2015-09-20T10:46:55.837Z</time>
      </trkpt>
      <trkpt lat="45.95361" lon="4.86744">
        <ele>270</ele>
        <time>2015-09-20T10:46:56.86Z</time>
      </trkpt>
      <trkpt lat="45.95358" lon="4.86736">
        <ele>270.100006104</ele>
        <time>2015-09-20T10:46:57.835Z</time>
      </trkpt>
      <trkpt lat="45.95354" lon="4.86728">
        <ele>269.899993896</ele>
        <time>2015-09-20T10:46:58.894Z</time>
      </trkpt>
      <trkpt lat="45.9535" lon="4.8672">
        <ele>269.799987793</ele>
        <time>2015-09-20T10:46:59.84Z</time>
      </trkpt>
      <trkpt lat="45.95347" lon="4.86712">
        <ele>269.899993896</ele>
        <time>2015-09-20T10:47:00.893Z</time>
      </trkpt>
      <trkpt lat="45.95343" lon="4.86704">
        <ele>270.100006104</ele>
        <time>2015-09-20T10:47:01.837Z</time>
      </trkpt>
      <trkpt lat="45.9534" lon="4.86697">
        <ele>270.100006104</ele>
        <time>2015-09-20T10:47:02.86Z</time>
      </trkpt>
      <trkpt lat="45.95336" lon="4.86689">
        <ele>269.899993896</ele>
        <time>2015-09-20T10:47:03.839Z</time>
      </trkpt>
      <trkpt lat="45.95332" lon="4.86682">
        <ele>270</ele>
        <time>2015-09-20T10:47:04.861Z</time>
      </trkpt>
      <trkpt lat="45.95329" lon="4.86675">
        <ele>270</ele>
        <time>2015-09-20T10:47:05.84Z</time>
      </trkpt>
      <trkpt lat="45.95325" lon="4.86668">
        <ele>269.899993896</ele>
        <time>2015-09-20T10:47:06.86Z</time>
      </trkpt>
      <trkpt lat="45.95321" lon="4.86661">
        <ele>269.700012207</ele>
        <time>2015-09-20T10:47:07.839Z</time>
      </trkpt>
      <trkpt lat="45.95317" lon="4.86653">
        <ele>269.5</ele>
        <time>2015-09-20T10:47:08.875Z</time>
      </trkpt>
      <trkpt lat="45.95313" lon="4.86646">
        <ele>269.100006104</ele>
        <time>2015-09-20T10:47:09.858Z</time>
      </trkpt>
      <trkpt lat="45.95309" lon="4.86638">
        <ele>268.700012207</ele>
        <time>2015-09-20T10:47:10.86Z</time>
      </trkpt>
      <trkpt lat="45.95305" lon="4.8663">
        <ele>268.299987793</ele>
        <time>2015-09-20T10:47:11.84Z</time>
      </trkpt>
      <trkpt lat="45.953" lon="4.86621">
        <ele>267.700012207</ele>
        <time>2015-09-20T10:47:12.86Z</time>
      </trkpt>
      <trkpt lat="45.95296" lon="4.86612">
        <ele>267.200012207</ele>
        <time>2015-09-20T10:47:13.837Z</time>
      </trkpt>
      <trkpt lat="45.95291" lon="4.86604">
        <ele>266.799987793</ele>
        <time>2015-09-20T10:47:14.865Z</time>
      </trkpt>
      <trkpt lat="45.95286" lon="4.86595">
        <ele>266.200012207</ele>
        <time>2015-09-20T10:47:15.835Z</time>
      </trkpt>
      <trkpt lat="45.95281" lon="4.86586">
        <ele>265.700012207</ele>
        <time>2015-09-20T10:47:16.86Z</time>
      </trkpt>
      <trkpt lat="45.95276" lon="4.86577">
        <ele>265.299987793</ele>
        <time>2015-09-20T10:47:17.84Z</time>
      </trkpt>
      <trkpt lat="45.9527" lon="4.86569">
        <ele>264.899993896</ele>
        <time>2015-09-20T10:47:18.861Z</time>
      </trkpt>
      <trkpt lat="45.95264" lon="4.86561">
        <ele>264.5</ele>
        <time>2015-09-20T10:47:19.837Z</time>
      </trkpt>
      <trkpt lat="45.95258" lon="4.86553">
        <ele>264.200012207</ele>
        <time>2015-09-20T10:47:20.861Z</time>
      </trkpt>
      <trkpt lat="45.95252" lon="4.86545">
        <ele>264</ele>
        <time>2015-09-20T10:47:21.837Z</time>
      </trkpt>
      <trkpt lat="45.95246" lon="4.86537">
        <ele>263.700012207</ele>
        <time>2015-09-20T10:47:22.86Z</time>
      </trkpt>
      <trkpt lat="45.9524" lon="4.86531">
        <ele>263.700012207</ele>
        <time>2015-09-20T10:47:23.84Z</time>
      </trkpt>
      <trkpt lat="45.95235" lon="4.86524">
        <ele>263.5</ele>
        <time>2015-09-20T10:47:24.874Z</time>
      </trkpt>
      <trkpt lat="45.95228" lon="4.86518">
        <ele>263.399993896</ele>
        <time>2015-09-20T10:47:25.836Z</time>
      </trkpt>
      <trkpt lat="45.95223" lon="4.86511">
        <ele>263.399993896</ele>
        <time>2015-09-20T10:47:26.86Z</time>
      </trkpt>
      <trkpt lat="45.95217" lon="4.86504">
        <ele>263.5</ele>
        <time>2015-09-20T10:47:27.836Z</time>
      </trkpt>
      <trkpt lat="45.95212" lon="4.86498">
        <ele>263.700012207</ele>
        <time>2015-09-20T10:47:28.86Z</time>
      </trkpt>
      <trkpt lat="45.95207" lon="4.86492">
        <ele>263.600006104</ele>
        <time>2015-09-20T10:47:29.845Z</time>
      </trkpt>
      <trkpt lat="45.95202" lon="4.86487">
        <ele>263.700012207</ele>
        <time>2015-09-20T10:47:30.861Z</time>
      </trkpt>
      <trkpt lat="45.95198" lon="4.86481">
        <ele>263.799987793</ele>
        <time>2015-09-20T10:47:31.836Z</time>
      </trkpt>
      <trkpt lat="45.95193" lon="4.86475">
        <ele>264</ele>
        <time>2015-09-20T10:47:32.861Z</time>
      </trkpt>
      <trkpt lat="45.95189" lon="4.86469">
        <ele>264.100006104</ele>
        <time>2015-09-20T10:47:33.836Z</time>
      </trkpt>
      <trkpt lat="45.95185" lon="4.86463">
        <ele>264.200012207</ele>
        <time>2015-09-20T10:47:34.866Z</time>
      </trkpt>
      <trkpt lat="45.9518" lon="4.86458">
        <ele>264.600006104</ele>
        <time>2015-09-20T10:47:35.84Z</time>
      </trkpt>
      <trkpt lat="45.95176" lon="4.86452">
        <ele>265</ele>
        <time>2015-09-20T10:47:36.906Z</time>
      </trkpt>
      <trkpt lat="45.95172" lon="4.86448">
        <ele>265</ele>
        <time>2015-09-20T10:47:37.836Z</time>
      </trkpt>
      <trkpt lat="45.95167" lon="4.86443">
        <ele>265.200012207</ele>
        <time>2015-09-20T10:47:38.86Z</time>
      </trkpt>
      <trkpt lat="45.95163" lon="4.86438">
        <ele>265.299987793</ele>
        <time>2015-09-20T10:47:39.836Z</time>
      </trkpt>
      <trkpt lat="45.95159" lon="4.86433">
        <ele>265.399993896</ele>
        <time>2015-09-20T10:47:40.887Z</time>
      </trkpt>
      <trkpt lat="45.95155" lon="4.86427">
        <ele>265.399993896</ele>
        <time>2015-09-20T10:47:41.839Z</time>
      </trkpt>
      <trkpt lat="45.95151" lon="4.86422">
        <ele>265.600006104</ele>
        <time>2015-09-20T10:47:42.86Z</time>
      </trkpt>
      <trkpt lat="45.95146" lon="4.86416">
        <ele>265.700012207</ele>
        <time>2015-09-20T10:47:43.837Z</time>
      </trkpt>
      <trkpt lat="45.95142" lon="4.8641">
        <ele>265.700012207</ele>
        <time>2015-09-20T10:47:44.86Z</time>
      </trkpt>
      <trkpt lat="45.95137" lon="4.86405">
        <ele>265.899993896</ele>
        <time>2015-09-20T10:47:45.835Z</time>
      </trkpt>
      <trkpt lat="45.95132" lon="4.864">
        <ele>266</ele>
        <time>2015-09-20T10:47:46.86Z</time>
      </trkpt>
      <trkpt lat="45.95127" lon="4.86395">
        <ele>266</ele>
        <time>2015-09-20T10:47:47.84Z</time>
      </trkpt>
      <trkpt lat="45.95123" lon="4.86389">
        <ele>266.100006104</ele>
        <time>2015-09-20T10:47:48.86Z</time>
      </trkpt>
      <trkpt lat="45.95118" lon="4.86384">
        <ele>266.299987793</ele>
        <time>2015-09-20T10:47:49.837Z</time>
      </trkpt>
      <trkpt lat="45.95113" lon="4.86378">
        <ele>266.299987793</ele>
        <time>2015-09-20T10:47:50.86Z</time>
      </trkpt>
      <trkpt lat="45.95109" lon="4.86372">
        <ele>266.399993896</ele>
        <time>2015-09-20T10:47:51.836Z</time>
      </trkpt>
      <trkpt lat="45.95105" lon="4.86366">
        <ele>266.5</ele>
        <time>2015-09-20T10:47:52.86Z</time>
      </trkpt>
      <trkpt lat="45.951" lon="4.86361">
        <ele>266.5</ele>
        <time>2015-09-20T10:47:53.84Z</time>
      </trkpt>
      <trkpt lat="45.95095" lon="4.86356">
        <ele>266.5</ele>
        <time>2015-09-20T10:47:54.86Z</time>
      </trkpt>
      <trkpt lat="45.95091" lon="4.8635">
        <ele>266.600006104</ele>
        <time>2015-09-20T10:47:55.842Z</time>
      </trkpt>
      <trkpt lat="45.95086" lon="4.86345">
        <ele>266.700012207</ele>
        <time>2015-09-20T10:47:56.876Z</time>
      </trkpt>
      <trkpt lat="45.95082" lon="4.8634">
        <ele>266.799987793</ele>
        <time>2015-09-20T10:47:57.835Z</time>
      </trkpt>
      <trkpt lat="45.95078" lon="4.86334">
        <ele>266.899993896</ele>
        <time>2015-09-20T10:47:58.86Z</time>
      </trkpt>
      <trkpt lat="45.95074" lon="4.86329">
        <ele>266.899993896</ele>
        <time>2015-09-20T10:47:59.84Z</time>
      </trkpt>
      <trkpt lat="45.95069" lon="4.86323">
        <ele>267</ele>
        <time>2015-09-20T10:48:00.86Z</time>
      </trkpt>
      <trkpt lat="45.95065" lon="4.86318">
        <ele>267</ele>
        <time>2015-09-20T10:48:01.837Z</time>
      </trkpt>
      <trkpt lat="45.95061" lon="4.86313">
        <ele>267.100006104</ele>
        <time>2015-09-20T10:48:02.863Z</time>
      </trkpt>
      <trkpt lat="45.95056" lon="4.86307">
        <ele>267.299987793</ele>
        <time>2015-09-20T10:48:03.858Z</time>
      </trkpt>
      <trkpt lat="45.95052" lon="4.86302">
        <ele>267.399993896</ele>
        <time>2015-09-20T10:48:04.86Z</time>
      </trkpt>
      <trkpt lat="45.95048" lon="4.86297">
        <ele>267.600006104</ele>
        <time>2015-09-20T10:48:05.84Z</time>
      </trkpt>
      <trkpt lat="45.95044" lon="4.86292">
        <ele>267.799987793</ele>
        <time>2015-09-20T10:48:06.859Z</time>
      </trkpt>
      <trkpt lat="45.9504" lon="4.86288">
        <ele>268</ele>
        <time>2015-09-20T10:48:07.84Z</time>
      </trkpt>
      <trkpt lat="45.95036" lon="4.86282">
        <ele>268.299987793</ele>
        <time>2015-09-20T10:48:08.865Z</time>
      </trkpt>
      <trkpt lat="45.95032" lon="4.86277">
        <ele>268.600006104</ele>
        <time>2015-09-20T10:48:09.836Z</time>
      </trkpt>
      <trkpt lat="45.95028" lon="4.86273">
        <ele>268.799987793</ele>
        <time>2015-09-20T10:48:10.86Z</time>
      </trkpt>
      <trkpt lat="45.95024" lon="4.86268">
        <ele>269.100006104</ele>
        <time>2015-09-20T10:48:11.84Z</time>
      </trkpt>
      <trkpt lat="45.9502" lon="4.86263">
        <ele>269.299987793</ele>
        <time>2015-09-20T10:48:12.86Z</time>
      </trkpt>
      <trkpt lat="45.95016" lon="4.86258">
        <ele>269.5</ele>
        <time>2015-09-20T10:48:13.836Z</time>
      </trkpt>
      <trkpt lat="45.95012" lon="4.86253">
        <ele>269.700012207</ele>
        <time>2015-09-20T10:48:14.859Z</time>
      </trkpt>
      <trkpt lat="45.95009" lon="4.86248">
        <ele>269.799987793</ele>
        <time>2015-09-20T10:48:15.835Z</time>
      </trkpt>
      <trkpt lat="45.95005" lon="4.86244">
        <ele>269.899993896</ele>
        <time>2015-09-20T10:48:16.86Z</time>
      </trkpt>
      <trkpt lat="45.95001" lon="4.86239">
        <ele>270</ele>
        <time>2015-09-20T10:48:17.855Z</time>
      </trkpt>
      <trkpt lat="45.94997" lon="4.86234">
        <ele>270.100006104</ele>
        <time>2015-09-20T10:48:18.86Z</time>
      </trkpt>
      <trkpt lat="45.94994" lon="4.86229">
        <ele>270.200012207</ele>
        <time>2015-09-20T10:48:19.836Z</time>
      </trkpt>
      <trkpt lat="45.9499" lon="4.86225">
        <ele>270.299987793</ele>
        <time>2015-09-20T10:48:20.87Z</time>
      </trkpt>
      <trkpt lat="45.94987" lon="4.86221">
        <ele>270.799987793</ele>
        <time>2015-09-20T10:48:21.839Z</time>
      </trkpt>
      <trkpt lat="45.94983" lon="4.86216">
        <ele>270.899993896</ele>
        <time>2015-09-20T10:48:22.91Z</time>
      </trkpt>
      <trkpt lat="45.94979" lon="4.86212">
        <ele>271.100006104</ele>
        <time>2015-09-20T10:48:23.84Z</time>
      </trkpt>
      <trkpt lat="45.94976" lon="4.86207">
        <ele>271</ele>
        <time>2015-09-20T10:48:24.86Z</time>
      </trkpt>
      <trkpt lat="45.94972" lon="4.86203">
        <ele>271.200012207</ele>
        <time>2015-09-20T10:48:25.836Z</time>
      </trkpt>
      <trkpt lat="45.94968" lon="4.86199">
        <ele>271.5</ele>
        <time>2015-09-20T10:48:27.059Z</time>
      </trkpt>
      <trkpt lat="45.94964" lon="4.86194">
        <ele>271.600006104</ele>
        <time>2015-09-20T10:48:27.836Z</time>
      </trkpt>
      <trkpt lat="45.9496" lon="4.86189">
        <ele>271.5</ele>
        <time>2015-09-20T10:48:28.86Z</time>
      </trkpt>
      <trkpt lat="45.94956" lon="4.86184">
        <ele>271.700012207</ele>
        <time>2015-09-20T10:48:29.84Z</time>
      </trkpt>
      <trkpt lat="45.94952" lon="4.86179">
        <ele>271.799987793</ele>
        <time>2015-09-20T10:48:30.86Z</time>
      </trkpt>
      <trkpt lat="45.94948" lon="4.86173">
        <ele>271.899993896</ele>
        <time>2015-09-20T10:48:31.837Z</time>
      </trkpt>
      <trkpt lat="45.94944" lon="4.86168">
        <ele>272</ele>
        <time>2015-09-20T10:48:32.861Z</time>
      </trkpt>
      <trkpt lat="45.9494" lon="4.86163">
        <ele>272.200012207</ele>
        <time>2015-09-20T10:48:33.836Z</time>
      </trkpt>
      <trkpt lat="45.94937" lon="4.86157">
        <ele>272.299987793</ele>
        <time>2015-09-20T10:48:34.86Z</time>
      </trkpt>
      <trkpt lat="45.94933" lon="4.86152">
        <ele>272.299987793</ele>
        <time>2015-09-20T10:48:35.84Z</time>
      </trkpt>
      <trkpt lat="45.94929" lon="4.86146">
        <ele>272.399993896</ele>
        <time>2015-09-20T10:48:36.894Z</time>
      </trkpt>
      <trkpt lat="45.94925" lon="4.8614">
        <ele>272.299987793</ele>
        <time>2015-09-20T10:48:37.838Z</time>
      </trkpt>
      <trkpt lat="45.94922" lon="4.86134">
        <ele>272.399993896</ele>
        <time>2015-09-20T10:48:38.874Z</time>
      </trkpt>
      <trkpt lat="45.94918" lon="4.86128">
        <ele>272.600006104</ele>
        <time>2015-09-20T10:48:39.836Z</time>
      </trkpt>
      <trkpt lat="45.94915" lon="4.86122">
        <ele>272.799987793</ele>
        <time>2015-09-20T10:48:40.861Z</time>
      </trkpt>
      <trkpt lat="45.94912" lon="4.86116">
        <ele>273</ele>
        <time>2015-09-20T10:48:41.84Z</time>
      </trkpt>
      <trkpt lat="45.94909" lon="4.8611">
        <ele>273.200012207</ele>
        <time>2015-09-20T10:48:42.892Z</time>
      </trkpt>
      <trkpt lat="45.94906" lon="4.86103">
        <ele>273.399993896</ele>
        <time>2015-09-20T10:48:43.837Z</time>
      </trkpt>
      <trkpt lat="45.94904" lon="4.86097">
        <ele>273.5</ele>
        <time>2015-09-20T10:48:44.86Z</time>
      </trkpt>
      <trkpt lat="45.94901" lon="4.8609">
        <ele>273.600006104</ele>
        <time>2015-09-20T10:48:45.835Z</time>
      </trkpt>
      <trkpt lat="45.94899" lon="4.86083">
        <ele>273.600006104</ele>
        <time>2015-09-20T10:48:46.86Z</time>
      </trkpt>
      <trkpt lat="45.94897" lon="4.86076">
        <ele>273.700012207</ele>
        <time>2015-09-20T10:48:47.845Z</time>
      </trkpt>
      <trkpt lat="45.94894" lon="4.86069">
        <ele>273.700012207</ele>
        <time>2015-09-20T10:48:48.904Z</time>
      </trkpt>
      <trkpt lat="45.94892" lon="4.86062">
        <ele>273.700012207</ele>
        <time>2015-09-20T10:48:49.837Z</time>
      </trkpt>
      <trkpt lat="45.9489" lon="4.86055">
        <ele>273.700012207</ele>
        <time>2015-09-20T10:48:50.909Z</time>
      </trkpt>
      <trkpt lat="45.94888" lon="4.86047">
        <ele>273.700012207</ele>
        <time>2015-09-20T10:48:51.835Z</time>
      </trkpt>
      <trkpt lat="45.94886" lon="4.8604">
        <ele>273.700012207</ele>
        <time>2015-09-20T10:48:52.86Z</time>
      </trkpt>
      <trkpt lat="45.94884" lon="4.86032">
        <ele>273.700012207</ele>
        <time>2015-09-20T10:48:53.84Z</time>
      </trkpt>
      <trkpt lat="45.94882" lon="4.86024">
        <ele>273.799987793</ele>
        <time>2015-09-20T10:48:54.859Z</time>
      </trkpt>
      <trkpt lat="45.9488" lon="4.86016">
        <ele>273.600006104</ele>
        <time>2015-09-20T10:48:55.836Z</time>
      </trkpt>
      <trkpt lat="45.94879" lon="4.86009">
        <ele>273.399993896</ele>
        <time>2015-09-20T10:48:56.859Z</time>
      </trkpt>
      <trkpt lat="45.94876" lon="4.86002">
        <ele>273.200012207</ele>
        <time>2015-09-20T10:48:57.858Z</time>
      </trkpt>
      <trkpt lat="45.94874" lon="4.85994">
        <ele>273.299987793</ele>
        <time>2015-09-20T10:48:58.859Z</time>
      </trkpt>
      <trkpt lat="45.94872" lon="4.85987">
        <ele>273.299987793</ele>
        <time>2015-09-20T10:48:59.84Z</time>
      </trkpt>
      <trkpt lat="45.9487" lon="4.85979">
        <ele>273.299987793</ele>
        <time>2015-09-20T10:49:00.875Z</time>
      </trkpt>
      <trkpt lat="45.94868" lon="4.85971">
        <ele>273.399993896</ele>
        <time>2015-09-20T10:49:01.837Z</time>
      </trkpt>
      <trkpt lat="45.94866" lon="4.85964">
        <ele>273.600006104</ele>
        <time>2015-09-20T10:49:02.898Z</time>
      </trkpt>
      <trkpt lat="45.94864" lon="4.85956">
        <ele>273.700012207</ele>
        <time>2015-09-20T10:49:03.835Z</time>
      </trkpt>
      <trkpt lat="45.94862" lon="4.85949">
        <ele>273.899993896</ele>
        <time>2015-09-20T10:49:04.924Z</time>
      </trkpt>
      <trkpt lat="45.9486" lon="4.85942">
        <ele>274.600006104</ele>
        <time>2015-09-20T10:49:05.84Z</time>
      </trkpt>
      <trkpt lat="45.94859" lon="4.85934">
        <ele>275</ele>
        <time>2015-09-20T10:49:06.859Z</time>
      </trkpt>
      <trkpt lat="45.94857" lon="4.85927">
        <ele>275.100006104</ele>
        <time>2015-09-20T10:49:07.839Z</time>
      </trkpt>
      <trkpt lat="45.94855" lon="4.8592">
        <ele>275.200012207</ele>
        <time>2015-09-20T10:49:08.954Z</time>
      </trkpt>
      <trkpt lat="45.94853" lon="4.85912">
        <ele>275.100006104</ele>
        <time>2015-09-20T10:49:09.836Z</time>
      </trkpt>
      <trkpt lat="45.94851" lon="4.85905">
        <ele>275.100006104</ele>
        <time>2015-09-20T10:49:10.86Z</time>
      </trkpt>
      <trkpt lat="45.9485" lon="4.85898">
        <ele>275.399993896</ele>
        <time>2015-09-20T10:49:11.84Z</time>
      </trkpt>
      <trkpt lat="45.94848" lon="4.8589">
        <ele>275.5</ele>
        <time>2015-09-20T10:49:12.86Z</time>
      </trkpt>
      <trkpt lat="45.94846" lon="4.85883">
        <ele>275.799987793</ele>
        <time>2015-09-20T10:49:13.842Z</time>
      </trkpt>
      <trkpt lat="45.94844" lon="4.85876">
        <ele>275.899993896</ele>
        <time>2015-09-20T10:49:14.861Z</time>
      </trkpt>
      <trkpt lat="45.94842" lon="4.85869">
        <ele>275.899993896</ele>
        <time>2015-09-20T10:49:15.835Z</time>
      </trkpt>
      <trkpt lat="45.94841" lon="4.85863">
        <ele>276.100006104</ele>
        <time>2015-09-20T10:49:16.86Z</time>
      </trkpt>
      <trkpt lat="45.94839" lon="4.85856">
        <ele>276.100006104</ele>
        <time>2015-09-20T10:49:17.839Z</time>
      </trkpt>
      <trkpt lat="45.94837" lon="4.85849">
        <ele>276.200012207</ele>
        <time>2015-09-20T10:49:18.859Z</time>
      </trkpt>
      <trkpt lat="45.94835" lon="4.85842">
        <ele>276.200012207</ele>
        <time>2015-09-20T10:49:19.836Z</time>
      </trkpt>
      <trkpt lat="45.94833" lon="4.85836">
        <ele>276.600006104</ele>
        <time>2015-09-20T10:49:20.873Z</time>
      </trkpt>
      <trkpt lat="45.9483" lon="4.85829">
        <ele>276.600006104</ele>
        <time>2015-09-20T10:49:21.835Z</time>
      </trkpt>
      <trkpt lat="45.94828" lon="4.85821">
        <ele>276.5</ele>
        <time>2015-09-20T10:49:22.86Z</time>
      </trkpt>
      <trkpt lat="45.94826" lon="4.85814">
        <ele>276.5</ele>
        <time>2015-09-20T10:49:23.84Z</time>
      </trkpt>
      <trkpt lat="45.94824" lon="4.85807">
        <ele>276.600006104</ele>
        <time>2015-09-20T10:49:24.859Z</time>
      </trkpt>
      <trkpt lat="45.94822" lon="4.85799">
        <ele>276.700012207</ele>
        <time>2015-09-20T10:49:25.836Z</time>
      </trkpt>
      <trkpt lat="45.94821" lon="4.85792">
        <ele>276.700012207</ele>
        <time>2015-09-20T10:49:26.86Z</time>
      </trkpt>
      <trkpt lat="45.94819" lon="4.85785">
        <ele>276.799987793</ele>
        <time>2015-09-20T10:49:27.835Z</time>
      </trkpt>
      <trkpt lat="45.94818" lon="4.85777">
        <ele>276.899993896</ele>
        <time>2015-09-20T10:49:28.859Z</time>
      </trkpt>
      <trkpt lat="45.94816" lon="4.8577">
        <ele>277</ele>
        <time>2015-09-20T10:49:29.84Z</time>
      </trkpt>
      <trkpt lat="45.94814" lon="4.85763">
        <ele>277</ele>
        <time>2015-09-20T10:49:30.86Z</time>
      </trkpt>
      <trkpt lat="45.94812" lon="4.85756">
        <ele>277.100006104</ele>
        <time>2015-09-20T10:49:31.837Z</time>
      </trkpt>
      <trkpt lat="45.9481" lon="4.85749">
        <ele>277.299987793</ele>
        <time>2015-09-20T10:49:32.86Z</time>
      </trkpt>
      <trkpt lat="45.94809" lon="4.85742">
        <ele>277.399993896</ele>
        <time>2015-09-20T10:49:33.835Z</time>
      </trkpt>
      <trkpt lat="45.94807" lon="4.85735">
        <ele>277.600006104</ele>
        <time>2015-09-20T10:49:34.86Z</time>
      </trkpt>
      <trkpt lat="45.94805" lon="4.85729">
        <ele>277.899993896</ele>
        <time>2015-09-20T10:49:35.839Z</time>
      </trkpt>
      <trkpt lat="45.94803" lon="4.85722">
        <ele>278.100006104</ele>
        <time>2015-09-20T10:49:36.877Z</time>
      </trkpt>
      <trkpt lat="45.94801" lon="4.85715">
        <ele>278.5</ele>
        <time>2015-09-20T10:49:37.836Z</time>
      </trkpt>
      <trkpt lat="45.94799" lon="4.85708">
        <ele>278.700012207</ele>
        <time>2015-09-20T10:49:38.859Z</time>
      </trkpt>
      <trkpt lat="45.94797" lon="4.85701">
        <ele>278.799987793</ele>
        <time>2015-09-20T10:49:39.839Z</time>
      </trkpt>
      <trkpt lat="45.94796" lon="4.85694">
        <ele>278.899993896</ele>
        <time>2015-09-20T10:49:40.861Z</time>
      </trkpt>
      <trkpt lat="45.94794" lon="4.85687">
        <ele>278.899993896</ele>
        <time>2015-09-20T10:49:41.84Z</time>
      </trkpt>
      <trkpt lat="45.94792" lon="4.85679">
        <ele>278.899993896</ele>
        <time>2015-09-20T10:49:42.861Z</time>
      </trkpt>
      <trkpt lat="45.9479" lon="4.85671">
        <ele>278.799987793</ele>
        <time>2015-09-20T10:49:43.832Z</time>
      </trkpt>
      <trkpt lat="45.94788" lon="4.85664">
        <ele>279</ele>
        <time>2015-09-20T10:49:44.884Z</time>
      </trkpt>
      <trkpt lat="45.94785" lon="4.85655">
        <ele>279</ele>
        <time>2015-09-20T10:49:45.837Z</time>
      </trkpt>
      <trkpt lat="45.94784" lon="4.85647">
        <ele>279.200012207</ele>
        <time>2015-09-20T10:49:46.861Z</time>
      </trkpt>
      <trkpt lat="45.94781" lon="4.85639">
        <ele>279</ele>
        <time>2015-09-20T10:49:47.841Z</time>
      </trkpt>
      <trkpt lat="45.94779" lon="4.8563">
        <ele>278.899993896</ele>
        <time>2015-09-20T10:49:48.862Z</time>
      </trkpt>
      <trkpt lat="45.94777" lon="4.85621">
        <ele>278.600006104</ele>
        <time>2015-09-20T10:49:49.839Z</time>
      </trkpt>
      <trkpt lat="45.94775" lon="4.85611">
        <ele>278.299987793</ele>
        <time>2015-09-20T10:49:50.861Z</time>
      </trkpt>
      <trkpt lat="45.94772" lon="4.85602">
        <ele>277.5</ele>
        <time>2015-09-20T10:49:51.859Z</time>
      </trkpt>
      <trkpt lat="45.9477" lon="4.85592">
        <ele>277</ele>
        <time>2015-09-20T10:49:52.878Z</time>
      </trkpt>
      <trkpt lat="45.94767" lon="4.85583">
        <ele>276</ele>
        <time>2015-09-20T10:49:53.84Z</time>
      </trkpt>
      <trkpt lat="45.94765" lon="4.85572">
        <ele>274.899993896</ele>
        <time>2015-09-20T10:49:54.86Z</time>
      </trkpt>
      <trkpt lat="45.94763" lon="4.85562">
        <ele>274.799987793</ele>
        <time>2015-09-20T10:49:55.837Z</time>
      </trkpt>
      <trkpt lat="45.94762" lon="4.85551">
        <ele>274.299987793</ele>
        <time>2015-09-20T10:49:56.865Z</time>
      </trkpt>
      <trkpt lat="45.9476" lon="4.8554">
        <ele>273.5</ele>
        <time>2015-09-20T10:49:57.837Z</time>
      </trkpt>
      <trkpt lat="45.94758" lon="4.85528">
        <ele>273.100006104</ele>
        <time>2015-09-20T10:49:58.86Z</time>
      </trkpt>
      <trkpt lat="45.94756" lon="4.85516">
        <ele>272.700012207</ele>
        <time>2015-09-20T10:49:59.84Z</time>
      </trkpt>
      <trkpt lat="45.94754" lon="4.85504">
        <ele>272.200012207</ele>
        <time>2015-09-20T10:50:00.86Z</time>
      </trkpt>
      <trkpt lat="45.94753" lon="4.85491">
        <ele>271.700012207</ele>
        <time>2015-09-20T10:50:01.838Z</time>
      </trkpt>
      <trkpt lat="45.94752" lon="4.85479">
        <ele>271.5</ele>
        <time>2015-09-20T10:50:02.871Z</time>
      </trkpt>
      <trkpt lat="45.9475" lon="4.85466">
        <ele>271.100006104</ele>
        <time>2015-09-20T10:50:03.836Z</time>
      </trkpt>
      <trkpt lat="45.9475" lon="4.85466">
        <ele>271.100006104</ele>
        <time>2015-09-20T10:50:03.861Z</time>
      </trkpt>
      <trkpt lat="45.94749" lon="4.85454">
        <ele>270.700012207</ele>
        <time>2015-09-20T10:50:04.836Z</time>
      </trkpt>
      <trkpt lat="45.94749" lon="4.85454">
        <ele>270.700012207</ele>
        <time>2015-09-20T10:50:04.861Z</time>
      </trkpt>
      <trkpt lat="45.94748" lon="4.85441">
        <ele>270.5</ele>
        <time>2015-09-20T10:50:05.843Z</time>
      </trkpt>
      <trkpt lat="45.94748" lon="4.85441">
        <ele>270.5</ele>
        <time>2015-09-20T10:50:05.869Z</time>
      </trkpt>
      <trkpt lat="45.94746" lon="4.85428">
        <ele>270.200012207</ele>
        <time>2015-09-20T10:50:06.835Z</time>
      </trkpt>
      <trkpt lat="45.94745" lon="4.85415">
        <ele>270.200012207</ele>
        <time>2015-09-20T10:50:07.864Z</time>
      </trkpt>
      <trkpt lat="45.94743" lon="4.85403">
        <ele>269.899993896</ele>
        <time>2015-09-20T10:50:08.851Z</time>
      </trkpt>
      <trkpt lat="45.94742" lon="4.85391">
        <ele>269.899993896</ele>
        <time>2015-09-20T10:50:09.86Z</time>
      </trkpt>
      <trkpt lat="45.94741" lon="4.85379">
        <ele>270.200012207</ele>
        <time>2015-09-20T10:50:10.835Z</time>
      </trkpt>
      <trkpt lat="45.94739" lon="4.85367">
        <ele>270.200012207</ele>
        <time>2015-09-20T10:50:11.864Z</time>
      </trkpt>
      <trkpt lat="45.94738" lon="4.85356">
        <ele>269.700012207</ele>
        <time>2015-09-20T10:50:12.835Z</time>
      </trkpt>
      <trkpt lat="45.94737" lon="4.85344">
        <ele>269.600006104</ele>
        <time>2015-09-20T10:50:13.86Z</time>
      </trkpt>
      <trkpt lat="45.94736" lon="4.85333">
        <ele>269.200012207</ele>
        <time>2015-09-20T10:50:14.835Z</time>
      </trkpt>
      <trkpt lat="45.94735" lon="4.85322">
        <ele>269.399993896</ele>
        <time>2015-09-20T10:50:15.859Z</time>
      </trkpt>
      <trkpt lat="45.94734" lon="4.85311">
        <ele>269.600006104</ele>
        <time>2015-09-20T10:50:16.835Z</time>
      </trkpt>
      <trkpt lat="45.94733" lon="4.853">
        <ele>269.700012207</ele>
        <time>2015-09-20T10:50:17.864Z</time>
      </trkpt>
      <trkpt lat="45.94732" lon="4.85289">
        <ele>269.700012207</ele>
        <time>2015-09-20T10:50:18.835Z</time>
      </trkpt>
      <trkpt lat="45.94731" lon="4.85278">
        <ele>269.799987793</ele>
        <time>2015-09-20T10:50:19.861Z</time>
      </trkpt>
      <trkpt lat="45.9473" lon="4.85268">
        <ele>269.899993896</ele>
        <time>2015-09-20T10:50:20.835Z</time>
      </trkpt>
      <trkpt lat="45.94729" lon="4.85257">
        <ele>269.899993896</ele>
        <time>2015-09-20T10:50:21.86Z</time>
      </trkpt>
      <trkpt lat="45.94728" lon="4.85246">
        <ele>270</ele>
        <time>2015-09-20T10:50:22.835Z</time>
      </trkpt>
      <trkpt lat="45.94727" lon="4.85236">
        <ele>270</ele>
        <time>2015-09-20T10:50:23.864Z</time>
      </trkpt>
      <trkpt lat="45.94725" lon="4.85225">
        <ele>269.600006104</ele>
        <time>2015-09-20T10:50:24.83Z</time>
      </trkpt>
      <trkpt lat="45.94724" lon="4.85216">
        <ele>269.200012207</ele>
        <time>2015-09-20T10:50:25.861Z</time>
      </trkpt>
      <trkpt lat="45.94722" lon="4.85206">
        <ele>269.299987793</ele>
        <time>2015-09-20T10:50:26.835Z</time>
      </trkpt>
      <trkpt lat="45.94722" lon="4.85197">
        <ele>269.200012207</ele>
        <time>2015-09-20T10:50:27.86Z</time>
      </trkpt>
      <trkpt lat="45.94721" lon="4.85187">
        <ele>269.100006104</ele>
        <time>2015-09-20T10:50:28.836Z</time>
      </trkpt>
      <trkpt lat="45.9472" lon="4.85178">
        <ele>268.799987793</ele>
        <time>2015-09-20T10:50:29.878Z</time>
      </trkpt>
      <trkpt lat="45.94719" lon="4.85169">
        <ele>268.399993896</ele>
        <time>2015-09-20T10:50:30.835Z</time>
      </trkpt>
      <trkpt lat="45.94718" lon="4.8516">
        <ele>268.299987793</ele>
        <time>2015-09-20T10:50:31.866Z</time>
      </trkpt>
      <trkpt lat="45.94717" lon="4.85151">
        <ele>268.399993896</ele>
        <time>2015-09-20T10:50:32.835Z</time>
      </trkpt>
      <trkpt lat="45.94717" lon="4.85141">
        <ele>268.5</ele>
        <time>2015-09-20T10:50:33.86Z</time>
      </trkpt>
      <trkpt lat="45.94716" lon="4.85132">
        <ele>268.5</ele>
        <time>2015-09-20T10:50:34.835Z</time>
      </trkpt>
      <trkpt lat="45.94715" lon="4.85123">
        <ele>268.399993896</ele>
        <time>2015-09-20T10:50:35.872Z</time>
      </trkpt>
      <trkpt lat="45.94714" lon="4.85113">
        <ele>268.5</ele>
        <time>2015-09-20T10:50:36.835Z</time>
      </trkpt>
      <trkpt lat="45.94713" lon="4.85104">
        <ele>268.5</ele>
        <time>2015-09-20T10:50:37.904Z</time>
      </trkpt>
      <trkpt lat="45.94711" lon="4.85095">
        <ele>268.299987793</ele>
        <time>2015-09-20T10:50:38.835Z</time>
      </trkpt>
      <trkpt lat="45.9471" lon="4.85086">
        <ele>268.100006104</ele>
        <time>2015-09-20T10:50:39.86Z</time>
      </trkpt>
      <trkpt lat="45.9471" lon="4.85076">
        <ele>268.200012207</ele>
        <time>2015-09-20T10:50:40.835Z</time>
      </trkpt>
      <trkpt lat="45.94709" lon="4.85067">
        <ele>268.299987793</ele>
        <time>2015-09-20T10:50:41.864Z</time>
      </trkpt>
      <trkpt lat="45.94708" lon="4.85057">
        <ele>268.299987793</ele>
        <time>2015-09-20T10:50:42.835Z</time>
      </trkpt>
      <trkpt lat="45.94707" lon="4.85048">
        <ele>268.399993896</ele>
        <time>2015-09-20T10:50:43.86Z</time>
      </trkpt>
      <trkpt lat="45.94705" lon="4.85039">
        <ele>268.399993896</ele>
        <time>2015-09-20T10:50:44.835Z</time>
      </trkpt>
      <trkpt lat="45.94704" lon="4.85029">
        <ele>268.399993896</ele>
        <time>2015-09-20T10:50:45.895Z</time>
      </trkpt>
      <trkpt lat="45.94703" lon="4.8502">
        <ele>268.600006104</ele>
        <time>2015-09-20T10:50:46.835Z</time>
      </trkpt>
      <trkpt lat="45.94702" lon="4.85011">
        <ele>268.799987793</ele>
        <time>2015-09-20T10:50:47.863Z</time>
      </trkpt>
      <trkpt lat="45.94701" lon="4.85002">
        <ele>268.899993896</ele>
        <time>2015-09-20T10:50:48.835Z</time>
      </trkpt>
      <trkpt lat="45.94701" lon="4.84992">
        <ele>268.899993896</ele>
        <time>2015-09-20T10:50:49.861Z</time>
      </trkpt>
      <trkpt lat="45.947" lon="4.84983">
        <ele>268.899993896</ele>
        <time>2015-09-20T10:50:50.836Z</time>
      </trkpt>
      <trkpt lat="45.94699" lon="4.84974">
        <ele>268.899993896</ele>
        <time>2015-09-20T10:50:51.86Z</time>
      </trkpt>
      <trkpt lat="45.94698" lon="4.84964">
        <ele>268.799987793</ele>
        <time>2015-09-20T10:50:52.835Z</time>
      </trkpt>
      <trkpt lat="45.94697" lon="4.84955">
        <ele>268.700012207</ele>
        <time>2015-09-20T10:50:53.863Z</time>
      </trkpt>
      <trkpt lat="45.94696" lon="4.84946">
        <ele>268.700012207</ele>
        <time>2015-09-20T10:50:54.835Z</time>
      </trkpt>
      <trkpt lat="45.94695" lon="4.84937">
        <ele>268.600006104</ele>
        <time>2015-09-20T10:50:55.862Z</time>
      </trkpt>
      <trkpt lat="45.94694" lon="4.84928">
        <ele>268.600006104</ele>
        <time>2015-09-20T10:50:56.835Z</time>
      </trkpt>
      <trkpt lat="45.94692" lon="4.84919">
        <ele>268.399993896</ele>
        <time>2015-09-20T10:50:57.862Z</time>
      </trkpt>
      <trkpt lat="45.94691" lon="4.8491">
        <ele>268.5</ele>
        <time>2015-09-20T10:50:58.835Z</time>
      </trkpt>
      <trkpt lat="45.9469" lon="4.84902">
        <ele>268.5</ele>
        <time>2015-09-20T10:50:59.864Z</time>
      </trkpt>
      <trkpt lat="45.94689" lon="4.84892">
        <ele>268.5</ele>
        <time>2015-09-20T10:51:00.835Z</time>
      </trkpt>
      <trkpt lat="45.94689" lon="4.84883">
        <ele>268.600006104</ele>
        <time>2015-09-20T10:51:01.875Z</time>
      </trkpt>
      <trkpt lat="45.94688" lon="4.84874">
        <ele>268.5</ele>
        <time>2015-09-20T10:51:02.835Z</time>
      </trkpt>
      <trkpt lat="45.94687" lon="4.84865">
        <ele>268.5</ele>
        <time>2015-09-20T10:51:03.859Z</time>
      </trkpt>
      <trkpt lat="45.94686" lon="4.84855">
        <ele>268.399993896</ele>
        <time>2015-09-20T10:51:04.835Z</time>
      </trkpt>
      <trkpt lat="45.94686" lon="4.84846">
        <ele>268.200012207</ele>
        <time>2015-09-20T10:51:05.864Z</time>
      </trkpt>
      <trkpt lat="45.94685" lon="4.84837">
        <ele>268</ele>
        <time>2015-09-20T10:51:06.835Z</time>
      </trkpt>
      <trkpt lat="45.94684" lon="4.84827">
        <ele>268</ele>
        <time>2015-09-20T10:51:07.934Z</time>
      </trkpt>
      <trkpt lat="45.94683" lon="4.84818">
        <ele>268</ele>
        <time>2015-09-20T10:51:08.835Z</time>
      </trkpt>
      <trkpt lat="45.94682" lon="4.84808">
        <ele>267.899993896</ele>
        <time>2015-09-20T10:51:09.859Z</time>
      </trkpt>
      <trkpt lat="45.94682" lon="4.84798">
        <ele>268</ele>
        <time>2015-09-20T10:51:10.835Z</time>
      </trkpt>
      <trkpt lat="45.94681" lon="4.84789">
        <ele>268.200012207</ele>
        <time>2015-09-20T10:51:11.864Z</time>
      </trkpt>
      <trkpt lat="45.9468" lon="4.8478">
        <ele>268.299987793</ele>
        <time>2015-09-20T10:51:12.835Z</time>
      </trkpt>
      <trkpt lat="45.9468" lon="4.8477">
        <ele>268.100006104</ele>
        <time>2015-09-20T10:51:13.86Z</time>
      </trkpt>
      <trkpt lat="45.94679" lon="4.84761">
        <ele>268</ele>
        <time>2015-09-20T10:51:14.835Z</time>
      </trkpt>
      <trkpt lat="45.94679" lon="4.84752">
        <ele>267.899993896</ele>
        <time>2015-09-20T10:51:15.859Z</time>
      </trkpt>
      <trkpt lat="45.94678" lon="4.84742">
        <ele>268</ele>
        <time>2015-09-20T10:51:16.835Z</time>
      </trkpt>
      <trkpt lat="45.94677" lon="4.84733">
        <ele>268.100006104</ele>
        <time>2015-09-20T10:51:17.924Z</time>
      </trkpt>
      <trkpt lat="45.94677" lon="4.84724">
        <ele>267.899993896</ele>
        <time>2015-09-20T10:51:18.835Z</time>
      </trkpt>
      <trkpt lat="45.94676" lon="4.84715">
        <ele>267.899993896</ele>
        <time>2015-09-20T10:51:19.861Z</time>
      </trkpt>
      <trkpt lat="45.94676" lon="4.84706">
        <ele>267.799987793</ele>
        <time>2015-09-20T10:51:20.835Z</time>
      </trkpt>
      <trkpt lat="45.94675" lon="4.84696">
        <ele>267.799987793</ele>
        <time>2015-09-20T10:51:21.86Z</time>
      </trkpt>
      <trkpt lat="45.94675" lon="4.84687">
        <ele>268.100006104</ele>
        <time>2015-09-20T10:51:22.835Z</time>
      </trkpt>
      <trkpt lat="45.94675" lon="4.84678">
        <ele>268</ele>
        <time>2015-09-20T10:51:23.867Z</time>
      </trkpt>
      <trkpt lat="45.94674" lon="4.84668">
        <ele>268</ele>
        <time>2015-09-20T10:51:24.835Z</time>
      </trkpt>
      <trkpt lat="45.94674" lon="4.84659">
        <ele>268.200012207</ele>
        <time>2015-09-20T10:51:25.861Z</time>
      </trkpt>
      <trkpt lat="45.94674" lon="4.84649">
        <ele>268.299987793</ele>
        <time>2015-09-20T10:51:26.835Z</time>
      </trkpt>
      <trkpt lat="45.94674" lon="4.8464">
        <ele>268.399993896</ele>
        <time>2015-09-20T10:51:27.884Z</time>
      </trkpt>
      <trkpt lat="45.94674" lon="4.84631">
        <ele>268.399993896</ele>
        <time>2015-09-20T10:51:28.835Z</time>
      </trkpt>
      <trkpt lat="45.94674" lon="4.84622">
        <ele>268.399993896</ele>
        <time>2015-09-20T10:51:29.864Z</time>
      </trkpt>
      <trkpt lat="45.94673" lon="4.84613">
        <ele>268.299987793</ele>
        <time>2015-09-20T10:51:30.835Z</time>
      </trkpt>
      <trkpt lat="45.94673" lon="4.84604">
        <ele>268.399993896</ele>
        <time>2015-09-20T10:51:31.861Z</time>
      </trkpt>
      <trkpt lat="45.94672" lon="4.84595">
        <ele>268.399993896</ele>
        <time>2015-09-20T10:51:32.835Z</time>
      </trkpt>
      <trkpt lat="45.94672" lon="4.84586">
        <ele>268.399993896</ele>
        <time>2015-09-20T10:51:33.859Z</time>
      </trkpt>
      <trkpt lat="45.94671" lon="4.84578">
        <ele>268.100006104</ele>
        <time>2015-09-20T10:51:34.835Z</time>
      </trkpt>
      <trkpt lat="45.9467" lon="4.84569">
        <ele>268</ele>
        <time>2015-09-20T10:51:35.864Z</time>
      </trkpt>
      <trkpt lat="45.94669" lon="4.84561">
        <ele>267.899993896</ele>
        <time>2015-09-20T10:51:36.835Z</time>
      </trkpt>
      <trkpt lat="45.94668" lon="4.84552">
        <ele>267.899993896</ele>
        <time>2015-09-20T10:51:37.859Z</time>
      </trkpt>
      <trkpt lat="45.94668" lon="4.84543">
        <ele>267.799987793</ele>
        <time>2015-09-20T10:51:38.835Z</time>
      </trkpt>
      <trkpt lat="45.94667" lon="4.84534">
        <ele>268</ele>
        <time>2015-09-20T10:51:39.88Z</time>
      </trkpt>
      <trkpt lat="45.94666" lon="4.84525">
        <ele>267.899993896</ele>
        <time>2015-09-20T10:51:40.835Z</time>
      </trkpt>
      <trkpt lat="45.94665" lon="4.84516">
        <ele>267.899993896</ele>
        <time>2015-09-20T10:51:41.864Z</time>
      </trkpt>
      <trkpt lat="45.94664" lon="4.84507">
        <ele>268.100006104</ele>
        <time>2015-09-20T10:51:42.835Z</time>
      </trkpt>
      <trkpt lat="45.94663" lon="4.84498">
        <ele>268.100006104</ele>
        <time>2015-09-20T10:51:43.877Z</time>
      </trkpt>
      <trkpt lat="45.94663" lon="4.84489">
        <ele>268.200012207</ele>
        <time>2015-09-20T10:51:44.835Z</time>
      </trkpt>
      <trkpt lat="45.94662" lon="4.8448">
        <ele>268.200012207</ele>
        <time>2015-09-20T10:51:45.859Z</time>
      </trkpt>
      <trkpt lat="45.94662" lon="4.84472">
        <ele>268.399993896</ele>
        <time>2015-09-20T10:51:46.835Z</time>
      </trkpt>
      <trkpt lat="45.94661" lon="4.84463">
        <ele>268.700012207</ele>
        <time>2015-09-20T10:51:47.864Z</time>
      </trkpt>
      <trkpt lat="45.9466" lon="4.84454">
        <ele>269</ele>
        <time>2015-09-20T10:51:48.835Z</time>
      </trkpt>
      <trkpt lat="45.94659" lon="4.84446">
        <ele>269</ele>
        <time>2015-09-20T10:51:49.864Z</time>
      </trkpt>
      <trkpt lat="45.94658" lon="4.84437">
        <ele>269.100006104</ele>
        <time>2015-09-20T10:51:50.835Z</time>
      </trkpt>
      <trkpt lat="45.94657" lon="4.84428">
        <ele>269</ele>
        <time>2015-09-20T10:51:51.86Z</time>
      </trkpt>
      <trkpt lat="45.94656" lon="4.84419">
        <ele>268.799987793</ele>
        <time>2015-09-20T10:51:52.835Z</time>
      </trkpt>
      <trkpt lat="45.94655" lon="4.8441">
        <ele>268.700012207</ele>
        <time>2015-09-20T10:51:53.864Z</time>
      </trkpt>
      <trkpt lat="45.94654" lon="4.84401">
        <ele>268.700012207</ele>
        <time>2015-09-20T10:51:54.835Z</time>
      </trkpt>
      <trkpt lat="45.94653" lon="4.84392">
        <ele>268.899993896</ele>
        <time>2015-09-20T10:51:55.861Z</time>
      </trkpt>
      <trkpt lat="45.94652" lon="4.84383">
        <ele>268.799987793</ele>
        <time>2015-09-20T10:51:56.835Z</time>
      </trkpt>
      <trkpt lat="45.94651" lon="4.84375">
        <ele>268.799987793</ele>
        <time>2015-09-20T10:51:57.859Z</time>
      </trkpt>
      <trkpt lat="45.9465" lon="4.84367">
        <ele>268.700012207</ele>
        <time>2015-09-20T10:51:58.835Z</time>
      </trkpt>
      <trkpt lat="45.94649" lon="4.84358">
        <ele>268.700012207</ele>
        <time>2015-09-20T10:51:59.877Z</time>
      </trkpt>
      <trkpt lat="45.94647" lon="4.8435">
        <ele>268.799987793</ele>
        <time>2015-09-20T10:52:00.835Z</time>
      </trkpt>
      <trkpt lat="45.94646" lon="4.84342">
        <ele>268.700012207</ele>
        <time>2015-09-20T10:52:01.86Z</time>
      </trkpt>
      <trkpt lat="45.94645" lon="4.84333">
        <ele>268.700012207</ele>
        <time>2015-09-20T10:52:02.835Z</time>
      </trkpt>
      <trkpt lat="45.94644" lon="4.84324">
        <ele>268.5</ele>
        <time>2015-09-20T10:52:03.859Z</time>
      </trkpt>
      <trkpt lat="45.94643" lon="4.84315">
        <ele>268.299987793</ele>
        <time>2015-09-20T10:52:04.834Z</time>
      </trkpt>
      <trkpt lat="45.94641" lon="4.84306">
        <ele>268</ele>
        <time>2015-09-20T10:52:05.863Z</time>
      </trkpt>
      <trkpt lat="45.9464" lon="4.84297">
        <ele>268</ele>
        <time>2015-09-20T10:52:06.835Z</time>
      </trkpt>
      <trkpt lat="45.94639" lon="4.84288">
        <ele>268</ele>
        <time>2015-09-20T10:52:07.944Z</time>
      </trkpt>
      <trkpt lat="45.94638" lon="4.84278">
        <ele>268.100006104</ele>
        <time>2015-09-20T10:52:08.835Z</time>
      </trkpt>
      <trkpt lat="45.94636" lon="4.84269">
        <ele>267.899993896</ele>
        <time>2015-09-20T10:52:09.859Z</time>
      </trkpt>
      <trkpt lat="45.94635" lon="4.84259">
        <ele>267.799987793</ele>
        <time>2015-09-20T10:52:10.836Z</time>
      </trkpt>
      <trkpt lat="45.94633" lon="4.84249">
        <ele>267.600006104</ele>
        <time>2015-09-20T10:52:11.864Z</time>
      </trkpt>
      <trkpt lat="45.94632" lon="4.8424">
        <ele>267.600006104</ele>
        <time>2015-09-20T10:52:12.835Z</time>
      </trkpt>
      <trkpt lat="45.94631" lon="4.8423">
        <ele>267.600006104</ele>
        <time>2015-09-20T10:52:13.86Z</time>
      </trkpt>
      <trkpt lat="45.94629" lon="4.84221">
        <ele>267.399993896</ele>
        <time>2015-09-20T10:52:14.834Z</time>
      </trkpt>
      <trkpt lat="45.94628" lon="4.84212">
        <ele>267.5</ele>
        <time>2015-09-20T10:52:15.876Z</time>
      </trkpt>
      <trkpt lat="45.94627" lon="4.84203">
        <ele>267.5</ele>
        <time>2015-09-20T10:52:16.834Z</time>
      </trkpt>
      <trkpt lat="45.94626" lon="4.84193">
        <ele>267.399993896</ele>
        <time>2015-09-20T10:52:17.863Z</time>
      </trkpt>
      <trkpt lat="45.94625" lon="4.84185">
        <ele>267.5</ele>
        <time>2015-09-20T10:52:18.836Z</time>
      </trkpt>
      <trkpt lat="45.94623" lon="4.84176">
        <ele>267.5</ele>
        <time>2015-09-20T10:52:19.86Z</time>
      </trkpt>
      <trkpt lat="45.94622" lon="4.84167">
        <ele>267.399993896</ele>
        <time>2015-09-20T10:52:20.835Z</time>
      </trkpt>
      <trkpt lat="45.94621" lon="4.84158">
        <ele>267.299987793</ele>
        <time>2015-09-20T10:52:21.859Z</time>
      </trkpt>
      <trkpt lat="45.94619" lon="4.8415">
        <ele>267.299987793</ele>
        <time>2015-09-20T10:52:22.835Z</time>
      </trkpt>
      <trkpt lat="45.94618" lon="4.84141">
        <ele>267.200012207</ele>
        <time>2015-09-20T10:52:23.863Z</time>
      </trkpt>
      <trkpt lat="45.94617" lon="4.84132">
        <ele>267.100006104</ele>
        <time>2015-09-20T10:52:24.834Z</time>
      </trkpt>
      <trkpt lat="45.94615" lon="4.84123">
        <ele>266.899993896</ele>
        <time>2015-09-20T10:52:25.86Z</time>
      </trkpt>
      <trkpt lat="45.94614" lon="4.84114">
        <ele>266.600006104</ele>
        <time>2015-09-20T10:52:26.834Z</time>
      </trkpt>
      <trkpt lat="45.94613" lon="4.84105">
        <ele>266.5</ele>
        <time>2015-09-20T10:52:27.891Z</time>
      </trkpt>
      <trkpt lat="45.94611" lon="4.84096">
        <ele>266.799987793</ele>
        <time>2015-09-20T10:52:28.835Z</time>
      </trkpt>
      <trkpt lat="45.9461" lon="4.84086">
        <ele>266.700012207</ele>
        <time>2015-09-20T10:52:29.864Z</time>
      </trkpt>
      <trkpt lat="45.94609" lon="4.84077">
        <ele>266.899993896</ele>
        <time>2015-09-20T10:52:30.835Z</time>
      </trkpt>
      <trkpt lat="45.94607" lon="4.84067">
        <ele>266.799987793</ele>
        <time>2015-09-20T10:52:31.86Z</time>
      </trkpt>
      <trkpt lat="45.94606" lon="4.84058">
        <ele>266.700012207</ele>
        <time>2015-09-20T10:52:32.836Z</time>
      </trkpt>
      <trkpt lat="45.94604" lon="4.84048">
        <ele>266.5</ele>
        <time>2015-09-20T10:52:33.88Z</time>
      </trkpt>
      <trkpt lat="45.94602" lon="4.84039">
        <ele>266.600006104</ele>
        <time>2015-09-20T10:52:34.835Z</time>
      </trkpt>
      <trkpt lat="45.94601" lon="4.8403">
        <ele>266.600006104</ele>
        <time>2015-09-20T10:52:35.863Z</time>
      </trkpt>
      <trkpt lat="45.94599" lon="4.84022">
        <ele>266.700012207</ele>
        <time>2015-09-20T10:52:36.85Z</time>
      </trkpt>
      <trkpt lat="45.94598" lon="4.84014">
        <ele>266.700012207</ele>
        <time>2015-09-20T10:52:37.86Z</time>
      </trkpt>
      <trkpt lat="45.94597" lon="4.84005">
        <ele>266.5</ele>
        <time>2015-09-20T10:52:38.835Z</time>
      </trkpt>
      <trkpt lat="45.94596" lon="4.83998">
        <ele>266.600006104</ele>
        <time>2015-09-20T10:52:39.859Z</time>
      </trkpt>
      <trkpt lat="45.94594" lon="4.8399">
        <ele>266.600006104</ele>
        <time>2015-09-20T10:52:40.834Z</time>
      </trkpt>
      <trkpt lat="45.94593" lon="4.83982">
        <ele>266.5</ele>
        <time>2015-09-20T10:52:41.868Z</time>
      </trkpt>
      <trkpt lat="45.94591" lon="4.83974">
        <ele>266.5</ele>
        <time>2015-09-20T10:52:42.835Z</time>
      </trkpt>
      <trkpt lat="45.9459" lon="4.83965">
        <ele>266.600006104</ele>
        <time>2015-09-20T10:52:43.86Z</time>
      </trkpt>
      <trkpt lat="45.94588" lon="4.83955">
        <ele>266.600006104</ele>
        <time>2015-09-20T10:52:44.834Z</time>
      </trkpt>
      <trkpt lat="45.94587" lon="4.83946">
        <ele>266.700012207</ele>
        <time>2015-09-20T10:52:45.859Z</time>
      </trkpt>
      <trkpt lat="45.94586" lon="4.83936">
        <ele>266.600006104</ele>
        <time>2015-09-20T10:52:46.836Z</time>
      </trkpt>
      <trkpt lat="45.94584" lon="4.83925">
        <ele>266.600006104</ele>
        <time>2015-09-20T10:52:47.864Z</time>
      </trkpt>
      <trkpt lat="45.94583" lon="4.83915">
        <ele>266.600006104</ele>
        <time>2015-09-20T10:52:48.836Z</time>
      </trkpt>
      <trkpt lat="45.94582" lon="4.83905">
        <ele>266.399993896</ele>
        <time>2015-09-20T10:52:49.861Z</time>
      </trkpt>
      <trkpt lat="45.94581" lon="4.83894">
        <ele>266.100006104</ele>
        <time>2015-09-20T10:52:50.836Z</time>
      </trkpt>
      <trkpt lat="45.94579" lon="4.83883">
        <ele>265.899993896</ele>
        <time>2015-09-20T10:52:51.867Z</time>
      </trkpt>
      <trkpt lat="45.94578" lon="4.83872">
        <ele>265.700012207</ele>
        <time>2015-09-20T10:52:52.837Z</time>
      </trkpt>
      <trkpt lat="45.94576" lon="4.83861">
        <ele>265.5</ele>
        <time>2015-09-20T10:52:53.864Z</time>
      </trkpt>
      <trkpt lat="45.94574" lon="4.83849">
        <ele>264.899993896</ele>
        <time>2015-09-20T10:52:54.835Z</time>
      </trkpt>
      <trkpt lat="45.94572" lon="4.83838">
        <ele>264.600006104</ele>
        <time>2015-09-20T10:52:55.86Z</time>
      </trkpt>
      <trkpt lat="45.9457" lon="4.83826">
        <ele>264</ele>
        <time>2015-09-20T10:52:56.835Z</time>
      </trkpt>
      <trkpt lat="45.94568" lon="4.83815">
        <ele>263.299987793</ele>
        <time>2015-09-20T10:52:57.904Z</time>
      </trkpt>
      <trkpt lat="45.94566" lon="4.83803">
        <ele>262.899993896</ele>
        <time>2015-09-20T10:52:58.835Z</time>
      </trkpt>
      <trkpt lat="45.94564" lon="4.83792">
        <ele>262.299987793</ele>
        <time>2015-09-20T10:52:59.864Z</time>
      </trkpt>
      <trkpt lat="45.94563" lon="4.8378">
        <ele>262</ele>
        <time>2015-09-20T10:53:00.835Z</time>
      </trkpt>
      <trkpt lat="45.94561" lon="4.83769">
        <ele>261.700012207</ele>
        <time>2015-09-20T10:53:01.861Z</time>
      </trkpt>
      <trkpt lat="45.94559" lon="4.83758">
        <ele>261.799987793</ele>
        <time>2015-09-20T10:53:02.851Z</time>
      </trkpt>
      <trkpt lat="45.94557" lon="4.83747">
        <ele>261.5</ele>
        <time>2015-09-20T10:53:03.859Z</time>
      </trkpt>
      <trkpt lat="45.94556" lon="4.83736">
        <ele>261.299987793</ele>
        <time>2015-09-20T10:53:04.835Z</time>
      </trkpt>
      <trkpt lat="45.94554" lon="4.83726">
        <ele>260.899993896</ele>
        <time>2015-09-20T10:53:05.863Z</time>
      </trkpt>
      <trkpt lat="45.94553" lon="4.83716">
        <ele>260.600006104</ele>
        <time>2015-09-20T10:53:06.835Z</time>
      </trkpt>
      <trkpt lat="45.94551" lon="4.83706">
        <ele>260.299987793</ele>
        <time>2015-09-20T10:53:07.964Z</time>
      </trkpt>
      <trkpt lat="45.9455" lon="4.83696">
        <ele>260.200012207</ele>
        <time>2015-09-20T10:53:08.835Z</time>
      </trkpt>
      <trkpt lat="45.94548" lon="4.83687">
        <ele>260</ele>
        <time>2015-09-20T10:53:09.859Z</time>
      </trkpt>
      <trkpt lat="45.94547" lon="4.83677">
        <ele>260.100006104</ele>
        <time>2015-09-20T10:53:10.873Z</time>
      </trkpt>
      <trkpt lat="45.94545" lon="4.83667">
        <ele>260.200012207</ele>
        <time>2015-09-20T10:53:11.864Z</time>
      </trkpt>
      <trkpt lat="45.94543" lon="4.83657">
        <ele>260.200012207</ele>
        <time>2015-09-20T10:53:12.835Z</time>
      </trkpt>
      <trkpt lat="45.94542" lon="4.83648">
        <ele>260.100006104</ele>
        <time>2015-09-20T10:53:13.86Z</time>
      </trkpt>
      <trkpt lat="45.9454" lon="4.83638">
        <ele>260</ele>
        <time>2015-09-20T10:53:14.835Z</time>
      </trkpt>
      <trkpt lat="45.94538" lon="4.83628">
        <ele>260</ele>
        <time>2015-09-20T10:53:15.859Z</time>
      </trkpt>
      <trkpt lat="45.94536" lon="4.83619">
        <ele>260.600006104</ele>
        <time>2015-09-20T10:53:16.835Z</time>
      </trkpt>
      <trkpt lat="45.94535" lon="4.8361">
        <ele>261</ele>
        <time>2015-09-20T10:53:17.908Z</time>
      </trkpt>
      <trkpt lat="45.94533" lon="4.836">
        <ele>261.100006104</ele>
        <time>2015-09-20T10:53:18.836Z</time>
      </trkpt>
      <trkpt lat="45.94531" lon="4.83591">
        <ele>261</ele>
        <time>2015-09-20T10:53:19.86Z</time>
      </trkpt>
      <trkpt lat="45.94528" lon="4.83583">
        <ele>261.200012207</ele>
        <time>2015-09-20T10:53:20.835Z</time>
      </trkpt>
      <trkpt lat="45.94525" lon="4.83574">
        <ele>261.200012207</ele>
        <time>2015-09-20T10:53:21.859Z</time>
      </trkpt>
      <trkpt lat="45.94522" lon="4.83566">
        <ele>261.299987793</ele>
        <time>2015-09-20T10:53:22.836Z</time>
      </trkpt>
      <trkpt lat="45.94518" lon="4.83557">
        <ele>261.700012207</ele>
        <time>2015-09-20T10:53:23.877Z</time>
      </trkpt>
      <trkpt lat="45.94514" lon="4.8355">
        <ele>262</ele>
        <time>2015-09-20T10:53:24.835Z</time>
      </trkpt>
      <trkpt lat="45.9451" lon="4.83543">
        <ele>262</ele>
        <time>2015-09-20T10:53:25.86Z</time>
      </trkpt>
      <trkpt lat="45.94506" lon="4.83536">
        <ele>262.100006104</ele>
        <time>2015-09-20T10:53:26.834Z</time>
      </trkpt>
      <trkpt lat="45.94502" lon="4.83529">
        <ele>262.100006104</ele>
        <time>2015-09-20T10:53:27.924Z</time>
      </trkpt>
      <trkpt lat="45.94498" lon="4.83522">
        <ele>261.899993896</ele>
        <time>2015-09-20T10:53:28.83Z</time>
      </trkpt>
      <trkpt lat="45.94494" lon="4.83516">
        <ele>261.5</ele>
        <time>2015-09-20T10:53:29.863Z</time>
      </trkpt>
      <trkpt lat="45.94491" lon="4.83509">
        <ele>261.399993896</ele>
        <time>2015-09-20T10:53:30.835Z</time>
      </trkpt>
      <trkpt lat="45.94486" lon="4.83503">
        <ele>261.200012207</ele>
        <time>2015-09-20T10:53:31.86Z</time>
      </trkpt>
      <trkpt lat="45.94482" lon="4.83497">
        <ele>261.100006104</ele>
        <time>2015-09-20T10:53:32.837Z</time>
      </trkpt>
      <trkpt lat="45.94479" lon="4.83491">
        <ele>261</ele>
        <time>2015-09-20T10:53:33.863Z</time>
      </trkpt>
      <trkpt lat="45.94475" lon="4.83485">
        <ele>260.899993896</ele>
        <time>2015-09-20T10:53:34.835Z</time>
      </trkpt>
      <trkpt lat="45.94471" lon="4.83478">
        <ele>261.700012207</ele>
        <time>2015-09-20T10:53:35.862Z</time>
      </trkpt>
      <trkpt lat="45.94468" lon="4.83471">
        <ele>261.899993896</ele>
        <time>2015-09-20T10:53:36.834Z</time>
      </trkpt>
      <trkpt lat="45.94464" lon="4.83465">
        <ele>262.200012207</ele>
        <time>2015-09-20T10:53:37.914Z</time>
      </trkpt>
      <trkpt lat="45.9446" lon="4.83458">
        <ele>262.299987793</ele>
        <time>2015-09-20T10:53:38.835Z</time>
      </trkpt>
      <trkpt lat="45.94456" lon="4.83452">
        <ele>262.399993896</ele>
        <time>2015-09-20T10:53:39.873Z</time>
      </trkpt>
      <trkpt lat="45.94453" lon="4.83445">
        <ele>262.600006104</ele>
        <time>2015-09-20T10:53:40.835Z</time>
      </trkpt>
      <trkpt lat="45.94449" lon="4.83438">
        <ele>262.600006104</ele>
        <time>2015-09-20T10:53:41.863Z</time>
      </trkpt>
      <trkpt lat="45.94446" lon="4.83431">
        <ele>262.700012207</ele>
        <time>2015-09-20T10:53:42.836Z</time>
      </trkpt>
      <trkpt lat="45.94442" lon="4.83425">
        <ele>262.799987793</ele>
        <time>2015-09-20T10:53:43.86Z</time>
      </trkpt>
      <trkpt lat="45.94439" lon="4.83418">
        <ele>262.5</ele>
        <time>2015-09-20T10:53:44.834Z</time>
      </trkpt>
      <trkpt lat="45.94435" lon="4.83411">
        <ele>262.600006104</ele>
        <time>2015-09-20T10:53:45.858Z</time>
      </trkpt>
      <trkpt lat="45.94431" lon="4.83404">
        <ele>262.200012207</ele>
        <time>2015-09-20T10:53:46.835Z</time>
      </trkpt>
      <trkpt lat="45.94428" lon="4.83397">
        <ele>262.5</ele>
        <time>2015-09-20T10:53:47.863Z</time>
      </trkpt>
      <trkpt lat="45.94424" lon="4.83389">
        <ele>262.5</ele>
        <time>2015-09-20T10:53:48.835Z</time>
      </trkpt>
      <trkpt lat="45.94421" lon="4.83382">
        <ele>262.600006104</ele>
        <time>2015-09-20T10:53:49.861Z</time>
      </trkpt>
      <trkpt lat="45.94417" lon="4.83374">
        <ele>262.700012207</ele>
        <time>2015-09-20T10:53:50.835Z</time>
      </trkpt>
      <trkpt lat="45.94414" lon="4.83367">
        <ele>262.700012207</ele>
        <time>2015-09-20T10:53:51.859Z</time>
      </trkpt>
      <trkpt lat="45.94411" lon="4.83359">
        <ele>262.600006104</ele>
        <time>2015-09-20T10:53:52.836Z</time>
      </trkpt>
      <trkpt lat="45.94407" lon="4.83352">
        <ele>262.399993896</ele>
        <time>2015-09-20T10:53:53.862Z</time>
      </trkpt>
      <trkpt lat="45.94405" lon="4.83344">
        <ele>262.299987793</ele>
        <time>2015-09-20T10:53:54.873Z</time>
      </trkpt>
      <trkpt lat="45.94402" lon="4.83337">
        <ele>262.299987793</ele>
        <time>2015-09-20T10:53:55.872Z</time>
      </trkpt>
      <trkpt lat="45.94399" lon="4.8333">
        <ele>262.200012207</ele>
        <time>2015-09-20T10:53:56.834Z</time>
      </trkpt>
      <trkpt lat="45.94396" lon="4.83323">
        <ele>262.100006104</ele>
        <time>2015-09-20T10:53:57.859Z</time>
      </trkpt>
      <trkpt lat="45.94394" lon="4.83316">
        <ele>262.200012207</ele>
        <time>2015-09-20T10:53:58.835Z</time>
      </trkpt>
      <trkpt lat="45.94392" lon="4.83309">
        <ele>262.100006104</ele>
        <time>2015-09-20T10:53:59.867Z</time>
      </trkpt>
      <trkpt lat="45.94389" lon="4.83302">
        <ele>261.899993896</ele>
        <time>2015-09-20T10:54:00.835Z</time>
      </trkpt>
      <trkpt lat="45.94387" lon="4.83294">
        <ele>261.799987793</ele>
        <time>2015-09-20T10:54:01.86Z</time>
      </trkpt>
      <trkpt lat="45.94384" lon="4.83287">
        <ele>261.899993896</ele>
        <time>2015-09-20T10:54:02.835Z</time>
      </trkpt>
      <trkpt lat="45.94381" lon="4.83279">
        <ele>261.799987793</ele>
        <time>2015-09-20T10:54:03.86Z</time>
      </trkpt>
      <trkpt lat="45.94379" lon="4.83272">
        <ele>261.5</ele>
        <time>2015-09-20T10:54:04.834Z</time>
      </trkpt>
      <trkpt lat="45.94376" lon="4.83265">
        <ele>261.5</ele>
        <time>2015-09-20T10:54:05.863Z</time>
      </trkpt>
      <trkpt lat="45.94373" lon="4.83257">
        <ele>261.600006104</ele>
        <time>2015-09-20T10:54:06.835Z</time>
      </trkpt>
      <trkpt lat="45.94371" lon="4.8325">
        <ele>261.799987793</ele>
        <time>2015-09-20T10:54:07.954Z</time>
      </trkpt>
      <trkpt lat="45.94368" lon="4.83243">
        <ele>262</ele>
        <time>2015-09-20T10:54:08.835Z</time>
      </trkpt>
      <trkpt lat="45.94365" lon="4.83235">
        <ele>262</ele>
        <time>2015-09-20T10:54:09.859Z</time>
      </trkpt>
      <trkpt lat="45.94363" lon="4.83228">
        <ele>262.100006104</ele>
        <time>2015-09-20T10:54:10.834Z</time>
      </trkpt>
      <trkpt lat="45.9436" lon="4.83221">
        <ele>262.100006104</ele>
        <time>2015-09-20T10:54:11.876Z</time>
      </trkpt>
      <trkpt lat="45.94357" lon="4.83213">
        <ele>262</ele>
        <time>2015-09-20T10:54:12.836Z</time>
      </trkpt>
      <trkpt lat="45.94354" lon="4.83206">
        <ele>261.899993896</ele>
        <time>2015-09-20T10:54:13.859Z</time>
      </trkpt>
      <trkpt lat="45.94352" lon="4.83198">
        <ele>261.899993896</ele>
        <time>2015-09-20T10:54:14.834Z</time>
      </trkpt>
      <trkpt lat="45.94349" lon="4.83191">
        <ele>262.100006104</ele>
        <time>2015-09-20T10:54:15.858Z</time>
      </trkpt>
      <trkpt lat="45.94346" lon="4.83183">
        <ele>262.399993896</ele>
        <time>2015-09-20T10:54:16.834Z</time>
      </trkpt>
      <trkpt lat="45.94344" lon="4.83175">
        <ele>262.600006104</ele>
        <time>2015-09-20T10:54:17.907Z</time>
      </trkpt>
      <trkpt lat="45.94341" lon="4.83167">
        <ele>262.799987793</ele>
        <time>2015-09-20T10:54:18.846Z</time>
      </trkpt>
      <trkpt lat="45.94339" lon="4.83159">
        <ele>262.899993896</ele>
        <time>2015-09-20T10:54:19.86Z</time>
      </trkpt>
      <trkpt lat="45.94336" lon="4.83152">
        <ele>263.100006104</ele>
        <time>2015-09-20T10:54:20.834Z</time>
      </trkpt>
      <trkpt lat="45.94333" lon="4.83144">
        <ele>262.899993896</ele>
        <time>2015-09-20T10:54:21.876Z</time>
      </trkpt>
      <trkpt lat="45.94331" lon="4.83137">
        <ele>262.899993896</ele>
        <time>2015-09-20T10:54:22.837Z</time>
      </trkpt>
      <trkpt lat="45.94328" lon="4.83129">
        <ele>262.799987793</ele>
        <time>2015-09-20T10:54:23.863Z</time>
      </trkpt>
      <trkpt lat="45.94326" lon="4.83122">
        <ele>262.799987793</ele>
        <time>2015-09-20T10:54:24.834Z</time>
      </trkpt>
      <trkpt lat="45.94324" lon="4.83115">
        <ele>262.799987793</ele>
        <time>2015-09-20T10:54:25.894Z</time>
      </trkpt>
      <trkpt lat="45.94321" lon="4.83107">
        <ele>262.700012207</ele>
        <time>2015-09-20T10:54:26.834Z</time>
      </trkpt>
      <trkpt lat="45.94319" lon="4.831">
        <ele>262.700012207</ele>
        <time>2015-09-20T10:54:27.916Z</time>
      </trkpt>
      <trkpt lat="45.94316" lon="4.83092">
        <ele>262.799987793</ele>
        <time>2015-09-20T10:54:28.835Z</time>
      </trkpt>
      <trkpt lat="45.94314" lon="4.83084">
        <ele>262.799987793</ele>
        <time>2015-09-20T10:54:29.896Z</time>
      </trkpt>
      <trkpt lat="45.94312" lon="4.83076">
        <ele>262.799987793</ele>
        <time>2015-09-20T10:54:30.834Z</time>
      </trkpt>
      <trkpt lat="45.9431" lon="4.83068">
        <ele>262.600006104</ele>
        <time>2015-09-20T10:54:31.86Z</time>
      </trkpt>
      <trkpt lat="45.94308" lon="4.8306">
        <ele>262.600006104</ele>
        <time>2015-09-20T10:54:32.852Z</time>
      </trkpt>
      <trkpt lat="45.94306" lon="4.83052">
        <ele>262.600006104</ele>
        <time>2015-09-20T10:54:33.859Z</time>
      </trkpt>
      <trkpt lat="45.94305" lon="4.83044">
        <ele>262.299987793</ele>
        <time>2015-09-20T10:54:34.873Z</time>
      </trkpt>
      <trkpt lat="45.94303" lon="4.83037">
        <ele>262.299987793</ele>
        <time>2015-09-20T10:54:35.863Z</time>
      </trkpt>
      <trkpt lat="45.94302" lon="4.8303">
        <ele>262.299987793</ele>
        <time>2015-09-20T10:54:36.834Z</time>
      </trkpt>
      <trkpt lat="45.94301" lon="4.83022">
        <ele>262.5</ele>
        <time>2015-09-20T10:54:37.859Z</time>
      </trkpt>
      <trkpt lat="45.943" lon="4.83015">
        <ele>262.399993896</ele>
        <time>2015-09-20T10:54:38.835Z</time>
      </trkpt>
      <trkpt lat="45.94299" lon="4.83008">
        <ele>262.399993896</ele>
        <time>2015-09-20T10:54:39.859Z</time>
      </trkpt>
      <trkpt lat="45.94297" lon="4.83">
        <ele>262.700012207</ele>
        <time>2015-09-20T10:54:40.835Z</time>
      </trkpt>
      <trkpt lat="45.94295" lon="4.82993">
        <ele>262.700012207</ele>
        <time>2015-09-20T10:54:41.862Z</time>
      </trkpt>
      <trkpt lat="45.94294" lon="4.82985">
        <ele>263</ele>
        <time>2015-09-20T10:54:42.836Z</time>
      </trkpt>
      <trkpt lat="45.94291" lon="4.82979">
        <ele>263.299987793</ele>
        <time>2015-09-20T10:54:43.865Z</time>
      </trkpt>
      <trkpt lat="45.94289" lon="4.82973">
        <ele>263.399993896</ele>
        <time>2015-09-20T10:54:44.834Z</time>
      </trkpt>
      <trkpt lat="45.94286" lon="4.82967">
        <ele>263.5</ele>
        <time>2015-09-20T10:54:45.858Z</time>
      </trkpt>
      <trkpt lat="45.94284" lon="4.82961">
        <ele>263.5</ele>
        <time>2015-09-20T10:54:46.835Z</time>
      </trkpt>
      <trkpt lat="45.94283" lon="4.82954">
        <ele>263.5</ele>
        <time>2015-09-20T10:54:47.863Z</time>
      </trkpt>
      <trkpt lat="45.94283" lon="4.82947">
        <ele>263.5</ele>
        <time>2015-09-20T10:54:48.85Z</time>
      </trkpt>
      <trkpt lat="45.94283" lon="4.8294">
        <ele>263.5</ele>
        <time>2015-09-20T10:54:49.86Z</time>
      </trkpt>
      <trkpt lat="45.94285" lon="4.82933">
        <ele>263.399993896</ele>
        <time>2015-09-20T10:54:50.836Z</time>
      </trkpt>
      <trkpt lat="45.94286" lon="4.82926">
        <ele>263.299987793</ele>
        <time>2015-09-20T10:54:51.864Z</time>
      </trkpt>
      <trkpt lat="45.94287" lon="4.82918">
        <ele>263.100006104</ele>
        <time>2015-09-20T10:54:52.838Z</time>
      </trkpt>
      <trkpt lat="45.94288" lon="4.82911">
        <ele>263.100006104</ele>
        <time>2015-09-20T10:54:53.866Z</time>
      </trkpt>
      <trkpt lat="45.9429" lon="4.82903">
        <ele>263.100006104</ele>
        <time>2015-09-20T10:54:54.836Z</time>
      </trkpt>
      <trkpt lat="45.9429" lon="4.82895">
        <ele>263</ele>
        <time>2015-09-20T10:54:55.86Z</time>
      </trkpt>
      <trkpt lat="45.94291" lon="4.82887">
        <ele>262.799987793</ele>
        <time>2015-09-20T10:54:56.834Z</time>
      </trkpt>
      <trkpt lat="45.94291" lon="4.82879">
        <ele>262.700012207</ele>
        <time>2015-09-20T10:54:57.858Z</time>
      </trkpt>
      <trkpt lat="45.94292" lon="4.8287">
        <ele>262.5</ele>
        <time>2015-09-20T10:54:58.834Z</time>
      </trkpt>
      <trkpt lat="45.94292" lon="4.82861">
        <ele>262.399993896</ele>
        <time>2015-09-20T10:54:59.863Z</time>
      </trkpt>
      <trkpt lat="45.94292" lon="4.82852">
        <ele>262.200012207</ele>
        <time>2015-09-20T10:55:00.835Z</time>
      </trkpt>
      <trkpt lat="45.94293" lon="4.82843">
        <ele>262.299987793</ele>
        <time>2015-09-20T10:55:01.859Z</time>
      </trkpt>
      <trkpt lat="45.94293" lon="4.82835">
        <ele>262.299987793</ele>
        <time>2015-09-20T10:55:02.836Z</time>
      </trkpt>
      <trkpt lat="45.94294" lon="4.82826">
        <ele>262</ele>
        <time>2015-09-20T10:55:03.858Z</time>
      </trkpt>
      <trkpt lat="45.94294" lon="4.82817">
        <ele>261.799987793</ele>
        <time>2015-09-20T10:55:04.834Z</time>
      </trkpt>
      <trkpt lat="45.94294" lon="4.82809">
        <ele>261.899993896</ele>
        <time>2015-09-20T10:55:05.894Z</time>
      </trkpt>
      <trkpt lat="45.94294" lon="4.82801">
        <ele>261.899993896</ele>
        <time>2015-09-20T10:55:06.834Z</time>
      </trkpt>
      <trkpt lat="45.94295" lon="4.82792">
        <ele>261.700012207</ele>
        <time>2015-09-20T10:55:07.87Z</time>
      </trkpt>
      <trkpt lat="45.94295" lon="4.82784">
        <ele>261.700012207</ele>
        <time>2015-09-20T10:55:08.834Z</time>
      </trkpt>
      <trkpt lat="45.94295" lon="4.82775">
        <ele>261.600006104</ele>
        <time>2015-09-20T10:55:09.872Z</time>
      </trkpt>
      <trkpt lat="45.94296" lon="4.82767">
        <ele>261.5</ele>
        <time>2015-09-20T10:55:10.884Z</time>
      </trkpt>
      <trkpt lat="45.94296" lon="4.82757">
        <ele>261.5</ele>
        <time>2015-09-20T10:55:11.864Z</time>
      </trkpt>
      <trkpt lat="45.94296" lon="4.82748">
        <ele>261.399993896</ele>
        <time>2015-09-20T10:55:12.836Z</time>
      </trkpt>
      <trkpt lat="45.94296" lon="4.82739">
        <ele>261.5</ele>
        <time>2015-09-20T10:55:13.86Z</time>
      </trkpt>
      <trkpt lat="45.94296" lon="4.8273">
        <ele>261.700012207</ele>
        <time>2015-09-20T10:55:14.834Z</time>
      </trkpt>
      <trkpt lat="45.94296" lon="4.82721">
        <ele>261.899993896</ele>
        <time>2015-09-20T10:55:15.859Z</time>
      </trkpt>
      <trkpt lat="45.94296" lon="4.82712">
        <ele>261.899993896</ele>
        <time>2015-09-20T10:55:16.834Z</time>
      </trkpt>
      <trkpt lat="45.94296" lon="4.82703">
        <ele>261.600006104</ele>
        <time>2015-09-20T10:55:17.867Z</time>
      </trkpt>
      <trkpt lat="45.94296" lon="4.82694">
        <ele>261.700012207</ele>
        <time>2015-09-20T10:55:18.834Z</time>
      </trkpt>
      <trkpt lat="45.94296" lon="4.82686">
        <ele>261.700012207</ele>
        <time>2015-09-20T10:55:19.859Z</time>
      </trkpt>
      <trkpt lat="45.94296" lon="4.82677">
        <ele>261.600006104</ele>
        <time>2015-09-20T10:55:20.834Z</time>
      </trkpt>
      <trkpt lat="45.94296" lon="4.82669">
        <ele>261.600006104</ele>
        <time>2015-09-20T10:55:21.899Z</time>
      </trkpt>
      <trkpt lat="45.94296" lon="4.8266">
        <ele>261.5</ele>
        <time>2015-09-20T10:55:22.836Z</time>
      </trkpt>
      <trkpt lat="45.94296" lon="4.82652">
        <ele>261.600006104</ele>
        <time>2015-09-20T10:55:23.863Z</time>
      </trkpt>
      <trkpt lat="45.94297" lon="4.82643">
        <ele>261.600006104</ele>
        <time>2015-09-20T10:55:24.834Z</time>
      </trkpt>
      <trkpt lat="45.94297" lon="4.82635">
        <ele>261.5</ele>
        <time>2015-09-20T10:55:25.873Z</time>
      </trkpt>
      <trkpt lat="45.94297" lon="4.82626">
        <ele>261.399993896</ele>
        <time>2015-09-20T10:55:26.834Z</time>
      </trkpt>
      <trkpt lat="45.94297" lon="4.82617">
        <ele>261.299987793</ele>
        <time>2015-09-20T10:55:27.858Z</time>
      </trkpt>
      <trkpt lat="45.94297" lon="4.82609">
        <ele>261.200012207</ele>
        <time>2015-09-20T10:55:28.834Z</time>
      </trkpt>
      <trkpt lat="45.94297" lon="4.826">
        <ele>261.100006104</ele>
        <time>2015-09-20T10:55:29.863Z</time>
      </trkpt>
      <trkpt lat="45.94297" lon="4.82591">
        <ele>261.100006104</ele>
        <time>2015-09-20T10:55:30.864Z</time>
      </trkpt>
      <trkpt lat="45.94297" lon="4.82582">
        <ele>261.100006104</ele>
        <time>2015-09-20T10:55:31.855Z</time>
      </trkpt>
      <trkpt lat="45.94298" lon="4.82573">
        <ele>261.100006104</ele>
        <time>2015-09-20T10:55:32.839Z</time>
      </trkpt>
      <trkpt lat="45.94298" lon="4.82564">
        <ele>261.399993896</ele>
        <time>2015-09-20T10:55:33.866Z</time>
      </trkpt>
      <trkpt lat="45.94298" lon="4.82555">
        <ele>261.399993896</ele>
        <time>2015-09-20T10:55:34.834Z</time>
      </trkpt>
      <trkpt lat="45.94299" lon="4.82545">
        <ele>261.399993896</ele>
        <time>2015-09-20T10:55:35.978Z</time>
      </trkpt>
      <trkpt lat="45.94299" lon="4.82536">
        <ele>261.299987793</ele>
        <time>2015-09-20T10:55:36.86Z</time>
      </trkpt>
      <trkpt lat="45.94299" lon="4.82526">
        <ele>261.299987793</ele>
        <time>2015-09-20T10:55:37.86Z</time>
      </trkpt>
      <trkpt lat="45.94299" lon="4.82516">
        <ele>261.399993896</ele>
        <time>2015-09-20T10:55:38.834Z</time>
      </trkpt>
      <trkpt lat="45.94299" lon="4.82507">
        <ele>261.299987793</ele>
        <time>2015-09-20T10:55:39.898Z</time>
      </trkpt>
      <trkpt lat="45.94298" lon="4.82497">
        <ele>261.299987793</ele>
        <time>2015-09-20T10:55:40.834Z</time>
      </trkpt>
      <trkpt lat="45.94297" lon="4.82487">
        <ele>261.100006104</ele>
        <time>2015-09-20T10:55:41.881Z</time>
      </trkpt>
      <trkpt lat="45.94297" lon="4.82478">
        <ele>261.200012207</ele>
        <time>2015-09-20T10:55:42.836Z</time>
      </trkpt>
      <trkpt lat="45.94297" lon="4.82469">
        <ele>261.100006104</ele>
        <time>2015-09-20T10:55:43.863Z</time>
      </trkpt>
      <trkpt lat="45.94297" lon="4.82459">
        <ele>260.899993896</ele>
        <time>2015-09-20T10:55:44.834Z</time>
      </trkpt>
      <trkpt lat="45.94297" lon="4.8245">
        <ele>261</ele>
        <time>2015-09-20T10:55:45.859Z</time>
      </trkpt>
      <trkpt lat="45.94296" lon="4.82441">
        <ele>261.100006104</ele>
        <time>2015-09-20T10:55:46.848Z</time>
      </trkpt>
      <trkpt lat="45.94296" lon="4.82432">
        <ele>260.700012207</ele>
        <time>2015-09-20T10:55:47.863Z</time>
      </trkpt>
      <trkpt lat="45.94295" lon="4.82423">
        <ele>260.600006104</ele>
        <time>2015-09-20T10:55:48.83Z</time>
      </trkpt>
      <trkpt lat="45.94295" lon="4.82414">
        <ele>260.600006104</ele>
        <time>2015-09-20T10:55:49.86Z</time>
      </trkpt>
      <trkpt lat="45.94294" lon="4.82405">
        <ele>260.600006104</ele>
        <time>2015-09-20T10:55:50.834Z</time>
      </trkpt>
      <trkpt lat="45.94294" lon="4.82395">
        <ele>260.399993896</ele>
        <time>2015-09-20T10:55:51.858Z</time>
      </trkpt>
      <trkpt lat="45.94294" lon="4.82385">
        <ele>260.299987793</ele>
        <time>2015-09-20T10:55:52.836Z</time>
      </trkpt>
      <trkpt lat="45.94293" lon="4.82376">
        <ele>260.200012207</ele>
        <time>2015-09-20T10:55:53.863Z</time>
      </trkpt>
      <trkpt lat="45.94292" lon="4.82366">
        <ele>260</ele>
        <time>2015-09-20T10:55:54.834Z</time>
      </trkpt>
      <trkpt lat="45.94292" lon="4.82356">
        <ele>260</ele>
        <time>2015-09-20T10:55:55.859Z</time>
      </trkpt>
      <trkpt lat="45.94291" lon="4.82346">
        <ele>259.899993896</ele>
        <time>2015-09-20T10:55:56.834Z</time>
      </trkpt>
      <trkpt lat="45.94291" lon="4.82335">
        <ele>259.600006104</ele>
        <time>2015-09-20T10:55:57.859Z</time>
      </trkpt>
      <trkpt lat="45.94291" lon="4.82325">
        <ele>259.299987793</ele>
        <time>2015-09-20T10:55:58.835Z</time>
      </trkpt>
      <trkpt lat="45.9429" lon="4.82315">
        <ele>259.100006104</ele>
        <time>2015-09-20T10:55:59.863Z</time>
      </trkpt>
      <trkpt lat="45.9429" lon="4.82305">
        <ele>259</ele>
        <time>2015-09-20T10:56:00.834Z</time>
      </trkpt>
      <trkpt lat="45.94289" lon="4.82295">
        <ele>258.600006104</ele>
        <time>2015-09-20T10:56:01.86Z</time>
      </trkpt>
      <trkpt lat="45.94288" lon="4.82285">
        <ele>258.5</ele>
        <time>2015-09-20T10:56:02.836Z</time>
      </trkpt>
      <trkpt lat="45.94288" lon="4.82276">
        <ele>258.5</ele>
        <time>2015-09-20T10:56:03.858Z</time>
      </trkpt>
      <trkpt lat="45.94288" lon="4.82266">
        <ele>258.600006104</ele>
        <time>2015-09-20T10:56:04.834Z</time>
      </trkpt>
      <trkpt lat="45.94287" lon="4.82257">
        <ele>258.399993896</ele>
        <time>2015-09-20T10:56:05.863Z</time>
      </trkpt>
      <trkpt lat="45.94287" lon="4.82248">
        <ele>258.200012207</ele>
        <time>2015-09-20T10:56:06.834Z</time>
      </trkpt>
      <trkpt lat="45.94287" lon="4.82239">
        <ele>258.200012207</ele>
        <time>2015-09-20T10:56:07.877Z</time>
      </trkpt>
      <trkpt lat="45.94287" lon="4.8223">
        <ele>258.100006104</ele>
        <time>2015-09-20T10:56:08.858Z</time>
      </trkpt>
      <trkpt lat="45.94286" lon="4.82221">
        <ele>258</ele>
        <time>2015-09-20T10:56:09.862Z</time>
      </trkpt>
      <trkpt lat="45.94285" lon="4.82213">
        <ele>257.899993896</ele>
        <time>2015-09-20T10:56:10.834Z</time>
      </trkpt>
      <trkpt lat="45.94284" lon="4.82203">
        <ele>257.799987793</ele>
        <time>2015-09-20T10:56:11.863Z</time>
      </trkpt>
      <trkpt lat="45.94282" lon="4.82194">
        <ele>257.700012207</ele>
        <time>2015-09-20T10:56:12.836Z</time>
      </trkpt>
      <trkpt lat="45.9428" lon="4.82185">
        <ele>257.600006104</ele>
        <time>2015-09-20T10:56:13.865Z</time>
      </trkpt>
      <trkpt lat="45.94278" lon="4.82175">
        <ele>257.399993896</ele>
        <time>2015-09-20T10:56:14.834Z</time>
      </trkpt>
      <trkpt lat="45.94276" lon="4.82166">
        <ele>257.200012207</ele>
        <time>2015-09-20T10:56:15.859Z</time>
      </trkpt>
      <trkpt lat="45.94274" lon="4.82157">
        <ele>257.100006104</ele>
        <time>2015-09-20T10:56:16.834Z</time>
      </trkpt>
      <trkpt lat="45.94273" lon="4.82147">
        <ele>257.5</ele>
        <time>2015-09-20T10:56:17.863Z</time>
      </trkpt>
      <trkpt lat="45.94271" lon="4.82138">
        <ele>257.5</ele>
        <time>2015-09-20T10:56:18.834Z</time>
      </trkpt>
      <trkpt lat="45.94269" lon="4.82129">
        <ele>257.899993896</ele>
        <time>2015-09-20T10:56:19.86Z</time>
      </trkpt>
      <trkpt lat="45.94267" lon="4.82119">
        <ele>258.100006104</ele>
        <time>2015-09-20T10:56:20.834Z</time>
      </trkpt>
      <trkpt lat="45.94265" lon="4.8211">
        <ele>258.100006104</ele>
        <time>2015-09-20T10:56:21.858Z</time>
      </trkpt>
      <trkpt lat="45.94264" lon="4.82102">
        <ele>258.299987793</ele>
        <time>2015-09-20T10:56:22.836Z</time>
      </trkpt>
      <trkpt lat="45.94262" lon="4.82094">
        <ele>258.100006104</ele>
        <time>2015-09-20T10:56:23.933Z</time>
      </trkpt>
      <trkpt lat="45.9426" lon="4.82086">
        <ele>258.299987793</ele>
        <time>2015-09-20T10:56:24.834Z</time>
      </trkpt>
      <trkpt lat="45.94258" lon="4.82078">
        <ele>258.799987793</ele>
        <time>2015-09-20T10:56:25.86Z</time>
      </trkpt>
      <trkpt lat="45.94256" lon="4.8207">
        <ele>259.200012207</ele>
        <time>2015-09-20T10:56:26.835Z</time>
      </trkpt>
      <trkpt lat="45.94255" lon="4.82062">
        <ele>260.100006104</ele>
        <time>2015-09-20T10:56:27.859Z</time>
      </trkpt>
      <trkpt lat="45.94253" lon="4.82054">
        <ele>260.700012207</ele>
        <time>2015-09-20T10:56:28.872Z</time>
      </trkpt>
      <trkpt lat="45.94251" lon="4.82046">
        <ele>262</ele>
        <time>2015-09-20T10:56:29.864Z</time>
      </trkpt>
      <trkpt lat="45.94249" lon="4.82038">
        <ele>262.200012207</ele>
        <time>2015-09-20T10:56:30.835Z</time>
      </trkpt>
      <trkpt lat="45.94247" lon="4.8203">
        <ele>263.100006104</ele>
        <time>2015-09-20T10:56:31.86Z</time>
      </trkpt>
      <trkpt lat="45.94245" lon="4.82022">
        <ele>264.200012207</ele>
        <time>2015-09-20T10:56:32.837Z</time>
      </trkpt>
      <trkpt lat="45.94243" lon="4.82014">
        <ele>264.5</ele>
        <time>2015-09-20T10:56:33.859Z</time>
      </trkpt>
      <trkpt lat="45.94241" lon="4.82005">
        <ele>264.700012207</ele>
        <time>2015-09-20T10:56:34.834Z</time>
      </trkpt>
      <trkpt lat="45.94239" lon="4.81996">
        <ele>264.899993896</ele>
        <time>2015-09-20T10:56:35.867Z</time>
      </trkpt>
      <trkpt lat="45.94237" lon="4.81987">
        <ele>264.899993896</ele>
        <time>2015-09-20T10:56:36.834Z</time>
      </trkpt>
      <trkpt lat="45.94236" lon="4.81978">
        <ele>265.100006104</ele>
        <time>2015-09-20T10:56:37.86Z</time>
      </trkpt>
      <trkpt lat="45.94234" lon="4.81968">
        <ele>264.899993896</ele>
        <time>2015-09-20T10:56:38.835Z</time>
      </trkpt>
      <trkpt lat="45.94233" lon="4.81958">
        <ele>264.600006104</ele>
        <time>2015-09-20T10:56:39.872Z</time>
      </trkpt>
      <trkpt lat="45.94231" lon="4.81948">
        <ele>264.5</ele>
        <time>2015-09-20T10:56:40.834Z</time>
      </trkpt>
      <trkpt lat="45.9423" lon="4.81939">
        <ele>264.200012207</ele>
        <time>2015-09-20T10:56:41.863Z</time>
      </trkpt>
      <trkpt lat="45.94228" lon="4.81931">
        <ele>264.200012207</ele>
        <time>2015-09-20T10:56:42.838Z</time>
      </trkpt>
      <trkpt lat="45.94226" lon="4.81922">
        <ele>264.100006104</ele>
        <time>2015-09-20T10:56:43.859Z</time>
      </trkpt>
      <trkpt lat="45.94225" lon="4.81914">
        <ele>264.600006104</ele>
        <time>2015-09-20T10:56:44.835Z</time>
      </trkpt>
      <trkpt lat="45.94223" lon="4.81905">
        <ele>264.799987793</ele>
        <time>2015-09-20T10:56:45.859Z</time>
      </trkpt>
      <trkpt lat="45.94221" lon="4.81896">
        <ele>265.200012207</ele>
        <time>2015-09-20T10:56:46.834Z</time>
      </trkpt>
      <trkpt lat="45.94219" lon="4.81888">
        <ele>265.5</ele>
        <time>2015-09-20T10:56:47.864Z</time>
      </trkpt>
      <trkpt lat="45.94218" lon="4.81879">
        <ele>265.700012207</ele>
        <time>2015-09-20T10:56:48.834Z</time>
      </trkpt>
      <trkpt lat="45.94216" lon="4.8187">
        <ele>265.700012207</ele>
        <time>2015-09-20T10:56:49.86Z</time>
      </trkpt>
      <trkpt lat="45.94214" lon="4.81862">
        <ele>266</ele>
        <time>2015-09-20T10:56:50.835Z</time>
      </trkpt>
      <trkpt lat="45.94212" lon="4.81855">
        <ele>266.100006104</ele>
        <time>2015-09-20T10:56:51.86Z</time>
      </trkpt>
      <trkpt lat="45.94211" lon="4.81847">
        <ele>266</ele>
        <time>2015-09-20T10:56:52.836Z</time>
      </trkpt>
      <trkpt lat="45.94209" lon="4.81839">
        <ele>265.899993896</ele>
        <time>2015-09-20T10:56:53.863Z</time>
      </trkpt>
      <trkpt lat="45.94208" lon="4.81832">
        <ele>265.899993896</ele>
        <time>2015-09-20T10:56:54.834Z</time>
      </trkpt>
      <trkpt lat="45.94207" lon="4.81824">
        <ele>266</ele>
        <time>2015-09-20T10:56:55.874Z</time>
      </trkpt>
      <trkpt lat="45.94206" lon="4.81816">
        <ele>265.799987793</ele>
        <time>2015-09-20T10:56:56.834Z</time>
      </trkpt>
      <trkpt lat="45.94206" lon="4.81807">
        <ele>264.5</ele>
        <time>2015-09-20T10:56:57.86Z</time>
      </trkpt>
      <trkpt lat="45.94207" lon="4.81798">
        <ele>263.799987793</ele>
        <time>2015-09-20T10:56:58.835Z</time>
      </trkpt>
      <trkpt lat="45.94208" lon="4.81789">
        <ele>262.799987793</ele>
        <time>2015-09-20T10:56:59.865Z</time>
      </trkpt>
      <trkpt lat="45.9421" lon="4.8178">
        <ele>262.100006104</ele>
        <time>2015-09-20T10:57:00.835Z</time>
      </trkpt>
      <trkpt lat="45.94212" lon="4.81772">
        <ele>261.399993896</ele>
        <time>2015-09-20T10:57:01.863Z</time>
      </trkpt>
      <trkpt lat="45.94214" lon="4.81764">
        <ele>261.399993896</ele>
        <time>2015-09-20T10:57:02.837Z</time>
      </trkpt>
      <trkpt lat="45.94217" lon="4.81758">
        <ele>261.200012207</ele>
        <time>2015-09-20T10:57:03.859Z</time>
      </trkpt>
      <trkpt lat="45.9422" lon="4.81751">
        <ele>261.600006104</ele>
        <time>2015-09-20T10:57:04.834Z</time>
      </trkpt>
      <trkpt lat="45.94223" lon="4.81744">
        <ele>261.700012207</ele>
        <time>2015-09-20T10:57:05.863Z</time>
      </trkpt>
      <trkpt lat="45.94224" lon="4.81737">
        <ele>261.799987793</ele>
        <time>2015-09-20T10:57:06.835Z</time>
      </trkpt>
      <trkpt lat="45.94224" lon="4.81731">
        <ele>262</ele>
        <time>2015-09-20T10:57:07.864Z</time>
      </trkpt>
      <trkpt lat="45.94222" lon="4.81724">
        <ele>262</ele>
        <time>2015-09-20T10:57:08.91Z</time>
      </trkpt>
      <trkpt lat="45.94219" lon="4.81717">
        <ele>261.899993896</ele>
        <time>2015-09-20T10:57:09.86Z</time>
      </trkpt>
      <trkpt lat="45.94215" lon="4.81713">
        <ele>261.899993896</ele>
        <time>2015-09-20T10:57:10.864Z</time>
      </trkpt>
      <trkpt lat="45.94211" lon="4.81709">
        <ele>261.5</ele>
        <time>2015-09-20T10:57:11.878Z</time>
      </trkpt>
      <trkpt lat="45.94206" lon="4.81707">
        <ele>261</ele>
        <time>2015-09-20T10:57:12.836Z</time>
      </trkpt>
      <trkpt lat="45.942" lon="4.81703">
        <ele>260.700012207</ele>
        <time>2015-09-20T10:57:13.86Z</time>
      </trkpt>
      <trkpt lat="45.94195" lon="4.81697">
        <ele>260.5</ele>
        <time>2015-09-20T10:57:14.835Z</time>
      </trkpt>
      <trkpt lat="45.9419" lon="4.8169">
        <ele>260.5</ele>
        <time>2015-09-20T10:57:15.86Z</time>
      </trkpt>
      <trkpt lat="45.94186" lon="4.81682">
        <ele>260.5</ele>
        <time>2015-09-20T10:57:16.835Z</time>
      </trkpt>
      <trkpt lat="45.94183" lon="4.81673">
        <ele>260.600006104</ele>
        <time>2015-09-20T10:57:17.864Z</time>
      </trkpt>
      <trkpt lat="45.9418" lon="4.81662">
        <ele>260.600006104</ele>
        <time>2015-09-20T10:57:18.835Z</time>
      </trkpt>
      <trkpt lat="45.94178" lon="4.81651">
        <ele>260.600006104</ele>
        <time>2015-09-20T10:57:19.86Z</time>
      </trkpt>
      <trkpt lat="45.94175" lon="4.81639">
        <ele>260.5</ele>
        <time>2015-09-20T10:57:20.835Z</time>
      </trkpt>
      <trkpt lat="45.94173" lon="4.81627">
        <ele>260.100006104</ele>
        <time>2015-09-20T10:57:21.859Z</time>
      </trkpt>
      <trkpt lat="45.9417" lon="4.81614">
        <ele>259.899993896</ele>
        <time>2015-09-20T10:57:22.837Z</time>
      </trkpt>
      <trkpt lat="45.9417" lon="4.81614">
        <ele>259.899993896</ele>
        <time>2015-09-20T10:57:22.866Z</time>
      </trkpt>
      <trkpt lat="45.94168" lon="4.81601">
        <ele>259.799987793</ele>
        <time>2015-09-20T10:57:23.84Z</time>
      </trkpt>
      <trkpt lat="45.94168" lon="4.81601">
        <ele>259.799987793</ele>
        <time>2015-09-20T10:57:23.897Z</time>
      </trkpt>
      <trkpt lat="45.94166" lon="4.81588">
        <ele>259.399993896</ele>
        <time>2015-09-20T10:57:24.834Z</time>
      </trkpt>
      <trkpt lat="45.94166" lon="4.81588">
        <ele>259.399993896</ele>
        <time>2015-09-20T10:57:24.861Z</time>
      </trkpt>
      <trkpt lat="45.94164" lon="4.81575">
        <ele>259.200012207</ele>
        <time>2015-09-20T10:57:25.836Z</time>
      </trkpt>
      <trkpt lat="45.94164" lon="4.81575">
        <ele>259.200012207</ele>
        <time>2015-09-20T10:57:25.862Z</time>
      </trkpt>
      <trkpt lat="45.94162" lon="4.8156">
        <ele>259</ele>
        <time>2015-09-20T10:57:26.835Z</time>
      </trkpt>
      <trkpt lat="45.94162" lon="4.8156">
        <ele>259</ele>
        <time>2015-09-20T10:57:26.872Z</time>
      </trkpt>
      <trkpt lat="45.94162" lon="4.81546">
        <ele>258.700012207</ele>
        <time>2015-09-20T10:57:27.854Z</time>
      </trkpt>
      <trkpt lat="45.94162" lon="4.81546">
        <ele>258.700012207</ele>
        <time>2015-09-20T10:57:27.879Z</time>
      </trkpt>
      <trkpt lat="45.94161" lon="4.81532">
        <ele>258.5</ele>
        <time>2015-09-20T10:57:28.834Z</time>
      </trkpt>
      <trkpt lat="45.94161" lon="4.81532">
        <ele>258.5</ele>
        <time>2015-09-20T10:57:28.862Z</time>
      </trkpt>
      <trkpt lat="45.94161" lon="4.81517">
        <ele>258.299987793</ele>
        <time>2015-09-20T10:57:29.839Z</time>
      </trkpt>
      <trkpt lat="45.94161" lon="4.81517">
        <ele>258.299987793</ele>
        <time>2015-09-20T10:57:29.867Z</time>
      </trkpt>
      <trkpt lat="45.94162" lon="4.81502">
        <ele>258.200012207</ele>
        <time>2015-09-20T10:57:30.834Z</time>
      </trkpt>
      <trkpt lat="45.94162" lon="4.81502">
        <ele>258.200012207</ele>
        <time>2015-09-20T10:57:30.861Z</time>
      </trkpt>
      <trkpt lat="45.94162" lon="4.81487">
        <ele>258</ele>
        <time>2015-09-20T10:57:31.836Z</time>
      </trkpt>
      <trkpt lat="45.94162" lon="4.81487">
        <ele>258</ele>
        <time>2015-09-20T10:57:31.863Z</time>
      </trkpt>
      <trkpt lat="45.94163" lon="4.81472">
        <ele>257.600006104</ele>
        <time>2015-09-20T10:57:32.837Z</time>
      </trkpt>
      <trkpt lat="45.94163" lon="4.81472">
        <ele>257.600006104</ele>
        <time>2015-09-20T10:57:32.865Z</time>
      </trkpt>
      <trkpt lat="45.94164" lon="4.81457">
        <ele>257.399993896</ele>
        <time>2015-09-20T10:57:33.834Z</time>
      </trkpt>
      <trkpt lat="45.94164" lon="4.81457">
        <ele>257.399993896</ele>
        <time>2015-09-20T10:57:33.861Z</time>
      </trkpt>
      <trkpt lat="45.94166" lon="4.81442">
        <ele>257.100006104</ele>
        <time>2015-09-20T10:57:34.835Z</time>
      </trkpt>
      <trkpt lat="45.94166" lon="4.81442">
        <ele>257.100006104</ele>
        <time>2015-09-20T10:57:34.862Z</time>
      </trkpt>
      <trkpt lat="45.94167" lon="4.81426">
        <ele>256.899993896</ele>
        <time>2015-09-20T10:57:35.839Z</time>
      </trkpt>
      <trkpt lat="45.94167" lon="4.81426">
        <ele>256.899993896</ele>
        <time>2015-09-20T10:57:35.867Z</time>
      </trkpt>
      <trkpt lat="45.94168" lon="4.81411">
        <ele>256.5</ele>
        <time>2015-09-20T10:57:36.834Z</time>
      </trkpt>
      <trkpt lat="45.94168" lon="4.81411">
        <ele>256.5</ele>
        <time>2015-09-20T10:57:36.861Z</time>
      </trkpt>
      <trkpt lat="45.94169" lon="4.81395">
        <ele>256.200012207</ele>
        <time>2015-09-20T10:57:37.836Z</time>
      </trkpt>
      <trkpt lat="45.94169" lon="4.81395">
        <ele>256.200012207</ele>
        <time>2015-09-20T10:57:37.862Z</time>
      </trkpt>
      <trkpt lat="45.9417" lon="4.81379">
        <ele>256</ele>
        <time>2015-09-20T10:57:38.835Z</time>
      </trkpt>
      <trkpt lat="45.9417" lon="4.81379">
        <ele>256</ele>
        <time>2015-09-20T10:57:38.86Z</time>
      </trkpt>
      <trkpt lat="45.94171" lon="4.81363">
        <ele>255.699996948</ele>
        <time>2015-09-20T10:57:39.834Z</time>
      </trkpt>
      <trkpt lat="45.94171" lon="4.81363">
        <ele>255.699996948</ele>
        <time>2015-09-20T10:57:39.907Z</time>
      </trkpt>
      <trkpt lat="45.94172" lon="4.81347">
        <ele>255.600006104</ele>
        <time>2015-09-20T10:57:40.835Z</time>
      </trkpt>
      <trkpt lat="45.94172" lon="4.81347">
        <ele>255.600006104</ele>
        <time>2015-09-20T10:57:40.862Z</time>
      </trkpt>
      <trkpt lat="45.94173" lon="4.81331">
        <ele>255.399993896</ele>
        <time>2015-09-20T10:57:41.839Z</time>
      </trkpt>
      <trkpt lat="45.94173" lon="4.81331">
        <ele>255.399993896</ele>
        <time>2015-09-20T10:57:41.877Z</time>
      </trkpt>
      <trkpt lat="45.94174" lon="4.81314">
        <ele>255.300003052</ele>
        <time>2015-09-20T10:57:42.838Z</time>
      </trkpt>
      <trkpt lat="45.94174" lon="4.81314">
        <ele>255.300003052</ele>
        <time>2015-09-20T10:57:42.871Z</time>
      </trkpt>
      <trkpt lat="45.94174" lon="4.81297">
        <ele>255.300003052</ele>
        <time>2015-09-20T10:57:43.851Z</time>
      </trkpt>
      <trkpt lat="45.94174" lon="4.81297">
        <ele>255.300003052</ele>
        <time>2015-09-20T10:57:43.878Z</time>
      </trkpt>
      <trkpt lat="45.94173" lon="4.8128">
        <ele>255</ele>
        <time>2015-09-20T10:57:44.835Z</time>
      </trkpt>
      <trkpt lat="45.94173" lon="4.8128">
        <ele>255</ele>
        <time>2015-09-20T10:57:44.866Z</time>
      </trkpt>
      <trkpt lat="45.94172" lon="4.81264">
        <ele>254.800003052</ele>
        <time>2015-09-20T10:57:45.834Z</time>
      </trkpt>
      <trkpt lat="45.94172" lon="4.81264">
        <ele>254.800003052</ele>
        <time>2015-09-20T10:57:45.86Z</time>
      </trkpt>
      <trkpt lat="45.94168" lon="4.81247">
        <ele>254.5</ele>
        <time>2015-09-20T10:57:46.835Z</time>
      </trkpt>
      <trkpt lat="45.94168" lon="4.81247">
        <ele>254.5</ele>
        <time>2015-09-20T10:57:46.86Z</time>
      </trkpt>
      <trkpt lat="45.94165" lon="4.8123">
        <ele>254.199996948</ele>
        <time>2015-09-20T10:57:47.838Z</time>
      </trkpt>
      <trkpt lat="45.94165" lon="4.8123">
        <ele>254.199996948</ele>
        <time>2015-09-20T10:57:47.866Z</time>
      </trkpt>
      <trkpt lat="45.9416" lon="4.81214">
        <ele>253.600006104</ele>
        <time>2015-09-20T10:57:48.835Z</time>
      </trkpt>
      <trkpt lat="45.9416" lon="4.81214">
        <ele>253.600006104</ele>
        <time>2015-09-20T10:57:48.86Z</time>
      </trkpt>
      <trkpt lat="45.94156" lon="4.81198">
        <ele>253.100006104</ele>
        <time>2015-09-20T10:57:49.836Z</time>
      </trkpt>
      <trkpt lat="45.94156" lon="4.81198">
        <ele>253.100006104</ele>
        <time>2015-09-20T10:57:49.862Z</time>
      </trkpt>
      <trkpt lat="45.94151" lon="4.81181">
        <ele>252.699996948</ele>
        <time>2015-09-20T10:57:50.835Z</time>
      </trkpt>
      <trkpt lat="45.94151" lon="4.81181">
        <ele>252.699996948</ele>
        <time>2015-09-20T10:57:50.861Z</time>
      </trkpt>
      <trkpt lat="45.94145" lon="4.81166">
        <ele>252.399993896</ele>
        <time>2015-09-20T10:57:51.835Z</time>
      </trkpt>
      <trkpt lat="45.94145" lon="4.81166">
        <ele>252.399993896</ele>
        <time>2015-09-20T10:57:51.86Z</time>
      </trkpt>
      <trkpt lat="45.94139" lon="4.81151">
        <ele>251.800003052</ele>
        <time>2015-09-20T10:57:52.846Z</time>
      </trkpt>
      <trkpt lat="45.94139" lon="4.81151">
        <ele>251.800003052</ele>
        <time>2015-09-20T10:57:53.002Z</time>
      </trkpt>
      <trkpt lat="45.94132" lon="4.81136">
        <ele>251.199996948</ele>
        <time>2015-09-20T10:57:53.844Z</time>
      </trkpt>
      <trkpt lat="45.94132" lon="4.81136">
        <ele>251.199996948</ele>
        <time>2015-09-20T10:57:53.871Z</time>
      </trkpt>
      <trkpt lat="45.94124" lon="4.81121">
        <ele>250.699996948</ele>
        <time>2015-09-20T10:57:54.835Z</time>
      </trkpt>
      <trkpt lat="45.94124" lon="4.81121">
        <ele>250.699996948</ele>
        <time>2015-09-20T10:57:54.863Z</time>
      </trkpt>
      <trkpt lat="45.94117" lon="4.81107">
        <ele>250.100006104</ele>
        <time>2015-09-20T10:57:55.858Z</time>
      </trkpt>
      <trkpt lat="45.94117" lon="4.81107">
        <ele>250.100006104</ele>
        <time>2015-09-20T10:57:55.883Z</time>
      </trkpt>
      <trkpt lat="45.9411" lon="4.81093">
        <ele>249.699996948</ele>
        <time>2015-09-20T10:57:56.835Z</time>
      </trkpt>
      <trkpt lat="45.9411" lon="4.81093">
        <ele>249.699996948</ele>
        <time>2015-09-20T10:57:56.862Z</time>
      </trkpt>
      <trkpt lat="45.94102" lon="4.81079">
        <ele>249.100006104</ele>
        <time>2015-09-20T10:57:57.835Z</time>
      </trkpt>
      <trkpt lat="45.94102" lon="4.81079">
        <ele>249.100006104</ele>
        <time>2015-09-20T10:57:57.862Z</time>
      </trkpt>
      <trkpt lat="45.94095" lon="4.81064">
        <ele>248.600006104</ele>
        <time>2015-09-20T10:57:58.835Z</time>
      </trkpt>
      <trkpt lat="45.94095" lon="4.81064">
        <ele>248.600006104</ele>
        <time>2015-09-20T10:57:58.862Z</time>
      </trkpt>
      <trkpt lat="45.9409" lon="4.81049">
        <ele>247.800003052</ele>
        <time>2015-09-20T10:57:59.839Z</time>
      </trkpt>
      <trkpt lat="45.9409" lon="4.81049">
        <ele>247.800003052</ele>
        <time>2015-09-20T10:57:59.885Z</time>
      </trkpt>
      <trkpt lat="45.94084" lon="4.81032">
        <ele>247</ele>
        <time>2015-09-20T10:58:00.835Z</time>
      </trkpt>
      <trkpt lat="45.94084" lon="4.81032">
        <ele>247</ele>
        <time>2015-09-20T10:58:00.866Z</time>
      </trkpt>
      <trkpt lat="45.9408" lon="4.81016">
        <ele>245.800003052</ele>
        <time>2015-09-20T10:58:01.836Z</time>
      </trkpt>
      <trkpt lat="45.9408" lon="4.81016">
        <ele>245.800003052</ele>
        <time>2015-09-20T10:58:01.863Z</time>
      </trkpt>
      <trkpt lat="45.94077" lon="4.80999">
        <ele>245.199996948</ele>
        <time>2015-09-20T10:58:02.839Z</time>
      </trkpt>
      <trkpt lat="45.94077" lon="4.80999">
        <ele>245.199996948</ele>
        <time>2015-09-20T10:58:02.888Z</time>
      </trkpt>
      <trkpt lat="45.94074" lon="4.80983">
        <ele>244.100006104</ele>
        <time>2015-09-20T10:58:03.834Z</time>
      </trkpt>
      <trkpt lat="45.94074" lon="4.80983">
        <ele>244.100006104</ele>
        <time>2015-09-20T10:58:03.86Z</time>
      </trkpt>
      <trkpt lat="45.94072" lon="4.80966">
        <ele>242.399993896</ele>
        <time>2015-09-20T10:58:04.835Z</time>
      </trkpt>
      <trkpt lat="45.94072" lon="4.80966">
        <ele>242.399993896</ele>
        <time>2015-09-20T10:58:04.86Z</time>
      </trkpt>
      <trkpt lat="45.94071" lon="4.8095">
        <ele>241.5</ele>
        <time>2015-09-20T10:58:05.839Z</time>
      </trkpt>
      <trkpt lat="45.94071" lon="4.8095">
        <ele>241.5</ele>
        <time>2015-09-20T10:58:05.867Z</time>
      </trkpt>
      <trkpt lat="45.94069" lon="4.80934">
        <ele>240.600006104</ele>
        <time>2015-09-20T10:58:06.835Z</time>
      </trkpt>
      <trkpt lat="45.94069" lon="4.80934">
        <ele>240.600006104</ele>
        <time>2015-09-20T10:58:06.862Z</time>
      </trkpt>
      <trkpt lat="45.94067" lon="4.80917">
        <ele>238.600006104</ele>
        <time>2015-09-20T10:58:07.839Z</time>
      </trkpt>
      <trkpt lat="45.94067" lon="4.80917">
        <ele>238.600006104</ele>
        <time>2015-09-20T10:58:07.912Z</time>
      </trkpt>
      <trkpt lat="45.94064" lon="4.80901">
        <ele>236.5</ele>
        <time>2015-09-20T10:58:08.834Z</time>
      </trkpt>
      <trkpt lat="45.94064" lon="4.80901">
        <ele>236.5</ele>
        <time>2015-09-20T10:58:08.86Z</time>
      </trkpt>
      <trkpt lat="45.94062" lon="4.80885">
        <ele>236.199996948</ele>
        <time>2015-09-20T10:58:09.874Z</time>
      </trkpt>
      <trkpt lat="45.94062" lon="4.80885">
        <ele>236.199996948</ele>
        <time>2015-09-20T10:58:09.996Z</time>
      </trkpt>
      <trkpt lat="45.9406" lon="4.80868">
        <ele>235.100006104</ele>
        <time>2015-09-20T10:58:10.835Z</time>
      </trkpt>
      <trkpt lat="45.9406" lon="4.80868">
        <ele>235.100006104</ele>
        <time>2015-09-20T10:58:10.862Z</time>
      </trkpt>
      <trkpt lat="45.94058" lon="4.80852">
        <ele>233.600006104</ele>
        <time>2015-09-20T10:58:11.839Z</time>
      </trkpt>
      <trkpt lat="45.94058" lon="4.80852">
        <ele>233.600006104</ele>
        <time>2015-09-20T10:58:11.883Z</time>
      </trkpt>
      <trkpt lat="45.94056" lon="4.80837">
        <ele>232.600006104</ele>
        <time>2015-09-20T10:58:12.84Z</time>
      </trkpt>
      <trkpt lat="45.94056" lon="4.80837">
        <ele>232.600006104</ele>
        <time>2015-09-20T10:58:12.874Z</time>
      </trkpt>
      <trkpt lat="45.94055" lon="4.80821">
        <ele>231.800003052</ele>
        <time>2015-09-20T10:58:13.836Z</time>
      </trkpt>
      <trkpt lat="45.94055" lon="4.80821">
        <ele>231.800003052</ele>
        <time>2015-09-20T10:58:13.861Z</time>
      </trkpt>
      <trkpt lat="45.94052" lon="4.80805">
        <ele>231</ele>
        <time>2015-09-20T10:58:14.834Z</time>
      </trkpt>
      <trkpt lat="45.94052" lon="4.80805">
        <ele>231</ele>
        <time>2015-09-20T10:58:14.861Z</time>
      </trkpt>
      <trkpt lat="45.9405" lon="4.80789">
        <ele>229.199996948</ele>
        <time>2015-09-20T10:58:15.834Z</time>
      </trkpt>
      <trkpt lat="45.9405" lon="4.80789">
        <ele>229.199996948</ele>
        <time>2015-09-20T10:58:15.862Z</time>
      </trkpt>
      <trkpt lat="45.94048" lon="4.80773">
        <ele>228.300003052</ele>
        <time>2015-09-20T10:58:16.835Z</time>
      </trkpt>
      <trkpt lat="45.94048" lon="4.80773">
        <ele>228.300003052</ele>
        <time>2015-09-20T10:58:16.876Z</time>
      </trkpt>
      <trkpt lat="45.94046" lon="4.80758">
        <ele>227.600006104</ele>
        <time>2015-09-20T10:58:17.839Z</time>
      </trkpt>
      <trkpt lat="45.94046" lon="4.80758">
        <ele>227.600006104</ele>
        <time>2015-09-20T10:58:17.877Z</time>
      </trkpt>
      <trkpt lat="45.94044" lon="4.80743">
        <ele>226.5</ele>
        <time>2015-09-20T10:58:18.834Z</time>
      </trkpt>
      <trkpt lat="45.94044" lon="4.80743">
        <ele>226.5</ele>
        <time>2015-09-20T10:58:18.861Z</time>
      </trkpt>
      <trkpt lat="45.94043" lon="4.80729">
        <ele>225.600006104</ele>
        <time>2015-09-20T10:58:19.839Z</time>
      </trkpt>
      <trkpt lat="45.94043" lon="4.80729">
        <ele>225.600006104</ele>
        <time>2015-09-20T10:58:19.935Z</time>
      </trkpt>
      <trkpt lat="45.94041" lon="4.80714">
        <ele>224.800003052</ele>
        <time>2015-09-20T10:58:20.835Z</time>
      </trkpt>
      <trkpt lat="45.94041" lon="4.80714">
        <ele>224.800003052</ele>
        <time>2015-09-20T10:58:20.863Z</time>
      </trkpt>
      <trkpt lat="45.94039" lon="4.80698">
        <ele>223.699996948</ele>
        <time>2015-09-20T10:58:21.835Z</time>
      </trkpt>
      <trkpt lat="45.94039" lon="4.80698">
        <ele>223.699996948</ele>
        <time>2015-09-20T10:58:21.862Z</time>
      </trkpt>
      <trkpt lat="45.94037" lon="4.80684">
        <ele>222.899993896</ele>
        <time>2015-09-20T10:58:22.843Z</time>
      </trkpt>
      <trkpt lat="45.94037" lon="4.80684">
        <ele>222.899993896</ele>
        <time>2015-09-20T10:58:22.872Z</time>
      </trkpt>
      <trkpt lat="45.94035" lon="4.80669">
        <ele>222</ele>
        <time>2015-09-20T10:58:23.838Z</time>
      </trkpt>
      <trkpt lat="45.94035" lon="4.80669">
        <ele>222</ele>
        <time>2015-09-20T10:58:23.866Z</time>
      </trkpt>
      <trkpt lat="45.94033" lon="4.80654">
        <ele>221.300003052</ele>
        <time>2015-09-20T10:58:24.835Z</time>
      </trkpt>
      <trkpt lat="45.94033" lon="4.80654">
        <ele>221.300003052</ele>
        <time>2015-09-20T10:58:24.86Z</time>
      </trkpt>
      <trkpt lat="45.94032" lon="4.80639">
        <ele>220.600006104</ele>
        <time>2015-09-20T10:58:25.835Z</time>
      </trkpt>
      <trkpt lat="45.94032" lon="4.80639">
        <ele>220.600006104</ele>
        <time>2015-09-20T10:58:25.861Z</time>
      </trkpt>
      <trkpt lat="45.9403" lon="4.80625">
        <ele>219.800003052</ele>
        <time>2015-09-20T10:58:26.834Z</time>
      </trkpt>
      <trkpt lat="45.9403" lon="4.80625">
        <ele>219.800003052</ele>
        <time>2015-09-20T10:58:26.86Z</time>
      </trkpt>
      <trkpt lat="45.94028" lon="4.8061">
        <ele>219</ele>
        <time>2015-09-20T10:58:27.835Z</time>
      </trkpt>
      <trkpt lat="45.94028" lon="4.8061">
        <ele>219</ele>
        <time>2015-09-20T10:58:27.86Z</time>
      </trkpt>
      <trkpt lat="45.94026" lon="4.80595">
        <ele>218.100006104</ele>
        <time>2015-09-20T10:58:28.834Z</time>
      </trkpt>
      <trkpt lat="45.94026" lon="4.80595">
        <ele>218.100006104</ele>
        <time>2015-09-20T10:58:28.859Z</time>
      </trkpt>
      <trkpt lat="45.94024" lon="4.8058">
        <ele>217.399993896</ele>
        <time>2015-09-20T10:58:29.841Z</time>
      </trkpt>
      <trkpt lat="45.94024" lon="4.8058">
        <ele>217.399993896</ele>
        <time>2015-09-20T10:58:29.866Z</time>
      </trkpt>
      <trkpt lat="45.94023" lon="4.80566">
        <ele>216.800003052</ele>
        <time>2015-09-20T10:58:30.85Z</time>
      </trkpt>
      <trkpt lat="45.94023" lon="4.80566">
        <ele>216.800003052</ele>
        <time>2015-09-20T10:58:30.876Z</time>
      </trkpt>
      <trkpt lat="45.94022" lon="4.80551">
        <ele>215.899993896</ele>
        <time>2015-09-20T10:58:31.836Z</time>
      </trkpt>
      <trkpt lat="45.94022" lon="4.80551">
        <ele>215.899993896</ele>
        <time>2015-09-20T10:58:31.861Z</time>
      </trkpt>
      <trkpt lat="45.94022" lon="4.80537">
        <ele>215.300003052</ele>
        <time>2015-09-20T10:58:32.843Z</time>
      </trkpt>
      <trkpt lat="45.94022" lon="4.80537">
        <ele>215.300003052</ele>
        <time>2015-09-20T10:58:32.872Z</time>
      </trkpt>
      <trkpt lat="45.94022" lon="4.80523">
        <ele>214.5</ele>
        <time>2015-09-20T10:58:33.835Z</time>
      </trkpt>
      <trkpt lat="45.94022" lon="4.80523">
        <ele>214.5</ele>
        <time>2015-09-20T10:58:33.863Z</time>
      </trkpt>
      <trkpt lat="45.94021" lon="4.80509">
        <ele>213.699996948</ele>
        <time>2015-09-20T10:58:34.835Z</time>
      </trkpt>
      <trkpt lat="45.94021" lon="4.80509">
        <ele>213.699996948</ele>
        <time>2015-09-20T10:58:34.862Z</time>
      </trkpt>
      <trkpt lat="45.94021" lon="4.80494">
        <ele>212.899993896</ele>
        <time>2015-09-20T10:58:35.839Z</time>
      </trkpt>
      <trkpt lat="45.94021" lon="4.80494">
        <ele>212.899993896</ele>
        <time>2015-09-20T10:58:35.89Z</time>
      </trkpt>
      <trkpt lat="45.94021" lon="4.8048">
        <ele>212.100006104</ele>
        <time>2015-09-20T10:58:36.834Z</time>
      </trkpt>
      <trkpt lat="45.94021" lon="4.8048">
        <ele>212.100006104</ele>
        <time>2015-09-20T10:58:37.046Z</time>
      </trkpt>
      <trkpt lat="45.94021" lon="4.80466">
        <ele>211.5</ele>
        <time>2015-09-20T10:58:37.835Z</time>
      </trkpt>
      <trkpt lat="45.94021" lon="4.80466">
        <ele>211.5</ele>
        <time>2015-09-20T10:58:37.861Z</time>
      </trkpt>
      <trkpt lat="45.94021" lon="4.80452">
        <ele>210.899993896</ele>
        <time>2015-09-20T10:58:38.834Z</time>
      </trkpt>
      <trkpt lat="45.94021" lon="4.80452">
        <ele>210.899993896</ele>
        <time>2015-09-20T10:58:38.861Z</time>
      </trkpt>
      <trkpt lat="45.94019" lon="4.80437">
        <ele>210.199996948</ele>
        <time>2015-09-20T10:58:39.834Z</time>
      </trkpt>
      <trkpt lat="45.94019" lon="4.80437">
        <ele>210.199996948</ele>
        <time>2015-09-20T10:58:39.861Z</time>
      </trkpt>
      <trkpt lat="45.94018" lon="4.80424">
        <ele>209.600006104</ele>
        <time>2015-09-20T10:58:40.836Z</time>
      </trkpt>
      <trkpt lat="45.94018" lon="4.80424">
        <ele>209.600006104</ele>
        <time>2015-09-20T10:58:40.863Z</time>
      </trkpt>
      <trkpt lat="45.94015" lon="4.8041">
        <ele>208.899993896</ele>
        <time>2015-09-20T10:58:41.837Z</time>
      </trkpt>
      <trkpt lat="45.94015" lon="4.8041">
        <ele>208.899993896</ele>
        <time>2015-09-20T10:58:41.864Z</time>
      </trkpt>
      <trkpt lat="45.94012" lon="4.80397">
        <ele>208.399993896</ele>
        <time>2015-09-20T10:58:42.845Z</time>
      </trkpt>
      <trkpt lat="45.94012" lon="4.80397">
        <ele>208.399993896</ele>
        <time>2015-09-20T10:58:42.873Z</time>
      </trkpt>
      <trkpt lat="45.94008" lon="4.80383">
        <ele>208.100006104</ele>
        <time>2015-09-20T10:58:43.837Z</time>
      </trkpt>
      <trkpt lat="45.94008" lon="4.80383">
        <ele>208.100006104</ele>
        <time>2015-09-20T10:58:43.864Z</time>
      </trkpt>
      <trkpt lat="45.94004" lon="4.8037">
        <ele>208.100006104</ele>
        <time>2015-09-20T10:58:44.835Z</time>
      </trkpt>
      <trkpt lat="45.94004" lon="4.8037">
        <ele>208.100006104</ele>
        <time>2015-09-20T10:58:44.876Z</time>
      </trkpt>
      <trkpt lat="45.94" lon="4.80357">
        <ele>207.300003052</ele>
        <time>2015-09-20T10:58:45.835Z</time>
      </trkpt>
      <trkpt lat="45.94" lon="4.80357">
        <ele>207.300003052</ele>
        <time>2015-09-20T10:58:45.874Z</time>
      </trkpt>
      <trkpt lat="45.93997" lon="4.80342">
        <ele>205.800003052</ele>
        <time>2015-09-20T10:58:46.848Z</time>
      </trkpt>
      <trkpt lat="45.93997" lon="4.80342">
        <ele>205.800003052</ele>
        <time>2015-09-20T10:58:46.888Z</time>
      </trkpt>
      <trkpt lat="45.93993" lon="4.80328">
        <ele>204.100006104</ele>
        <time>2015-09-20T10:58:47.838Z</time>
      </trkpt>
      <trkpt lat="45.93993" lon="4.80328">
        <ele>204.100006104</ele>
        <time>2015-09-20T10:58:47.877Z</time>
      </trkpt>
      <trkpt lat="45.93989" lon="4.80314">
        <ele>203.199996948</ele>
        <time>2015-09-20T10:58:48.835Z</time>
      </trkpt>
      <trkpt lat="45.93989" lon="4.80314">
        <ele>203.199996948</ele>
        <time>2015-09-20T10:58:48.862Z</time>
      </trkpt>
      <trkpt lat="45.93985" lon="4.803">
        <ele>202.699996948</ele>
        <time>2015-09-20T10:58:49.837Z</time>
      </trkpt>
      <trkpt lat="45.93985" lon="4.803">
        <ele>202.699996948</ele>
        <time>2015-09-20T10:58:49.862Z</time>
      </trkpt>
      <trkpt lat="45.93981" lon="4.80285">
        <ele>201.899993896</ele>
        <time>2015-09-20T10:58:50.836Z</time>
      </trkpt>
      <trkpt lat="45.93981" lon="4.80285">
        <ele>201.899993896</ele>
        <time>2015-09-20T10:58:50.862Z</time>
      </trkpt>
      <trkpt lat="45.93977" lon="4.80271">
        <ele>201.399993896</ele>
        <time>2015-09-20T10:58:51.835Z</time>
      </trkpt>
      <trkpt lat="45.93977" lon="4.80271">
        <ele>201.399993896</ele>
        <time>2015-09-20T10:58:51.862Z</time>
      </trkpt>
      <trkpt lat="45.93972" lon="4.80257">
        <ele>200.899993896</ele>
        <time>2015-09-20T10:58:52.845Z</time>
      </trkpt>
      <trkpt lat="45.93972" lon="4.80257">
        <ele>200.899993896</ele>
        <time>2015-09-20T10:58:52.872Z</time>
      </trkpt>
      <trkpt lat="45.93969" lon="4.80244">
        <ele>200.199996948</ele>
        <time>2015-09-20T10:58:53.838Z</time>
      </trkpt>
      <trkpt lat="45.93969" lon="4.80244">
        <ele>200.199996948</ele>
        <time>2015-09-20T10:58:53.877Z</time>
      </trkpt>
      <trkpt lat="45.93965" lon="4.80231">
        <ele>199.899993896</ele>
        <time>2015-09-20T10:58:54.835Z</time>
      </trkpt>
      <trkpt lat="45.93965" lon="4.80231">
        <ele>199.899993896</ele>
        <time>2015-09-20T10:58:54.861Z</time>
      </trkpt>
      <trkpt lat="45.93962" lon="4.80217">
        <ele>199.699996948</ele>
        <time>2015-09-20T10:58:55.838Z</time>
      </trkpt>
      <trkpt lat="45.93962" lon="4.80217">
        <ele>199.699996948</ele>
        <time>2015-09-20T10:58:55.868Z</time>
      </trkpt>
      <trkpt lat="45.93959" lon="4.80205">
        <ele>199.399993896</ele>
        <time>2015-09-20T10:58:56.836Z</time>
      </trkpt>
      <trkpt lat="45.93956" lon="4.80192">
        <ele>199.199996948</ele>
        <time>2015-09-20T10:58:57.988Z</time>
      </trkpt>
      <trkpt lat="45.93954" lon="4.8018">
        <ele>199.100006104</ele>
        <time>2015-09-20T10:58:58.836Z</time>
      </trkpt>
      <trkpt lat="45.93952" lon="4.80168">
        <ele>198.800003052</ele>
        <time>2015-09-20T10:58:59.863Z</time>
      </trkpt>
      <trkpt lat="45.93951" lon="4.80157">
        <ele>198.399993896</ele>
        <time>2015-09-20T10:59:00.835Z</time>
      </trkpt>
      <trkpt lat="45.9395" lon="4.80145">
        <ele>197.899993896</ele>
        <time>2015-09-20T10:59:01.86Z</time>
      </trkpt>
      <trkpt lat="45.93948" lon="4.80135">
        <ele>197.699996948</ele>
        <time>2015-09-20T10:59:02.861Z</time>
      </trkpt>
      <trkpt lat="45.93946" lon="4.80123">
        <ele>197.300003052</ele>
        <time>2015-09-20T10:59:03.86Z</time>
      </trkpt>
      <trkpt lat="45.93945" lon="4.80111">
        <ele>196.899993896</ele>
        <time>2015-09-20T10:59:04.834Z</time>
      </trkpt>
      <trkpt lat="45.93945" lon="4.80101">
        <ele>197.100006104</ele>
        <time>2015-09-20T10:59:05.863Z</time>
      </trkpt>
      <trkpt lat="45.93945" lon="4.8009">
        <ele>197</ele>
        <time>2015-09-20T10:59:06.835Z</time>
      </trkpt>
      <trkpt lat="45.93945" lon="4.80078">
        <ele>196.699996948</ele>
        <time>2015-09-20T10:59:07.863Z</time>
      </trkpt>
      <trkpt lat="45.93945" lon="4.80066">
        <ele>196.5</ele>
        <time>2015-09-20T10:59:08.834Z</time>
      </trkpt>
      <trkpt lat="45.93945" lon="4.80055">
        <ele>196.5</ele>
        <time>2015-09-20T10:59:09.86Z</time>
      </trkpt>
      <trkpt lat="45.93946" lon="4.80044">
        <ele>196.600006104</ele>
        <time>2015-09-20T10:59:10.835Z</time>
      </trkpt>
      <trkpt lat="45.93947" lon="4.80034">
        <ele>196.699996948</ele>
        <time>2015-09-20T10:59:11.862Z</time>
      </trkpt>
      <trkpt lat="45.93949" lon="4.80025">
        <ele>196.699996948</ele>
        <time>2015-09-20T10:59:12.849Z</time>
      </trkpt>
      <trkpt lat="45.9395" lon="4.80014">
        <ele>197.300003052</ele>
        <time>2015-09-20T10:59:13.861Z</time>
      </trkpt>
      <trkpt lat="45.9395" lon="4.80003">
        <ele>197.899993896</ele>
        <time>2015-09-20T10:59:14.835Z</time>
      </trkpt>
      <trkpt lat="45.93952" lon="4.79993">
        <ele>198.800003052</ele>
        <time>2015-09-20T10:59:15.869Z</time>
      </trkpt>
      <trkpt lat="45.93953" lon="4.79983">
        <ele>198.899993896</ele>
        <time>2015-09-20T10:59:16.835Z</time>
      </trkpt>
      <trkpt lat="45.93955" lon="4.79973">
        <ele>199.100006104</ele>
        <time>2015-09-20T10:59:17.862Z</time>
      </trkpt>
      <trkpt lat="45.93956" lon="4.79963">
        <ele>199.600006104</ele>
        <time>2015-09-20T10:59:18.85Z</time>
      </trkpt>
      <trkpt lat="45.93958" lon="4.79954">
        <ele>199.600006104</ele>
        <time>2015-09-20T10:59:19.86Z</time>
      </trkpt>
      <trkpt lat="45.93959" lon="4.79944">
        <ele>199.600006104</ele>
        <time>2015-09-20T10:59:20.835Z</time>
      </trkpt>
      <trkpt lat="45.9396" lon="4.79934">
        <ele>199.899993896</ele>
        <time>2015-09-20T10:59:21.897Z</time>
      </trkpt>
      <trkpt lat="45.93961" lon="4.79924">
        <ele>200</ele>
        <time>2015-09-20T10:59:22.848Z</time>
      </trkpt>
      <trkpt lat="45.93961" lon="4.79914">
        <ele>200</ele>
        <time>2015-09-20T10:59:23.862Z</time>
      </trkpt>
      <trkpt lat="45.93962" lon="4.79904">
        <ele>200</ele>
        <time>2015-09-20T10:59:24.834Z</time>
      </trkpt>
      <trkpt lat="45.93963" lon="4.79894">
        <ele>200.199996948</ele>
        <time>2015-09-20T10:59:25.86Z</time>
      </trkpt>
      <trkpt lat="45.93965" lon="4.79885">
        <ele>200.199996948</ele>
        <time>2015-09-20T10:59:26.834Z</time>
      </trkpt>
      <trkpt lat="45.93967" lon="4.79875">
        <ele>200.300003052</ele>
        <time>2015-09-20T10:59:27.858Z</time>
      </trkpt>
      <trkpt lat="45.93968" lon="4.79865">
        <ele>200.399993896</ele>
        <time>2015-09-20T10:59:28.833Z</time>
      </trkpt>
      <trkpt lat="45.9397" lon="4.79855">
        <ele>200.5</ele>
        <time>2015-09-20T10:59:29.862Z</time>
      </trkpt>
      <trkpt lat="45.93971" lon="4.79846">
        <ele>200.5</ele>
        <time>2015-09-20T10:59:30.834Z</time>
      </trkpt>
      <trkpt lat="45.93973" lon="4.79836">
        <ele>200.600006104</ele>
        <time>2015-09-20T10:59:31.86Z</time>
      </trkpt>
      <trkpt lat="45.93974" lon="4.79826">
        <ele>200.800003052</ele>
        <time>2015-09-20T10:59:32.852Z</time>
      </trkpt>
      <trkpt lat="45.93974" lon="4.79817">
        <ele>201</ele>
        <time>2015-09-20T10:59:33.86Z</time>
      </trkpt>
      <trkpt lat="45.93976" lon="4.79807">
        <ele>201.300003052</ele>
        <time>2015-09-20T10:59:34.835Z</time>
      </trkpt>
      <trkpt lat="45.93977" lon="4.79797">
        <ele>202</ele>
        <time>2015-09-20T10:59:35.862Z</time>
      </trkpt>
      <trkpt lat="45.93978" lon="4.79788">
        <ele>202</ele>
        <time>2015-09-20T10:59:36.834Z</time>
      </trkpt>
      <trkpt lat="45.93978" lon="4.79778">
        <ele>202.300003052</ele>
        <time>2015-09-20T10:59:37.86Z</time>
      </trkpt>
      <trkpt lat="45.93977" lon="4.79769">
        <ele>202.899993896</ele>
        <time>2015-09-20T10:59:38.835Z</time>
      </trkpt>
      <trkpt lat="45.93976" lon="4.7976">
        <ele>203.300003052</ele>
        <time>2015-09-20T10:59:39.881Z</time>
      </trkpt>
      <trkpt lat="45.93975" lon="4.7975">
        <ele>203.800003052</ele>
        <time>2015-09-20T10:59:40.835Z</time>
      </trkpt>
      <trkpt lat="45.93974" lon="4.79742">
        <ele>204.199996948</ele>
        <time>2015-09-20T10:59:41.864Z</time>
      </trkpt>
      <trkpt lat="45.93973" lon="4.79733">
        <ele>204.199996948</ele>
        <time>2015-09-20T10:59:42.872Z</time>
      </trkpt>
      <trkpt lat="45.93972" lon="4.79723">
        <ele>204.199996948</ele>
        <time>2015-09-20T10:59:43.86Z</time>
      </trkpt>
      <trkpt lat="45.93972" lon="4.79714">
        <ele>204.100006104</ele>
        <time>2015-09-20T10:59:44.835Z</time>
      </trkpt>
      <trkpt lat="45.93971" lon="4.79704">
        <ele>204.399993896</ele>
        <time>2015-09-20T10:59:45.858Z</time>
      </trkpt>
      <trkpt lat="45.93971" lon="4.79695">
        <ele>204.600006104</ele>
        <time>2015-09-20T10:59:46.834Z</time>
      </trkpt>
      <trkpt lat="45.9397" lon="4.79684">
        <ele>204.899993896</ele>
        <time>2015-09-20T10:59:47.862Z</time>
      </trkpt>
      <trkpt lat="45.93969" lon="4.79674">
        <ele>205.100006104</ele>
        <time>2015-09-20T10:59:48.834Z</time>
      </trkpt>
      <trkpt lat="45.93968" lon="4.79665">
        <ele>205.300003052</ele>
        <time>2015-09-20T10:59:49.859Z</time>
      </trkpt>
      <trkpt lat="45.93967" lon="4.79656">
        <ele>205.300003052</ele>
        <time>2015-09-20T10:59:50.835Z</time>
      </trkpt>
      <trkpt lat="45.93966" lon="4.79646">
        <ele>205.100006104</ele>
        <time>2015-09-20T10:59:51.859Z</time>
      </trkpt>
      <trkpt lat="45.93965" lon="4.79637">
        <ele>205.300003052</ele>
        <time>2015-09-20T10:59:52.859Z</time>
      </trkpt>
      <trkpt lat="45.93965" lon="4.79627">
        <ele>205.399993896</ele>
        <time>2015-09-20T10:59:53.864Z</time>
      </trkpt>
      <trkpt lat="45.93964" lon="4.79618">
        <ele>205.5</ele>
        <time>2015-09-20T10:59:54.835Z</time>
      </trkpt>
      <trkpt lat="45.93963" lon="4.79608">
        <ele>205.800003052</ele>
        <time>2015-09-20T10:59:55.876Z</time>
      </trkpt>
      <trkpt lat="45.93963" lon="4.79598">
        <ele>205.899993896</ele>
        <time>2015-09-20T10:59:56.836Z</time>
      </trkpt>
      <trkpt lat="45.93962" lon="4.79588">
        <ele>206.199996948</ele>
        <time>2015-09-20T10:59:57.861Z</time>
      </trkpt>
      <trkpt lat="45.93961" lon="4.79578">
        <ele>206.399993896</ele>
        <time>2015-09-20T10:59:58.84Z</time>
      </trkpt>
      <trkpt lat="45.9396" lon="4.79568">
        <ele>206.600006104</ele>
        <time>2015-09-20T10:59:59.865Z</time>
      </trkpt>
      <trkpt lat="45.93959" lon="4.79557">
        <ele>206.199996948</ele>
        <time>2015-09-20T11:00:00.834Z</time>
      </trkpt>
      <trkpt lat="45.93958" lon="4.79545">
        <ele>206.199996948</ele>
        <time>2015-09-20T11:00:01.86Z</time>
      </trkpt>
      <trkpt lat="45.93957" lon="4.79534">
        <ele>206.199996948</ele>
        <time>2015-09-20T11:00:02.915Z</time>
      </trkpt>
      <trkpt lat="45.93957" lon="4.79523">
        <ele>206.399993896</ele>
        <time>2015-09-20T11:00:03.859Z</time>
      </trkpt>
      <trkpt lat="45.93956" lon="4.79511">
        <ele>206.100006104</ele>
        <time>2015-09-20T11:00:04.835Z</time>
      </trkpt>
      <trkpt lat="45.93956" lon="4.79499">
        <ele>206.100006104</ele>
        <time>2015-09-20T11:00:05.862Z</time>
      </trkpt>
      <trkpt lat="45.93956" lon="4.79488">
        <ele>206.300003052</ele>
        <time>2015-09-20T11:00:06.835Z</time>
      </trkpt>
      <trkpt lat="45.93956" lon="4.79477">
        <ele>206.5</ele>
        <time>2015-09-20T11:00:07.864Z</time>
      </trkpt>
      <trkpt lat="45.93956" lon="4.79465">
        <ele>206.699996948</ele>
        <time>2015-09-20T11:00:08.835Z</time>
      </trkpt>
      <trkpt lat="45.93956" lon="4.79453">
        <ele>206.899993896</ele>
        <time>2015-09-20T11:00:09.859Z</time>
      </trkpt>
      <trkpt lat="45.93956" lon="4.79442">
        <ele>206.899993896</ele>
        <time>2015-09-20T11:00:10.834Z</time>
      </trkpt>
      <trkpt lat="45.93956" lon="4.79431">
        <ele>207</ele>
        <time>2015-09-20T11:00:11.874Z</time>
      </trkpt>
      <trkpt lat="45.93956" lon="4.7942">
        <ele>206.899993896</ele>
        <time>2015-09-20T11:00:12.858Z</time>
      </trkpt>
      <trkpt lat="45.93956" lon="4.79408">
        <ele>207.100006104</ele>
        <time>2015-09-20T11:00:13.894Z</time>
      </trkpt>
      <trkpt lat="45.93957" lon="4.79398">
        <ele>207.100006104</ele>
        <time>2015-09-20T11:00:14.835Z</time>
      </trkpt>
      <trkpt lat="45.93958" lon="4.79387">
        <ele>207.100006104</ele>
        <time>2015-09-20T11:00:15.859Z</time>
      </trkpt>
      <trkpt lat="45.93957" lon="4.79375">
        <ele>207</ele>
        <time>2015-09-20T11:00:16.835Z</time>
      </trkpt>
      <trkpt lat="45.93956" lon="4.79364">
        <ele>206.399993896</ele>
        <time>2015-09-20T11:00:17.863Z</time>
      </trkpt>
      <trkpt lat="45.93956" lon="4.79353">
        <ele>206.199996948</ele>
        <time>2015-09-20T11:00:18.835Z</time>
      </trkpt>
      <trkpt lat="45.93956" lon="4.79342">
        <ele>206</ele>
        <time>2015-09-20T11:00:19.859Z</time>
      </trkpt>
      <trkpt lat="45.93956" lon="4.79331">
        <ele>205.699996948</ele>
        <time>2015-09-20T11:00:20.835Z</time>
      </trkpt>
      <trkpt lat="45.93956" lon="4.7932">
        <ele>205.800003052</ele>
        <time>2015-09-20T11:00:21.859Z</time>
      </trkpt>
      <trkpt lat="45.93956" lon="4.79309">
        <ele>205.699996948</ele>
        <time>2015-09-20T11:00:22.858Z</time>
      </trkpt>
      <trkpt lat="45.93956" lon="4.79299">
        <ele>205.399993896</ele>
        <time>2015-09-20T11:00:23.862Z</time>
      </trkpt>
      <trkpt lat="45.93956" lon="4.79288">
        <ele>205.5</ele>
        <time>2015-09-20T11:00:24.837Z</time>
      </trkpt>
      <trkpt lat="45.93955" lon="4.79277">
        <ele>205.199996948</ele>
        <time>2015-09-20T11:00:25.862Z</time>
      </trkpt>
      <trkpt lat="45.93955" lon="4.79265">
        <ele>205.300003052</ele>
        <time>2015-09-20T11:00:26.835Z</time>
      </trkpt>
      <trkpt lat="45.93955" lon="4.79254">
        <ele>205.300003052</ele>
        <time>2015-09-20T11:00:27.872Z</time>
      </trkpt>
      <trkpt lat="45.93955" lon="4.79243">
        <ele>205.300003052</ele>
        <time>2015-09-20T11:00:28.835Z</time>
      </trkpt>
      <trkpt lat="45.93955" lon="4.79232">
        <ele>205</ele>
        <time>2015-09-20T11:00:29.862Z</time>
      </trkpt>
      <trkpt lat="45.93955" lon="4.7922">
        <ele>205.100006104</ele>
        <time>2015-09-20T11:00:30.835Z</time>
      </trkpt>
      <trkpt lat="45.93955" lon="4.79209">
        <ele>204.699996948</ele>
        <time>2015-09-20T11:00:31.859Z</time>
      </trkpt>
      <trkpt lat="45.93954" lon="4.79198">
        <ele>204.800003052</ele>
        <time>2015-09-20T11:00:32.86Z</time>
      </trkpt>
      <trkpt lat="45.93954" lon="4.79188">
        <ele>204.800003052</ele>
        <time>2015-09-20T11:00:33.86Z</time>
      </trkpt>
      <trkpt lat="45.93955" lon="4.79178">
        <ele>204.5</ele>
        <time>2015-09-20T11:00:34.834Z</time>
      </trkpt>
      <trkpt lat="45.93955" lon="4.79168">
        <ele>204.399993896</ele>
        <time>2015-09-20T11:00:35.874Z</time>
      </trkpt>
      <trkpt lat="45.93955" lon="4.79158">
        <ele>204.399993896</ele>
        <time>2015-09-20T11:00:36.834Z</time>
      </trkpt>
      <trkpt lat="45.93956" lon="4.7915">
        <ele>203.800003052</ele>
        <time>2015-09-20T11:00:37.86Z</time>
      </trkpt>
      <trkpt lat="45.93956" lon="4.7914">
        <ele>204.100006104</ele>
        <time>2015-09-20T11:00:38.835Z</time>
      </trkpt>
      <trkpt lat="45.93955" lon="4.79129">
        <ele>203.5</ele>
        <time>2015-09-20T11:00:39.858Z</time>
      </trkpt>
      <trkpt lat="45.93955" lon="4.79119">
        <ele>203.699996948</ele>
        <time>2015-09-20T11:00:40.835Z</time>
      </trkpt>
      <trkpt lat="45.93954" lon="4.79108">
        <ele>203.399993896</ele>
        <time>2015-09-20T11:00:41.862Z</time>
      </trkpt>
      <trkpt lat="45.93954" lon="4.79098">
        <ele>202.699996948</ele>
        <time>2015-09-20T11:00:42.86Z</time>
      </trkpt>
      <trkpt lat="45.93953" lon="4.79087">
        <ele>202.399993896</ele>
        <time>2015-09-20T11:00:43.873Z</time>
      </trkpt>
      <trkpt lat="45.93953" lon="4.79076">
        <ele>202.300003052</ele>
        <time>2015-09-20T11:00:44.834Z</time>
      </trkpt>
      <trkpt lat="45.93953" lon="4.79065">
        <ele>202.199996948</ele>
        <time>2015-09-20T11:00:45.858Z</time>
      </trkpt>
      <trkpt lat="45.93952" lon="4.79054">
        <ele>201.899993896</ele>
        <time>2015-09-20T11:00:46.834Z</time>
      </trkpt>
      <trkpt lat="45.93951" lon="4.79043">
        <ele>201.600006104</ele>
        <time>2015-09-20T11:00:47.862Z</time>
      </trkpt>
      <trkpt lat="45.9395" lon="4.79031">
        <ele>201.699996948</ele>
        <time>2015-09-20T11:00:48.923Z</time>
      </trkpt>
      <trkpt lat="45.9395" lon="4.79021">
        <ele>201.199996948</ele>
        <time>2015-09-20T11:00:49.86Z</time>
      </trkpt>
      <trkpt lat="45.9395" lon="4.79009">
        <ele>200.899993896</ele>
        <time>2015-09-20T11:00:50.838Z</time>
      </trkpt>
      <trkpt lat="45.9395" lon="4.78998">
        <ele>200.600006104</ele>
        <time>2015-09-20T11:00:51.86Z</time>
      </trkpt>
      <trkpt lat="45.93949" lon="4.78987">
        <ele>201</ele>
        <time>2015-09-20T11:00:52.86Z</time>
      </trkpt>
      <trkpt lat="45.93948" lon="4.78977">
        <ele>201.899993896</ele>
        <time>2015-09-20T11:00:53.861Z</time>
      </trkpt>
      <trkpt lat="45.93947" lon="4.78968">
        <ele>202.899993896</ele>
        <time>2015-09-20T11:00:54.834Z</time>
      </trkpt>
      <trkpt lat="45.93947" lon="4.78957">
        <ele>202.100006104</ele>
        <time>2015-09-20T11:00:55.86Z</time>
      </trkpt>
      <trkpt lat="45.93947" lon="4.78946">
        <ele>201.5</ele>
        <time>2015-09-20T11:00:56.834Z</time>
      </trkpt>
      <trkpt lat="45.93947" lon="4.78935">
        <ele>201.100006104</ele>
        <time>2015-09-20T11:00:57.858Z</time>
      </trkpt>
      <trkpt lat="45.93947" lon="4.78925">
        <ele>200.5</ele>
        <time>2015-09-20T11:00:58.835Z</time>
      </trkpt>
      <trkpt lat="45.93946" lon="4.78914">
        <ele>199.5</ele>
        <time>2015-09-20T11:00:59.875Z</time>
      </trkpt>
      <trkpt lat="45.93946" lon="4.78904">
        <ele>199.300003052</ele>
        <time>2015-09-20T11:01:00.835Z</time>
      </trkpt>
      <trkpt lat="45.93945" lon="4.78893">
        <ele>198.899993896</ele>
        <time>2015-09-20T11:01:01.861Z</time>
      </trkpt>
      <trkpt lat="45.93945" lon="4.78883">
        <ele>198.300003052</ele>
        <time>2015-09-20T11:01:02.861Z</time>
      </trkpt>
      <trkpt lat="45.93944" lon="4.78872">
        <ele>198.399993896</ele>
        <time>2015-09-20T11:01:03.859Z</time>
      </trkpt>
      <trkpt lat="45.93944" lon="4.7886">
        <ele>198.399993896</ele>
        <time>2015-09-20T11:01:04.834Z</time>
      </trkpt>
      <trkpt lat="45.93943" lon="4.78849">
        <ele>197.800003052</ele>
        <time>2015-09-20T11:01:05.861Z</time>
      </trkpt>
      <trkpt lat="45.93942" lon="4.78839">
        <ele>197.300003052</ele>
        <time>2015-09-20T11:01:06.833Z</time>
      </trkpt>
      <trkpt lat="45.93942" lon="4.78828">
        <ele>197.100006104</ele>
        <time>2015-09-20T11:01:07.863Z</time>
      </trkpt>
      <trkpt lat="45.93941" lon="4.78817">
        <ele>197.199996948</ele>
        <time>2015-09-20T11:01:08.884Z</time>
      </trkpt>
      <trkpt lat="45.93941" lon="4.78806">
        <ele>197.399993896</ele>
        <time>2015-09-20T11:01:09.859Z</time>
      </trkpt>
      <trkpt lat="45.93941" lon="4.78795">
        <ele>197.100006104</ele>
        <time>2015-09-20T11:01:10.834Z</time>
      </trkpt>
      <trkpt lat="45.9394" lon="4.78784">
        <ele>196.800003052</ele>
        <time>2015-09-20T11:01:11.862Z</time>
      </trkpt>
      <trkpt lat="45.9394" lon="4.78774">
        <ele>196.399993896</ele>
        <time>2015-09-20T11:01:12.858Z</time>
      </trkpt>
      <trkpt lat="45.9394" lon="4.78764">
        <ele>196.600006104</ele>
        <time>2015-09-20T11:01:13.86Z</time>
      </trkpt>
      <trkpt lat="45.93939" lon="4.78754">
        <ele>196.300003052</ele>
        <time>2015-09-20T11:01:14.834Z</time>
      </trkpt>
      <trkpt lat="45.9394" lon="4.78744">
        <ele>196.100006104</ele>
        <time>2015-09-20T11:01:15.872Z</time>
      </trkpt>
      <trkpt lat="45.9394" lon="4.78734">
        <ele>195.800003052</ele>
        <time>2015-09-20T11:01:16.838Z</time>
      </trkpt>
      <trkpt lat="45.9394" lon="4.78724">
        <ele>195.699996948</ele>
        <time>2015-09-20T11:01:17.863Z</time>
      </trkpt>
      <trkpt lat="45.9394" lon="4.78715">
        <ele>195.899993896</ele>
        <time>2015-09-20T11:01:18.835Z</time>
      </trkpt>
      <trkpt lat="45.9394" lon="4.78705">
        <ele>195.5</ele>
        <time>2015-09-20T11:01:19.935Z</time>
      </trkpt>
      <trkpt lat="45.9394" lon="4.78695">
        <ele>195.100006104</ele>
        <time>2015-09-20T11:01:20.835Z</time>
      </trkpt>
      <trkpt lat="45.9394" lon="4.78686">
        <ele>194.800003052</ele>
        <time>2015-09-20T11:01:21.859Z</time>
      </trkpt>
      <trkpt lat="45.9394" lon="4.78677">
        <ele>195.100006104</ele>
        <time>2015-09-20T11:01:22.858Z</time>
      </trkpt>
      <trkpt lat="45.9394" lon="4.78667">
        <ele>195.300003052</ele>
        <time>2015-09-20T11:01:23.863Z</time>
      </trkpt>
      <trkpt lat="45.93941" lon="4.78658">
        <ele>195.399993896</ele>
        <time>2015-09-20T11:01:24.834Z</time>
      </trkpt>
      <trkpt lat="45.93941" lon="4.7865">
        <ele>195.5</ele>
        <time>2015-09-20T11:01:25.86Z</time>
      </trkpt>
      <trkpt lat="45.93941" lon="4.78641">
        <ele>195.899993896</ele>
        <time>2015-09-20T11:01:26.834Z</time>
      </trkpt>
      <trkpt lat="45.93941" lon="4.78633">
        <ele>196.199996948</ele>
        <time>2015-09-20T11:01:27.859Z</time>
      </trkpt>
      <trkpt lat="45.93941" lon="4.78624">
        <ele>196.300003052</ele>
        <time>2015-09-20T11:01:28.835Z</time>
      </trkpt>
      <trkpt lat="45.93941" lon="4.78616">
        <ele>195.899993896</ele>
        <time>2015-09-20T11:01:29.883Z</time>
      </trkpt>
      <trkpt lat="45.93941" lon="4.78608">
        <ele>195.5</ele>
        <time>2015-09-20T11:01:30.834Z</time>
      </trkpt>
      <trkpt lat="45.93941" lon="4.786">
        <ele>195.600006104</ele>
        <time>2015-09-20T11:01:31.914Z</time>
      </trkpt>
      <trkpt lat="45.93941" lon="4.78592">
        <ele>195.600006104</ele>
        <time>2015-09-20T11:01:32.86Z</time>
      </trkpt>
      <trkpt lat="45.9394" lon="4.78585">
        <ele>196</ele>
        <time>2015-09-20T11:01:33.86Z</time>
      </trkpt>
      <trkpt lat="45.9394" lon="4.78578">
        <ele>196.399993896</ele>
        <time>2015-09-20T11:01:34.835Z</time>
      </trkpt>
      <trkpt lat="45.9394" lon="4.78572">
        <ele>196.5</ele>
        <time>2015-09-20T11:01:35.863Z</time>
      </trkpt>
      <trkpt lat="45.93939" lon="4.78566">
        <ele>196.800003052</ele>
        <time>2015-09-20T11:01:36.835Z</time>
      </trkpt>
      <trkpt lat="45.93938" lon="4.78559">
        <ele>196.699996948</ele>
        <time>2015-09-20T11:01:37.868Z</time>
      </trkpt>
      <trkpt lat="45.93937" lon="4.78553">
        <ele>197.100006104</ele>
        <time>2015-09-20T11:01:38.834Z</time>
      </trkpt>
      <trkpt lat="45.93937" lon="4.78546">
        <ele>197.199996948</ele>
        <time>2015-09-20T11:01:39.866Z</time>
      </trkpt>
      <trkpt lat="45.93938" lon="4.78539">
        <ele>197.399993896</ele>
        <time>2015-09-20T11:01:40.834Z</time>
      </trkpt>
      <trkpt lat="45.93938" lon="4.78532">
        <ele>197.300003052</ele>
        <time>2015-09-20T11:01:41.862Z</time>
      </trkpt>
      <trkpt lat="45.93939" lon="4.78525">
        <ele>197.199996948</ele>
        <time>2015-09-20T11:01:42.863Z</time>
      </trkpt>
      <trkpt lat="45.9394" lon="4.78518">
        <ele>197</ele>
        <time>2015-09-20T11:01:43.861Z</time>
      </trkpt>
      <trkpt lat="45.9394" lon="4.78511">
        <ele>196.899993896</ele>
        <time>2015-09-20T11:01:44.835Z</time>
      </trkpt>
      <trkpt lat="45.93941" lon="4.78504">
        <ele>197.100006104</ele>
        <time>2015-09-20T11:01:45.859Z</time>
      </trkpt>
      <trkpt lat="45.93941" lon="4.78497">
        <ele>196.899993896</ele>
        <time>2015-09-20T11:01:46.834Z</time>
      </trkpt>
      <trkpt lat="45.93943" lon="4.7849">
        <ele>196.899993896</ele>
        <time>2015-09-20T11:01:47.876Z</time>
      </trkpt>
      <trkpt lat="45.93943" lon="4.78483">
        <ele>196.699996948</ele>
        <time>2015-09-20T11:01:48.869Z</time>
      </trkpt>
      <trkpt lat="45.93945" lon="4.7847">
        <ele>197</ele>
        <time>2015-09-20T11:01:50.858Z</time>
      </trkpt>
      <trkpt lat="45.93946" lon="4.78464">
        <ele>197.399993896</ele>
        <time>2015-09-20T11:01:51.834Z</time>
      </trkpt>
      <trkpt lat="45.93947" lon="4.78457">
        <ele>197.5</ele>
        <time>2015-09-20T11:01:52.889Z</time>
      </trkpt>
      <trkpt lat="45.93948" lon="4.7845">
        <ele>197.399993896</ele>
        <time>2015-09-20T11:01:53.839Z</time>
      </trkpt>
      <trkpt lat="45.93949" lon="4.78443">
        <ele>197.100006104</ele>
        <time>2015-09-20T11:01:54.859Z</time>
      </trkpt>
      <trkpt lat="45.9395" lon="4.78435">
        <ele>196.899993896</ele>
        <time>2015-09-20T11:01:55.835Z</time>
      </trkpt>
      <trkpt lat="45.93952" lon="4.78428">
        <ele>197</ele>
        <time>2015-09-20T11:01:56.862Z</time>
      </trkpt>
      <trkpt lat="45.93953" lon="4.78419">
        <ele>197</ele>
        <time>2015-09-20T11:01:57.835Z</time>
      </trkpt>
      <trkpt lat="45.93954" lon="4.78412">
        <ele>197.5</ele>
        <time>2015-09-20T11:01:58.859Z</time>
      </trkpt>
      <trkpt lat="45.93955" lon="4.78403">
        <ele>197.399993896</ele>
        <time>2015-09-20T11:01:59.838Z</time>
      </trkpt>
      <trkpt lat="45.93956" lon="4.78395">
        <ele>197.199996948</ele>
        <time>2015-09-20T11:02:00.859Z</time>
      </trkpt>
      <trkpt lat="45.93957" lon="4.78386">
        <ele>196.699996948</ele>
        <time>2015-09-20T11:02:01.836Z</time>
      </trkpt>
      <trkpt lat="45.93959" lon="4.78378">
        <ele>196.399993896</ele>
        <time>2015-09-20T11:02:02.883Z</time>
      </trkpt>
      <trkpt lat="45.9396" lon="4.78369">
        <ele>195.800003052</ele>
        <time>2015-09-20T11:02:03.884Z</time>
      </trkpt>
      <trkpt lat="45.93961" lon="4.78361">
        <ele>195.399993896</ele>
        <time>2015-09-20T11:02:04.858Z</time>
      </trkpt>
      <trkpt lat="45.93962" lon="4.78352">
        <ele>195.199996948</ele>
        <time>2015-09-20T11:02:05.837Z</time>
      </trkpt>
      <trkpt lat="45.93964" lon="4.78344">
        <ele>195.100006104</ele>
        <time>2015-09-20T11:02:06.859Z</time>
      </trkpt>
      <trkpt lat="45.93965" lon="4.78336">
        <ele>195</ele>
        <time>2015-09-20T11:02:07.838Z</time>
      </trkpt>
      <trkpt lat="45.93966" lon="4.78329">
        <ele>194.5</ele>
        <time>2015-09-20T11:02:08.91Z</time>
      </trkpt>
      <trkpt lat="45.93968" lon="4.78321">
        <ele>193.5</ele>
        <time>2015-09-20T11:02:09.835Z</time>
      </trkpt>
      <trkpt lat="45.9397" lon="4.78309">
        <ele>193</ele>
        <time>2015-09-20T11:02:11.862Z</time>
      </trkpt>
      <trkpt lat="45.93971" lon="4.78302">
        <ele>193.100006104</ele>
        <time>2015-09-20T11:02:12.847Z</time>
      </trkpt>
      <trkpt lat="45.93971" lon="4.78295">
        <ele>193.399993896</ele>
        <time>2015-09-20T11:02:13.86Z</time>
      </trkpt>
      <trkpt lat="45.93971" lon="4.78288">
        <ele>193.600006104</ele>
        <time>2015-09-20T11:02:14.834Z</time>
      </trkpt>
      <trkpt lat="45.93972" lon="4.78281">
        <ele>194.199996948</ele>
        <time>2015-09-20T11:02:15.87Z</time>
      </trkpt>
      <trkpt lat="45.93972" lon="4.78274">
        <ele>194.600006104</ele>
        <time>2015-09-20T11:02:16.835Z</time>
      </trkpt>
      <trkpt lat="45.93973" lon="4.78266">
        <ele>194.800003052</ele>
        <time>2015-09-20T11:02:17.862Z</time>
      </trkpt>
      <trkpt lat="45.93974" lon="4.78259">
        <ele>195</ele>
        <time>2015-09-20T11:02:18.834Z</time>
      </trkpt>
      <trkpt lat="45.93975" lon="4.78252">
        <ele>196</ele>
        <time>2015-09-20T11:02:19.859Z</time>
      </trkpt>
      <trkpt lat="45.93976" lon="4.78245">
        <ele>196.600006104</ele>
        <time>2015-09-20T11:02:20.834Z</time>
      </trkpt>
      <trkpt lat="45.93977" lon="4.78238">
        <ele>196.899993896</ele>
        <time>2015-09-20T11:02:21.867Z</time>
      </trkpt>
      <trkpt lat="45.93977" lon="4.78232">
        <ele>197.300003052</ele>
        <time>2015-09-20T11:02:22.845Z</time>
      </trkpt>
      <trkpt lat="45.93979" lon="4.78225">
        <ele>198</ele>
        <time>2015-09-20T11:02:23.862Z</time>
      </trkpt>
      <trkpt lat="45.9398" lon="4.78218">
        <ele>198.199996948</ele>
        <time>2015-09-20T11:02:24.833Z</time>
      </trkpt>
      <trkpt lat="45.9398" lon="4.78211">
        <ele>200.899993896</ele>
        <time>2015-09-20T11:02:25.868Z</time>
      </trkpt>
      <trkpt lat="45.93981" lon="4.78205">
        <ele>201.100006104</ele>
        <time>2015-09-20T11:02:26.834Z</time>
      </trkpt>
      <trkpt lat="45.93983" lon="4.78194">
        <ele>201.600006104</ele>
        <time>2015-09-20T11:02:28.859Z</time>
      </trkpt>
      <trkpt lat="45.93985" lon="4.78188">
        <ele>202.199996948</ele>
        <time>2015-09-20T11:02:29.852Z</time>
      </trkpt>
      <trkpt lat="45.93988" lon="4.78179">
        <ele>203.199996948</ele>
        <time>2015-09-20T11:02:31.859Z</time>
      </trkpt>
      <trkpt lat="45.93989" lon="4.78175">
        <ele>203.800003052</ele>
        <time>2015-09-20T11:02:32.834Z</time>
      </trkpt>
      <trkpt lat="45.93992" lon="4.78167">
        <ele>205.199996948</ele>
        <time>2015-09-20T11:02:34.862Z</time>
      </trkpt>
      <trkpt lat="45.93992" lon="4.78163">
        <ele>205.300003052</ele>
        <time>2015-09-20T11:02:35.836Z</time>
      </trkpt>
      <trkpt lat="45.93994" lon="4.78153">
        <ele>205.600006104</ele>
        <time>2015-09-20T11:02:37.86Z</time>
      </trkpt>
      <trkpt lat="45.93994" lon="4.78147">
        <ele>205.399993896</ele>
        <time>2015-09-20T11:02:38.834Z</time>
      </trkpt>
      <trkpt lat="45.93996" lon="4.78135">
        <ele>205.100006104</ele>
        <time>2015-09-20T11:02:40.859Z</time>
      </trkpt>
      <trkpt lat="45.93997" lon="4.78128">
        <ele>205.100006104</ele>
        <time>2015-09-20T11:02:41.837Z</time>
      </trkpt>
      <trkpt lat="45.93997" lon="4.78122">
        <ele>205</ele>
        <time>2015-09-20T11:02:42.89Z</time>
      </trkpt>
      <trkpt lat="45.93998" lon="4.78115">
        <ele>205.199996948</ele>
        <time>2015-09-20T11:02:43.836Z</time>
      </trkpt>
      <trkpt lat="45.93999" lon="4.78108">
        <ele>205.699996948</ele>
        <time>2015-09-20T11:02:44.858Z</time>
      </trkpt>
      <trkpt lat="45.94" lon="4.78101">
        <ele>206.100006104</ele>
        <time>2015-09-20T11:02:45.847Z</time>
      </trkpt>
      <trkpt lat="45.94001" lon="4.78093">
        <ele>205.800003052</ele>
        <time>2015-09-20T11:02:46.859Z</time>
      </trkpt>
      <trkpt lat="45.94002" lon="4.78085">
        <ele>206</ele>
        <time>2015-09-20T11:02:47.837Z</time>
      </trkpt>
      <trkpt lat="45.94003" lon="4.78078">
        <ele>205.600006104</ele>
        <time>2015-09-20T11:02:48.858Z</time>
      </trkpt>
      <trkpt lat="45.94005" lon="4.7807">
        <ele>205.600006104</ele>
        <time>2015-09-20T11:02:49.871Z</time>
      </trkpt>
      <trkpt lat="45.94006" lon="4.78063">
        <ele>205.399993896</ele>
        <time>2015-09-20T11:02:50.858Z</time>
      </trkpt>
      <trkpt lat="45.94008" lon="4.78056">
        <ele>204.800003052</ele>
        <time>2015-09-20T11:02:51.834Z</time>
      </trkpt>
      <trkpt lat="45.94011" lon="4.78044">
        <ele>203.600006104</ele>
        <time>2015-09-20T11:02:53.861Z</time>
      </trkpt>
      <trkpt lat="45.94013" lon="4.78037">
        <ele>203.5</ele>
        <time>2015-09-20T11:02:54.834Z</time>
      </trkpt>
      <trkpt lat="45.94014" lon="4.78031">
        <ele>203.199996948</ele>
        <time>2015-09-20T11:02:55.86Z</time>
      </trkpt>
      <trkpt lat="45.94015" lon="4.78023">
        <ele>202.800003052</ele>
        <time>2015-09-20T11:02:56.834Z</time>
      </trkpt>
      <trkpt lat="45.94017" lon="4.78016">
        <ele>202.600006104</ele>
        <time>2015-09-20T11:02:57.858Z</time>
      </trkpt>
      <trkpt lat="45.94018" lon="4.78009">
        <ele>201.899993896</ele>
        <time>2015-09-20T11:02:58.834Z</time>
      </trkpt>
      <trkpt lat="45.94019" lon="4.78001">
        <ele>201.300003052</ele>
        <time>2015-09-20T11:02:59.862Z</time>
      </trkpt>
      <trkpt lat="45.9402" lon="4.77993">
        <ele>200.600006104</ele>
        <time>2015-09-20T11:03:00.84Z</time>
      </trkpt>
      <trkpt lat="45.94021" lon="4.77985">
        <ele>200.399993896</ele>
        <time>2015-09-20T11:03:01.881Z</time>
      </trkpt>
      <trkpt lat="45.94022" lon="4.77977">
        <ele>200.399993896</ele>
        <time>2015-09-20T11:03:02.834Z</time>
      </trkpt>
      <trkpt lat="45.94024" lon="4.77968">
        <ele>200.699996948</ele>
        <time>2015-09-20T11:03:03.858Z</time>
      </trkpt>
      <trkpt lat="45.94025" lon="4.7796">
        <ele>201</ele>
        <time>2015-09-20T11:03:04.833Z</time>
      </trkpt>
      <trkpt lat="45.94027" lon="4.77952">
        <ele>201.5</ele>
        <time>2015-09-20T11:03:05.861Z</time>
      </trkpt>
      <trkpt lat="45.94029" lon="4.77943">
        <ele>201.899993896</ele>
        <time>2015-09-20T11:03:06.834Z</time>
      </trkpt>
      <trkpt lat="45.94029" lon="4.77936">
        <ele>202.899993896</ele>
        <time>2015-09-20T11:03:07.863Z</time>
      </trkpt>
      <trkpt lat="45.94027" lon="4.7793">
        <ele>203.5</ele>
        <time>2015-09-20T11:03:08.834Z</time>
      </trkpt>
      <trkpt lat="45.94022" lon="4.77926">
        <ele>203.300003052</ele>
        <time>2015-09-20T11:03:09.924Z</time>
      </trkpt>
      <trkpt lat="45.94016" lon="4.77925">
        <ele>203</ele>
        <time>2015-09-20T11:03:10.834Z</time>
      </trkpt>
      <trkpt lat="45.9401" lon="4.77926">
        <ele>203</ele>
        <time>2015-09-20T11:03:11.863Z</time>
      </trkpt>
      <trkpt lat="45.94003" lon="4.77928">
        <ele>202.699996948</ele>
        <time>2015-09-20T11:03:12.836Z</time>
      </trkpt>
      <trkpt lat="45.93996" lon="4.7793">
        <ele>202.399993896</ele>
        <time>2015-09-20T11:03:13.86Z</time>
      </trkpt>
      <trkpt lat="45.93988" lon="4.77934">
        <ele>202.100006104</ele>
        <time>2015-09-20T11:03:14.834Z</time>
      </trkpt>
      <trkpt lat="45.9398" lon="4.77938">
        <ele>201.600006104</ele>
        <time>2015-09-20T11:03:15.86Z</time>
      </trkpt>
      <trkpt lat="45.93972" lon="4.77943">
        <ele>201.300003052</ele>
        <time>2015-09-20T11:03:16.858Z</time>
      </trkpt>
      <trkpt lat="45.93972" lon="4.77943">
        <ele>201.300003052</ele>
        <time>2015-09-20T11:03:16.882Z</time>
      </trkpt>
      <trkpt lat="45.93963" lon="4.77949">
        <ele>200.800003052</ele>
        <time>2015-09-20T11:03:17.854Z</time>
      </trkpt>
      <trkpt lat="45.93963" lon="4.77949">
        <ele>200.800003052</ele>
        <time>2015-09-20T11:03:17.879Z</time>
      </trkpt>
      <trkpt lat="45.93954" lon="4.77955">
        <ele>200.399993896</ele>
        <time>2015-09-20T11:03:18.834Z</time>
      </trkpt>
      <trkpt lat="45.93954" lon="4.77955">
        <ele>200.399993896</ele>
        <time>2015-09-20T11:03:18.86Z</time>
      </trkpt>
      <trkpt lat="45.93946" lon="4.77961">
        <ele>200.100006104</ele>
        <time>2015-09-20T11:03:19.835Z</time>
      </trkpt>
      <trkpt lat="45.93946" lon="4.77961">
        <ele>200.100006104</ele>
        <time>2015-09-20T11:03:19.863Z</time>
      </trkpt>
      <trkpt lat="45.93936" lon="4.77968">
        <ele>199.600006104</ele>
        <time>2015-09-20T11:03:20.884Z</time>
      </trkpt>
      <trkpt lat="45.93936" lon="4.77968">
        <ele>199.600006104</ele>
        <time>2015-09-20T11:03:20.95Z</time>
      </trkpt>
      <trkpt lat="45.93927" lon="4.77974">
        <ele>199.100006104</ele>
        <time>2015-09-20T11:03:21.835Z</time>
      </trkpt>
      <trkpt lat="45.93927" lon="4.77974">
        <ele>199.100006104</ele>
        <time>2015-09-20T11:03:21.866Z</time>
      </trkpt>
      <trkpt lat="45.93919" lon="4.77981">
        <ele>198.399993896</ele>
        <time>2015-09-20T11:03:22.834Z</time>
      </trkpt>
      <trkpt lat="45.93919" lon="4.77981">
        <ele>198.399993896</ele>
        <time>2015-09-20T11:03:22.936Z</time>
      </trkpt>
      <trkpt lat="45.93911" lon="4.77988">
        <ele>197.600006104</ele>
        <time>2015-09-20T11:03:23.837Z</time>
      </trkpt>
      <trkpt lat="45.93903" lon="4.77996">
        <ele>196.800003052</ele>
        <time>2015-09-20T11:03:24.859Z</time>
      </trkpt>
      <trkpt lat="45.93898" lon="4.78003">
        <ele>195.300003052</ele>
        <time>2015-09-20T11:03:25.835Z</time>
      </trkpt>
      <trkpt lat="45.93892" lon="4.7801">
        <ele>193.300003052</ele>
        <time>2015-09-20T11:03:26.861Z</time>
      </trkpt>
      <trkpt lat="45.93888" lon="4.78015">
        <ele>191.300003052</ele>
        <time>2015-09-20T11:03:27.835Z</time>
      </trkpt>
      <trkpt lat="45.93882" lon="4.7802">
        <ele>189.800003052</ele>
        <time>2015-09-20T11:03:28.858Z</time>
      </trkpt>
      <trkpt lat="45.93878" lon="4.78022">
        <ele>188.899993896</ele>
        <time>2015-09-20T11:03:29.838Z</time>
      </trkpt>
      <trkpt lat="45.93873" lon="4.78018">
        <ele>188.300003052</ele>
        <time>2015-09-20T11:03:30.859Z</time>
      </trkpt>
      <trkpt lat="45.93868" lon="4.78013">
        <ele>187.5</ele>
        <time>2015-09-20T11:03:31.884Z</time>
      </trkpt>
      <trkpt lat="45.93863" lon="4.78007">
        <ele>186.600006104</ele>
        <time>2015-09-20T11:03:32.871Z</time>
      </trkpt>
      <trkpt lat="45.93857" lon="4.78002">
        <ele>186.300003052</ele>
        <time>2015-09-20T11:03:33.85Z</time>
      </trkpt>
      <trkpt lat="45.93851" lon="4.77997">
        <ele>186</ele>
        <time>2015-09-20T11:03:34.859Z</time>
      </trkpt>
      <trkpt lat="45.93846" lon="4.77992">
        <ele>186.300003052</ele>
        <time>2015-09-20T11:03:35.837Z</time>
      </trkpt>
      <trkpt lat="45.93842" lon="4.77986">
        <ele>186.100006104</ele>
        <time>2015-09-20T11:03:36.858Z</time>
      </trkpt>
      <trkpt lat="45.93837" lon="4.7798">
        <ele>186.100006104</ele>
        <time>2015-09-20T11:03:37.835Z</time>
      </trkpt>
      <trkpt lat="45.93834" lon="4.77975">
        <ele>186.199996948</ele>
        <time>2015-09-20T11:03:38.91Z</time>
      </trkpt>
      <trkpt lat="45.9383" lon="4.77969">
        <ele>185.899993896</ele>
        <time>2015-09-20T11:03:39.833Z</time>
      </trkpt>
      <trkpt lat="45.93826" lon="4.77964">
        <ele>185.699996948</ele>
        <time>2015-09-20T11:03:40.858Z</time>
      </trkpt>
      <trkpt lat="45.93822" lon="4.77959">
        <ele>185.5</ele>
        <time>2015-09-20T11:03:41.837Z</time>
      </trkpt>
      <trkpt lat="45.93819" lon="4.77954">
        <ele>185.199996948</ele>
        <time>2015-09-20T11:03:42.965Z</time>
      </trkpt>
      <trkpt lat="45.93817" lon="4.77948">
        <ele>184.800003052</ele>
        <time>2015-09-20T11:03:43.836Z</time>
      </trkpt>
      <trkpt lat="45.93811" lon="4.77939">
        <ele>184</ele>
        <time>2015-09-20T11:03:45.857Z</time>
      </trkpt>
      <trkpt lat="45.93808" lon="4.77934">
        <ele>183.600006104</ele>
        <time>2015-09-20T11:03:46.834Z</time>
      </trkpt>
      <trkpt lat="45.93803" lon="4.77929">
        <ele>182.899993896</ele>
        <time>2015-09-20T11:03:47.862Z</time>
      </trkpt>
      <trkpt lat="45.93799" lon="4.77924">
        <ele>181.899993896</ele>
        <time>2015-09-20T11:03:48.866Z</time>
      </trkpt>
      <trkpt lat="45.93795" lon="4.77919">
        <ele>181.5</ele>
        <time>2015-09-20T11:03:49.86Z</time>
      </trkpt>
      <trkpt lat="45.93791" lon="4.77914">
        <ele>181.199996948</ele>
        <time>2015-09-20T11:03:50.834Z</time>
      </trkpt>
      <trkpt lat="45.93787" lon="4.7791">
        <ele>181.399993896</ele>
        <time>2015-09-20T11:03:51.858Z</time>
      </trkpt>
      <trkpt lat="45.93783" lon="4.77905">
        <ele>181.199996948</ele>
        <time>2015-09-20T11:03:52.837Z</time>
      </trkpt>
      <trkpt lat="45.93779" lon="4.779">
        <ele>181.100006104</ele>
        <time>2015-09-20T11:03:53.914Z</time>
      </trkpt>
      <trkpt lat="45.93774" lon="4.77895">
        <ele>181.199996948</ele>
        <time>2015-09-20T11:03:54.834Z</time>
      </trkpt>
      <trkpt lat="45.9377" lon="4.7789">
        <ele>180.600006104</ele>
        <time>2015-09-20T11:03:55.859Z</time>
      </trkpt>
      <trkpt lat="45.93766" lon="4.77884">
        <ele>180.199996948</ele>
        <time>2015-09-20T11:03:56.834Z</time>
      </trkpt>
      <trkpt lat="45.93762" lon="4.77879">
        <ele>179.899993896</ele>
        <time>2015-09-20T11:03:57.858Z</time>
      </trkpt>
      <trkpt lat="45.93757" lon="4.77873">
        <ele>179.5</ele>
        <time>2015-09-20T11:03:58.834Z</time>
      </trkpt>
      <trkpt lat="45.93753" lon="4.77867">
        <ele>179.300003052</ele>
        <time>2015-09-20T11:03:59.876Z</time>
      </trkpt>
      <trkpt lat="45.93748" lon="4.77861">
        <ele>179.199996948</ele>
        <time>2015-09-20T11:04:00.834Z</time>
      </trkpt>
      <trkpt lat="45.93744" lon="4.77855">
        <ele>179.300003052</ele>
        <time>2015-09-20T11:04:01.859Z</time>
      </trkpt>
      <trkpt lat="45.93739" lon="4.77849">
        <ele>179.399993896</ele>
        <time>2015-09-20T11:04:02.834Z</time>
      </trkpt>
      <trkpt lat="45.93735" lon="4.77842">
        <ele>179.399993896</ele>
        <time>2015-09-20T11:04:03.858Z</time>
      </trkpt>
      <trkpt lat="45.9373" lon="4.77836">
        <ele>179.300003052</ele>
        <time>2015-09-20T11:04:04.889Z</time>
      </trkpt>
      <trkpt lat="45.93726" lon="4.7783">
        <ele>179</ele>
        <time>2015-09-20T11:04:05.872Z</time>
      </trkpt>
      <trkpt lat="45.93721" lon="4.77824">
        <ele>178.600006104</ele>
        <time>2015-09-20T11:04:06.834Z</time>
      </trkpt>
      <trkpt lat="45.93716" lon="4.77818">
        <ele>178.100006104</ele>
        <time>2015-09-20T11:04:07.862Z</time>
      </trkpt>
      <trkpt lat="45.93711" lon="4.77812">
        <ele>177.5</ele>
        <time>2015-09-20T11:04:08.834Z</time>
      </trkpt>
      <trkpt lat="45.93706" lon="4.77805">
        <ele>177.5</ele>
        <time>2015-09-20T11:04:09.859Z</time>
      </trkpt>
      <trkpt lat="45.93701" lon="4.77798">
        <ele>177.199996948</ele>
        <time>2015-09-20T11:04:10.835Z</time>
      </trkpt>
      <trkpt lat="45.93696" lon="4.77791">
        <ele>177.300003052</ele>
        <time>2015-09-20T11:04:11.869Z</time>
      </trkpt>
      <trkpt lat="45.9369" lon="4.77784">
        <ele>177.399993896</ele>
        <time>2015-09-20T11:04:12.835Z</time>
      </trkpt>
      <trkpt lat="45.93685" lon="4.77777">
        <ele>177</ele>
        <time>2015-09-20T11:04:13.858Z</time>
      </trkpt>
      <trkpt lat="45.9368" lon="4.77768">
        <ele>176.399993896</ele>
        <time>2015-09-20T11:04:14.833Z</time>
      </trkpt>
      <trkpt lat="45.93675" lon="4.7776">
        <ele>175.300003052</ele>
        <time>2015-09-20T11:04:15.944Z</time>
      </trkpt>
      <trkpt lat="45.9367" lon="4.77752">
        <ele>174.600006104</ele>
        <time>2015-09-20T11:04:16.835Z</time>
      </trkpt>
      <trkpt lat="45.93664" lon="4.77744">
        <ele>174.100006104</ele>
        <time>2015-09-20T11:04:17.861Z</time>
      </trkpt>
      <trkpt lat="45.93659" lon="4.77735">
        <ele>173.300003052</ele>
        <time>2015-09-20T11:04:18.838Z</time>
      </trkpt>
      <trkpt lat="45.93653" lon="4.77725">
        <ele>172.5</ele>
        <time>2015-09-20T11:04:19.861Z</time>
      </trkpt>
      <trkpt lat="45.93648" lon="4.77716">
        <ele>172</ele>
        <time>2015-09-20T11:04:20.834Z</time>
      </trkpt>
      <trkpt lat="45.93643" lon="4.77706">
        <ele>171.600006104</ele>
        <time>2015-09-20T11:04:21.908Z</time>
      </trkpt>
      <trkpt lat="45.93638" lon="4.77697">
        <ele>171</ele>
        <time>2015-09-20T11:04:22.833Z</time>
      </trkpt>
      <trkpt lat="45.93633" lon="4.77686">
        <ele>170.899993896</ele>
        <time>2015-09-20T11:04:23.914Z</time>
      </trkpt>
      <trkpt lat="45.93627" lon="4.77675">
        <ele>170.399993896</ele>
        <time>2015-09-20T11:04:24.834Z</time>
      </trkpt>
      <trkpt lat="45.93623" lon="4.77665">
        <ele>169.800003052</ele>
        <time>2015-09-20T11:04:25.86Z</time>
      </trkpt>
      <trkpt lat="45.93618" lon="4.77655">
        <ele>169.100006104</ele>
        <time>2015-09-20T11:04:26.834Z</time>
      </trkpt>
      <trkpt lat="45.93613" lon="4.77644">
        <ele>169</ele>
        <time>2015-09-20T11:04:27.888Z</time>
      </trkpt>
      <trkpt lat="45.93609" lon="4.77634">
        <ele>168.600006104</ele>
        <time>2015-09-20T11:04:28.834Z</time>
      </trkpt>
      <trkpt lat="45.93605" lon="4.77624">
        <ele>168.5</ele>
        <time>2015-09-20T11:04:29.884Z</time>
      </trkpt>
      <trkpt lat="45.93601" lon="4.77614">
        <ele>168.399993896</ele>
        <time>2015-09-20T11:04:30.834Z</time>
      </trkpt>
      <trkpt lat="45.93597" lon="4.77604">
        <ele>168.5</ele>
        <time>2015-09-20T11:04:31.872Z</time>
      </trkpt>
      <trkpt lat="45.93594" lon="4.77595">
        <ele>168.399993896</ele>
        <time>2015-09-20T11:04:32.834Z</time>
      </trkpt>
      <trkpt lat="45.93591" lon="4.77585">
        <ele>168.300003052</ele>
        <time>2015-09-20T11:04:33.859Z</time>
      </trkpt>
      <trkpt lat="45.93588" lon="4.77576">
        <ele>168.100006104</ele>
        <time>2015-09-20T11:04:34.834Z</time>
      </trkpt>
      <trkpt lat="45.93585" lon="4.77567">
        <ele>168.199996948</ele>
        <time>2015-09-20T11:04:35.861Z</time>
      </trkpt>
      <trkpt lat="45.93583" lon="4.77558">
        <ele>168.300003052</ele>
        <time>2015-09-20T11:04:36.835Z</time>
      </trkpt>
      <trkpt lat="45.9358" lon="4.77548">
        <ele>169.199996948</ele>
        <time>2015-09-20T11:04:37.86Z</time>
      </trkpt>
      <trkpt lat="45.93578" lon="4.77539">
        <ele>169.399993896</ele>
        <time>2015-09-20T11:04:38.834Z</time>
      </trkpt>
      <trkpt lat="45.93576" lon="4.7753">
        <ele>169.5</ele>
        <time>2015-09-20T11:04:39.858Z</time>
      </trkpt>
      <trkpt lat="45.93573" lon="4.7752">
        <ele>169.600006104</ele>
        <time>2015-09-20T11:04:40.834Z</time>
      </trkpt>
      <trkpt lat="45.93571" lon="4.77511">
        <ele>169.699996948</ele>
        <time>2015-09-20T11:04:41.861Z</time>
      </trkpt>
      <trkpt lat="45.93569" lon="4.77501">
        <ele>169.800003052</ele>
        <time>2015-09-20T11:04:42.834Z</time>
      </trkpt>
      <trkpt lat="45.93567" lon="4.77492">
        <ele>169.800003052</ele>
        <time>2015-09-20T11:04:43.863Z</time>
      </trkpt>
      <trkpt lat="45.93565" lon="4.77482">
        <ele>169.699996948</ele>
        <time>2015-09-20T11:04:44.84Z</time>
      </trkpt>
      <trkpt lat="45.93563" lon="4.77473">
        <ele>169.699996948</ele>
        <time>2015-09-20T11:04:45.859Z</time>
      </trkpt>
      <trkpt lat="45.93561" lon="4.77465">
        <ele>169.899993896</ele>
        <time>2015-09-20T11:04:46.834Z</time>
      </trkpt>
      <trkpt lat="45.93559" lon="4.77457">
        <ele>169.899993896</ele>
        <time>2015-09-20T11:04:47.862Z</time>
      </trkpt>
      <trkpt lat="45.93558" lon="4.77448">
        <ele>169.899993896</ele>
        <time>2015-09-20T11:04:48.834Z</time>
      </trkpt>
      <trkpt lat="45.93556" lon="4.7744">
        <ele>169.800003052</ele>
        <time>2015-09-20T11:04:49.859Z</time>
      </trkpt>
      <trkpt lat="45.93554" lon="4.77432">
        <ele>169.800003052</ele>
        <time>2015-09-20T11:04:50.834Z</time>
      </trkpt>
      <trkpt lat="45.93552" lon="4.77424">
        <ele>169.899993896</ele>
        <time>2015-09-20T11:04:51.858Z</time>
      </trkpt>
      <trkpt lat="45.9355" lon="4.77417">
        <ele>170.199996948</ele>
        <time>2015-09-20T11:04:52.834Z</time>
      </trkpt>
      <trkpt lat="45.93548" lon="4.77408">
        <ele>170.100006104</ele>
        <time>2015-09-20T11:04:53.894Z</time>
      </trkpt>
      <trkpt lat="45.93547" lon="4.774">
        <ele>170.399993896</ele>
        <time>2015-09-20T11:04:54.834Z</time>
      </trkpt>
      <trkpt lat="45.93545" lon="4.77392">
        <ele>170.5</ele>
        <time>2015-09-20T11:04:55.859Z</time>
      </trkpt>
      <trkpt lat="45.93543" lon="4.77383">
        <ele>170.399993896</ele>
        <time>2015-09-20T11:04:56.834Z</time>
      </trkpt>
      <trkpt lat="45.93541" lon="4.77375">
        <ele>170.5</ele>
        <time>2015-09-20T11:04:57.858Z</time>
      </trkpt>
      <trkpt lat="45.93539" lon="4.77366">
        <ele>170.699996948</ele>
        <time>2015-09-20T11:04:58.834Z</time>
      </trkpt>
      <trkpt lat="45.93538" lon="4.77357">
        <ele>170.899993896</ele>
        <time>2015-09-20T11:04:59.868Z</time>
      </trkpt>
      <trkpt lat="45.93536" lon="4.77348">
        <ele>170.600006104</ele>
        <time>2015-09-20T11:05:00.835Z</time>
      </trkpt>
      <trkpt lat="45.93534" lon="4.7734">
        <ele>170.5</ele>
        <time>2015-09-20T11:05:01.86Z</time>
      </trkpt>
      <trkpt lat="45.93532" lon="4.77331">
        <ele>170.600006104</ele>
        <time>2015-09-20T11:05:02.85Z</time>
      </trkpt>
      <trkpt lat="45.9353" lon="4.77322">
        <ele>170.600006104</ele>
        <time>2015-09-20T11:05:03.88Z</time>
      </trkpt>
      <trkpt lat="45.93528" lon="4.77313">
        <ele>170.5</ele>
        <time>2015-09-20T11:05:04.884Z</time>
      </trkpt>
      <trkpt lat="45.93526" lon="4.77305">
        <ele>170.699996948</ele>
        <time>2015-09-20T11:05:05.861Z</time>
      </trkpt>
      <trkpt lat="45.93524" lon="4.77296">
        <ele>170.899993896</ele>
        <time>2015-09-20T11:05:06.834Z</time>
      </trkpt>
      <trkpt lat="45.93522" lon="4.77288">
        <ele>171</ele>
        <time>2015-09-20T11:05:07.863Z</time>
      </trkpt>
      <trkpt lat="45.9352" lon="4.7728">
        <ele>171</ele>
        <time>2015-09-20T11:05:08.828Z</time>
      </trkpt>
      <trkpt lat="45.93518" lon="4.77272">
        <ele>170.800003052</ele>
        <time>2015-09-20T11:05:09.884Z</time>
      </trkpt>
      <trkpt lat="45.93516" lon="4.77264">
        <ele>170.399993896</ele>
        <time>2015-09-20T11:05:10.838Z</time>
      </trkpt>
      <trkpt lat="45.93515" lon="4.77256">
        <ele>170.399993896</ele>
        <time>2015-09-20T11:05:11.862Z</time>
      </trkpt>
      <trkpt lat="45.93513" lon="4.77248">
        <ele>170.300003052</ele>
        <time>2015-09-20T11:05:12.834Z</time>
      </trkpt>
      <trkpt lat="45.93511" lon="4.7724">
        <ele>170.5</ele>
        <time>2015-09-20T11:05:13.859Z</time>
      </trkpt>
      <trkpt lat="45.9351" lon="4.77232">
        <ele>170.600006104</ele>
        <time>2015-09-20T11:05:14.834Z</time>
      </trkpt>
      <trkpt lat="45.93507" lon="4.77224">
        <ele>170.399993896</ele>
        <time>2015-09-20T11:05:15.867Z</time>
      </trkpt>
      <trkpt lat="45.93506" lon="4.77216">
        <ele>170.5</ele>
        <time>2015-09-20T11:05:16.834Z</time>
      </trkpt>
      <trkpt lat="45.93504" lon="4.77208">
        <ele>170.5</ele>
        <time>2015-09-20T11:05:17.861Z</time>
      </trkpt>
      <trkpt lat="45.93502" lon="4.772">
        <ele>170.399993896</ele>
        <time>2015-09-20T11:05:18.835Z</time>
      </trkpt>
      <trkpt lat="45.935" lon="4.77191">
        <ele>170.5</ele>
        <time>2015-09-20T11:05:19.859Z</time>
      </trkpt>
      <trkpt lat="45.93499" lon="4.77183">
        <ele>170.300003052</ele>
        <time>2015-09-20T11:05:20.834Z</time>
      </trkpt>
      <trkpt lat="45.93497" lon="4.77174">
        <ele>170.399993896</ele>
        <time>2015-09-20T11:05:21.858Z</time>
      </trkpt>
      <trkpt lat="45.93496" lon="4.77165">
        <ele>170.600006104</ele>
        <time>2015-09-20T11:05:22.834Z</time>
      </trkpt>
      <trkpt lat="45.93494" lon="4.77157">
        <ele>170.800003052</ele>
        <time>2015-09-20T11:05:23.875Z</time>
      </trkpt>
      <trkpt lat="45.93492" lon="4.77148">
        <ele>170.800003052</ele>
        <time>2015-09-20T11:05:24.834Z</time>
      </trkpt>
      <trkpt lat="45.9349" lon="4.77139">
        <ele>170.699996948</ele>
        <time>2015-09-20T11:05:25.859Z</time>
      </trkpt>
      <trkpt lat="45.93488" lon="4.7713">
        <ele>170.600006104</ele>
        <time>2015-09-20T11:05:26.833Z</time>
      </trkpt>
      <trkpt lat="45.93487" lon="4.77122">
        <ele>170.600006104</ele>
        <time>2015-09-20T11:05:27.858Z</time>
      </trkpt>
      <trkpt lat="45.93485" lon="4.77113">
        <ele>170.699996948</ele>
        <time>2015-09-20T11:05:28.834Z</time>
      </trkpt>
      <trkpt lat="45.93484" lon="4.77105">
        <ele>170.5</ele>
        <time>2015-09-20T11:05:29.861Z</time>
      </trkpt>
      <trkpt lat="45.93482" lon="4.77097">
        <ele>170.399993896</ele>
        <time>2015-09-20T11:05:30.834Z</time>
      </trkpt>
      <trkpt lat="45.93481" lon="4.77088">
        <ele>170.399993896</ele>
        <time>2015-09-20T11:05:31.859Z</time>
      </trkpt>
      <trkpt lat="45.9348" lon="4.7708">
        <ele>170.5</ele>
        <time>2015-09-20T11:05:32.834Z</time>
      </trkpt>
      <trkpt lat="45.93478" lon="4.77071">
        <ele>170.699996948</ele>
        <time>2015-09-20T11:05:33.858Z</time>
      </trkpt>
      <trkpt lat="45.93476" lon="4.77063">
        <ele>170.600006104</ele>
        <time>2015-09-20T11:05:34.834Z</time>
      </trkpt>
      <trkpt lat="45.93475" lon="4.77054">
        <ele>170.899993896</ele>
        <time>2015-09-20T11:05:35.861Z</time>
      </trkpt>
      <trkpt lat="45.93473" lon="4.77046">
        <ele>170.899993896</ele>
        <time>2015-09-20T11:05:36.837Z</time>
      </trkpt>
      <trkpt lat="45.93472" lon="4.77037">
        <ele>170.800003052</ele>
        <time>2015-09-20T11:05:37.86Z</time>
      </trkpt>
      <trkpt lat="45.9347" lon="4.77028">
        <ele>170.800003052</ele>
        <time>2015-09-20T11:05:38.834Z</time>
      </trkpt>
      <trkpt lat="45.93468" lon="4.7702">
        <ele>170.5</ele>
        <time>2015-09-20T11:05:39.871Z</time>
      </trkpt>
      <trkpt lat="45.93467" lon="4.77011">
        <ele>170.5</ele>
        <time>2015-09-20T11:05:40.834Z</time>
      </trkpt>
      <trkpt lat="45.93466" lon="4.77002">
        <ele>170.600006104</ele>
        <time>2015-09-20T11:05:41.861Z</time>
      </trkpt>
      <trkpt lat="45.93464" lon="4.76993">
        <ele>170.600006104</ele>
        <time>2015-09-20T11:05:42.834Z</time>
      </trkpt>
      <trkpt lat="45.93463" lon="4.76984">
        <ele>170.600006104</ele>
        <time>2015-09-20T11:05:43.858Z</time>
      </trkpt>
      <trkpt lat="45.93462" lon="4.76975">
        <ele>170.699996948</ele>
        <time>2015-09-20T11:05:44.833Z</time>
      </trkpt>
      <trkpt lat="45.9346" lon="4.76966">
        <ele>170.699996948</ele>
        <time>2015-09-20T11:05:45.858Z</time>
      </trkpt>
      <trkpt lat="45.93459" lon="4.76957">
        <ele>170.600006104</ele>
        <time>2015-09-20T11:05:46.833Z</time>
      </trkpt>
      <trkpt lat="45.93458" lon="4.76947">
        <ele>170.800003052</ele>
        <time>2015-09-20T11:05:47.86Z</time>
      </trkpt>
      <trkpt lat="45.93457" lon="4.76938">
        <ele>171.100006104</ele>
        <time>2015-09-20T11:05:48.833Z</time>
      </trkpt>
      <trkpt lat="45.93455" lon="4.76929">
        <ele>171</ele>
        <time>2015-09-20T11:05:49.859Z</time>
      </trkpt>
      <trkpt lat="45.93453" lon="4.76919">
        <ele>171.199996948</ele>
        <time>2015-09-20T11:05:50.833Z</time>
      </trkpt>
      <trkpt lat="45.93451" lon="4.7691">
        <ele>171.199996948</ele>
        <time>2015-09-20T11:05:51.858Z</time>
      </trkpt>
      <trkpt lat="45.93448" lon="4.76901">
        <ele>170.699996948</ele>
        <time>2015-09-20T11:05:52.833Z</time>
      </trkpt>
      <trkpt lat="45.93445" lon="4.76893">
        <ele>170.800003052</ele>
        <time>2015-09-20T11:05:53.861Z</time>
      </trkpt>
      <trkpt lat="45.93443" lon="4.76885">
        <ele>171</ele>
        <time>2015-09-20T11:05:54.833Z</time>
      </trkpt>
      <trkpt lat="45.93441" lon="4.76877">
        <ele>171.100006104</ele>
        <time>2015-09-20T11:05:55.873Z</time>
      </trkpt>
      <trkpt lat="45.93438" lon="4.76869">
        <ele>170.699996948</ele>
        <time>2015-09-20T11:05:56.833Z</time>
      </trkpt>
      <trkpt lat="45.93434" lon="4.76862">
        <ele>170.899993896</ele>
        <time>2015-09-20T11:05:57.857Z</time>
      </trkpt>
      <trkpt lat="45.93431" lon="4.76854">
        <ele>171.300003052</ele>
        <time>2015-09-20T11:05:58.833Z</time>
      </trkpt>
      <trkpt lat="45.93427" lon="4.76847">
        <ele>171.100006104</ele>
        <time>2015-09-20T11:05:59.861Z</time>
      </trkpt>
      <trkpt lat="45.93423" lon="4.76839">
        <ele>171.100006104</ele>
        <time>2015-09-20T11:06:00.834Z</time>
      </trkpt>
      <trkpt lat="45.93419" lon="4.76832">
        <ele>171.300003052</ele>
        <time>2015-09-20T11:06:01.859Z</time>
      </trkpt>
      <trkpt lat="45.93415" lon="4.76824">
        <ele>171.699996948</ele>
        <time>2015-09-20T11:06:02.837Z</time>
      </trkpt>
      <trkpt lat="45.93411" lon="4.76817">
        <ele>171.600006104</ele>
        <time>2015-09-20T11:06:03.858Z</time>
      </trkpt>
      <trkpt lat="45.93406" lon="4.76811">
        <ele>171.699996948</ele>
        <time>2015-09-20T11:06:04.833Z</time>
      </trkpt>
      <trkpt lat="45.93401" lon="4.76804">
        <ele>171.899993896</ele>
        <time>2015-09-20T11:06:05.862Z</time>
      </trkpt>
      <trkpt lat="45.93396" lon="4.76797">
        <ele>171.600006104</ele>
        <time>2015-09-20T11:06:06.833Z</time>
      </trkpt>
      <trkpt lat="45.93391" lon="4.76791">
        <ele>171.399993896</ele>
        <time>2015-09-20T11:06:07.862Z</time>
      </trkpt>
      <trkpt lat="45.93386" lon="4.76786">
        <ele>171.199996948</ele>
        <time>2015-09-20T11:06:08.833Z</time>
      </trkpt>
      <trkpt lat="45.93381" lon="4.7678">
        <ele>170.899993896</ele>
        <time>2015-09-20T11:06:09.857Z</time>
      </trkpt>
      <trkpt lat="45.93376" lon="4.76775">
        <ele>170.699996948</ele>
        <time>2015-09-20T11:06:10.874Z</time>
      </trkpt>
      <trkpt lat="45.93371" lon="4.7677">
        <ele>170.699996948</ele>
        <time>2015-09-20T11:06:11.875Z</time>
      </trkpt>
      <trkpt lat="45.93367" lon="4.76765">
        <ele>170.800003052</ele>
        <time>2015-09-20T11:06:12.834Z</time>
      </trkpt>
      <trkpt lat="45.93362" lon="4.76761">
        <ele>171</ele>
        <time>2015-09-20T11:06:13.859Z</time>
      </trkpt>
      <trkpt lat="45.93357" lon="4.76756">
        <ele>171</ele>
        <time>2015-09-20T11:06:14.833Z</time>
      </trkpt>
      <trkpt lat="45.93352" lon="4.76751">
        <ele>170.800003052</ele>
        <time>2015-09-20T11:06:15.857Z</time>
      </trkpt>
      <trkpt lat="45.93347" lon="4.76745">
        <ele>170.600006104</ele>
        <time>2015-09-20T11:06:16.834Z</time>
      </trkpt>
      <trkpt lat="45.93342" lon="4.7674">
        <ele>170.5</ele>
        <time>2015-09-20T11:06:17.861Z</time>
      </trkpt>
      <trkpt lat="45.93336" lon="4.76735">
        <ele>170.5</ele>
        <time>2015-09-20T11:06:18.833Z</time>
      </trkpt>
      <trkpt lat="45.93331" lon="4.7673">
        <ele>170.5</ele>
        <time>2015-09-20T11:06:19.858Z</time>
      </trkpt>
      <trkpt lat="45.93326" lon="4.76726">
        <ele>170.100006104</ele>
        <time>2015-09-20T11:06:20.833Z</time>
      </trkpt>
      <trkpt lat="45.93321" lon="4.76721">
        <ele>170.5</ele>
        <time>2015-09-20T11:06:21.857Z</time>
      </trkpt>
      <trkpt lat="45.93316" lon="4.76716">
        <ele>170.699996948</ele>
        <time>2015-09-20T11:06:22.834Z</time>
      </trkpt>
      <trkpt lat="45.9331" lon="4.76711">
        <ele>170.600006104</ele>
        <time>2015-09-20T11:06:23.861Z</time>
      </trkpt>
      <trkpt lat="45.93305" lon="4.76706">
        <ele>170.699996948</ele>
        <time>2015-09-20T11:06:24.833Z</time>
      </trkpt>
      <trkpt lat="45.933" lon="4.76701">
        <ele>170.600006104</ele>
        <time>2015-09-20T11:06:25.858Z</time>
      </trkpt>
      <trkpt lat="45.93295" lon="4.76695">
        <ele>170.300003052</ele>
        <time>2015-09-20T11:06:26.833Z</time>
      </trkpt>
      <trkpt lat="45.93291" lon="4.7669">
        <ele>170.100006104</ele>
        <time>2015-09-20T11:06:27.876Z</time>
      </trkpt>
      <trkpt lat="45.93286" lon="4.76685">
        <ele>170.199996948</ele>
        <time>2015-09-20T11:06:28.837Z</time>
      </trkpt>
      <trkpt lat="45.93281" lon="4.7668">
        <ele>170.100006104</ele>
        <time>2015-09-20T11:06:29.898Z</time>
      </trkpt>
      <trkpt lat="45.93276" lon="4.76675">
        <ele>170</ele>
        <time>2015-09-20T11:06:30.833Z</time>
      </trkpt>
      <trkpt lat="45.93272" lon="4.76671">
        <ele>169.800003052</ele>
        <time>2015-09-20T11:06:31.903Z</time>
      </trkpt>
      <trkpt lat="45.93267" lon="4.76666">
        <ele>169.399993896</ele>
        <time>2015-09-20T11:06:32.833Z</time>
      </trkpt>
      <trkpt lat="45.93262" lon="4.76661">
        <ele>169.399993896</ele>
        <time>2015-09-20T11:06:33.858Z</time>
      </trkpt>
      <trkpt lat="45.93257" lon="4.76657">
        <ele>169.699996948</ele>
        <time>2015-09-20T11:06:34.834Z</time>
      </trkpt>
      <trkpt lat="45.93252" lon="4.76652">
        <ele>169.699996948</ele>
        <time>2015-09-20T11:06:35.862Z</time>
      </trkpt>
      <trkpt lat="45.93247" lon="4.76648">
        <ele>170.100006104</ele>
        <time>2015-09-20T11:06:36.833Z</time>
      </trkpt>
      <trkpt lat="45.93242" lon="4.76643">
        <ele>170.199996948</ele>
        <time>2015-09-20T11:06:37.863Z</time>
      </trkpt>
      <trkpt lat="45.93237" lon="4.76638">
        <ele>170.399993896</ele>
        <time>2015-09-20T11:06:38.834Z</time>
      </trkpt>
      <trkpt lat="45.93232" lon="4.76633">
        <ele>170.5</ele>
        <time>2015-09-20T11:06:39.858Z</time>
      </trkpt>
      <trkpt lat="45.93227" lon="4.76628">
        <ele>170.699996948</ele>
        <time>2015-09-20T11:06:40.834Z</time>
      </trkpt>
      <trkpt lat="45.93221" lon="4.76624">
        <ele>170.699996948</ele>
        <time>2015-09-20T11:06:41.861Z</time>
      </trkpt>
      <trkpt lat="45.93216" lon="4.76619">
        <ele>170.600006104</ele>
        <time>2015-09-20T11:06:42.832Z</time>
      </trkpt>
      <trkpt lat="45.93211" lon="4.76613">
        <ele>170.800003052</ele>
        <time>2015-09-20T11:06:43.858Z</time>
      </trkpt>
      <trkpt lat="45.93205" lon="4.76608">
        <ele>170.600006104</ele>
        <time>2015-09-20T11:06:44.834Z</time>
      </trkpt>
      <trkpt lat="45.932" lon="4.76603">
        <ele>170.399993896</ele>
        <time>2015-09-20T11:06:45.858Z</time>
      </trkpt>
      <trkpt lat="45.93195" lon="4.76597">
        <ele>170.5</ele>
        <time>2015-09-20T11:06:46.833Z</time>
      </trkpt>
      <trkpt lat="45.9319" lon="4.76592">
        <ele>170.300003052</ele>
        <time>2015-09-20T11:06:47.861Z</time>
      </trkpt>
      <trkpt lat="45.93185" lon="4.76586">
        <ele>170.5</ele>
        <time>2015-09-20T11:06:48.833Z</time>
      </trkpt>
      <trkpt lat="45.93179" lon="4.7658">
        <ele>170.399993896</ele>
        <time>2015-09-20T11:06:49.858Z</time>
      </trkpt>
      <trkpt lat="45.93174" lon="4.76575">
        <ele>170.199996948</ele>
        <time>2015-09-20T11:06:50.856Z</time>
      </trkpt>
      <trkpt lat="45.93169" lon="4.76571">
        <ele>169.800003052</ele>
        <time>2015-09-20T11:06:51.858Z</time>
      </trkpt>
      <trkpt lat="45.93165" lon="4.76566">
        <ele>170.199996948</ele>
        <time>2015-09-20T11:06:52.834Z</time>
      </trkpt>
      <trkpt lat="45.9316" lon="4.76561">
        <ele>170.300003052</ele>
        <time>2015-09-20T11:06:53.874Z</time>
      </trkpt>
      <trkpt lat="45.93155" lon="4.76556">
        <ele>170.199996948</ele>
        <time>2015-09-20T11:06:54.836Z</time>
      </trkpt>
      <trkpt lat="45.9315" lon="4.76552">
        <ele>170</ele>
        <time>2015-09-20T11:06:55.865Z</time>
      </trkpt>
      <trkpt lat="45.93144" lon="4.76546">
        <ele>169.800003052</ele>
        <time>2015-09-20T11:06:56.833Z</time>
      </trkpt>
      <trkpt lat="45.93139" lon="4.76541">
        <ele>169.899993896</ele>
        <time>2015-09-20T11:06:57.858Z</time>
      </trkpt>
      <trkpt lat="45.93134" lon="4.76536">
        <ele>169.5</ele>
        <time>2015-09-20T11:06:58.834Z</time>
      </trkpt>
      <trkpt lat="45.93128" lon="4.76531">
        <ele>168.800003052</ele>
        <time>2015-09-20T11:06:59.861Z</time>
      </trkpt>
      <trkpt lat="45.93123" lon="4.76526">
        <ele>168.600006104</ele>
        <time>2015-09-20T11:07:00.832Z</time>
      </trkpt>
      <trkpt lat="45.93118" lon="4.76521">
        <ele>168.600006104</ele>
        <time>2015-09-20T11:07:01.858Z</time>
      </trkpt>
      <trkpt lat="45.93113" lon="4.76515">
        <ele>168.600006104</ele>
        <time>2015-09-20T11:07:02.833Z</time>
      </trkpt>
      <trkpt lat="45.93107" lon="4.76509">
        <ele>168.600006104</ele>
        <time>2015-09-20T11:07:03.856Z</time>
      </trkpt>
      <trkpt lat="45.93103" lon="4.76504">
        <ele>169</ele>
        <time>2015-09-20T11:07:04.832Z</time>
      </trkpt>
      <trkpt lat="45.93098" lon="4.76499">
        <ele>169.300003052</ele>
        <time>2015-09-20T11:07:05.894Z</time>
      </trkpt>
      <trkpt lat="45.93093" lon="4.76495">
        <ele>169.600006104</ele>
        <time>2015-09-20T11:07:06.833Z</time>
      </trkpt>
      <trkpt lat="45.93088" lon="4.7649">
        <ele>169.399993896</ele>
        <time>2015-09-20T11:07:07.862Z</time>
      </trkpt>
      <trkpt lat="45.93083" lon="4.76485">
        <ele>169.600006104</ele>
        <time>2015-09-20T11:07:08.832Z</time>
      </trkpt>
      <trkpt lat="45.93079" lon="4.7648">
        <ele>170</ele>
        <time>2015-09-20T11:07:09.903Z</time>
      </trkpt>
      <trkpt lat="45.93074" lon="4.76475">
        <ele>170.199996948</ele>
        <time>2015-09-20T11:07:10.832Z</time>
      </trkpt>
      <trkpt lat="45.93069" lon="4.7647">
        <ele>170.300003052</ele>
        <time>2015-09-20T11:07:11.859Z</time>
      </trkpt>
      <trkpt lat="45.93064" lon="4.76465">
        <ele>170.399993896</ele>
        <time>2015-09-20T11:07:12.832Z</time>
      </trkpt>
      <trkpt lat="45.93059" lon="4.7646">
        <ele>170.800003052</ele>
        <time>2015-09-20T11:07:13.858Z</time>
      </trkpt>
      <trkpt lat="45.93054" lon="4.76455">
        <ele>170.800003052</ele>
        <time>2015-09-20T11:07:14.872Z</time>
      </trkpt>
      <trkpt lat="45.93049" lon="4.7645">
        <ele>170.899993896</ele>
        <time>2015-09-20T11:07:15.857Z</time>
      </trkpt>
      <trkpt lat="45.93044" lon="4.76445">
        <ele>171.100006104</ele>
        <time>2015-09-20T11:07:16.832Z</time>
      </trkpt>
      <trkpt lat="45.93039" lon="4.7644">
        <ele>171.100006104</ele>
        <time>2015-09-20T11:07:17.86Z</time>
      </trkpt>
      <trkpt lat="45.93034" lon="4.76435">
        <ele>171.399993896</ele>
        <time>2015-09-20T11:07:18.833Z</time>
      </trkpt>
      <trkpt lat="45.93029" lon="4.7643">
        <ele>171.5</ele>
        <time>2015-09-20T11:07:19.858Z</time>
      </trkpt>
      <trkpt lat="45.93023" lon="4.76425">
        <ele>171.399993896</ele>
        <time>2015-09-20T11:07:20.836Z</time>
      </trkpt>
      <trkpt lat="45.93018" lon="4.7642">
        <ele>171.600006104</ele>
        <time>2015-09-20T11:07:21.859Z</time>
      </trkpt>
      <trkpt lat="45.93013" lon="4.76415">
        <ele>171.899993896</ele>
        <time>2015-09-20T11:07:22.833Z</time>
      </trkpt>
      <trkpt lat="45.93008" lon="4.76411">
        <ele>172.199996948</ele>
        <time>2015-09-20T11:07:23.86Z</time>
      </trkpt>
      <trkpt lat="45.93004" lon="4.76405">
        <ele>172.5</ele>
        <time>2015-09-20T11:07:24.832Z</time>
      </trkpt>
      <trkpt lat="45.92999" lon="4.76401">
        <ele>172.600006104</ele>
        <time>2015-09-20T11:07:25.871Z</time>
      </trkpt>
      <trkpt lat="45.92994" lon="4.76396">
        <ele>172.800003052</ele>
        <time>2015-09-20T11:07:26.833Z</time>
      </trkpt>
      <trkpt lat="45.92989" lon="4.7639">
        <ele>173</ele>
        <time>2015-09-20T11:07:27.894Z</time>
      </trkpt>
      <trkpt lat="45.92984" lon="4.76385">
        <ele>173.199996948</ele>
        <time>2015-09-20T11:07:28.833Z</time>
      </trkpt>
      <trkpt lat="45.92979" lon="4.76381">
        <ele>173.399993896</ele>
        <time>2015-09-20T11:07:29.86Z</time>
      </trkpt>
      <trkpt lat="45.92974" lon="4.76376">
        <ele>173.5</ele>
        <time>2015-09-20T11:07:30.832Z</time>
      </trkpt>
      <trkpt lat="45.92969" lon="4.76371">
        <ele>173.600006104</ele>
        <time>2015-09-20T11:07:31.858Z</time>
      </trkpt>
      <trkpt lat="45.92964" lon="4.76366">
        <ele>173.600006104</ele>
        <time>2015-09-20T11:07:32.833Z</time>
      </trkpt>
      <trkpt lat="45.92958" lon="4.7636">
        <ele>173.399993896</ele>
        <time>2015-09-20T11:07:33.857Z</time>
      </trkpt>
      <trkpt lat="45.92954" lon="4.76355">
        <ele>173.600006104</ele>
        <time>2015-09-20T11:07:34.832Z</time>
      </trkpt>
      <trkpt lat="45.92948" lon="4.7635">
        <ele>173.699996948</ele>
        <time>2015-09-20T11:07:35.86Z</time>
      </trkpt>
      <trkpt lat="45.92943" lon="4.76345">
        <ele>174</ele>
        <time>2015-09-20T11:07:36.832Z</time>
      </trkpt>
      <trkpt lat="45.92939" lon="4.7634">
        <ele>174.100006104</ele>
        <time>2015-09-20T11:07:37.859Z</time>
      </trkpt>
      <trkpt lat="45.92934" lon="4.76335">
        <ele>173.699996948</ele>
        <time>2015-09-20T11:07:38.832Z</time>
      </trkpt>
      <trkpt lat="45.92929" lon="4.7633">
        <ele>173.600006104</ele>
        <time>2015-09-20T11:07:39.858Z</time>
      </trkpt>
      <trkpt lat="45.92924" lon="4.76326">
        <ele>173.699996948</ele>
        <time>2015-09-20T11:07:40.832Z</time>
      </trkpt>
      <trkpt lat="45.92919" lon="4.76321">
        <ele>173.699996948</ele>
        <time>2015-09-20T11:07:41.86Z</time>
      </trkpt>
      <trkpt lat="45.92914" lon="4.76316">
        <ele>173.699996948</ele>
        <time>2015-09-20T11:07:42.832Z</time>
      </trkpt>
      <trkpt lat="45.92909" lon="4.76312">
        <ele>173.399993896</ele>
        <time>2015-09-20T11:07:43.858Z</time>
      </trkpt>
      <trkpt lat="45.92904" lon="4.76307">
        <ele>173.5</ele>
        <time>2015-09-20T11:07:44.833Z</time>
      </trkpt>
      <trkpt lat="45.929" lon="4.76301">
        <ele>173.699996948</ele>
        <time>2015-09-20T11:07:45.856Z</time>
      </trkpt>
      <trkpt lat="45.92895" lon="4.76296">
        <ele>173.5</ele>
        <time>2015-09-20T11:07:46.851Z</time>
      </trkpt>
      <trkpt lat="45.9289" lon="4.76291">
        <ele>173</ele>
        <time>2015-09-20T11:07:47.86Z</time>
      </trkpt>
      <trkpt lat="45.92885" lon="4.76286">
        <ele>172.600006104</ele>
        <time>2015-09-20T11:07:48.833Z</time>
      </trkpt>
      <trkpt lat="45.92879" lon="4.76281">
        <ele>172.600006104</ele>
        <time>2015-09-20T11:07:49.857Z</time>
      </trkpt>
      <trkpt lat="45.92874" lon="4.76276">
        <ele>172.399993896</ele>
        <time>2015-09-20T11:07:50.833Z</time>
      </trkpt>
      <trkpt lat="45.92869" lon="4.76272">
        <ele>172.199996948</ele>
        <time>2015-09-20T11:07:51.857Z</time>
      </trkpt>
      <trkpt lat="45.92864" lon="4.76268">
        <ele>172.300003052</ele>
        <time>2015-09-20T11:07:52.832Z</time>
      </trkpt>
      <trkpt lat="45.92859" lon="4.76263">
        <ele>172.399993896</ele>
        <time>2015-09-20T11:07:53.859Z</time>
      </trkpt>
      <trkpt lat="45.92855" lon="4.76259">
        <ele>172.699996948</ele>
        <time>2015-09-20T11:07:54.833Z</time>
      </trkpt>
      <trkpt lat="45.9285" lon="4.76254">
        <ele>172.800003052</ele>
        <time>2015-09-20T11:07:55.859Z</time>
      </trkpt>
      <trkpt lat="45.92846" lon="4.76249">
        <ele>172.899993896</ele>
        <time>2015-09-20T11:07:56.833Z</time>
      </trkpt>
      <trkpt lat="45.92841" lon="4.76245">
        <ele>173.100006104</ele>
        <time>2015-09-20T11:07:57.856Z</time>
      </trkpt>
      <trkpt lat="45.92837" lon="4.7624">
        <ele>173.199996948</ele>
        <time>2015-09-20T11:07:58.833Z</time>
      </trkpt>
      <trkpt lat="45.92832" lon="4.76235">
        <ele>173.300003052</ele>
        <time>2015-09-20T11:07:59.86Z</time>
      </trkpt>
      <trkpt lat="45.92827" lon="4.76229">
        <ele>173.199996948</ele>
        <time>2015-09-20T11:08:00.832Z</time>
      </trkpt>
      <trkpt lat="45.92822" lon="4.76224">
        <ele>173.300003052</ele>
        <time>2015-09-20T11:08:01.858Z</time>
      </trkpt>
      <trkpt lat="45.92817" lon="4.76219">
        <ele>173.100006104</ele>
        <time>2015-09-20T11:08:02.833Z</time>
      </trkpt>
      <trkpt lat="45.92812" lon="4.76214">
        <ele>173.100006104</ele>
        <time>2015-09-20T11:08:03.857Z</time>
      </trkpt>
      <trkpt lat="45.92807" lon="4.76209">
        <ele>173.199996948</ele>
        <time>2015-09-20T11:08:04.833Z</time>
      </trkpt>
      <trkpt lat="45.92803" lon="4.76205">
        <ele>173.300003052</ele>
        <time>2015-09-20T11:08:05.859Z</time>
      </trkpt>
      <trkpt lat="45.92798" lon="4.762">
        <ele>173.600006104</ele>
        <time>2015-09-20T11:08:06.832Z</time>
      </trkpt>
      <trkpt lat="45.92793" lon="4.76196">
        <ele>173.399993896</ele>
        <time>2015-09-20T11:08:07.874Z</time>
      </trkpt>
      <trkpt lat="45.92787" lon="4.76191">
        <ele>173.399993896</ele>
        <time>2015-09-20T11:08:08.832Z</time>
      </trkpt>
      <trkpt lat="45.92782" lon="4.76186">
        <ele>173.300003052</ele>
        <time>2015-09-20T11:08:09.856Z</time>
      </trkpt>
      <trkpt lat="45.92777" lon="4.76182">
        <ele>173.5</ele>
        <time>2015-09-20T11:08:10.832Z</time>
      </trkpt>
      <trkpt lat="45.92772" lon="4.76178">
        <ele>172.899993896</ele>
        <time>2015-09-20T11:08:11.904Z</time>
      </trkpt>
      <trkpt lat="45.92767" lon="4.76173">
        <ele>172.800003052</ele>
        <time>2015-09-20T11:08:12.836Z</time>
      </trkpt>
      <trkpt lat="45.92763" lon="4.76169">
        <ele>172.699996948</ele>
        <time>2015-09-20T11:08:13.859Z</time>
      </trkpt>
      <trkpt lat="45.92757" lon="4.76165">
        <ele>172.300003052</ele>
        <time>2015-09-20T11:08:14.832Z</time>
      </trkpt>
      <trkpt lat="45.92752" lon="4.76161">
        <ele>172</ele>
        <time>2015-09-20T11:08:15.857Z</time>
      </trkpt>
      <trkpt lat="45.92747" lon="4.76156">
        <ele>172.300003052</ele>
        <time>2015-09-20T11:08:16.832Z</time>
      </trkpt>
      <trkpt lat="45.92742" lon="4.76152">
        <ele>172.5</ele>
        <time>2015-09-20T11:08:17.859Z</time>
      </trkpt>
      <trkpt lat="45.92736" lon="4.76147">
        <ele>172</ele>
        <time>2015-09-20T11:08:18.832Z</time>
      </trkpt>
      <trkpt lat="45.92731" lon="4.76143">
        <ele>172.100006104</ele>
        <time>2015-09-20T11:08:19.857Z</time>
      </trkpt>
      <trkpt lat="45.92725" lon="4.7614">
        <ele>172</ele>
        <time>2015-09-20T11:08:20.832Z</time>
      </trkpt>
      <trkpt lat="45.9272" lon="4.76136">
        <ele>172</ele>
        <time>2015-09-20T11:08:21.856Z</time>
      </trkpt>
      <trkpt lat="45.92715" lon="4.76132">
        <ele>172.5</ele>
        <time>2015-09-20T11:08:22.832Z</time>
      </trkpt>
      <trkpt lat="45.92711" lon="4.76129">
        <ele>172.5</ele>
        <time>2015-09-20T11:08:23.873Z</time>
      </trkpt>
      <trkpt lat="45.92706" lon="4.76125">
        <ele>172.5</ele>
        <time>2015-09-20T11:08:24.833Z</time>
      </trkpt>
      <trkpt lat="45.92701" lon="4.76121">
        <ele>172.800003052</ele>
        <time>2015-09-20T11:08:25.858Z</time>
      </trkpt>
      <trkpt lat="45.92697" lon="4.76117">
        <ele>172.800003052</ele>
        <time>2015-09-20T11:08:26.833Z</time>
      </trkpt>
      <trkpt lat="45.92692" lon="4.76114">
        <ele>172.899993896</ele>
        <time>2015-09-20T11:08:27.856Z</time>
      </trkpt>
      <trkpt lat="45.92688" lon="4.7611">
        <ele>173.100006104</ele>
        <time>2015-09-20T11:08:28.832Z</time>
      </trkpt>
      <trkpt lat="45.92684" lon="4.76107">
        <ele>173.300003052</ele>
        <time>2015-09-20T11:08:29.868Z</time>
      </trkpt>
      <trkpt lat="45.92679" lon="4.76104">
        <ele>173.199996948</ele>
        <time>2015-09-20T11:08:30.869Z</time>
      </trkpt>
      <trkpt lat="45.92676" lon="4.76101">
        <ele>173.5</ele>
        <time>2015-09-20T11:08:31.858Z</time>
      </trkpt>
      <trkpt lat="45.92671" lon="4.76097">
        <ele>173.800003052</ele>
        <time>2015-09-20T11:08:32.832Z</time>
      </trkpt>
      <trkpt lat="45.92667" lon="4.76094">
        <ele>173.899993896</ele>
        <time>2015-09-20T11:08:33.857Z</time>
      </trkpt>
      <trkpt lat="45.92664" lon="4.76091">
        <ele>174.100006104</ele>
        <time>2015-09-20T11:08:34.833Z</time>
      </trkpt>
      <trkpt lat="45.92656" lon="4.76085">
        <ele>174.300003052</ele>
        <time>2015-09-20T11:08:36.857Z</time>
      </trkpt>
      <trkpt lat="45.92652" lon="4.76082">
        <ele>174.5</ele>
        <time>2015-09-20T11:08:37.817Z</time>
      </trkpt>
      <trkpt lat="45.92644" lon="4.76077">
        <ele>174.5</ele>
        <time>2015-09-20T11:08:39.858Z</time>
      </trkpt>
      <trkpt lat="45.9264" lon="4.76075">
        <ele>174.5</ele>
        <time>2015-09-20T11:08:40.833Z</time>
      </trkpt>
      <trkpt lat="45.92633" lon="4.7607">
        <ele>174.199996948</ele>
        <time>2015-09-20T11:08:42.857Z</time>
      </trkpt>
      <trkpt lat="45.92629" lon="4.76067">
        <ele>174.100006104</ele>
        <time>2015-09-20T11:08:43.834Z</time>
      </trkpt>
      <trkpt lat="45.92622" lon="4.76061">
        <ele>174.699996948</ele>
        <time>2015-09-20T11:08:45.934Z</time>
      </trkpt>
      <trkpt lat="45.92619" lon="4.76058">
        <ele>174.699996948</ele>
        <time>2015-09-20T11:08:46.833Z</time>
      </trkpt>
      <trkpt lat="45.92611" lon="4.76053">
        <ele>174.800003052</ele>
        <time>2015-09-20T11:08:48.857Z</time>
      </trkpt>
      <trkpt lat="45.92607" lon="4.7605">
        <ele>174.899993896</ele>
        <time>2015-09-20T11:08:49.834Z</time>
      </trkpt>
      <trkpt lat="45.92599" lon="4.76045">
        <ele>175.5</ele>
        <time>2015-09-20T11:08:51.858Z</time>
      </trkpt>
      <trkpt lat="45.92596" lon="4.76042">
        <ele>175.399993896</ele>
        <time>2015-09-20T11:08:52.833Z</time>
      </trkpt>
      <trkpt lat="45.92588" lon="4.76037">
        <ele>175.800003052</ele>
        <time>2015-09-20T11:08:54.857Z</time>
      </trkpt>
      <trkpt lat="45.92584" lon="4.76034">
        <ele>175.699996948</ele>
        <time>2015-09-20T11:08:55.833Z</time>
      </trkpt>
      <trkpt lat="45.9258" lon="4.76031">
        <ele>175.699996948</ele>
        <time>2015-09-20T11:08:56.857Z</time>
      </trkpt>
      <trkpt lat="45.92575" lon="4.76029">
        <ele>175.800003052</ele>
        <time>2015-09-20T11:08:57.832Z</time>
      </trkpt>
      <trkpt lat="45.92571" lon="4.76026">
        <ele>175.699996948</ele>
        <time>2015-09-20T11:08:58.873Z</time>
      </trkpt>
      <trkpt lat="45.92567" lon="4.76022">
        <ele>175.699996948</ele>
        <time>2015-09-20T11:08:59.836Z</time>
      </trkpt>
      <trkpt lat="45.92562" lon="4.76019">
        <ele>175.800003052</ele>
        <time>2015-09-20T11:09:00.87Z</time>
      </trkpt>
      <trkpt lat="45.92558" lon="4.76016">
        <ele>176</ele>
        <time>2015-09-20T11:09:01.833Z</time>
      </trkpt>
      <trkpt lat="45.92554" lon="4.76013">
        <ele>175.800003052</ele>
        <time>2015-09-20T11:09:02.857Z</time>
      </trkpt>
      <trkpt lat="45.92549" lon="4.7601">
        <ele>175.899993896</ele>
        <time>2015-09-20T11:09:03.832Z</time>
      </trkpt>
      <trkpt lat="45.92545" lon="4.76007">
        <ele>176.100006104</ele>
        <time>2015-09-20T11:09:04.86Z</time>
      </trkpt>
      <trkpt lat="45.92541" lon="4.76004">
        <ele>176.100006104</ele>
        <time>2015-09-20T11:09:05.835Z</time>
      </trkpt>
      <trkpt lat="45.92536" lon="4.76">
        <ele>176.100006104</ele>
        <time>2015-09-20T11:09:06.856Z</time>
      </trkpt>
      <trkpt lat="45.92532" lon="4.75997">
        <ele>176.100006104</ele>
        <time>2015-09-20T11:09:07.884Z</time>
      </trkpt>
      <trkpt lat="45.92527" lon="4.75994">
        <ele>176.199996948</ele>
        <time>2015-09-20T11:09:08.858Z</time>
      </trkpt>
      <trkpt lat="45.92523" lon="4.75991">
        <ele>176.199996948</ele>
        <time>2015-09-20T11:09:09.832Z</time>
      </trkpt>
      <trkpt lat="45.92519" lon="4.75987">
        <ele>176.199996948</ele>
        <time>2015-09-20T11:09:10.857Z</time>
      </trkpt>
      <trkpt lat="45.92514" lon="4.75984">
        <ele>176.199996948</ele>
        <time>2015-09-20T11:09:11.835Z</time>
      </trkpt>
      <trkpt lat="45.92509" lon="4.75981">
        <ele>176</ele>
        <time>2015-09-20T11:09:12.857Z</time>
      </trkpt>
      <trkpt lat="45.92505" lon="4.75978">
        <ele>175.699996948</ele>
        <time>2015-09-20T11:09:13.833Z</time>
      </trkpt>
      <trkpt lat="45.925" lon="4.75975">
        <ele>175.5</ele>
        <time>2015-09-20T11:09:14.856Z</time>
      </trkpt>
      <trkpt lat="45.92495" lon="4.75972">
        <ele>175.5</ele>
        <time>2015-09-20T11:09:15.833Z</time>
      </trkpt>
      <trkpt lat="45.9249" lon="4.75969">
        <ele>175.5</ele>
        <time>2015-09-20T11:09:16.869Z</time>
      </trkpt>
      <trkpt lat="45.92485" lon="4.75965">
        <ele>175.699996948</ele>
        <time>2015-09-20T11:09:17.835Z</time>
      </trkpt>
      <trkpt lat="45.92481" lon="4.75962">
        <ele>175.600006104</ele>
        <time>2015-09-20T11:09:18.856Z</time>
      </trkpt>
      <trkpt lat="45.92476" lon="4.75958">
        <ele>175.5</ele>
        <time>2015-09-20T11:09:19.834Z</time>
      </trkpt>
      <trkpt lat="45.9247" lon="4.75955">
        <ele>175.399993896</ele>
        <time>2015-09-20T11:09:20.857Z</time>
      </trkpt>
      <trkpt lat="45.92465" lon="4.75951">
        <ele>175</ele>
        <time>2015-09-20T11:09:21.833Z</time>
      </trkpt>
      <trkpt lat="45.92459" lon="4.75947">
        <ele>174.600006104</ele>
        <time>2015-09-20T11:09:22.857Z</time>
      </trkpt>
      <trkpt lat="45.92454" lon="4.75944">
        <ele>174.300003052</ele>
        <time>2015-09-20T11:09:23.836Z</time>
      </trkpt>
      <trkpt lat="45.92448" lon="4.75942">
        <ele>174.199996948</ele>
        <time>2015-09-20T11:09:24.857Z</time>
      </trkpt>
      <trkpt lat="45.92442" lon="4.75938">
        <ele>173.699996948</ele>
        <time>2015-09-20T11:09:25.833Z</time>
      </trkpt>
      <trkpt lat="45.92436" lon="4.75934">
        <ele>173</ele>
        <time>2015-09-20T11:09:26.857Z</time>
      </trkpt>
      <trkpt lat="45.9243" lon="4.7593">
        <ele>172.699996948</ele>
        <time>2015-09-20T11:09:27.832Z</time>
      </trkpt>
      <trkpt lat="45.92424" lon="4.75926">
        <ele>172.5</ele>
        <time>2015-09-20T11:09:28.857Z</time>
      </trkpt>
      <trkpt lat="45.92418" lon="4.75922">
        <ele>172.300003052</ele>
        <time>2015-09-20T11:09:29.836Z</time>
      </trkpt>
      <trkpt lat="45.92412" lon="4.75917">
        <ele>172.100006104</ele>
        <time>2015-09-20T11:09:30.86Z</time>
      </trkpt>
      <trkpt lat="45.92405" lon="4.75912">
        <ele>171.699996948</ele>
        <time>2015-09-20T11:09:31.833Z</time>
      </trkpt>
      <trkpt lat="45.92398" lon="4.75908">
        <ele>171.399993896</ele>
        <time>2015-09-20T11:09:32.871Z</time>
      </trkpt>
      <trkpt lat="45.92392" lon="4.75903">
        <ele>171.300003052</ele>
        <time>2015-09-20T11:09:33.833Z</time>
      </trkpt>
      <trkpt lat="45.92385" lon="4.75898">
        <ele>171.199996948</ele>
        <time>2015-09-20T11:09:34.857Z</time>
      </trkpt>
      <trkpt lat="45.92379" lon="4.75894">
        <ele>171</ele>
        <time>2015-09-20T11:09:35.835Z</time>
      </trkpt>
      <trkpt lat="45.92372" lon="4.75889">
        <ele>171.100006104</ele>
        <time>2015-09-20T11:09:36.857Z</time>
      </trkpt>
      <trkpt lat="45.92365" lon="4.75884">
        <ele>170.899993896</ele>
        <time>2015-09-20T11:09:37.833Z</time>
      </trkpt>
      <trkpt lat="45.92359" lon="4.7588">
        <ele>171</ele>
        <time>2015-09-20T11:09:38.857Z</time>
      </trkpt>
      <trkpt lat="45.92353" lon="4.75876">
        <ele>171</ele>
        <time>2015-09-20T11:09:39.832Z</time>
      </trkpt>
      <trkpt lat="45.92347" lon="4.75872">
        <ele>170.899993896</ele>
        <time>2015-09-20T11:09:40.856Z</time>
      </trkpt>
      <trkpt lat="45.92341" lon="4.75869">
        <ele>171.100006104</ele>
        <time>2015-09-20T11:09:41.836Z</time>
      </trkpt>
      <trkpt lat="45.92335" lon="4.75865">
        <ele>171.199996948</ele>
        <time>2015-09-20T11:09:42.857Z</time>
      </trkpt>
      <trkpt lat="45.92329" lon="4.75861">
        <ele>171.300003052</ele>
        <time>2015-09-20T11:09:43.833Z</time>
      </trkpt>
      <trkpt lat="45.92323" lon="4.75857">
        <ele>171.5</ele>
        <time>2015-09-20T11:09:44.857Z</time>
      </trkpt>
      <trkpt lat="45.92317" lon="4.75854">
        <ele>171.600006104</ele>
        <time>2015-09-20T11:09:45.833Z</time>
      </trkpt>
      <trkpt lat="45.92312" lon="4.7585">
        <ele>171.399993896</ele>
        <time>2015-09-20T11:09:46.857Z</time>
      </trkpt>
      <trkpt lat="45.92306" lon="4.75846">
        <ele>171.600006104</ele>
        <time>2015-09-20T11:09:47.835Z</time>
      </trkpt>
      <trkpt lat="45.92301" lon="4.75843">
        <ele>172.5</ele>
        <time>2015-09-20T11:09:48.87Z</time>
      </trkpt>
      <trkpt lat="45.92296" lon="4.7584">
        <ele>172.699996948</ele>
        <time>2015-09-20T11:09:49.834Z</time>
      </trkpt>
      <trkpt lat="45.92291" lon="4.75836">
        <ele>173.199996948</ele>
        <time>2015-09-20T11:09:50.857Z</time>
      </trkpt>
      <trkpt lat="45.92286" lon="4.75832">
        <ele>173.100006104</ele>
        <time>2015-09-20T11:09:51.832Z</time>
      </trkpt>
      <trkpt lat="45.92282" lon="4.75829">
        <ele>172.899993896</ele>
        <time>2015-09-20T11:09:52.884Z</time>
      </trkpt>
      <trkpt lat="45.92278" lon="4.75825">
        <ele>173.399993896</ele>
        <time>2015-09-20T11:09:53.835Z</time>
      </trkpt>
      <trkpt lat="45.92274" lon="4.7582">
        <ele>173.600006104</ele>
        <time>2015-09-20T11:09:54.856Z</time>
      </trkpt>
      <trkpt lat="45.92271" lon="4.75815">
        <ele>173.699996948</ele>
        <time>2015-09-20T11:09:55.833Z</time>
      </trkpt>
      <trkpt lat="45.92268" lon="4.75809">
        <ele>174.300003052</ele>
        <time>2015-09-20T11:09:56.86Z</time>
      </trkpt>
      <trkpt lat="45.92265" lon="4.75803">
        <ele>174.699996948</ele>
        <time>2015-09-20T11:09:57.831Z</time>
      </trkpt>
      <trkpt lat="45.92263" lon="4.75796">
        <ele>174.899993896</ele>
        <time>2015-09-20T11:09:58.857Z</time>
      </trkpt>
      <trkpt lat="45.92262" lon="4.7579">
        <ele>175</ele>
        <time>2015-09-20T11:09:59.835Z</time>
      </trkpt>
      <trkpt lat="45.9226" lon="4.75782">
        <ele>175.100006104</ele>
        <time>2015-09-20T11:10:00.856Z</time>
      </trkpt>
      <trkpt lat="45.92259" lon="4.75775">
        <ele>175.300003052</ele>
        <time>2015-09-20T11:10:01.833Z</time>
      </trkpt>
      <trkpt lat="45.92257" lon="4.75768">
        <ele>175.199996948</ele>
        <time>2015-09-20T11:10:02.858Z</time>
      </trkpt>
      <trkpt lat="45.92255" lon="4.7576">
        <ele>175.300003052</ele>
        <time>2015-09-20T11:10:03.832Z</time>
      </trkpt>
      <trkpt lat="45.92254" lon="4.75752">
        <ele>175.100006104</ele>
        <time>2015-09-20T11:10:04.87Z</time>
      </trkpt>
      <trkpt lat="45.92252" lon="4.75744">
        <ele>175.300003052</ele>
        <time>2015-09-20T11:10:05.837Z</time>
      </trkpt>
      <trkpt lat="45.92251" lon="4.75735">
        <ele>175.5</ele>
        <time>2015-09-20T11:10:06.858Z</time>
      </trkpt>
      <trkpt lat="45.92249" lon="4.75727">
        <ele>175.800003052</ele>
        <time>2015-09-20T11:10:07.839Z</time>
      </trkpt>
      <trkpt lat="45.92246" lon="4.75719">
        <ele>175.800003052</ele>
        <time>2015-09-20T11:10:08.858Z</time>
      </trkpt>
      <trkpt lat="45.92242" lon="4.75711">
        <ele>176</ele>
        <time>2015-09-20T11:10:09.834Z</time>
      </trkpt>
      <trkpt lat="45.92238" lon="4.75705">
        <ele>175.899993896</ele>
        <time>2015-09-20T11:10:10.857Z</time>
      </trkpt>
      <trkpt lat="45.92234" lon="4.75699">
        <ele>175.800003052</ele>
        <time>2015-09-20T11:10:11.835Z</time>
      </trkpt>
      <trkpt lat="45.92229" lon="4.75694">
        <ele>175.600006104</ele>
        <time>2015-09-20T11:10:12.856Z</time>
      </trkpt>
      <trkpt lat="45.92224" lon="4.75689">
        <ele>175.800003052</ele>
        <time>2015-09-20T11:10:13.833Z</time>
      </trkpt>
      <trkpt lat="45.92219" lon="4.75684">
        <ele>176</ele>
        <time>2015-09-20T11:10:14.857Z</time>
      </trkpt>
      <trkpt lat="45.92214" lon="4.75679">
        <ele>175.399993896</ele>
        <time>2015-09-20T11:10:15.832Z</time>
      </trkpt>
      <trkpt lat="45.92209" lon="4.75674">
        <ele>175.300003052</ele>
        <time>2015-09-20T11:10:16.857Z</time>
      </trkpt>
      <trkpt lat="45.92204" lon="4.75668">
        <ele>175.300003052</ele>
        <time>2015-09-20T11:10:17.835Z</time>
      </trkpt>
      <trkpt lat="45.92198" lon="4.75663">
        <ele>175.300003052</ele>
        <time>2015-09-20T11:10:18.858Z</time>
      </trkpt>
      <trkpt lat="45.92193" lon="4.75658">
        <ele>175.399993896</ele>
        <time>2015-09-20T11:10:19.833Z</time>
      </trkpt>
      <trkpt lat="45.92188" lon="4.75652">
        <ele>175.399993896</ele>
        <time>2015-09-20T11:10:20.87Z</time>
      </trkpt>
      <trkpt lat="45.92182" lon="4.75647">
        <ele>175.399993896</ele>
        <time>2015-09-20T11:10:21.832Z</time>
      </trkpt>
      <trkpt lat="45.92177" lon="4.75642">
        <ele>175.300003052</ele>
        <time>2015-09-20T11:10:22.86Z</time>
      </trkpt>
      <trkpt lat="45.92172" lon="4.75637">
        <ele>174.899993896</ele>
        <time>2015-09-20T11:10:23.835Z</time>
      </trkpt>
      <trkpt lat="45.92167" lon="4.75631">
        <ele>174.5</ele>
        <time>2015-09-20T11:10:24.877Z</time>
      </trkpt>
      <trkpt lat="45.92162" lon="4.75626">
        <ele>174.399993896</ele>
        <time>2015-09-20T11:10:25.835Z</time>
      </trkpt>
      <trkpt lat="45.92156" lon="4.75621">
        <ele>174.300003052</ele>
        <time>2015-09-20T11:10:26.886Z</time>
      </trkpt>
      <trkpt lat="45.92151" lon="4.75616">
        <ele>174.399993896</ele>
        <time>2015-09-20T11:10:27.833Z</time>
      </trkpt>
      <trkpt lat="45.92147" lon="4.75611">
        <ele>174.300003052</ele>
        <time>2015-09-20T11:10:28.858Z</time>
      </trkpt>
      <trkpt lat="45.92142" lon="4.75607">
        <ele>174.199996948</ele>
        <time>2015-09-20T11:10:29.836Z</time>
      </trkpt>
      <trkpt lat="45.92138" lon="4.75602">
        <ele>174</ele>
        <time>2015-09-20T11:10:30.858Z</time>
      </trkpt>
      <trkpt lat="45.92133" lon="4.75597">
        <ele>173.600006104</ele>
        <time>2015-09-20T11:10:31.833Z</time>
      </trkpt>
      <trkpt lat="45.92129" lon="4.75593">
        <ele>173.399993896</ele>
        <time>2015-09-20T11:10:32.884Z</time>
      </trkpt>
      <trkpt lat="45.92124" lon="4.75588">
        <ele>173.199996948</ele>
        <time>2015-09-20T11:10:33.832Z</time>
      </trkpt>
      <trkpt lat="45.92121" lon="4.75582">
        <ele>173.699996948</ele>
        <time>2015-09-20T11:10:34.858Z</time>
      </trkpt>
      <trkpt lat="45.92119" lon="4.75576">
        <ele>173.600006104</ele>
        <time>2015-09-20T11:10:35.836Z</time>
      </trkpt>
      <trkpt lat="45.92119" lon="4.75564">
        <ele>173.899993896</ele>
        <time>2015-09-20T11:10:37.867Z</time>
      </trkpt>
      <trkpt lat="45.92121" lon="4.75559">
        <ele>174.199996948</ele>
        <time>2015-09-20T11:10:38.833Z</time>
      </trkpt>
      <trkpt lat="45.92124" lon="4.75554">
        <ele>174.5</ele>
        <time>2015-09-20T11:10:39.866Z</time>
      </trkpt>
      <trkpt lat="45.92126" lon="4.75549">
        <ele>174.600006104</ele>
        <time>2015-09-20T11:10:40.832Z</time>
      </trkpt>
      <trkpt lat="45.92129" lon="4.75543">
        <ele>174.800003052</ele>
        <time>2015-09-20T11:10:41.861Z</time>
      </trkpt>
      <trkpt lat="45.92132" lon="4.75537">
        <ele>175</ele>
        <time>2015-09-20T11:10:42.832Z</time>
      </trkpt>
      <trkpt lat="45.92135" lon="4.75531">
        <ele>174.899993896</ele>
        <time>2015-09-20T11:10:43.896Z</time>
      </trkpt>
      <trkpt lat="45.92138" lon="4.75526">
        <ele>174.899993896</ele>
        <time>2015-09-20T11:10:44.832Z</time>
      </trkpt>
      <trkpt lat="45.92141" lon="4.7552">
        <ele>174.899993896</ele>
        <time>2015-09-20T11:10:45.858Z</time>
      </trkpt>
      <trkpt lat="45.92144" lon="4.75513">
        <ele>175</ele>
        <time>2015-09-20T11:10:46.833Z</time>
      </trkpt>
      <trkpt lat="45.92146" lon="4.75507">
        <ele>175</ele>
        <time>2015-09-20T11:10:47.861Z</time>
      </trkpt>
      <trkpt lat="45.92149" lon="4.755">
        <ele>175.300003052</ele>
        <time>2015-09-20T11:10:48.836Z</time>
      </trkpt>
      <trkpt lat="45.92152" lon="4.75493">
        <ele>175.5</ele>
        <time>2015-09-20T11:10:49.86Z</time>
      </trkpt>
      <trkpt lat="45.92155" lon="4.75486">
        <ele>175.899993896</ele>
        <time>2015-09-20T11:10:50.833Z</time>
      </trkpt>
      <trkpt lat="45.92158" lon="4.75479">
        <ele>176.199996948</ele>
        <time>2015-09-20T11:10:51.857Z</time>
      </trkpt>
      <trkpt lat="45.92161" lon="4.75472">
        <ele>176.399993896</ele>
        <time>2015-09-20T11:10:52.833Z</time>
      </trkpt>
      <trkpt lat="45.92164" lon="4.75465">
        <ele>176.600006104</ele>
        <time>2015-09-20T11:10:53.86Z</time>
      </trkpt>
      <trkpt lat="45.92167" lon="4.75458">
        <ele>176.800003052</ele>
        <time>2015-09-20T11:10:54.833Z</time>
      </trkpt>
      <trkpt lat="45.92169" lon="4.75451">
        <ele>177.100006104</ele>
        <time>2015-09-20T11:10:55.857Z</time>
      </trkpt>
      <trkpt lat="45.92172" lon="4.75444">
        <ele>177.399993896</ele>
        <time>2015-09-20T11:10:56.832Z</time>
      </trkpt>
      <trkpt lat="45.92175" lon="4.75436">
        <ele>177.600006104</ele>
        <time>2015-09-20T11:10:57.884Z</time>
      </trkpt>
      <trkpt lat="45.92178" lon="4.75429">
        <ele>177.800003052</ele>
        <time>2015-09-20T11:10:58.835Z</time>
      </trkpt>
      <trkpt lat="45.92181" lon="4.75422">
        <ele>178.100006104</ele>
        <time>2015-09-20T11:10:59.864Z</time>
      </trkpt>
      <trkpt lat="45.92183" lon="4.75415">
        <ele>178.399993896</ele>
        <time>2015-09-20T11:11:00.833Z</time>
      </trkpt>
      <trkpt lat="45.92186" lon="4.75408">
        <ele>178.5</ele>
        <time>2015-09-20T11:11:01.859Z</time>
      </trkpt>
      <trkpt lat="45.92188" lon="4.75401">
        <ele>178.600006104</ele>
        <time>2015-09-20T11:11:02.848Z</time>
      </trkpt>
      <trkpt lat="45.92191" lon="4.75394">
        <ele>178.800003052</ele>
        <time>2015-09-20T11:11:03.858Z</time>
      </trkpt>
      <trkpt lat="45.92194" lon="4.75388">
        <ele>179</ele>
        <time>2015-09-20T11:11:04.833Z</time>
      </trkpt>
      <trkpt lat="45.92197" lon="4.7538">
        <ele>179.100006104</ele>
        <time>2015-09-20T11:11:05.861Z</time>
      </trkpt>
      <trkpt lat="45.922" lon="4.75373">
        <ele>179.300003052</ele>
        <time>2015-09-20T11:11:06.833Z</time>
      </trkpt>
      <trkpt lat="45.92202" lon="4.75365">
        <ele>179.399993896</ele>
        <time>2015-09-20T11:11:07.954Z</time>
      </trkpt>
      <trkpt lat="45.92204" lon="4.75357">
        <ele>179.399993896</ele>
        <time>2015-09-20T11:11:08.832Z</time>
      </trkpt>
      <trkpt lat="45.92207" lon="4.75349">
        <ele>179.5</ele>
        <time>2015-09-20T11:11:09.86Z</time>
      </trkpt>
      <trkpt lat="45.92209" lon="4.75341">
        <ele>179.899993896</ele>
        <time>2015-09-20T11:11:10.832Z</time>
      </trkpt>
      <trkpt lat="45.9221" lon="4.75333">
        <ele>179.199996948</ele>
        <time>2015-09-20T11:11:11.859Z</time>
      </trkpt>
      <trkpt lat="45.92212" lon="4.75324">
        <ele>178.600006104</ele>
        <time>2015-09-20T11:11:12.833Z</time>
      </trkpt>
      <trkpt lat="45.92213" lon="4.75315">
        <ele>178.100006104</ele>
        <time>2015-09-20T11:11:13.858Z</time>
      </trkpt>
      <trkpt lat="45.92214" lon="4.75306">
        <ele>177.399993896</ele>
        <time>2015-09-20T11:11:14.833Z</time>
      </trkpt>
      <trkpt lat="45.92214" lon="4.75297">
        <ele>177.100006104</ele>
        <time>2015-09-20T11:11:15.857Z</time>
      </trkpt>
      <trkpt lat="45.92214" lon="4.75288">
        <ele>176.300003052</ele>
        <time>2015-09-20T11:11:16.832Z</time>
      </trkpt>
      <trkpt lat="45.92215" lon="4.75279">
        <ele>176.100006104</ele>
        <time>2015-09-20T11:11:17.894Z</time>
      </trkpt>
      <trkpt lat="45.92214" lon="4.7527">
        <ele>175.5</ele>
        <time>2015-09-20T11:11:18.848Z</time>
      </trkpt>
      <trkpt lat="45.92214" lon="4.75261">
        <ele>175</ele>
        <time>2015-09-20T11:11:19.858Z</time>
      </trkpt>
      <trkpt lat="45.92215" lon="4.75252">
        <ele>174.600006104</ele>
        <time>2015-09-20T11:11:20.833Z</time>
      </trkpt>
      <trkpt lat="45.92215" lon="4.75244">
        <ele>174.399993896</ele>
        <time>2015-09-20T11:11:21.857Z</time>
      </trkpt>
      <trkpt lat="45.92216" lon="4.75234">
        <ele>174.199996948</ele>
        <time>2015-09-20T11:11:22.832Z</time>
      </trkpt>
      <trkpt lat="45.92217" lon="4.75225">
        <ele>174.199996948</ele>
        <time>2015-09-20T11:11:23.86Z</time>
      </trkpt>
      <trkpt lat="45.92218" lon="4.75215">
        <ele>174</ele>
        <time>2015-09-20T11:11:24.832Z</time>
      </trkpt>
      <trkpt lat="45.92219" lon="4.75205">
        <ele>174</ele>
        <time>2015-09-20T11:11:25.857Z</time>
      </trkpt>
      <trkpt lat="45.92222" lon="4.75196">
        <ele>173.600006104</ele>
        <time>2015-09-20T11:11:26.872Z</time>
      </trkpt>
      <trkpt lat="45.92224" lon="4.75186">
        <ele>173.300003052</ele>
        <time>2015-09-20T11:11:27.894Z</time>
      </trkpt>
      <trkpt lat="45.92227" lon="4.75177">
        <ele>173.199996948</ele>
        <time>2015-09-20T11:11:28.832Z</time>
      </trkpt>
      <trkpt lat="45.92231" lon="4.75168">
        <ele>173.100006104</ele>
        <time>2015-09-20T11:11:29.86Z</time>
      </trkpt>
      <trkpt lat="45.92235" lon="4.7516">
        <ele>173.100006104</ele>
        <time>2015-09-20T11:11:30.832Z</time>
      </trkpt>
      <trkpt lat="45.92239" lon="4.75151">
        <ele>173.100006104</ele>
        <time>2015-09-20T11:11:31.857Z</time>
      </trkpt>
      <trkpt lat="45.92243" lon="4.75143">
        <ele>173.300003052</ele>
        <time>2015-09-20T11:11:32.832Z</time>
      </trkpt>
      <trkpt lat="45.92248" lon="4.75136">
        <ele>173.600006104</ele>
        <time>2015-09-20T11:11:33.856Z</time>
      </trkpt>
      <trkpt lat="45.92252" lon="4.75129">
        <ele>173.5</ele>
        <time>2015-09-20T11:11:34.833Z</time>
      </trkpt>
      <trkpt lat="45.92258" lon="4.75124">
        <ele>173.5</ele>
        <time>2015-09-20T11:11:35.863Z</time>
      </trkpt>
      <trkpt lat="45.92263" lon="4.75118">
        <ele>173.5</ele>
        <time>2015-09-20T11:11:36.831Z</time>
      </trkpt>
      <trkpt lat="45.92268" lon="4.75113">
        <ele>173.5</ele>
        <time>2015-09-20T11:11:37.857Z</time>
      </trkpt>
      <trkpt lat="45.92273" lon="4.75108">
        <ele>173.699996948</ele>
        <time>2015-09-20T11:11:38.832Z</time>
      </trkpt>
      <trkpt lat="45.92279" lon="4.75102">
        <ele>173.600006104</ele>
        <time>2015-09-20T11:11:39.869Z</time>
      </trkpt>
      <trkpt lat="45.92284" lon="4.75097">
        <ele>173.600006104</ele>
        <time>2015-09-20T11:11:40.833Z</time>
      </trkpt>
      <trkpt lat="45.92288" lon="4.75091">
        <ele>173.699996948</ele>
        <time>2015-09-20T11:11:41.859Z</time>
      </trkpt>
      <trkpt lat="45.92294" lon="4.75086">
        <ele>173.800003052</ele>
        <time>2015-09-20T11:11:42.832Z</time>
      </trkpt>
      <trkpt lat="45.92299" lon="4.7508">
        <ele>174</ele>
        <time>2015-09-20T11:11:43.859Z</time>
      </trkpt>
      <trkpt lat="45.92304" lon="4.75074">
        <ele>174.199996948</ele>
        <time>2015-09-20T11:11:44.831Z</time>
      </trkpt>
      <trkpt lat="45.92309" lon="4.75068">
        <ele>174.699996948</ele>
        <time>2015-09-20T11:11:45.856Z</time>
      </trkpt>
      <trkpt lat="45.92313" lon="4.75062">
        <ele>174.899993896</ele>
        <time>2015-09-20T11:11:46.832Z</time>
      </trkpt>
      <trkpt lat="45.92318" lon="4.75054">
        <ele>175</ele>
        <time>2015-09-20T11:11:47.859Z</time>
      </trkpt>
      <trkpt lat="45.92323" lon="4.75047">
        <ele>175.199996948</ele>
        <time>2015-09-20T11:11:48.832Z</time>
      </trkpt>
      <trkpt lat="45.92328" lon="4.7504">
        <ele>175.300003052</ele>
        <time>2015-09-20T11:11:49.858Z</time>
      </trkpt>
      <trkpt lat="45.92332" lon="4.75032">
        <ele>175.300003052</ele>
        <time>2015-09-20T11:11:50.833Z</time>
      </trkpt>
      <trkpt lat="45.92336" lon="4.75025">
        <ele>175.100006104</ele>
        <time>2015-09-20T11:11:51.856Z</time>
      </trkpt>
      <trkpt lat="45.9234" lon="4.75017">
        <ele>175</ele>
        <time>2015-09-20T11:11:52.832Z</time>
      </trkpt>
      <trkpt lat="45.92344" lon="4.75009">
        <ele>174.899993896</ele>
        <time>2015-09-20T11:11:53.859Z</time>
      </trkpt>
      <trkpt lat="45.92347" lon="4.75002">
        <ele>174.699996948</ele>
        <time>2015-09-20T11:11:54.832Z</time>
      </trkpt>
      <trkpt lat="45.9235" lon="4.74993">
        <ele>174.800003052</ele>
        <time>2015-09-20T11:11:55.871Z</time>
      </trkpt>
      <trkpt lat="45.92354" lon="4.74985">
        <ele>174.800003052</ele>
        <time>2015-09-20T11:11:56.831Z</time>
      </trkpt>
      <trkpt lat="45.92357" lon="4.74977">
        <ele>174.899993896</ele>
        <time>2015-09-20T11:11:57.856Z</time>
      </trkpt>
      <trkpt lat="45.9236" lon="4.74969">
        <ele>175</ele>
        <time>2015-09-20T11:11:58.832Z</time>
      </trkpt>
      <trkpt lat="45.92364" lon="4.7496">
        <ele>175</ele>
        <time>2015-09-20T11:11:59.859Z</time>
      </trkpt>
      <trkpt lat="45.92366" lon="4.74953">
        <ele>175.100006104</ele>
        <time>2015-09-20T11:12:00.832Z</time>
      </trkpt>
      <trkpt lat="45.92369" lon="4.74945">
        <ele>174.600006104</ele>
        <time>2015-09-20T11:12:01.861Z</time>
      </trkpt>
      <trkpt lat="45.92372" lon="4.74937">
        <ele>174.899993896</ele>
        <time>2015-09-20T11:12:02.832Z</time>
      </trkpt>
      <trkpt lat="45.92375" lon="4.7493">
        <ele>175.100006104</ele>
        <time>2015-09-20T11:12:03.856Z</time>
      </trkpt>
      <trkpt lat="45.92378" lon="4.74923">
        <ele>175.300003052</ele>
        <time>2015-09-20T11:12:04.831Z</time>
      </trkpt>
      <trkpt lat="45.92382" lon="4.74915">
        <ele>175.399993896</ele>
        <time>2015-09-20T11:12:05.859Z</time>
      </trkpt>
      <trkpt lat="45.92385" lon="4.74908">
        <ele>175.699996948</ele>
        <time>2015-09-20T11:12:06.832Z</time>
      </trkpt>
      <trkpt lat="45.92387" lon="4.749">
        <ele>175.800003052</ele>
        <time>2015-09-20T11:12:07.934Z</time>
      </trkpt>
      <trkpt lat="45.9239" lon="4.74894">
        <ele>175.899993896</ele>
        <time>2015-09-20T11:12:08.832Z</time>
      </trkpt>
      <trkpt lat="45.92392" lon="4.74886">
        <ele>175.899993896</ele>
        <time>2015-09-20T11:12:09.867Z</time>
      </trkpt>
      <trkpt lat="45.92395" lon="4.74879">
        <ele>175.699996948</ele>
        <time>2015-09-20T11:12:10.832Z</time>
      </trkpt>
      <trkpt lat="45.92398" lon="4.74871">
        <ele>175.699996948</ele>
        <time>2015-09-20T11:12:11.894Z</time>
      </trkpt>
      <trkpt lat="45.924" lon="4.74863">
        <ele>175.899993896</ele>
        <time>2015-09-20T11:12:12.832Z</time>
      </trkpt>
      <trkpt lat="45.92402" lon="4.74855">
        <ele>176</ele>
        <time>2015-09-20T11:12:13.858Z</time>
      </trkpt>
      <trkpt lat="45.92405" lon="4.74847">
        <ele>176</ele>
        <time>2015-09-20T11:12:14.831Z</time>
      </trkpt>
      <trkpt lat="45.92407" lon="4.74839">
        <ele>176</ele>
        <time>2015-09-20T11:12:15.856Z</time>
      </trkpt>
      <trkpt lat="45.92409" lon="4.74832">
        <ele>176.199996948</ele>
        <time>2015-09-20T11:12:16.831Z</time>
      </trkpt>
      <trkpt lat="45.9241" lon="4.74824">
        <ele>176.300003052</ele>
        <time>2015-09-20T11:12:17.894Z</time>
      </trkpt>
      <trkpt lat="45.92412" lon="4.74816">
        <ele>176.100006104</ele>
        <time>2015-09-20T11:12:18.832Z</time>
      </trkpt>
      <trkpt lat="45.92414" lon="4.74808">
        <ele>176.199996948</ele>
        <time>2015-09-20T11:12:19.857Z</time>
      </trkpt>
      <trkpt lat="45.92415" lon="4.748">
        <ele>176.199996948</ele>
        <time>2015-09-20T11:12:20.832Z</time>
      </trkpt>
      <trkpt lat="45.92417" lon="4.74791">
        <ele>176</ele>
        <time>2015-09-20T11:12:21.856Z</time>
      </trkpt>
      <trkpt lat="45.92419" lon="4.74783">
        <ele>175.600006104</ele>
        <time>2015-09-20T11:12:22.832Z</time>
      </trkpt>
      <trkpt lat="45.92421" lon="4.74775">
        <ele>174.800003052</ele>
        <time>2015-09-20T11:12:23.859Z</time>
      </trkpt>
      <trkpt lat="45.92423" lon="4.74766">
        <ele>174.399993896</ele>
        <time>2015-09-20T11:12:24.831Z</time>
      </trkpt>
      <trkpt lat="45.92425" lon="4.74758">
        <ele>174.100006104</ele>
        <time>2015-09-20T11:12:25.857Z</time>
      </trkpt>
      <trkpt lat="45.92428" lon="4.7475">
        <ele>174</ele>
        <time>2015-09-20T11:12:26.832Z</time>
      </trkpt>
      <trkpt lat="45.92431" lon="4.74742">
        <ele>174</ele>
        <time>2015-09-20T11:12:27.914Z</time>
      </trkpt>
      <trkpt lat="45.92433" lon="4.74734">
        <ele>173.899993896</ele>
        <time>2015-09-20T11:12:28.832Z</time>
      </trkpt>
      <trkpt lat="45.92436" lon="4.74726">
        <ele>174</ele>
        <time>2015-09-20T11:12:29.867Z</time>
      </trkpt>
      <trkpt lat="45.92438" lon="4.74718">
        <ele>174.100006104</ele>
        <time>2015-09-20T11:12:30.832Z</time>
      </trkpt>
      <trkpt lat="45.92441" lon="4.74711">
        <ele>174.199996948</ele>
        <time>2015-09-20T11:12:31.857Z</time>
      </trkpt>
      <trkpt lat="45.92444" lon="4.74703">
        <ele>174.5</ele>
        <time>2015-09-20T11:12:32.832Z</time>
      </trkpt>
      <trkpt lat="45.92447" lon="4.74696">
        <ele>174.600006104</ele>
        <time>2015-09-20T11:12:33.884Z</time>
      </trkpt>
      <trkpt lat="45.92451" lon="4.74688">
        <ele>174.800003052</ele>
        <time>2015-09-20T11:12:34.832Z</time>
      </trkpt>
      <trkpt lat="45.92454" lon="4.7468">
        <ele>174.800003052</ele>
        <time>2015-09-20T11:12:35.859Z</time>
      </trkpt>
      <trkpt lat="45.92458" lon="4.74673">
        <ele>174.699996948</ele>
        <time>2015-09-20T11:12:36.832Z</time>
      </trkpt>
      <trkpt lat="45.92462" lon="4.74665">
        <ele>174.300003052</ele>
        <time>2015-09-20T11:12:37.859Z</time>
      </trkpt>
      <trkpt lat="45.92466" lon="4.74658">
        <ele>174.199996948</ele>
        <time>2015-09-20T11:12:38.833Z</time>
      </trkpt>
      <trkpt lat="45.9247" lon="4.74652">
        <ele>174.199996948</ele>
        <time>2015-09-20T11:12:39.857Z</time>
      </trkpt>
      <trkpt lat="45.92474" lon="4.74645">
        <ele>174.199996948</ele>
        <time>2015-09-20T11:12:40.832Z</time>
      </trkpt>
      <trkpt lat="45.92479" lon="4.74639">
        <ele>174.100006104</ele>
        <time>2015-09-20T11:12:41.86Z</time>
      </trkpt>
      <trkpt lat="45.92482" lon="4.74632">
        <ele>174.399993896</ele>
        <time>2015-09-20T11:12:42.832Z</time>
      </trkpt>
      <trkpt lat="45.92486" lon="4.74626">
        <ele>174.100006104</ele>
        <time>2015-09-20T11:12:43.87Z</time>
      </trkpt>
      <trkpt lat="45.9249" lon="4.7462">
        <ele>174</ele>
        <time>2015-09-20T11:12:44.831Z</time>
      </trkpt>
      <trkpt lat="45.92494" lon="4.74614">
        <ele>174</ele>
        <time>2015-09-20T11:12:45.856Z</time>
      </trkpt>
      <trkpt lat="45.92499" lon="4.74609">
        <ele>174.100006104</ele>
        <time>2015-09-20T11:12:46.831Z</time>
      </trkpt>
      <trkpt lat="45.92504" lon="4.74604">
        <ele>174.199996948</ele>
        <time>2015-09-20T11:12:47.859Z</time>
      </trkpt>
      <trkpt lat="45.92509" lon="4.74599">
        <ele>174.399993896</ele>
        <time>2015-09-20T11:12:48.832Z</time>
      </trkpt>
      <trkpt lat="45.92513" lon="4.74594">
        <ele>174.5</ele>
        <time>2015-09-20T11:12:49.893Z</time>
      </trkpt>
      <trkpt lat="45.92518" lon="4.7459">
        <ele>174.699996948</ele>
        <time>2015-09-20T11:12:50.832Z</time>
      </trkpt>
      <trkpt lat="45.92522" lon="4.74584">
        <ele>174.699996948</ele>
        <time>2015-09-20T11:12:51.856Z</time>
      </trkpt>
      <trkpt lat="45.92527" lon="4.74579">
        <ele>174.699996948</ele>
        <time>2015-09-20T11:12:52.832Z</time>
      </trkpt>
      <trkpt lat="45.92531" lon="4.74573">
        <ele>174.800003052</ele>
        <time>2015-09-20T11:12:53.902Z</time>
      </trkpt>
      <trkpt lat="45.92535" lon="4.74568">
        <ele>174.399993896</ele>
        <time>2015-09-20T11:12:54.832Z</time>
      </trkpt>
      <trkpt lat="45.9254" lon="4.74562">
        <ele>173.899993896</ele>
        <time>2015-09-20T11:12:55.857Z</time>
      </trkpt>
      <trkpt lat="45.92544" lon="4.74555">
        <ele>173.699996948</ele>
        <time>2015-09-20T11:12:56.831Z</time>
      </trkpt>
      <trkpt lat="45.92548" lon="4.74549">
        <ele>173.699996948</ele>
        <time>2015-09-20T11:12:57.856Z</time>
      </trkpt>
      <trkpt lat="45.92552" lon="4.74542">
        <ele>173.5</ele>
        <time>2015-09-20T11:12:58.832Z</time>
      </trkpt>
      <trkpt lat="45.92556" lon="4.74535">
        <ele>173.5</ele>
        <time>2015-09-20T11:12:59.872Z</time>
      </trkpt>
      <trkpt lat="45.9256" lon="4.74529">
        <ele>173.399993896</ele>
        <time>2015-09-20T11:13:00.832Z</time>
      </trkpt>
      <trkpt lat="45.92563" lon="4.74523">
        <ele>173.199996948</ele>
        <time>2015-09-20T11:13:01.858Z</time>
      </trkpt>
      <trkpt lat="45.92566" lon="4.74516">
        <ele>173.199996948</ele>
        <time>2015-09-20T11:13:02.831Z</time>
      </trkpt>
      <trkpt lat="45.92569" lon="4.7451">
        <ele>172.800003052</ele>
        <time>2015-09-20T11:13:03.856Z</time>
      </trkpt>
      <trkpt lat="45.92572" lon="4.74504">
        <ele>173.100006104</ele>
        <time>2015-09-20T11:13:04.831Z</time>
      </trkpt>
      <trkpt lat="45.92576" lon="4.74497">
        <ele>173.300003052</ele>
        <time>2015-09-20T11:13:05.859Z</time>
      </trkpt>
      <trkpt lat="45.9258" lon="4.74491">
        <ele>173.5</ele>
        <time>2015-09-20T11:13:06.831Z</time>
      </trkpt>
      <trkpt lat="45.92583" lon="4.74485">
        <ele>173.600006104</ele>
        <time>2015-09-20T11:13:07.924Z</time>
      </trkpt>
      <trkpt lat="45.92586" lon="4.74478">
        <ele>173.699996948</ele>
        <time>2015-09-20T11:13:08.832Z</time>
      </trkpt>
      <trkpt lat="45.92589" lon="4.74472">
        <ele>173.600006104</ele>
        <time>2015-09-20T11:13:09.889Z</time>
      </trkpt>
      <trkpt lat="45.92593" lon="4.74466">
        <ele>173.899993896</ele>
        <time>2015-09-20T11:13:10.832Z</time>
      </trkpt>
      <trkpt lat="45.92596" lon="4.7446">
        <ele>173.899993896</ele>
        <time>2015-09-20T11:13:11.86Z</time>
      </trkpt>
      <trkpt lat="45.926" lon="4.74454">
        <ele>174.300003052</ele>
        <time>2015-09-20T11:13:12.831Z</time>
      </trkpt>
      <trkpt lat="45.92603" lon="4.74448">
        <ele>174.300003052</ele>
        <time>2015-09-20T11:13:13.884Z</time>
      </trkpt>
      <trkpt lat="45.92607" lon="4.74441">
        <ele>174.800003052</ele>
        <time>2015-09-20T11:13:14.831Z</time>
      </trkpt>
      <trkpt lat="45.9261" lon="4.74435">
        <ele>174.800003052</ele>
        <time>2015-09-20T11:13:15.882Z</time>
      </trkpt>
      <trkpt lat="45.92614" lon="4.74429">
        <ele>174.600006104</ele>
        <time>2015-09-20T11:13:16.831Z</time>
      </trkpt>
      <trkpt lat="45.92617" lon="4.74422">
        <ele>174.5</ele>
        <time>2015-09-20T11:13:17.914Z</time>
      </trkpt>
      <trkpt lat="45.92621" lon="4.74416">
        <ele>174.5</ele>
        <time>2015-09-20T11:13:18.832Z</time>
      </trkpt>
      <trkpt lat="45.92624" lon="4.7441">
        <ele>174.600006104</ele>
        <time>2015-09-20T11:13:19.857Z</time>
      </trkpt>
      <trkpt lat="45.92627" lon="4.74404">
        <ele>174.300003052</ele>
        <time>2015-09-20T11:13:20.831Z</time>
      </trkpt>
      <trkpt lat="45.9263" lon="4.74398">
        <ele>174.199996948</ele>
        <time>2015-09-20T11:13:21.857Z</time>
      </trkpt>
      <trkpt lat="45.92633" lon="4.74392">
        <ele>173.800003052</ele>
        <time>2015-09-20T11:13:22.832Z</time>
      </trkpt>
      <trkpt lat="45.92636" lon="4.74386">
        <ele>173.399993896</ele>
        <time>2015-09-20T11:13:23.859Z</time>
      </trkpt>
      <trkpt lat="45.9264" lon="4.7438">
        <ele>173.300003052</ele>
        <time>2015-09-20T11:13:24.872Z</time>
      </trkpt>
      <trkpt lat="45.92643" lon="4.74374">
        <ele>173.300003052</ele>
        <time>2015-09-20T11:13:25.858Z</time>
      </trkpt>
      <trkpt lat="45.92646" lon="4.74368">
        <ele>173.100006104</ele>
        <time>2015-09-20T11:13:26.831Z</time>
      </trkpt>
      <trkpt lat="45.92649" lon="4.74362">
        <ele>173.100006104</ele>
        <time>2015-09-20T11:13:27.884Z</time>
      </trkpt>
      <trkpt lat="45.92652" lon="4.74356">
        <ele>173.199996948</ele>
        <time>2015-09-20T11:13:28.832Z</time>
      </trkpt>
      <trkpt lat="45.92656" lon="4.7435">
        <ele>173.5</ele>
        <time>2015-09-20T11:13:29.896Z</time>
      </trkpt>
      <trkpt lat="45.92659" lon="4.74344">
        <ele>173.600006104</ele>
        <time>2015-09-20T11:13:30.831Z</time>
      </trkpt>
      <trkpt lat="45.92662" lon="4.74338">
        <ele>173.399993896</ele>
        <time>2015-09-20T11:13:31.87Z</time>
      </trkpt>
      <trkpt lat="45.92665" lon="4.74332">
        <ele>173.399993896</ele>
        <time>2015-09-20T11:13:32.832Z</time>
      </trkpt>
      <trkpt lat="45.92669" lon="4.74327">
        <ele>173.199996948</ele>
        <time>2015-09-20T11:13:33.856Z</time>
      </trkpt>
      <trkpt lat="45.92673" lon="4.74321">
        <ele>173.5</ele>
        <time>2015-09-20T11:13:34.831Z</time>
      </trkpt>
      <trkpt lat="45.92677" lon="4.74314">
        <ele>173.399993896</ele>
        <time>2015-09-20T11:13:35.859Z</time>
      </trkpt>
      <trkpt lat="45.9268" lon="4.74307">
        <ele>172.699996948</ele>
        <time>2015-09-20T11:13:36.874Z</time>
      </trkpt>
      <trkpt lat="45.92684" lon="4.74301">
        <ele>172.600006104</ele>
        <time>2015-09-20T11:13:37.86Z</time>
      </trkpt>
      <trkpt lat="45.92687" lon="4.74295">
        <ele>172.800003052</ele>
        <time>2015-09-20T11:13:38.832Z</time>
      </trkpt>
      <trkpt lat="45.9269" lon="4.74288">
        <ele>172.600006104</ele>
        <time>2015-09-20T11:13:39.856Z</time>
      </trkpt>
      <trkpt lat="45.92694" lon="4.74282">
        <ele>172.699996948</ele>
        <time>2015-09-20T11:13:40.831Z</time>
      </trkpt>
      <trkpt lat="45.92697" lon="4.74276">
        <ele>172.899993896</ele>
        <time>2015-09-20T11:13:41.859Z</time>
      </trkpt>
      <trkpt lat="45.92701" lon="4.74269">
        <ele>172.899993896</ele>
        <time>2015-09-20T11:13:42.831Z</time>
      </trkpt>
      <trkpt lat="45.92705" lon="4.74262">
        <ele>172.800003052</ele>
        <time>2015-09-20T11:13:43.857Z</time>
      </trkpt>
      <trkpt lat="45.92708" lon="4.74257">
        <ele>172.800003052</ele>
        <time>2015-09-20T11:13:44.832Z</time>
      </trkpt>
      <trkpt lat="45.92712" lon="4.74251">
        <ele>172.699996948</ele>
        <time>2015-09-20T11:13:45.856Z</time>
      </trkpt>
      <trkpt lat="45.92715" lon="4.74245">
        <ele>172.699996948</ele>
        <time>2015-09-20T11:13:46.831Z</time>
      </trkpt>
      <trkpt lat="45.92719" lon="4.74239">
        <ele>172.5</ele>
        <time>2015-09-20T11:13:47.883Z</time>
      </trkpt>
      <trkpt lat="45.92722" lon="4.74234">
        <ele>172.600006104</ele>
        <time>2015-09-20T11:13:48.832Z</time>
      </trkpt>
      <trkpt lat="45.92726" lon="4.74228">
        <ele>172.699996948</ele>
        <time>2015-09-20T11:13:49.857Z</time>
      </trkpt>
      <trkpt lat="45.9273" lon="4.74222">
        <ele>172.199996948</ele>
        <time>2015-09-20T11:13:50.832Z</time>
      </trkpt>
      <trkpt lat="45.92733" lon="4.74217">
        <ele>172</ele>
        <time>2015-09-20T11:13:51.856Z</time>
      </trkpt>
      <trkpt lat="45.92737" lon="4.74211">
        <ele>171.699996948</ele>
        <time>2015-09-20T11:13:52.831Z</time>
      </trkpt>
      <trkpt lat="45.92741" lon="4.74205">
        <ele>171.5</ele>
        <time>2015-09-20T11:13:53.859Z</time>
      </trkpt>
      <trkpt lat="45.92745" lon="4.74199">
        <ele>171.5</ele>
        <time>2015-09-20T11:13:54.831Z</time>
      </trkpt>
      <trkpt lat="45.92749" lon="4.74194">
        <ele>171.300003052</ele>
        <time>2015-09-20T11:13:55.86Z</time>
      </trkpt>
      <trkpt lat="45.92753" lon="4.74188">
        <ele>170.699996948</ele>
        <time>2015-09-20T11:13:56.831Z</time>
      </trkpt>
      <trkpt lat="45.92757" lon="4.74183">
        <ele>170.399993896</ele>
        <time>2015-09-20T11:13:57.856Z</time>
      </trkpt>
      <trkpt lat="45.92762" lon="4.74178">
        <ele>170.800003052</ele>
        <time>2015-09-20T11:13:58.855Z</time>
      </trkpt>
      <trkpt lat="45.92766" lon="4.74173">
        <ele>170.899993896</ele>
        <time>2015-09-20T11:13:59.86Z</time>
      </trkpt>
      <trkpt lat="45.92771" lon="4.74168">
        <ele>170.899993896</ele>
        <time>2015-09-20T11:14:00.831Z</time>
      </trkpt>
      <trkpt lat="45.92775" lon="4.74164">
        <ele>170.899993896</ele>
        <time>2015-09-20T11:14:01.857Z</time>
      </trkpt>
      <trkpt lat="45.92779" lon="4.74159">
        <ele>171</ele>
        <time>2015-09-20T11:14:02.831Z</time>
      </trkpt>
      <trkpt lat="45.92784" lon="4.74155">
        <ele>171.100006104</ele>
        <time>2015-09-20T11:14:03.874Z</time>
      </trkpt>
      <trkpt lat="45.92788" lon="4.7415">
        <ele>171.199996948</ele>
        <time>2015-09-20T11:14:04.831Z</time>
      </trkpt>
      <trkpt lat="45.92792" lon="4.74146">
        <ele>171.5</ele>
        <time>2015-09-20T11:14:05.859Z</time>
      </trkpt>
      <trkpt lat="45.92796" lon="4.74141">
        <ele>171.5</ele>
        <time>2015-09-20T11:14:06.831Z</time>
      </trkpt>
      <trkpt lat="45.92802" lon="4.74137">
        <ele>171.600006104</ele>
        <time>2015-09-20T11:14:07.934Z</time>
      </trkpt>
      <trkpt lat="45.92806" lon="4.74132">
        <ele>171.800003052</ele>
        <time>2015-09-20T11:14:08.831Z</time>
      </trkpt>
      <trkpt lat="45.92812" lon="4.74127">
        <ele>171.699996948</ele>
        <time>2015-09-20T11:14:09.888Z</time>
      </trkpt>
      <trkpt lat="45.92816" lon="4.74122">
        <ele>171.5</ele>
        <time>2015-09-20T11:14:10.831Z</time>
      </trkpt>
      <trkpt lat="45.92821" lon="4.74117">
        <ele>171.300003052</ele>
        <time>2015-09-20T11:14:11.859Z</time>
      </trkpt>
      <trkpt lat="45.92825" lon="4.74112">
        <ele>171.199996948</ele>
        <time>2015-09-20T11:14:12.832Z</time>
      </trkpt>
      <trkpt lat="45.9283" lon="4.74106">
        <ele>171.100006104</ele>
        <time>2015-09-20T11:14:13.856Z</time>
      </trkpt>
      <trkpt lat="45.92834" lon="4.74101">
        <ele>170.899993896</ele>
        <time>2015-09-20T11:14:14.831Z</time>
      </trkpt>
      <trkpt lat="45.92839" lon="4.74096">
        <ele>170.800003052</ele>
        <time>2015-09-20T11:14:15.855Z</time>
      </trkpt>
      <trkpt lat="45.92844" lon="4.74091">
        <ele>170.699996948</ele>
        <time>2015-09-20T11:14:16.831Z</time>
      </trkpt>
      <trkpt lat="45.92848" lon="4.74086">
        <ele>170.399993896</ele>
        <time>2015-09-20T11:14:17.924Z</time>
      </trkpt>
      <trkpt lat="45.92852" lon="4.74081">
        <ele>170.5</ele>
        <time>2015-09-20T11:14:18.831Z</time>
      </trkpt>
      <trkpt lat="45.92856" lon="4.74076">
        <ele>170.699996948</ele>
        <time>2015-09-20T11:14:19.896Z</time>
      </trkpt>
      <trkpt lat="45.92859" lon="4.74072">
        <ele>171.100006104</ele>
        <time>2015-09-20T11:14:20.831Z</time>
      </trkpt>
      <trkpt lat="45.92864" lon="4.74067">
        <ele>171.199996948</ele>
        <time>2015-09-20T11:14:21.858Z</time>
      </trkpt>
      <trkpt lat="45.92868" lon="4.74062">
        <ele>171.300003052</ele>
        <time>2015-09-20T11:14:22.831Z</time>
      </trkpt>
      <trkpt lat="45.92872" lon="4.74058">
        <ele>171.399993896</ele>
        <time>2015-09-20T11:14:23.859Z</time>
      </trkpt>
      <trkpt lat="45.92876" lon="4.74054">
        <ele>171.199996948</ele>
        <time>2015-09-20T11:14:24.846Z</time>
      </trkpt>
      <trkpt lat="45.92881" lon="4.74051">
        <ele>171.100006104</ele>
        <time>2015-09-20T11:14:25.857Z</time>
      </trkpt>
      <trkpt lat="45.92886" lon="4.7405">
        <ele>171</ele>
        <time>2015-09-20T11:14:26.831Z</time>
      </trkpt>
      <trkpt lat="45.92891" lon="4.74049">
        <ele>170.800003052</ele>
        <time>2015-09-20T11:14:27.894Z</time>
      </trkpt>
      <trkpt lat="45.92895" lon="4.7405">
        <ele>170.399993896</ele>
        <time>2015-09-20T11:14:28.831Z</time>
      </trkpt>
      <trkpt lat="45.92901" lon="4.7405">
        <ele>170.600006104</ele>
        <time>2015-09-20T11:14:29.905Z</time>
      </trkpt>
      <trkpt lat="45.92906" lon="4.74049">
        <ele>170.699996948</ele>
        <time>2015-09-20T11:14:30.831Z</time>
      </trkpt>
      <trkpt lat="45.92911" lon="4.74046">
        <ele>170.800003052</ele>
        <time>2015-09-20T11:14:31.857Z</time>
      </trkpt>
      <trkpt lat="45.92915" lon="4.7404">
        <ele>170.699996948</ele>
        <time>2015-09-20T11:14:32.831Z</time>
      </trkpt>
      <trkpt lat="45.92919" lon="4.74034">
        <ele>170.699996948</ele>
        <time>2015-09-20T11:14:33.855Z</time>
      </trkpt>
      <trkpt lat="45.92921" lon="4.74026">
        <ele>170.800003052</ele>
        <time>2015-09-20T11:14:34.831Z</time>
      </trkpt>
      <trkpt lat="45.92922" lon="4.74017">
        <ele>170.899993896</ele>
        <time>2015-09-20T11:14:35.859Z</time>
      </trkpt>
      <trkpt lat="45.92921" lon="4.74008">
        <ele>170.800003052</ele>
        <time>2015-09-20T11:14:36.831Z</time>
      </trkpt>
      <trkpt lat="45.92919" lon="4.74001">
        <ele>171.199996948</ele>
        <time>2015-09-20T11:14:37.856Z</time>
      </trkpt>
      <trkpt lat="45.92916" lon="4.73995">
        <ele>171.100006104</ele>
        <time>2015-09-20T11:14:38.831Z</time>
      </trkpt>
      <trkpt lat="45.92912" lon="4.73991">
        <ele>171.100006104</ele>
        <time>2015-09-20T11:14:39.856Z</time>
      </trkpt>
      <trkpt lat="45.92907" lon="4.73986">
        <ele>171.100006104</ele>
        <time>2015-09-20T11:14:40.831Z</time>
      </trkpt>
      <trkpt lat="45.92902" lon="4.73983">
        <ele>171.100006104</ele>
        <time>2015-09-20T11:14:41.858Z</time>
      </trkpt>
      <trkpt lat="45.92897" lon="4.73978">
        <ele>171.100006104</ele>
        <time>2015-09-20T11:14:42.831Z</time>
      </trkpt>
      <trkpt lat="45.92894" lon="4.73972">
        <ele>171.300003052</ele>
        <time>2015-09-20T11:14:43.857Z</time>
      </trkpt>
      <trkpt lat="45.92891" lon="4.73964">
        <ele>171.199996948</ele>
        <time>2015-09-20T11:14:44.831Z</time>
      </trkpt>
      <trkpt lat="45.9289" lon="4.73956">
        <ele>171.199996948</ele>
        <time>2015-09-20T11:14:45.881Z</time>
      </trkpt>
      <trkpt lat="45.9289" lon="4.73948">
        <ele>171.100006104</ele>
        <time>2015-09-20T11:14:46.831Z</time>
      </trkpt>
      <trkpt lat="45.9289" lon="4.73939">
        <ele>171</ele>
        <time>2015-09-20T11:14:47.861Z</time>
      </trkpt>
      <trkpt lat="45.92889" lon="4.73931">
        <ele>170.800003052</ele>
        <time>2015-09-20T11:14:48.831Z</time>
      </trkpt>
      <trkpt lat="45.92888" lon="4.73922">
        <ele>170.699996948</ele>
        <time>2015-09-20T11:14:49.891Z</time>
      </trkpt>
      <trkpt lat="45.92887" lon="4.73914">
        <ele>170.699996948</ele>
        <time>2015-09-20T11:14:50.831Z</time>
      </trkpt>
      <trkpt lat="45.92886" lon="4.73905">
        <ele>170.699996948</ele>
        <time>2015-09-20T11:14:51.856Z</time>
      </trkpt>
      <trkpt lat="45.92884" lon="4.73897">
        <ele>170.800003052</ele>
        <time>2015-09-20T11:14:52.832Z</time>
      </trkpt>
      <trkpt lat="45.92882" lon="4.73887">
        <ele>170.5</ele>
        <time>2015-09-20T11:14:53.859Z</time>
      </trkpt>
      <trkpt lat="45.9288" lon="4.73878">
        <ele>170.399993896</ele>
        <time>2015-09-20T11:14:54.831Z</time>
      </trkpt>
      <trkpt lat="45.92877" lon="4.7387">
        <ele>170.399993896</ele>
        <time>2015-09-20T11:14:55.857Z</time>
      </trkpt>
      <trkpt lat="45.92875" lon="4.73862">
        <ele>170.399993896</ele>
        <time>2015-09-20T11:14:56.832Z</time>
      </trkpt>
      <trkpt lat="45.92873" lon="4.73854">
        <ele>170.399993896</ele>
        <time>2015-09-20T11:14:57.856Z</time>
      </trkpt>
      <trkpt lat="45.9287" lon="4.73845">
        <ele>170.5</ele>
        <time>2015-09-20T11:14:58.833Z</time>
      </trkpt>
      <trkpt lat="45.92867" lon="4.73836">
        <ele>170.300003052</ele>
        <time>2015-09-20T11:14:59.86Z</time>
      </trkpt>
      <trkpt lat="45.92865" lon="4.73828">
        <ele>170.100006104</ele>
        <time>2015-09-20T11:15:00.833Z</time>
      </trkpt>
      <trkpt lat="45.92862" lon="4.7382">
        <ele>169.899993896</ele>
        <time>2015-09-20T11:15:01.885Z</time>
      </trkpt>
      <trkpt lat="45.9286" lon="4.73812">
        <ele>169.899993896</ele>
        <time>2015-09-20T11:15:02.831Z</time>
      </trkpt>
      <trkpt lat="45.92858" lon="4.73804">
        <ele>169.800003052</ele>
        <time>2015-09-20T11:15:03.894Z</time>
      </trkpt>
      <trkpt lat="45.92856" lon="4.73798">
        <ele>169.399993896</ele>
        <time>2015-09-20T11:15:04.831Z</time>
      </trkpt>
      <trkpt lat="45.92853" lon="4.73791">
        <ele>169.100006104</ele>
        <time>2015-09-20T11:15:05.859Z</time>
      </trkpt>
      <trkpt lat="45.9285" lon="4.73787">
        <ele>169</ele>
        <time>2015-09-20T11:15:06.831Z</time>
      </trkpt>
      <trkpt lat="45.92844" lon="4.73784">
        <ele>168.800003052</ele>
        <time>2015-09-20T11:15:07.934Z</time>
      </trkpt>
      <trkpt lat="45.9284" lon="4.73784">
        <ele>168.899993896</ele>
        <time>2015-09-20T11:15:08.832Z</time>
      </trkpt>
      <trkpt lat="45.92835" lon="4.73782">
        <ele>168.899993896</ele>
        <time>2015-09-20T11:15:09.857Z</time>
      </trkpt>
      <trkpt lat="45.9283" lon="4.7378">
        <ele>168.600006104</ele>
        <time>2015-09-20T11:15:10.833Z</time>
      </trkpt>
      <trkpt lat="45.92826" lon="4.73777">
        <ele>168.300003052</ele>
        <time>2015-09-20T11:15:11.861Z</time>
      </trkpt>
      <trkpt lat="45.92821" lon="4.73774">
        <ele>168.399993896</ele>
        <time>2015-09-20T11:15:12.834Z</time>
      </trkpt>
      <trkpt lat="45.92817" lon="4.73771">
        <ele>168.399993896</ele>
        <time>2015-09-20T11:15:13.862Z</time>
      </trkpt>
      <trkpt lat="45.92813" lon="4.73768">
        <ele>168.300003052</ele>
        <time>2015-09-20T11:15:14.835Z</time>
      </trkpt>
      <trkpt lat="45.92805" lon="4.73763">
        <ele>168.300003052</ele>
        <time>2015-09-20T11:15:16.857Z</time>
      </trkpt>
      <trkpt lat="45.928" lon="4.73761">
        <ele>168.199996948</ele>
        <time>2015-09-20T11:15:17.851Z</time>
      </trkpt>
      <trkpt lat="45.92796" lon="4.73759">
        <ele>168.300003052</ele>
        <time>2015-09-20T11:15:18.864Z</time>
      </trkpt>
      <trkpt lat="45.92791" lon="4.73756">
        <ele>168.800003052</ele>
        <time>2015-09-20T11:15:19.833Z</time>
      </trkpt>
      <trkpt lat="45.92787" lon="4.73751">
        <ele>169.399993896</ele>
        <time>2015-09-20T11:15:20.856Z</time>
      </trkpt>
      <trkpt lat="45.92784" lon="4.73746">
        <ele>169.699996948</ele>
        <time>2015-09-20T11:15:21.831Z</time>
      </trkpt>
      <trkpt lat="45.9278" lon="4.7374">
        <ele>169.800003052</ele>
        <time>2015-09-20T11:15:22.856Z</time>
      </trkpt>
      <trkpt lat="45.92776" lon="4.73736">
        <ele>169.800003052</ele>
        <time>2015-09-20T11:15:23.835Z</time>
      </trkpt>
      <trkpt lat="45.92771" lon="4.73734">
        <ele>169.899993896</ele>
        <time>2015-09-20T11:15:24.856Z</time>
      </trkpt>
      <trkpt lat="45.92765" lon="4.73732">
        <ele>170</ele>
        <time>2015-09-20T11:15:25.832Z</time>
      </trkpt>
      <trkpt lat="45.9276" lon="4.7373">
        <ele>170.100006104</ele>
        <time>2015-09-20T11:15:26.856Z</time>
      </trkpt>
      <trkpt lat="45.92755" lon="4.73729">
        <ele>170.300003052</ele>
        <time>2015-09-20T11:15:27.832Z</time>
      </trkpt>
      <trkpt lat="45.9275" lon="4.73727">
        <ele>170.600006104</ele>
        <time>2015-09-20T11:15:28.857Z</time>
      </trkpt>
      <trkpt lat="45.92744" lon="4.73726">
        <ele>170.600006104</ele>
        <time>2015-09-20T11:15:29.836Z</time>
      </trkpt>
      <trkpt lat="45.92738" lon="4.73723">
        <ele>170.800003052</ele>
        <time>2015-09-20T11:15:30.857Z</time>
      </trkpt>
      <trkpt lat="45.92732" lon="4.73722">
        <ele>170.800003052</ele>
        <time>2015-09-20T11:15:31.833Z</time>
      </trkpt>
      <trkpt lat="45.92726" lon="4.7372">
        <ele>171.199996948</ele>
        <time>2015-09-20T11:15:32.856Z</time>
      </trkpt>
      <trkpt lat="45.9272" lon="4.73718">
        <ele>171.300003052</ele>
        <time>2015-09-20T11:15:33.832Z</time>
      </trkpt>
      <trkpt lat="45.92714" lon="4.73717">
        <ele>171.5</ele>
        <time>2015-09-20T11:15:34.856Z</time>
      </trkpt>
      <trkpt lat="45.92708" lon="4.73715">
        <ele>171.800003052</ele>
        <time>2015-09-20T11:15:35.835Z</time>
      </trkpt>
      <trkpt lat="45.92702" lon="4.73715">
        <ele>171.5</ele>
        <time>2015-09-20T11:15:36.855Z</time>
      </trkpt>
      <trkpt lat="45.92696" lon="4.73714">
        <ele>171.800003052</ele>
        <time>2015-09-20T11:15:37.832Z</time>
      </trkpt>
      <trkpt lat="45.9269" lon="4.73712">
        <ele>171.899993896</ele>
        <time>2015-09-20T11:15:38.869Z</time>
      </trkpt>
      <trkpt lat="45.92684" lon="4.73711">
        <ele>172.100006104</ele>
        <time>2015-09-20T11:15:39.834Z</time>
      </trkpt>
      <trkpt lat="45.92679" lon="4.73709">
        <ele>172.199996948</ele>
        <time>2015-09-20T11:15:40.859Z</time>
      </trkpt>
      <trkpt lat="45.92673" lon="4.73706">
        <ele>172.399993896</ele>
        <time>2015-09-20T11:15:41.834Z</time>
      </trkpt>
      <trkpt lat="45.92668" lon="4.73703">
        <ele>172.600006104</ele>
        <time>2015-09-20T11:15:42.855Z</time>
      </trkpt>
      <trkpt lat="45.92664" lon="4.737">
        <ele>172.899993896</ele>
        <time>2015-09-20T11:15:43.832Z</time>
      </trkpt>
      <trkpt lat="45.92659" lon="4.73696">
        <ele>173</ele>
        <time>2015-09-20T11:15:44.855Z</time>
      </trkpt>
      <trkpt lat="45.92654" lon="4.73691">
        <ele>173.199996948</ele>
        <time>2015-09-20T11:15:45.854Z</time>
      </trkpt>
      <trkpt lat="45.9265" lon="4.73686">
        <ele>173.300003052</ele>
        <time>2015-09-20T11:15:46.856Z</time>
      </trkpt>
      <trkpt lat="45.92646" lon="4.7368">
        <ele>173.199996948</ele>
        <time>2015-09-20T11:15:47.834Z</time>
      </trkpt>
      <trkpt lat="45.92642" lon="4.73674">
        <ele>173.300003052</ele>
        <time>2015-09-20T11:15:48.856Z</time>
      </trkpt>
      <trkpt lat="45.92638" lon="4.73668">
        <ele>173.399993896</ele>
        <time>2015-09-20T11:15:49.832Z</time>
      </trkpt>
      <trkpt lat="45.92634" lon="4.73662">
        <ele>173.600006104</ele>
        <time>2015-09-20T11:15:50.862Z</time>
      </trkpt>
      <trkpt lat="45.92631" lon="4.73655">
        <ele>173.699996948</ele>
        <time>2015-09-20T11:15:51.832Z</time>
      </trkpt>
      <trkpt lat="45.92628" lon="4.73647">
        <ele>173.800003052</ele>
        <time>2015-09-20T11:15:52.856Z</time>
      </trkpt>
      <trkpt lat="45.92625" lon="4.73639">
        <ele>173.800003052</ele>
        <time>2015-09-20T11:15:53.834Z</time>
      </trkpt>
      <trkpt lat="45.92621" lon="4.73633">
        <ele>173.800003052</ele>
        <time>2015-09-20T11:15:54.894Z</time>
      </trkpt>
      <trkpt lat="45.92616" lon="4.73628">
        <ele>173.899993896</ele>
        <time>2015-09-20T11:15:55.831Z</time>
      </trkpt>
      <trkpt lat="45.92611" lon="4.73624">
        <ele>174</ele>
        <time>2015-09-20T11:15:56.856Z</time>
      </trkpt>
      <trkpt lat="45.92605" lon="4.73622">
        <ele>173.600006104</ele>
        <time>2015-09-20T11:15:57.831Z</time>
      </trkpt>
      <trkpt lat="45.92599" lon="4.73621">
        <ele>173.300003052</ele>
        <time>2015-09-20T11:15:58.856Z</time>
      </trkpt>
      <trkpt lat="45.92593" lon="4.73622">
        <ele>173.100006104</ele>
        <time>2015-09-20T11:15:59.835Z</time>
      </trkpt>
      <trkpt lat="45.92588" lon="4.73624">
        <ele>172.600006104</ele>
        <time>2015-09-20T11:16:00.856Z</time>
      </trkpt>
      <trkpt lat="45.92583" lon="4.73625">
        <ele>172.300003052</ele>
        <time>2015-09-20T11:16:01.832Z</time>
      </trkpt>
      <trkpt lat="45.92577" lon="4.73627">
        <ele>171.899993896</ele>
        <time>2015-09-20T11:16:02.859Z</time>
      </trkpt>
      <trkpt lat="45.92572" lon="4.73628">
        <ele>171.800003052</ele>
        <time>2015-09-20T11:16:03.831Z</time>
      </trkpt>
      <trkpt lat="45.92566" lon="4.7363">
        <ele>171.600006104</ele>
        <time>2015-09-20T11:16:04.856Z</time>
      </trkpt>
      <trkpt lat="45.92561" lon="4.73632">
        <ele>171.5</ele>
        <time>2015-09-20T11:16:05.837Z</time>
      </trkpt>
      <trkpt lat="45.92555" lon="4.73633">
        <ele>171.5</ele>
        <time>2015-09-20T11:16:06.859Z</time>
      </trkpt>
      <trkpt lat="45.92548" lon="4.73636">
        <ele>171.5</ele>
        <time>2015-09-20T11:16:07.864Z</time>
      </trkpt>
      <trkpt lat="45.92542" lon="4.73638">
        <ele>171.800003052</ele>
        <time>2015-09-20T11:16:08.889Z</time>
      </trkpt>
      <trkpt lat="45.92537" lon="4.7364">
        <ele>171.5</ele>
        <time>2015-09-20T11:16:09.831Z</time>
      </trkpt>
      <trkpt lat="45.92531" lon="4.7364">
        <ele>171.199996948</ele>
        <time>2015-09-20T11:16:10.87Z</time>
      </trkpt>
      <trkpt lat="45.92526" lon="4.73642">
        <ele>171.300003052</ele>
        <time>2015-09-20T11:16:11.834Z</time>
      </trkpt>
      <trkpt lat="45.92521" lon="4.73643">
        <ele>171.399993896</ele>
        <time>2015-09-20T11:16:12.855Z</time>
      </trkpt>
      <trkpt lat="45.92515" lon="4.73644">
        <ele>171.800003052</ele>
        <time>2015-09-20T11:16:13.831Z</time>
      </trkpt>
      <trkpt lat="45.9251" lon="4.73645">
        <ele>171.699996948</ele>
        <time>2015-09-20T11:16:14.856Z</time>
      </trkpt>
      <trkpt lat="45.92505" lon="4.73645">
        <ele>172</ele>
        <time>2015-09-20T11:16:15.831Z</time>
      </trkpt>
      <trkpt lat="45.925" lon="4.73645">
        <ele>172.199996948</ele>
        <time>2015-09-20T11:16:16.855Z</time>
      </trkpt>
      <trkpt lat="45.92496" lon="4.73645">
        <ele>172.100006104</ele>
        <time>2015-09-20T11:16:17.834Z</time>
      </trkpt>
      <trkpt lat="45.92491" lon="4.73644">
        <ele>172.300003052</ele>
        <time>2015-09-20T11:16:18.865Z</time>
      </trkpt>
      <trkpt lat="45.92487" lon="4.73644">
        <ele>172.399993896</ele>
        <time>2015-09-20T11:16:19.833Z</time>
      </trkpt>
      <trkpt lat="45.92478" lon="4.73647">
        <ele>172.699996948</ele>
        <time>2015-09-20T11:16:21.856Z</time>
      </trkpt>
      <trkpt lat="45.92475" lon="4.73653">
        <ele>173.100006104</ele>
        <time>2015-09-20T11:16:22.83Z</time>
      </trkpt>
      <trkpt lat="45.92473" lon="4.73659">
        <ele>173.300003052</ele>
        <time>2015-09-20T11:16:23.859Z</time>
      </trkpt>
      <trkpt lat="45.92472" lon="4.73665">
        <ele>173.300003052</ele>
        <time>2015-09-20T11:16:24.831Z</time>
      </trkpt>
      <trkpt lat="45.92471" lon="4.73677">
        <ele>173.300003052</ele>
        <time>2015-09-20T11:16:26.869Z</time>
      </trkpt>
      <trkpt lat="45.9247" lon="4.73683">
        <ele>173.300003052</ele>
        <time>2015-09-20T11:16:27.831Z</time>
      </trkpt>
      <trkpt lat="45.92469" lon="4.73695">
        <ele>173.300003052</ele>
        <time>2015-09-20T11:16:29.859Z</time>
      </trkpt>
      <trkpt lat="45.92468" lon="4.73701">
        <ele>173.300003052</ele>
        <time>2015-09-20T11:16:30.831Z</time>
      </trkpt>
      <trkpt lat="45.92466" lon="4.73713">
        <ele>173.199996948</ele>
        <time>2015-09-20T11:16:33.856Z</time>
      </trkpt>
      <trkpt lat="45.92465" lon="4.73714">
        <ele>173.100006104</ele>
        <time>2015-09-20T11:16:34.832Z</time>
      </trkpt>
      <trkpt lat="45.92465" lon="4.73714">
        <ele>173.100006104</ele>
        <time>2015-09-20T11:16:34.859Z</time>
      </trkpt>
      <trkpt lat="45.92465" lon="4.73715">
        <ele>173.199996948</ele>
        <time>2015-09-20T11:16:35.834Z</time>
      </trkpt>
      <trkpt lat="45.92466" lon="4.73715">
        <ele>173.300003052</ele>
        <time>2015-09-20T11:17:02.206Z</time>
      </trkpt>
    </trkseg>
  </trk>
</gpx>